<?xml version="1.0" encoding="UTF-8" standalone="no" ?>
<gpx xmlns="http://www.topografix.com/GPX/1/1" xmlns:xsi="http://www.w3.org/2001/XMLSchema-instance" xsi:schemaLocation="http://www.topografix.com/GPX/1/1 http://www.topografix.com/GPX/1/1/gpx.xsd" version="1.1" creator="VisuGPX - https://www.visugpx.com">
  <metadata>
    <name>RAON SUR PLAINE (88110) Circuits en étoile Ranch du Donon</name>
    <desc><![CDATA[boucle col du donon raon sur plaine]]></desc>
  </metadata>
  <wpt lat="48.50973" lon="7.10032">
    <ele>469.4</ele>
    <name><![CDATA[Ranch du Donon]]></name>
    <desc><![CDATA[RAON SUR PLAINE (88110)]]></desc>
    <link href="https://lorraineacheval.com/gite-equestre/ranch-du-donon/"></link>
    <type><![CDATA[hotel]]></type>
  </wpt>
  <trk>
    <name><![CDATA[Ranch du Donon - 11,1km]]></name>
    <desc><![CDATA[boucle col du donon raon sur plaine]]></desc>
    <extensions>
      <line xmlns="http://www.topografix.com/GPX/gpx_style/0/2">
        <color>0000FF</color>
        <opacity>1</opacity>
        <width>4</width>
      </line>
    </extensions>
    <trkseg>
      <trkpt lat="48.50967" lon="7.10013">
        <ele>471.64255</ele>
        <time>2022-08-08T15:41:03.440Z</time>
      </trkpt>
      <trkpt lat="48.50967" lon="7.10008">
        <ele>471.65253</ele>
        <time>2022-08-08T15:41:22.000Z</time>
      </trkpt>
      <trkpt lat="48.50968" lon="7.10006">
        <ele>471.60269</ele>
        <time>2022-08-08T15:41:24.000Z</time>
      </trkpt>
      <trkpt lat="48.5097" lon="7.10003">
        <ele>471.6329</ele>
        <time>2022-08-08T15:41:27.000Z</time>
      </trkpt>
      <trkpt lat="48.50971" lon="7.09999">
        <ele>471.82706</ele>
        <time>2022-08-08T15:41:30.000Z</time>
      </trkpt>
      <trkpt lat="48.5097" lon="7.09995">
        <ele>471.85141</ele>
        <time>2022-08-08T15:41:33.000Z</time>
      </trkpt>
      <trkpt lat="48.5097" lon="7.09992">
        <ele>471.83426</ele>
        <time>2022-08-08T15:41:35.000Z</time>
      </trkpt>
      <trkpt lat="48.5097" lon="7.09989">
        <ele>471.84827</ele>
        <time>2022-08-08T15:41:37.000Z</time>
      </trkpt>
      <trkpt lat="48.5097" lon="7.09985">
        <ele>471.88693</ele>
        <time>2022-08-08T15:41:39.000Z</time>
      </trkpt>
      <trkpt lat="48.50971" lon="7.09982">
        <ele>471.935</ele>
        <time>2022-08-08T15:41:41.000Z</time>
      </trkpt>
      <trkpt lat="48.50972" lon="7.09979">
        <ele>471.90182</ele>
        <time>2022-08-08T15:41:43.000Z</time>
      </trkpt>
      <trkpt lat="48.50974" lon="7.09976">
        <ele>471.79407</ele>
        <time>2022-08-08T15:41:45.000Z</time>
      </trkpt>
      <trkpt lat="48.50975" lon="7.09973">
        <ele>471.60953</ele>
        <time>2022-08-08T15:41:47.000Z</time>
      </trkpt>
      <trkpt lat="48.50976" lon="7.0997">
        <ele>471.44766</ele>
        <time>2022-08-08T15:41:49.000Z</time>
      </trkpt>
      <trkpt lat="48.50978" lon="7.09966">
        <ele>471.20911</ele>
        <time>2022-08-08T15:41:52.000Z</time>
      </trkpt>
      <trkpt lat="48.5098" lon="7.09963">
        <ele>470.8974</ele>
        <time>2022-08-08T15:41:54.000Z</time>
      </trkpt>
      <trkpt lat="48.50982" lon="7.09961">
        <ele>470.5351</ele>
        <time>2022-08-08T15:41:56.000Z</time>
      </trkpt>
      <trkpt lat="48.50983" lon="7.09959">
        <ele>470.1344</ele>
        <time>2022-08-08T15:41:58.000Z</time>
      </trkpt>
      <trkpt lat="48.50985" lon="7.09956">
        <ele>469.71228</ele>
        <time>2022-08-08T15:42:00.000Z</time>
      </trkpt>
      <trkpt lat="48.50986" lon="7.09953">
        <ele>469.28119</ele>
        <time>2022-08-08T15:42:02.000Z</time>
      </trkpt>
      <trkpt lat="48.50988" lon="7.09951">
        <ele>468.74097</ele>
        <time>2022-08-08T15:42:04.000Z</time>
      </trkpt>
      <trkpt lat="48.5099" lon="7.09949">
        <ele>468.25812</ele>
        <time>2022-08-08T15:42:06.000Z</time>
      </trkpt>
      <trkpt lat="48.50992" lon="7.09947">
        <ele>467.78458</ele>
        <time>2022-08-08T15:42:08.000Z</time>
      </trkpt>
      <trkpt lat="48.50994" lon="7.09945">
        <ele>467.22144</ele>
        <time>2022-08-08T15:42:10.000Z</time>
      </trkpt>
      <trkpt lat="48.50996" lon="7.09943">
        <ele>466.66107</ele>
        <time>2022-08-08T15:42:12.000Z</time>
      </trkpt>
      <trkpt lat="48.50998" lon="7.09941">
        <ele>466.11465</ele>
        <time>2022-08-08T15:42:14.000Z</time>
      </trkpt>
      <trkpt lat="48.51" lon="7.09939">
        <ele>465.53183</ele>
        <time>2022-08-08T15:42:16.000Z</time>
      </trkpt>
      <trkpt lat="48.51002" lon="7.09936">
        <ele>464.90683</ele>
        <time>2022-08-08T15:42:18.000Z</time>
      </trkpt>
      <trkpt lat="48.51004" lon="7.09934">
        <ele>464.19937</ele>
        <time>2022-08-08T15:42:20.000Z</time>
      </trkpt>
      <trkpt lat="48.51005" lon="7.09933">
        <ele>463.50253</ele>
        <time>2022-08-08T15:42:22.000Z</time>
      </trkpt>
      <trkpt lat="48.51007" lon="7.09931">
        <ele>462.85245</ele>
        <time>2022-08-08T15:42:24.000Z</time>
      </trkpt>
      <trkpt lat="48.51009" lon="7.09929">
        <ele>462.27231</ele>
        <time>2022-08-08T15:42:26.000Z</time>
      </trkpt>
      <trkpt lat="48.51011" lon="7.09927">
        <ele>461.69589</ele>
        <time>2022-08-08T15:42:29.000Z</time>
      </trkpt>
      <trkpt lat="48.51013" lon="7.09924">
        <ele>461.17169</ele>
        <time>2022-08-08T15:42:32.000Z</time>
      </trkpt>
      <trkpt lat="48.51015" lon="7.09921">
        <ele>460.70551</ele>
        <time>2022-08-08T15:42:34.000Z</time>
      </trkpt>
      <trkpt lat="48.51017" lon="7.09919">
        <ele>460.3085</ele>
        <time>2022-08-08T15:42:36.000Z</time>
      </trkpt>
      <trkpt lat="48.51018" lon="7.09918">
        <ele>459.95526</ele>
        <time>2022-08-08T15:42:38.000Z</time>
      </trkpt>
      <trkpt lat="48.5102" lon="7.09917">
        <ele>459.63666</ele>
        <time>2022-08-08T15:42:40.000Z</time>
      </trkpt>
      <trkpt lat="48.51022" lon="7.09915">
        <ele>459.36874</ele>
        <time>2022-08-08T15:42:42.000Z</time>
      </trkpt>
      <trkpt lat="48.51024" lon="7.09913">
        <ele>459.15317</ele>
        <time>2022-08-08T15:42:44.000Z</time>
      </trkpt>
      <trkpt lat="48.51026" lon="7.0991">
        <ele>458.91901</ele>
        <time>2022-08-08T15:42:46.000Z</time>
      </trkpt>
      <trkpt lat="48.51028" lon="7.09908">
        <ele>458.62891</ele>
        <time>2022-08-08T15:42:48.000Z</time>
      </trkpt>
      <trkpt lat="48.51029" lon="7.09906">
        <ele>458.35614</ele>
        <time>2022-08-08T15:42:50.000Z</time>
      </trkpt>
      <trkpt lat="48.5103" lon="7.09903">
        <ele>458.17789</ele>
        <time>2022-08-08T15:42:52.000Z</time>
      </trkpt>
      <trkpt lat="48.51032" lon="7.099">
        <ele>457.96729</ele>
        <time>2022-08-08T15:42:54.000Z</time>
      </trkpt>
      <trkpt lat="48.51033" lon="7.09898">
        <ele>457.69659</ele>
        <time>2022-08-08T15:42:56.000Z</time>
      </trkpt>
      <trkpt lat="48.51034" lon="7.09896">
        <ele>457.45264</ele>
        <time>2022-08-08T15:42:58.000Z</time>
      </trkpt>
      <trkpt lat="48.51036" lon="7.09894">
        <ele>457.20493</ele>
        <time>2022-08-08T15:43:00.000Z</time>
      </trkpt>
      <trkpt lat="48.51038" lon="7.09892">
        <ele>457.00497</ele>
        <time>2022-08-08T15:43:02.000Z</time>
      </trkpt>
      <trkpt lat="48.5104" lon="7.09889">
        <ele>456.68481</ele>
        <time>2022-08-08T15:43:05.000Z</time>
      </trkpt>
      <trkpt lat="48.51041" lon="7.09886">
        <ele>456.33856</ele>
        <time>2022-08-08T15:43:07.000Z</time>
      </trkpt>
      <trkpt lat="48.51043" lon="7.09884">
        <ele>455.99301</ele>
        <time>2022-08-08T15:43:09.000Z</time>
      </trkpt>
      <trkpt lat="48.51045" lon="7.09881">
        <ele>455.64508</ele>
        <time>2022-08-08T15:43:12.000Z</time>
      </trkpt>
      <trkpt lat="48.51046" lon="7.09878">
        <ele>455.23541</ele>
        <time>2022-08-08T15:43:15.000Z</time>
      </trkpt>
      <trkpt lat="48.51047" lon="7.09874">
        <ele>454.77792</ele>
        <time>2022-08-08T15:43:17.000Z</time>
      </trkpt>
      <trkpt lat="48.51047" lon="7.09871">
        <ele>454.41049</ele>
        <time>2022-08-08T15:43:19.000Z</time>
      </trkpt>
      <trkpt lat="48.51049" lon="7.09867">
        <ele>454.0787</ele>
        <time>2022-08-08T15:43:21.000Z</time>
      </trkpt>
      <trkpt lat="48.5105" lon="7.09865">
        <ele>453.81305</ele>
        <time>2022-08-08T15:43:23.000Z</time>
      </trkpt>
      <trkpt lat="48.51052" lon="7.09862">
        <ele>453.58804</ele>
        <time>2022-08-08T15:43:25.000Z</time>
      </trkpt>
      <trkpt lat="48.51053" lon="7.0986">
        <ele>453.42856</ele>
        <time>2022-08-08T15:43:27.000Z</time>
      </trkpt>
      <trkpt lat="48.51055" lon="7.09858">
        <ele>453.36865</ele>
        <time>2022-08-08T15:43:29.000Z</time>
      </trkpt>
      <trkpt lat="48.51057" lon="7.09857">
        <ele>453.2525</ele>
        <time>2022-08-08T15:43:31.000Z</time>
      </trkpt>
      <trkpt lat="48.51059" lon="7.09855">
        <ele>453.1535</ele>
        <time>2022-08-08T15:43:33.000Z</time>
      </trkpt>
      <trkpt lat="48.51062" lon="7.09855">
        <ele>452.8837</ele>
        <time>2022-08-08T15:43:35.000Z</time>
      </trkpt>
      <trkpt lat="48.51064" lon="7.09856">
        <ele>452.56577</ele>
        <time>2022-08-08T15:43:36.000Z</time>
      </trkpt>
      <trkpt lat="48.51068" lon="7.09857">
        <ele>452.34692</ele>
        <time>2022-08-08T15:43:39.000Z</time>
      </trkpt>
      <trkpt lat="48.5107" lon="7.09857">
        <ele>452.08905</ele>
        <time>2022-08-08T15:43:41.000Z</time>
      </trkpt>
      <trkpt lat="48.51072" lon="7.09858">
        <ele>451.85748</ele>
        <time>2022-08-08T15:43:43.000Z</time>
      </trkpt>
      <trkpt lat="48.51074" lon="7.09859">
        <ele>451.66812</ele>
        <time>2022-08-08T15:43:45.000Z</time>
      </trkpt>
      <trkpt lat="48.51077" lon="7.09858">
        <ele>451.6481</ele>
        <time>2022-08-08T15:43:47.000Z</time>
      </trkpt>
      <trkpt lat="48.51079" lon="7.09858">
        <ele>451.73676</ele>
        <time>2022-08-08T15:43:49.000Z</time>
      </trkpt>
      <trkpt lat="48.51082" lon="7.09857">
        <ele>451.85699</ele>
        <time>2022-08-08T15:43:51.000Z</time>
      </trkpt>
      <trkpt lat="48.51084" lon="7.09857">
        <ele>452.0918</ele>
        <time>2022-08-08T15:43:53.000Z</time>
      </trkpt>
      <trkpt lat="48.51086" lon="7.09857">
        <ele>452.33929</ele>
        <time>2022-08-08T15:43:55.000Z</time>
      </trkpt>
      <trkpt lat="48.51089" lon="7.09857">
        <ele>452.5831</ele>
        <time>2022-08-08T15:43:57.000Z</time>
      </trkpt>
      <trkpt lat="48.51091" lon="7.09857">
        <ele>452.73022</ele>
        <time>2022-08-08T15:43:59.000Z</time>
      </trkpt>
      <trkpt lat="48.51093" lon="7.09856">
        <ele>452.84863</ele>
        <time>2022-08-08T15:44:01.000Z</time>
      </trkpt>
      <trkpt lat="48.51095" lon="7.09856">
        <ele>452.94449</ele>
        <time>2022-08-08T15:44:03.000Z</time>
      </trkpt>
      <trkpt lat="48.51098" lon="7.09856">
        <ele>453.02301</ele>
        <time>2022-08-08T15:44:05.000Z</time>
      </trkpt>
      <trkpt lat="48.51102" lon="7.09856">
        <ele>453.01578</ele>
        <time>2022-08-08T15:44:07.000Z</time>
      </trkpt>
      <trkpt lat="48.51104" lon="7.09858">
        <ele>452.94012</ele>
        <time>2022-08-08T15:44:09.000Z</time>
      </trkpt>
      <trkpt lat="48.51107" lon="7.0986">
        <ele>452.91025</ele>
        <time>2022-08-08T15:44:11.000Z</time>
      </trkpt>
      <trkpt lat="48.51109" lon="7.09861">
        <ele>452.87299</ele>
        <time>2022-08-08T15:44:13.000Z</time>
      </trkpt>
      <trkpt lat="48.51111" lon="7.09861">
        <ele>452.99628</ele>
        <time>2022-08-08T15:44:15.000Z</time>
      </trkpt>
      <trkpt lat="48.51114" lon="7.0986">
        <ele>453.15909</ele>
        <time>2022-08-08T15:44:17.000Z</time>
      </trkpt>
      <trkpt lat="48.51117" lon="7.0986">
        <ele>453.28571</ele>
        <time>2022-08-08T15:44:19.000Z</time>
      </trkpt>
      <trkpt lat="48.51119" lon="7.09861">
        <ele>453.45572</ele>
        <time>2022-08-08T15:44:21.000Z</time>
      </trkpt>
      <trkpt lat="48.51122" lon="7.09861">
        <ele>453.65536</ele>
        <time>2022-08-08T15:44:23.000Z</time>
      </trkpt>
      <trkpt lat="48.51125" lon="7.09862">
        <ele>453.82465</ele>
        <time>2022-08-08T15:44:25.000Z</time>
      </trkpt>
      <trkpt lat="48.51127" lon="7.09863">
        <ele>453.88531</ele>
        <time>2022-08-08T15:44:27.000Z</time>
      </trkpt>
      <trkpt lat="48.5113" lon="7.09865">
        <ele>453.84628</ele>
        <time>2022-08-08T15:44:29.000Z</time>
      </trkpt>
      <trkpt lat="48.51133" lon="7.09866">
        <ele>453.79639</ele>
        <time>2022-08-08T15:44:31.000Z</time>
      </trkpt>
      <trkpt lat="48.51135" lon="7.09866">
        <ele>453.68402</ele>
        <time>2022-08-08T15:44:33.000Z</time>
      </trkpt>
      <trkpt lat="48.51138" lon="7.09867">
        <ele>453.55664</ele>
        <time>2022-08-08T15:44:35.000Z</time>
      </trkpt>
      <trkpt lat="48.51141" lon="7.09868">
        <ele>453.51334</ele>
        <time>2022-08-08T15:44:37.000Z</time>
      </trkpt>
      <trkpt lat="48.51143" lon="7.09869">
        <ele>453.55878</ele>
        <time>2022-08-08T15:44:39.000Z</time>
      </trkpt>
      <trkpt lat="48.51146" lon="7.09869">
        <ele>453.66895</ele>
        <time>2022-08-08T15:44:41.000Z</time>
      </trkpt>
      <trkpt lat="48.51148" lon="7.09871">
        <ele>453.7561</ele>
        <time>2022-08-08T15:44:43.000Z</time>
      </trkpt>
      <trkpt lat="48.51151" lon="7.09872">
        <ele>453.82635</ele>
        <time>2022-08-08T15:44:45.000Z</time>
      </trkpt>
      <trkpt lat="48.51153" lon="7.09873">
        <ele>453.97397</ele>
        <time>2022-08-08T15:44:47.000Z</time>
      </trkpt>
      <trkpt lat="48.51155" lon="7.09873">
        <ele>454.12701</ele>
        <time>2022-08-08T15:44:49.000Z</time>
      </trkpt>
      <trkpt lat="48.51158" lon="7.09876">
        <ele>454.24966</ele>
        <time>2022-08-08T15:44:51.000Z</time>
      </trkpt>
      <trkpt lat="48.51161" lon="7.09877">
        <ele>454.28143</ele>
        <time>2022-08-08T15:44:53.000Z</time>
      </trkpt>
      <trkpt lat="48.51164" lon="7.09879">
        <ele>454.31927</ele>
        <time>2022-08-08T15:44:55.000Z</time>
      </trkpt>
      <trkpt lat="48.51166" lon="7.0988">
        <ele>454.30768</ele>
        <time>2022-08-08T15:44:57.000Z</time>
      </trkpt>
      <trkpt lat="48.51168" lon="7.09882">
        <ele>454.2724</ele>
        <time>2022-08-08T15:44:59.000Z</time>
      </trkpt>
      <trkpt lat="48.51171" lon="7.09884">
        <ele>454.24942</ele>
        <time>2022-08-08T15:45:01.000Z</time>
      </trkpt>
      <trkpt lat="48.51173" lon="7.09886">
        <ele>454.15594</ele>
        <time>2022-08-08T15:45:03.000Z</time>
      </trkpt>
      <trkpt lat="48.51175" lon="7.09888">
        <ele>454.06</ele>
        <time>2022-08-08T15:45:05.000Z</time>
      </trkpt>
      <trkpt lat="48.51178" lon="7.0989">
        <ele>453.96356</ele>
        <time>2022-08-08T15:45:07.000Z</time>
      </trkpt>
      <trkpt lat="48.5118" lon="7.09892">
        <ele>453.87906</ele>
        <time>2022-08-08T15:45:09.000Z</time>
      </trkpt>
      <trkpt lat="48.51183" lon="7.09894">
        <ele>453.71249</ele>
        <time>2022-08-08T15:45:11.000Z</time>
      </trkpt>
      <trkpt lat="48.51185" lon="7.09896">
        <ele>453.44781</ele>
        <time>2022-08-08T15:45:13.000Z</time>
      </trkpt>
      <trkpt lat="48.51187" lon="7.09898">
        <ele>453.17886</ele>
        <time>2022-08-08T15:45:15.000Z</time>
      </trkpt>
      <trkpt lat="48.51189" lon="7.09901">
        <ele>452.86832</ele>
        <time>2022-08-08T15:45:17.000Z</time>
      </trkpt>
      <trkpt lat="48.51192" lon="7.09903">
        <ele>452.4913</ele>
        <time>2022-08-08T15:45:19.000Z</time>
      </trkpt>
      <trkpt lat="48.51194" lon="7.09905">
        <ele>451.97501</ele>
        <time>2022-08-08T15:45:21.000Z</time>
      </trkpt>
      <trkpt lat="48.51196" lon="7.09906">
        <ele>451.42056</ele>
        <time>2022-08-08T15:45:23.000Z</time>
      </trkpt>
      <trkpt lat="48.51199" lon="7.09907">
        <ele>450.84946</ele>
        <time>2022-08-08T15:45:25.000Z</time>
      </trkpt>
      <trkpt lat="48.51202" lon="7.09907">
        <ele>450.21442</ele>
        <time>2022-08-08T15:45:27.000Z</time>
      </trkpt>
      <trkpt lat="48.51203" lon="7.09906">
        <ele>449.50055</ele>
        <time>2022-08-08T15:45:28.000Z</time>
      </trkpt>
      <trkpt lat="48.512" lon="7.099">
        <ele>448.69272</ele>
        <time>2022-08-08T15:45:29.000Z</time>
      </trkpt>
      <trkpt lat="48.51196" lon="7.09903">
        <ele>447.82788</ele>
        <time>2022-08-08T15:45:30.000Z</time>
      </trkpt>
      <trkpt lat="48.51196" lon="7.09907">
        <ele>446.83228</ele>
        <time>2022-08-08T15:45:31.000Z</time>
      </trkpt>
      <trkpt lat="48.51198" lon="7.09911">
        <ele>445.78546</ele>
        <time>2022-08-08T15:45:33.000Z</time>
      </trkpt>
      <trkpt lat="48.51199" lon="7.09914">
        <ele>444.75604</ele>
        <time>2022-08-08T15:45:35.000Z</time>
      </trkpt>
      <trkpt lat="48.51201" lon="7.09917">
        <ele>443.76801</ele>
        <time>2022-08-08T15:45:37.000Z</time>
      </trkpt>
      <trkpt lat="48.51203" lon="7.09919">
        <ele>442.8067</ele>
        <time>2022-08-08T15:45:39.000Z</time>
      </trkpt>
      <trkpt lat="48.51204" lon="7.09922">
        <ele>441.86774</ele>
        <time>2022-08-08T15:45:41.000Z</time>
      </trkpt>
      <trkpt lat="48.51206" lon="7.09924">
        <ele>440.99838</ele>
        <time>2022-08-08T15:45:43.000Z</time>
      </trkpt>
      <trkpt lat="48.51209" lon="7.09925">
        <ele>440.14218</ele>
        <time>2022-08-08T15:45:45.000Z</time>
      </trkpt>
      <trkpt lat="48.51211" lon="7.09927">
        <ele>439.35693</ele>
        <time>2022-08-08T15:45:47.000Z</time>
      </trkpt>
      <trkpt lat="48.51213" lon="7.09929">
        <ele>438.72324</ele>
        <time>2022-08-08T15:45:49.000Z</time>
      </trkpt>
      <trkpt lat="48.51216" lon="7.09931">
        <ele>438.08429</ele>
        <time>2022-08-08T15:45:51.000Z</time>
      </trkpt>
      <trkpt lat="48.51218" lon="7.09932">
        <ele>437.51456</ele>
        <time>2022-08-08T15:45:53.000Z</time>
      </trkpt>
      <trkpt lat="48.5122" lon="7.09934">
        <ele>436.96771</ele>
        <time>2022-08-08T15:45:55.000Z</time>
      </trkpt>
      <trkpt lat="48.51222" lon="7.09937">
        <ele>436.57211</ele>
        <time>2022-08-08T15:45:57.000Z</time>
      </trkpt>
      <trkpt lat="48.51224" lon="7.09938">
        <ele>436.29669</ele>
        <time>2022-08-08T15:45:59.000Z</time>
      </trkpt>
      <trkpt lat="48.51226" lon="7.0994">
        <ele>436.13257</ele>
        <time>2022-08-08T15:46:01.000Z</time>
      </trkpt>
      <trkpt lat="48.51228" lon="7.09941">
        <ele>436.07123</ele>
        <time>2022-08-08T15:46:03.000Z</time>
      </trkpt>
      <trkpt lat="48.5123" lon="7.09942">
        <ele>436.13159</ele>
        <time>2022-08-08T15:46:05.000Z</time>
      </trkpt>
      <trkpt lat="48.51232" lon="7.09943">
        <ele>436.33636</ele>
        <time>2022-08-08T15:46:07.000Z</time>
      </trkpt>
      <trkpt lat="48.51234" lon="7.09946">
        <ele>436.57635</ele>
        <time>2022-08-08T15:46:09.000Z</time>
      </trkpt>
      <trkpt lat="48.51236" lon="7.09949">
        <ele>436.92188</ele>
        <time>2022-08-08T15:46:11.000Z</time>
      </trkpt>
      <trkpt lat="48.51239" lon="7.0995">
        <ele>437.33676</ele>
        <time>2022-08-08T15:46:13.000Z</time>
      </trkpt>
      <trkpt lat="48.51242" lon="7.09952">
        <ele>437.71967</ele>
        <time>2022-08-08T15:46:15.000Z</time>
      </trkpt>
      <trkpt lat="48.51244" lon="7.09953">
        <ele>438.0416</ele>
        <time>2022-08-08T15:46:17.000Z</time>
      </trkpt>
      <trkpt lat="48.51246" lon="7.09956">
        <ele>438.2901</ele>
        <time>2022-08-08T15:46:19.000Z</time>
      </trkpt>
      <trkpt lat="48.51248" lon="7.09959">
        <ele>438.46783</ele>
        <time>2022-08-08T15:46:21.000Z</time>
      </trkpt>
      <trkpt lat="48.51251" lon="7.0996">
        <ele>438.68286</ele>
        <time>2022-08-08T15:46:23.000Z</time>
      </trkpt>
      <trkpt lat="48.51253" lon="7.09961">
        <ele>438.88535</ele>
        <time>2022-08-08T15:46:25.000Z</time>
      </trkpt>
      <trkpt lat="48.51255" lon="7.09963">
        <ele>439.06592</ele>
        <time>2022-08-08T15:46:27.000Z</time>
      </trkpt>
      <trkpt lat="48.51258" lon="7.09965">
        <ele>439.17621</ele>
        <time>2022-08-08T15:46:29.000Z</time>
      </trkpt>
      <trkpt lat="48.51259" lon="7.09968">
        <ele>439.38931</ele>
        <time>2022-08-08T15:46:31.000Z</time>
      </trkpt>
      <trkpt lat="48.51261" lon="7.09971">
        <ele>439.53287</ele>
        <time>2022-08-08T15:46:33.000Z</time>
      </trkpt>
      <trkpt lat="48.51267" lon="7.09974">
        <ele>439.76886</ele>
        <time>2022-08-08T15:46:34.000Z</time>
      </trkpt>
      <trkpt lat="48.51269" lon="7.09974">
        <ele>439.96417</ele>
        <time>2022-08-08T15:46:44.000Z</time>
      </trkpt>
      <trkpt lat="48.5127" lon="7.09975">
        <ele>440.06738</ele>
        <time>2022-08-08T15:46:45.000Z</time>
      </trkpt>
      <trkpt lat="48.51272" lon="7.09977">
        <ele>440.10117</ele>
        <time>2022-08-08T15:46:47.000Z</time>
      </trkpt>
      <trkpt lat="48.51274" lon="7.09979">
        <ele>440.01422</ele>
        <time>2022-08-08T15:46:49.000Z</time>
      </trkpt>
      <trkpt lat="48.51276" lon="7.09981">
        <ele>439.88483</ele>
        <time>2022-08-08T15:46:51.000Z</time>
      </trkpt>
      <trkpt lat="48.51278" lon="7.09982">
        <ele>439.77914</ele>
        <time>2022-08-08T15:46:53.000Z</time>
      </trkpt>
      <trkpt lat="48.51281" lon="7.09984">
        <ele>439.77402</ele>
        <time>2022-08-08T15:46:55.000Z</time>
      </trkpt>
      <trkpt lat="48.51283" lon="7.09986">
        <ele>439.82462</ele>
        <time>2022-08-08T15:46:57.000Z</time>
      </trkpt>
      <trkpt lat="48.51285" lon="7.09989">
        <ele>439.91544</ele>
        <time>2022-08-08T15:46:59.000Z</time>
      </trkpt>
      <trkpt lat="48.51285" lon="7.09993">
        <ele>440.05853</ele>
        <time>2022-08-08T15:47:01.000Z</time>
      </trkpt>
      <trkpt lat="48.51285" lon="7.09997">
        <ele>440.2709</ele>
        <time>2022-08-08T15:47:03.000Z</time>
      </trkpt>
      <trkpt lat="48.51285" lon="7.10001">
        <ele>440.64288</ele>
        <time>2022-08-08T15:47:06.000Z</time>
      </trkpt>
      <trkpt lat="48.51285" lon="7.10004">
        <ele>441.0647</ele>
        <time>2022-08-08T15:47:08.000Z</time>
      </trkpt>
      <trkpt lat="48.51286" lon="7.10008">
        <ele>441.42343</ele>
        <time>2022-08-08T15:47:10.000Z</time>
      </trkpt>
      <trkpt lat="48.51286" lon="7.10012">
        <ele>441.7876</ele>
        <time>2022-08-08T15:47:12.000Z</time>
      </trkpt>
      <trkpt lat="48.51286" lon="7.10016">
        <ele>442.12592</ele>
        <time>2022-08-08T15:47:14.000Z</time>
      </trkpt>
      <trkpt lat="48.51285" lon="7.1002">
        <ele>442.483</ele>
        <time>2022-08-08T15:47:16.000Z</time>
      </trkpt>
      <trkpt lat="48.51285" lon="7.10024">
        <ele>442.76801</ele>
        <time>2022-08-08T15:47:18.000Z</time>
      </trkpt>
      <trkpt lat="48.51284" lon="7.10028">
        <ele>443.07428</ele>
        <time>2022-08-08T15:47:20.000Z</time>
      </trkpt>
      <trkpt lat="48.51285" lon="7.10033">
        <ele>443.29572</ele>
        <time>2022-08-08T15:47:22.000Z</time>
      </trkpt>
      <trkpt lat="48.51285" lon="7.10037">
        <ele>443.45221</ele>
        <time>2022-08-08T15:47:24.000Z</time>
      </trkpt>
      <trkpt lat="48.51286" lon="7.10041">
        <ele>443.64951</ele>
        <time>2022-08-08T15:47:26.000Z</time>
      </trkpt>
      <trkpt lat="48.51286" lon="7.10044">
        <ele>443.76147</ele>
        <time>2022-08-08T15:47:28.000Z</time>
      </trkpt>
      <trkpt lat="48.51286" lon="7.10048">
        <ele>443.992</ele>
        <time>2022-08-08T15:47:30.000Z</time>
      </trkpt>
      <trkpt lat="48.51287" lon="7.10051">
        <ele>444.28751</ele>
        <time>2022-08-08T15:47:33.000Z</time>
      </trkpt>
      <trkpt lat="48.51287" lon="7.10055">
        <ele>444.53046</ele>
        <time>2022-08-08T15:47:36.000Z</time>
      </trkpt>
      <trkpt lat="48.51288" lon="7.10058">
        <ele>444.77051</ele>
        <time>2022-08-08T15:47:38.000Z</time>
      </trkpt>
      <trkpt lat="48.51288" lon="7.10061">
        <ele>444.93735</ele>
        <time>2022-08-08T15:47:40.000Z</time>
      </trkpt>
      <trkpt lat="48.51288" lon="7.10064">
        <ele>445.03516</ele>
        <time>2022-08-08T15:47:42.000Z</time>
      </trkpt>
      <trkpt lat="48.51289" lon="7.10068">
        <ele>445.12238</ele>
        <time>2022-08-08T15:47:44.000Z</time>
      </trkpt>
      <trkpt lat="48.51289" lon="7.10071">
        <ele>445.1503</ele>
        <time>2022-08-08T15:47:46.000Z</time>
      </trkpt>
      <trkpt lat="48.51289" lon="7.10074">
        <ele>445.10205</ele>
        <time>2022-08-08T15:47:48.000Z</time>
      </trkpt>
      <trkpt lat="48.51289" lon="7.10078">
        <ele>445.08618</ele>
        <time>2022-08-08T15:47:50.000Z</time>
      </trkpt>
      <trkpt lat="48.5129" lon="7.10081">
        <ele>445.11856</ele>
        <time>2022-08-08T15:47:52.000Z</time>
      </trkpt>
      <trkpt lat="48.51291" lon="7.10084">
        <ele>445.15225</ele>
        <time>2022-08-08T15:47:54.000Z</time>
      </trkpt>
      <trkpt lat="48.51291" lon="7.10088">
        <ele>445.15445</ele>
        <time>2022-08-08T15:47:56.000Z</time>
      </trkpt>
      <trkpt lat="48.51291" lon="7.10092">
        <ele>445.19003</ele>
        <time>2022-08-08T15:47:58.000Z</time>
      </trkpt>
      <trkpt lat="48.51291" lon="7.10095">
        <ele>445.26016</ele>
        <time>2022-08-08T15:48:00.000Z</time>
      </trkpt>
      <trkpt lat="48.5129" lon="7.10098">
        <ele>445.30988</ele>
        <time>2022-08-08T15:48:02.000Z</time>
      </trkpt>
      <trkpt lat="48.5129" lon="7.10101">
        <ele>445.33759</ele>
        <time>2022-08-08T15:48:04.000Z</time>
      </trkpt>
      <trkpt lat="48.5129" lon="7.10104">
        <ele>445.41449</ele>
        <time>2022-08-08T15:48:06.000Z</time>
      </trkpt>
      <trkpt lat="48.51291" lon="7.10107">
        <ele>445.47641</ele>
        <time>2022-08-08T15:48:08.000Z</time>
      </trkpt>
      <trkpt lat="48.51291" lon="7.10111">
        <ele>445.54703</ele>
        <time>2022-08-08T15:48:10.000Z</time>
      </trkpt>
      <trkpt lat="48.5129" lon="7.10114">
        <ele>445.504</ele>
        <time>2022-08-08T15:48:13.000Z</time>
      </trkpt>
      <trkpt lat="48.51289" lon="7.10117">
        <ele>445.39935</ele>
        <time>2022-08-08T15:48:15.000Z</time>
      </trkpt>
      <trkpt lat="48.51289" lon="7.1012">
        <ele>445.33871</ele>
        <time>2022-08-08T15:48:17.000Z</time>
      </trkpt>
      <trkpt lat="48.51289" lon="7.10124">
        <ele>445.28534</ele>
        <time>2022-08-08T15:48:19.000Z</time>
      </trkpt>
      <trkpt lat="48.51289" lon="7.10127">
        <ele>445.2785</ele>
        <time>2022-08-08T15:48:21.000Z</time>
      </trkpt>
      <trkpt lat="48.51289" lon="7.1013">
        <ele>445.33432</ele>
        <time>2022-08-08T15:48:23.000Z</time>
      </trkpt>
      <trkpt lat="48.51289" lon="7.10134">
        <ele>445.39459</ele>
        <time>2022-08-08T15:48:26.000Z</time>
      </trkpt>
      <trkpt lat="48.51289" lon="7.10136">
        <ele>445.44955</ele>
        <time>2022-08-08T15:48:28.000Z</time>
      </trkpt>
      <trkpt lat="48.51289" lon="7.1014">
        <ele>445.57193</ele>
        <time>2022-08-08T15:48:31.000Z</time>
      </trkpt>
      <trkpt lat="48.5129" lon="7.10143">
        <ele>445.72446</ele>
        <time>2022-08-08T15:48:33.000Z</time>
      </trkpt>
      <trkpt lat="48.5129" lon="7.10147">
        <ele>445.85556</ele>
        <time>2022-08-08T15:48:35.000Z</time>
      </trkpt>
      <trkpt lat="48.5129" lon="7.1015">
        <ele>445.98932</ele>
        <time>2022-08-08T15:48:37.000Z</time>
      </trkpt>
      <trkpt lat="48.5129" lon="7.10152">
        <ele>446.17783</ele>
        <time>2022-08-08T15:48:39.000Z</time>
      </trkpt>
      <trkpt lat="48.51291" lon="7.10155">
        <ele>446.33392</ele>
        <time>2022-08-08T15:48:41.000Z</time>
      </trkpt>
      <trkpt lat="48.51292" lon="7.10157">
        <ele>446.52475</ele>
        <time>2022-08-08T15:48:44.000Z</time>
      </trkpt>
      <trkpt lat="48.51294" lon="7.10159">
        <ele>446.79263</ele>
        <time>2022-08-08T15:48:48.000Z</time>
      </trkpt>
      <trkpt lat="48.51295" lon="7.10162">
        <ele>447.03482</ele>
        <time>2022-08-08T15:48:51.000Z</time>
      </trkpt>
      <trkpt lat="48.51295" lon="7.10166">
        <ele>447.2829</ele>
        <time>2022-08-08T15:48:53.000Z</time>
      </trkpt>
      <trkpt lat="48.51296" lon="7.10168">
        <ele>447.52002</ele>
        <time>2022-08-08T15:48:55.000Z</time>
      </trkpt>
      <trkpt lat="48.51296" lon="7.10171">
        <ele>447.82706</ele>
        <time>2022-08-08T15:48:57.000Z</time>
      </trkpt>
      <trkpt lat="48.51297" lon="7.10175">
        <ele>448.17636</ele>
        <time>2022-08-08T15:48:59.000Z</time>
      </trkpt>
      <trkpt lat="48.51297" lon="7.10178">
        <ele>448.54965</ele>
        <time>2022-08-08T15:49:01.000Z</time>
      </trkpt>
      <trkpt lat="48.51298" lon="7.10181">
        <ele>448.89404</ele>
        <time>2022-08-08T15:49:03.000Z</time>
      </trkpt>
      <trkpt lat="48.51298" lon="7.10184">
        <ele>449.22296</ele>
        <time>2022-08-08T15:49:05.000Z</time>
      </trkpt>
      <trkpt lat="48.51299" lon="7.10188">
        <ele>449.54572</ele>
        <time>2022-08-08T15:49:07.000Z</time>
      </trkpt>
      <trkpt lat="48.51299" lon="7.10191">
        <ele>449.90436</ele>
        <time>2022-08-08T15:49:09.000Z</time>
      </trkpt>
      <trkpt lat="48.513" lon="7.10194">
        <ele>450.32095</ele>
        <time>2022-08-08T15:49:11.000Z</time>
      </trkpt>
      <trkpt lat="48.513" lon="7.10198">
        <ele>450.73203</ele>
        <time>2022-08-08T15:49:13.000Z</time>
      </trkpt>
      <trkpt lat="48.513" lon="7.10202">
        <ele>451.06314</ele>
        <time>2022-08-08T15:49:15.000Z</time>
      </trkpt>
      <trkpt lat="48.513" lon="7.10206">
        <ele>451.37604</ele>
        <time>2022-08-08T15:49:17.000Z</time>
      </trkpt>
      <trkpt lat="48.513" lon="7.1021">
        <ele>451.63809</ele>
        <time>2022-08-08T15:49:19.000Z</time>
      </trkpt>
      <trkpt lat="48.513" lon="7.10213">
        <ele>451.90607</ele>
        <time>2022-08-08T15:49:21.000Z</time>
      </trkpt>
      <trkpt lat="48.51299" lon="7.10217">
        <ele>452.16635</ele>
        <time>2022-08-08T15:49:23.000Z</time>
      </trkpt>
      <trkpt lat="48.51301" lon="7.1022">
        <ele>452.37787</ele>
        <time>2022-08-08T15:49:25.000Z</time>
      </trkpt>
      <trkpt lat="48.51301" lon="7.10224">
        <ele>452.50439</ele>
        <time>2022-08-08T15:49:27.000Z</time>
      </trkpt>
      <trkpt lat="48.513" lon="7.10227">
        <ele>452.58994</ele>
        <time>2022-08-08T15:49:29.000Z</time>
      </trkpt>
      <trkpt lat="48.51301" lon="7.10231">
        <ele>452.70151</ele>
        <time>2022-08-08T15:49:31.000Z</time>
      </trkpt>
      <trkpt lat="48.51301" lon="7.10233">
        <ele>452.81976</ele>
        <time>2022-08-08T15:49:33.000Z</time>
      </trkpt>
      <trkpt lat="48.51302" lon="7.10237">
        <ele>452.95099</ele>
        <time>2022-08-08T15:49:35.000Z</time>
      </trkpt>
      <trkpt lat="48.51302" lon="7.10239">
        <ele>453.09317</ele>
        <time>2022-08-08T15:49:37.000Z</time>
      </trkpt>
      <trkpt lat="48.51302" lon="7.10243">
        <ele>453.1933</ele>
        <time>2022-08-08T15:49:39.000Z</time>
      </trkpt>
      <trkpt lat="48.51303" lon="7.10246">
        <ele>453.26816</ele>
        <time>2022-08-08T15:49:41.000Z</time>
      </trkpt>
      <trkpt lat="48.51304" lon="7.10249">
        <ele>453.31967</ele>
        <time>2022-08-08T15:49:43.000Z</time>
      </trkpt>
      <trkpt lat="48.51305" lon="7.10254">
        <ele>453.37613</ele>
        <time>2022-08-08T15:49:45.000Z</time>
      </trkpt>
      <trkpt lat="48.51306" lon="7.10257">
        <ele>453.39618</ele>
        <time>2022-08-08T15:49:47.000Z</time>
      </trkpt>
      <trkpt lat="48.51307" lon="7.1026">
        <ele>453.36554</ele>
        <time>2022-08-08T15:49:49.000Z</time>
      </trkpt>
      <trkpt lat="48.51307" lon="7.10263">
        <ele>453.30914</ele>
        <time>2022-08-08T15:49:51.000Z</time>
      </trkpt>
      <trkpt lat="48.51307" lon="7.10267">
        <ele>453.28931</ele>
        <time>2022-08-08T15:49:53.000Z</time>
      </trkpt>
      <trkpt lat="48.51307" lon="7.1027">
        <ele>453.3252</ele>
        <time>2022-08-08T15:49:55.000Z</time>
      </trkpt>
      <trkpt lat="48.51307" lon="7.10272">
        <ele>453.34808</ele>
        <time>2022-08-08T15:49:57.000Z</time>
      </trkpt>
      <trkpt lat="48.51308" lon="7.10276">
        <ele>453.4079</ele>
        <time>2022-08-08T15:49:59.000Z</time>
      </trkpt>
      <trkpt lat="48.51309" lon="7.10279">
        <ele>453.47397</ele>
        <time>2022-08-08T15:50:02.000Z</time>
      </trkpt>
      <trkpt lat="48.5131" lon="7.10283">
        <ele>453.55023</ele>
        <time>2022-08-08T15:50:04.000Z</time>
      </trkpt>
      <trkpt lat="48.51311" lon="7.10285">
        <ele>453.7019</ele>
        <time>2022-08-08T15:50:06.000Z</time>
      </trkpt>
      <trkpt lat="48.51312" lon="7.10288">
        <ele>453.85455</ele>
        <time>2022-08-08T15:50:08.000Z</time>
      </trkpt>
      <trkpt lat="48.51313" lon="7.10291">
        <ele>454.05313</ele>
        <time>2022-08-08T15:50:10.000Z</time>
      </trkpt>
      <trkpt lat="48.51313" lon="7.10294">
        <ele>454.25815</ele>
        <time>2022-08-08T15:50:12.000Z</time>
      </trkpt>
      <trkpt lat="48.51315" lon="7.10297">
        <ele>454.52728</ele>
        <time>2022-08-08T15:50:14.000Z</time>
      </trkpt>
      <trkpt lat="48.51315" lon="7.10301">
        <ele>454.77661</ele>
        <time>2022-08-08T15:50:16.000Z</time>
      </trkpt>
      <trkpt lat="48.51316" lon="7.10304">
        <ele>455.05917</ele>
        <time>2022-08-08T15:50:18.000Z</time>
      </trkpt>
      <trkpt lat="48.51317" lon="7.10307">
        <ele>455.31998</ele>
        <time>2022-08-08T15:50:22.000Z</time>
      </trkpt>
      <trkpt lat="48.51315" lon="7.10306">
        <ele>455.54053</ele>
        <time>2022-08-08T15:50:32.000Z</time>
      </trkpt>
      <trkpt lat="48.51313" lon="7.10308">
        <ele>455.73975</ele>
        <time>2022-08-08T15:50:34.000Z</time>
      </trkpt>
      <trkpt lat="48.51312" lon="7.10311">
        <ele>455.90689</ele>
        <time>2022-08-08T15:50:36.000Z</time>
      </trkpt>
      <trkpt lat="48.5131" lon="7.10312">
        <ele>455.98883</ele>
        <time>2022-08-08T15:50:38.000Z</time>
      </trkpt>
      <trkpt lat="48.51308" lon="7.1031">
        <ele>455.99292</ele>
        <time>2022-08-08T15:50:40.000Z</time>
      </trkpt>
      <trkpt lat="48.51309" lon="7.10306">
        <ele>456.10693</ele>
        <time>2022-08-08T15:50:57.000Z</time>
      </trkpt>
      <trkpt lat="48.51309" lon="7.10309">
        <ele>456.22925</ele>
        <time>2022-08-08T15:51:04.000Z</time>
      </trkpt>
      <trkpt lat="48.51313" lon="7.10314">
        <ele>456.44766</ele>
        <time>2022-08-08T15:51:06.000Z</time>
      </trkpt>
      <trkpt lat="48.51311" lon="7.10316">
        <ele>456.47543</ele>
        <time>2022-08-08T15:51:07.000Z</time>
      </trkpt>
      <trkpt lat="48.51308" lon="7.1032">
        <ele>456.5018</ele>
        <time>2022-08-08T15:51:08.000Z</time>
      </trkpt>
      <trkpt lat="48.51307" lon="7.10324">
        <ele>456.54434</ele>
        <time>2022-08-08T15:51:10.000Z</time>
      </trkpt>
      <trkpt lat="48.51306" lon="7.10326">
        <ele>456.55679</ele>
        <time>2022-08-08T15:51:13.000Z</time>
      </trkpt>
      <trkpt lat="48.51305" lon="7.10329">
        <ele>456.52521</ele>
        <time>2022-08-08T15:51:15.000Z</time>
      </trkpt>
      <trkpt lat="48.51304" lon="7.10333">
        <ele>456.52847</ele>
        <time>2022-08-08T15:51:18.000Z</time>
      </trkpt>
      <trkpt lat="48.51304" lon="7.10337">
        <ele>456.46027</ele>
        <time>2022-08-08T15:51:20.000Z</time>
      </trkpt>
      <trkpt lat="48.51304" lon="7.1034">
        <ele>456.37939</ele>
        <time>2022-08-08T15:51:22.000Z</time>
      </trkpt>
      <trkpt lat="48.51304" lon="7.10343">
        <ele>456.25067</ele>
        <time>2022-08-08T15:51:24.000Z</time>
      </trkpt>
      <trkpt lat="48.51305" lon="7.10346">
        <ele>456.14542</ele>
        <time>2022-08-08T15:51:26.000Z</time>
      </trkpt>
      <trkpt lat="48.51304" lon="7.10349">
        <ele>455.99545</ele>
        <time>2022-08-08T15:51:28.000Z</time>
      </trkpt>
      <trkpt lat="48.51304" lon="7.10352">
        <ele>455.86987</ele>
        <time>2022-08-08T15:51:30.000Z</time>
      </trkpt>
      <trkpt lat="48.51304" lon="7.10355">
        <ele>455.77374</ele>
        <time>2022-08-08T15:51:32.000Z</time>
      </trkpt>
      <trkpt lat="48.51305" lon="7.10359">
        <ele>455.73102</ele>
        <time>2022-08-08T15:51:34.000Z</time>
      </trkpt>
      <trkpt lat="48.51306" lon="7.10362">
        <ele>455.7475</ele>
        <time>2022-08-08T15:51:36.000Z</time>
      </trkpt>
      <trkpt lat="48.51306" lon="7.10365">
        <ele>455.86801</ele>
        <time>2022-08-08T15:51:38.000Z</time>
      </trkpt>
      <trkpt lat="48.51305" lon="7.10368">
        <ele>456.07202</ele>
        <time>2022-08-08T15:51:40.000Z</time>
      </trkpt>
      <trkpt lat="48.51305" lon="7.10371">
        <ele>456.18839</ele>
        <time>2022-08-08T15:51:42.000Z</time>
      </trkpt>
      <trkpt lat="48.51305" lon="7.10374">
        <ele>456.24258</ele>
        <time>2022-08-08T15:51:44.000Z</time>
      </trkpt>
      <trkpt lat="48.51305" lon="7.10377">
        <ele>456.17889</ele>
        <time>2022-08-08T15:51:46.000Z</time>
      </trkpt>
      <trkpt lat="48.51304" lon="7.10381">
        <ele>456.35757</ele>
        <time>2022-08-08T15:51:48.000Z</time>
      </trkpt>
      <trkpt lat="48.51304" lon="7.10384">
        <ele>456.59341</ele>
        <time>2022-08-08T15:51:50.000Z</time>
      </trkpt>
      <trkpt lat="48.51304" lon="7.10388">
        <ele>456.79028</ele>
        <time>2022-08-08T15:51:52.000Z</time>
      </trkpt>
      <trkpt lat="48.51304" lon="7.10391">
        <ele>457.0412</ele>
        <time>2022-08-08T15:51:54.000Z</time>
      </trkpt>
      <trkpt lat="48.51303" lon="7.10395">
        <ele>457.29233</ele>
        <time>2022-08-08T15:51:56.000Z</time>
      </trkpt>
      <trkpt lat="48.51303" lon="7.10398">
        <ele>457.57648</ele>
        <time>2022-08-08T15:51:58.000Z</time>
      </trkpt>
      <trkpt lat="48.51303" lon="7.10401">
        <ele>457.883</ele>
        <time>2022-08-08T15:52:00.000Z</time>
      </trkpt>
      <trkpt lat="48.51303" lon="7.10404">
        <ele>458.15469</ele>
        <time>2022-08-08T15:52:02.000Z</time>
      </trkpt>
      <trkpt lat="48.51303" lon="7.10408">
        <ele>458.44736</ele>
        <time>2022-08-08T15:52:04.000Z</time>
      </trkpt>
      <trkpt lat="48.51303" lon="7.10411">
        <ele>458.74335</ele>
        <time>2022-08-08T15:52:06.000Z</time>
      </trkpt>
      <trkpt lat="48.51303" lon="7.10415">
        <ele>458.98004</ele>
        <time>2022-08-08T15:52:08.000Z</time>
      </trkpt>
      <trkpt lat="48.51303" lon="7.1042">
        <ele>459.24493</ele>
        <time>2022-08-08T15:52:10.000Z</time>
      </trkpt>
      <trkpt lat="48.51302" lon="7.10424">
        <ele>459.51514</ele>
        <time>2022-08-08T15:52:12.000Z</time>
      </trkpt>
      <trkpt lat="48.51301" lon="7.10427">
        <ele>459.69907</ele>
        <time>2022-08-08T15:52:14.000Z</time>
      </trkpt>
      <trkpt lat="48.51301" lon="7.10431">
        <ele>459.85611</ele>
        <time>2022-08-08T15:52:17.000Z</time>
      </trkpt>
      <trkpt lat="48.51301" lon="7.10434">
        <ele>460.04865</ele>
        <time>2022-08-08T15:52:19.000Z</time>
      </trkpt>
      <trkpt lat="48.51301" lon="7.10437">
        <ele>460.25952</ele>
        <time>2022-08-08T15:52:21.000Z</time>
      </trkpt>
      <trkpt lat="48.51301" lon="7.1044">
        <ele>460.39926</ele>
        <time>2022-08-08T15:52:23.000Z</time>
      </trkpt>
      <trkpt lat="48.51301" lon="7.10443">
        <ele>460.69229</ele>
        <time>2022-08-08T15:52:25.000Z</time>
      </trkpt>
      <trkpt lat="48.51301" lon="7.10447">
        <ele>460.98642</ele>
        <time>2022-08-08T15:52:27.000Z</time>
      </trkpt>
      <trkpt lat="48.51299" lon="7.1045">
        <ele>461.18109</ele>
        <time>2022-08-08T15:52:29.000Z</time>
      </trkpt>
      <trkpt lat="48.51299" lon="7.10454">
        <ele>461.36557</ele>
        <time>2022-08-08T15:52:31.000Z</time>
      </trkpt>
      <trkpt lat="48.51298" lon="7.10457">
        <ele>461.62802</ele>
        <time>2022-08-08T15:52:33.000Z</time>
      </trkpt>
      <trkpt lat="48.51298" lon="7.10461">
        <ele>461.83038</ele>
        <time>2022-08-08T15:52:35.000Z</time>
      </trkpt>
      <trkpt lat="48.51298" lon="7.10466">
        <ele>462.069</ele>
        <time>2022-08-08T15:52:37.000Z</time>
      </trkpt>
      <trkpt lat="48.51298" lon="7.1047">
        <ele>462.2547</ele>
        <time>2022-08-08T15:52:39.000Z</time>
      </trkpt>
      <trkpt lat="48.51298" lon="7.10474">
        <ele>462.43399</ele>
        <time>2022-08-08T15:52:41.000Z</time>
      </trkpt>
      <trkpt lat="48.51298" lon="7.10478">
        <ele>462.70883</ele>
        <time>2022-08-08T15:52:43.000Z</time>
      </trkpt>
      <trkpt lat="48.51298" lon="7.10482">
        <ele>462.89752</ele>
        <time>2022-08-08T15:52:45.000Z</time>
      </trkpt>
      <trkpt lat="48.51298" lon="7.10487">
        <ele>463.0481</ele>
        <time>2022-08-08T15:52:47.000Z</time>
      </trkpt>
      <trkpt lat="48.51298" lon="7.10491">
        <ele>463.20245</ele>
        <time>2022-08-08T15:52:49.000Z</time>
      </trkpt>
      <trkpt lat="48.51299" lon="7.10495">
        <ele>463.39047</ele>
        <time>2022-08-08T15:52:51.000Z</time>
      </trkpt>
      <trkpt lat="48.51299" lon="7.10498">
        <ele>463.57266</ele>
        <time>2022-08-08T15:52:53.000Z</time>
      </trkpt>
      <trkpt lat="48.51299" lon="7.10502">
        <ele>463.79941</ele>
        <time>2022-08-08T15:52:55.000Z</time>
      </trkpt>
      <trkpt lat="48.513" lon="7.10505">
        <ele>463.98648</ele>
        <time>2022-08-08T15:52:57.000Z</time>
      </trkpt>
      <trkpt lat="48.513" lon="7.10509">
        <ele>464.14966</ele>
        <time>2022-08-08T15:52:59.000Z</time>
      </trkpt>
      <trkpt lat="48.51301" lon="7.10513">
        <ele>464.28101</ele>
        <time>2022-08-08T15:53:01.000Z</time>
      </trkpt>
      <trkpt lat="48.51301" lon="7.10516">
        <ele>464.52271</ele>
        <time>2022-08-08T15:53:03.000Z</time>
      </trkpt>
      <trkpt lat="48.51301" lon="7.10519">
        <ele>464.6395</ele>
        <time>2022-08-08T15:53:05.000Z</time>
      </trkpt>
      <trkpt lat="48.51302" lon="7.10523">
        <ele>464.81674</ele>
        <time>2022-08-08T15:53:07.000Z</time>
      </trkpt>
      <trkpt lat="48.51301" lon="7.10527">
        <ele>465.00381</ele>
        <time>2022-08-08T15:53:09.000Z</time>
      </trkpt>
      <trkpt lat="48.51301" lon="7.10531">
        <ele>465.15851</ele>
        <time>2022-08-08T15:53:11.000Z</time>
      </trkpt>
      <trkpt lat="48.51301" lon="7.10535">
        <ele>465.29144</ele>
        <time>2022-08-08T15:53:13.000Z</time>
      </trkpt>
      <trkpt lat="48.51301" lon="7.10539">
        <ele>465.48257</ele>
        <time>2022-08-08T15:53:15.000Z</time>
      </trkpt>
      <trkpt lat="48.51301" lon="7.10543">
        <ele>465.70001</ele>
        <time>2022-08-08T15:53:17.000Z</time>
      </trkpt>
      <trkpt lat="48.51301" lon="7.10546">
        <ele>465.90009</ele>
        <time>2022-08-08T15:53:19.000Z</time>
      </trkpt>
      <trkpt lat="48.51301" lon="7.1055">
        <ele>466.11148</ele>
        <time>2022-08-08T15:53:21.000Z</time>
      </trkpt>
      <trkpt lat="48.51301" lon="7.10553">
        <ele>466.19965</ele>
        <time>2022-08-08T15:53:23.000Z</time>
      </trkpt>
      <trkpt lat="48.513" lon="7.10557">
        <ele>466.30902</ele>
        <time>2022-08-08T15:53:25.000Z</time>
      </trkpt>
      <trkpt lat="48.51298" lon="7.10561">
        <ele>466.40717</ele>
        <time>2022-08-08T15:53:27.000Z</time>
      </trkpt>
      <trkpt lat="48.51297" lon="7.10565">
        <ele>466.55762</ele>
        <time>2022-08-08T15:53:29.000Z</time>
      </trkpt>
      <trkpt lat="48.51296" lon="7.10569">
        <ele>466.56705</ele>
        <time>2022-08-08T15:53:31.000Z</time>
      </trkpt>
      <trkpt lat="48.51295" lon="7.10572">
        <ele>466.50348</ele>
        <time>2022-08-08T15:53:33.000Z</time>
      </trkpt>
      <trkpt lat="48.51294" lon="7.10576">
        <ele>466.4733</ele>
        <time>2022-08-08T15:53:35.000Z</time>
      </trkpt>
      <trkpt lat="48.51293" lon="7.1058">
        <ele>466.46469</ele>
        <time>2022-08-08T15:53:37.000Z</time>
      </trkpt>
      <trkpt lat="48.51293" lon="7.10586">
        <ele>466.53375</ele>
        <time>2022-08-08T15:53:40.000Z</time>
      </trkpt>
      <trkpt lat="48.51292" lon="7.10589">
        <ele>466.6351</ele>
        <time>2022-08-08T15:53:42.000Z</time>
      </trkpt>
      <trkpt lat="48.51291" lon="7.10592">
        <ele>466.66681</ele>
        <time>2022-08-08T15:53:44.000Z</time>
      </trkpt>
      <trkpt lat="48.51289" lon="7.10594">
        <ele>466.70346</ele>
        <time>2022-08-08T15:53:46.000Z</time>
      </trkpt>
      <trkpt lat="48.51287" lon="7.10593">
        <ele>466.64008</ele>
        <time>2022-08-08T15:53:48.000Z</time>
      </trkpt>
      <trkpt lat="48.51284" lon="7.10597">
        <ele>466.42365</ele>
        <time>2022-08-08T15:53:52.000Z</time>
      </trkpt>
      <trkpt lat="48.51282" lon="7.10598">
        <ele>466.07294</ele>
        <time>2022-08-08T15:53:54.000Z</time>
      </trkpt>
      <trkpt lat="48.51281" lon="7.10601">
        <ele>465.79086</ele>
        <time>2022-08-08T15:53:57.000Z</time>
      </trkpt>
      <trkpt lat="48.51284" lon="7.106">
        <ele>465.48224</ele>
        <time>2022-08-08T15:53:59.000Z</time>
      </trkpt>
      <trkpt lat="48.51285" lon="7.10604">
        <ele>465.0025</ele>
        <time>2022-08-08T15:54:03.000Z</time>
      </trkpt>
      <trkpt lat="48.51285" lon="7.10608">
        <ele>464.47675</ele>
        <time>2022-08-08T15:54:05.000Z</time>
      </trkpt>
      <trkpt lat="48.51287" lon="7.10611">
        <ele>463.93857</ele>
        <time>2022-08-08T15:54:12.000Z</time>
      </trkpt>
      <trkpt lat="48.51287" lon="7.10614">
        <ele>463.4682</ele>
        <time>2022-08-08T15:54:15.000Z</time>
      </trkpt>
      <trkpt lat="48.51286" lon="7.10611">
        <ele>462.98138</ele>
        <time>2022-08-08T15:54:23.000Z</time>
      </trkpt>
      <trkpt lat="48.51289" lon="7.10614">
        <ele>462.63678</ele>
        <time>2022-08-08T15:54:28.000Z</time>
      </trkpt>
      <trkpt lat="48.51289" lon="7.10611">
        <ele>462.3204</ele>
        <time>2022-08-08T15:54:36.000Z</time>
      </trkpt>
      <trkpt lat="48.51287" lon="7.10613">
        <ele>462.03418</ele>
        <time>2022-08-08T15:54:44.000Z</time>
      </trkpt>
      <trkpt lat="48.51285" lon="7.10615">
        <ele>461.8819</ele>
        <time>2022-08-08T15:54:46.000Z</time>
      </trkpt>
      <trkpt lat="48.51286" lon="7.1061">
        <ele>461.76358</ele>
        <time>2022-08-08T15:54:52.000Z</time>
      </trkpt>
      <trkpt lat="48.51288" lon="7.10608">
        <ele>461.69086</ele>
        <time>2022-08-08T15:54:54.000Z</time>
      </trkpt>
      <trkpt lat="48.5129" lon="7.10609">
        <ele>461.48965</ele>
        <time>2022-08-08T15:54:56.000Z</time>
      </trkpt>
      <trkpt lat="48.51292" lon="7.10608">
        <ele>461.23566</ele>
        <time>2022-08-08T15:54:59.000Z</time>
      </trkpt>
      <trkpt lat="48.51291" lon="7.10611">
        <ele>461.09637</ele>
        <time>2022-08-08T15:55:03.000Z</time>
      </trkpt>
      <trkpt lat="48.51292" lon="7.10614">
        <ele>461.09091</ele>
        <time>2022-08-08T15:55:06.000Z</time>
      </trkpt>
      <trkpt lat="48.5129" lon="7.10615">
        <ele>461.24023</ele>
        <time>2022-08-08T15:55:15.000Z</time>
      </trkpt>
      <trkpt lat="48.51289" lon="7.1062">
        <ele>461.49628</ele>
        <time>2022-08-08T15:55:24.000Z</time>
      </trkpt>
      <trkpt lat="48.5129" lon="7.10625">
        <ele>461.7876</ele>
        <time>2022-08-08T15:55:25.000Z</time>
      </trkpt>
      <trkpt lat="48.5129" lon="7.10628">
        <ele>461.97061</ele>
        <time>2022-08-08T15:55:26.000Z</time>
      </trkpt>
      <trkpt lat="48.5129" lon="7.10634">
        <ele>462.07602</ele>
        <time>2022-08-08T15:55:27.000Z</time>
      </trkpt>
      <trkpt lat="48.5129" lon="7.10637">
        <ele>462.35474</ele>
        <time>2022-08-08T15:55:28.000Z</time>
      </trkpt>
      <trkpt lat="48.51291" lon="7.10641">
        <ele>462.64105</ele>
        <time>2022-08-08T15:55:30.000Z</time>
      </trkpt>
      <trkpt lat="48.51292" lon="7.10643">
        <ele>462.83725</ele>
        <time>2022-08-08T15:55:31.000Z</time>
      </trkpt>
      <trkpt lat="48.51292" lon="7.10646">
        <ele>463.07217</ele>
        <time>2022-08-08T15:55:32.000Z</time>
      </trkpt>
      <trkpt lat="48.51292" lon="7.1065">
        <ele>463.36005</ele>
        <time>2022-08-08T15:55:33.000Z</time>
      </trkpt>
      <trkpt lat="48.51292" lon="7.10653">
        <ele>463.52612</ele>
        <time>2022-08-08T15:55:34.000Z</time>
      </trkpt>
      <trkpt lat="48.51293" lon="7.10656">
        <ele>463.70526</ele>
        <time>2022-08-08T15:55:35.000Z</time>
      </trkpt>
      <trkpt lat="48.51294" lon="7.1066">
        <ele>463.86615</ele>
        <time>2022-08-08T15:55:37.000Z</time>
      </trkpt>
      <trkpt lat="48.51293" lon="7.10665">
        <ele>464.0274</ele>
        <time>2022-08-08T15:55:39.000Z</time>
      </trkpt>
      <trkpt lat="48.51291" lon="7.10668">
        <ele>464.25458</ele>
        <time>2022-08-08T15:55:41.000Z</time>
      </trkpt>
      <trkpt lat="48.51289" lon="7.10669">
        <ele>464.47772</ele>
        <time>2022-08-08T15:55:43.000Z</time>
      </trkpt>
      <trkpt lat="48.51288" lon="7.10672">
        <ele>464.73224</ele>
        <time>2022-08-08T15:55:45.000Z</time>
      </trkpt>
      <trkpt lat="48.51288" lon="7.10675">
        <ele>465.01407</ele>
        <time>2022-08-08T15:55:47.000Z</time>
      </trkpt>
      <trkpt lat="48.51288" lon="7.10678">
        <ele>465.11969</ele>
        <time>2022-08-08T15:55:50.000Z</time>
      </trkpt>
      <trkpt lat="48.51288" lon="7.10681">
        <ele>465.12939</ele>
        <time>2022-08-08T15:55:52.000Z</time>
      </trkpt>
      <trkpt lat="48.51287" lon="7.10687">
        <ele>465.08633</ele>
        <time>2022-08-08T15:55:54.000Z</time>
      </trkpt>
      <trkpt lat="48.51286" lon="7.10691">
        <ele>465.14008</ele>
        <time>2022-08-08T15:55:56.000Z</time>
      </trkpt>
      <trkpt lat="48.51286" lon="7.10694">
        <ele>465.31064</ele>
        <time>2022-08-08T15:55:57.000Z</time>
      </trkpt>
      <trkpt lat="48.51284" lon="7.10697">
        <ele>465.51044</ele>
        <time>2022-08-08T15:55:59.000Z</time>
      </trkpt>
      <trkpt lat="48.51283" lon="7.10701">
        <ele>465.82974</ele>
        <time>2022-08-08T15:56:01.000Z</time>
      </trkpt>
      <trkpt lat="48.51282" lon="7.10705">
        <ele>466.09784</ele>
        <time>2022-08-08T15:56:03.000Z</time>
      </trkpt>
      <trkpt lat="48.51282" lon="7.10709">
        <ele>466.44305</ele>
        <time>2022-08-08T15:56:05.000Z</time>
      </trkpt>
      <trkpt lat="48.51282" lon="7.10714">
        <ele>466.92447</ele>
        <time>2022-08-08T15:56:07.000Z</time>
      </trkpt>
      <trkpt lat="48.51282" lon="7.10718">
        <ele>467.36655</ele>
        <time>2022-08-08T15:56:09.000Z</time>
      </trkpt>
      <trkpt lat="48.51281" lon="7.10722">
        <ele>467.78403</ele>
        <time>2022-08-08T15:56:11.000Z</time>
      </trkpt>
      <trkpt lat="48.5128" lon="7.10726">
        <ele>468.24283</ele>
        <time>2022-08-08T15:56:13.000Z</time>
      </trkpt>
      <trkpt lat="48.51279" lon="7.10729">
        <ele>468.69547</ele>
        <time>2022-08-08T15:56:15.000Z</time>
      </trkpt>
      <trkpt lat="48.51279" lon="7.10733">
        <ele>469.15234</ele>
        <time>2022-08-08T15:56:17.000Z</time>
      </trkpt>
      <trkpt lat="48.51279" lon="7.10736">
        <ele>469.52823</ele>
        <time>2022-08-08T15:56:19.000Z</time>
      </trkpt>
      <trkpt lat="48.51278" lon="7.1074">
        <ele>469.77295</ele>
        <time>2022-08-08T15:56:21.000Z</time>
      </trkpt>
      <trkpt lat="48.51278" lon="7.10744">
        <ele>469.92181</ele>
        <time>2022-08-08T15:56:23.000Z</time>
      </trkpt>
      <trkpt lat="48.51278" lon="7.10747">
        <ele>470.07568</ele>
        <time>2022-08-08T15:56:25.000Z</time>
      </trkpt>
      <trkpt lat="48.51276" lon="7.10751">
        <ele>470.26163</ele>
        <time>2022-08-08T15:56:27.000Z</time>
      </trkpt>
      <trkpt lat="48.51275" lon="7.10758">
        <ele>470.51611</ele>
        <time>2022-08-08T15:56:30.000Z</time>
      </trkpt>
      <trkpt lat="48.51274" lon="7.10763">
        <ele>470.69891</ele>
        <time>2022-08-08T15:56:32.000Z</time>
      </trkpt>
      <trkpt lat="48.51272" lon="7.10766">
        <ele>470.802</ele>
        <time>2022-08-08T15:56:34.000Z</time>
      </trkpt>
      <trkpt lat="48.51271" lon="7.10769">
        <ele>470.888</ele>
        <time>2022-08-08T15:56:36.000Z</time>
      </trkpt>
      <trkpt lat="48.5127" lon="7.10773">
        <ele>470.90439</ele>
        <time>2022-08-08T15:56:38.000Z</time>
      </trkpt>
      <trkpt lat="48.51269" lon="7.10775">
        <ele>470.94061</ele>
        <time>2022-08-08T15:56:40.000Z</time>
      </trkpt>
      <trkpt lat="48.51268" lon="7.10778">
        <ele>470.94556</ele>
        <time>2022-08-08T15:56:42.000Z</time>
      </trkpt>
      <trkpt lat="48.51267" lon="7.10782">
        <ele>470.92114</ele>
        <time>2022-08-08T15:56:44.000Z</time>
      </trkpt>
      <trkpt lat="48.51265" lon="7.10785">
        <ele>470.89087</ele>
        <time>2022-08-08T15:56:46.000Z</time>
      </trkpt>
      <trkpt lat="48.51264" lon="7.1079">
        <ele>470.76862</ele>
        <time>2022-08-08T15:56:48.000Z</time>
      </trkpt>
      <trkpt lat="48.51263" lon="7.10793">
        <ele>470.63159</ele>
        <time>2022-08-08T15:56:50.000Z</time>
      </trkpt>
      <trkpt lat="48.51262" lon="7.10796">
        <ele>470.48383</ele>
        <time>2022-08-08T15:56:52.000Z</time>
      </trkpt>
      <trkpt lat="48.51261" lon="7.10801">
        <ele>470.28922</ele>
        <time>2022-08-08T15:56:54.000Z</time>
      </trkpt>
      <trkpt lat="48.51259" lon="7.10805">
        <ele>470.0563</ele>
        <time>2022-08-08T15:56:56.000Z</time>
      </trkpt>
      <trkpt lat="48.51259" lon="7.10809">
        <ele>469.86539</ele>
        <time>2022-08-08T15:56:58.000Z</time>
      </trkpt>
      <trkpt lat="48.51257" lon="7.10813">
        <ele>469.70557</ele>
        <time>2022-08-08T15:57:00.000Z</time>
      </trkpt>
      <trkpt lat="48.51256" lon="7.10817">
        <ele>469.5368</ele>
        <time>2022-08-08T15:57:02.000Z</time>
      </trkpt>
      <trkpt lat="48.51254" lon="7.10821">
        <ele>469.43066</ele>
        <time>2022-08-08T15:57:04.000Z</time>
      </trkpt>
      <trkpt lat="48.51253" lon="7.10825">
        <ele>469.31738</ele>
        <time>2022-08-08T15:57:06.000Z</time>
      </trkpt>
      <trkpt lat="48.51252" lon="7.10829">
        <ele>469.17734</ele>
        <time>2022-08-08T15:57:08.000Z</time>
      </trkpt>
      <trkpt lat="48.51251" lon="7.10833">
        <ele>468.9649</ele>
        <time>2022-08-08T15:57:10.000Z</time>
      </trkpt>
      <trkpt lat="48.51251" lon="7.10838">
        <ele>468.79022</ele>
        <time>2022-08-08T15:57:12.000Z</time>
      </trkpt>
      <trkpt lat="48.51249" lon="7.10841">
        <ele>468.63071</ele>
        <time>2022-08-08T15:57:14.000Z</time>
      </trkpt>
      <trkpt lat="48.51248" lon="7.10845">
        <ele>468.42416</ele>
        <time>2022-08-08T15:57:16.000Z</time>
      </trkpt>
      <trkpt lat="48.51246" lon="7.10848">
        <ele>468.23193</ele>
        <time>2022-08-08T15:57:18.000Z</time>
      </trkpt>
      <trkpt lat="48.51245" lon="7.10852">
        <ele>467.95834</ele>
        <time>2022-08-08T15:57:20.000Z</time>
      </trkpt>
      <trkpt lat="48.51244" lon="7.10856">
        <ele>467.69318</ele>
        <time>2022-08-08T15:57:22.000Z</time>
      </trkpt>
      <trkpt lat="48.51243" lon="7.1086">
        <ele>467.48349</ele>
        <time>2022-08-08T15:57:24.000Z</time>
      </trkpt>
      <trkpt lat="48.51242" lon="7.10864">
        <ele>467.27524</ele>
        <time>2022-08-08T15:57:26.000Z</time>
      </trkpt>
      <trkpt lat="48.51241" lon="7.10867">
        <ele>467.12103</ele>
        <time>2022-08-08T15:57:28.000Z</time>
      </trkpt>
      <trkpt lat="48.5124" lon="7.10871">
        <ele>466.97891</ele>
        <time>2022-08-08T15:57:30.000Z</time>
      </trkpt>
      <trkpt lat="48.51239" lon="7.10875">
        <ele>466.85074</ele>
        <time>2022-08-08T15:57:32.000Z</time>
      </trkpt>
      <trkpt lat="48.51239" lon="7.10879">
        <ele>466.76215</ele>
        <time>2022-08-08T15:57:34.000Z</time>
      </trkpt>
      <trkpt lat="48.51238" lon="7.10884">
        <ele>466.70352</ele>
        <time>2022-08-08T15:57:36.000Z</time>
      </trkpt>
      <trkpt lat="48.51237" lon="7.10888">
        <ele>466.68536</ele>
        <time>2022-08-08T15:57:38.000Z</time>
      </trkpt>
      <trkpt lat="48.51237" lon="7.10892">
        <ele>466.67438</ele>
        <time>2022-08-08T15:57:40.000Z</time>
      </trkpt>
      <trkpt lat="48.51236" lon="7.10896">
        <ele>466.7312</ele>
        <time>2022-08-08T15:57:42.000Z</time>
      </trkpt>
      <trkpt lat="48.51236" lon="7.109">
        <ele>466.79092</ele>
        <time>2022-08-08T15:57:44.000Z</time>
      </trkpt>
      <trkpt lat="48.51236" lon="7.10904">
        <ele>466.86871</ele>
        <time>2022-08-08T15:57:46.000Z</time>
      </trkpt>
      <trkpt lat="48.51236" lon="7.10909">
        <ele>466.94818</ele>
        <time>2022-08-08T15:57:48.000Z</time>
      </trkpt>
      <trkpt lat="48.51235" lon="7.10913">
        <ele>467.06787</ele>
        <time>2022-08-08T15:57:50.000Z</time>
      </trkpt>
      <trkpt lat="48.51234" lon="7.10918">
        <ele>467.25742</ele>
        <time>2022-08-08T15:57:52.000Z</time>
      </trkpt>
      <trkpt lat="48.51234" lon="7.10922">
        <ele>467.57104</ele>
        <time>2022-08-08T15:57:54.000Z</time>
      </trkpt>
      <trkpt lat="48.51234" lon="7.10926">
        <ele>467.92822</ele>
        <time>2022-08-08T15:57:56.000Z</time>
      </trkpt>
      <trkpt lat="48.51233" lon="7.1093">
        <ele>468.29623</ele>
        <time>2022-08-08T15:57:58.000Z</time>
      </trkpt>
      <trkpt lat="48.51232" lon="7.10933">
        <ele>468.73315</ele>
        <time>2022-08-08T15:58:00.000Z</time>
      </trkpt>
      <trkpt lat="48.51232" lon="7.10937">
        <ele>469.15445</ele>
        <time>2022-08-08T15:58:02.000Z</time>
      </trkpt>
      <trkpt lat="48.51232" lon="7.10942">
        <ele>469.55444</ele>
        <time>2022-08-08T15:58:04.000Z</time>
      </trkpt>
      <trkpt lat="48.51231" lon="7.10945">
        <ele>469.95206</ele>
        <time>2022-08-08T15:58:06.000Z</time>
      </trkpt>
      <trkpt lat="48.51231" lon="7.10949">
        <ele>470.2933</ele>
        <time>2022-08-08T15:58:08.000Z</time>
      </trkpt>
      <trkpt lat="48.5123" lon="7.10953">
        <ele>470.5961</ele>
        <time>2022-08-08T15:58:10.000Z</time>
      </trkpt>
      <trkpt lat="48.5123" lon="7.10957">
        <ele>470.944</ele>
        <time>2022-08-08T15:58:12.000Z</time>
      </trkpt>
      <trkpt lat="48.5123" lon="7.1096">
        <ele>471.33414</ele>
        <time>2022-08-08T15:58:14.000Z</time>
      </trkpt>
      <trkpt lat="48.51229" lon="7.10964">
        <ele>471.69815</ele>
        <time>2022-08-08T15:58:16.000Z</time>
      </trkpt>
      <trkpt lat="48.51228" lon="7.10969">
        <ele>472.06583</ele>
        <time>2022-08-08T15:58:18.000Z</time>
      </trkpt>
      <trkpt lat="48.51228" lon="7.10972">
        <ele>472.41446</ele>
        <time>2022-08-08T15:58:20.000Z</time>
      </trkpt>
      <trkpt lat="48.51228" lon="7.10975">
        <ele>472.79379</ele>
        <time>2022-08-08T15:58:22.000Z</time>
      </trkpt>
      <trkpt lat="48.51227" lon="7.10979">
        <ele>473.22015</ele>
        <time>2022-08-08T15:58:24.000Z</time>
      </trkpt>
      <trkpt lat="48.51226" lon="7.10983">
        <ele>473.68906</ele>
        <time>2022-08-08T15:58:26.000Z</time>
      </trkpt>
      <trkpt lat="48.51226" lon="7.10989">
        <ele>474.11264</ele>
        <time>2022-08-08T15:58:28.000Z</time>
      </trkpt>
      <trkpt lat="48.51226" lon="7.10993">
        <ele>474.51865</ele>
        <time>2022-08-08T15:58:30.000Z</time>
      </trkpt>
      <trkpt lat="48.51226" lon="7.10996">
        <ele>474.87271</ele>
        <time>2022-08-08T15:58:32.000Z</time>
      </trkpt>
      <trkpt lat="48.51226" lon="7.11">
        <ele>475.07813</ele>
        <time>2022-08-08T15:58:34.000Z</time>
      </trkpt>
      <trkpt lat="48.51227" lon="7.11004">
        <ele>475.23648</ele>
        <time>2022-08-08T15:58:36.000Z</time>
      </trkpt>
      <trkpt lat="48.51226" lon="7.11008">
        <ele>475.36481</ele>
        <time>2022-08-08T15:58:38.000Z</time>
      </trkpt>
      <trkpt lat="48.51226" lon="7.11013">
        <ele>475.39838</ele>
        <time>2022-08-08T15:58:40.000Z</time>
      </trkpt>
      <trkpt lat="48.51226" lon="7.11016">
        <ele>475.34805</ele>
        <time>2022-08-08T15:58:41.000Z</time>
      </trkpt>
      <trkpt lat="48.51226" lon="7.11021">
        <ele>475.31381</ele>
        <time>2022-08-08T15:58:43.000Z</time>
      </trkpt>
      <trkpt lat="48.51226" lon="7.11024">
        <ele>475.2182</ele>
        <time>2022-08-08T15:58:44.000Z</time>
      </trkpt>
      <trkpt lat="48.51226" lon="7.11029">
        <ele>475.17685</ele>
        <time>2022-08-08T15:58:46.000Z</time>
      </trkpt>
      <trkpt lat="48.51227" lon="7.11034">
        <ele>475.14404</ele>
        <time>2022-08-08T15:58:48.000Z</time>
      </trkpt>
      <trkpt lat="48.51227" lon="7.11039">
        <ele>475.03131</ele>
        <time>2022-08-08T15:58:50.000Z</time>
      </trkpt>
      <trkpt lat="48.51227" lon="7.11044">
        <ele>474.79901</ele>
        <time>2022-08-08T15:58:52.000Z</time>
      </trkpt>
      <trkpt lat="48.51227" lon="7.11047">
        <ele>474.52081</ele>
        <time>2022-08-08T15:58:53.000Z</time>
      </trkpt>
      <trkpt lat="48.51227" lon="7.1105">
        <ele>474.25928</ele>
        <time>2022-08-08T15:58:54.000Z</time>
      </trkpt>
      <trkpt lat="48.51227" lon="7.11053">
        <ele>473.96646</ele>
        <time>2022-08-08T15:58:55.000Z</time>
      </trkpt>
      <trkpt lat="48.51227" lon="7.11056">
        <ele>473.64545</ele>
        <time>2022-08-08T15:58:56.000Z</time>
      </trkpt>
      <trkpt lat="48.51227" lon="7.11059">
        <ele>473.32584</ele>
        <time>2022-08-08T15:58:58.000Z</time>
      </trkpt>
      <trkpt lat="48.51227" lon="7.11063">
        <ele>472.99423</ele>
        <time>2022-08-08T15:59:00.000Z</time>
      </trkpt>
      <trkpt lat="48.51228" lon="7.11067">
        <ele>472.69629</ele>
        <time>2022-08-08T15:59:02.000Z</time>
      </trkpt>
      <trkpt lat="48.51228" lon="7.11074">
        <ele>472.39178</ele>
        <time>2022-08-08T15:59:05.000Z</time>
      </trkpt>
      <trkpt lat="48.51228" lon="7.11078">
        <ele>472.13428</ele>
        <time>2022-08-08T15:59:07.000Z</time>
      </trkpt>
      <trkpt lat="48.51228" lon="7.11082">
        <ele>471.93515</ele>
        <time>2022-08-08T15:59:09.000Z</time>
      </trkpt>
      <trkpt lat="48.51228" lon="7.11085">
        <ele>471.79819</ele>
        <time>2022-08-08T15:59:11.000Z</time>
      </trkpt>
      <trkpt lat="48.51229" lon="7.11088">
        <ele>471.74527</ele>
        <time>2022-08-08T15:59:13.000Z</time>
      </trkpt>
      <trkpt lat="48.5123" lon="7.11091">
        <ele>471.7959</ele>
        <time>2022-08-08T15:59:15.000Z</time>
      </trkpt>
      <trkpt lat="48.5123" lon="7.11094">
        <ele>471.92316</ele>
        <time>2022-08-08T15:59:17.000Z</time>
      </trkpt>
      <trkpt lat="48.51231" lon="7.11099">
        <ele>472.04742</ele>
        <time>2022-08-08T15:59:19.000Z</time>
      </trkpt>
      <trkpt lat="48.5123" lon="7.11102">
        <ele>472.25934</ele>
        <time>2022-08-08T15:59:20.000Z</time>
      </trkpt>
      <trkpt lat="48.51231" lon="7.11105">
        <ele>472.48285</ele>
        <time>2022-08-08T15:59:21.000Z</time>
      </trkpt>
      <trkpt lat="48.51231" lon="7.11109">
        <ele>472.73022</ele>
        <time>2022-08-08T15:59:23.000Z</time>
      </trkpt>
      <trkpt lat="48.51231" lon="7.11113">
        <ele>472.92667</ele>
        <time>2022-08-08T15:59:25.000Z</time>
      </trkpt>
      <trkpt lat="48.51231" lon="7.11117">
        <ele>473.21161</ele>
        <time>2022-08-08T15:59:27.000Z</time>
      </trkpt>
      <trkpt lat="48.51231" lon="7.11122">
        <ele>473.56305</ele>
        <time>2022-08-08T15:59:29.000Z</time>
      </trkpt>
      <trkpt lat="48.51232" lon="7.11125">
        <ele>473.84497</ele>
        <time>2022-08-08T15:59:31.000Z</time>
      </trkpt>
      <trkpt lat="48.51232" lon="7.11129">
        <ele>474.16495</ele>
        <time>2022-08-08T15:59:34.000Z</time>
      </trkpt>
      <trkpt lat="48.51232" lon="7.11132">
        <ele>474.51123</ele>
        <time>2022-08-08T15:59:36.000Z</time>
      </trkpt>
      <trkpt lat="48.51232" lon="7.11136">
        <ele>474.80157</ele>
        <time>2022-08-08T15:59:38.000Z</time>
      </trkpt>
      <trkpt lat="48.51233" lon="7.11141">
        <ele>475.07388</ele>
        <time>2022-08-08T15:59:40.000Z</time>
      </trkpt>
      <trkpt lat="48.51234" lon="7.11146">
        <ele>475.34406</ele>
        <time>2022-08-08T15:59:42.000Z</time>
      </trkpt>
      <trkpt lat="48.51234" lon="7.11151">
        <ele>475.63818</ele>
        <time>2022-08-08T15:59:44.000Z</time>
      </trkpt>
      <trkpt lat="48.51234" lon="7.11156">
        <ele>475.86517</ele>
        <time>2022-08-08T15:59:46.000Z</time>
      </trkpt>
      <trkpt lat="48.51234" lon="7.11158">
        <ele>476.0751</ele>
        <time>2022-08-08T15:59:47.000Z</time>
      </trkpt>
      <trkpt lat="48.51234" lon="7.11163">
        <ele>476.28116</ele>
        <time>2022-08-08T15:59:49.000Z</time>
      </trkpt>
      <trkpt lat="48.51234" lon="7.11169">
        <ele>476.42123</ele>
        <time>2022-08-08T15:59:51.000Z</time>
      </trkpt>
      <trkpt lat="48.51235" lon="7.11174">
        <ele>476.49258</ele>
        <time>2022-08-08T15:59:53.000Z</time>
      </trkpt>
      <trkpt lat="48.51236" lon="7.11176">
        <ele>476.53745</ele>
        <time>2022-08-08T15:59:54.000Z</time>
      </trkpt>
      <trkpt lat="48.51237" lon="7.11181">
        <ele>476.53949</ele>
        <time>2022-08-08T15:59:56.000Z</time>
      </trkpt>
      <trkpt lat="48.51236" lon="7.11186">
        <ele>476.41324</ele>
        <time>2022-08-08T15:59:58.000Z</time>
      </trkpt>
      <trkpt lat="48.51236" lon="7.1119">
        <ele>476.3414</ele>
        <time>2022-08-08T16:00:00.000Z</time>
      </trkpt>
      <trkpt lat="48.51236" lon="7.11194">
        <ele>476.28827</ele>
        <time>2022-08-08T16:00:02.000Z</time>
      </trkpt>
      <trkpt lat="48.51235" lon="7.11197">
        <ele>476.35416</ele>
        <time>2022-08-08T16:00:04.000Z</time>
      </trkpt>
      <trkpt lat="48.51234" lon="7.112">
        <ele>476.40674</ele>
        <time>2022-08-08T16:00:06.000Z</time>
      </trkpt>
      <trkpt lat="48.51234" lon="7.11204">
        <ele>476.40128</ele>
        <time>2022-08-08T16:00:08.000Z</time>
      </trkpt>
      <trkpt lat="48.51234" lon="7.11207">
        <ele>476.43219</ele>
        <time>2022-08-08T16:00:10.000Z</time>
      </trkpt>
      <trkpt lat="48.51234" lon="7.11211">
        <ele>476.47818</ele>
        <time>2022-08-08T16:00:12.000Z</time>
      </trkpt>
      <trkpt lat="48.51235" lon="7.11216">
        <ele>476.45206</ele>
        <time>2022-08-08T16:00:14.000Z</time>
      </trkpt>
      <trkpt lat="48.51234" lon="7.11219">
        <ele>476.46576</ele>
        <time>2022-08-08T16:00:16.000Z</time>
      </trkpt>
      <trkpt lat="48.51233" lon="7.11223">
        <ele>476.5419</ele>
        <time>2022-08-08T16:00:18.000Z</time>
      </trkpt>
      <trkpt lat="48.51234" lon="7.11227">
        <ele>476.60699</ele>
        <time>2022-08-08T16:00:20.000Z</time>
      </trkpt>
      <trkpt lat="48.51234" lon="7.11229">
        <ele>476.63419</ele>
        <time>2022-08-08T16:00:21.000Z</time>
      </trkpt>
      <trkpt lat="48.51233" lon="7.11233">
        <ele>476.64752</ele>
        <time>2022-08-08T16:00:23.000Z</time>
      </trkpt>
      <trkpt lat="48.51233" lon="7.11236">
        <ele>476.62994</ele>
        <time>2022-08-08T16:00:25.000Z</time>
      </trkpt>
      <trkpt lat="48.51232" lon="7.11239">
        <ele>476.69073</ele>
        <time>2022-08-08T16:00:27.000Z</time>
      </trkpt>
      <trkpt lat="48.51231" lon="7.11242">
        <ele>476.7587</ele>
        <time>2022-08-08T16:00:29.000Z</time>
      </trkpt>
      <trkpt lat="48.51231" lon="7.11245">
        <ele>476.82861</ele>
        <time>2022-08-08T16:00:31.000Z</time>
      </trkpt>
      <trkpt lat="48.51232" lon="7.11248">
        <ele>476.90884</ele>
        <time>2022-08-08T16:00:33.000Z</time>
      </trkpt>
      <trkpt lat="48.51231" lon="7.11252">
        <ele>477.03497</ele>
        <time>2022-08-08T16:00:35.000Z</time>
      </trkpt>
      <trkpt lat="48.51231" lon="7.11256">
        <ele>477.21906</ele>
        <time>2022-08-08T16:00:37.000Z</time>
      </trkpt>
      <trkpt lat="48.51232" lon="7.11259">
        <ele>477.36115</ele>
        <time>2022-08-08T16:00:39.000Z</time>
      </trkpt>
      <trkpt lat="48.51233" lon="7.11263">
        <ele>477.52203</ele>
        <time>2022-08-08T16:00:41.000Z</time>
      </trkpt>
      <trkpt lat="48.51235" lon="7.11266">
        <ele>477.59268</ele>
        <time>2022-08-08T16:00:43.000Z</time>
      </trkpt>
      <trkpt lat="48.51235" lon="7.1127">
        <ele>477.70572</ele>
        <time>2022-08-08T16:00:46.000Z</time>
      </trkpt>
      <trkpt lat="48.51236" lon="7.11273">
        <ele>477.83008</ele>
        <time>2022-08-08T16:00:47.000Z</time>
      </trkpt>
      <trkpt lat="48.51235" lon="7.11276">
        <ele>477.99081</ele>
        <time>2022-08-08T16:00:50.000Z</time>
      </trkpt>
      <trkpt lat="48.51235" lon="7.11279">
        <ele>478.13803</ele>
        <time>2022-08-08T16:00:52.000Z</time>
      </trkpt>
      <trkpt lat="48.51234" lon="7.11282">
        <ele>478.25708</ele>
        <time>2022-08-08T16:00:53.000Z</time>
      </trkpt>
      <trkpt lat="48.51234" lon="7.11286">
        <ele>478.3067</ele>
        <time>2022-08-08T16:00:55.000Z</time>
      </trkpt>
      <trkpt lat="48.51232" lon="7.11287">
        <ele>478.29517</ele>
        <time>2022-08-08T16:00:57.000Z</time>
      </trkpt>
      <trkpt lat="48.5123" lon="7.11289">
        <ele>478.37787</ele>
        <time>2022-08-08T16:00:59.000Z</time>
      </trkpt>
      <trkpt lat="48.51228" lon="7.11292">
        <ele>478.50507</ele>
        <time>2022-08-08T16:01:01.000Z</time>
      </trkpt>
      <trkpt lat="48.51227" lon="7.11296">
        <ele>478.76813</ele>
        <time>2022-08-08T16:01:03.000Z</time>
      </trkpt>
      <trkpt lat="48.51227" lon="7.113">
        <ele>479.01944</ele>
        <time>2022-08-08T16:01:05.000Z</time>
      </trkpt>
      <trkpt lat="48.51228" lon="7.11302">
        <ele>479.0817</ele>
        <time>2022-08-08T16:01:06.000Z</time>
      </trkpt>
      <trkpt lat="48.51228" lon="7.11305">
        <ele>479.11426</ele>
        <time>2022-08-08T16:01:07.000Z</time>
      </trkpt>
      <trkpt lat="48.51229" lon="7.11308">
        <ele>479.09985</ele>
        <time>2022-08-08T16:01:08.000Z</time>
      </trkpt>
      <trkpt lat="48.51228" lon="7.1131">
        <ele>479.13712</ele>
        <time>2022-08-08T16:01:09.000Z</time>
      </trkpt>
      <trkpt lat="48.51228" lon="7.11315">
        <ele>479.21313</ele>
        <time>2022-08-08T16:01:11.000Z</time>
      </trkpt>
      <trkpt lat="48.51227" lon="7.11319">
        <ele>479.31747</ele>
        <time>2022-08-08T16:01:13.000Z</time>
      </trkpt>
      <trkpt lat="48.51227" lon="7.11323">
        <ele>479.43857</ele>
        <time>2022-08-08T16:01:15.000Z</time>
      </trkpt>
      <trkpt lat="48.51228" lon="7.11325">
        <ele>479.51309</ele>
        <time>2022-08-08T16:01:16.000Z</time>
      </trkpt>
      <trkpt lat="48.51229" lon="7.11328">
        <ele>479.68442</ele>
        <time>2022-08-08T16:01:17.000Z</time>
      </trkpt>
      <trkpt lat="48.5123" lon="7.11331">
        <ele>479.81256</ele>
        <time>2022-08-08T16:01:18.000Z</time>
      </trkpt>
      <trkpt lat="48.5123" lon="7.11334">
        <ele>479.94427</ele>
        <time>2022-08-08T16:01:19.000Z</time>
      </trkpt>
      <trkpt lat="48.5123" lon="7.11337">
        <ele>480.03824</ele>
        <time>2022-08-08T16:01:20.000Z</time>
      </trkpt>
      <trkpt lat="48.51228" lon="7.11339">
        <ele>480.22739</ele>
        <time>2022-08-08T16:01:22.000Z</time>
      </trkpt>
      <trkpt lat="48.51226" lon="7.1134">
        <ele>480.44318</ele>
        <time>2022-08-08T16:01:23.000Z</time>
      </trkpt>
      <trkpt lat="48.51224" lon="7.11342">
        <ele>480.71948</ele>
        <time>2022-08-08T16:01:24.000Z</time>
      </trkpt>
      <trkpt lat="48.51224" lon="7.11345">
        <ele>480.91302</ele>
        <time>2022-08-08T16:01:25.000Z</time>
      </trkpt>
      <trkpt lat="48.51224" lon="7.11348">
        <ele>481.04483</ele>
        <time>2022-08-08T16:01:26.000Z</time>
      </trkpt>
      <trkpt lat="48.51225" lon="7.11351">
        <ele>481.09821</ele>
        <time>2022-08-08T16:01:27.000Z</time>
      </trkpt>
      <trkpt lat="48.51227" lon="7.11354">
        <ele>480.94156</ele>
        <time>2022-08-08T16:01:28.000Z</time>
      </trkpt>
      <trkpt lat="48.51228" lon="7.11356">
        <ele>480.79437</ele>
        <time>2022-08-08T16:01:29.000Z</time>
      </trkpt>
      <trkpt lat="48.51228" lon="7.11359">
        <ele>480.69708</ele>
        <time>2022-08-08T16:01:30.000Z</time>
      </trkpt>
      <trkpt lat="48.51229" lon="7.11363">
        <ele>480.59625</ele>
        <time>2022-08-08T16:01:32.000Z</time>
      </trkpt>
      <trkpt lat="48.51229" lon="7.11367">
        <ele>480.57681</ele>
        <time>2022-08-08T16:01:34.000Z</time>
      </trkpt>
      <trkpt lat="48.51229" lon="7.11372">
        <ele>480.57144</ele>
        <time>2022-08-08T16:01:36.000Z</time>
      </trkpt>
      <trkpt lat="48.51228" lon="7.11374">
        <ele>480.57486</ele>
        <time>2022-08-08T16:01:37.000Z</time>
      </trkpt>
      <trkpt lat="48.51227" lon="7.11377">
        <ele>480.5502</ele>
        <time>2022-08-08T16:01:38.000Z</time>
      </trkpt>
      <trkpt lat="48.51226" lon="7.11382">
        <ele>480.49512</ele>
        <time>2022-08-08T16:01:40.000Z</time>
      </trkpt>
      <trkpt lat="48.51225" lon="7.11385">
        <ele>480.53973</ele>
        <time>2022-08-08T16:01:41.000Z</time>
      </trkpt>
      <trkpt lat="48.51225" lon="7.1139">
        <ele>480.61597</ele>
        <time>2022-08-08T16:01:43.000Z</time>
      </trkpt>
      <trkpt lat="48.51224" lon="7.11395">
        <ele>480.68408</ele>
        <time>2022-08-08T16:01:45.000Z</time>
      </trkpt>
      <trkpt lat="48.51225" lon="7.11398">
        <ele>480.70502</ele>
        <time>2022-08-08T16:01:46.000Z</time>
      </trkpt>
      <trkpt lat="48.51226" lon="7.11401">
        <ele>480.80209</ele>
        <time>2022-08-08T16:01:48.000Z</time>
      </trkpt>
      <trkpt lat="48.51226" lon="7.11404">
        <ele>480.79938</ele>
        <time>2022-08-08T16:01:51.000Z</time>
      </trkpt>
      <trkpt lat="48.51226" lon="7.11409">
        <ele>480.84244</ele>
        <time>2022-08-08T16:01:53.000Z</time>
      </trkpt>
      <trkpt lat="48.51226" lon="7.11412">
        <ele>480.9021</ele>
        <time>2022-08-08T16:01:55.000Z</time>
      </trkpt>
      <trkpt lat="48.51226" lon="7.11416">
        <ele>481.08063</ele>
        <time>2022-08-08T16:01:57.000Z</time>
      </trkpt>
      <trkpt lat="48.51226" lon="7.1142">
        <ele>481.19965</ele>
        <time>2022-08-08T16:01:59.000Z</time>
      </trkpt>
      <trkpt lat="48.51226" lon="7.11424">
        <ele>481.43222</ele>
        <time>2022-08-08T16:02:00.000Z</time>
      </trkpt>
      <trkpt lat="48.51225" lon="7.11427">
        <ele>481.83984</ele>
        <time>2022-08-08T16:02:01.000Z</time>
      </trkpt>
      <trkpt lat="48.51225" lon="7.1143">
        <ele>482.17978</ele>
        <time>2022-08-08T16:02:03.000Z</time>
      </trkpt>
      <trkpt lat="48.51225" lon="7.11434">
        <ele>482.55142</ele>
        <time>2022-08-08T16:02:05.000Z</time>
      </trkpt>
      <trkpt lat="48.51225" lon="7.11438">
        <ele>482.90292</ele>
        <time>2022-08-08T16:02:07.000Z</time>
      </trkpt>
      <trkpt lat="48.51225" lon="7.11442">
        <ele>483.18262</ele>
        <time>2022-08-08T16:02:09.000Z</time>
      </trkpt>
      <trkpt lat="48.51224" lon="7.11446">
        <ele>483.42365</ele>
        <time>2022-08-08T16:02:11.000Z</time>
      </trkpt>
      <trkpt lat="48.51224" lon="7.11452">
        <ele>483.63882</ele>
        <time>2022-08-08T16:02:13.000Z</time>
      </trkpt>
      <trkpt lat="48.51224" lon="7.11455">
        <ele>483.92734</ele>
        <time>2022-08-08T16:02:14.000Z</time>
      </trkpt>
      <trkpt lat="48.51223" lon="7.1146">
        <ele>484.11639</ele>
        <time>2022-08-08T16:02:16.000Z</time>
      </trkpt>
      <trkpt lat="48.51224" lon="7.11463">
        <ele>484.19498</ele>
        <time>2022-08-08T16:02:19.000Z</time>
      </trkpt>
      <trkpt lat="48.51225" lon="7.11467">
        <ele>484.19824</ele>
        <time>2022-08-08T16:02:21.000Z</time>
      </trkpt>
      <trkpt lat="48.51224" lon="7.11472">
        <ele>484.34058</ele>
        <time>2022-08-08T16:02:23.000Z</time>
      </trkpt>
      <trkpt lat="48.51224" lon="7.11476">
        <ele>484.56485</ele>
        <time>2022-08-08T16:02:25.000Z</time>
      </trkpt>
      <trkpt lat="48.51224" lon="7.1148">
        <ele>484.62631</ele>
        <time>2022-08-08T16:02:27.000Z</time>
      </trkpt>
      <trkpt lat="48.51225" lon="7.11484">
        <ele>484.57965</ele>
        <time>2022-08-08T16:02:29.000Z</time>
      </trkpt>
      <trkpt lat="48.51224" lon="7.11487">
        <ele>484.42035</ele>
        <time>2022-08-08T16:02:31.000Z</time>
      </trkpt>
      <trkpt lat="48.51224" lon="7.11492">
        <ele>484.14471</ele>
        <time>2022-08-08T16:02:33.000Z</time>
      </trkpt>
      <trkpt lat="48.51224" lon="7.11497">
        <ele>483.74081</ele>
        <time>2022-08-08T16:02:35.000Z</time>
      </trkpt>
      <trkpt lat="48.51224" lon="7.11502">
        <ele>483.35025</ele>
        <time>2022-08-08T16:02:37.000Z</time>
      </trkpt>
      <trkpt lat="48.51224" lon="7.11506">
        <ele>482.92862</ele>
        <time>2022-08-08T16:02:39.000Z</time>
      </trkpt>
      <trkpt lat="48.51224" lon="7.11509">
        <ele>482.44379</ele>
        <time>2022-08-08T16:02:41.000Z</time>
      </trkpt>
      <trkpt lat="48.51224" lon="7.11513">
        <ele>482.09024</ele>
        <time>2022-08-08T16:02:43.000Z</time>
      </trkpt>
      <trkpt lat="48.51223" lon="7.11516">
        <ele>481.71002</ele>
        <time>2022-08-08T16:02:45.000Z</time>
      </trkpt>
      <trkpt lat="48.51222" lon="7.1152">
        <ele>481.35443</ele>
        <time>2022-08-08T16:02:47.000Z</time>
      </trkpt>
      <trkpt lat="48.51222" lon="7.11523">
        <ele>481.0379</ele>
        <time>2022-08-08T16:02:48.000Z</time>
      </trkpt>
      <trkpt lat="48.51222" lon="7.11528">
        <ele>480.72397</ele>
        <time>2022-08-08T16:02:50.000Z</time>
      </trkpt>
      <trkpt lat="48.51222" lon="7.11531">
        <ele>480.33563</ele>
        <time>2022-08-08T16:02:51.000Z</time>
      </trkpt>
      <trkpt lat="48.5122" lon="7.11535">
        <ele>479.7962</ele>
        <time>2022-08-08T16:02:53.000Z</time>
      </trkpt>
      <trkpt lat="48.5122" lon="7.11539">
        <ele>479.31427</ele>
        <time>2022-08-08T16:02:58.000Z</time>
      </trkpt>
      <trkpt lat="48.51219" lon="7.11542">
        <ele>478.88281</ele>
        <time>2022-08-08T16:03:00.000Z</time>
      </trkpt>
      <trkpt lat="48.5122" lon="7.11547">
        <ele>478.4816</ele>
        <time>2022-08-08T16:03:02.000Z</time>
      </trkpt>
      <trkpt lat="48.51219" lon="7.11551">
        <ele>477.81909</ele>
        <time>2022-08-08T16:03:04.000Z</time>
      </trkpt>
      <trkpt lat="48.51219" lon="7.11554">
        <ele>477.27789</ele>
        <time>2022-08-08T16:03:42.000Z</time>
      </trkpt>
      <trkpt lat="48.51218" lon="7.11558">
        <ele>476.771</ele>
        <time>2022-08-08T16:03:44.000Z</time>
      </trkpt>
      <trkpt lat="48.51218" lon="7.11561">
        <ele>476.37231</ele>
        <time>2022-08-08T16:03:46.000Z</time>
      </trkpt>
      <trkpt lat="48.51218" lon="7.11565">
        <ele>476.07486</ele>
        <time>2022-08-08T16:03:48.000Z</time>
      </trkpt>
      <trkpt lat="48.51219" lon="7.11567">
        <ele>475.95453</ele>
        <time>2022-08-08T16:03:51.000Z</time>
      </trkpt>
      <trkpt lat="48.51218" lon="7.11571">
        <ele>475.90469</ele>
        <time>2022-08-08T16:03:54.000Z</time>
      </trkpt>
      <trkpt lat="48.51218" lon="7.11574">
        <ele>475.79062</ele>
        <time>2022-08-08T16:03:56.000Z</time>
      </trkpt>
      <trkpt lat="48.51218" lon="7.11578">
        <ele>475.73193</ele>
        <time>2022-08-08T16:03:59.000Z</time>
      </trkpt>
      <trkpt lat="48.51218" lon="7.11581">
        <ele>475.75928</ele>
        <time>2022-08-08T16:04:02.000Z</time>
      </trkpt>
      <trkpt lat="48.51218" lon="7.11585">
        <ele>475.83148</ele>
        <time>2022-08-08T16:04:05.000Z</time>
      </trkpt>
      <trkpt lat="48.51218" lon="7.11588">
        <ele>476.0119</ele>
        <time>2022-08-08T16:04:07.000Z</time>
      </trkpt>
      <trkpt lat="48.51218" lon="7.11591">
        <ele>476.27597</ele>
        <time>2022-08-08T16:04:09.000Z</time>
      </trkpt>
      <trkpt lat="48.51218" lon="7.11594">
        <ele>476.6127</ele>
        <time>2022-08-08T16:04:11.000Z</time>
      </trkpt>
      <trkpt lat="48.51216" lon="7.11597">
        <ele>476.95743</ele>
        <time>2022-08-08T16:04:13.000Z</time>
      </trkpt>
      <trkpt lat="48.51217" lon="7.11601">
        <ele>477.4339</ele>
        <time>2022-08-08T16:04:15.000Z</time>
      </trkpt>
      <trkpt lat="48.51215" lon="7.11603">
        <ele>478.01434</ele>
        <time>2022-08-08T16:04:17.000Z</time>
      </trkpt>
      <trkpt lat="48.51215" lon="7.11607">
        <ele>478.6499</ele>
        <time>2022-08-08T16:04:19.000Z</time>
      </trkpt>
      <trkpt lat="48.51215" lon="7.11611">
        <ele>479.24829</ele>
        <time>2022-08-08T16:04:20.000Z</time>
      </trkpt>
      <trkpt lat="48.51215" lon="7.11613">
        <ele>479.82861</ele>
        <time>2022-08-08T16:04:21.000Z</time>
      </trkpt>
      <trkpt lat="48.51215" lon="7.11619">
        <ele>480.4769</ele>
        <time>2022-08-08T16:04:23.000Z</time>
      </trkpt>
      <trkpt lat="48.51215" lon="7.11623">
        <ele>481.04337</ele>
        <time>2022-08-08T16:04:25.000Z</time>
      </trkpt>
      <trkpt lat="48.51214" lon="7.11627">
        <ele>481.60229</ele>
        <time>2022-08-08T16:04:27.000Z</time>
      </trkpt>
      <trkpt lat="48.51213" lon="7.1163">
        <ele>482.05536</ele>
        <time>2022-08-08T16:04:29.000Z</time>
      </trkpt>
      <trkpt lat="48.51212" lon="7.11634">
        <ele>482.52386</ele>
        <time>2022-08-08T16:04:31.000Z</time>
      </trkpt>
      <trkpt lat="48.51212" lon="7.11638">
        <ele>482.89639</ele>
        <time>2022-08-08T16:04:33.000Z</time>
      </trkpt>
      <trkpt lat="48.51213" lon="7.11642">
        <ele>483.28442</ele>
        <time>2022-08-08T16:04:35.000Z</time>
      </trkpt>
      <trkpt lat="48.51213" lon="7.11645">
        <ele>483.86847</ele>
        <time>2022-08-08T16:04:37.000Z</time>
      </trkpt>
      <trkpt lat="48.51214" lon="7.11649">
        <ele>484.42548</ele>
        <time>2022-08-08T16:04:39.000Z</time>
      </trkpt>
      <trkpt lat="48.51214" lon="7.11652">
        <ele>484.88788</ele>
        <time>2022-08-08T16:04:41.000Z</time>
      </trkpt>
      <trkpt lat="48.51214" lon="7.11656">
        <ele>485.31586</ele>
        <time>2022-08-08T16:04:43.000Z</time>
      </trkpt>
      <trkpt lat="48.51214" lon="7.1166">
        <ele>485.74188</ele>
        <time>2022-08-08T16:04:45.000Z</time>
      </trkpt>
      <trkpt lat="48.51214" lon="7.11664">
        <ele>486.19879</ele>
        <time>2022-08-08T16:04:47.000Z</time>
      </trkpt>
      <trkpt lat="48.51214" lon="7.11667">
        <ele>486.61792</ele>
        <time>2022-08-08T16:04:49.000Z</time>
      </trkpt>
      <trkpt lat="48.51214" lon="7.11671">
        <ele>487.02515</ele>
        <time>2022-08-08T16:04:51.000Z</time>
      </trkpt>
      <trkpt lat="48.51215" lon="7.11675">
        <ele>487.40033</ele>
        <time>2022-08-08T16:04:53.000Z</time>
      </trkpt>
      <trkpt lat="48.51216" lon="7.1168">
        <ele>487.71518</ele>
        <time>2022-08-08T16:04:55.000Z</time>
      </trkpt>
      <trkpt lat="48.51217" lon="7.11684">
        <ele>487.98804</ele>
        <time>2022-08-08T16:04:57.000Z</time>
      </trkpt>
      <trkpt lat="48.51217" lon="7.11688">
        <ele>488.31461</ele>
        <time>2022-08-08T16:04:59.000Z</time>
      </trkpt>
      <trkpt lat="48.51218" lon="7.11691">
        <ele>488.78427</ele>
        <time>2022-08-08T16:05:02.000Z</time>
      </trkpt>
      <trkpt lat="48.51218" lon="7.11695">
        <ele>489.3269</ele>
        <time>2022-08-08T16:05:04.000Z</time>
      </trkpt>
      <trkpt lat="48.51219" lon="7.11699">
        <ele>489.92407</ele>
        <time>2022-08-08T16:05:06.000Z</time>
      </trkpt>
      <trkpt lat="48.5122" lon="7.11702">
        <ele>490.63907</ele>
        <time>2022-08-08T16:05:08.000Z</time>
      </trkpt>
      <trkpt lat="48.5122" lon="7.11706">
        <ele>491.44839</ele>
        <time>2022-08-08T16:05:10.000Z</time>
      </trkpt>
      <trkpt lat="48.51221" lon="7.1171">
        <ele>492.3548</ele>
        <time>2022-08-08T16:05:12.000Z</time>
      </trkpt>
      <trkpt lat="48.51221" lon="7.11713">
        <ele>493.2377</ele>
        <time>2022-08-08T16:05:14.000Z</time>
      </trkpt>
      <trkpt lat="48.51222" lon="7.11717">
        <ele>494.07675</ele>
        <time>2022-08-08T16:05:16.000Z</time>
      </trkpt>
      <trkpt lat="48.51222" lon="7.11721">
        <ele>494.82227</ele>
        <time>2022-08-08T16:05:18.000Z</time>
      </trkpt>
      <trkpt lat="48.51223" lon="7.11724">
        <ele>495.4502</ele>
        <time>2022-08-08T16:05:20.000Z</time>
      </trkpt>
      <trkpt lat="48.51223" lon="7.11727">
        <ele>496.11523</ele>
        <time>2022-08-08T16:05:22.000Z</time>
      </trkpt>
      <trkpt lat="48.51224" lon="7.1173">
        <ele>496.79279</ele>
        <time>2022-08-08T16:05:24.000Z</time>
      </trkpt>
      <trkpt lat="48.51225" lon="7.11733">
        <ele>497.45728</ele>
        <time>2022-08-08T16:05:26.000Z</time>
      </trkpt>
      <trkpt lat="48.51225" lon="7.11737">
        <ele>498.10294</ele>
        <time>2022-08-08T16:05:28.000Z</time>
      </trkpt>
      <trkpt lat="48.51227" lon="7.1174">
        <ele>498.85391</ele>
        <time>2022-08-08T16:05:30.000Z</time>
      </trkpt>
      <trkpt lat="48.51228" lon="7.11743">
        <ele>499.63824</ele>
        <time>2022-08-08T16:05:32.000Z</time>
      </trkpt>
      <trkpt lat="48.51229" lon="7.11745">
        <ele>500.3786</ele>
        <time>2022-08-08T16:05:34.000Z</time>
      </trkpt>
      <trkpt lat="48.51231" lon="7.11748">
        <ele>501.20102</ele>
        <time>2022-08-08T16:05:36.000Z</time>
      </trkpt>
      <trkpt lat="48.51233" lon="7.11752">
        <ele>501.99658</ele>
        <time>2022-08-08T16:05:38.000Z</time>
      </trkpt>
      <trkpt lat="48.51235" lon="7.11755">
        <ele>502.72339</ele>
        <time>2022-08-08T16:05:40.000Z</time>
      </trkpt>
      <trkpt lat="48.51236" lon="7.11758">
        <ele>503.24771</ele>
        <time>2022-08-08T16:05:41.000Z</time>
      </trkpt>
      <trkpt lat="48.51237" lon="7.1176">
        <ele>503.72504</ele>
        <time>2022-08-08T16:05:42.000Z</time>
      </trkpt>
      <trkpt lat="48.51239" lon="7.11763">
        <ele>504.08463</ele>
        <time>2022-08-08T16:05:44.000Z</time>
      </trkpt>
      <trkpt lat="48.51239" lon="7.11766">
        <ele>504.35083</ele>
        <time>2022-08-08T16:05:45.000Z</time>
      </trkpt>
      <trkpt lat="48.5124" lon="7.1177">
        <ele>504.7226</ele>
        <time>2022-08-08T16:05:47.000Z</time>
      </trkpt>
      <trkpt lat="48.51241" lon="7.11775">
        <ele>504.82544</ele>
        <time>2022-08-08T16:05:49.000Z</time>
      </trkpt>
      <trkpt lat="48.51243" lon="7.11779">
        <ele>504.93686</ele>
        <time>2022-08-08T16:05:51.000Z</time>
      </trkpt>
      <trkpt lat="48.51244" lon="7.11783">
        <ele>505.16568</ele>
        <time>2022-08-08T16:05:53.000Z</time>
      </trkpt>
      <trkpt lat="48.51246" lon="7.11787">
        <ele>505.31528</ele>
        <time>2022-08-08T16:05:55.000Z</time>
      </trkpt>
      <trkpt lat="48.51248" lon="7.11791">
        <ele>505.52026</ele>
        <time>2022-08-08T16:05:57.000Z</time>
      </trkpt>
      <trkpt lat="48.5125" lon="7.11795">
        <ele>505.75287</ele>
        <time>2022-08-08T16:05:59.000Z</time>
      </trkpt>
      <trkpt lat="48.51251" lon="7.11797">
        <ele>505.92255</ele>
        <time>2022-08-08T16:06:00.000Z</time>
      </trkpt>
      <trkpt lat="48.51252" lon="7.118">
        <ele>506.02899</ele>
        <time>2022-08-08T16:06:01.000Z</time>
      </trkpt>
      <trkpt lat="48.51252" lon="7.11803">
        <ele>506.05182</ele>
        <time>2022-08-08T16:06:02.000Z</time>
      </trkpt>
      <trkpt lat="48.51254" lon="7.11807">
        <ele>505.95572</ele>
        <time>2022-08-08T16:06:03.000Z</time>
      </trkpt>
      <trkpt lat="48.51257" lon="7.11811">
        <ele>505.80902</ele>
        <time>2022-08-08T16:06:05.000Z</time>
      </trkpt>
      <trkpt lat="48.51261" lon="7.11816">
        <ele>505.65527</ele>
        <time>2022-08-08T16:06:06.000Z</time>
      </trkpt>
      <trkpt lat="48.51263" lon="7.11822">
        <ele>505.51123</ele>
        <time>2022-08-08T16:06:07.000Z</time>
      </trkpt>
      <trkpt lat="48.51266" lon="7.11828">
        <ele>505.36069</ele>
        <time>2022-08-08T16:06:08.000Z</time>
      </trkpt>
      <trkpt lat="48.51269" lon="7.11834">
        <ele>505.13983</ele>
        <time>2022-08-08T16:06:09.000Z</time>
      </trkpt>
      <trkpt lat="48.51272" lon="7.11838">
        <ele>504.96011</ele>
        <time>2022-08-08T16:06:10.000Z</time>
      </trkpt>
      <trkpt lat="48.51275" lon="7.11842">
        <ele>504.81299</ele>
        <time>2022-08-08T16:06:11.000Z</time>
      </trkpt>
      <trkpt lat="48.51277" lon="7.11846">
        <ele>504.57904</ele>
        <time>2022-08-08T16:06:12.000Z</time>
      </trkpt>
      <trkpt lat="48.51278" lon="7.11849">
        <ele>504.28369</ele>
        <time>2022-08-08T16:06:13.000Z</time>
      </trkpt>
      <trkpt lat="48.5128" lon="7.11852">
        <ele>503.93817</ele>
        <time>2022-08-08T16:06:14.000Z</time>
      </trkpt>
      <trkpt lat="48.51281" lon="7.11855">
        <ele>503.76324</ele>
        <time>2022-08-08T16:06:15.000Z</time>
      </trkpt>
      <trkpt lat="48.51282" lon="7.1186">
        <ele>503.62036</ele>
        <time>2022-08-08T16:06:16.000Z</time>
      </trkpt>
      <trkpt lat="48.51284" lon="7.11865">
        <ele>503.37152</ele>
        <time>2022-08-08T16:06:17.000Z</time>
      </trkpt>
      <trkpt lat="48.51286" lon="7.1187">
        <ele>503.19586</ele>
        <time>2022-08-08T16:06:18.000Z</time>
      </trkpt>
      <trkpt lat="48.51287" lon="7.11874">
        <ele>503.05698</ele>
        <time>2022-08-08T16:06:19.000Z</time>
      </trkpt>
      <trkpt lat="48.51289" lon="7.11877">
        <ele>502.80719</ele>
        <time>2022-08-08T16:06:20.000Z</time>
      </trkpt>
      <trkpt lat="48.5129" lon="7.1188">
        <ele>502.46771</ele>
        <time>2022-08-08T16:06:21.000Z</time>
      </trkpt>
      <trkpt lat="48.51292" lon="7.11884">
        <ele>502.07681</ele>
        <time>2022-08-08T16:06:22.000Z</time>
      </trkpt>
      <trkpt lat="48.51294" lon="7.11888">
        <ele>501.73526</ele>
        <time>2022-08-08T16:06:23.000Z</time>
      </trkpt>
      <trkpt lat="48.51296" lon="7.11893">
        <ele>501.3623</ele>
        <time>2022-08-08T16:06:24.000Z</time>
      </trkpt>
      <trkpt lat="48.51298" lon="7.11898">
        <ele>500.94962</ele>
        <time>2022-08-08T16:06:25.000Z</time>
      </trkpt>
      <trkpt lat="48.513" lon="7.11904">
        <ele>500.44687</ele>
        <time>2022-08-08T16:06:26.000Z</time>
      </trkpt>
      <trkpt lat="48.51302" lon="7.1191">
        <ele>499.94351</ele>
        <time>2022-08-08T16:06:27.000Z</time>
      </trkpt>
      <trkpt lat="48.51303" lon="7.11915">
        <ele>499.4848</ele>
        <time>2022-08-08T16:06:28.000Z</time>
      </trkpt>
      <trkpt lat="48.51304" lon="7.11921">
        <ele>499.0202</ele>
        <time>2022-08-08T16:06:29.000Z</time>
      </trkpt>
      <trkpt lat="48.51305" lon="7.11925">
        <ele>498.61884</ele>
        <time>2022-08-08T16:06:30.000Z</time>
      </trkpt>
      <trkpt lat="48.51307" lon="7.11928">
        <ele>498.21176</ele>
        <time>2022-08-08T16:06:31.000Z</time>
      </trkpt>
      <trkpt lat="48.51309" lon="7.11931">
        <ele>497.93936</ele>
        <time>2022-08-08T16:06:32.000Z</time>
      </trkpt>
      <trkpt lat="48.5131" lon="7.11936">
        <ele>497.83383</ele>
        <time>2022-08-08T16:06:33.000Z</time>
      </trkpt>
      <trkpt lat="48.51312" lon="7.11941">
        <ele>497.60513</ele>
        <time>2022-08-08T16:06:34.000Z</time>
      </trkpt>
      <trkpt lat="48.51313" lon="7.11947">
        <ele>497.33521</ele>
        <time>2022-08-08T16:06:35.000Z</time>
      </trkpt>
      <trkpt lat="48.51314" lon="7.11953">
        <ele>497.00958</ele>
        <time>2022-08-08T16:06:36.000Z</time>
      </trkpt>
      <trkpt lat="48.51316" lon="7.11956">
        <ele>496.63141</ele>
        <time>2022-08-08T16:06:37.000Z</time>
      </trkpt>
      <trkpt lat="48.51318" lon="7.11961">
        <ele>496.3588</ele>
        <time>2022-08-08T16:06:39.000Z</time>
      </trkpt>
      <trkpt lat="48.5132" lon="7.11966">
        <ele>496.18207</ele>
        <time>2022-08-08T16:06:40.000Z</time>
      </trkpt>
      <trkpt lat="48.51322" lon="7.11972">
        <ele>496.04559</ele>
        <time>2022-08-08T16:06:41.000Z</time>
      </trkpt>
      <trkpt lat="48.51323" lon="7.11977">
        <ele>495.94669</ele>
        <time>2022-08-08T16:06:42.000Z</time>
      </trkpt>
      <trkpt lat="48.51325" lon="7.11983">
        <ele>495.9061</ele>
        <time>2022-08-08T16:06:43.000Z</time>
      </trkpt>
      <trkpt lat="48.51326" lon="7.11988">
        <ele>495.76324</ele>
        <time>2022-08-08T16:06:44.000Z</time>
      </trkpt>
      <trkpt lat="48.51328" lon="7.11992">
        <ele>495.64932</ele>
        <time>2022-08-08T16:06:45.000Z</time>
      </trkpt>
      <trkpt lat="48.51328" lon="7.11995">
        <ele>495.66928</ele>
        <time>2022-08-08T16:06:46.000Z</time>
      </trkpt>
      <trkpt lat="48.51329" lon="7.12001">
        <ele>495.80264</ele>
        <time>2022-08-08T16:06:47.000Z</time>
      </trkpt>
      <trkpt lat="48.51331" lon="7.12006">
        <ele>495.90097</ele>
        <time>2022-08-08T16:06:48.000Z</time>
      </trkpt>
      <trkpt lat="48.51333" lon="7.12011">
        <ele>495.79623</ele>
        <time>2022-08-08T16:06:49.000Z</time>
      </trkpt>
      <trkpt lat="48.51335" lon="7.12016">
        <ele>495.84848</ele>
        <time>2022-08-08T16:06:50.000Z</time>
      </trkpt>
      <trkpt lat="48.51337" lon="7.12021">
        <ele>495.77222</ele>
        <time>2022-08-08T16:06:51.000Z</time>
      </trkpt>
      <trkpt lat="48.51338" lon="7.12026">
        <ele>495.67896</ele>
        <time>2022-08-08T16:06:52.000Z</time>
      </trkpt>
      <trkpt lat="48.5134" lon="7.1203">
        <ele>495.55777</ele>
        <time>2022-08-08T16:06:53.000Z</time>
      </trkpt>
      <trkpt lat="48.51342" lon="7.12034">
        <ele>495.34506</ele>
        <time>2022-08-08T16:06:54.000Z</time>
      </trkpt>
      <trkpt lat="48.51343" lon="7.12037">
        <ele>495.28458</ele>
        <time>2022-08-08T16:06:55.000Z</time>
      </trkpt>
      <trkpt lat="48.51345" lon="7.1204">
        <ele>495.29141</ele>
        <time>2022-08-08T16:06:56.000Z</time>
      </trkpt>
      <trkpt lat="48.51347" lon="7.12044">
        <ele>495.32709</ele>
        <time>2022-08-08T16:06:57.000Z</time>
      </trkpt>
      <trkpt lat="48.51349" lon="7.12049">
        <ele>495.42999</ele>
        <time>2022-08-08T16:06:58.000Z</time>
      </trkpt>
      <trkpt lat="48.51352" lon="7.12053">
        <ele>495.30792</ele>
        <time>2022-08-08T16:06:59.000Z</time>
      </trkpt>
      <trkpt lat="48.51355" lon="7.12057">
        <ele>495.04614</ele>
        <time>2022-08-08T16:07:00.000Z</time>
      </trkpt>
      <trkpt lat="48.51356" lon="7.1206">
        <ele>494.80646</ele>
        <time>2022-08-08T16:07:01.000Z</time>
      </trkpt>
      <trkpt lat="48.51358" lon="7.12063">
        <ele>494.64081</ele>
        <time>2022-08-08T16:07:02.000Z</time>
      </trkpt>
      <trkpt lat="48.5136" lon="7.12066">
        <ele>494.39142</ele>
        <time>2022-08-08T16:07:03.000Z</time>
      </trkpt>
      <trkpt lat="48.51362" lon="7.12068">
        <ele>494.25836</ele>
        <time>2022-08-08T16:07:04.000Z</time>
      </trkpt>
      <trkpt lat="48.51364" lon="7.12073">
        <ele>494.04999</ele>
        <time>2022-08-08T16:07:05.000Z</time>
      </trkpt>
      <trkpt lat="48.51366" lon="7.12077">
        <ele>493.75488</ele>
        <time>2022-08-08T16:07:06.000Z</time>
      </trkpt>
      <trkpt lat="48.51367" lon="7.12081">
        <ele>493.54922</ele>
        <time>2022-08-08T16:07:07.000Z</time>
      </trkpt>
      <trkpt lat="48.51369" lon="7.12085">
        <ele>493.24225</ele>
        <time>2022-08-08T16:07:08.000Z</time>
      </trkpt>
      <trkpt lat="48.5137" lon="7.12088">
        <ele>493.1308</ele>
        <time>2022-08-08T16:07:09.000Z</time>
      </trkpt>
      <trkpt lat="48.51372" lon="7.12092">
        <ele>492.94702</ele>
        <time>2022-08-08T16:07:10.000Z</time>
      </trkpt>
      <trkpt lat="48.51373" lon="7.12096">
        <ele>492.8985</ele>
        <time>2022-08-08T16:07:11.000Z</time>
      </trkpt>
      <trkpt lat="48.51375" lon="7.12099">
        <ele>492.86328</ele>
        <time>2022-08-08T16:07:12.000Z</time>
      </trkpt>
      <trkpt lat="48.51376" lon="7.12103">
        <ele>492.86978</ele>
        <time>2022-08-08T16:07:13.000Z</time>
      </trkpt>
      <trkpt lat="48.51376" lon="7.12106">
        <ele>492.89069</ele>
        <time>2022-08-08T16:07:14.000Z</time>
      </trkpt>
      <trkpt lat="48.51376" lon="7.1211">
        <ele>492.83008</ele>
        <time>2022-08-08T16:07:15.000Z</time>
      </trkpt>
      <trkpt lat="48.51377" lon="7.12113">
        <ele>492.76987</ele>
        <time>2022-08-08T16:07:16.000Z</time>
      </trkpt>
      <trkpt lat="48.51379" lon="7.12116">
        <ele>492.72662</ele>
        <time>2022-08-08T16:07:17.000Z</time>
      </trkpt>
      <trkpt lat="48.5138" lon="7.12118">
        <ele>492.71631</ele>
        <time>2022-08-08T16:07:18.000Z</time>
      </trkpt>
      <trkpt lat="48.5138" lon="7.12124">
        <ele>492.87305</ele>
        <time>2022-08-08T16:07:20.000Z</time>
      </trkpt>
      <trkpt lat="48.5138" lon="7.12129">
        <ele>493.09857</ele>
        <time>2022-08-08T16:07:21.000Z</time>
      </trkpt>
      <trkpt lat="48.5138" lon="7.12133">
        <ele>493.33365</ele>
        <time>2022-08-08T16:07:22.000Z</time>
      </trkpt>
      <trkpt lat="48.51381" lon="7.12138">
        <ele>493.49722</ele>
        <time>2022-08-08T16:07:23.000Z</time>
      </trkpt>
      <trkpt lat="48.51382" lon="7.12142">
        <ele>493.76099</ele>
        <time>2022-08-08T16:07:24.000Z</time>
      </trkpt>
      <trkpt lat="48.51382" lon="7.12146">
        <ele>493.99722</ele>
        <time>2022-08-08T16:07:25.000Z</time>
      </trkpt>
      <trkpt lat="48.51383" lon="7.1215">
        <ele>494.28629</ele>
        <time>2022-08-08T16:07:26.000Z</time>
      </trkpt>
      <trkpt lat="48.51384" lon="7.12153">
        <ele>494.47583</ele>
        <time>2022-08-08T16:07:27.000Z</time>
      </trkpt>
      <trkpt lat="48.51383" lon="7.12157">
        <ele>494.54282</ele>
        <time>2022-08-08T16:07:29.000Z</time>
      </trkpt>
      <trkpt lat="48.51384" lon="7.12162">
        <ele>494.73138</ele>
        <time>2022-08-08T16:07:31.000Z</time>
      </trkpt>
      <trkpt lat="48.51385" lon="7.12165">
        <ele>494.94159</ele>
        <time>2022-08-08T16:07:33.000Z</time>
      </trkpt>
      <trkpt lat="48.51386" lon="7.1217">
        <ele>495.19785</ele>
        <time>2022-08-08T16:07:35.000Z</time>
      </trkpt>
      <trkpt lat="48.51386" lon="7.12175">
        <ele>495.4162</ele>
        <time>2022-08-08T16:07:37.000Z</time>
      </trkpt>
      <trkpt lat="48.51387" lon="7.12179">
        <ele>495.59033</ele>
        <time>2022-08-08T16:07:39.000Z</time>
      </trkpt>
      <trkpt lat="48.51388" lon="7.12184">
        <ele>495.72711</ele>
        <time>2022-08-08T16:07:41.000Z</time>
      </trkpt>
      <trkpt lat="48.51389" lon="7.12188">
        <ele>495.96997</ele>
        <time>2022-08-08T16:07:44.000Z</time>
      </trkpt>
      <trkpt lat="48.51389" lon="7.12193">
        <ele>496.12677</ele>
        <time>2022-08-08T16:07:46.000Z</time>
      </trkpt>
      <trkpt lat="48.5139" lon="7.12198">
        <ele>496.17072</ele>
        <time>2022-08-08T16:07:48.000Z</time>
      </trkpt>
      <trkpt lat="48.5139" lon="7.122">
        <ele>496.14999</ele>
        <time>2022-08-08T16:07:49.000Z</time>
      </trkpt>
      <trkpt lat="48.51391" lon="7.12206">
        <ele>496.0853</ele>
        <time>2022-08-08T16:07:51.000Z</time>
      </trkpt>
      <trkpt lat="48.51391" lon="7.12209">
        <ele>496.01172</ele>
        <time>2022-08-08T16:07:53.000Z</time>
      </trkpt>
      <trkpt lat="48.51392" lon="7.12212">
        <ele>495.95215</ele>
        <time>2022-08-08T16:07:55.000Z</time>
      </trkpt>
      <trkpt lat="48.51392" lon="7.12217">
        <ele>495.84711</ele>
        <time>2022-08-08T16:07:57.000Z</time>
      </trkpt>
      <trkpt lat="48.51393" lon="7.12221">
        <ele>495.76392</ele>
        <time>2022-08-08T16:07:59.000Z</time>
      </trkpt>
      <trkpt lat="48.51395" lon="7.12223">
        <ele>495.70297</ele>
        <time>2022-08-08T16:08:01.000Z</time>
      </trkpt>
      <trkpt lat="48.51395" lon="7.12228">
        <ele>495.53995</ele>
        <time>2022-08-08T16:08:03.000Z</time>
      </trkpt>
      <trkpt lat="48.51394" lon="7.12233">
        <ele>495.29639</ele>
        <time>2022-08-08T16:08:05.000Z</time>
      </trkpt>
      <trkpt lat="48.51394" lon="7.12236">
        <ele>495.09814</ele>
        <time>2022-08-08T16:08:06.000Z</time>
      </trkpt>
      <trkpt lat="48.51394" lon="7.12239">
        <ele>494.89023</ele>
        <time>2022-08-08T16:08:07.000Z</time>
      </trkpt>
      <trkpt lat="48.51394" lon="7.12243">
        <ele>494.617</ele>
        <time>2022-08-08T16:08:09.000Z</time>
      </trkpt>
      <trkpt lat="48.51393" lon="7.12248">
        <ele>494.31558</ele>
        <time>2022-08-08T16:08:11.000Z</time>
      </trkpt>
      <trkpt lat="48.51392" lon="7.12251">
        <ele>493.93597</ele>
        <time>2022-08-08T16:08:13.000Z</time>
      </trkpt>
      <trkpt lat="48.51391" lon="7.12254">
        <ele>493.7251</ele>
        <time>2022-08-08T16:08:16.000Z</time>
      </trkpt>
      <trkpt lat="48.5139" lon="7.12257">
        <ele>493.608</ele>
        <time>2022-08-08T16:08:19.000Z</time>
      </trkpt>
      <trkpt lat="48.51389" lon="7.12259">
        <ele>493.42157</ele>
        <time>2022-08-08T16:08:21.000Z</time>
      </trkpt>
      <trkpt lat="48.51388" lon="7.12263">
        <ele>493.08771</ele>
        <time>2022-08-08T16:08:24.000Z</time>
      </trkpt>
      <trkpt lat="48.51387" lon="7.12265">
        <ele>492.81274</ele>
        <time>2022-08-08T16:08:26.000Z</time>
      </trkpt>
      <trkpt lat="48.51386" lon="7.12268">
        <ele>492.63202</ele>
        <time>2022-08-08T16:08:28.000Z</time>
      </trkpt>
      <trkpt lat="48.51385" lon="7.12271">
        <ele>492.57773</ele>
        <time>2022-08-08T16:08:30.000Z</time>
      </trkpt>
      <trkpt lat="48.51383" lon="7.12274">
        <ele>492.58502</ele>
        <time>2022-08-08T16:08:32.000Z</time>
      </trkpt>
      <trkpt lat="48.51383" lon="7.12277">
        <ele>492.59531</ele>
        <time>2022-08-08T16:08:34.000Z</time>
      </trkpt>
      <trkpt lat="48.51382" lon="7.12279">
        <ele>492.62173</ele>
        <time>2022-08-08T16:08:36.000Z</time>
      </trkpt>
      <trkpt lat="48.5138" lon="7.12282">
        <ele>492.65591</ele>
        <time>2022-08-08T16:08:38.000Z</time>
      </trkpt>
      <trkpt lat="48.51378" lon="7.12285">
        <ele>492.76532</ele>
        <time>2022-08-08T16:08:40.000Z</time>
      </trkpt>
      <trkpt lat="48.51377" lon="7.12289">
        <ele>492.77606</ele>
        <time>2022-08-08T16:08:42.000Z</time>
      </trkpt>
      <trkpt lat="48.51376" lon="7.12293">
        <ele>492.84259</ele>
        <time>2022-08-08T16:08:44.000Z</time>
      </trkpt>
      <trkpt lat="48.51374" lon="7.12296">
        <ele>493.02539</ele>
        <time>2022-08-08T16:08:46.000Z</time>
      </trkpt>
      <trkpt lat="48.51373" lon="7.12299">
        <ele>493.28986</ele>
        <time>2022-08-08T16:08:48.000Z</time>
      </trkpt>
      <trkpt lat="48.51371" lon="7.12301">
        <ele>493.55453</ele>
        <time>2022-08-08T16:08:50.000Z</time>
      </trkpt>
      <trkpt lat="48.5137" lon="7.12304">
        <ele>493.86835</ele>
        <time>2022-08-08T16:08:52.000Z</time>
      </trkpt>
      <trkpt lat="48.51369" lon="7.12307">
        <ele>494.18335</ele>
        <time>2022-08-08T16:08:54.000Z</time>
      </trkpt>
      <trkpt lat="48.51367" lon="7.1231">
        <ele>494.57138</ele>
        <time>2022-08-08T16:08:56.000Z</time>
      </trkpt>
      <trkpt lat="48.51365" lon="7.12313">
        <ele>494.62897</ele>
        <time>2022-08-08T16:08:58.000Z</time>
      </trkpt>
      <trkpt lat="48.51363" lon="7.12317">
        <ele>494.4353</ele>
        <time>2022-08-08T16:09:00.000Z</time>
      </trkpt>
      <trkpt lat="48.51361" lon="7.12321">
        <ele>494.2233</ele>
        <time>2022-08-08T16:09:02.000Z</time>
      </trkpt>
      <trkpt lat="48.5136" lon="7.12324">
        <ele>494.01132</ele>
        <time>2022-08-08T16:09:03.000Z</time>
      </trkpt>
      <trkpt lat="48.51358" lon="7.12328">
        <ele>493.70605</ele>
        <time>2022-08-08T16:09:05.000Z</time>
      </trkpt>
      <trkpt lat="48.51358" lon="7.1233">
        <ele>493.2977</ele>
        <time>2022-08-08T16:09:06.000Z</time>
      </trkpt>
      <trkpt lat="48.51357" lon="7.12335">
        <ele>492.70322</ele>
        <time>2022-08-08T16:09:08.000Z</time>
      </trkpt>
      <trkpt lat="48.51355" lon="7.1234">
        <ele>491.93854</ele>
        <time>2022-08-08T16:09:10.000Z</time>
      </trkpt>
      <trkpt lat="48.51354" lon="7.12343">
        <ele>491.17676</ele>
        <time>2022-08-08T16:09:12.000Z</time>
      </trkpt>
      <trkpt lat="48.51353" lon="7.12346">
        <ele>490.56842</ele>
        <time>2022-08-08T16:09:15.000Z</time>
      </trkpt>
      <trkpt lat="48.51352" lon="7.12349">
        <ele>490.09521</ele>
        <time>2022-08-08T16:09:18.000Z</time>
      </trkpt>
      <trkpt lat="48.5135" lon="7.12352">
        <ele>489.54364</ele>
        <time>2022-08-08T16:09:21.000Z</time>
      </trkpt>
      <trkpt lat="48.5135" lon="7.12355">
        <ele>489.08258</ele>
        <time>2022-08-08T16:09:23.000Z</time>
      </trkpt>
      <trkpt lat="48.51349" lon="7.12359">
        <ele>488.47479</ele>
        <time>2022-08-08T16:09:25.000Z</time>
      </trkpt>
      <trkpt lat="48.51348" lon="7.12362">
        <ele>487.80646</ele>
        <time>2022-08-08T16:09:26.000Z</time>
      </trkpt>
      <trkpt lat="48.51347" lon="7.12365">
        <ele>487.04404</ele>
        <time>2022-08-08T16:09:27.000Z</time>
      </trkpt>
      <trkpt lat="48.51346" lon="7.12368">
        <ele>486.34937</ele>
        <time>2022-08-08T16:09:29.000Z</time>
      </trkpt>
      <trkpt lat="48.51345" lon="7.1237">
        <ele>485.67719</ele>
        <time>2022-08-08T16:09:31.000Z</time>
      </trkpt>
      <trkpt lat="48.51343" lon="7.12372">
        <ele>485.07925</ele>
        <time>2022-08-08T16:09:33.000Z</time>
      </trkpt>
      <trkpt lat="48.51342" lon="7.12376">
        <ele>484.49136</ele>
        <time>2022-08-08T16:09:35.000Z</time>
      </trkpt>
      <trkpt lat="48.51341" lon="7.12381">
        <ele>483.92203</ele>
        <time>2022-08-08T16:09:38.000Z</time>
      </trkpt>
      <trkpt lat="48.5134" lon="7.12385">
        <ele>483.57632</ele>
        <time>2022-08-08T16:09:40.000Z</time>
      </trkpt>
      <trkpt lat="48.51339" lon="7.12389">
        <ele>483.28082</ele>
        <time>2022-08-08T16:09:42.000Z</time>
      </trkpt>
      <trkpt lat="48.51339" lon="7.12394">
        <ele>483.07675</ele>
        <time>2022-08-08T16:09:45.000Z</time>
      </trkpt>
      <trkpt lat="48.51339" lon="7.12397">
        <ele>483.09521</ele>
        <time>2022-08-08T16:09:48.000Z</time>
      </trkpt>
      <trkpt lat="48.51339" lon="7.124">
        <ele>483.21924</ele>
        <time>2022-08-08T16:09:50.000Z</time>
      </trkpt>
      <trkpt lat="48.51338" lon="7.12403">
        <ele>483.49243</ele>
        <time>2022-08-08T16:09:51.000Z</time>
      </trkpt>
      <trkpt lat="48.51338" lon="7.12408">
        <ele>483.82901</ele>
        <time>2022-08-08T16:09:53.000Z</time>
      </trkpt>
      <trkpt lat="48.51338" lon="7.12411">
        <ele>484.22955</ele>
        <time>2022-08-08T16:09:55.000Z</time>
      </trkpt>
      <trkpt lat="48.51337" lon="7.12415">
        <ele>484.48346</ele>
        <time>2022-08-08T16:09:58.000Z</time>
      </trkpt>
      <trkpt lat="48.51337" lon="7.12419">
        <ele>484.63867</ele>
        <time>2022-08-08T16:10:00.000Z</time>
      </trkpt>
      <trkpt lat="48.51336" lon="7.12423">
        <ele>484.87949</ele>
        <time>2022-08-08T16:10:02.000Z</time>
      </trkpt>
      <trkpt lat="48.51336" lon="7.12427">
        <ele>485.09003</ele>
        <time>2022-08-08T16:10:04.000Z</time>
      </trkpt>
      <trkpt lat="48.51336" lon="7.1243">
        <ele>485.45758</ele>
        <time>2022-08-08T16:10:06.000Z</time>
      </trkpt>
      <trkpt lat="48.51336" lon="7.12434">
        <ele>485.94122</ele>
        <time>2022-08-08T16:10:09.000Z</time>
      </trkpt>
      <trkpt lat="48.51336" lon="7.12437">
        <ele>486.55948</ele>
        <time>2022-08-08T16:10:11.000Z</time>
      </trkpt>
      <trkpt lat="48.51335" lon="7.1244">
        <ele>487.10931</ele>
        <time>2022-08-08T16:10:13.000Z</time>
      </trkpt>
      <trkpt lat="48.51335" lon="7.12444">
        <ele>487.71112</ele>
        <time>2022-08-08T16:10:15.000Z</time>
      </trkpt>
      <trkpt lat="48.51336" lon="7.12447">
        <ele>488.29037</ele>
        <time>2022-08-08T16:10:17.000Z</time>
      </trkpt>
      <trkpt lat="48.51337" lon="7.1245">
        <ele>488.89789</ele>
        <time>2022-08-08T16:10:19.000Z</time>
      </trkpt>
      <trkpt lat="48.51337" lon="7.12454">
        <ele>489.65958</ele>
        <time>2022-08-08T16:10:21.000Z</time>
      </trkpt>
      <trkpt lat="48.51338" lon="7.12458">
        <ele>490.41144</ele>
        <time>2022-08-08T16:10:23.000Z</time>
      </trkpt>
      <trkpt lat="48.51339" lon="7.12461">
        <ele>491.23895</ele>
        <time>2022-08-08T16:10:25.000Z</time>
      </trkpt>
      <trkpt lat="48.51339" lon="7.12463">
        <ele>492.08447</ele>
        <time>2022-08-08T16:10:27.000Z</time>
      </trkpt>
      <trkpt lat="48.5134" lon="7.12467">
        <ele>492.88593</ele>
        <time>2022-08-08T16:10:29.000Z</time>
      </trkpt>
      <trkpt lat="48.51341" lon="7.12471">
        <ele>493.75519</ele>
        <time>2022-08-08T16:10:31.000Z</time>
      </trkpt>
      <trkpt lat="48.51341" lon="7.12474">
        <ele>494.5882</ele>
        <time>2022-08-08T16:10:33.000Z</time>
      </trkpt>
      <trkpt lat="48.51342" lon="7.12477">
        <ele>495.55219</ele>
        <time>2022-08-08T16:10:35.000Z</time>
      </trkpt>
      <trkpt lat="48.51343" lon="7.1248">
        <ele>496.52802</ele>
        <time>2022-08-08T16:10:37.000Z</time>
      </trkpt>
      <trkpt lat="48.51343" lon="7.12484">
        <ele>497.45801</ele>
        <time>2022-08-08T16:10:39.000Z</time>
      </trkpt>
      <trkpt lat="48.51343" lon="7.12487">
        <ele>498.34775</ele>
        <time>2022-08-08T16:10:41.000Z</time>
      </trkpt>
      <trkpt lat="48.51343" lon="7.1249">
        <ele>499.25992</ele>
        <time>2022-08-08T16:10:43.000Z</time>
      </trkpt>
      <trkpt lat="48.51344" lon="7.12495">
        <ele>500.31958</ele>
        <time>2022-08-08T16:10:44.000Z</time>
      </trkpt>
      <trkpt lat="48.51346" lon="7.12498">
        <ele>501.53549</ele>
        <time>2022-08-08T16:10:45.000Z</time>
      </trkpt>
      <trkpt lat="48.51348" lon="7.12503">
        <ele>502.77286</ele>
        <time>2022-08-08T16:10:47.000Z</time>
      </trkpt>
      <trkpt lat="48.51349" lon="7.12507">
        <ele>503.91644</ele>
        <time>2022-08-08T16:10:48.000Z</time>
      </trkpt>
      <trkpt lat="48.51351" lon="7.12512">
        <ele>505.08868</ele>
        <time>2022-08-08T16:10:49.000Z</time>
      </trkpt>
      <trkpt lat="48.51352" lon="7.12518">
        <ele>506.21503</ele>
        <time>2022-08-08T16:10:50.000Z</time>
      </trkpt>
      <trkpt lat="48.51354" lon="7.12524">
        <ele>507.29492</ele>
        <time>2022-08-08T16:10:51.000Z</time>
      </trkpt>
      <trkpt lat="48.51356" lon="7.12529">
        <ele>508.32803</ele>
        <time>2022-08-08T16:10:52.000Z</time>
      </trkpt>
      <trkpt lat="48.51357" lon="7.12534">
        <ele>509.30435</ele>
        <time>2022-08-08T16:10:53.000Z</time>
      </trkpt>
      <trkpt lat="48.51358" lon="7.12539">
        <ele>510.31415</ele>
        <time>2022-08-08T16:10:54.000Z</time>
      </trkpt>
      <trkpt lat="48.51359" lon="7.12545">
        <ele>511.27563</ele>
        <time>2022-08-08T16:10:55.000Z</time>
      </trkpt>
      <trkpt lat="48.51361" lon="7.12551">
        <ele>512.22253</ele>
        <time>2022-08-08T16:10:56.000Z</time>
      </trkpt>
      <trkpt lat="48.51363" lon="7.12555">
        <ele>512.96265</ele>
        <time>2022-08-08T16:10:57.000Z</time>
      </trkpt>
      <trkpt lat="48.51365" lon="7.12561">
        <ele>513.5473</ele>
        <time>2022-08-08T16:10:58.000Z</time>
      </trkpt>
      <trkpt lat="48.51367" lon="7.12568">
        <ele>514.18433</ele>
        <time>2022-08-08T16:10:59.000Z</time>
      </trkpt>
      <trkpt lat="48.51369" lon="7.12574">
        <ele>514.7486</ele>
        <time>2022-08-08T16:11:00.000Z</time>
      </trkpt>
      <trkpt lat="48.5137" lon="7.1258">
        <ele>515.17511</ele>
        <time>2022-08-08T16:11:01.000Z</time>
      </trkpt>
      <trkpt lat="48.5137" lon="7.12586">
        <ele>515.55945</ele>
        <time>2022-08-08T16:11:02.000Z</time>
      </trkpt>
      <trkpt lat="48.51371" lon="7.12591">
        <ele>515.95612</ele>
        <time>2022-08-08T16:11:03.000Z</time>
      </trkpt>
      <trkpt lat="48.51373" lon="7.12595">
        <ele>516.36322</ele>
        <time>2022-08-08T16:11:04.000Z</time>
      </trkpt>
      <trkpt lat="48.51373" lon="7.12599">
        <ele>516.63306</ele>
        <time>2022-08-08T16:11:05.000Z</time>
      </trkpt>
      <trkpt lat="48.51374" lon="7.12605">
        <ele>516.7655</ele>
        <time>2022-08-08T16:11:06.000Z</time>
      </trkpt>
      <trkpt lat="48.51375" lon="7.1261">
        <ele>516.78625</ele>
        <time>2022-08-08T16:11:07.000Z</time>
      </trkpt>
      <trkpt lat="48.51376" lon="7.12617">
        <ele>516.79919</ele>
        <time>2022-08-08T16:11:08.000Z</time>
      </trkpt>
      <trkpt lat="48.51377" lon="7.12623">
        <ele>516.80225</ele>
        <time>2022-08-08T16:11:09.000Z</time>
      </trkpt>
      <trkpt lat="48.51378" lon="7.12626">
        <ele>516.84637</ele>
        <time>2022-08-08T16:11:10.000Z</time>
      </trkpt>
      <trkpt lat="48.51378" lon="7.1263">
        <ele>516.90143</ele>
        <time>2022-08-08T16:11:11.000Z</time>
      </trkpt>
      <trkpt lat="48.5138" lon="7.12634">
        <ele>517.01404</ele>
        <time>2022-08-08T16:11:12.000Z</time>
      </trkpt>
      <trkpt lat="48.51382" lon="7.1264">
        <ele>517.14148</ele>
        <time>2022-08-08T16:11:13.000Z</time>
      </trkpt>
      <trkpt lat="48.51383" lon="7.12645">
        <ele>517.22711</ele>
        <time>2022-08-08T16:11:14.000Z</time>
      </trkpt>
      <trkpt lat="48.51385" lon="7.12651">
        <ele>517.34216</ele>
        <time>2022-08-08T16:11:15.000Z</time>
      </trkpt>
      <trkpt lat="48.5139" lon="7.12662">
        <ele>517.46692</ele>
        <time>2022-08-08T16:11:17.000Z</time>
      </trkpt>
      <trkpt lat="48.51392" lon="7.12666">
        <ele>517.73041</ele>
        <time>2022-08-08T16:11:18.000Z</time>
      </trkpt>
      <trkpt lat="48.51394" lon="7.12669">
        <ele>518.07385</ele>
        <time>2022-08-08T16:11:19.000Z</time>
      </trkpt>
      <trkpt lat="48.51395" lon="7.12674">
        <ele>518.39734</ele>
        <time>2022-08-08T16:11:20.000Z</time>
      </trkpt>
      <trkpt lat="48.51397" lon="7.12678">
        <ele>518.74884</ele>
        <time>2022-08-08T16:11:21.000Z</time>
      </trkpt>
      <trkpt lat="48.51399" lon="7.12682">
        <ele>519.13904</ele>
        <time>2022-08-08T16:11:22.000Z</time>
      </trkpt>
      <trkpt lat="48.51401" lon="7.12686">
        <ele>519.61896</ele>
        <time>2022-08-08T16:11:23.000Z</time>
      </trkpt>
      <trkpt lat="48.51403" lon="7.12691">
        <ele>520.18164</ele>
        <time>2022-08-08T16:11:24.000Z</time>
      </trkpt>
      <trkpt lat="48.51404" lon="7.12695">
        <ele>520.60651</ele>
        <time>2022-08-08T16:11:25.000Z</time>
      </trkpt>
      <trkpt lat="48.51407" lon="7.127">
        <ele>521.03723</ele>
        <time>2022-08-08T16:11:26.000Z</time>
      </trkpt>
      <trkpt lat="48.51408" lon="7.12703">
        <ele>521.45526</ele>
        <time>2022-08-08T16:11:27.000Z</time>
      </trkpt>
      <trkpt lat="48.51409" lon="7.12706">
        <ele>521.88147</ele>
        <time>2022-08-08T16:11:28.000Z</time>
      </trkpt>
      <trkpt lat="48.51409" lon="7.12709">
        <ele>522.37482</ele>
        <time>2022-08-08T16:11:29.000Z</time>
      </trkpt>
      <trkpt lat="48.5141" lon="7.12714">
        <ele>522.8587</ele>
        <time>2022-08-08T16:11:31.000Z</time>
      </trkpt>
      <trkpt lat="48.5141" lon="7.12717">
        <ele>523.30774</ele>
        <time>2022-08-08T16:11:32.000Z</time>
      </trkpt>
      <trkpt lat="48.51411" lon="7.12722">
        <ele>523.75293</ele>
        <time>2022-08-08T16:11:34.000Z</time>
      </trkpt>
      <trkpt lat="48.51413" lon="7.12724">
        <ele>524.17706</ele>
        <time>2022-08-08T16:11:35.000Z</time>
      </trkpt>
      <trkpt lat="48.51414" lon="7.12727">
        <ele>524.60803</ele>
        <time>2022-08-08T16:11:36.000Z</time>
      </trkpt>
      <trkpt lat="48.51414" lon="7.12731">
        <ele>525.09583</ele>
        <time>2022-08-08T16:11:37.000Z</time>
      </trkpt>
      <trkpt lat="48.51415" lon="7.12737">
        <ele>525.50079</ele>
        <time>2022-08-08T16:11:38.000Z</time>
      </trkpt>
      <trkpt lat="48.51415" lon="7.12742">
        <ele>525.92981</ele>
        <time>2022-08-08T16:11:39.000Z</time>
      </trkpt>
      <trkpt lat="48.51416" lon="7.12748">
        <ele>526.37024</ele>
        <time>2022-08-08T16:11:40.000Z</time>
      </trkpt>
      <trkpt lat="48.51416" lon="7.12753">
        <ele>526.78003</ele>
        <time>2022-08-08T16:11:41.000Z</time>
      </trkpt>
      <trkpt lat="48.51416" lon="7.12758">
        <ele>527.16797</ele>
        <time>2022-08-08T16:11:42.000Z</time>
      </trkpt>
      <trkpt lat="48.51416" lon="7.12762">
        <ele>527.54419</ele>
        <time>2022-08-08T16:11:43.000Z</time>
      </trkpt>
      <trkpt lat="48.51415" lon="7.12766">
        <ele>527.92249</ele>
        <time>2022-08-08T16:11:44.000Z</time>
      </trkpt>
      <trkpt lat="48.51414" lon="7.1277">
        <ele>528.20886</ele>
        <time>2022-08-08T16:11:45.000Z</time>
      </trkpt>
      <trkpt lat="48.51414" lon="7.12773">
        <ele>528.33429</ele>
        <time>2022-08-08T16:11:46.000Z</time>
      </trkpt>
      <trkpt lat="48.51413" lon="7.12776">
        <ele>528.47467</ele>
        <time>2022-08-08T16:11:47.000Z</time>
      </trkpt>
      <trkpt lat="48.51413" lon="7.12779">
        <ele>528.53308</ele>
        <time>2022-08-08T16:11:48.000Z</time>
      </trkpt>
      <trkpt lat="48.51413" lon="7.12782">
        <ele>528.66266</ele>
        <time>2022-08-08T16:11:49.000Z</time>
      </trkpt>
      <trkpt lat="48.51412" lon="7.12786">
        <ele>528.76233</ele>
        <time>2022-08-08T16:11:51.000Z</time>
      </trkpt>
      <trkpt lat="48.51412" lon="7.1279">
        <ele>528.9585</ele>
        <time>2022-08-08T16:11:54.000Z</time>
      </trkpt>
      <trkpt lat="48.51411" lon="7.12792">
        <ele>529.15765</ele>
        <time>2022-08-08T16:11:56.000Z</time>
      </trkpt>
      <trkpt lat="48.51411" lon="7.12796">
        <ele>529.31671</ele>
        <time>2022-08-08T16:11:58.000Z</time>
      </trkpt>
      <trkpt lat="48.51409" lon="7.12798">
        <ele>529.50598</ele>
        <time>2022-08-08T16:12:00.000Z</time>
      </trkpt>
      <trkpt lat="48.51408" lon="7.12802">
        <ele>529.67468</ele>
        <time>2022-08-08T16:12:02.000Z</time>
      </trkpt>
      <trkpt lat="48.51407" lon="7.12806">
        <ele>529.86719</ele>
        <time>2022-08-08T16:12:04.000Z</time>
      </trkpt>
      <trkpt lat="48.51407" lon="7.12809">
        <ele>530.08289</ele>
        <time>2022-08-08T16:12:06.000Z</time>
      </trkpt>
      <trkpt lat="48.51406" lon="7.12811">
        <ele>530.39728</ele>
        <time>2022-08-08T16:12:08.000Z</time>
      </trkpt>
      <trkpt lat="48.51404" lon="7.12814">
        <ele>530.68121</ele>
        <time>2022-08-08T16:12:10.000Z</time>
      </trkpt>
      <trkpt lat="48.51403" lon="7.12817">
        <ele>531.04083</ele>
        <time>2022-08-08T16:12:12.000Z</time>
      </trkpt>
      <trkpt lat="48.51402" lon="7.1282">
        <ele>531.44135</ele>
        <time>2022-08-08T16:12:14.000Z</time>
      </trkpt>
      <trkpt lat="48.51401" lon="7.12824">
        <ele>531.79333</ele>
        <time>2022-08-08T16:12:16.000Z</time>
      </trkpt>
      <trkpt lat="48.514" lon="7.12827">
        <ele>532.08826</ele>
        <time>2022-08-08T16:12:17.000Z</time>
      </trkpt>
      <trkpt lat="48.51399" lon="7.12831">
        <ele>532.40302</ele>
        <time>2022-08-08T16:12:19.000Z</time>
      </trkpt>
      <trkpt lat="48.51398" lon="7.12835">
        <ele>532.8432</ele>
        <time>2022-08-08T16:12:21.000Z</time>
      </trkpt>
      <trkpt lat="48.51397" lon="7.12838">
        <ele>533.43451</ele>
        <time>2022-08-08T16:12:23.000Z</time>
      </trkpt>
      <trkpt lat="48.51396" lon="7.12841">
        <ele>534.08899</ele>
        <time>2022-08-08T16:12:25.000Z</time>
      </trkpt>
      <trkpt lat="48.51395" lon="7.12844">
        <ele>534.89148</ele>
        <time>2022-08-08T16:12:27.000Z</time>
      </trkpt>
      <trkpt lat="48.51393" lon="7.12848">
        <ele>535.57465</ele>
        <time>2022-08-08T16:12:29.000Z</time>
      </trkpt>
      <trkpt lat="48.51392" lon="7.12853">
        <ele>536.30188</ele>
        <time>2022-08-08T16:12:31.000Z</time>
      </trkpt>
      <trkpt lat="48.5139" lon="7.12855">
        <ele>536.88733</ele>
        <time>2022-08-08T16:12:32.000Z</time>
      </trkpt>
      <trkpt lat="48.51389" lon="7.12858">
        <ele>537.52185</ele>
        <time>2022-08-08T16:12:34.000Z</time>
      </trkpt>
      <trkpt lat="48.51388" lon="7.12862">
        <ele>538.13794</ele>
        <time>2022-08-08T16:12:36.000Z</time>
      </trkpt>
      <trkpt lat="48.51388" lon="7.12866">
        <ele>538.78558</ele>
        <time>2022-08-08T16:12:38.000Z</time>
      </trkpt>
      <trkpt lat="48.51387" lon="7.12869">
        <ele>539.42651</ele>
        <time>2022-08-08T16:12:40.000Z</time>
      </trkpt>
      <trkpt lat="48.51386" lon="7.12872">
        <ele>540.14117</ele>
        <time>2022-08-08T16:12:42.000Z</time>
      </trkpt>
      <trkpt lat="48.51385" lon="7.12875">
        <ele>540.78918</ele>
        <time>2022-08-08T16:12:44.000Z</time>
      </trkpt>
      <trkpt lat="48.51384" lon="7.12878">
        <ele>541.38733</ele>
        <time>2022-08-08T16:12:46.000Z</time>
      </trkpt>
      <trkpt lat="48.51383" lon="7.12882">
        <ele>541.97394</ele>
        <time>2022-08-08T16:12:48.000Z</time>
      </trkpt>
      <trkpt lat="48.51382" lon="7.12885">
        <ele>542.52039</ele>
        <time>2022-08-08T16:12:50.000Z</time>
      </trkpt>
      <trkpt lat="48.51381" lon="7.12888">
        <ele>543.04547</ele>
        <time>2022-08-08T16:12:52.000Z</time>
      </trkpt>
      <trkpt lat="48.5138" lon="7.12892">
        <ele>543.63214</ele>
        <time>2022-08-08T16:12:54.000Z</time>
      </trkpt>
      <trkpt lat="48.51378" lon="7.12895">
        <ele>544.32635</ele>
        <time>2022-08-08T16:12:56.000Z</time>
      </trkpt>
      <trkpt lat="48.51377" lon="7.12899">
        <ele>544.995</ele>
        <time>2022-08-08T16:12:58.000Z</time>
      </trkpt>
      <trkpt lat="48.51375" lon="7.12902">
        <ele>545.56702</ele>
        <time>2022-08-08T16:13:00.000Z</time>
      </trkpt>
      <trkpt lat="48.51374" lon="7.12903">
        <ele>545.99347</ele>
        <time>2022-08-08T16:13:01.000Z</time>
      </trkpt>
      <trkpt lat="48.51373" lon="7.12907">
        <ele>546.44177</ele>
        <time>2022-08-08T16:13:03.000Z</time>
      </trkpt>
      <trkpt lat="48.51371" lon="7.1291">
        <ele>546.85339</ele>
        <time>2022-08-08T16:13:05.000Z</time>
      </trkpt>
      <trkpt lat="48.5137" lon="7.12913">
        <ele>547.40808</ele>
        <time>2022-08-08T16:13:07.000Z</time>
      </trkpt>
      <trkpt lat="48.51369" lon="7.12917">
        <ele>547.97894</ele>
        <time>2022-08-08T16:13:09.000Z</time>
      </trkpt>
      <trkpt lat="48.51368" lon="7.1292">
        <ele>548.49786</ele>
        <time>2022-08-08T16:13:10.000Z</time>
      </trkpt>
      <trkpt lat="48.51368" lon="7.12923">
        <ele>548.92615</ele>
        <time>2022-08-08T16:13:11.000Z</time>
      </trkpt>
      <trkpt lat="48.51366" lon="7.12925">
        <ele>549.3114</ele>
        <time>2022-08-08T16:13:12.000Z</time>
      </trkpt>
      <trkpt lat="48.51365" lon="7.12928">
        <ele>549.64276</ele>
        <time>2022-08-08T16:13:14.000Z</time>
      </trkpt>
      <trkpt lat="48.51363" lon="7.12931">
        <ele>549.90637</ele>
        <time>2022-08-08T16:13:16.000Z</time>
      </trkpt>
      <trkpt lat="48.51361" lon="7.12933">
        <ele>550.06366</ele>
        <time>2022-08-08T16:13:18.000Z</time>
      </trkpt>
      <trkpt lat="48.51359" lon="7.12936">
        <ele>550.2063</ele>
        <time>2022-08-08T16:13:20.000Z</time>
      </trkpt>
      <trkpt lat="48.51357" lon="7.12939">
        <ele>550.29736</ele>
        <time>2022-08-08T16:13:22.000Z</time>
      </trkpt>
      <trkpt lat="48.51355" lon="7.12942">
        <ele>550.3183</ele>
        <time>2022-08-08T16:13:24.000Z</time>
      </trkpt>
      <trkpt lat="48.51353" lon="7.12944">
        <ele>550.33582</ele>
        <time>2022-08-08T16:13:26.000Z</time>
      </trkpt>
      <trkpt lat="48.51351" lon="7.12946">
        <ele>550.36316</ele>
        <time>2022-08-08T16:13:28.000Z</time>
      </trkpt>
      <trkpt lat="48.51349" lon="7.12948">
        <ele>550.3584</ele>
        <time>2022-08-08T16:13:30.000Z</time>
      </trkpt>
      <trkpt lat="48.51347" lon="7.1295">
        <ele>550.31091</ele>
        <time>2022-08-08T16:13:32.000Z</time>
      </trkpt>
      <trkpt lat="48.51346" lon="7.12952">
        <ele>550.28113</ele>
        <time>2022-08-08T16:13:34.000Z</time>
      </trkpt>
      <trkpt lat="48.51345" lon="7.12955">
        <ele>550.22577</ele>
        <time>2022-08-08T16:13:36.000Z</time>
      </trkpt>
      <trkpt lat="48.51343" lon="7.12957">
        <ele>550.25012</ele>
        <time>2022-08-08T16:13:38.000Z</time>
      </trkpt>
      <trkpt lat="48.51341" lon="7.12961">
        <ele>550.26508</ele>
        <time>2022-08-08T16:13:40.000Z</time>
      </trkpt>
      <trkpt lat="48.5134" lon="7.12964">
        <ele>550.27856</ele>
        <time>2022-08-08T16:13:42.000Z</time>
      </trkpt>
      <trkpt lat="48.51338" lon="7.12967">
        <ele>550.30005</ele>
        <time>2022-08-08T16:13:44.000Z</time>
      </trkpt>
      <trkpt lat="48.51338" lon="7.12971">
        <ele>550.30042</ele>
        <time>2022-08-08T16:13:46.000Z</time>
      </trkpt>
      <trkpt lat="48.51337" lon="7.12975">
        <ele>550.43561</ele>
        <time>2022-08-08T16:13:48.000Z</time>
      </trkpt>
      <trkpt lat="48.51336" lon="7.1298">
        <ele>550.54218</ele>
        <time>2022-08-08T16:13:50.000Z</time>
      </trkpt>
      <trkpt lat="48.51336" lon="7.12984">
        <ele>550.72723</ele>
        <time>2022-08-08T16:13:52.000Z</time>
      </trkpt>
      <trkpt lat="48.51336" lon="7.12987">
        <ele>550.92615</ele>
        <time>2022-08-08T16:13:54.000Z</time>
      </trkpt>
      <trkpt lat="48.51335" lon="7.1299">
        <ele>551.22754</ele>
        <time>2022-08-08T16:13:56.000Z</time>
      </trkpt>
      <trkpt lat="48.51334" lon="7.12993">
        <ele>551.51288</ele>
        <time>2022-08-08T16:13:58.000Z</time>
      </trkpt>
      <trkpt lat="48.51332" lon="7.12996">
        <ele>551.86536</ele>
        <time>2022-08-08T16:14:00.000Z</time>
      </trkpt>
      <trkpt lat="48.51332" lon="7.13">
        <ele>552.31866</ele>
        <time>2022-08-08T16:14:02.000Z</time>
      </trkpt>
      <trkpt lat="48.51333" lon="7.13003">
        <ele>552.85541</ele>
        <time>2022-08-08T16:14:03.000Z</time>
      </trkpt>
      <trkpt lat="48.51332" lon="7.13005">
        <ele>553.35651</ele>
        <time>2022-08-08T16:14:04.000Z</time>
      </trkpt>
      <trkpt lat="48.51332" lon="7.13008">
        <ele>553.80188</ele>
        <time>2022-08-08T16:14:05.000Z</time>
      </trkpt>
      <trkpt lat="48.51332" lon="7.13012">
        <ele>554.23438</ele>
        <time>2022-08-08T16:14:06.000Z</time>
      </trkpt>
      <trkpt lat="48.51331" lon="7.13015">
        <ele>554.65588</ele>
        <time>2022-08-08T16:14:08.000Z</time>
      </trkpt>
      <trkpt lat="48.5133" lon="7.13018">
        <ele>555.01013</ele>
        <time>2022-08-08T16:14:10.000Z</time>
      </trkpt>
      <trkpt lat="48.51329" lon="7.13021">
        <ele>555.41125</ele>
        <time>2022-08-08T16:14:12.000Z</time>
      </trkpt>
      <trkpt lat="48.51327" lon="7.13025">
        <ele>555.69727</ele>
        <time>2022-08-08T16:14:14.000Z</time>
      </trkpt>
      <trkpt lat="48.51326" lon="7.1303">
        <ele>555.88171</ele>
        <time>2022-08-08T16:14:16.000Z</time>
      </trkpt>
      <trkpt lat="48.51324" lon="7.13034">
        <ele>556.01477</ele>
        <time>2022-08-08T16:14:18.000Z</time>
      </trkpt>
      <trkpt lat="48.51323" lon="7.13038">
        <ele>556.13635</ele>
        <time>2022-08-08T16:14:20.000Z</time>
      </trkpt>
      <trkpt lat="48.51322" lon="7.13041">
        <ele>556.25696</ele>
        <time>2022-08-08T16:14:22.000Z</time>
      </trkpt>
      <trkpt lat="48.5132" lon="7.13046">
        <ele>556.34442</ele>
        <time>2022-08-08T16:14:24.000Z</time>
      </trkpt>
      <trkpt lat="48.51319" lon="7.13049">
        <ele>556.57581</ele>
        <time>2022-08-08T16:14:26.000Z</time>
      </trkpt>
      <trkpt lat="48.51319" lon="7.13052">
        <ele>556.74939</ele>
        <time>2022-08-08T16:14:27.000Z</time>
      </trkpt>
      <trkpt lat="48.51318" lon="7.13055">
        <ele>556.91443</ele>
        <time>2022-08-08T16:14:28.000Z</time>
      </trkpt>
      <trkpt lat="48.51318" lon="7.13058">
        <ele>556.974</ele>
        <time>2022-08-08T16:14:29.000Z</time>
      </trkpt>
      <trkpt lat="48.51317" lon="7.13062">
        <ele>557.11572</ele>
        <time>2022-08-08T16:14:31.000Z</time>
      </trkpt>
      <trkpt lat="48.51316" lon="7.13065">
        <ele>557.14679</ele>
        <time>2022-08-08T16:14:33.000Z</time>
      </trkpt>
      <trkpt lat="48.51316" lon="7.13068">
        <ele>557.1687</ele>
        <time>2022-08-08T16:14:35.000Z</time>
      </trkpt>
      <trkpt lat="48.51316" lon="7.13072">
        <ele>557.21667</ele>
        <time>2022-08-08T16:14:37.000Z</time>
      </trkpt>
      <trkpt lat="48.51317" lon="7.13076">
        <ele>557.33337</ele>
        <time>2022-08-08T16:14:39.000Z</time>
      </trkpt>
      <trkpt lat="48.51317" lon="7.13079">
        <ele>557.45154</ele>
        <time>2022-08-08T16:14:41.000Z</time>
      </trkpt>
      <trkpt lat="48.51317" lon="7.13083">
        <ele>557.64856</ele>
        <time>2022-08-08T16:14:43.000Z</time>
      </trkpt>
      <trkpt lat="48.51317" lon="7.13087">
        <ele>557.91614</ele>
        <time>2022-08-08T16:14:45.000Z</time>
      </trkpt>
      <trkpt lat="48.51318" lon="7.13091">
        <ele>558.22906</ele>
        <time>2022-08-08T16:14:47.000Z</time>
      </trkpt>
      <trkpt lat="48.51319" lon="7.13094">
        <ele>558.52954</ele>
        <time>2022-08-08T16:14:49.000Z</time>
      </trkpt>
      <trkpt lat="48.51319" lon="7.13098">
        <ele>558.90454</ele>
        <time>2022-08-08T16:14:51.000Z</time>
      </trkpt>
      <trkpt lat="48.51319" lon="7.13101">
        <ele>559.289</ele>
        <time>2022-08-08T16:14:52.000Z</time>
      </trkpt>
      <trkpt lat="48.5132" lon="7.13106">
        <ele>559.67749</ele>
        <time>2022-08-08T16:14:54.000Z</time>
      </trkpt>
      <trkpt lat="48.51321" lon="7.13111">
        <ele>559.90906</ele>
        <time>2022-08-08T16:14:56.000Z</time>
      </trkpt>
      <trkpt lat="48.51321" lon="7.13119">
        <ele>560.03918</ele>
        <time>2022-08-08T16:14:59.000Z</time>
      </trkpt>
      <trkpt lat="48.51321" lon="7.13122">
        <ele>560.08392</ele>
        <time>2022-08-08T16:15:00.000Z</time>
      </trkpt>
      <trkpt lat="48.5132" lon="7.13127">
        <ele>560.01746</ele>
        <time>2022-08-08T16:15:02.000Z</time>
      </trkpt>
      <trkpt lat="48.5132" lon="7.13131">
        <ele>559.9278</ele>
        <time>2022-08-08T16:15:04.000Z</time>
      </trkpt>
      <trkpt lat="48.51318" lon="7.13129">
        <ele>559.87128</ele>
        <time>2022-08-08T16:15:12.000Z</time>
      </trkpt>
      <trkpt lat="48.51316" lon="7.13131">
        <ele>559.76746</ele>
        <time>2022-08-08T16:15:52.000Z</time>
      </trkpt>
      <trkpt lat="48.51318" lon="7.13129">
        <ele>559.75287</ele>
        <time>2022-08-08T16:15:55.000Z</time>
      </trkpt>
      <trkpt lat="48.51321" lon="7.13131">
        <ele>559.77118</ele>
        <time>2022-08-08T16:15:56.000Z</time>
      </trkpt>
      <trkpt lat="48.5132" lon="7.13133">
        <ele>559.79547</ele>
        <time>2022-08-08T16:16:01.000Z</time>
      </trkpt>
      <trkpt lat="48.5132" lon="7.13137">
        <ele>559.71356</ele>
        <time>2022-08-08T16:16:03.000Z</time>
      </trkpt>
      <trkpt lat="48.5132" lon="7.1314">
        <ele>559.57953</ele>
        <time>2022-08-08T16:16:05.000Z</time>
      </trkpt>
      <trkpt lat="48.5132" lon="7.13143">
        <ele>559.56116</ele>
        <time>2022-08-08T16:16:07.000Z</time>
      </trkpt>
      <trkpt lat="48.51319" lon="7.13147">
        <ele>559.54559</ele>
        <time>2022-08-08T16:16:10.000Z</time>
      </trkpt>
      <trkpt lat="48.51321" lon="7.13149">
        <ele>559.51758</ele>
        <time>2022-08-08T16:16:13.000Z</time>
      </trkpt>
      <trkpt lat="48.51322" lon="7.13154">
        <ele>559.51819</ele>
        <time>2022-08-08T16:16:16.000Z</time>
      </trkpt>
      <trkpt lat="48.51322" lon="7.13159">
        <ele>559.59277</ele>
        <time>2022-08-08T16:16:18.000Z</time>
      </trkpt>
      <trkpt lat="48.51322" lon="7.13162">
        <ele>559.71692</ele>
        <time>2022-08-08T16:16:20.000Z</time>
      </trkpt>
      <trkpt lat="48.51322" lon="7.13165">
        <ele>559.96417</ele>
        <time>2022-08-08T16:16:22.000Z</time>
      </trkpt>
      <trkpt lat="48.51321" lon="7.13169">
        <ele>560.42548</ele>
        <time>2022-08-08T16:16:25.000Z</time>
      </trkpt>
      <trkpt lat="48.5132" lon="7.13172">
        <ele>561.08887</ele>
        <time>2022-08-08T16:16:27.000Z</time>
      </trkpt>
      <trkpt lat="48.51319" lon="7.13174">
        <ele>561.91315</ele>
        <time>2022-08-08T16:16:29.000Z</time>
      </trkpt>
      <trkpt lat="48.51319" lon="7.13178">
        <ele>562.8125</ele>
        <time>2022-08-08T16:16:31.000Z</time>
      </trkpt>
      <trkpt lat="48.51318" lon="7.13182">
        <ele>563.6734</ele>
        <time>2022-08-08T16:16:33.000Z</time>
      </trkpt>
      <trkpt lat="48.51317" lon="7.13186">
        <ele>564.62299</ele>
        <time>2022-08-08T16:16:35.000Z</time>
      </trkpt>
      <trkpt lat="48.51316" lon="7.1319">
        <ele>565.53015</ele>
        <time>2022-08-08T16:16:37.000Z</time>
      </trkpt>
      <trkpt lat="48.51314" lon="7.13192">
        <ele>566.58197</ele>
        <time>2022-08-08T16:16:39.000Z</time>
      </trkpt>
      <trkpt lat="48.51313" lon="7.13195">
        <ele>567.5506</ele>
        <time>2022-08-08T16:16:41.000Z</time>
      </trkpt>
      <trkpt lat="48.5131" lon="7.13198">
        <ele>568.63757</ele>
        <time>2022-08-08T16:16:45.000Z</time>
      </trkpt>
      <trkpt lat="48.51308" lon="7.13199">
        <ele>569.74835</ele>
        <time>2022-08-08T16:16:47.000Z</time>
      </trkpt>
      <trkpt lat="48.51306" lon="7.13198">
        <ele>570.94153</ele>
        <time>2022-08-08T16:16:49.000Z</time>
      </trkpt>
      <trkpt lat="48.51304" lon="7.13197">
        <ele>572.15308</ele>
        <time>2022-08-08T16:16:52.000Z</time>
      </trkpt>
      <trkpt lat="48.51302" lon="7.13197">
        <ele>573.27246</ele>
        <time>2022-08-08T16:16:54.000Z</time>
      </trkpt>
      <trkpt lat="48.51299" lon="7.13193">
        <ele>574.43396</ele>
        <time>2022-08-08T16:16:57.000Z</time>
      </trkpt>
      <trkpt lat="48.51297" lon="7.13191">
        <ele>575.61359</ele>
        <time>2022-08-08T16:16:59.000Z</time>
      </trkpt>
      <trkpt lat="48.51295" lon="7.1319">
        <ele>576.77319</ele>
        <time>2022-08-08T16:17:01.000Z</time>
      </trkpt>
      <trkpt lat="48.51293" lon="7.13188">
        <ele>577.86902</ele>
        <time>2022-08-08T16:17:03.000Z</time>
      </trkpt>
      <trkpt lat="48.51291" lon="7.13184">
        <ele>579.06915</ele>
        <time>2022-08-08T16:17:06.000Z</time>
      </trkpt>
      <trkpt lat="48.51289" lon="7.13182">
        <ele>580.1535</ele>
        <time>2022-08-08T16:17:08.000Z</time>
      </trkpt>
      <trkpt lat="48.51286" lon="7.13179">
        <ele>580.89832</ele>
        <time>2022-08-08T16:17:10.000Z</time>
      </trkpt>
      <trkpt lat="48.51284" lon="7.13177">
        <ele>581.5412</ele>
        <time>2022-08-08T16:17:12.000Z</time>
      </trkpt>
      <trkpt lat="48.51283" lon="7.13176">
        <ele>582.11768</ele>
        <time>2022-08-08T16:17:14.000Z</time>
      </trkpt>
      <trkpt lat="48.51281" lon="7.13173">
        <ele>582.68787</ele>
        <time>2022-08-08T16:17:16.000Z</time>
      </trkpt>
      <trkpt lat="48.51279" lon="7.13171">
        <ele>583.32849</ele>
        <time>2022-08-08T16:17:18.000Z</time>
      </trkpt>
      <trkpt lat="48.51277" lon="7.1317">
        <ele>583.97522</ele>
        <time>2022-08-08T16:17:20.000Z</time>
      </trkpt>
      <trkpt lat="48.51275" lon="7.13169">
        <ele>584.60022</ele>
        <time>2022-08-08T16:17:22.000Z</time>
      </trkpt>
      <trkpt lat="48.51272" lon="7.13169">
        <ele>585.25177</ele>
        <time>2022-08-08T16:17:25.000Z</time>
      </trkpt>
      <trkpt lat="48.51271" lon="7.1317">
        <ele>585.91101</ele>
        <time>2022-08-08T16:17:28.000Z</time>
      </trkpt>
      <trkpt lat="48.51267" lon="7.13172">
        <ele>586.32916</ele>
        <time>2022-08-08T16:17:31.000Z</time>
      </trkpt>
      <trkpt lat="48.51269" lon="7.13169">
        <ele>586.72565</ele>
        <time>2022-08-08T16:17:34.000Z</time>
      </trkpt>
      <trkpt lat="48.51267" lon="7.1317">
        <ele>587.14063</ele>
        <time>2022-08-08T16:17:37.000Z</time>
      </trkpt>
      <trkpt lat="48.51265" lon="7.13171">
        <ele>587.58044</ele>
        <time>2022-08-08T16:17:40.000Z</time>
      </trkpt>
      <trkpt lat="48.51262" lon="7.13173">
        <ele>588.09558</ele>
        <time>2022-08-08T16:17:42.000Z</time>
      </trkpt>
      <trkpt lat="48.51259" lon="7.13174">
        <ele>588.54761</ele>
        <time>2022-08-08T16:17:44.000Z</time>
      </trkpt>
      <trkpt lat="48.51257" lon="7.13175">
        <ele>588.77417</ele>
        <time>2022-08-08T16:17:46.000Z</time>
      </trkpt>
      <trkpt lat="48.51255" lon="7.13179">
        <ele>588.91858</ele>
        <time>2022-08-08T16:17:48.000Z</time>
      </trkpt>
      <trkpt lat="48.51254" lon="7.13183">
        <ele>588.98907</ele>
        <time>2022-08-08T16:17:50.000Z</time>
      </trkpt>
      <trkpt lat="48.51254" lon="7.13186">
        <ele>588.87396</ele>
        <time>2022-08-08T16:17:52.000Z</time>
      </trkpt>
      <trkpt lat="48.51253" lon="7.1319">
        <ele>588.82214</ele>
        <time>2022-08-08T16:17:54.000Z</time>
      </trkpt>
      <trkpt lat="48.51252" lon="7.13192">
        <ele>588.91345</ele>
        <time>2022-08-08T16:17:56.000Z</time>
      </trkpt>
      <trkpt lat="48.51251" lon="7.13195">
        <ele>588.95026</ele>
        <time>2022-08-08T16:17:58.000Z</time>
      </trkpt>
      <trkpt lat="48.51251" lon="7.13199">
        <ele>588.93884</ele>
        <time>2022-08-08T16:18:00.000Z</time>
      </trkpt>
      <trkpt lat="48.5125" lon="7.13202">
        <ele>588.92505</ele>
        <time>2022-08-08T16:18:02.000Z</time>
      </trkpt>
      <trkpt lat="48.51252" lon="7.13204">
        <ele>589.01379</ele>
        <time>2022-08-08T16:18:07.000Z</time>
      </trkpt>
      <trkpt lat="48.51252" lon="7.13207">
        <ele>589.11414</ele>
        <time>2022-08-08T16:18:13.000Z</time>
      </trkpt>
      <trkpt lat="48.51253" lon="7.1321">
        <ele>589.40497</ele>
        <time>2022-08-08T16:19:55.000Z</time>
      </trkpt>
      <trkpt lat="48.51251" lon="7.13212">
        <ele>589.5462</ele>
        <time>2022-08-08T16:19:56.000Z</time>
      </trkpt>
      <trkpt lat="48.51249" lon="7.13212">
        <ele>589.60736</ele>
        <time>2022-08-08T16:19:58.000Z</time>
      </trkpt>
      <trkpt lat="48.51246" lon="7.13211">
        <ele>589.74878</ele>
        <time>2022-08-08T16:20:01.000Z</time>
      </trkpt>
      <trkpt lat="48.51243" lon="7.13211">
        <ele>589.83582</ele>
        <time>2022-08-08T16:20:18.000Z</time>
      </trkpt>
      <trkpt lat="48.51242" lon="7.13209">
        <ele>589.85547</ele>
        <time>2022-08-08T16:20:20.000Z</time>
      </trkpt>
      <trkpt lat="48.5124" lon="7.1321">
        <ele>589.76233</ele>
        <time>2022-08-08T16:20:22.000Z</time>
      </trkpt>
      <trkpt lat="48.51239" lon="7.13212">
        <ele>589.58557</ele>
        <time>2022-08-08T16:20:32.000Z</time>
      </trkpt>
      <trkpt lat="48.51238" lon="7.13214">
        <ele>589.43781</ele>
        <time>2022-08-08T16:20:34.000Z</time>
      </trkpt>
      <trkpt lat="48.51238" lon="7.13218">
        <ele>589.46381</ele>
        <time>2022-08-08T16:20:37.000Z</time>
      </trkpt>
      <trkpt lat="48.51234" lon="7.13219">
        <ele>589.49567</ele>
        <time>2022-08-08T16:20:41.000Z</time>
      </trkpt>
      <trkpt lat="48.51235" lon="7.13216">
        <ele>589.78528</ele>
        <time>2022-08-08T16:21:04.000Z</time>
      </trkpt>
      <trkpt lat="48.51238" lon="7.13214">
        <ele>590.28632</ele>
        <time>2022-08-08T16:21:47.000Z</time>
      </trkpt>
      <trkpt lat="48.51236" lon="7.13214">
        <ele>590.74463</ele>
        <time>2022-08-08T16:21:54.000Z</time>
      </trkpt>
      <trkpt lat="48.51234" lon="7.13213">
        <ele>591.16663</ele>
        <time>2022-08-08T16:21:57.000Z</time>
      </trkpt>
      <trkpt lat="48.51234" lon="7.13209">
        <ele>591.76996</ele>
        <time>2022-08-08T16:22:03.000Z</time>
      </trkpt>
      <trkpt lat="48.51235" lon="7.13207">
        <ele>592.46521</ele>
        <time>2022-08-08T16:22:04.000Z</time>
      </trkpt>
      <trkpt lat="48.51237" lon="7.13209">
        <ele>593.21466</ele>
        <time>2022-08-08T16:22:31.000Z</time>
      </trkpt>
      <trkpt lat="48.51238" lon="7.13212">
        <ele>593.88116</ele>
        <time>2022-08-08T16:22:32.000Z</time>
      </trkpt>
      <trkpt lat="48.51239" lon="7.13215">
        <ele>594.62421</ele>
        <time>2022-08-08T16:22:34.000Z</time>
      </trkpt>
      <trkpt lat="48.51241" lon="7.13215">
        <ele>595.32892</ele>
        <time>2022-08-08T16:22:37.000Z</time>
      </trkpt>
      <trkpt lat="48.51243" lon="7.13215">
        <ele>596.12976</ele>
        <time>2022-08-08T16:22:40.000Z</time>
      </trkpt>
      <trkpt lat="48.51245" lon="7.13214">
        <ele>597.11011</ele>
        <time>2022-08-08T16:22:44.000Z</time>
      </trkpt>
      <trkpt lat="48.51245" lon="7.13218">
        <ele>598.12976</ele>
        <time>2022-08-08T16:22:46.000Z</time>
      </trkpt>
      <trkpt lat="48.51243" lon="7.13219">
        <ele>599.06995</ele>
        <time>2022-08-08T16:22:48.000Z</time>
      </trkpt>
      <trkpt lat="48.51242" lon="7.13216">
        <ele>599.92883</ele>
        <time>2022-08-08T16:22:49.000Z</time>
      </trkpt>
      <trkpt lat="48.51242" lon="7.13213">
        <ele>600.83899</ele>
        <time>2022-08-08T16:22:50.000Z</time>
      </trkpt>
      <trkpt lat="48.51244" lon="7.13218">
        <ele>601.6886</ele>
        <time>2022-08-08T16:22:52.000Z</time>
      </trkpt>
      <trkpt lat="48.51242" lon="7.13219">
        <ele>602.4231</ele>
        <time>2022-08-08T16:22:54.000Z</time>
      </trkpt>
      <trkpt lat="48.51242" lon="7.13224">
        <ele>603.07025</ele>
        <time>2022-08-08T16:22:56.000Z</time>
      </trkpt>
      <trkpt lat="48.51241" lon="7.13228">
        <ele>603.7337</ele>
        <time>2022-08-08T16:22:57.000Z</time>
      </trkpt>
      <trkpt lat="48.51242" lon="7.13231">
        <ele>604.19312</ele>
        <time>2022-08-08T16:22:59.000Z</time>
      </trkpt>
      <trkpt lat="48.51243" lon="7.13235">
        <ele>604.53027</ele>
        <time>2022-08-08T16:23:01.000Z</time>
      </trkpt>
      <trkpt lat="48.51244" lon="7.13239">
        <ele>604.88025</ele>
        <time>2022-08-08T16:23:03.000Z</time>
      </trkpt>
      <trkpt lat="48.51242" lon="7.13236">
        <ele>605.41205</ele>
        <time>2022-08-08T16:23:15.000Z</time>
      </trkpt>
      <trkpt lat="48.51241" lon="7.13233">
        <ele>605.85681</ele>
        <time>2022-08-08T16:23:18.000Z</time>
      </trkpt>
      <trkpt lat="48.51242" lon="7.1323">
        <ele>606.2287</ele>
        <time>2022-08-08T16:23:21.000Z</time>
      </trkpt>
      <trkpt lat="48.51247" lon="7.13232">
        <ele>606.39496</ele>
        <time>2022-08-08T16:23:25.000Z</time>
      </trkpt>
      <trkpt lat="48.51247" lon="7.13229">
        <ele>606.54468</ele>
        <time>2022-08-08T16:23:26.000Z</time>
      </trkpt>
      <trkpt lat="48.51246" lon="7.13226">
        <ele>606.65326</ele>
        <time>2022-08-08T16:23:28.000Z</time>
      </trkpt>
      <trkpt lat="48.51242" lon="7.13229">
        <ele>606.5946</ele>
        <time>2022-08-08T16:23:32.000Z</time>
      </trkpt>
      <trkpt lat="48.51243" lon="7.13232">
        <ele>606.46075</ele>
        <time>2022-08-08T16:23:35.000Z</time>
      </trkpt>
      <trkpt lat="48.51245" lon="7.13234">
        <ele>606.16394</ele>
        <time>2022-08-08T16:23:39.000Z</time>
      </trkpt>
      <trkpt lat="48.51243" lon="7.13234">
        <ele>605.65759</ele>
        <time>2022-08-08T16:23:41.000Z</time>
      </trkpt>
      <trkpt lat="48.51241" lon="7.13233">
        <ele>605.14606</ele>
        <time>2022-08-08T16:23:46.000Z</time>
      </trkpt>
      <trkpt lat="48.51239" lon="7.13231">
        <ele>604.63483</ele>
        <time>2022-08-08T16:23:50.000Z</time>
      </trkpt>
      <trkpt lat="48.5124" lon="7.13234">
        <ele>604.12146</ele>
        <time>2022-08-08T16:24:06.000Z</time>
      </trkpt>
      <trkpt lat="48.51242" lon="7.13236">
        <ele>603.64703</ele>
        <time>2022-08-08T16:24:09.000Z</time>
      </trkpt>
      <trkpt lat="48.51242" lon="7.13239">
        <ele>603.22302</ele>
        <time>2022-08-08T16:24:18.000Z</time>
      </trkpt>
      <trkpt lat="48.51241" lon="7.13242">
        <ele>602.83453</ele>
        <time>2022-08-08T16:24:20.000Z</time>
      </trkpt>
      <trkpt lat="48.51241" lon="7.13246">
        <ele>602.47974</ele>
        <time>2022-08-08T16:24:24.000Z</time>
      </trkpt>
      <trkpt lat="48.51241" lon="7.13249">
        <ele>602.22711</ele>
        <time>2022-08-08T16:24:30.000Z</time>
      </trkpt>
      <trkpt lat="48.5124" lon="7.13252">
        <ele>602.01477</ele>
        <time>2022-08-08T16:24:32.000Z</time>
      </trkpt>
      <trkpt lat="48.5124" lon="7.13255">
        <ele>601.69958</ele>
        <time>2022-08-08T16:24:38.000Z</time>
      </trkpt>
      <trkpt lat="48.51239" lon="7.13258">
        <ele>601.19348</ele>
        <time>2022-08-08T16:24:40.000Z</time>
      </trkpt>
      <trkpt lat="48.51238" lon="7.13261">
        <ele>600.59863</ele>
        <time>2022-08-08T16:24:43.000Z</time>
      </trkpt>
      <trkpt lat="48.51239" lon="7.13264">
        <ele>600.09583</ele>
        <time>2022-08-08T16:24:45.000Z</time>
      </trkpt>
      <trkpt lat="48.51239" lon="7.13268">
        <ele>599.66156</ele>
        <time>2022-08-08T16:24:48.000Z</time>
      </trkpt>
      <trkpt lat="48.51239" lon="7.13271">
        <ele>599.23474</ele>
        <time>2022-08-08T16:24:50.000Z</time>
      </trkpt>
      <trkpt lat="48.51239" lon="7.13274">
        <ele>598.67871</ele>
        <time>2022-08-08T16:24:53.000Z</time>
      </trkpt>
      <trkpt lat="48.5124" lon="7.13278">
        <ele>598.18884</ele>
        <time>2022-08-08T16:24:55.000Z</time>
      </trkpt>
      <trkpt lat="48.51241" lon="7.13282">
        <ele>597.80896</ele>
        <time>2022-08-08T16:24:58.000Z</time>
      </trkpt>
      <trkpt lat="48.51241" lon="7.13285">
        <ele>597.47955</ele>
        <time>2022-08-08T16:25:01.000Z</time>
      </trkpt>
      <trkpt lat="48.51241" lon="7.13288">
        <ele>597.51086</ele>
        <time>2022-08-08T16:25:04.000Z</time>
      </trkpt>
      <trkpt lat="48.51241" lon="7.13291">
        <ele>597.69464</ele>
        <time>2022-08-08T16:25:08.000Z</time>
      </trkpt>
      <trkpt lat="48.51242" lon="7.13295">
        <ele>598.07764</ele>
        <time>2022-08-08T16:25:11.000Z</time>
      </trkpt>
      <trkpt lat="48.51242" lon="7.13298">
        <ele>598.54846</ele>
        <time>2022-08-08T16:25:13.000Z</time>
      </trkpt>
      <trkpt lat="48.51242" lon="7.133">
        <ele>599.04749</ele>
        <time>2022-08-08T16:25:15.000Z</time>
      </trkpt>
      <trkpt lat="48.51241" lon="7.13304">
        <ele>599.58368</ele>
        <time>2022-08-08T16:25:19.000Z</time>
      </trkpt>
      <trkpt lat="48.51241" lon="7.13308">
        <ele>600.34235</ele>
        <time>2022-08-08T16:25:23.000Z</time>
      </trkpt>
      <trkpt lat="48.5124" lon="7.13311">
        <ele>601.17334</ele>
        <time>2022-08-08T16:25:25.000Z</time>
      </trkpt>
      <trkpt lat="48.5124" lon="7.13314">
        <ele>601.9256</ele>
        <time>2022-08-08T16:25:27.000Z</time>
      </trkpt>
      <trkpt lat="48.51239" lon="7.13318">
        <ele>602.66211</ele>
        <time>2022-08-08T16:25:29.000Z</time>
      </trkpt>
      <trkpt lat="48.51238" lon="7.13321">
        <ele>603.61737</ele>
        <time>2022-08-08T16:25:32.000Z</time>
      </trkpt>
      <trkpt lat="48.51237" lon="7.13325">
        <ele>604.64996</ele>
        <time>2022-08-08T16:25:34.000Z</time>
      </trkpt>
      <trkpt lat="48.51237" lon="7.13328">
        <ele>605.73676</ele>
        <time>2022-08-08T16:25:36.000Z</time>
      </trkpt>
      <trkpt lat="48.51236" lon="7.13332">
        <ele>606.66571</ele>
        <time>2022-08-08T16:25:38.000Z</time>
      </trkpt>
      <trkpt lat="48.51236" lon="7.13335">
        <ele>607.6991</ele>
        <time>2022-08-08T16:25:40.000Z</time>
      </trkpt>
      <trkpt lat="48.51237" lon="7.13338">
        <ele>608.67914</ele>
        <time>2022-08-08T16:25:42.000Z</time>
      </trkpt>
      <trkpt lat="48.51236" lon="7.1334">
        <ele>609.74921</ele>
        <time>2022-08-08T16:25:46.000Z</time>
      </trkpt>
      <trkpt lat="48.51237" lon="7.13342">
        <ele>610.83313</ele>
        <time>2022-08-08T16:25:58.000Z</time>
      </trkpt>
      <trkpt lat="48.51238" lon="7.13346">
        <ele>611.84875</ele>
        <time>2022-08-08T16:25:59.000Z</time>
      </trkpt>
      <trkpt lat="48.5124" lon="7.13349">
        <ele>612.85834</ele>
        <time>2022-08-08T16:26:01.000Z</time>
      </trkpt>
      <trkpt lat="48.5124" lon="7.13352">
        <ele>613.70856</ele>
        <time>2022-08-08T16:26:03.000Z</time>
      </trkpt>
      <trkpt lat="48.51242" lon="7.13355">
        <ele>614.49957</ele>
        <time>2022-08-08T16:26:05.000Z</time>
      </trkpt>
      <trkpt lat="48.51245" lon="7.13358">
        <ele>615.33124</ele>
        <time>2022-08-08T16:26:08.000Z</time>
      </trkpt>
      <trkpt lat="48.51247" lon="7.13358">
        <ele>616.24213</ele>
        <time>2022-08-08T16:26:10.000Z</time>
      </trkpt>
      <trkpt lat="48.51248" lon="7.13361">
        <ele>617.05487</ele>
        <time>2022-08-08T16:26:12.000Z</time>
      </trkpt>
      <trkpt lat="48.51249" lon="7.13364">
        <ele>617.79773</ele>
        <time>2022-08-08T16:26:15.000Z</time>
      </trkpt>
      <trkpt lat="48.51251" lon="7.13366">
        <ele>618.34241</ele>
        <time>2022-08-08T16:26:17.000Z</time>
      </trkpt>
      <trkpt lat="48.51253" lon="7.13368">
        <ele>618.9527</ele>
        <time>2022-08-08T16:26:19.000Z</time>
      </trkpt>
      <trkpt lat="48.51254" lon="7.1337">
        <ele>619.5636</ele>
        <time>2022-08-08T16:26:21.000Z</time>
      </trkpt>
      <trkpt lat="48.51256" lon="7.13371">
        <ele>620.23547</ele>
        <time>2022-08-08T16:26:23.000Z</time>
      </trkpt>
      <trkpt lat="48.51258" lon="7.13373">
        <ele>620.74414</ele>
        <time>2022-08-08T16:26:26.000Z</time>
      </trkpt>
      <trkpt lat="48.51259" lon="7.13374">
        <ele>621.14856</ele>
        <time>2022-08-08T16:26:29.000Z</time>
      </trkpt>
      <trkpt lat="48.51261" lon="7.13375">
        <ele>621.55103</ele>
        <time>2022-08-08T16:26:31.000Z</time>
      </trkpt>
      <trkpt lat="48.51264" lon="7.13376">
        <ele>622.03693</ele>
        <time>2022-08-08T16:26:35.000Z</time>
      </trkpt>
      <trkpt lat="48.51266" lon="7.13377">
        <ele>622.63684</ele>
        <time>2022-08-08T16:26:37.000Z</time>
      </trkpt>
      <trkpt lat="48.51269" lon="7.13379">
        <ele>623.23004</ele>
        <time>2022-08-08T16:26:39.000Z</time>
      </trkpt>
      <trkpt lat="48.51271" lon="7.13381">
        <ele>623.82751</ele>
        <time>2022-08-08T16:26:41.000Z</time>
      </trkpt>
      <trkpt lat="48.51273" lon="7.13383">
        <ele>624.40015</ele>
        <time>2022-08-08T16:26:43.000Z</time>
      </trkpt>
      <trkpt lat="48.51275" lon="7.13385">
        <ele>624.9881</ele>
        <time>2022-08-08T16:26:45.000Z</time>
      </trkpt>
      <trkpt lat="48.51276" lon="7.13388">
        <ele>625.52289</ele>
        <time>2022-08-08T16:26:47.000Z</time>
      </trkpt>
      <trkpt lat="48.51277" lon="7.13392">
        <ele>626.03052</ele>
        <time>2022-08-08T16:26:49.000Z</time>
      </trkpt>
      <trkpt lat="48.51277" lon="7.13395">
        <ele>626.51062</ele>
        <time>2022-08-08T16:26:51.000Z</time>
      </trkpt>
      <trkpt lat="48.51277" lon="7.13398">
        <ele>626.78656</ele>
        <time>2022-08-08T16:26:53.000Z</time>
      </trkpt>
      <trkpt lat="48.51278" lon="7.13401">
        <ele>626.9209</ele>
        <time>2022-08-08T16:26:55.000Z</time>
      </trkpt>
      <trkpt lat="48.51279" lon="7.13404">
        <ele>627.10461</ele>
        <time>2022-08-08T16:26:58.000Z</time>
      </trkpt>
      <trkpt lat="48.51278" lon="7.13407">
        <ele>627.13562</ele>
        <time>2022-08-08T16:27:03.000Z</time>
      </trkpt>
      <trkpt lat="48.51279" lon="7.1341">
        <ele>626.99664</ele>
        <time>2022-08-08T16:27:08.000Z</time>
      </trkpt>
      <trkpt lat="48.5128" lon="7.13413">
        <ele>626.65723</ele>
        <time>2022-08-08T16:27:14.000Z</time>
      </trkpt>
      <trkpt lat="48.5128" lon="7.13416">
        <ele>626.21436</ele>
        <time>2022-08-08T16:27:43.000Z</time>
      </trkpt>
      <trkpt lat="48.5128" lon="7.1342">
        <ele>625.63501</ele>
        <time>2022-08-08T16:27:45.000Z</time>
      </trkpt>
      <trkpt lat="48.5128" lon="7.13424">
        <ele>625.11816</ele>
        <time>2022-08-08T16:27:47.000Z</time>
      </trkpt>
      <trkpt lat="48.5128" lon="7.13427">
        <ele>624.78973</ele>
        <time>2022-08-08T16:27:50.000Z</time>
      </trkpt>
      <trkpt lat="48.5128" lon="7.1343">
        <ele>624.48016</ele>
        <time>2022-08-08T16:27:52.000Z</time>
      </trkpt>
      <trkpt lat="48.5128" lon="7.13433">
        <ele>624.20691</ele>
        <time>2022-08-08T16:27:54.000Z</time>
      </trkpt>
      <trkpt lat="48.51279" lon="7.13437">
        <ele>623.79382</ele>
        <time>2022-08-08T16:27:57.000Z</time>
      </trkpt>
      <trkpt lat="48.5128" lon="7.1344">
        <ele>623.47437</ele>
        <time>2022-08-08T16:27:59.000Z</time>
      </trkpt>
      <trkpt lat="48.51281" lon="7.13443">
        <ele>623.17096</ele>
        <time>2022-08-08T16:28:01.000Z</time>
      </trkpt>
      <trkpt lat="48.51282" lon="7.13446">
        <ele>622.8905</ele>
        <time>2022-08-08T16:28:03.000Z</time>
      </trkpt>
      <trkpt lat="48.51283" lon="7.13449">
        <ele>622.67841</ele>
        <time>2022-08-08T16:28:06.000Z</time>
      </trkpt>
      <trkpt lat="48.51284" lon="7.13453">
        <ele>622.52551</ele>
        <time>2022-08-08T16:28:08.000Z</time>
      </trkpt>
      <trkpt lat="48.51283" lon="7.13457">
        <ele>622.4007</ele>
        <time>2022-08-08T16:28:10.000Z</time>
      </trkpt>
      <trkpt lat="48.51283" lon="7.1346">
        <ele>622.31476</ele>
        <time>2022-08-08T16:28:12.000Z</time>
      </trkpt>
      <trkpt lat="48.51281" lon="7.13462">
        <ele>622.14008</ele>
        <time>2022-08-08T16:28:14.000Z</time>
      </trkpt>
      <trkpt lat="48.51278" lon="7.13463">
        <ele>622.06384</ele>
        <time>2022-08-08T16:28:20.000Z</time>
      </trkpt>
      <trkpt lat="48.51277" lon="7.13462">
        <ele>622.04523</ele>
        <time>2022-08-08T16:28:22.000Z</time>
      </trkpt>
      <trkpt lat="48.51275" lon="7.1346">
        <ele>622.23975</ele>
        <time>2022-08-08T16:28:24.000Z</time>
      </trkpt>
      <trkpt lat="48.51273" lon="7.1346">
        <ele>622.74084</ele>
        <time>2022-08-08T16:28:27.000Z</time>
      </trkpt>
      <trkpt lat="48.51271" lon="7.13458">
        <ele>623.35248</ele>
        <time>2022-08-08T16:28:29.000Z</time>
      </trkpt>
      <trkpt lat="48.51268" lon="7.13457">
        <ele>624.0722</ele>
        <time>2022-08-08T16:28:32.000Z</time>
      </trkpt>
      <trkpt lat="48.51266" lon="7.13456">
        <ele>624.87</ele>
        <time>2022-08-08T16:28:34.000Z</time>
      </trkpt>
      <trkpt lat="48.51264" lon="7.13454">
        <ele>625.58875</ele>
        <time>2022-08-08T16:28:36.000Z</time>
      </trkpt>
      <trkpt lat="48.51263" lon="7.13457">
        <ele>626.22522</ele>
        <time>2022-08-08T16:28:38.000Z</time>
      </trkpt>
      <trkpt lat="48.51264" lon="7.13461">
        <ele>626.86566</ele>
        <time>2022-08-08T16:28:40.000Z</time>
      </trkpt>
      <trkpt lat="48.51264" lon="7.13464">
        <ele>627.39368</ele>
        <time>2022-08-08T16:28:42.000Z</time>
      </trkpt>
      <trkpt lat="48.51264" lon="7.13467">
        <ele>627.87781</ele>
        <time>2022-08-08T16:28:45.000Z</time>
      </trkpt>
      <trkpt lat="48.51264" lon="7.13472">
        <ele>628.24286</ele>
        <time>2022-08-08T16:28:50.000Z</time>
      </trkpt>
      <trkpt lat="48.51264" lon="7.13475">
        <ele>628.57056</ele>
        <time>2022-08-08T16:28:51.000Z</time>
      </trkpt>
      <trkpt lat="48.51262" lon="7.13477">
        <ele>628.92535</ele>
        <time>2022-08-08T16:28:55.000Z</time>
      </trkpt>
      <trkpt lat="48.51262" lon="7.1348">
        <ele>629.33496</ele>
        <time>2022-08-08T16:28:58.000Z</time>
      </trkpt>
      <trkpt lat="48.51263" lon="7.13482">
        <ele>629.73517</ele>
        <time>2022-08-08T16:29:00.000Z</time>
      </trkpt>
      <trkpt lat="48.51263" lon="7.13486">
        <ele>630.30798</ele>
        <time>2022-08-08T16:29:03.000Z</time>
      </trkpt>
      <trkpt lat="48.51264" lon="7.1349">
        <ele>630.97217</ele>
        <time>2022-08-08T16:29:06.000Z</time>
      </trkpt>
      <trkpt lat="48.51264" lon="7.13494">
        <ele>631.82892</ele>
        <time>2022-08-08T16:29:08.000Z</time>
      </trkpt>
      <trkpt lat="48.51264" lon="7.13497">
        <ele>632.52313</ele>
        <time>2022-08-08T16:29:10.000Z</time>
      </trkpt>
      <trkpt lat="48.51265" lon="7.135">
        <ele>633.22815</ele>
        <time>2022-08-08T16:29:12.000Z</time>
      </trkpt>
      <trkpt lat="48.51266" lon="7.13503">
        <ele>633.85736</ele>
        <time>2022-08-08T16:29:14.000Z</time>
      </trkpt>
      <trkpt lat="48.51266" lon="7.13507">
        <ele>634.302</ele>
        <time>2022-08-08T16:29:17.000Z</time>
      </trkpt>
      <trkpt lat="48.51265" lon="7.13511">
        <ele>634.83893</ele>
        <time>2022-08-08T16:29:20.000Z</time>
      </trkpt>
      <trkpt lat="48.51265" lon="7.13514">
        <ele>635.33801</ele>
        <time>2022-08-08T16:29:22.000Z</time>
      </trkpt>
      <trkpt lat="48.51266" lon="7.13518">
        <ele>635.82178</ele>
        <time>2022-08-08T16:29:24.000Z</time>
      </trkpt>
      <trkpt lat="48.51266" lon="7.13521">
        <ele>636.34064</ele>
        <time>2022-08-08T16:29:27.000Z</time>
      </trkpt>
      <trkpt lat="48.51266" lon="7.13525">
        <ele>636.99414</ele>
        <time>2022-08-08T16:29:30.000Z</time>
      </trkpt>
      <trkpt lat="48.51267" lon="7.13529">
        <ele>637.68689</ele>
        <time>2022-08-08T16:29:33.000Z</time>
      </trkpt>
      <trkpt lat="48.51268" lon="7.13532">
        <ele>638.51892</ele>
        <time>2022-08-08T16:29:35.000Z</time>
      </trkpt>
      <trkpt lat="48.51268" lon="7.13535">
        <ele>639.41351</ele>
        <time>2022-08-08T16:29:37.000Z</time>
      </trkpt>
      <trkpt lat="48.51269" lon="7.13537">
        <ele>640.36475</ele>
        <time>2022-08-08T16:29:38.000Z</time>
      </trkpt>
      <trkpt lat="48.5127" lon="7.1354">
        <ele>641.30402</ele>
        <time>2022-08-08T16:29:39.000Z</time>
      </trkpt>
      <trkpt lat="48.51272" lon="7.13543">
        <ele>642.20667</ele>
        <time>2022-08-08T16:29:41.000Z</time>
      </trkpt>
      <trkpt lat="48.51273" lon="7.13547">
        <ele>642.98877</ele>
        <time>2022-08-08T16:29:43.000Z</time>
      </trkpt>
      <trkpt lat="48.51273" lon="7.1355">
        <ele>643.78802</ele>
        <time>2022-08-08T16:29:45.000Z</time>
      </trkpt>
      <trkpt lat="48.51274" lon="7.13554">
        <ele>644.45087</ele>
        <time>2022-08-08T16:29:47.000Z</time>
      </trkpt>
      <trkpt lat="48.51275" lon="7.13559">
        <ele>644.95917</ele>
        <time>2022-08-08T16:29:49.000Z</time>
      </trkpt>
      <trkpt lat="48.51276" lon="7.13563">
        <ele>645.40662</ele>
        <time>2022-08-08T16:29:51.000Z</time>
      </trkpt>
      <trkpt lat="48.51276" lon="7.13566">
        <ele>645.88293</ele>
        <time>2022-08-08T16:29:53.000Z</time>
      </trkpt>
      <trkpt lat="48.51276" lon="7.1357">
        <ele>646.26111</ele>
        <time>2022-08-08T16:29:55.000Z</time>
      </trkpt>
      <trkpt lat="48.51275" lon="7.13574">
        <ele>646.66858</ele>
        <time>2022-08-08T16:29:57.000Z</time>
      </trkpt>
      <trkpt lat="48.51274" lon="7.13577">
        <ele>647.21552</ele>
        <time>2022-08-08T16:29:59.000Z</time>
      </trkpt>
      <trkpt lat="48.51274" lon="7.1358">
        <ele>647.60913</ele>
        <time>2022-08-08T16:30:01.000Z</time>
      </trkpt>
      <trkpt lat="48.51272" lon="7.13582">
        <ele>648.01007</ele>
        <time>2022-08-08T16:30:03.000Z</time>
      </trkpt>
      <trkpt lat="48.51271" lon="7.13584">
        <ele>648.40784</ele>
        <time>2022-08-08T16:30:05.000Z</time>
      </trkpt>
      <trkpt lat="48.51269" lon="7.13588">
        <ele>648.73151</ele>
        <time>2022-08-08T16:30:07.000Z</time>
      </trkpt>
      <trkpt lat="48.51267" lon="7.13591">
        <ele>648.81897</ele>
        <time>2022-08-08T16:30:09.000Z</time>
      </trkpt>
      <trkpt lat="48.51266" lon="7.13593">
        <ele>648.81787</ele>
        <time>2022-08-08T16:30:11.000Z</time>
      </trkpt>
      <trkpt lat="48.51265" lon="7.13596">
        <ele>648.71381</ele>
        <time>2022-08-08T16:30:13.000Z</time>
      </trkpt>
      <trkpt lat="48.51263" lon="7.13597">
        <ele>648.50116</ele>
        <time>2022-08-08T16:30:15.000Z</time>
      </trkpt>
      <trkpt lat="48.51261" lon="7.136">
        <ele>648.28088</ele>
        <time>2022-08-08T16:30:17.000Z</time>
      </trkpt>
      <trkpt lat="48.5126" lon="7.13603">
        <ele>648.14813</ele>
        <time>2022-08-08T16:30:19.000Z</time>
      </trkpt>
      <trkpt lat="48.51258" lon="7.13604">
        <ele>648.03088</ele>
        <time>2022-08-08T16:30:22.000Z</time>
      </trkpt>
      <trkpt lat="48.51257" lon="7.13608">
        <ele>647.91333</ele>
        <time>2022-08-08T16:30:24.000Z</time>
      </trkpt>
      <trkpt lat="48.51256" lon="7.13612">
        <ele>647.72388</ele>
        <time>2022-08-08T16:30:26.000Z</time>
      </trkpt>
      <trkpt lat="48.51255" lon="7.13616">
        <ele>647.56995</ele>
        <time>2022-08-08T16:30:28.000Z</time>
      </trkpt>
      <trkpt lat="48.51255" lon="7.1362">
        <ele>647.47766</ele>
        <time>2022-08-08T16:30:30.000Z</time>
      </trkpt>
      <trkpt lat="48.51254" lon="7.13623">
        <ele>647.36096</ele>
        <time>2022-08-08T16:30:32.000Z</time>
      </trkpt>
      <trkpt lat="48.51254" lon="7.13628">
        <ele>647.25537</ele>
        <time>2022-08-08T16:30:34.000Z</time>
      </trkpt>
      <trkpt lat="48.51253" lon="7.13631">
        <ele>647.2196</ele>
        <time>2022-08-08T16:30:36.000Z</time>
      </trkpt>
      <trkpt lat="48.51253" lon="7.13635">
        <ele>647.23254</ele>
        <time>2022-08-08T16:30:38.000Z</time>
      </trkpt>
      <trkpt lat="48.51252" lon="7.13639">
        <ele>647.16327</ele>
        <time>2022-08-08T16:30:40.000Z</time>
      </trkpt>
      <trkpt lat="48.51252" lon="7.13642">
        <ele>647.2135</ele>
        <time>2022-08-08T16:30:43.000Z</time>
      </trkpt>
      <trkpt lat="48.51252" lon="7.13646">
        <ele>647.27338</ele>
        <time>2022-08-08T16:30:45.000Z</time>
      </trkpt>
      <trkpt lat="48.51251" lon="7.13649">
        <ele>647.32593</ele>
        <time>2022-08-08T16:30:48.000Z</time>
      </trkpt>
      <trkpt lat="48.5125" lon="7.13653">
        <ele>647.52429</ele>
        <time>2022-08-08T16:30:50.000Z</time>
      </trkpt>
      <trkpt lat="48.51249" lon="7.13656">
        <ele>647.67444</ele>
        <time>2022-08-08T16:30:52.000Z</time>
      </trkpt>
      <trkpt lat="48.51248" lon="7.1366">
        <ele>647.78632</ele>
        <time>2022-08-08T16:30:54.000Z</time>
      </trkpt>
      <trkpt lat="48.51247" lon="7.13664">
        <ele>648.02783</ele>
        <time>2022-08-08T16:30:57.000Z</time>
      </trkpt>
      <trkpt lat="48.51246" lon="7.13667">
        <ele>648.38464</ele>
        <time>2022-08-08T16:30:59.000Z</time>
      </trkpt>
      <trkpt lat="48.51246" lon="7.1367">
        <ele>648.75946</ele>
        <time>2022-08-08T16:31:01.000Z</time>
      </trkpt>
      <trkpt lat="48.51245" lon="7.13673">
        <ele>649.01202</ele>
        <time>2022-08-08T16:31:03.000Z</time>
      </trkpt>
      <trkpt lat="48.51245" lon="7.13676">
        <ele>649.0946</ele>
        <time>2022-08-08T16:31:06.000Z</time>
      </trkpt>
      <trkpt lat="48.51244" lon="7.1368">
        <ele>649.14618</ele>
        <time>2022-08-08T16:31:08.000Z</time>
      </trkpt>
      <trkpt lat="48.51243" lon="7.13683">
        <ele>649.22711</ele>
        <time>2022-08-08T16:31:11.000Z</time>
      </trkpt>
      <trkpt lat="48.51242" lon="7.13686">
        <ele>649.41919</ele>
        <time>2022-08-08T16:31:13.000Z</time>
      </trkpt>
      <trkpt lat="48.51241" lon="7.1369">
        <ele>649.59802</ele>
        <time>2022-08-08T16:31:15.000Z</time>
      </trkpt>
      <trkpt lat="48.51239" lon="7.13689">
        <ele>649.81921</ele>
        <time>2022-08-08T16:31:17.000Z</time>
      </trkpt>
      <trkpt lat="48.51238" lon="7.1369">
        <ele>650.04462</ele>
        <time>2022-08-08T16:31:19.000Z</time>
      </trkpt>
      <trkpt lat="48.51237" lon="7.13692">
        <ele>650.26312</ele>
        <time>2022-08-08T16:31:29.000Z</time>
      </trkpt>
      <trkpt lat="48.51238" lon="7.13694">
        <ele>650.48016</ele>
        <time>2022-08-08T16:31:39.000Z</time>
      </trkpt>
      <trkpt lat="48.51236" lon="7.13696">
        <ele>650.56372</ele>
        <time>2022-08-08T16:31:47.000Z</time>
      </trkpt>
      <trkpt lat="48.51234" lon="7.13696">
        <ele>650.55566</ele>
        <time>2022-08-08T16:31:49.000Z</time>
      </trkpt>
      <trkpt lat="48.51236" lon="7.13697">
        <ele>650.72839</ele>
        <time>2022-08-08T16:32:51.000Z</time>
      </trkpt>
      <trkpt lat="48.51238" lon="7.13699">
        <ele>650.86432</ele>
        <time>2022-08-08T16:33:25.000Z</time>
      </trkpt>
      <trkpt lat="48.51236" lon="7.13703">
        <ele>650.93262</ele>
        <time>2022-08-08T16:33:46.000Z</time>
      </trkpt>
      <trkpt lat="48.51235" lon="7.13707">
        <ele>651.06921</ele>
        <time>2022-08-08T16:33:48.000Z</time>
      </trkpt>
      <trkpt lat="48.51235" lon="7.13709">
        <ele>651.23792</ele>
        <time>2022-08-08T16:33:49.000Z</time>
      </trkpt>
      <trkpt lat="48.51236" lon="7.13713">
        <ele>651.35144</ele>
        <time>2022-08-08T16:33:52.000Z</time>
      </trkpt>
      <trkpt lat="48.51235" lon="7.13717">
        <ele>651.43848</ele>
        <time>2022-08-08T16:33:54.000Z</time>
      </trkpt>
      <trkpt lat="48.51235" lon="7.1372">
        <ele>651.58929</ele>
        <time>2022-08-08T16:33:57.000Z</time>
      </trkpt>
      <trkpt lat="48.51235" lon="7.13724">
        <ele>651.73706</ele>
        <time>2022-08-08T16:34:01.000Z</time>
      </trkpt>
      <trkpt lat="48.51236" lon="7.13726">
        <ele>652.07208</ele>
        <time>2022-08-08T16:34:03.000Z</time>
      </trkpt>
      <trkpt lat="48.51236" lon="7.1373">
        <ele>652.40167</ele>
        <time>2022-08-08T16:34:06.000Z</time>
      </trkpt>
      <trkpt lat="48.51234" lon="7.13732">
        <ele>652.72913</ele>
        <time>2022-08-08T16:34:10.000Z</time>
      </trkpt>
      <trkpt lat="48.51232" lon="7.13734">
        <ele>652.93341</ele>
        <time>2022-08-08T16:34:12.000Z</time>
      </trkpt>
      <trkpt lat="48.51231" lon="7.13737">
        <ele>653.10443</ele>
        <time>2022-08-08T16:34:14.000Z</time>
      </trkpt>
      <trkpt lat="48.51231" lon="7.13741">
        <ele>653.36206</ele>
        <time>2022-08-08T16:34:18.000Z</time>
      </trkpt>
      <trkpt lat="48.51229" lon="7.13743">
        <ele>653.64148</ele>
        <time>2022-08-08T16:34:20.000Z</time>
      </trkpt>
      <trkpt lat="48.51227" lon="7.13745">
        <ele>653.91522</ele>
        <time>2022-08-08T16:34:22.000Z</time>
      </trkpt>
      <trkpt lat="48.51225" lon="7.13747">
        <ele>654.13953</ele>
        <time>2022-08-08T16:34:24.000Z</time>
      </trkpt>
      <trkpt lat="48.51222" lon="7.13747">
        <ele>654.6322</ele>
        <time>2022-08-08T16:34:29.000Z</time>
      </trkpt>
      <trkpt lat="48.5122" lon="7.13749">
        <ele>655.15393</ele>
        <time>2022-08-08T16:34:31.000Z</time>
      </trkpt>
      <trkpt lat="48.51219" lon="7.13754">
        <ele>655.54944</ele>
        <time>2022-08-08T16:34:33.000Z</time>
      </trkpt>
      <trkpt lat="48.51218" lon="7.13758">
        <ele>656.01141</ele>
        <time>2022-08-08T16:34:35.000Z</time>
      </trkpt>
      <trkpt lat="48.51217" lon="7.13761">
        <ele>656.49133</ele>
        <time>2022-08-08T16:34:37.000Z</time>
      </trkpt>
      <trkpt lat="48.51215" lon="7.13765">
        <ele>656.9809</ele>
        <time>2022-08-08T16:34:39.000Z</time>
      </trkpt>
      <trkpt lat="48.51213" lon="7.13767">
        <ele>657.46521</ele>
        <time>2022-08-08T16:34:41.000Z</time>
      </trkpt>
      <trkpt lat="48.51212" lon="7.13771">
        <ele>657.96838</ele>
        <time>2022-08-08T16:34:43.000Z</time>
      </trkpt>
      <trkpt lat="48.51211" lon="7.13774">
        <ele>658.80707</ele>
        <time>2022-08-08T16:34:48.000Z</time>
      </trkpt>
      <trkpt lat="48.51209" lon="7.13777">
        <ele>659.64368</ele>
        <time>2022-08-08T16:34:51.000Z</time>
      </trkpt>
      <trkpt lat="48.51207" lon="7.1378">
        <ele>660.52826</ele>
        <time>2022-08-08T16:34:53.000Z</time>
      </trkpt>
      <trkpt lat="48.51204" lon="7.13781">
        <ele>661.5061</ele>
        <time>2022-08-08T16:34:56.000Z</time>
      </trkpt>
      <trkpt lat="48.51202" lon="7.13783">
        <ele>662.51099</ele>
        <time>2022-08-08T16:34:59.000Z</time>
      </trkpt>
      <trkpt lat="48.51201" lon="7.13783">
        <ele>663.5863</ele>
        <time>2022-08-08T16:35:01.000Z</time>
      </trkpt>
      <trkpt lat="48.51199" lon="7.13786">
        <ele>664.6651</ele>
        <time>2022-08-08T16:35:03.000Z</time>
      </trkpt>
      <trkpt lat="48.51197" lon="7.13788">
        <ele>665.87695</ele>
        <time>2022-08-08T16:35:06.000Z</time>
      </trkpt>
      <trkpt lat="48.51195" lon="7.1379">
        <ele>667.03625</ele>
        <time>2022-08-08T16:35:09.000Z</time>
      </trkpt>
      <trkpt lat="48.51193" lon="7.13791">
        <ele>668.22009</ele>
        <time>2022-08-08T16:35:11.000Z</time>
      </trkpt>
      <trkpt lat="48.51191" lon="7.13792">
        <ele>669.39386</ele>
        <time>2022-08-08T16:35:13.000Z</time>
      </trkpt>
      <trkpt lat="48.51189" lon="7.13794">
        <ele>670.52136</ele>
        <time>2022-08-08T16:35:15.000Z</time>
      </trkpt>
      <trkpt lat="48.51186" lon="7.13797">
        <ele>671.50867</ele>
        <time>2022-08-08T16:35:17.000Z</time>
      </trkpt>
      <trkpt lat="48.51184" lon="7.13799">
        <ele>672.41687</ele>
        <time>2022-08-08T16:35:19.000Z</time>
      </trkpt>
      <trkpt lat="48.51181" lon="7.138">
        <ele>673.18091</ele>
        <time>2022-08-08T16:35:21.000Z</time>
      </trkpt>
      <trkpt lat="48.51179" lon="7.13802">
        <ele>673.86859</ele>
        <time>2022-08-08T16:35:23.000Z</time>
      </trkpt>
      <trkpt lat="48.51177" lon="7.13805">
        <ele>674.51501</ele>
        <time>2022-08-08T16:35:25.000Z</time>
      </trkpt>
      <trkpt lat="48.51174" lon="7.13807">
        <ele>675.07947</ele>
        <time>2022-08-08T16:35:27.000Z</time>
      </trkpt>
      <trkpt lat="48.51171" lon="7.13809">
        <ele>675.67078</ele>
        <time>2022-08-08T16:35:29.000Z</time>
      </trkpt>
      <trkpt lat="48.51169" lon="7.1381">
        <ele>676.19757</ele>
        <time>2022-08-08T16:35:31.000Z</time>
      </trkpt>
      <trkpt lat="48.51167" lon="7.13811">
        <ele>676.37512</ele>
        <time>2022-08-08T16:35:33.000Z</time>
      </trkpt>
      <trkpt lat="48.51165" lon="7.13814">
        <ele>676.58844</ele>
        <time>2022-08-08T16:35:40.000Z</time>
      </trkpt>
      <trkpt lat="48.51164" lon="7.13818">
        <ele>676.83539</ele>
        <time>2022-08-08T16:35:46.000Z</time>
      </trkpt>
      <trkpt lat="48.51162" lon="7.13821">
        <ele>676.93317</ele>
        <time>2022-08-08T16:35:48.000Z</time>
      </trkpt>
      <trkpt lat="48.5116" lon="7.13822">
        <ele>677.01947</ele>
        <time>2022-08-08T16:35:49.000Z</time>
      </trkpt>
      <trkpt lat="48.51159" lon="7.13824">
        <ele>677.03186</ele>
        <time>2022-08-08T16:35:50.000Z</time>
      </trkpt>
      <trkpt lat="48.51157" lon="7.13825">
        <ele>677.0144</ele>
        <time>2022-08-08T16:35:51.000Z</time>
      </trkpt>
      <trkpt lat="48.51155" lon="7.13828">
        <ele>676.86414</ele>
        <time>2022-08-08T16:35:53.000Z</time>
      </trkpt>
      <trkpt lat="48.51152" lon="7.13828">
        <ele>676.69891</ele>
        <time>2022-08-08T16:35:55.000Z</time>
      </trkpt>
      <trkpt lat="48.5115" lon="7.13829">
        <ele>676.34027</ele>
        <time>2022-08-08T16:35:57.000Z</time>
      </trkpt>
      <trkpt lat="48.51148" lon="7.13831">
        <ele>676.0144</ele>
        <time>2022-08-08T16:35:59.000Z</time>
      </trkpt>
      <trkpt lat="48.51146" lon="7.13834">
        <ele>675.7608</ele>
        <time>2022-08-08T16:36:01.000Z</time>
      </trkpt>
      <trkpt lat="48.51143" lon="7.13836">
        <ele>675.47522</ele>
        <time>2022-08-08T16:36:03.000Z</time>
      </trkpt>
      <trkpt lat="48.5114" lon="7.13838">
        <ele>675.06952</ele>
        <time>2022-08-08T16:36:05.000Z</time>
      </trkpt>
      <trkpt lat="48.51138" lon="7.13839">
        <ele>674.74731</ele>
        <time>2022-08-08T16:36:06.000Z</time>
      </trkpt>
      <trkpt lat="48.51136" lon="7.13841">
        <ele>674.42633</ele>
        <time>2022-08-08T16:36:07.000Z</time>
      </trkpt>
      <trkpt lat="48.51134" lon="7.13842">
        <ele>674.08606</ele>
        <time>2022-08-08T16:36:08.000Z</time>
      </trkpt>
      <trkpt lat="48.51131" lon="7.13844">
        <ele>673.8399</ele>
        <time>2022-08-08T16:36:10.000Z</time>
      </trkpt>
      <trkpt lat="48.51129" lon="7.13846">
        <ele>673.7041</ele>
        <time>2022-08-08T16:36:12.000Z</time>
      </trkpt>
      <trkpt lat="48.51127" lon="7.13848">
        <ele>673.62427</ele>
        <time>2022-08-08T16:36:14.000Z</time>
      </trkpt>
      <trkpt lat="48.51125" lon="7.13851">
        <ele>673.52307</ele>
        <time>2022-08-08T16:36:16.000Z</time>
      </trkpt>
      <trkpt lat="48.51124" lon="7.13853">
        <ele>673.33759</ele>
        <time>2022-08-08T16:36:18.000Z</time>
      </trkpt>
      <trkpt lat="48.51122" lon="7.13855">
        <ele>673.26648</ele>
        <time>2022-08-08T16:36:40.000Z</time>
      </trkpt>
      <trkpt lat="48.51125" lon="7.13857">
        <ele>673.18781</ele>
        <time>2022-08-08T16:37:02.000Z</time>
      </trkpt>
      <trkpt lat="48.51126" lon="7.13856">
        <ele>673.07343</ele>
        <time>2022-08-08T16:37:03.000Z</time>
      </trkpt>
      <trkpt lat="48.51126" lon="7.13853">
        <ele>672.97394</ele>
        <time>2022-08-08T16:37:05.000Z</time>
      </trkpt>
      <trkpt lat="48.51127" lon="7.1385">
        <ele>672.86298</ele>
        <time>2022-08-08T16:37:09.000Z</time>
      </trkpt>
      <trkpt lat="48.51128" lon="7.13848">
        <ele>672.67609</ele>
        <time>2022-08-08T16:37:12.000Z</time>
      </trkpt>
      <trkpt lat="48.51129" lon="7.13845">
        <ele>672.48804</ele>
        <time>2022-08-08T16:37:14.000Z</time>
      </trkpt>
      <trkpt lat="48.51131" lon="7.13844">
        <ele>672.49103</ele>
        <time>2022-08-08T16:37:17.000Z</time>
      </trkpt>
      <trkpt lat="48.51133" lon="7.13842">
        <ele>672.5119</ele>
        <time>2022-08-08T16:37:19.000Z</time>
      </trkpt>
      <trkpt lat="48.51135" lon="7.13841">
        <ele>672.53937</ele>
        <time>2022-08-08T16:37:21.000Z</time>
      </trkpt>
      <trkpt lat="48.51137" lon="7.1384">
        <ele>672.51294</ele>
        <time>2022-08-08T16:37:23.000Z</time>
      </trkpt>
      <trkpt lat="48.51139" lon="7.13839">
        <ele>672.78271</ele>
        <time>2022-08-08T16:37:26.000Z</time>
      </trkpt>
      <trkpt lat="48.51141" lon="7.13838">
        <ele>673.01355</ele>
        <time>2022-08-08T16:37:28.000Z</time>
      </trkpt>
      <trkpt lat="48.51143" lon="7.13836">
        <ele>673.31219</ele>
        <time>2022-08-08T16:37:30.000Z</time>
      </trkpt>
      <trkpt lat="48.51145" lon="7.13836">
        <ele>673.5592</ele>
        <time>2022-08-08T16:37:32.000Z</time>
      </trkpt>
      <trkpt lat="48.51148" lon="7.13838">
        <ele>673.76923</ele>
        <time>2022-08-08T16:37:34.000Z</time>
      </trkpt>
      <trkpt lat="48.51149" lon="7.13841">
        <ele>673.72009</ele>
        <time>2022-08-08T16:37:36.000Z</time>
      </trkpt>
      <trkpt lat="48.51151" lon="7.13844">
        <ele>673.57867</ele>
        <time>2022-08-08T16:37:39.000Z</time>
      </trkpt>
      <trkpt lat="48.5115" lon="7.13847">
        <ele>673.46326</ele>
        <time>2022-08-08T16:37:41.000Z</time>
      </trkpt>
      <trkpt lat="48.51151" lon="7.13851">
        <ele>673.4668</ele>
        <time>2022-08-08T16:37:43.000Z</time>
      </trkpt>
      <trkpt lat="48.51149" lon="7.13852">
        <ele>673.31934</ele>
        <time>2022-08-08T16:37:45.000Z</time>
      </trkpt>
      <trkpt lat="48.51148" lon="7.13856">
        <ele>673.15479</ele>
        <time>2022-08-08T16:37:48.000Z</time>
      </trkpt>
      <trkpt lat="48.51147" lon="7.13858">
        <ele>673.02179</ele>
        <time>2022-08-08T16:37:50.000Z</time>
      </trkpt>
      <trkpt lat="48.51147" lon="7.13861">
        <ele>672.93964</ele>
        <time>2022-08-08T16:37:55.000Z</time>
      </trkpt>
      <trkpt lat="48.51147" lon="7.13866">
        <ele>673.04871</ele>
        <time>2022-08-08T16:38:01.000Z</time>
      </trkpt>
      <trkpt lat="48.51149" lon="7.13868">
        <ele>673.30103</ele>
        <time>2022-08-08T16:38:05.000Z</time>
      </trkpt>
      <trkpt lat="48.5115" lon="7.13872">
        <ele>673.49768</ele>
        <time>2022-08-08T16:38:08.000Z</time>
      </trkpt>
      <trkpt lat="48.5115" lon="7.13874">
        <ele>673.70459</ele>
        <time>2022-08-08T16:38:10.000Z</time>
      </trkpt>
      <trkpt lat="48.51151" lon="7.13877">
        <ele>673.9248</ele>
        <time>2022-08-08T16:38:12.000Z</time>
      </trkpt>
      <trkpt lat="48.51151" lon="7.13881">
        <ele>674.10883</ele>
        <time>2022-08-08T16:38:14.000Z</time>
      </trkpt>
      <trkpt lat="48.51152" lon="7.13885">
        <ele>674.33215</ele>
        <time>2022-08-08T16:38:16.000Z</time>
      </trkpt>
      <trkpt lat="48.51153" lon="7.13888">
        <ele>674.48779</ele>
        <time>2022-08-08T16:38:19.000Z</time>
      </trkpt>
      <trkpt lat="48.51154" lon="7.13891">
        <ele>674.62048</ele>
        <time>2022-08-08T16:38:21.000Z</time>
      </trkpt>
      <trkpt lat="48.51155" lon="7.13894">
        <ele>674.75482</ele>
        <time>2022-08-08T16:38:23.000Z</time>
      </trkpt>
      <trkpt lat="48.51156" lon="7.13897">
        <ele>674.92938</ele>
        <time>2022-08-08T16:38:25.000Z</time>
      </trkpt>
      <trkpt lat="48.51156" lon="7.139">
        <ele>675.14655</ele>
        <time>2022-08-08T16:38:28.000Z</time>
      </trkpt>
      <trkpt lat="48.51157" lon="7.13903">
        <ele>675.51917</ele>
        <time>2022-08-08T16:38:30.000Z</time>
      </trkpt>
      <trkpt lat="48.51158" lon="7.13907">
        <ele>675.93811</ele>
        <time>2022-08-08T16:38:32.000Z</time>
      </trkpt>
      <trkpt lat="48.51158" lon="7.1391">
        <ele>676.39246</ele>
        <time>2022-08-08T16:38:34.000Z</time>
      </trkpt>
      <trkpt lat="48.51159" lon="7.13914">
        <ele>676.7262</ele>
        <time>2022-08-08T16:38:36.000Z</time>
      </trkpt>
      <trkpt lat="48.51161" lon="7.13917">
        <ele>677.02228</ele>
        <time>2022-08-08T16:38:38.000Z</time>
      </trkpt>
      <trkpt lat="48.51162" lon="7.1392">
        <ele>677.41101</ele>
        <time>2022-08-08T16:38:40.000Z</time>
      </trkpt>
      <trkpt lat="48.51163" lon="7.13924">
        <ele>677.78003</ele>
        <time>2022-08-08T16:38:42.000Z</time>
      </trkpt>
      <trkpt lat="48.51164" lon="7.13927">
        <ele>678.05267</ele>
        <time>2022-08-08T16:38:44.000Z</time>
      </trkpt>
      <trkpt lat="48.51165" lon="7.1393">
        <ele>678.17029</ele>
        <time>2022-08-08T16:38:46.000Z</time>
      </trkpt>
      <trkpt lat="48.51166" lon="7.13934">
        <ele>678.2561</ele>
        <time>2022-08-08T16:38:48.000Z</time>
      </trkpt>
      <trkpt lat="48.51168" lon="7.13937">
        <ele>678.46295</ele>
        <time>2022-08-08T16:38:50.000Z</time>
      </trkpt>
      <trkpt lat="48.51169" lon="7.1394">
        <ele>678.77148</ele>
        <time>2022-08-08T16:38:52.000Z</time>
      </trkpt>
      <trkpt lat="48.5117" lon="7.13944">
        <ele>679.13513</ele>
        <time>2022-08-08T16:38:55.000Z</time>
      </trkpt>
      <trkpt lat="48.5117" lon="7.13946">
        <ele>679.55286</ele>
        <time>2022-08-08T16:38:57.000Z</time>
      </trkpt>
      <trkpt lat="48.51171" lon="7.1395">
        <ele>680.09741</ele>
        <time>2022-08-08T16:39:00.000Z</time>
      </trkpt>
      <trkpt lat="48.51171" lon="7.13953">
        <ele>680.65955</ele>
        <time>2022-08-08T16:39:03.000Z</time>
      </trkpt>
      <trkpt lat="48.51172" lon="7.13956">
        <ele>681.2594</ele>
        <time>2022-08-08T16:39:05.000Z</time>
      </trkpt>
      <trkpt lat="48.51174" lon="7.13959">
        <ele>681.75482</ele>
        <time>2022-08-08T16:39:06.000Z</time>
      </trkpt>
      <trkpt lat="48.51175" lon="7.1396">
        <ele>682.4682</ele>
        <time>2022-08-08T16:39:09.000Z</time>
      </trkpt>
      <trkpt lat="48.51176" lon="7.13963">
        <ele>683.19147</ele>
        <time>2022-08-08T16:39:11.000Z</time>
      </trkpt>
      <trkpt lat="48.51178" lon="7.13966">
        <ele>683.82489</ele>
        <time>2022-08-08T16:39:13.000Z</time>
      </trkpt>
      <trkpt lat="48.51179" lon="7.13968">
        <ele>684.41272</ele>
        <time>2022-08-08T16:39:15.000Z</time>
      </trkpt>
      <trkpt lat="48.51181" lon="7.1397">
        <ele>684.95374</ele>
        <time>2022-08-08T16:39:17.000Z</time>
      </trkpt>
      <trkpt lat="48.51182" lon="7.13972">
        <ele>685.54486</ele>
        <time>2022-08-08T16:39:19.000Z</time>
      </trkpt>
      <trkpt lat="48.51183" lon="7.13974">
        <ele>686.18457</ele>
        <time>2022-08-08T16:39:21.000Z</time>
      </trkpt>
      <trkpt lat="48.51185" lon="7.13978">
        <ele>686.7865</ele>
        <time>2022-08-08T16:39:23.000Z</time>
      </trkpt>
      <trkpt lat="48.51186" lon="7.13981">
        <ele>687.41132</ele>
        <time>2022-08-08T16:39:25.000Z</time>
      </trkpt>
      <trkpt lat="48.51187" lon="7.13985">
        <ele>688.01025</ele>
        <time>2022-08-08T16:39:27.000Z</time>
      </trkpt>
      <trkpt lat="48.51189" lon="7.13989">
        <ele>688.53406</ele>
        <time>2022-08-08T16:39:29.000Z</time>
      </trkpt>
      <trkpt lat="48.51191" lon="7.13992">
        <ele>689.04944</ele>
        <time>2022-08-08T16:39:31.000Z</time>
      </trkpt>
      <trkpt lat="48.51193" lon="7.13994">
        <ele>689.49329</ele>
        <time>2022-08-08T16:39:33.000Z</time>
      </trkpt>
      <trkpt lat="48.51194" lon="7.13996">
        <ele>689.89093</ele>
        <time>2022-08-08T16:39:35.000Z</time>
      </trkpt>
      <trkpt lat="48.51197" lon="7.13999">
        <ele>690.1803</ele>
        <time>2022-08-08T16:39:38.000Z</time>
      </trkpt>
      <trkpt lat="48.51199" lon="7.14002">
        <ele>690.42297</ele>
        <time>2022-08-08T16:39:40.000Z</time>
      </trkpt>
      <trkpt lat="48.51201" lon="7.14005">
        <ele>690.5777</ele>
        <time>2022-08-08T16:39:42.000Z</time>
      </trkpt>
      <trkpt lat="48.51203" lon="7.14007">
        <ele>690.71429</ele>
        <time>2022-08-08T16:39:44.000Z</time>
      </trkpt>
      <trkpt lat="48.51205" lon="7.1401">
        <ele>690.80566</ele>
        <time>2022-08-08T16:39:46.000Z</time>
      </trkpt>
      <trkpt lat="48.51207" lon="7.14013">
        <ele>690.89056</ele>
        <time>2022-08-08T16:39:48.000Z</time>
      </trkpt>
      <trkpt lat="48.51208" lon="7.14016">
        <ele>690.87378</ele>
        <time>2022-08-08T16:39:52.000Z</time>
      </trkpt>
      <trkpt lat="48.51211" lon="7.14017">
        <ele>690.9552</ele>
        <time>2022-08-08T16:39:55.000Z</time>
      </trkpt>
      <trkpt lat="48.51212" lon="7.1402">
        <ele>691.09869</ele>
        <time>2022-08-08T16:39:56.000Z</time>
      </trkpt>
      <trkpt lat="48.51213" lon="7.14022">
        <ele>691.32867</ele>
        <time>2022-08-08T16:39:58.000Z</time>
      </trkpt>
      <trkpt lat="48.51214" lon="7.14025">
        <ele>691.55408</ele>
        <time>2022-08-08T16:40:00.000Z</time>
      </trkpt>
      <trkpt lat="48.51215" lon="7.14028">
        <ele>691.85376</ele>
        <time>2022-08-08T16:40:02.000Z</time>
      </trkpt>
      <trkpt lat="48.51217" lon="7.14033">
        <ele>692.06494</ele>
        <time>2022-08-08T16:40:04.000Z</time>
      </trkpt>
      <trkpt lat="48.51219" lon="7.14035">
        <ele>692.29388</ele>
        <time>2022-08-08T16:40:06.000Z</time>
      </trkpt>
      <trkpt lat="48.51219" lon="7.14038">
        <ele>692.53369</ele>
        <time>2022-08-08T16:40:09.000Z</time>
      </trkpt>
      <trkpt lat="48.5122" lon="7.14041">
        <ele>692.94824</ele>
        <time>2022-08-08T16:40:13.000Z</time>
      </trkpt>
      <trkpt lat="48.5122" lon="7.14044">
        <ele>693.5321</ele>
        <time>2022-08-08T16:40:15.000Z</time>
      </trkpt>
      <trkpt lat="48.51219" lon="7.14048">
        <ele>694.21301</ele>
        <time>2022-08-08T16:40:18.000Z</time>
      </trkpt>
      <trkpt lat="48.51221" lon="7.14051">
        <ele>694.95099</ele>
        <time>2022-08-08T16:40:20.000Z</time>
      </trkpt>
      <trkpt lat="48.51224" lon="7.14054">
        <ele>695.63562</ele>
        <time>2022-08-08T16:40:22.000Z</time>
      </trkpt>
      <trkpt lat="48.51225" lon="7.14058">
        <ele>696.47131</ele>
        <time>2022-08-08T16:40:24.000Z</time>
      </trkpt>
      <trkpt lat="48.51226" lon="7.14061">
        <ele>697.35193</ele>
        <time>2022-08-08T16:40:26.000Z</time>
      </trkpt>
      <trkpt lat="48.51226" lon="7.14065">
        <ele>698.21649</ele>
        <time>2022-08-08T16:40:28.000Z</time>
      </trkpt>
      <trkpt lat="48.51227" lon="7.14068">
        <ele>699.12421</ele>
        <time>2022-08-08T16:40:30.000Z</time>
      </trkpt>
      <trkpt lat="48.51228" lon="7.14072">
        <ele>700.02136</ele>
        <time>2022-08-08T16:40:32.000Z</time>
      </trkpt>
      <trkpt lat="48.51229" lon="7.14075">
        <ele>700.89539</ele>
        <time>2022-08-08T16:40:33.000Z</time>
      </trkpt>
      <trkpt lat="48.5123" lon="7.1408">
        <ele>701.84259</ele>
        <time>2022-08-08T16:40:35.000Z</time>
      </trkpt>
      <trkpt lat="48.51232" lon="7.14084">
        <ele>702.81866</ele>
        <time>2022-08-08T16:40:37.000Z</time>
      </trkpt>
      <trkpt lat="48.51233" lon="7.14087">
        <ele>703.74792</ele>
        <time>2022-08-08T16:40:39.000Z</time>
      </trkpt>
      <trkpt lat="48.51234" lon="7.1409">
        <ele>704.6795</ele>
        <time>2022-08-08T16:40:41.000Z</time>
      </trkpt>
      <trkpt lat="48.51234" lon="7.14094">
        <ele>705.66858</ele>
        <time>2022-08-08T16:40:43.000Z</time>
      </trkpt>
      <trkpt lat="48.51234" lon="7.14099">
        <ele>706.50439</ele>
        <time>2022-08-08T16:40:45.000Z</time>
      </trkpt>
      <trkpt lat="48.51234" lon="7.14102">
        <ele>707.349</ele>
        <time>2022-08-08T16:40:47.000Z</time>
      </trkpt>
      <trkpt lat="48.51235" lon="7.14109">
        <ele>707.88336</ele>
        <time>2022-08-08T16:40:50.000Z</time>
      </trkpt>
      <trkpt lat="48.51235" lon="7.14112">
        <ele>708.46924</ele>
        <time>2022-08-08T16:40:52.000Z</time>
      </trkpt>
      <trkpt lat="48.51235" lon="7.14115">
        <ele>708.78326</ele>
        <time>2022-08-08T16:40:53.000Z</time>
      </trkpt>
      <trkpt lat="48.51236" lon="7.14119">
        <ele>708.97278</ele>
        <time>2022-08-08T16:40:55.000Z</time>
      </trkpt>
      <trkpt lat="48.51237" lon="7.14122">
        <ele>709.06952</ele>
        <time>2022-08-08T16:40:57.000Z</time>
      </trkpt>
      <trkpt lat="48.51239" lon="7.14125">
        <ele>709.09326</ele>
        <time>2022-08-08T16:41:00.000Z</time>
      </trkpt>
      <trkpt lat="48.5124" lon="7.14127">
        <ele>709.02747</ele>
        <time>2022-08-08T16:41:02.000Z</time>
      </trkpt>
      <trkpt lat="48.51241" lon="7.14131">
        <ele>708.88379</ele>
        <time>2022-08-08T16:41:05.000Z</time>
      </trkpt>
      <trkpt lat="48.51242" lon="7.14134">
        <ele>708.82727</ele>
        <time>2022-08-08T16:41:07.000Z</time>
      </trkpt>
      <trkpt lat="48.51244" lon="7.14136">
        <ele>708.84491</ele>
        <time>2022-08-08T16:41:10.000Z</time>
      </trkpt>
      <trkpt lat="48.51246" lon="7.14139">
        <ele>708.79553</ele>
        <time>2022-08-08T16:41:13.000Z</time>
      </trkpt>
      <trkpt lat="48.51248" lon="7.14141">
        <ele>708.87439</ele>
        <time>2022-08-08T16:41:16.000Z</time>
      </trkpt>
      <trkpt lat="48.51249" lon="7.14145">
        <ele>709.00806</ele>
        <time>2022-08-08T16:41:18.000Z</time>
      </trkpt>
      <trkpt lat="48.5125" lon="7.14147">
        <ele>709.05493</ele>
        <time>2022-08-08T16:41:20.000Z</time>
      </trkpt>
      <trkpt lat="48.51252" lon="7.14149">
        <ele>708.93274</ele>
        <time>2022-08-08T16:41:22.000Z</time>
      </trkpt>
      <trkpt lat="48.51253" lon="7.14153">
        <ele>708.91748</ele>
        <time>2022-08-08T16:41:24.000Z</time>
      </trkpt>
      <trkpt lat="48.51255" lon="7.14156">
        <ele>708.85858</ele>
        <time>2022-08-08T16:41:27.000Z</time>
      </trkpt>
      <trkpt lat="48.51256" lon="7.14157">
        <ele>708.74115</ele>
        <time>2022-08-08T16:41:29.000Z</time>
      </trkpt>
      <trkpt lat="48.51258" lon="7.1416">
        <ele>708.72308</ele>
        <time>2022-08-08T16:41:31.000Z</time>
      </trkpt>
      <trkpt lat="48.51259" lon="7.14163">
        <ele>708.81525</ele>
        <time>2022-08-08T16:41:33.000Z</time>
      </trkpt>
      <trkpt lat="48.5126" lon="7.14166">
        <ele>709.24719</ele>
        <time>2022-08-08T16:41:35.000Z</time>
      </trkpt>
      <trkpt lat="48.51262" lon="7.1417">
        <ele>709.65479</ele>
        <time>2022-08-08T16:41:37.000Z</time>
      </trkpt>
      <trkpt lat="48.51263" lon="7.14172">
        <ele>710.26575</ele>
        <time>2022-08-08T16:41:39.000Z</time>
      </trkpt>
      <trkpt lat="48.51265" lon="7.14176">
        <ele>710.79089</ele>
        <time>2022-08-08T16:41:41.000Z</time>
      </trkpt>
      <trkpt lat="48.51266" lon="7.14179">
        <ele>711.30914</ele>
        <time>2022-08-08T16:41:43.000Z</time>
      </trkpt>
      <trkpt lat="48.51267" lon="7.14182">
        <ele>712.00085</ele>
        <time>2022-08-08T16:41:45.000Z</time>
      </trkpt>
      <trkpt lat="48.5127" lon="7.14188">
        <ele>712.91809</ele>
        <time>2022-08-08T16:41:48.000Z</time>
      </trkpt>
      <trkpt lat="48.5127" lon="7.14191">
        <ele>713.68781</ele>
        <time>2022-08-08T16:41:49.000Z</time>
      </trkpt>
      <trkpt lat="48.51271" lon="7.14193">
        <ele>714.43176</ele>
        <time>2022-08-08T16:41:50.000Z</time>
      </trkpt>
      <trkpt lat="48.51272" lon="7.14198">
        <ele>715.17725</ele>
        <time>2022-08-08T16:41:52.000Z</time>
      </trkpt>
      <trkpt lat="48.51273" lon="7.14202">
        <ele>715.84131</ele>
        <time>2022-08-08T16:41:54.000Z</time>
      </trkpt>
      <trkpt lat="48.51273" lon="7.14205">
        <ele>716.46765</ele>
        <time>2022-08-08T16:41:55.000Z</time>
      </trkpt>
      <trkpt lat="48.51274" lon="7.1421">
        <ele>717.19202</ele>
        <time>2022-08-08T16:41:57.000Z</time>
      </trkpt>
      <trkpt lat="48.51275" lon="7.14214">
        <ele>717.76337</ele>
        <time>2022-08-08T16:41:59.000Z</time>
      </trkpt>
      <trkpt lat="48.51275" lon="7.14217">
        <ele>718.33093</ele>
        <time>2022-08-08T16:42:01.000Z</time>
      </trkpt>
      <trkpt lat="48.51274" lon="7.1422">
        <ele>718.84283</ele>
        <time>2022-08-08T16:42:03.000Z</time>
      </trkpt>
      <trkpt lat="48.51273" lon="7.14223">
        <ele>719.36896</ele>
        <time>2022-08-08T16:42:05.000Z</time>
      </trkpt>
      <trkpt lat="48.51273" lon="7.14227">
        <ele>719.97327</ele>
        <time>2022-08-08T16:42:07.000Z</time>
      </trkpt>
      <trkpt lat="48.51273" lon="7.1423">
        <ele>720.51471</ele>
        <time>2022-08-08T16:42:09.000Z</time>
      </trkpt>
      <trkpt lat="48.51272" lon="7.14234">
        <ele>720.99451</ele>
        <time>2022-08-08T16:42:11.000Z</time>
      </trkpt>
      <trkpt lat="48.51271" lon="7.14237">
        <ele>721.43127</ele>
        <time>2022-08-08T16:42:13.000Z</time>
      </trkpt>
      <trkpt lat="48.51271" lon="7.1424">
        <ele>721.86237</ele>
        <time>2022-08-08T16:42:15.000Z</time>
      </trkpt>
      <trkpt lat="48.5127" lon="7.14243">
        <ele>722.25256</ele>
        <time>2022-08-08T16:42:17.000Z</time>
      </trkpt>
      <trkpt lat="48.51269" lon="7.14246">
        <ele>722.78589</ele>
        <time>2022-08-08T16:42:19.000Z</time>
      </trkpt>
      <trkpt lat="48.51269" lon="7.14249">
        <ele>723.39856</ele>
        <time>2022-08-08T16:42:21.000Z</time>
      </trkpt>
      <trkpt lat="48.51268" lon="7.14253">
        <ele>723.85876</ele>
        <time>2022-08-08T16:42:23.000Z</time>
      </trkpt>
      <trkpt lat="48.51267" lon="7.14257">
        <ele>724.05603</ele>
        <time>2022-08-08T16:42:25.000Z</time>
      </trkpt>
      <trkpt lat="48.51266" lon="7.14262">
        <ele>724.32843</ele>
        <time>2022-08-08T16:42:27.000Z</time>
      </trkpt>
      <trkpt lat="48.51265" lon="7.14265">
        <ele>724.3573</ele>
        <time>2022-08-08T16:42:28.000Z</time>
      </trkpt>
      <trkpt lat="48.51265" lon="7.14269">
        <ele>724.32434</ele>
        <time>2022-08-08T16:42:29.000Z</time>
      </trkpt>
      <trkpt lat="48.51264" lon="7.14273">
        <ele>724.31067</ele>
        <time>2022-08-08T16:42:31.000Z</time>
      </trkpt>
      <trkpt lat="48.51264" lon="7.14276">
        <ele>724.27081</ele>
        <time>2022-08-08T16:42:33.000Z</time>
      </trkpt>
      <trkpt lat="48.51262" lon="7.1428">
        <ele>724.07581</ele>
        <time>2022-08-08T16:42:35.000Z</time>
      </trkpt>
      <trkpt lat="48.5126" lon="7.14284">
        <ele>723.98901</ele>
        <time>2022-08-08T16:42:37.000Z</time>
      </trkpt>
      <trkpt lat="48.5126" lon="7.14289">
        <ele>723.83563</ele>
        <time>2022-08-08T16:42:39.000Z</time>
      </trkpt>
      <trkpt lat="48.51259" lon="7.14293">
        <ele>723.68555</ele>
        <time>2022-08-08T16:42:41.000Z</time>
      </trkpt>
      <trkpt lat="48.51258" lon="7.14297">
        <ele>723.48993</ele>
        <time>2022-08-08T16:42:43.000Z</time>
      </trkpt>
      <trkpt lat="48.51257" lon="7.143">
        <ele>723.19177</ele>
        <time>2022-08-08T16:42:45.000Z</time>
      </trkpt>
      <trkpt lat="48.51257" lon="7.14304">
        <ele>722.97131</ele>
        <time>2022-08-08T16:42:48.000Z</time>
      </trkpt>
      <trkpt lat="48.51257" lon="7.14307">
        <ele>722.77075</ele>
        <time>2022-08-08T16:42:50.000Z</time>
      </trkpt>
      <trkpt lat="48.51256" lon="7.14312">
        <ele>722.53473</ele>
        <time>2022-08-08T16:42:52.000Z</time>
      </trkpt>
      <trkpt lat="48.51256" lon="7.14316">
        <ele>722.33105</ele>
        <time>2022-08-08T16:42:53.000Z</time>
      </trkpt>
      <trkpt lat="48.51257" lon="7.14319">
        <ele>722.00647</ele>
        <time>2022-08-08T16:42:54.000Z</time>
      </trkpt>
      <trkpt lat="48.51257" lon="7.14322">
        <ele>721.65112</ele>
        <time>2022-08-08T16:42:55.000Z</time>
      </trkpt>
      <trkpt lat="48.51257" lon="7.14326">
        <ele>721.27936</ele>
        <time>2022-08-08T16:42:57.000Z</time>
      </trkpt>
      <trkpt lat="48.51256" lon="7.14329">
        <ele>720.89325</ele>
        <time>2022-08-08T16:42:59.000Z</time>
      </trkpt>
      <trkpt lat="48.51256" lon="7.14333">
        <ele>720.55933</ele>
        <time>2022-08-08T16:43:01.000Z</time>
      </trkpt>
      <trkpt lat="48.51256" lon="7.14336">
        <ele>720.22986</ele>
        <time>2022-08-08T16:43:03.000Z</time>
      </trkpt>
      <trkpt lat="48.51257" lon="7.1434">
        <ele>719.96759</ele>
        <time>2022-08-08T16:43:05.000Z</time>
      </trkpt>
      <trkpt lat="48.51256" lon="7.14344">
        <ele>719.71051</ele>
        <time>2022-08-08T16:43:07.000Z</time>
      </trkpt>
      <trkpt lat="48.51256" lon="7.14349">
        <ele>719.5415</ele>
        <time>2022-08-08T16:43:09.000Z</time>
      </trkpt>
      <trkpt lat="48.51256" lon="7.14353">
        <ele>719.33618</ele>
        <time>2022-08-08T16:43:11.000Z</time>
      </trkpt>
      <trkpt lat="48.51255" lon="7.14356">
        <ele>719.33228</ele>
        <time>2022-08-08T16:43:13.000Z</time>
      </trkpt>
      <trkpt lat="48.51256" lon="7.14361">
        <ele>719.25116</ele>
        <time>2022-08-08T16:43:15.000Z</time>
      </trkpt>
      <trkpt lat="48.51255" lon="7.14365">
        <ele>719.28302</ele>
        <time>2022-08-08T16:43:17.000Z</time>
      </trkpt>
      <trkpt lat="48.51255" lon="7.14369">
        <ele>719.4165</ele>
        <time>2022-08-08T16:43:19.000Z</time>
      </trkpt>
      <trkpt lat="48.51254" lon="7.14373">
        <ele>719.62097</ele>
        <time>2022-08-08T16:43:21.000Z</time>
      </trkpt>
      <trkpt lat="48.51254" lon="7.14376">
        <ele>719.81061</ele>
        <time>2022-08-08T16:43:23.000Z</time>
      </trkpt>
      <trkpt lat="48.51253" lon="7.14379">
        <ele>719.98792</ele>
        <time>2022-08-08T16:43:25.000Z</time>
      </trkpt>
      <trkpt lat="48.51253" lon="7.14383">
        <ele>720.16345</ele>
        <time>2022-08-08T16:43:27.000Z</time>
      </trkpt>
      <trkpt lat="48.51253" lon="7.14385">
        <ele>720.32404</ele>
        <time>2022-08-08T16:43:28.000Z</time>
      </trkpt>
      <trkpt lat="48.51253" lon="7.14389">
        <ele>720.47986</ele>
        <time>2022-08-08T16:43:29.000Z</time>
      </trkpt>
      <trkpt lat="48.51252" lon="7.14391">
        <ele>720.73572</ele>
        <time>2022-08-08T16:43:30.000Z</time>
      </trkpt>
      <trkpt lat="48.51249" lon="7.14395">
        <ele>720.9256</ele>
        <time>2022-08-08T16:43:32.000Z</time>
      </trkpt>
      <trkpt lat="48.51247" lon="7.14397">
        <ele>720.95496</ele>
        <time>2022-08-08T16:43:34.000Z</time>
      </trkpt>
      <trkpt lat="48.51244" lon="7.144">
        <ele>720.94031</ele>
        <time>2022-08-08T16:43:36.000Z</time>
      </trkpt>
      <trkpt lat="48.51242" lon="7.144">
        <ele>720.98694</ele>
        <time>2022-08-08T16:43:38.000Z</time>
      </trkpt>
      <trkpt lat="48.5124" lon="7.14403">
        <ele>721.22858</ele>
        <time>2022-08-08T16:43:46.000Z</time>
      </trkpt>
      <trkpt lat="48.51238" lon="7.14407">
        <ele>721.59332</ele>
        <time>2022-08-08T16:43:48.000Z</time>
      </trkpt>
      <trkpt lat="48.51236" lon="7.14409">
        <ele>721.88379</ele>
        <time>2022-08-08T16:43:50.000Z</time>
      </trkpt>
      <trkpt lat="48.51233" lon="7.14411">
        <ele>722.08508</ele>
        <time>2022-08-08T16:43:52.000Z</time>
      </trkpt>
      <trkpt lat="48.5123" lon="7.14412">
        <ele>722.28064</ele>
        <time>2022-08-08T16:43:54.000Z</time>
      </trkpt>
      <trkpt lat="48.51227" lon="7.14415">
        <ele>722.422</ele>
        <time>2022-08-08T16:43:56.000Z</time>
      </trkpt>
      <trkpt lat="48.51225" lon="7.14417">
        <ele>722.61377</ele>
        <time>2022-08-08T16:43:58.000Z</time>
      </trkpt>
      <trkpt lat="48.51222" lon="7.14416">
        <ele>722.81531</ele>
        <time>2022-08-08T16:44:01.000Z</time>
      </trkpt>
      <trkpt lat="48.5122" lon="7.14416">
        <ele>722.91559</ele>
        <time>2022-08-08T16:44:03.000Z</time>
      </trkpt>
      <trkpt lat="48.51218" lon="7.14418">
        <ele>723.03717</ele>
        <time>2022-08-08T16:44:05.000Z</time>
      </trkpt>
      <trkpt lat="48.51216" lon="7.14418">
        <ele>723.2243</ele>
        <time>2022-08-08T16:44:07.000Z</time>
      </trkpt>
      <trkpt lat="48.51213" lon="7.14419">
        <ele>723.33917</ele>
        <time>2022-08-08T16:44:09.000Z</time>
      </trkpt>
      <trkpt lat="48.51212" lon="7.1442">
        <ele>723.35913</ele>
        <time>2022-08-08T16:44:11.000Z</time>
      </trkpt>
      <trkpt lat="48.51209" lon="7.14423">
        <ele>723.47046</ele>
        <time>2022-08-08T16:44:13.000Z</time>
      </trkpt>
      <trkpt lat="48.51206" lon="7.14424">
        <ele>723.42578</ele>
        <time>2022-08-08T16:44:15.000Z</time>
      </trkpt>
      <trkpt lat="48.51203" lon="7.14426">
        <ele>723.44202</ele>
        <time>2022-08-08T16:44:17.000Z</time>
      </trkpt>
      <trkpt lat="48.512" lon="7.14426">
        <ele>723.5199</ele>
        <time>2022-08-08T16:44:19.000Z</time>
      </trkpt>
      <trkpt lat="48.51198" lon="7.14428">
        <ele>723.59497</ele>
        <time>2022-08-08T16:44:21.000Z</time>
      </trkpt>
      <trkpt lat="48.51196" lon="7.14428">
        <ele>723.67987</ele>
        <time>2022-08-08T16:44:23.000Z</time>
      </trkpt>
      <trkpt lat="48.51194" lon="7.14428">
        <ele>723.75348</ele>
        <time>2022-08-08T16:44:25.000Z</time>
      </trkpt>
      <trkpt lat="48.51192" lon="7.1443">
        <ele>723.71722</ele>
        <time>2022-08-08T16:44:27.000Z</time>
      </trkpt>
      <trkpt lat="48.5119" lon="7.14431">
        <ele>723.6496</ele>
        <time>2022-08-08T16:44:28.000Z</time>
      </trkpt>
      <trkpt lat="48.51188" lon="7.14431">
        <ele>723.59406</ele>
        <time>2022-08-08T16:44:29.000Z</time>
      </trkpt>
      <trkpt lat="48.51185" lon="7.14434">
        <ele>723.61572</ele>
        <time>2022-08-08T16:44:31.000Z</time>
      </trkpt>
      <trkpt lat="48.51183" lon="7.14435">
        <ele>723.6662</ele>
        <time>2022-08-08T16:44:34.000Z</time>
      </trkpt>
      <trkpt lat="48.51181" lon="7.14436">
        <ele>723.70929</ele>
        <time>2022-08-08T16:44:36.000Z</time>
      </trkpt>
      <trkpt lat="48.51179" lon="7.14438">
        <ele>723.85492</ele>
        <time>2022-08-08T16:44:38.000Z</time>
      </trkpt>
      <trkpt lat="48.51177" lon="7.14441">
        <ele>724.04004</ele>
        <time>2022-08-08T16:44:40.000Z</time>
      </trkpt>
      <trkpt lat="48.51176" lon="7.14443">
        <ele>724.36847</ele>
        <time>2022-08-08T16:44:42.000Z</time>
      </trkpt>
      <trkpt lat="48.51174" lon="7.14444">
        <ele>724.65234</ele>
        <time>2022-08-08T16:44:44.000Z</time>
      </trkpt>
      <trkpt lat="48.51172" lon="7.14446">
        <ele>724.91199</ele>
        <time>2022-08-08T16:44:46.000Z</time>
      </trkpt>
      <trkpt lat="48.51173" lon="7.14445">
        <ele>725.30548</ele>
        <time>2022-08-08T16:44:49.000Z</time>
      </trkpt>
      <trkpt lat="48.51172" lon="7.14446">
        <ele>725.8913</ele>
        <time>2022-08-08T16:44:58.000Z</time>
      </trkpt>
      <trkpt lat="48.5117" lon="7.14448">
        <ele>726.3869</ele>
        <time>2022-08-08T16:45:01.000Z</time>
      </trkpt>
      <trkpt lat="48.51168" lon="7.14449">
        <ele>727.02985</ele>
        <time>2022-08-08T16:45:03.000Z</time>
      </trkpt>
      <trkpt lat="48.51167" lon="7.14451">
        <ele>727.56476</ele>
        <time>2022-08-08T16:45:05.000Z</time>
      </trkpt>
      <trkpt lat="48.51164" lon="7.14453">
        <ele>728.02411</ele>
        <time>2022-08-08T16:45:07.000Z</time>
      </trkpt>
      <trkpt lat="48.51163" lon="7.14454">
        <ele>728.58582</ele>
        <time>2022-08-08T16:45:08.000Z</time>
      </trkpt>
      <trkpt lat="48.51161" lon="7.14456">
        <ele>729.08752</ele>
        <time>2022-08-08T16:45:09.000Z</time>
      </trkpt>
      <trkpt lat="48.51158" lon="7.14459">
        <ele>729.52545</ele>
        <time>2022-08-08T16:45:11.000Z</time>
      </trkpt>
      <trkpt lat="48.51156" lon="7.14461">
        <ele>729.85797</ele>
        <time>2022-08-08T16:45:13.000Z</time>
      </trkpt>
      <trkpt lat="48.51153" lon="7.14463">
        <ele>730.17542</ele>
        <time>2022-08-08T16:45:15.000Z</time>
      </trkpt>
      <trkpt lat="48.51151" lon="7.14465">
        <ele>730.5813</ele>
        <time>2022-08-08T16:45:17.000Z</time>
      </trkpt>
      <trkpt lat="48.51148" lon="7.14467">
        <ele>730.93707</ele>
        <time>2022-08-08T16:45:19.000Z</time>
      </trkpt>
      <trkpt lat="48.51146" lon="7.14469">
        <ele>731.37537</ele>
        <time>2022-08-08T16:45:21.000Z</time>
      </trkpt>
      <trkpt lat="48.51144" lon="7.14471">
        <ele>731.87494</ele>
        <time>2022-08-08T16:45:24.000Z</time>
      </trkpt>
      <trkpt lat="48.51142" lon="7.14473">
        <ele>732.33038</ele>
        <time>2022-08-08T16:45:27.000Z</time>
      </trkpt>
      <trkpt lat="48.5114" lon="7.14473">
        <ele>732.75531</ele>
        <time>2022-08-08T16:45:29.000Z</time>
      </trkpt>
      <trkpt lat="48.51137" lon="7.14474">
        <ele>733.02356</ele>
        <time>2022-08-08T16:45:32.000Z</time>
      </trkpt>
      <trkpt lat="48.51136" lon="7.14476">
        <ele>733.32092</ele>
        <time>2022-08-08T16:45:34.000Z</time>
      </trkpt>
      <trkpt lat="48.51134" lon="7.14477">
        <ele>733.53156</ele>
        <time>2022-08-08T16:45:36.000Z</time>
      </trkpt>
      <trkpt lat="48.51132" lon="7.14477">
        <ele>733.66766</ele>
        <time>2022-08-08T16:45:38.000Z</time>
      </trkpt>
      <trkpt lat="48.5113" lon="7.14478">
        <ele>733.7074</ele>
        <time>2022-08-08T16:45:40.000Z</time>
      </trkpt>
      <trkpt lat="48.51127" lon="7.14479">
        <ele>733.8136</ele>
        <time>2022-08-08T16:45:43.000Z</time>
      </trkpt>
      <trkpt lat="48.51125" lon="7.1448">
        <ele>733.88385</ele>
        <time>2022-08-08T16:45:45.000Z</time>
      </trkpt>
      <trkpt lat="48.51123" lon="7.14482">
        <ele>733.9762</ele>
        <time>2022-08-08T16:45:47.000Z</time>
      </trkpt>
      <trkpt lat="48.51121" lon="7.14482">
        <ele>734.09851</ele>
        <time>2022-08-08T16:45:49.000Z</time>
      </trkpt>
      <trkpt lat="48.51118" lon="7.14482">
        <ele>734.14801</ele>
        <time>2022-08-08T16:45:51.000Z</time>
      </trkpt>
      <trkpt lat="48.51116" lon="7.14482">
        <ele>734.29767</ele>
        <time>2022-08-08T16:45:53.000Z</time>
      </trkpt>
      <trkpt lat="48.51113" lon="7.14483">
        <ele>734.50842</ele>
        <time>2022-08-08T16:45:55.000Z</time>
      </trkpt>
      <trkpt lat="48.51111" lon="7.14484">
        <ele>734.79382</ele>
        <time>2022-08-08T16:45:57.000Z</time>
      </trkpt>
      <trkpt lat="48.51109" lon="7.14485">
        <ele>735.07532</ele>
        <time>2022-08-08T16:45:59.000Z</time>
      </trkpt>
      <trkpt lat="48.51106" lon="7.14485">
        <ele>735.39734</ele>
        <time>2022-08-08T16:46:01.000Z</time>
      </trkpt>
      <trkpt lat="48.51104" lon="7.14485">
        <ele>735.75085</ele>
        <time>2022-08-08T16:46:03.000Z</time>
      </trkpt>
      <trkpt lat="48.51102" lon="7.14485">
        <ele>736.05884</ele>
        <time>2022-08-08T16:46:05.000Z</time>
      </trkpt>
      <trkpt lat="48.511" lon="7.14484">
        <ele>736.23511</ele>
        <time>2022-08-08T16:46:07.000Z</time>
      </trkpt>
      <trkpt lat="48.51098" lon="7.14485">
        <ele>736.39618</ele>
        <time>2022-08-08T16:46:09.000Z</time>
      </trkpt>
      <trkpt lat="48.51096" lon="7.14485">
        <ele>736.52216</ele>
        <time>2022-08-08T16:46:11.000Z</time>
      </trkpt>
      <trkpt lat="48.51093" lon="7.14485">
        <ele>736.6449</ele>
        <time>2022-08-08T16:46:13.000Z</time>
      </trkpt>
      <trkpt lat="48.51091" lon="7.14484">
        <ele>736.70618</ele>
        <time>2022-08-08T16:46:15.000Z</time>
      </trkpt>
      <trkpt lat="48.51088" lon="7.14483">
        <ele>736.89606</ele>
        <time>2022-08-08T16:46:17.000Z</time>
      </trkpt>
      <trkpt lat="48.51086" lon="7.14482">
        <ele>736.9967</ele>
        <time>2022-08-08T16:46:19.000Z</time>
      </trkpt>
      <trkpt lat="48.51083" lon="7.14481">
        <ele>737.13586</ele>
        <time>2022-08-08T16:46:21.000Z</time>
      </trkpt>
      <trkpt lat="48.51081" lon="7.14481">
        <ele>737.29999</ele>
        <time>2022-08-08T16:46:23.000Z</time>
      </trkpt>
      <trkpt lat="48.51079" lon="7.1448">
        <ele>737.53455</ele>
        <time>2022-08-08T16:46:25.000Z</time>
      </trkpt>
      <trkpt lat="48.51076" lon="7.1448">
        <ele>737.83142</ele>
        <time>2022-08-08T16:46:27.000Z</time>
      </trkpt>
      <trkpt lat="48.51074" lon="7.1448">
        <ele>738.20447</ele>
        <time>2022-08-08T16:46:29.000Z</time>
      </trkpt>
      <trkpt lat="48.51071" lon="7.1448">
        <ele>738.61859</ele>
        <time>2022-08-08T16:46:31.000Z</time>
      </trkpt>
      <trkpt lat="48.51069" lon="7.1448">
        <ele>739.07782</ele>
        <time>2022-08-08T16:46:33.000Z</time>
      </trkpt>
      <trkpt lat="48.51066" lon="7.1448">
        <ele>739.56018</ele>
        <time>2022-08-08T16:46:35.000Z</time>
      </trkpt>
      <trkpt lat="48.51064" lon="7.1448">
        <ele>739.98254</ele>
        <time>2022-08-08T16:46:37.000Z</time>
      </trkpt>
      <trkpt lat="48.51062" lon="7.14481">
        <ele>740.38953</ele>
        <time>2022-08-08T16:46:39.000Z</time>
      </trkpt>
      <trkpt lat="48.51059" lon="7.14481">
        <ele>740.73987</ele>
        <time>2022-08-08T16:46:41.000Z</time>
      </trkpt>
      <trkpt lat="48.51056" lon="7.14481">
        <ele>741.03656</ele>
        <time>2022-08-08T16:46:43.000Z</time>
      </trkpt>
      <trkpt lat="48.51053" lon="7.14483">
        <ele>741.39221</ele>
        <time>2022-08-08T16:46:45.000Z</time>
      </trkpt>
      <trkpt lat="48.51051" lon="7.14483">
        <ele>741.73547</ele>
        <time>2022-08-08T16:46:47.000Z</time>
      </trkpt>
      <trkpt lat="48.51048" lon="7.14484">
        <ele>742.10315</ele>
        <time>2022-08-08T16:46:49.000Z</time>
      </trkpt>
      <trkpt lat="48.51045" lon="7.14485">
        <ele>742.56433</ele>
        <time>2022-08-08T16:46:51.000Z</time>
      </trkpt>
      <trkpt lat="48.51042" lon="7.14486">
        <ele>743.09314</ele>
        <time>2022-08-08T16:46:53.000Z</time>
      </trkpt>
      <trkpt lat="48.51039" lon="7.14486">
        <ele>743.60358</ele>
        <time>2022-08-08T16:46:55.000Z</time>
      </trkpt>
      <trkpt lat="48.51035" lon="7.14487">
        <ele>744.10211</ele>
        <time>2022-08-08T16:46:57.000Z</time>
      </trkpt>
      <trkpt lat="48.51032" lon="7.14488">
        <ele>744.60217</ele>
        <time>2022-08-08T16:46:59.000Z</time>
      </trkpt>
      <trkpt lat="48.51029" lon="7.14488">
        <ele>745.06702</ele>
        <time>2022-08-08T16:47:01.000Z</time>
      </trkpt>
      <trkpt lat="48.51026" lon="7.14489">
        <ele>745.38916</ele>
        <time>2022-08-08T16:47:03.000Z</time>
      </trkpt>
      <trkpt lat="48.51022" lon="7.14491">
        <ele>745.57629</ele>
        <time>2022-08-08T16:47:05.000Z</time>
      </trkpt>
      <trkpt lat="48.51019" lon="7.14492">
        <ele>745.77795</ele>
        <time>2022-08-08T16:47:07.000Z</time>
      </trkpt>
      <trkpt lat="48.51016" lon="7.14493">
        <ele>745.93054</ele>
        <time>2022-08-08T16:47:09.000Z</time>
      </trkpt>
      <trkpt lat="48.51014" lon="7.14494">
        <ele>746.08411</ele>
        <time>2022-08-08T16:47:10.000Z</time>
      </trkpt>
      <trkpt lat="48.51011" lon="7.14495">
        <ele>746.2038</ele>
        <time>2022-08-08T16:47:12.000Z</time>
      </trkpt>
      <trkpt lat="48.51007" lon="7.14496">
        <ele>746.23535</ele>
        <time>2022-08-08T16:47:14.000Z</time>
      </trkpt>
      <trkpt lat="48.51005" lon="7.14498">
        <ele>746.18988</ele>
        <time>2022-08-08T16:47:16.000Z</time>
      </trkpt>
      <trkpt lat="48.51003" lon="7.14501">
        <ele>746.12939</ele>
        <time>2022-08-08T16:47:18.000Z</time>
      </trkpt>
      <trkpt lat="48.51" lon="7.14503">
        <ele>746.07294</ele>
        <time>2022-08-08T16:47:20.000Z</time>
      </trkpt>
      <trkpt lat="48.50997" lon="7.14505">
        <ele>746.01819</ele>
        <time>2022-08-08T16:47:22.000Z</time>
      </trkpt>
      <trkpt lat="48.50993" lon="7.14506">
        <ele>745.91974</ele>
        <time>2022-08-08T16:47:24.000Z</time>
      </trkpt>
      <trkpt lat="48.50992" lon="7.14508">
        <ele>745.78754</ele>
        <time>2022-08-08T16:47:25.000Z</time>
      </trkpt>
      <trkpt lat="48.50989" lon="7.1451">
        <ele>745.64783</ele>
        <time>2022-08-08T16:47:27.000Z</time>
      </trkpt>
      <trkpt lat="48.50986" lon="7.14512">
        <ele>745.43225</ele>
        <time>2022-08-08T16:47:29.000Z</time>
      </trkpt>
      <trkpt lat="48.50984" lon="7.14514">
        <ele>745.1792</ele>
        <time>2022-08-08T16:47:31.000Z</time>
      </trkpt>
      <trkpt lat="48.50981" lon="7.14516">
        <ele>744.93213</ele>
        <time>2022-08-08T16:47:33.000Z</time>
      </trkpt>
      <trkpt lat="48.50979" lon="7.14517">
        <ele>744.65509</ele>
        <time>2022-08-08T16:47:35.000Z</time>
      </trkpt>
      <trkpt lat="48.50976" lon="7.14518">
        <ele>744.34674</ele>
        <time>2022-08-08T16:47:37.000Z</time>
      </trkpt>
      <trkpt lat="48.50973" lon="7.14519">
        <ele>744.05334</ele>
        <time>2022-08-08T16:47:39.000Z</time>
      </trkpt>
      <trkpt lat="48.5097" lon="7.1452">
        <ele>743.88867</ele>
        <time>2022-08-08T16:47:41.000Z</time>
      </trkpt>
      <trkpt lat="48.50968" lon="7.14521">
        <ele>743.82135</ele>
        <time>2022-08-08T16:47:42.000Z</time>
      </trkpt>
      <trkpt lat="48.50965" lon="7.14524">
        <ele>743.6618</ele>
        <time>2022-08-08T16:47:44.000Z</time>
      </trkpt>
      <trkpt lat="48.50963" lon="7.14526">
        <ele>743.52051</ele>
        <time>2022-08-08T16:47:45.000Z</time>
      </trkpt>
      <trkpt lat="48.50961" lon="7.14527">
        <ele>743.42706</ele>
        <time>2022-08-08T16:47:47.000Z</time>
      </trkpt>
      <trkpt lat="48.50958" lon="7.14528">
        <ele>743.23914</ele>
        <time>2022-08-08T16:47:49.000Z</time>
      </trkpt>
      <trkpt lat="48.50955" lon="7.1453">
        <ele>743.05121</ele>
        <time>2022-08-08T16:47:51.000Z</time>
      </trkpt>
      <trkpt lat="48.50952" lon="7.14532">
        <ele>742.89966</ele>
        <time>2022-08-08T16:47:53.000Z</time>
      </trkpt>
      <trkpt lat="48.50949" lon="7.14533">
        <ele>742.78296</ele>
        <time>2022-08-08T16:47:55.000Z</time>
      </trkpt>
      <trkpt lat="48.50947" lon="7.14534">
        <ele>742.62817</ele>
        <time>2022-08-08T16:47:57.000Z</time>
      </trkpt>
      <trkpt lat="48.50944" lon="7.14537">
        <ele>742.42383</ele>
        <time>2022-08-08T16:47:59.000Z</time>
      </trkpt>
      <trkpt lat="48.50942" lon="7.14538">
        <ele>742.28845</ele>
        <time>2022-08-08T16:48:01.000Z</time>
      </trkpt>
      <trkpt lat="48.50939" lon="7.1454">
        <ele>742.28333</ele>
        <time>2022-08-08T16:48:03.000Z</time>
      </trkpt>
      <trkpt lat="48.50937" lon="7.14541">
        <ele>742.29816</ele>
        <time>2022-08-08T16:48:04.000Z</time>
      </trkpt>
      <trkpt lat="48.50935" lon="7.14544">
        <ele>742.26135</ele>
        <time>2022-08-08T16:48:06.000Z</time>
      </trkpt>
      <trkpt lat="48.50933" lon="7.14546">
        <ele>742.03192</ele>
        <time>2022-08-08T16:48:08.000Z</time>
      </trkpt>
      <trkpt lat="48.5093" lon="7.14548">
        <ele>741.88147</ele>
        <time>2022-08-08T16:48:10.000Z</time>
      </trkpt>
      <trkpt lat="48.50927" lon="7.14549">
        <ele>741.75787</ele>
        <time>2022-08-08T16:48:12.000Z</time>
      </trkpt>
      <trkpt lat="48.50925" lon="7.14552">
        <ele>741.69006</ele>
        <time>2022-08-08T16:48:14.000Z</time>
      </trkpt>
      <trkpt lat="48.50922" lon="7.14555">
        <ele>741.62903</ele>
        <time>2022-08-08T16:48:16.000Z</time>
      </trkpt>
      <trkpt lat="48.50919" lon="7.14557">
        <ele>741.43231</ele>
        <time>2022-08-08T16:48:18.000Z</time>
      </trkpt>
      <trkpt lat="48.50917" lon="7.14557">
        <ele>741.16632</ele>
        <time>2022-08-08T16:48:19.000Z</time>
      </trkpt>
      <trkpt lat="48.50915" lon="7.14558">
        <ele>740.9325</ele>
        <time>2022-08-08T16:48:20.000Z</time>
      </trkpt>
      <trkpt lat="48.50914" lon="7.14559">
        <ele>740.69348</ele>
        <time>2022-08-08T16:48:21.000Z</time>
      </trkpt>
      <trkpt lat="48.50912" lon="7.1456">
        <ele>740.47675</ele>
        <time>2022-08-08T16:48:22.000Z</time>
      </trkpt>
      <trkpt lat="48.5091" lon="7.14561">
        <ele>740.30188</ele>
        <time>2022-08-08T16:48:23.000Z</time>
      </trkpt>
      <trkpt lat="48.50907" lon="7.14563">
        <ele>740.12585</ele>
        <time>2022-08-08T16:48:25.000Z</time>
      </trkpt>
      <trkpt lat="48.50904" lon="7.14564">
        <ele>740.05017</ele>
        <time>2022-08-08T16:48:27.000Z</time>
      </trkpt>
      <trkpt lat="48.50902" lon="7.14565">
        <ele>739.92639</ele>
        <time>2022-08-08T16:48:29.000Z</time>
      </trkpt>
      <trkpt lat="48.509" lon="7.14567">
        <ele>739.91699</ele>
        <time>2022-08-08T16:48:34.000Z</time>
      </trkpt>
      <trkpt lat="48.50899" lon="7.14567">
        <ele>739.89539</ele>
        <time>2022-08-08T16:48:41.000Z</time>
      </trkpt>
      <trkpt lat="48.50895" lon="7.14566">
        <ele>739.82251</ele>
        <time>2022-08-08T16:48:43.000Z</time>
      </trkpt>
      <trkpt lat="48.50893" lon="7.14567">
        <ele>739.64362</ele>
        <time>2022-08-08T16:48:44.000Z</time>
      </trkpt>
      <trkpt lat="48.50891" lon="7.14569">
        <ele>739.42615</ele>
        <time>2022-08-08T16:48:45.000Z</time>
      </trkpt>
      <trkpt lat="48.5089" lon="7.14574">
        <ele>739.19031</ele>
        <time>2022-08-08T16:48:46.000Z</time>
      </trkpt>
      <trkpt lat="48.5089" lon="7.14577">
        <ele>739.10968</ele>
        <time>2022-08-08T16:48:47.000Z</time>
      </trkpt>
      <trkpt lat="48.50895" lon="7.14576">
        <ele>739.37268</ele>
        <time>2022-08-08T16:48:48.000Z</time>
      </trkpt>
      <trkpt lat="48.50897" lon="7.14575">
        <ele>739.61877</ele>
        <time>2022-08-08T16:48:51.000Z</time>
      </trkpt>
      <trkpt lat="48.50896" lon="7.14579">
        <ele>739.92542</ele>
        <time>2022-08-08T16:49:04.000Z</time>
      </trkpt>
      <trkpt lat="48.50894" lon="7.14585">
        <ele>740.16077</ele>
        <time>2022-08-08T16:49:07.000Z</time>
      </trkpt>
      <trkpt lat="48.50894" lon="7.14589">
        <ele>740.44519</ele>
        <time>2022-08-08T16:49:09.000Z</time>
      </trkpt>
      <trkpt lat="48.50893" lon="7.14591">
        <ele>740.76782</ele>
        <time>2022-08-08T16:49:11.000Z</time>
      </trkpt>
      <trkpt lat="48.50892" lon="7.14595">
        <ele>741.08612</ele>
        <time>2022-08-08T16:49:14.000Z</time>
      </trkpt>
      <trkpt lat="48.50892" lon="7.14598">
        <ele>741.44153</ele>
        <time>2022-08-08T16:49:16.000Z</time>
      </trkpt>
      <trkpt lat="48.50891" lon="7.14601">
        <ele>741.79089</ele>
        <time>2022-08-08T16:49:18.000Z</time>
      </trkpt>
      <trkpt lat="48.5089" lon="7.14603">
        <ele>742.16168</ele>
        <time>2022-08-08T16:49:20.000Z</time>
      </trkpt>
      <trkpt lat="48.50888" lon="7.14606">
        <ele>742.62878</ele>
        <time>2022-08-08T16:49:22.000Z</time>
      </trkpt>
      <trkpt lat="48.50887" lon="7.14608">
        <ele>743.17944</ele>
        <time>2022-08-08T16:49:24.000Z</time>
      </trkpt>
      <trkpt lat="48.50887" lon="7.14612">
        <ele>743.76849</ele>
        <time>2022-08-08T16:49:26.000Z</time>
      </trkpt>
      <trkpt lat="48.50887" lon="7.14615">
        <ele>744.33514</ele>
        <time>2022-08-08T16:49:28.000Z</time>
      </trkpt>
      <trkpt lat="48.50886" lon="7.14618">
        <ele>744.98956</ele>
        <time>2022-08-08T16:49:30.000Z</time>
      </trkpt>
      <trkpt lat="48.50885" lon="7.14621">
        <ele>745.61658</ele>
        <time>2022-08-08T16:49:32.000Z</time>
      </trkpt>
      <trkpt lat="48.50884" lon="7.14624">
        <ele>746.28217</ele>
        <time>2022-08-08T16:49:34.000Z</time>
      </trkpt>
      <trkpt lat="48.50883" lon="7.14627">
        <ele>746.95398</ele>
        <time>2022-08-08T16:49:36.000Z</time>
      </trkpt>
      <trkpt lat="48.50883" lon="7.1463">
        <ele>747.70728</ele>
        <time>2022-08-08T16:49:38.000Z</time>
      </trkpt>
      <trkpt lat="48.50882" lon="7.14633">
        <ele>748.47937</ele>
        <time>2022-08-08T16:49:40.000Z</time>
      </trkpt>
      <trkpt lat="48.50882" lon="7.14636">
        <ele>748.92627</ele>
        <time>2022-08-08T16:49:42.000Z</time>
      </trkpt>
      <trkpt lat="48.50881" lon="7.1464">
        <ele>749.40234</ele>
        <time>2022-08-08T16:49:44.000Z</time>
      </trkpt>
      <trkpt lat="48.5088" lon="7.14645">
        <ele>749.72723</ele>
        <time>2022-08-08T16:49:46.000Z</time>
      </trkpt>
      <trkpt lat="48.5088" lon="7.14647">
        <ele>750.02386</ele>
        <time>2022-08-08T16:49:47.000Z</time>
      </trkpt>
      <trkpt lat="48.50879" lon="7.1465">
        <ele>750.37512</ele>
        <time>2022-08-08T16:49:49.000Z</time>
      </trkpt>
      <trkpt lat="48.50878" lon="7.14654">
        <ele>750.71973</ele>
        <time>2022-08-08T16:49:51.000Z</time>
      </trkpt>
      <trkpt lat="48.50876" lon="7.14658">
        <ele>751.0675</ele>
        <time>2022-08-08T16:49:53.000Z</time>
      </trkpt>
      <trkpt lat="48.50875" lon="7.14662">
        <ele>751.2912</ele>
        <time>2022-08-08T16:49:55.000Z</time>
      </trkpt>
      <trkpt lat="48.50873" lon="7.14665">
        <ele>751.43628</ele>
        <time>2022-08-08T16:49:57.000Z</time>
      </trkpt>
      <trkpt lat="48.50872" lon="7.14668">
        <ele>751.49786</ele>
        <time>2022-08-08T16:49:59.000Z</time>
      </trkpt>
      <trkpt lat="48.50871" lon="7.14673">
        <ele>751.474</ele>
        <time>2022-08-08T16:50:01.000Z</time>
      </trkpt>
      <trkpt lat="48.5087" lon="7.14675">
        <ele>751.27155</ele>
        <time>2022-08-08T16:50:02.000Z</time>
      </trkpt>
      <trkpt lat="48.5087" lon="7.14678">
        <ele>751.06702</ele>
        <time>2022-08-08T16:50:04.000Z</time>
      </trkpt>
      <trkpt lat="48.5087" lon="7.14682">
        <ele>750.65375</ele>
        <time>2022-08-08T16:50:06.000Z</time>
      </trkpt>
      <trkpt lat="48.50871" lon="7.14684">
        <ele>750.18054</ele>
        <time>2022-08-08T16:50:13.000Z</time>
      </trkpt>
      <trkpt lat="48.5087" lon="7.14687">
        <ele>749.58948</ele>
        <time>2022-08-08T16:50:16.000Z</time>
      </trkpt>
      <trkpt lat="48.50868" lon="7.14689">
        <ele>748.96838</ele>
        <time>2022-08-08T16:50:18.000Z</time>
      </trkpt>
      <trkpt lat="48.50866" lon="7.14691">
        <ele>748.28015</ele>
        <time>2022-08-08T16:50:19.000Z</time>
      </trkpt>
      <trkpt lat="48.50864" lon="7.14692">
        <ele>747.5329</ele>
        <time>2022-08-08T16:50:20.000Z</time>
      </trkpt>
      <trkpt lat="48.50862" lon="7.14693">
        <ele>746.78986</ele>
        <time>2022-08-08T16:50:21.000Z</time>
      </trkpt>
      <trkpt lat="48.50861" lon="7.14695">
        <ele>745.99786</ele>
        <time>2022-08-08T16:50:23.000Z</time>
      </trkpt>
      <trkpt lat="48.50857" lon="7.14698">
        <ele>745.00446</ele>
        <time>2022-08-08T16:50:25.000Z</time>
      </trkpt>
      <trkpt lat="48.50857" lon="7.14701">
        <ele>744.12134</ele>
        <time>2022-08-08T16:50:26.000Z</time>
      </trkpt>
      <trkpt lat="48.50857" lon="7.14705">
        <ele>743.19244</ele>
        <time>2022-08-08T16:50:27.000Z</time>
      </trkpt>
      <trkpt lat="48.50858" lon="7.14707">
        <ele>742.3302</ele>
        <time>2022-08-08T16:50:28.000Z</time>
      </trkpt>
      <trkpt lat="48.5086" lon="7.1471">
        <ele>741.52405</ele>
        <time>2022-08-08T16:50:51.000Z</time>
      </trkpt>
      <trkpt lat="48.50863" lon="7.14711">
        <ele>740.67694</ele>
        <time>2022-08-08T16:50:53.000Z</time>
      </trkpt>
      <trkpt lat="48.50865" lon="7.14708">
        <ele>739.90601</ele>
        <time>2022-08-08T16:50:56.000Z</time>
      </trkpt>
      <trkpt lat="48.50866" lon="7.14706">
        <ele>739.13251</ele>
        <time>2022-08-08T16:50:57.000Z</time>
      </trkpt>
      <trkpt lat="48.50869" lon="7.14703">
        <ele>738.36816</ele>
        <time>2022-08-08T16:50:59.000Z</time>
      </trkpt>
      <trkpt lat="48.50872" lon="7.14704">
        <ele>737.68689</ele>
        <time>2022-08-08T16:51:01.000Z</time>
      </trkpt>
      <trkpt lat="48.50873" lon="7.14707">
        <ele>737.11707</ele>
        <time>2022-08-08T16:51:03.000Z</time>
      </trkpt>
      <trkpt lat="48.50873" lon="7.14712">
        <ele>736.41119</ele>
        <time>2022-08-08T16:51:05.000Z</time>
      </trkpt>
      <trkpt lat="48.50871" lon="7.14714">
        <ele>735.82489</ele>
        <time>2022-08-08T16:51:11.000Z</time>
      </trkpt>
      <trkpt lat="48.50869" lon="7.14713">
        <ele>735.25183</ele>
        <time>2022-08-08T16:51:34.000Z</time>
      </trkpt>
      <trkpt lat="48.50869" lon="7.14709">
        <ele>734.70935</ele>
        <time>2022-08-08T16:51:36.000Z</time>
      </trkpt>
      <trkpt lat="48.50869" lon="7.14705">
        <ele>734.09076</ele>
        <time>2022-08-08T16:51:38.000Z</time>
      </trkpt>
      <trkpt lat="48.50871" lon="7.14704">
        <ele>733.43591</ele>
        <time>2022-08-08T16:51:40.000Z</time>
      </trkpt>
      <trkpt lat="48.50873" lon="7.14704">
        <ele>733.04767</ele>
        <time>2022-08-08T16:51:43.000Z</time>
      </trkpt>
      <trkpt lat="48.50874" lon="7.14709">
        <ele>732.73279</ele>
        <time>2022-08-08T16:51:53.000Z</time>
      </trkpt>
      <trkpt lat="48.50872" lon="7.14711">
        <ele>732.44031</ele>
        <time>2022-08-08T16:51:55.000Z</time>
      </trkpt>
      <trkpt lat="48.5087" lon="7.14709">
        <ele>732.2359</ele>
        <time>2022-08-08T16:51:57.000Z</time>
      </trkpt>
      <trkpt lat="48.5087" lon="7.14706">
        <ele>731.95691</ele>
        <time>2022-08-08T16:51:59.000Z</time>
      </trkpt>
      <trkpt lat="48.50873" lon="7.14706">
        <ele>731.815</ele>
        <time>2022-08-08T16:52:00.000Z</time>
      </trkpt>
      <trkpt lat="48.50874" lon="7.1471">
        <ele>731.58148</ele>
        <time>2022-08-08T16:52:01.000Z</time>
      </trkpt>
      <trkpt lat="48.50873" lon="7.14713">
        <ele>731.26758</ele>
        <time>2022-08-08T16:52:03.000Z</time>
      </trkpt>
      <trkpt lat="48.50871" lon="7.14716">
        <ele>731.01392</ele>
        <time>2022-08-08T16:52:05.000Z</time>
      </trkpt>
      <trkpt lat="48.50869" lon="7.14715">
        <ele>730.79431</ele>
        <time>2022-08-08T16:53:20.000Z</time>
      </trkpt>
      <trkpt lat="48.50868" lon="7.14713">
        <ele>730.63843</ele>
        <time>2022-08-08T16:53:29.000Z</time>
      </trkpt>
      <trkpt lat="48.50865" lon="7.14709">
        <ele>730.6156</ele>
        <time>2022-08-08T16:53:42.000Z</time>
      </trkpt>
      <trkpt lat="48.50863" lon="7.14708">
        <ele>730.47498</ele>
        <time>2022-08-08T16:53:48.000Z</time>
      </trkpt>
      <trkpt lat="48.50861" lon="7.14707">
        <ele>730.28009</ele>
        <time>2022-08-08T16:53:50.000Z</time>
      </trkpt>
      <trkpt lat="48.50859" lon="7.14707">
        <ele>730.28174</ele>
        <time>2022-08-08T16:53:52.000Z</time>
      </trkpt>
      <trkpt lat="48.50857" lon="7.14707">
        <ele>730.45477</ele>
        <time>2022-08-08T16:53:55.000Z</time>
      </trkpt>
      <trkpt lat="48.50855" lon="7.14707">
        <ele>730.77576</ele>
        <time>2022-08-08T16:53:57.000Z</time>
      </trkpt>
      <trkpt lat="48.50853" lon="7.14707">
        <ele>731.16321</ele>
        <time>2022-08-08T16:54:00.000Z</time>
      </trkpt>
      <trkpt lat="48.50851" lon="7.14708">
        <ele>731.73303</ele>
        <time>2022-08-08T16:54:03.000Z</time>
      </trkpt>
      <trkpt lat="48.50849" lon="7.1471">
        <ele>732.54034</ele>
        <time>2022-08-08T16:54:06.000Z</time>
      </trkpt>
      <trkpt lat="48.50847" lon="7.14711">
        <ele>733.15533</ele>
        <time>2022-08-08T16:54:08.000Z</time>
      </trkpt>
      <trkpt lat="48.50844" lon="7.14711">
        <ele>733.77405</ele>
        <time>2022-08-08T16:54:10.000Z</time>
      </trkpt>
      <trkpt lat="48.50842" lon="7.14711">
        <ele>734.396</ele>
        <time>2022-08-08T16:54:12.000Z</time>
      </trkpt>
      <trkpt lat="48.5084" lon="7.1471">
        <ele>735.11749</ele>
        <time>2022-08-08T16:54:14.000Z</time>
      </trkpt>
      <trkpt lat="48.50838" lon="7.14711">
        <ele>735.96344</ele>
        <time>2022-08-08T16:54:17.000Z</time>
      </trkpt>
      <trkpt lat="48.50836" lon="7.14712">
        <ele>736.80774</ele>
        <time>2022-08-08T16:54:19.000Z</time>
      </trkpt>
      <trkpt lat="48.50833" lon="7.14712">
        <ele>737.71582</ele>
        <time>2022-08-08T16:54:21.000Z</time>
      </trkpt>
      <trkpt lat="48.50831" lon="7.14713">
        <ele>738.7052</ele>
        <time>2022-08-08T16:54:23.000Z</time>
      </trkpt>
      <trkpt lat="48.50829" lon="7.14714">
        <ele>739.72687</ele>
        <time>2022-08-08T16:54:25.000Z</time>
      </trkpt>
      <trkpt lat="48.50826" lon="7.14716">
        <ele>740.54388</ele>
        <time>2022-08-08T16:54:27.000Z</time>
      </trkpt>
      <trkpt lat="48.50829" lon="7.14716">
        <ele>741.65271</ele>
        <time>2022-08-08T16:54:28.000Z</time>
      </trkpt>
      <trkpt lat="48.50832" lon="7.14717">
        <ele>742.69598</ele>
        <time>2022-08-08T16:54:29.000Z</time>
      </trkpt>
      <trkpt lat="48.50828" lon="7.14716">
        <ele>743.73059</ele>
        <time>2022-08-08T16:54:40.000Z</time>
      </trkpt>
      <trkpt lat="48.50824" lon="7.14716">
        <ele>744.60663</ele>
        <time>2022-08-08T16:54:42.000Z</time>
      </trkpt>
      <trkpt lat="48.5082" lon="7.14717">
        <ele>745.30902</ele>
        <time>2022-08-08T16:54:44.000Z</time>
      </trkpt>
      <trkpt lat="48.50818" lon="7.14718">
        <ele>745.78333</ele>
        <time>2022-08-08T16:54:45.000Z</time>
      </trkpt>
      <trkpt lat="48.50816" lon="7.1472">
        <ele>746.08044</ele>
        <time>2022-08-08T16:54:48.000Z</time>
      </trkpt>
      <trkpt lat="48.50814" lon="7.1472">
        <ele>746.25555</ele>
        <time>2022-08-08T16:54:56.000Z</time>
      </trkpt>
      <trkpt lat="48.50812" lon="7.14719">
        <ele>746.30084</ele>
        <time>2022-08-08T16:55:00.000Z</time>
      </trkpt>
      <trkpt lat="48.50813" lon="7.14723">
        <ele>746.2561</ele>
        <time>2022-08-08T16:55:06.000Z</time>
      </trkpt>
      <trkpt lat="48.50813" lon="7.14727">
        <ele>746.15735</ele>
        <time>2022-08-08T16:55:08.000Z</time>
      </trkpt>
      <trkpt lat="48.50812" lon="7.1473">
        <ele>746.08661</ele>
        <time>2022-08-08T16:55:10.000Z</time>
      </trkpt>
      <trkpt lat="48.50811" lon="7.14733">
        <ele>746.06006</ele>
        <time>2022-08-08T16:55:12.000Z</time>
      </trkpt>
      <trkpt lat="48.50812" lon="7.14736">
        <ele>746.01624</ele>
        <time>2022-08-08T16:55:14.000Z</time>
      </trkpt>
      <trkpt lat="48.50811" lon="7.14739">
        <ele>745.94537</ele>
        <time>2022-08-08T16:55:16.000Z</time>
      </trkpt>
      <trkpt lat="48.50812" lon="7.14743">
        <ele>745.96796</ele>
        <time>2022-08-08T16:55:19.000Z</time>
      </trkpt>
      <trkpt lat="48.50814" lon="7.14746">
        <ele>745.95477</ele>
        <time>2022-08-08T16:55:22.000Z</time>
      </trkpt>
      <trkpt lat="48.50815" lon="7.14749">
        <ele>745.87939</ele>
        <time>2022-08-08T16:55:24.000Z</time>
      </trkpt>
      <trkpt lat="48.50815" lon="7.14751">
        <ele>745.7666</ele>
        <time>2022-08-08T16:55:26.000Z</time>
      </trkpt>
      <trkpt lat="48.50817" lon="7.14754">
        <ele>745.84491</ele>
        <time>2022-08-08T16:55:28.000Z</time>
      </trkpt>
      <trkpt lat="48.50818" lon="7.14757">
        <ele>745.69513</ele>
        <time>2022-08-08T16:55:30.000Z</time>
      </trkpt>
      <trkpt lat="48.50819" lon="7.14761">
        <ele>745.60175</ele>
        <time>2022-08-08T16:55:32.000Z</time>
      </trkpt>
      <trkpt lat="48.50819" lon="7.14764">
        <ele>745.61633</ele>
        <time>2022-08-08T16:55:34.000Z</time>
      </trkpt>
      <trkpt lat="48.5082" lon="7.14768">
        <ele>745.7547</ele>
        <time>2022-08-08T16:55:36.000Z</time>
      </trkpt>
      <trkpt lat="48.50821" lon="7.14772">
        <ele>745.98956</ele>
        <time>2022-08-08T16:55:38.000Z</time>
      </trkpt>
      <trkpt lat="48.50823" lon="7.14775">
        <ele>746.30359</ele>
        <time>2022-08-08T16:55:40.000Z</time>
      </trkpt>
      <trkpt lat="48.50824" lon="7.1478">
        <ele>746.6001</ele>
        <time>2022-08-08T16:55:42.000Z</time>
      </trkpt>
      <trkpt lat="48.50825" lon="7.14783">
        <ele>746.90527</ele>
        <time>2022-08-08T16:55:43.000Z</time>
      </trkpt>
      <trkpt lat="48.50824" lon="7.14787">
        <ele>747.31689</ele>
        <time>2022-08-08T16:55:45.000Z</time>
      </trkpt>
      <trkpt lat="48.50825" lon="7.14791">
        <ele>747.77844</ele>
        <time>2022-08-08T16:55:47.000Z</time>
      </trkpt>
      <trkpt lat="48.50825" lon="7.14798">
        <ele>748.32751</ele>
        <time>2022-08-08T16:55:49.000Z</time>
      </trkpt>
      <trkpt lat="48.50825" lon="7.14802">
        <ele>748.77753</ele>
        <time>2022-08-08T16:55:50.000Z</time>
      </trkpt>
      <trkpt lat="48.50825" lon="7.14805">
        <ele>749.14679</ele>
        <time>2022-08-08T16:55:51.000Z</time>
      </trkpt>
      <trkpt lat="48.50825" lon="7.14809">
        <ele>749.48889</ele>
        <time>2022-08-08T16:55:52.000Z</time>
      </trkpt>
      <trkpt lat="48.50825" lon="7.14812">
        <ele>749.79407</ele>
        <time>2022-08-08T16:55:54.000Z</time>
      </trkpt>
      <trkpt lat="48.50823" lon="7.14816">
        <ele>749.9248</ele>
        <time>2022-08-08T16:55:56.000Z</time>
      </trkpt>
      <trkpt lat="48.50822" lon="7.14818">
        <ele>749.97107</ele>
        <time>2022-08-08T16:55:57.000Z</time>
      </trkpt>
      <trkpt lat="48.50819" lon="7.14821">
        <ele>749.88489</ele>
        <time>2022-08-08T16:55:59.000Z</time>
      </trkpt>
      <trkpt lat="48.50817" lon="7.14824">
        <ele>749.7348</ele>
        <time>2022-08-08T16:56:01.000Z</time>
      </trkpt>
      <trkpt lat="48.50815" lon="7.14825">
        <ele>749.46118</ele>
        <time>2022-08-08T16:56:03.000Z</time>
      </trkpt>
      <trkpt lat="48.50812" lon="7.14826">
        <ele>748.98425</ele>
        <time>2022-08-08T16:56:05.000Z</time>
      </trkpt>
      <trkpt lat="48.5081" lon="7.14826">
        <ele>748.36761</ele>
        <time>2022-08-08T16:56:07.000Z</time>
      </trkpt>
      <trkpt lat="48.50808" lon="7.14824">
        <ele>747.71631</ele>
        <time>2022-08-08T16:56:09.000Z</time>
      </trkpt>
      <trkpt lat="48.50805" lon="7.14823">
        <ele>747.0448</ele>
        <time>2022-08-08T16:56:11.000Z</time>
      </trkpt>
      <trkpt lat="48.50803" lon="7.14825">
        <ele>746.54388</ele>
        <time>2022-08-08T16:56:22.000Z</time>
      </trkpt>
      <trkpt lat="48.50804" lon="7.14828">
        <ele>746.10193</ele>
        <time>2022-08-08T16:56:24.000Z</time>
      </trkpt>
      <trkpt lat="48.50805" lon="7.14831">
        <ele>745.75092</ele>
        <time>2022-08-08T16:56:26.000Z</time>
      </trkpt>
      <trkpt lat="48.50806" lon="7.14835">
        <ele>745.54327</ele>
        <time>2022-08-08T16:56:28.000Z</time>
      </trkpt>
      <trkpt lat="48.50806" lon="7.14839">
        <ele>745.32898</ele>
        <time>2022-08-08T16:56:30.000Z</time>
      </trkpt>
      <trkpt lat="48.50807" lon="7.14843">
        <ele>745.07104</ele>
        <time>2022-08-08T16:56:32.000Z</time>
      </trkpt>
      <trkpt lat="48.50808" lon="7.14847">
        <ele>744.83563</ele>
        <time>2022-08-08T16:56:34.000Z</time>
      </trkpt>
      <trkpt lat="48.50808" lon="7.14849">
        <ele>744.57843</ele>
        <time>2022-08-08T16:56:35.000Z</time>
      </trkpt>
      <trkpt lat="48.50809" lon="7.14853">
        <ele>744.30237</ele>
        <time>2022-08-08T16:56:37.000Z</time>
      </trkpt>
      <trkpt lat="48.50808" lon="7.14857">
        <ele>744.06573</ele>
        <time>2022-08-08T16:56:39.000Z</time>
      </trkpt>
      <trkpt lat="48.50809" lon="7.14861">
        <ele>743.80011</ele>
        <time>2022-08-08T16:56:41.000Z</time>
      </trkpt>
      <trkpt lat="48.50809" lon="7.14866">
        <ele>743.55383</ele>
        <time>2022-08-08T16:56:43.000Z</time>
      </trkpt>
      <trkpt lat="48.50809" lon="7.14869">
        <ele>743.34009</ele>
        <time>2022-08-08T16:56:45.000Z</time>
      </trkpt>
      <trkpt lat="48.5081" lon="7.14873">
        <ele>743.32642</ele>
        <time>2022-08-08T16:56:47.000Z</time>
      </trkpt>
      <trkpt lat="48.50811" lon="7.14876">
        <ele>743.42499</ele>
        <time>2022-08-08T16:56:49.000Z</time>
      </trkpt>
      <trkpt lat="48.50812" lon="7.14879">
        <ele>743.64935</ele>
        <time>2022-08-08T16:56:51.000Z</time>
      </trkpt>
      <trkpt lat="48.50813" lon="7.14884">
        <ele>744.01477</ele>
        <time>2022-08-08T16:56:53.000Z</time>
      </trkpt>
      <trkpt lat="48.50814" lon="7.14888">
        <ele>744.49792</ele>
        <time>2022-08-08T16:56:55.000Z</time>
      </trkpt>
      <trkpt lat="48.50814" lon="7.14893">
        <ele>744.90149</ele>
        <time>2022-08-08T16:56:57.000Z</time>
      </trkpt>
      <trkpt lat="48.50815" lon="7.14898">
        <ele>745.35034</ele>
        <time>2022-08-08T16:56:59.000Z</time>
      </trkpt>
      <trkpt lat="48.50816" lon="7.14901">
        <ele>745.73315</ele>
        <time>2022-08-08T16:57:01.000Z</time>
      </trkpt>
      <trkpt lat="48.50816" lon="7.14905">
        <ele>746.11707</ele>
        <time>2022-08-08T16:57:04.000Z</time>
      </trkpt>
      <trkpt lat="48.50817" lon="7.14908">
        <ele>746.55219</ele>
        <time>2022-08-08T16:57:06.000Z</time>
      </trkpt>
      <trkpt lat="48.50817" lon="7.14911">
        <ele>747.01819</ele>
        <time>2022-08-08T16:57:08.000Z</time>
      </trkpt>
      <trkpt lat="48.50817" lon="7.14914">
        <ele>747.3999</ele>
        <time>2022-08-08T16:57:10.000Z</time>
      </trkpt>
      <trkpt lat="48.50817" lon="7.14919">
        <ele>747.70135</ele>
        <time>2022-08-08T16:57:13.000Z</time>
      </trkpt>
      <trkpt lat="48.50815" lon="7.14922">
        <ele>747.88568</ele>
        <time>2022-08-08T16:57:21.000Z</time>
      </trkpt>
      <trkpt lat="48.50815" lon="7.14927">
        <ele>748.07794</ele>
        <time>2022-08-08T16:57:23.000Z</time>
      </trkpt>
      <trkpt lat="48.50814" lon="7.1493">
        <ele>748.29089</ele>
        <time>2022-08-08T16:57:25.000Z</time>
      </trkpt>
      <trkpt lat="48.50812" lon="7.14934">
        <ele>748.4657</ele>
        <time>2022-08-08T16:57:27.000Z</time>
      </trkpt>
      <trkpt lat="48.50812" lon="7.14938">
        <ele>748.7431</ele>
        <time>2022-08-08T16:57:30.000Z</time>
      </trkpt>
      <trkpt lat="48.50811" lon="7.1494">
        <ele>749.12073</ele>
        <time>2022-08-08T16:57:32.000Z</time>
      </trkpt>
      <trkpt lat="48.50811" lon="7.14943">
        <ele>749.57813</ele>
        <time>2022-08-08T16:57:34.000Z</time>
      </trkpt>
      <trkpt lat="48.5081" lon="7.14947">
        <ele>749.94666</ele>
        <time>2022-08-08T16:57:36.000Z</time>
      </trkpt>
      <trkpt lat="48.50809" lon="7.1495">
        <ele>750.2948</ele>
        <time>2022-08-08T16:57:38.000Z</time>
      </trkpt>
      <trkpt lat="48.50809" lon="7.14954">
        <ele>750.62457</ele>
        <time>2022-08-08T16:57:40.000Z</time>
      </trkpt>
      <trkpt lat="48.50808" lon="7.14957">
        <ele>750.97437</ele>
        <time>2022-08-08T16:57:42.000Z</time>
      </trkpt>
      <trkpt lat="48.50808" lon="7.1496">
        <ele>751.32141</ele>
        <time>2022-08-08T16:57:44.000Z</time>
      </trkpt>
      <trkpt lat="48.50808" lon="7.14963">
        <ele>751.76782</ele>
        <time>2022-08-08T16:57:46.000Z</time>
      </trkpt>
      <trkpt lat="48.50807" lon="7.14965">
        <ele>752.28162</ele>
        <time>2022-08-08T16:57:48.000Z</time>
      </trkpt>
      <trkpt lat="48.50807" lon="7.14968">
        <ele>752.7594</ele>
        <time>2022-08-08T16:57:50.000Z</time>
      </trkpt>
      <trkpt lat="48.50807" lon="7.14971">
        <ele>753.18384</ele>
        <time>2022-08-08T16:57:52.000Z</time>
      </trkpt>
      <trkpt lat="48.50807" lon="7.14974">
        <ele>753.62799</ele>
        <time>2022-08-08T16:57:54.000Z</time>
      </trkpt>
      <trkpt lat="48.50807" lon="7.14977">
        <ele>753.99146</ele>
        <time>2022-08-08T16:57:56.000Z</time>
      </trkpt>
      <trkpt lat="48.50807" lon="7.1498">
        <ele>754.42554</ele>
        <time>2022-08-08T16:57:58.000Z</time>
      </trkpt>
      <trkpt lat="48.50807" lon="7.14983">
        <ele>754.88971</ele>
        <time>2022-08-08T16:58:00.000Z</time>
      </trkpt>
      <trkpt lat="48.50806" lon="7.14986">
        <ele>755.44171</ele>
        <time>2022-08-08T16:58:02.000Z</time>
      </trkpt>
      <trkpt lat="48.50805" lon="7.14988">
        <ele>756.00214</ele>
        <time>2022-08-08T16:58:04.000Z</time>
      </trkpt>
      <trkpt lat="48.50805" lon="7.14991">
        <ele>756.61353</ele>
        <time>2022-08-08T16:58:05.000Z</time>
      </trkpt>
      <trkpt lat="48.50804" lon="7.14994">
        <ele>757.29578</ele>
        <time>2022-08-08T16:58:06.000Z</time>
      </trkpt>
      <trkpt lat="48.50803" lon="7.14999">
        <ele>757.88934</ele>
        <time>2022-08-08T16:58:08.000Z</time>
      </trkpt>
      <trkpt lat="48.50802" lon="7.15001">
        <ele>758.43622</ele>
        <time>2022-08-08T16:58:09.000Z</time>
      </trkpt>
      <trkpt lat="48.50801" lon="7.15005">
        <ele>758.90814</ele>
        <time>2022-08-08T16:58:11.000Z</time>
      </trkpt>
      <trkpt lat="48.50801" lon="7.15008">
        <ele>759.37579</ele>
        <time>2022-08-08T16:58:12.000Z</time>
      </trkpt>
      <trkpt lat="48.508" lon="7.15011">
        <ele>759.83551</ele>
        <time>2022-08-08T16:58:13.000Z</time>
      </trkpt>
      <trkpt lat="48.50799" lon="7.15016">
        <ele>760.31201</ele>
        <time>2022-08-08T16:58:15.000Z</time>
      </trkpt>
      <trkpt lat="48.50798" lon="7.15019">
        <ele>760.77136</ele>
        <time>2022-08-08T16:58:17.000Z</time>
      </trkpt>
      <trkpt lat="48.50797" lon="7.15023">
        <ele>761.21643</ele>
        <time>2022-08-08T16:58:19.000Z</time>
      </trkpt>
      <trkpt lat="48.50795" lon="7.15027">
        <ele>761.61438</ele>
        <time>2022-08-08T16:58:21.000Z</time>
      </trkpt>
      <trkpt lat="48.50793" lon="7.15031">
        <ele>761.94592</ele>
        <time>2022-08-08T16:58:23.000Z</time>
      </trkpt>
      <trkpt lat="48.50791" lon="7.15035">
        <ele>762.17468</ele>
        <time>2022-08-08T16:58:25.000Z</time>
      </trkpt>
      <trkpt lat="48.5079" lon="7.15039">
        <ele>762.37781</ele>
        <time>2022-08-08T16:58:27.000Z</time>
      </trkpt>
      <trkpt lat="48.50789" lon="7.15043">
        <ele>762.46344</ele>
        <time>2022-08-08T16:58:29.000Z</time>
      </trkpt>
      <trkpt lat="48.50788" lon="7.15045">
        <ele>762.57086</ele>
        <time>2022-08-08T16:58:30.000Z</time>
      </trkpt>
      <trkpt lat="48.50787" lon="7.15047">
        <ele>762.60254</ele>
        <time>2022-08-08T16:58:32.000Z</time>
      </trkpt>
      <trkpt lat="48.50785" lon="7.1505">
        <ele>762.63312</ele>
        <time>2022-08-08T16:58:34.000Z</time>
      </trkpt>
      <trkpt lat="48.50783" lon="7.15054">
        <ele>762.57281</ele>
        <time>2022-08-08T16:58:36.000Z</time>
      </trkpt>
      <trkpt lat="48.50781" lon="7.15058">
        <ele>762.47559</ele>
        <time>2022-08-08T16:58:38.000Z</time>
      </trkpt>
      <trkpt lat="48.5078" lon="7.15062">
        <ele>762.29187</ele>
        <time>2022-08-08T16:58:39.000Z</time>
      </trkpt>
      <trkpt lat="48.50779" lon="7.15065">
        <ele>762.08557</ele>
        <time>2022-08-08T16:58:41.000Z</time>
      </trkpt>
      <trkpt lat="48.50778" lon="7.15068">
        <ele>761.8736</ele>
        <time>2022-08-08T16:58:43.000Z</time>
      </trkpt>
      <trkpt lat="48.50777" lon="7.15071">
        <ele>761.65601</ele>
        <time>2022-08-08T16:58:45.000Z</time>
      </trkpt>
      <trkpt lat="48.50776" lon="7.15074">
        <ele>761.42688</ele>
        <time>2022-08-08T16:58:47.000Z</time>
      </trkpt>
      <trkpt lat="48.50775" lon="7.15077">
        <ele>761.20258</ele>
        <time>2022-08-08T16:58:49.000Z</time>
      </trkpt>
      <trkpt lat="48.50773" lon="7.1508">
        <ele>760.97253</ele>
        <time>2022-08-08T16:58:55.000Z</time>
      </trkpt>
      <trkpt lat="48.50772" lon="7.15083">
        <ele>760.73865</ele>
        <time>2022-08-08T16:58:57.000Z</time>
      </trkpt>
      <trkpt lat="48.50771" lon="7.15087">
        <ele>760.47528</ele>
        <time>2022-08-08T16:58:59.000Z</time>
      </trkpt>
      <trkpt lat="48.5077" lon="7.1509">
        <ele>760.1853</ele>
        <time>2022-08-08T16:59:01.000Z</time>
      </trkpt>
      <trkpt lat="48.50768" lon="7.15093">
        <ele>759.914</ele>
        <time>2022-08-08T16:59:03.000Z</time>
      </trkpt>
      <trkpt lat="48.50767" lon="7.15095">
        <ele>759.67102</ele>
        <time>2022-08-08T16:59:05.000Z</time>
      </trkpt>
      <trkpt lat="48.50766" lon="7.15098">
        <ele>759.47931</ele>
        <time>2022-08-08T16:59:08.000Z</time>
      </trkpt>
      <trkpt lat="48.50765" lon="7.15102">
        <ele>759.31287</ele>
        <time>2022-08-08T16:59:23.000Z</time>
      </trkpt>
      <trkpt lat="48.50764" lon="7.15107">
        <ele>759.19025</ele>
        <time>2022-08-08T16:59:25.000Z</time>
      </trkpt>
      <trkpt lat="48.50762" lon="7.15109">
        <ele>759.0296</ele>
        <time>2022-08-08T16:59:26.000Z</time>
      </trkpt>
      <trkpt lat="48.50761" lon="7.15111">
        <ele>758.87048</ele>
        <time>2022-08-08T16:59:27.000Z</time>
      </trkpt>
      <trkpt lat="48.50759" lon="7.15114">
        <ele>758.73181</ele>
        <time>2022-08-08T16:59:29.000Z</time>
      </trkpt>
      <trkpt lat="48.50757" lon="7.15117">
        <ele>758.64648</ele>
        <time>2022-08-08T16:59:31.000Z</time>
      </trkpt>
      <trkpt lat="48.50756" lon="7.15119">
        <ele>758.59753</ele>
        <time>2022-08-08T16:59:33.000Z</time>
      </trkpt>
      <trkpt lat="48.50754" lon="7.15121">
        <ele>758.58929</ele>
        <time>2022-08-08T16:59:36.000Z</time>
      </trkpt>
      <trkpt lat="48.50753" lon="7.15124">
        <ele>758.57147</ele>
        <time>2022-08-08T16:59:38.000Z</time>
      </trkpt>
      <trkpt lat="48.50751" lon="7.15125">
        <ele>758.58698</ele>
        <time>2022-08-08T16:59:40.000Z</time>
      </trkpt>
      <trkpt lat="48.50749" lon="7.15125">
        <ele>758.64447</ele>
        <time>2022-08-08T16:59:42.000Z</time>
      </trkpt>
      <trkpt lat="48.50747" lon="7.15127">
        <ele>758.69952</ele>
        <time>2022-08-08T16:59:44.000Z</time>
      </trkpt>
      <trkpt lat="48.50745" lon="7.15128">
        <ele>758.76709</ele>
        <time>2022-08-08T16:59:47.000Z</time>
      </trkpt>
      <trkpt lat="48.50743" lon="7.15128">
        <ele>758.81183</ele>
        <time>2022-08-08T16:59:58.000Z</time>
      </trkpt>
      <trkpt lat="48.50741" lon="7.15132">
        <ele>758.81909</ele>
        <time>2022-08-08T17:00:06.000Z</time>
      </trkpt>
      <trkpt lat="48.50738" lon="7.15136">
        <ele>758.84192</ele>
        <time>2022-08-08T17:00:08.000Z</time>
      </trkpt>
      <trkpt lat="48.50736" lon="7.15138">
        <ele>758.91803</ele>
        <time>2022-08-08T17:00:10.000Z</time>
      </trkpt>
      <trkpt lat="48.50734" lon="7.15137">
        <ele>758.97321</ele>
        <time>2022-08-08T17:00:11.000Z</time>
      </trkpt>
      <trkpt lat="48.5073" lon="7.15137">
        <ele>758.91602</ele>
        <time>2022-08-08T17:00:13.000Z</time>
      </trkpt>
      <trkpt lat="48.50727" lon="7.15136">
        <ele>758.80133</ele>
        <time>2022-08-08T17:00:15.000Z</time>
      </trkpt>
      <trkpt lat="48.50725" lon="7.15137">
        <ele>758.77332</ele>
        <time>2022-08-08T17:00:19.000Z</time>
      </trkpt>
      <trkpt lat="48.50722" lon="7.15137">
        <ele>758.82233</ele>
        <time>2022-08-08T17:00:22.000Z</time>
      </trkpt>
      <trkpt lat="48.5072" lon="7.15138">
        <ele>758.94104</ele>
        <time>2022-08-08T17:00:24.000Z</time>
      </trkpt>
      <trkpt lat="48.50718" lon="7.15139">
        <ele>759.16711</ele>
        <time>2022-08-08T17:00:27.000Z</time>
      </trkpt>
      <trkpt lat="48.50716" lon="7.15141">
        <ele>759.42444</ele>
        <time>2022-08-08T17:00:29.000Z</time>
      </trkpt>
      <trkpt lat="48.50714" lon="7.15142">
        <ele>759.71509</ele>
        <time>2022-08-08T17:00:31.000Z</time>
      </trkpt>
      <trkpt lat="48.50713" lon="7.15143">
        <ele>760.0921</ele>
        <time>2022-08-08T17:00:33.000Z</time>
      </trkpt>
      <trkpt lat="48.50711" lon="7.15145">
        <ele>760.5191</ele>
        <time>2022-08-08T17:00:35.000Z</time>
      </trkpt>
      <trkpt lat="48.50708" lon="7.15146">
        <ele>760.99292</ele>
        <time>2022-08-08T17:00:37.000Z</time>
      </trkpt>
      <trkpt lat="48.50707" lon="7.15147">
        <ele>761.4931</ele>
        <time>2022-08-08T17:00:39.000Z</time>
      </trkpt>
      <trkpt lat="48.50705" lon="7.15149">
        <ele>761.96667</ele>
        <time>2022-08-08T17:00:41.000Z</time>
      </trkpt>
      <trkpt lat="48.50704" lon="7.15151">
        <ele>762.48004</ele>
        <time>2022-08-08T17:00:43.000Z</time>
      </trkpt>
      <trkpt lat="48.50702" lon="7.15153">
        <ele>763.02734</ele>
        <time>2022-08-08T17:00:45.000Z</time>
      </trkpt>
      <trkpt lat="48.507" lon="7.15156">
        <ele>763.57928</ele>
        <time>2022-08-08T17:00:47.000Z</time>
      </trkpt>
      <trkpt lat="48.50697" lon="7.15159">
        <ele>764.11615</ele>
        <time>2022-08-08T17:00:49.000Z</time>
      </trkpt>
      <trkpt lat="48.50695" lon="7.15161">
        <ele>764.63989</ele>
        <time>2022-08-08T17:00:51.000Z</time>
      </trkpt>
      <trkpt lat="48.50693" lon="7.15164">
        <ele>765.13495</ele>
        <time>2022-08-08T17:00:54.000Z</time>
      </trkpt>
      <trkpt lat="48.50692" lon="7.15167">
        <ele>765.70197</ele>
        <time>2022-08-08T17:00:56.000Z</time>
      </trkpt>
      <trkpt lat="48.5069" lon="7.15168">
        <ele>766.42969</ele>
        <time>2022-08-08T17:00:59.000Z</time>
      </trkpt>
      <trkpt lat="48.50688" lon="7.1517">
        <ele>767.24536</ele>
        <time>2022-08-08T17:01:01.000Z</time>
      </trkpt>
      <trkpt lat="48.50686" lon="7.15172">
        <ele>768.04767</ele>
        <time>2022-08-08T17:01:04.000Z</time>
      </trkpt>
      <trkpt lat="48.50684" lon="7.15174">
        <ele>768.77673</ele>
        <time>2022-08-08T17:01:06.000Z</time>
      </trkpt>
      <trkpt lat="48.50683" lon="7.15177">
        <ele>769.48572</ele>
        <time>2022-08-08T17:01:08.000Z</time>
      </trkpt>
      <trkpt lat="48.50682" lon="7.15179">
        <ele>770.11584</ele>
        <time>2022-08-08T17:01:16.000Z</time>
      </trkpt>
      <trkpt lat="48.50678" lon="7.15184">
        <ele>770.60095</ele>
        <time>2022-08-08T17:01:19.000Z</time>
      </trkpt>
      <trkpt lat="48.50677" lon="7.15185">
        <ele>770.93573</ele>
        <time>2022-08-08T17:01:20.000Z</time>
      </trkpt>
      <trkpt lat="48.50673" lon="7.15185">
        <ele>771.06409</ele>
        <time>2022-08-08T17:01:22.000Z</time>
      </trkpt>
      <trkpt lat="48.5067" lon="7.15185">
        <ele>771.0094</ele>
        <time>2022-08-08T17:01:24.000Z</time>
      </trkpt>
      <trkpt lat="48.50668" lon="7.15184">
        <ele>770.83862</ele>
        <time>2022-08-08T17:01:26.000Z</time>
      </trkpt>
      <trkpt lat="48.50666" lon="7.15184">
        <ele>770.55389</ele>
        <time>2022-08-08T17:01:29.000Z</time>
      </trkpt>
      <trkpt lat="48.50664" lon="7.15183">
        <ele>770.1795</ele>
        <time>2022-08-08T17:01:31.000Z</time>
      </trkpt>
      <trkpt lat="48.50662" lon="7.15183">
        <ele>769.81848</ele>
        <time>2022-08-08T17:01:33.000Z</time>
      </trkpt>
      <trkpt lat="48.50659" lon="7.15181">
        <ele>769.59192</ele>
        <time>2022-08-08T17:01:36.000Z</time>
      </trkpt>
      <trkpt lat="48.50657" lon="7.1518">
        <ele>769.36725</ele>
        <time>2022-08-08T17:01:38.000Z</time>
      </trkpt>
      <trkpt lat="48.50656" lon="7.15178">
        <ele>769.22522</ele>
        <time>2022-08-08T17:01:40.000Z</time>
      </trkpt>
      <trkpt lat="48.50654" lon="7.15178">
        <ele>769.07397</ele>
        <time>2022-08-08T17:01:42.000Z</time>
      </trkpt>
      <trkpt lat="48.50651" lon="7.15177">
        <ele>768.95081</ele>
        <time>2022-08-08T17:01:45.000Z</time>
      </trkpt>
      <trkpt lat="48.50649" lon="7.15178">
        <ele>768.71039</ele>
        <time>2022-08-08T17:01:47.000Z</time>
      </trkpt>
      <trkpt lat="48.50648" lon="7.15179">
        <ele>768.43463</ele>
        <time>2022-08-08T17:01:49.000Z</time>
      </trkpt>
      <trkpt lat="48.50646" lon="7.15178">
        <ele>768.15509</ele>
        <time>2022-08-08T17:01:51.000Z</time>
      </trkpt>
      <trkpt lat="48.50644" lon="7.15177">
        <ele>767.69824</ele>
        <time>2022-08-08T17:01:53.000Z</time>
      </trkpt>
      <trkpt lat="48.50642" lon="7.15178">
        <ele>767.23645</ele>
        <time>2022-08-08T17:01:55.000Z</time>
      </trkpt>
      <trkpt lat="48.50639" lon="7.15177">
        <ele>766.84265</ele>
        <time>2022-08-08T17:01:58.000Z</time>
      </trkpt>
      <trkpt lat="48.50639" lon="7.15174">
        <ele>766.40802</ele>
        <time>2022-08-08T17:02:00.000Z</time>
      </trkpt>
      <trkpt lat="48.50639" lon="7.15166">
        <ele>766.14008</ele>
        <time>2022-08-08T17:02:06.000Z</time>
      </trkpt>
      <trkpt lat="48.50639" lon="7.15163">
        <ele>766.04559</ele>
        <time>2022-08-08T17:02:08.000Z</time>
      </trkpt>
      <trkpt lat="48.50638" lon="7.1516">
        <ele>766.03796</ele>
        <time>2022-08-08T17:02:10.000Z</time>
      </trkpt>
      <trkpt lat="48.50641" lon="7.15158">
        <ele>766.17834</ele>
        <time>2022-08-08T17:02:12.000Z</time>
      </trkpt>
      <trkpt lat="48.50642" lon="7.15156">
        <ele>766.39807</ele>
        <time>2022-08-08T17:02:14.000Z</time>
      </trkpt>
      <trkpt lat="48.50643" lon="7.15153">
        <ele>766.66956</ele>
        <time>2022-08-08T17:02:16.000Z</time>
      </trkpt>
      <trkpt lat="48.50642" lon="7.15151">
        <ele>767.05383</ele>
        <time>2022-08-08T17:02:19.000Z</time>
      </trkpt>
      <trkpt lat="48.50643" lon="7.15148">
        <ele>767.33679</ele>
        <time>2022-08-08T17:02:22.000Z</time>
      </trkpt>
      <trkpt lat="48.50643" lon="7.15145">
        <ele>767.54871</ele>
        <time>2022-08-08T17:02:24.000Z</time>
      </trkpt>
      <trkpt lat="48.50643" lon="7.15142">
        <ele>767.81647</ele>
        <time>2022-08-08T17:02:26.000Z</time>
      </trkpt>
      <trkpt lat="48.50641" lon="7.15141">
        <ele>767.81873</ele>
        <time>2022-08-08T17:02:29.000Z</time>
      </trkpt>
      <trkpt lat="48.50639" lon="7.15139">
        <ele>767.84363</ele>
        <time>2022-08-08T17:02:31.000Z</time>
      </trkpt>
      <trkpt lat="48.50638" lon="7.15135">
        <ele>767.83502</ele>
        <time>2022-08-08T17:02:33.000Z</time>
      </trkpt>
      <trkpt lat="48.5064" lon="7.15131">
        <ele>767.97229</ele>
        <time>2022-08-08T17:02:35.000Z</time>
      </trkpt>
      <trkpt lat="48.50641" lon="7.15127">
        <ele>768.13647</ele>
        <time>2022-08-08T17:02:37.000Z</time>
      </trkpt>
      <trkpt lat="48.50641" lon="7.15124">
        <ele>768.16858</ele>
        <time>2022-08-08T17:02:39.000Z</time>
      </trkpt>
      <trkpt lat="48.50641" lon="7.15121">
        <ele>768.18872</ele>
        <time>2022-08-08T17:02:41.000Z</time>
      </trkpt>
      <trkpt lat="48.50641" lon="7.15116">
        <ele>768.26337</ele>
        <time>2022-08-08T17:02:43.000Z</time>
      </trkpt>
      <trkpt lat="48.5064" lon="7.15112">
        <ele>768.29236</ele>
        <time>2022-08-08T17:02:45.000Z</time>
      </trkpt>
      <trkpt lat="48.50639" lon="7.15107">
        <ele>768.30627</ele>
        <time>2022-08-08T17:02:47.000Z</time>
      </trkpt>
      <trkpt lat="48.50638" lon="7.15103">
        <ele>768.24982</ele>
        <time>2022-08-08T17:02:49.000Z</time>
      </trkpt>
      <trkpt lat="48.50637" lon="7.15099">
        <ele>768.16809</ele>
        <time>2022-08-08T17:02:52.000Z</time>
      </trkpt>
      <trkpt lat="48.50636" lon="7.15097">
        <ele>768.13678</ele>
        <time>2022-08-08T17:02:56.000Z</time>
      </trkpt>
      <trkpt lat="48.50637" lon="7.15094">
        <ele>768.12823</ele>
        <time>2022-08-08T17:02:58.000Z</time>
      </trkpt>
      <trkpt lat="48.50637" lon="7.1509">
        <ele>768.07971</ele>
        <time>2022-08-08T17:03:00.000Z</time>
      </trkpt>
      <trkpt lat="48.50638" lon="7.15086">
        <ele>768.15259</ele>
        <time>2022-08-08T17:03:02.000Z</time>
      </trkpt>
      <trkpt lat="48.50639" lon="7.15082">
        <ele>768.13635</ele>
        <time>2022-08-08T17:03:04.000Z</time>
      </trkpt>
      <trkpt lat="48.50639" lon="7.15077">
        <ele>768.23474</ele>
        <time>2022-08-08T17:03:06.000Z</time>
      </trkpt>
      <trkpt lat="48.5064" lon="7.15072">
        <ele>768.24255</ele>
        <time>2022-08-08T17:03:08.000Z</time>
      </trkpt>
      <trkpt lat="48.5064" lon="7.15068">
        <ele>768.15137</ele>
        <time>2022-08-08T17:03:10.000Z</time>
      </trkpt>
      <trkpt lat="48.50639" lon="7.15065">
        <ele>768.2984</ele>
        <time>2022-08-08T17:03:11.000Z</time>
      </trkpt>
      <trkpt lat="48.50638" lon="7.15063">
        <ele>768.44055</ele>
        <time>2022-08-08T17:03:12.000Z</time>
      </trkpt>
      <trkpt lat="48.50637" lon="7.1506">
        <ele>768.5957</ele>
        <time>2022-08-08T17:03:13.000Z</time>
      </trkpt>
      <trkpt lat="48.50636" lon="7.15056">
        <ele>768.64142</ele>
        <time>2022-08-08T17:03:15.000Z</time>
      </trkpt>
      <trkpt lat="48.50636" lon="7.15053">
        <ele>768.61279</ele>
        <time>2022-08-08T17:03:17.000Z</time>
      </trkpt>
      <trkpt lat="48.50636" lon="7.15049">
        <ele>768.72131</ele>
        <time>2022-08-08T17:03:19.000Z</time>
      </trkpt>
      <trkpt lat="48.50637" lon="7.15046">
        <ele>768.9259</ele>
        <time>2022-08-08T17:03:22.000Z</time>
      </trkpt>
      <trkpt lat="48.50636" lon="7.15042">
        <ele>769.21436</ele>
        <time>2022-08-08T17:03:24.000Z</time>
      </trkpt>
      <trkpt lat="48.50635" lon="7.15038">
        <ele>769.39709</ele>
        <time>2022-08-08T17:03:26.000Z</time>
      </trkpt>
      <trkpt lat="48.50635" lon="7.15035">
        <ele>769.53217</ele>
        <time>2022-08-08T17:03:28.000Z</time>
      </trkpt>
      <trkpt lat="48.50635" lon="7.15032">
        <ele>769.5343</ele>
        <time>2022-08-08T17:03:30.000Z</time>
      </trkpt>
      <trkpt lat="48.50635" lon="7.15028">
        <ele>769.43018</ele>
        <time>2022-08-08T17:03:32.000Z</time>
      </trkpt>
      <trkpt lat="48.50635" lon="7.15025">
        <ele>769.28448</ele>
        <time>2022-08-08T17:03:34.000Z</time>
      </trkpt>
      <trkpt lat="48.50637" lon="7.15021">
        <ele>769.07849</ele>
        <time>2022-08-08T17:03:37.000Z</time>
      </trkpt>
      <trkpt lat="48.50637" lon="7.15018">
        <ele>768.80432</ele>
        <time>2022-08-08T17:03:40.000Z</time>
      </trkpt>
      <trkpt lat="48.50638" lon="7.15015">
        <ele>768.36121</ele>
        <time>2022-08-08T17:03:42.000Z</time>
      </trkpt>
      <trkpt lat="48.50639" lon="7.15012">
        <ele>767.95203</ele>
        <time>2022-08-08T17:03:44.000Z</time>
      </trkpt>
      <trkpt lat="48.50639" lon="7.15008">
        <ele>767.42102</ele>
        <time>2022-08-08T17:03:47.000Z</time>
      </trkpt>
      <trkpt lat="48.50638" lon="7.15004">
        <ele>766.86243</ele>
        <time>2022-08-08T17:03:49.000Z</time>
      </trkpt>
      <trkpt lat="48.50638" lon="7.15001">
        <ele>766.31982</ele>
        <time>2022-08-08T17:03:51.000Z</time>
      </trkpt>
      <trkpt lat="48.50638" lon="7.14998">
        <ele>765.75879</ele>
        <time>2022-08-08T17:03:53.000Z</time>
      </trkpt>
      <trkpt lat="48.50637" lon="7.14995">
        <ele>765.13611</ele>
        <time>2022-08-08T17:03:55.000Z</time>
      </trkpt>
      <trkpt lat="48.50637" lon="7.14993">
        <ele>764.43695</ele>
        <time>2022-08-08T17:03:58.000Z</time>
      </trkpt>
      <trkpt lat="48.50637" lon="7.14989">
        <ele>763.66663</ele>
        <time>2022-08-08T17:04:01.000Z</time>
      </trkpt>
      <trkpt lat="48.50637" lon="7.14986">
        <ele>762.84711</ele>
        <time>2022-08-08T17:04:03.000Z</time>
      </trkpt>
      <trkpt lat="48.50636" lon="7.14983">
        <ele>762.02136</ele>
        <time>2022-08-08T17:04:05.000Z</time>
      </trkpt>
      <trkpt lat="48.50636" lon="7.14979">
        <ele>761.19995</ele>
        <time>2022-08-08T17:04:08.000Z</time>
      </trkpt>
      <trkpt lat="48.50636" lon="7.14975">
        <ele>760.25464</ele>
        <time>2022-08-08T17:04:11.000Z</time>
      </trkpt>
      <trkpt lat="48.50636" lon="7.1497">
        <ele>759.31702</ele>
        <time>2022-08-08T17:04:14.000Z</time>
      </trkpt>
      <trkpt lat="48.50635" lon="7.14968">
        <ele>758.48431</ele>
        <time>2022-08-08T17:04:16.000Z</time>
      </trkpt>
      <trkpt lat="48.50635" lon="7.14965">
        <ele>757.86798</ele>
        <time>2022-08-08T17:04:18.000Z</time>
      </trkpt>
      <trkpt lat="48.50635" lon="7.14961">
        <ele>757.32092</ele>
        <time>2022-08-08T17:04:20.000Z</time>
      </trkpt>
      <trkpt lat="48.50635" lon="7.14957">
        <ele>756.83612</ele>
        <time>2022-08-08T17:04:22.000Z</time>
      </trkpt>
      <trkpt lat="48.50636" lon="7.14954">
        <ele>756.41187</ele>
        <time>2022-08-08T17:04:24.000Z</time>
      </trkpt>
      <trkpt lat="48.50636" lon="7.14949">
        <ele>755.9317</ele>
        <time>2022-08-08T17:04:27.000Z</time>
      </trkpt>
      <trkpt lat="48.50637" lon="7.14945">
        <ele>755.40039</ele>
        <time>2022-08-08T17:04:30.000Z</time>
      </trkpt>
      <trkpt lat="48.50637" lon="7.14941">
        <ele>754.86725</ele>
        <time>2022-08-08T17:04:33.000Z</time>
      </trkpt>
      <trkpt lat="48.50638" lon="7.14938">
        <ele>754.33344</ele>
        <time>2022-08-08T17:04:36.000Z</time>
      </trkpt>
      <trkpt lat="48.50638" lon="7.14935">
        <ele>753.79755</ele>
        <time>2022-08-08T17:04:39.000Z</time>
      </trkpt>
      <trkpt lat="48.50638" lon="7.14931">
        <ele>753.36597</ele>
        <time>2022-08-08T17:04:41.000Z</time>
      </trkpt>
      <trkpt lat="48.50638" lon="7.14928">
        <ele>752.95404</ele>
        <time>2022-08-08T17:04:43.000Z</time>
      </trkpt>
      <trkpt lat="48.50638" lon="7.14924">
        <ele>752.66333</ele>
        <time>2022-08-08T17:04:46.000Z</time>
      </trkpt>
      <trkpt lat="48.50638" lon="7.14921">
        <ele>752.45746</ele>
        <time>2022-08-08T17:04:48.000Z</time>
      </trkpt>
      <trkpt lat="48.50638" lon="7.14918">
        <ele>752.17529</ele>
        <time>2022-08-08T17:04:50.000Z</time>
      </trkpt>
      <trkpt lat="48.50637" lon="7.14913">
        <ele>752.00397</ele>
        <time>2022-08-08T17:04:53.000Z</time>
      </trkpt>
      <trkpt lat="48.50636" lon="7.1491">
        <ele>751.78534</ele>
        <time>2022-08-08T17:04:55.000Z</time>
      </trkpt>
      <trkpt lat="48.50636" lon="7.14906">
        <ele>751.55994</ele>
        <time>2022-08-08T17:04:57.000Z</time>
      </trkpt>
      <trkpt lat="48.50636" lon="7.14902">
        <ele>751.26044</ele>
        <time>2022-08-08T17:04:59.000Z</time>
      </trkpt>
      <trkpt lat="48.50636" lon="7.14897">
        <ele>750.86896</ele>
        <time>2022-08-08T17:05:01.000Z</time>
      </trkpt>
      <trkpt lat="48.50636" lon="7.14892">
        <ele>750.43835</ele>
        <time>2022-08-08T17:05:03.000Z</time>
      </trkpt>
      <trkpt lat="48.50636" lon="7.14888">
        <ele>749.87653</ele>
        <time>2022-08-08T17:05:05.000Z</time>
      </trkpt>
      <trkpt lat="48.50637" lon="7.14884">
        <ele>749.11597</ele>
        <time>2022-08-08T17:05:07.000Z</time>
      </trkpt>
      <trkpt lat="48.50637" lon="7.1488">
        <ele>748.31665</ele>
        <time>2022-08-08T17:05:09.000Z</time>
      </trkpt>
      <trkpt lat="48.50637" lon="7.14875">
        <ele>747.48621</ele>
        <time>2022-08-08T17:05:11.000Z</time>
      </trkpt>
      <trkpt lat="48.50636" lon="7.14872">
        <ele>746.81067</ele>
        <time>2022-08-08T17:05:12.000Z</time>
      </trkpt>
      <trkpt lat="48.50636" lon="7.14868">
        <ele>746.24915</ele>
        <time>2022-08-08T17:05:14.000Z</time>
      </trkpt>
      <trkpt lat="48.50636" lon="7.14864">
        <ele>745.61346</ele>
        <time>2022-08-08T17:05:16.000Z</time>
      </trkpt>
      <trkpt lat="48.50636" lon="7.1486">
        <ele>745.03308</ele>
        <time>2022-08-08T17:05:18.000Z</time>
      </trkpt>
      <trkpt lat="48.50635" lon="7.14856">
        <ele>744.50311</ele>
        <time>2022-08-08T17:05:20.000Z</time>
      </trkpt>
      <trkpt lat="48.50636" lon="7.14852">
        <ele>743.9411</ele>
        <time>2022-08-08T17:05:22.000Z</time>
      </trkpt>
      <trkpt lat="48.50636" lon="7.14848">
        <ele>743.37305</ele>
        <time>2022-08-08T17:05:24.000Z</time>
      </trkpt>
      <trkpt lat="48.50637" lon="7.14844">
        <ele>742.72827</ele>
        <time>2022-08-08T17:05:26.000Z</time>
      </trkpt>
      <trkpt lat="48.50637" lon="7.1484">
        <ele>742.04926</ele>
        <time>2022-08-08T17:05:28.000Z</time>
      </trkpt>
      <trkpt lat="48.50639" lon="7.14836">
        <ele>741.57861</ele>
        <time>2022-08-08T17:05:30.000Z</time>
      </trkpt>
      <trkpt lat="48.50641" lon="7.14832">
        <ele>741.00159</ele>
        <time>2022-08-08T17:05:32.000Z</time>
      </trkpt>
      <trkpt lat="48.50642" lon="7.14828">
        <ele>740.41882</ele>
        <time>2022-08-08T17:05:34.000Z</time>
      </trkpt>
      <trkpt lat="48.50643" lon="7.14825">
        <ele>739.81122</ele>
        <time>2022-08-08T17:05:36.000Z</time>
      </trkpt>
      <trkpt lat="48.50645" lon="7.14821">
        <ele>739.12848</ele>
        <time>2022-08-08T17:05:38.000Z</time>
      </trkpt>
      <trkpt lat="48.50645" lon="7.14817">
        <ele>738.60907</ele>
        <time>2022-08-08T17:05:45.000Z</time>
      </trkpt>
      <trkpt lat="48.50646" lon="7.14814">
        <ele>738.0434</ele>
        <time>2022-08-08T17:05:47.000Z</time>
      </trkpt>
      <trkpt lat="48.50646" lon="7.14811">
        <ele>737.44415</ele>
        <time>2022-08-08T17:05:49.000Z</time>
      </trkpt>
      <trkpt lat="48.50647" lon="7.14808">
        <ele>736.95618</ele>
        <time>2022-08-08T17:05:51.000Z</time>
      </trkpt>
      <trkpt lat="48.50648" lon="7.14804">
        <ele>736.44794</ele>
        <time>2022-08-08T17:05:53.000Z</time>
      </trkpt>
      <trkpt lat="48.5065" lon="7.148">
        <ele>735.89471</ele>
        <time>2022-08-08T17:05:55.000Z</time>
      </trkpt>
      <trkpt lat="48.50651" lon="7.14796">
        <ele>735.33484</ele>
        <time>2022-08-08T17:05:57.000Z</time>
      </trkpt>
      <trkpt lat="48.50652" lon="7.14793">
        <ele>734.77087</ele>
        <time>2022-08-08T17:05:59.000Z</time>
      </trkpt>
      <trkpt lat="48.50653" lon="7.14788">
        <ele>734.28198</ele>
        <time>2022-08-08T17:06:01.000Z</time>
      </trkpt>
      <trkpt lat="48.50653" lon="7.14785">
        <ele>733.76752</ele>
        <time>2022-08-08T17:06:03.000Z</time>
      </trkpt>
      <trkpt lat="48.50654" lon="7.14781">
        <ele>733.37</ele>
        <time>2022-08-08T17:06:10.000Z</time>
      </trkpt>
      <trkpt lat="48.50651" lon="7.1478">
        <ele>732.94104</ele>
        <time>2022-08-08T17:06:12.000Z</time>
      </trkpt>
      <trkpt lat="48.50649" lon="7.1478">
        <ele>732.43646</ele>
        <time>2022-08-08T17:06:15.000Z</time>
      </trkpt>
      <trkpt lat="48.50648" lon="7.14777">
        <ele>731.7356</ele>
        <time>2022-08-08T17:06:40.000Z</time>
      </trkpt>
      <trkpt lat="48.50649" lon="7.14774">
        <ele>730.97644</ele>
        <time>2022-08-08T17:06:42.000Z</time>
      </trkpt>
      <trkpt lat="48.50651" lon="7.14771">
        <ele>730.18469</ele>
        <time>2022-08-08T17:06:44.000Z</time>
      </trkpt>
      <trkpt lat="48.50652" lon="7.14768">
        <ele>729.4502</ele>
        <time>2022-08-08T17:06:46.000Z</time>
      </trkpt>
      <trkpt lat="48.50653" lon="7.14766">
        <ele>728.74597</ele>
        <time>2022-08-08T17:06:48.000Z</time>
      </trkpt>
      <trkpt lat="48.50655" lon="7.14761">
        <ele>727.99957</ele>
        <time>2022-08-08T17:06:52.000Z</time>
      </trkpt>
      <trkpt lat="48.50656" lon="7.14758">
        <ele>727.3504</ele>
        <time>2022-08-08T17:06:54.000Z</time>
      </trkpt>
      <trkpt lat="48.50657" lon="7.14755">
        <ele>726.57703</ele>
        <time>2022-08-08T17:06:57.000Z</time>
      </trkpt>
      <trkpt lat="48.50658" lon="7.14751">
        <ele>725.95374</ele>
        <time>2022-08-08T17:07:00.000Z</time>
      </trkpt>
      <trkpt lat="48.50659" lon="7.14748">
        <ele>725.55481</ele>
        <time>2022-08-08T17:07:03.000Z</time>
      </trkpt>
      <trkpt lat="48.50659" lon="7.14746">
        <ele>725.29773</ele>
        <time>2022-08-08T17:07:45.000Z</time>
      </trkpt>
      <trkpt lat="48.5066" lon="7.14742">
        <ele>725.14099</ele>
        <time>2022-08-08T17:07:48.000Z</time>
      </trkpt>
      <trkpt lat="48.50663" lon="7.14741">
        <ele>725.07263</ele>
        <time>2022-08-08T17:07:50.000Z</time>
      </trkpt>
      <trkpt lat="48.50665" lon="7.14741">
        <ele>724.96619</ele>
        <time>2022-08-08T17:07:52.000Z</time>
      </trkpt>
      <trkpt lat="48.50667" lon="7.14737">
        <ele>724.75452</ele>
        <time>2022-08-08T17:07:53.000Z</time>
      </trkpt>
      <trkpt lat="48.50669" lon="7.14736">
        <ele>724.54675</ele>
        <time>2022-08-08T17:08:01.000Z</time>
      </trkpt>
      <trkpt lat="48.50672" lon="7.14734">
        <ele>724.46112</ele>
        <time>2022-08-08T17:08:04.000Z</time>
      </trkpt>
      <trkpt lat="48.50674" lon="7.14733">
        <ele>724.31458</ele>
        <time>2022-08-08T17:08:06.000Z</time>
      </trkpt>
      <trkpt lat="48.50677" lon="7.14731">
        <ele>724.12</ele>
        <time>2022-08-08T17:08:08.000Z</time>
      </trkpt>
      <trkpt lat="48.50678" lon="7.1473">
        <ele>724.02704</ele>
        <time>2022-08-08T17:08:10.000Z</time>
      </trkpt>
      <trkpt lat="48.50681" lon="7.14729">
        <ele>724.26361</ele>
        <time>2022-08-08T17:08:13.000Z</time>
      </trkpt>
      <trkpt lat="48.50684" lon="7.14726">
        <ele>724.56244</ele>
        <time>2022-08-08T17:08:15.000Z</time>
      </trkpt>
      <trkpt lat="48.50686" lon="7.14723">
        <ele>724.94299</ele>
        <time>2022-08-08T17:08:17.000Z</time>
      </trkpt>
      <trkpt lat="48.50689" lon="7.14722">
        <ele>725.35736</ele>
        <time>2022-08-08T17:08:19.000Z</time>
      </trkpt>
      <trkpt lat="48.50692" lon="7.1472">
        <ele>725.80383</ele>
        <time>2022-08-08T17:08:21.000Z</time>
      </trkpt>
      <trkpt lat="48.50694" lon="7.14718">
        <ele>726.38489</ele>
        <time>2022-08-08T17:08:23.000Z</time>
      </trkpt>
      <trkpt lat="48.50696" lon="7.14716">
        <ele>727.03308</ele>
        <time>2022-08-08T17:08:25.000Z</time>
      </trkpt>
      <trkpt lat="48.50698" lon="7.14714">
        <ele>727.841</ele>
        <time>2022-08-08T17:08:27.000Z</time>
      </trkpt>
      <trkpt lat="48.507" lon="7.14712">
        <ele>728.62213</ele>
        <time>2022-08-08T17:08:29.000Z</time>
      </trkpt>
      <trkpt lat="48.50702" lon="7.14711">
        <ele>729.29095</ele>
        <time>2022-08-08T17:08:31.000Z</time>
      </trkpt>
      <trkpt lat="48.50704" lon="7.14709">
        <ele>729.9173</ele>
        <time>2022-08-08T17:08:33.000Z</time>
      </trkpt>
      <trkpt lat="48.50706" lon="7.14707">
        <ele>730.49902</ele>
        <time>2022-08-08T17:08:35.000Z</time>
      </trkpt>
      <trkpt lat="48.50709" lon="7.14706">
        <ele>731.0285</ele>
        <time>2022-08-08T17:08:37.000Z</time>
      </trkpt>
      <trkpt lat="48.50711" lon="7.14703">
        <ele>731.64001</ele>
        <time>2022-08-08T17:08:39.000Z</time>
      </trkpt>
      <trkpt lat="48.50714" lon="7.14701">
        <ele>732.31482</ele>
        <time>2022-08-08T17:08:41.000Z</time>
      </trkpt>
      <trkpt lat="48.50716" lon="7.14699">
        <ele>732.95618</ele>
        <time>2022-08-08T17:08:42.000Z</time>
      </trkpt>
      <trkpt lat="48.50718" lon="7.14697">
        <ele>733.53979</ele>
        <time>2022-08-08T17:08:44.000Z</time>
      </trkpt>
      <trkpt lat="48.50721" lon="7.14695">
        <ele>734.09827</ele>
        <time>2022-08-08T17:08:46.000Z</time>
      </trkpt>
      <trkpt lat="48.50723" lon="7.14693">
        <ele>734.75653</ele>
        <time>2022-08-08T17:08:48.000Z</time>
      </trkpt>
      <trkpt lat="48.50725" lon="7.14691">
        <ele>735.48401</ele>
        <time>2022-08-08T17:08:50.000Z</time>
      </trkpt>
      <trkpt lat="48.50727" lon="7.14687">
        <ele>736.18262</ele>
        <time>2022-08-08T17:08:52.000Z</time>
      </trkpt>
      <trkpt lat="48.50728" lon="7.14684">
        <ele>736.92615</ele>
        <time>2022-08-08T17:08:54.000Z</time>
      </trkpt>
      <trkpt lat="48.50729" lon="7.1468">
        <ele>737.63818</ele>
        <time>2022-08-08T17:08:56.000Z</time>
      </trkpt>
      <trkpt lat="48.50731" lon="7.14676">
        <ele>738.27545</ele>
        <time>2022-08-08T17:08:58.000Z</time>
      </trkpt>
      <trkpt lat="48.50732" lon="7.14673">
        <ele>738.90479</ele>
        <time>2022-08-08T17:09:00.000Z</time>
      </trkpt>
      <trkpt lat="48.50732" lon="7.14668">
        <ele>739.47943</ele>
        <time>2022-08-08T17:09:02.000Z</time>
      </trkpt>
      <trkpt lat="48.50733" lon="7.14664">
        <ele>739.953</ele>
        <time>2022-08-08T17:09:04.000Z</time>
      </trkpt>
      <trkpt lat="48.50733" lon="7.1466">
        <ele>740.34167</ele>
        <time>2022-08-08T17:09:06.000Z</time>
      </trkpt>
      <trkpt lat="48.50734" lon="7.14655">
        <ele>740.69727</ele>
        <time>2022-08-08T17:09:08.000Z</time>
      </trkpt>
      <trkpt lat="48.50734" lon="7.1465">
        <ele>741.00098</ele>
        <time>2022-08-08T17:09:10.000Z</time>
      </trkpt>
      <trkpt lat="48.50735" lon="7.14645">
        <ele>741.24353</ele>
        <time>2022-08-08T17:09:12.000Z</time>
      </trkpt>
      <trkpt lat="48.50734" lon="7.14641">
        <ele>741.47845</ele>
        <time>2022-08-08T17:09:14.000Z</time>
      </trkpt>
      <trkpt lat="48.50734" lon="7.14636">
        <ele>741.72614</ele>
        <time>2022-08-08T17:09:16.000Z</time>
      </trkpt>
      <trkpt lat="48.50734" lon="7.14632">
        <ele>741.87415</ele>
        <time>2022-08-08T17:09:18.000Z</time>
      </trkpt>
      <trkpt lat="48.50733" lon="7.14627">
        <ele>742.09332</ele>
        <time>2022-08-08T17:09:20.000Z</time>
      </trkpt>
      <trkpt lat="48.50732" lon="7.14623">
        <ele>742.31647</ele>
        <time>2022-08-08T17:09:22.000Z</time>
      </trkpt>
      <trkpt lat="48.50731" lon="7.1462">
        <ele>742.54962</ele>
        <time>2022-08-08T17:09:24.000Z</time>
      </trkpt>
      <trkpt lat="48.5073" lon="7.14616">
        <ele>742.74579</ele>
        <time>2022-08-08T17:09:26.000Z</time>
      </trkpt>
      <trkpt lat="48.50729" lon="7.14613">
        <ele>742.88641</ele>
        <time>2022-08-08T17:09:28.000Z</time>
      </trkpt>
      <trkpt lat="48.50727" lon="7.14609">
        <ele>742.90198</ele>
        <time>2022-08-08T17:09:30.000Z</time>
      </trkpt>
      <trkpt lat="48.50726" lon="7.14605">
        <ele>742.84753</ele>
        <time>2022-08-08T17:09:32.000Z</time>
      </trkpt>
      <trkpt lat="48.50725" lon="7.14601">
        <ele>742.7395</ele>
        <time>2022-08-08T17:09:34.000Z</time>
      </trkpt>
      <trkpt lat="48.50724" lon="7.14597">
        <ele>742.6076</ele>
        <time>2022-08-08T17:09:36.000Z</time>
      </trkpt>
      <trkpt lat="48.50722" lon="7.14593">
        <ele>742.51691</ele>
        <time>2022-08-08T17:09:38.000Z</time>
      </trkpt>
      <trkpt lat="48.50721" lon="7.14589">
        <ele>742.39423</ele>
        <time>2022-08-08T17:09:40.000Z</time>
      </trkpt>
      <trkpt lat="48.5072" lon="7.14585">
        <ele>742.2876</ele>
        <time>2022-08-08T17:09:42.000Z</time>
      </trkpt>
      <trkpt lat="48.50718" lon="7.14581">
        <ele>742.24353</ele>
        <time>2022-08-08T17:09:44.000Z</time>
      </trkpt>
      <trkpt lat="48.50717" lon="7.14578">
        <ele>742.23694</ele>
        <time>2022-08-08T17:09:46.000Z</time>
      </trkpt>
      <trkpt lat="48.50716" lon="7.14575">
        <ele>742.26483</ele>
        <time>2022-08-08T17:09:48.000Z</time>
      </trkpt>
      <trkpt lat="48.50714" lon="7.14571">
        <ele>742.29553</ele>
        <time>2022-08-08T17:09:50.000Z</time>
      </trkpt>
      <trkpt lat="48.50713" lon="7.14567">
        <ele>742.34283</ele>
        <time>2022-08-08T17:09:52.000Z</time>
      </trkpt>
      <trkpt lat="48.50712" lon="7.14563">
        <ele>742.35901</ele>
        <time>2022-08-08T17:09:54.000Z</time>
      </trkpt>
      <trkpt lat="48.5071" lon="7.14559">
        <ele>742.34253</ele>
        <time>2022-08-08T17:09:56.000Z</time>
      </trkpt>
      <trkpt lat="48.50708" lon="7.14555">
        <ele>742.36322</ele>
        <time>2022-08-08T17:09:58.000Z</time>
      </trkpt>
      <trkpt lat="48.50707" lon="7.14552">
        <ele>742.39502</ele>
        <time>2022-08-08T17:10:00.000Z</time>
      </trkpt>
      <trkpt lat="48.50705" lon="7.14548">
        <ele>742.45355</ele>
        <time>2022-08-08T17:10:02.000Z</time>
      </trkpt>
      <trkpt lat="48.50703" lon="7.14545">
        <ele>742.49121</ele>
        <time>2022-08-08T17:10:04.000Z</time>
      </trkpt>
      <trkpt lat="48.50702" lon="7.14542">
        <ele>742.49829</ele>
        <time>2022-08-08T17:10:06.000Z</time>
      </trkpt>
      <trkpt lat="48.507" lon="7.14537">
        <ele>742.51196</ele>
        <time>2022-08-08T17:10:08.000Z</time>
      </trkpt>
      <trkpt lat="48.50699" lon="7.14533">
        <ele>742.49646</ele>
        <time>2022-08-08T17:10:10.000Z</time>
      </trkpt>
      <trkpt lat="48.50697" lon="7.14529">
        <ele>742.45984</ele>
        <time>2022-08-08T17:10:12.000Z</time>
      </trkpt>
      <trkpt lat="48.50696" lon="7.14525">
        <ele>742.45911</ele>
        <time>2022-08-08T17:10:14.000Z</time>
      </trkpt>
      <trkpt lat="48.50695" lon="7.14521">
        <ele>742.44324</ele>
        <time>2022-08-08T17:10:16.000Z</time>
      </trkpt>
      <trkpt lat="48.50694" lon="7.14518">
        <ele>742.44263</ele>
        <time>2022-08-08T17:10:18.000Z</time>
      </trkpt>
      <trkpt lat="48.50692" lon="7.14514">
        <ele>742.46191</ele>
        <time>2022-08-08T17:10:20.000Z</time>
      </trkpt>
      <trkpt lat="48.50691" lon="7.1451">
        <ele>742.50513</ele>
        <time>2022-08-08T17:10:22.000Z</time>
      </trkpt>
      <trkpt lat="48.5069" lon="7.14507">
        <ele>742.51672</ele>
        <time>2022-08-08T17:10:24.000Z</time>
      </trkpt>
      <trkpt lat="48.50689" lon="7.14502">
        <ele>742.54492</ele>
        <time>2022-08-08T17:10:27.000Z</time>
      </trkpt>
      <trkpt lat="48.50688" lon="7.14498">
        <ele>742.53137</ele>
        <time>2022-08-08T17:10:29.000Z</time>
      </trkpt>
      <trkpt lat="48.50687" lon="7.14495">
        <ele>742.5708</ele>
        <time>2022-08-08T17:10:31.000Z</time>
      </trkpt>
      <trkpt lat="48.50686" lon="7.14492">
        <ele>742.63391</ele>
        <time>2022-08-08T17:10:33.000Z</time>
      </trkpt>
      <trkpt lat="48.50684" lon="7.14488">
        <ele>742.75122</ele>
        <time>2022-08-08T17:10:35.000Z</time>
      </trkpt>
      <trkpt lat="48.50683" lon="7.14485">
        <ele>742.91583</ele>
        <time>2022-08-08T17:10:37.000Z</time>
      </trkpt>
      <trkpt lat="48.50682" lon="7.14481">
        <ele>743.10394</ele>
        <time>2022-08-08T17:10:39.000Z</time>
      </trkpt>
      <trkpt lat="48.5068" lon="7.14477">
        <ele>743.28931</ele>
        <time>2022-08-08T17:10:41.000Z</time>
      </trkpt>
      <trkpt lat="48.50679" lon="7.14474">
        <ele>743.48792</ele>
        <time>2022-08-08T17:10:43.000Z</time>
      </trkpt>
      <trkpt lat="48.50678" lon="7.1447">
        <ele>743.68665</ele>
        <time>2022-08-08T17:10:45.000Z</time>
      </trkpt>
      <trkpt lat="48.50676" lon="7.14467">
        <ele>743.90515</ele>
        <time>2022-08-08T17:10:47.000Z</time>
      </trkpt>
      <trkpt lat="48.50675" lon="7.14464">
        <ele>744.11536</ele>
        <time>2022-08-08T17:10:49.000Z</time>
      </trkpt>
      <trkpt lat="48.50673" lon="7.14461">
        <ele>744.38348</ele>
        <time>2022-08-08T17:10:51.000Z</time>
      </trkpt>
      <trkpt lat="48.50671" lon="7.14457">
        <ele>744.63818</ele>
        <time>2022-08-08T17:10:53.000Z</time>
      </trkpt>
      <trkpt lat="48.5067" lon="7.14453">
        <ele>744.8653</ele>
        <time>2022-08-08T17:10:55.000Z</time>
      </trkpt>
      <trkpt lat="48.50668" lon="7.1445">
        <ele>745.07971</ele>
        <time>2022-08-08T17:10:57.000Z</time>
      </trkpt>
      <trkpt lat="48.50665" lon="7.14447">
        <ele>745.27802</ele>
        <time>2022-08-08T17:10:59.000Z</time>
      </trkpt>
      <trkpt lat="48.50663" lon="7.14443">
        <ele>745.45715</ele>
        <time>2022-08-08T17:11:01.000Z</time>
      </trkpt>
      <trkpt lat="48.50661" lon="7.14439">
        <ele>745.56238</ele>
        <time>2022-08-08T17:11:03.000Z</time>
      </trkpt>
      <trkpt lat="48.50659" lon="7.14436">
        <ele>745.69885</ele>
        <time>2022-08-08T17:11:05.000Z</time>
      </trkpt>
      <trkpt lat="48.50657" lon="7.14433">
        <ele>745.84192</ele>
        <time>2022-08-08T17:11:07.000Z</time>
      </trkpt>
      <trkpt lat="48.50655" lon="7.14429">
        <ele>745.98535</ele>
        <time>2022-08-08T17:11:09.000Z</time>
      </trkpt>
      <trkpt lat="48.50654" lon="7.14425">
        <ele>746.0415</ele>
        <time>2022-08-08T17:11:11.000Z</time>
      </trkpt>
      <trkpt lat="48.50652" lon="7.14422">
        <ele>746.11554</ele>
        <time>2022-08-08T17:11:13.000Z</time>
      </trkpt>
      <trkpt lat="48.50651" lon="7.14418">
        <ele>746.16174</ele>
        <time>2022-08-08T17:11:15.000Z</time>
      </trkpt>
      <trkpt lat="48.50649" lon="7.14414">
        <ele>746.1925</ele>
        <time>2022-08-08T17:11:17.000Z</time>
      </trkpt>
      <trkpt lat="48.50647" lon="7.14411">
        <ele>746.24127</ele>
        <time>2022-08-08T17:11:19.000Z</time>
      </trkpt>
      <trkpt lat="48.50646" lon="7.14407">
        <ele>746.26123</ele>
        <time>2022-08-08T17:11:21.000Z</time>
      </trkpt>
      <trkpt lat="48.50644" lon="7.14403">
        <ele>746.23291</ele>
        <time>2022-08-08T17:11:23.000Z</time>
      </trkpt>
      <trkpt lat="48.50643" lon="7.14399">
        <ele>746.13342</ele>
        <time>2022-08-08T17:11:25.000Z</time>
      </trkpt>
      <trkpt lat="48.50642" lon="7.14395">
        <ele>746.02063</ele>
        <time>2022-08-08T17:11:27.000Z</time>
      </trkpt>
      <trkpt lat="48.5064" lon="7.14392">
        <ele>745.88306</ele>
        <time>2022-08-08T17:11:29.000Z</time>
      </trkpt>
      <trkpt lat="48.50639" lon="7.14389">
        <ele>745.73352</ele>
        <time>2022-08-08T17:11:31.000Z</time>
      </trkpt>
      <trkpt lat="48.50637" lon="7.14386">
        <ele>745.5921</ele>
        <time>2022-08-08T17:11:33.000Z</time>
      </trkpt>
      <trkpt lat="48.50635" lon="7.14382">
        <ele>745.47937</ele>
        <time>2022-08-08T17:11:35.000Z</time>
      </trkpt>
      <trkpt lat="48.50634" lon="7.14379">
        <ele>745.40967</ele>
        <time>2022-08-08T17:11:37.000Z</time>
      </trkpt>
      <trkpt lat="48.50633" lon="7.14376">
        <ele>745.36426</ele>
        <time>2022-08-08T17:11:39.000Z</time>
      </trkpt>
      <trkpt lat="48.50632" lon="7.14371">
        <ele>745.3429</ele>
        <time>2022-08-08T17:11:41.000Z</time>
      </trkpt>
      <trkpt lat="48.5063" lon="7.14367">
        <ele>745.30646</ele>
        <time>2022-08-08T17:11:43.000Z</time>
      </trkpt>
      <trkpt lat="48.5063" lon="7.14363">
        <ele>745.24841</ele>
        <time>2022-08-08T17:11:45.000Z</time>
      </trkpt>
      <trkpt lat="48.50628" lon="7.14359">
        <ele>745.2204</ele>
        <time>2022-08-08T17:11:47.000Z</time>
      </trkpt>
      <trkpt lat="48.50627" lon="7.14355">
        <ele>745.17517</ele>
        <time>2022-08-08T17:11:49.000Z</time>
      </trkpt>
      <trkpt lat="48.50626" lon="7.14351">
        <ele>745.14001</ele>
        <time>2022-08-08T17:11:51.000Z</time>
      </trkpt>
      <trkpt lat="48.50625" lon="7.14346">
        <ele>745.05334</ele>
        <time>2022-08-08T17:11:53.000Z</time>
      </trkpt>
      <trkpt lat="48.50624" lon="7.14343">
        <ele>744.91565</ele>
        <time>2022-08-08T17:11:55.000Z</time>
      </trkpt>
      <trkpt lat="48.50623" lon="7.14338">
        <ele>744.78113</ele>
        <time>2022-08-08T17:11:57.000Z</time>
      </trkpt>
      <trkpt lat="48.50622" lon="7.14333">
        <ele>744.65021</ele>
        <time>2022-08-08T17:11:59.000Z</time>
      </trkpt>
      <trkpt lat="48.5062" lon="7.1433">
        <ele>744.50568</ele>
        <time>2022-08-08T17:12:01.000Z</time>
      </trkpt>
      <trkpt lat="48.50618" lon="7.14326">
        <ele>744.40454</ele>
        <time>2022-08-08T17:12:03.000Z</time>
      </trkpt>
      <trkpt lat="48.50617" lon="7.14323">
        <ele>744.34235</ele>
        <time>2022-08-08T17:12:05.000Z</time>
      </trkpt>
      <trkpt lat="48.50616" lon="7.1432">
        <ele>744.29529</ele>
        <time>2022-08-08T17:12:07.000Z</time>
      </trkpt>
      <trkpt lat="48.50614" lon="7.14316">
        <ele>744.28497</ele>
        <time>2022-08-08T17:12:09.000Z</time>
      </trkpt>
      <trkpt lat="48.50613" lon="7.14312">
        <ele>744.22449</ele>
        <time>2022-08-08T17:12:11.000Z</time>
      </trkpt>
      <trkpt lat="48.50611" lon="7.14307">
        <ele>744.18372</ele>
        <time>2022-08-08T17:12:13.000Z</time>
      </trkpt>
      <trkpt lat="48.5061" lon="7.14303">
        <ele>744.10327</ele>
        <time>2022-08-08T17:12:15.000Z</time>
      </trkpt>
      <trkpt lat="48.50608" lon="7.14299">
        <ele>744.01825</ele>
        <time>2022-08-08T17:12:17.000Z</time>
      </trkpt>
      <trkpt lat="48.50607" lon="7.14295">
        <ele>743.92645</ele>
        <time>2022-08-08T17:12:19.000Z</time>
      </trkpt>
      <trkpt lat="48.50606" lon="7.14292">
        <ele>743.76563</ele>
        <time>2022-08-08T17:12:21.000Z</time>
      </trkpt>
      <trkpt lat="48.50605" lon="7.14288">
        <ele>743.67963</ele>
        <time>2022-08-08T17:12:23.000Z</time>
      </trkpt>
      <trkpt lat="48.50604" lon="7.14285">
        <ele>743.56116</ele>
        <time>2022-08-08T17:12:25.000Z</time>
      </trkpt>
      <trkpt lat="48.50603" lon="7.14281">
        <ele>743.35706</ele>
        <time>2022-08-08T17:12:27.000Z</time>
      </trkpt>
      <trkpt lat="48.50603" lon="7.14277">
        <ele>743.11682</ele>
        <time>2022-08-08T17:12:29.000Z</time>
      </trkpt>
      <trkpt lat="48.50603" lon="7.14275">
        <ele>742.88837</ele>
        <time>2022-08-08T17:12:32.000Z</time>
      </trkpt>
      <trkpt lat="48.50605" lon="7.14275">
        <ele>742.66003</ele>
        <time>2022-08-08T17:12:35.000Z</time>
      </trkpt>
      <trkpt lat="48.50604" lon="7.14271">
        <ele>742.43317</ele>
        <time>2022-08-08T17:12:37.000Z</time>
      </trkpt>
      <trkpt lat="48.50601" lon="7.14271">
        <ele>742.12146</ele>
        <time>2022-08-08T17:12:38.000Z</time>
      </trkpt>
      <trkpt lat="48.506" lon="7.14275">
        <ele>741.75403</ele>
        <time>2022-08-08T17:12:39.000Z</time>
      </trkpt>
      <trkpt lat="48.50603" lon="7.14278">
        <ele>741.35089</ele>
        <time>2022-08-08T17:12:40.000Z</time>
      </trkpt>
      <trkpt lat="48.50605" lon="7.14275">
        <ele>741.02032</ele>
        <time>2022-08-08T17:12:42.000Z</time>
      </trkpt>
      <trkpt lat="48.50604" lon="7.14273">
        <ele>740.69104</ele>
        <time>2022-08-08T17:13:06.000Z</time>
      </trkpt>
      <trkpt lat="48.50603" lon="7.1427">
        <ele>740.30908</ele>
        <time>2022-08-08T17:13:08.000Z</time>
      </trkpt>
      <trkpt lat="48.506" lon="7.1427">
        <ele>739.96521</ele>
        <time>2022-08-08T17:13:11.000Z</time>
      </trkpt>
      <trkpt lat="48.50601" lon="7.14266">
        <ele>739.57703</ele>
        <time>2022-08-08T17:13:39.000Z</time>
      </trkpt>
      <trkpt lat="48.50603" lon="7.14266">
        <ele>739.03271</ele>
        <time>2022-08-08T17:13:43.000Z</time>
      </trkpt>
      <trkpt lat="48.50604" lon="7.14264">
        <ele>738.48254</ele>
        <time>2022-08-08T17:14:23.000Z</time>
      </trkpt>
      <trkpt lat="48.50602" lon="7.14264">
        <ele>737.93372</ele>
        <time>2022-08-08T17:14:29.000Z</time>
      </trkpt>
      <trkpt lat="48.506" lon="7.14266">
        <ele>737.39612</ele>
        <time>2022-08-08T17:14:31.000Z</time>
      </trkpt>
      <trkpt lat="48.506" lon="7.14271">
        <ele>736.96887</ele>
        <time>2022-08-08T17:14:32.000Z</time>
      </trkpt>
      <trkpt lat="48.50601" lon="7.14274">
        <ele>736.53528</ele>
        <time>2022-08-08T17:14:35.000Z</time>
      </trkpt>
      <trkpt lat="48.50603" lon="7.14272">
        <ele>736.39099</ele>
        <time>2022-08-08T17:14:37.000Z</time>
      </trkpt>
      <trkpt lat="48.50604" lon="7.14271">
        <ele>736.38702</ele>
        <time>2022-08-08T17:14:39.000Z</time>
      </trkpt>
      <trkpt lat="48.50602" lon="7.14271">
        <ele>736.40961</ele>
        <time>2022-08-08T17:14:51.000Z</time>
      </trkpt>
      <trkpt lat="48.506" lon="7.14272">
        <ele>736.48541</ele>
        <time>2022-08-08T17:14:53.000Z</time>
      </trkpt>
      <trkpt lat="48.50597" lon="7.14269">
        <ele>736.58734</ele>
        <time>2022-08-08T17:14:55.000Z</time>
      </trkpt>
      <trkpt lat="48.50595" lon="7.14266">
        <ele>736.72968</ele>
        <time>2022-08-08T17:14:57.000Z</time>
      </trkpt>
      <trkpt lat="48.50593" lon="7.14263">
        <ele>736.9314</ele>
        <time>2022-08-08T17:14:59.000Z</time>
      </trkpt>
      <trkpt lat="48.5059" lon="7.14262">
        <ele>737.09967</ele>
        <time>2022-08-08T17:15:01.000Z</time>
      </trkpt>
      <trkpt lat="48.50588" lon="7.14261">
        <ele>737.3186</ele>
        <time>2022-08-08T17:15:03.000Z</time>
      </trkpt>
      <trkpt lat="48.50585" lon="7.1426">
        <ele>737.39948</ele>
        <time>2022-08-08T17:15:05.000Z</time>
      </trkpt>
      <trkpt lat="48.50583" lon="7.14258">
        <ele>737.51135</ele>
        <time>2022-08-08T17:15:07.000Z</time>
      </trkpt>
      <trkpt lat="48.5058" lon="7.14258">
        <ele>737.68933</ele>
        <time>2022-08-08T17:15:09.000Z</time>
      </trkpt>
      <trkpt lat="48.50577" lon="7.14258">
        <ele>737.80603</ele>
        <time>2022-08-08T17:15:11.000Z</time>
      </trkpt>
      <trkpt lat="48.50575" lon="7.14257">
        <ele>738.03314</ele>
        <time>2022-08-08T17:15:13.000Z</time>
      </trkpt>
      <trkpt lat="48.50572" lon="7.14256">
        <ele>738.42108</ele>
        <time>2022-08-08T17:15:15.000Z</time>
      </trkpt>
      <trkpt lat="48.50569" lon="7.14254">
        <ele>738.81885</ele>
        <time>2022-08-08T17:15:17.000Z</time>
      </trkpt>
      <trkpt lat="48.50568" lon="7.14258">
        <ele>739.14783</ele>
        <time>2022-08-08T17:15:18.000Z</time>
      </trkpt>
      <trkpt lat="48.50568" lon="7.14264">
        <ele>739.47205</ele>
        <time>2022-08-08T17:15:20.000Z</time>
      </trkpt>
      <trkpt lat="48.50564" lon="7.14266">
        <ele>739.66394</ele>
        <time>2022-08-08T17:15:25.000Z</time>
      </trkpt>
      <trkpt lat="48.50562" lon="7.14268">
        <ele>739.78284</ele>
        <time>2022-08-08T17:15:27.000Z</time>
      </trkpt>
      <trkpt lat="48.5056" lon="7.14269">
        <ele>739.63892</ele>
        <time>2022-08-08T17:15:29.000Z</time>
      </trkpt>
      <trkpt lat="48.50559" lon="7.14268">
        <ele>739.37787</ele>
        <time>2022-08-08T17:15:31.000Z</time>
      </trkpt>
      <trkpt lat="48.50557" lon="7.14266">
        <ele>739.19708</ele>
        <time>2022-08-08T17:15:33.000Z</time>
      </trkpt>
      <trkpt lat="48.50555" lon="7.14254">
        <ele>738.97699</ele>
        <time>2022-08-08T17:15:34.000Z</time>
      </trkpt>
      <trkpt lat="48.50553" lon="7.14253">
        <ele>738.72351</ele>
        <time>2022-08-08T17:15:37.000Z</time>
      </trkpt>
      <trkpt lat="48.50551" lon="7.14252">
        <ele>738.53577</ele>
        <time>2022-08-08T17:16:02.000Z</time>
      </trkpt>
      <trkpt lat="48.5055" lon="7.14249">
        <ele>738.37439</ele>
        <time>2022-08-08T17:16:08.000Z</time>
      </trkpt>
      <trkpt lat="48.50548" lon="7.14247">
        <ele>738.28625</ele>
        <time>2022-08-08T17:16:10.000Z</time>
      </trkpt>
      <trkpt lat="48.50546" lon="7.14248">
        <ele>738.21478</ele>
        <time>2022-08-08T17:16:13.000Z</time>
      </trkpt>
      <trkpt lat="48.50543" lon="7.14248">
        <ele>738.22003</ele>
        <time>2022-08-08T17:16:15.000Z</time>
      </trkpt>
      <trkpt lat="48.5054" lon="7.14248">
        <ele>738.23627</ele>
        <time>2022-08-08T17:16:17.000Z</time>
      </trkpt>
      <trkpt lat="48.50538" lon="7.14246">
        <ele>738.21942</ele>
        <time>2022-08-08T17:16:19.000Z</time>
      </trkpt>
      <trkpt lat="48.50535" lon="7.14244">
        <ele>738.25909</ele>
        <time>2022-08-08T17:16:21.000Z</time>
      </trkpt>
      <trkpt lat="48.50532" lon="7.14243">
        <ele>738.26379</ele>
        <time>2022-08-08T17:16:23.000Z</time>
      </trkpt>
      <trkpt lat="48.50529" lon="7.14243">
        <ele>738.23352</ele>
        <time>2022-08-08T17:16:25.000Z</time>
      </trkpt>
      <trkpt lat="48.50526" lon="7.14242">
        <ele>738.19336</ele>
        <time>2022-08-08T17:16:27.000Z</time>
      </trkpt>
      <trkpt lat="48.50523" lon="7.1424">
        <ele>738.21796</ele>
        <time>2022-08-08T17:16:29.000Z</time>
      </trkpt>
      <trkpt lat="48.5052" lon="7.1424">
        <ele>738.19135</ele>
        <time>2022-08-08T17:16:31.000Z</time>
      </trkpt>
      <trkpt lat="48.50517" lon="7.14239">
        <ele>738.28644</ele>
        <time>2022-08-08T17:16:33.000Z</time>
      </trkpt>
      <trkpt lat="48.50514" lon="7.14239">
        <ele>738.43677</ele>
        <time>2022-08-08T17:16:35.000Z</time>
      </trkpt>
      <trkpt lat="48.50512" lon="7.14238">
        <ele>738.67615</ele>
        <time>2022-08-08T17:16:37.000Z</time>
      </trkpt>
      <trkpt lat="48.50509" lon="7.14237">
        <ele>738.93933</ele>
        <time>2022-08-08T17:16:39.000Z</time>
      </trkpt>
      <trkpt lat="48.50506" lon="7.14237">
        <ele>739.1825</ele>
        <time>2022-08-08T17:16:41.000Z</time>
      </trkpt>
      <trkpt lat="48.50504" lon="7.14235">
        <ele>739.47705</ele>
        <time>2022-08-08T17:16:43.000Z</time>
      </trkpt>
      <trkpt lat="48.50502" lon="7.14233">
        <ele>739.79346</ele>
        <time>2022-08-08T17:16:45.000Z</time>
      </trkpt>
      <trkpt lat="48.50499" lon="7.14231">
        <ele>740.03461</ele>
        <time>2022-08-08T17:16:47.000Z</time>
      </trkpt>
      <trkpt lat="48.50497" lon="7.1423">
        <ele>740.22021</ele>
        <time>2022-08-08T17:16:48.000Z</time>
      </trkpt>
      <trkpt lat="48.50494" lon="7.1423">
        <ele>740.42834</ele>
        <time>2022-08-08T17:16:50.000Z</time>
      </trkpt>
      <trkpt lat="48.50492" lon="7.1423">
        <ele>740.63214</ele>
        <time>2022-08-08T17:16:52.000Z</time>
      </trkpt>
      <trkpt lat="48.50489" lon="7.14228">
        <ele>740.8468</ele>
        <time>2022-08-08T17:16:54.000Z</time>
      </trkpt>
      <trkpt lat="48.50486" lon="7.14226">
        <ele>741.06323</ele>
        <time>2022-08-08T17:16:56.000Z</time>
      </trkpt>
      <trkpt lat="48.50484" lon="7.14225">
        <ele>741.27869</ele>
        <time>2022-08-08T17:16:57.000Z</time>
      </trkpt>
      <trkpt lat="48.50482" lon="7.14224">
        <ele>741.46802</ele>
        <time>2022-08-08T17:16:59.000Z</time>
      </trkpt>
      <trkpt lat="48.5048" lon="7.14222">
        <ele>741.69257</ele>
        <time>2022-08-08T17:17:01.000Z</time>
      </trkpt>
      <trkpt lat="48.50477" lon="7.14222">
        <ele>741.9563</ele>
        <time>2022-08-08T17:17:03.000Z</time>
      </trkpt>
      <trkpt lat="48.50475" lon="7.14221">
        <ele>742.26892</ele>
        <time>2022-08-08T17:17:05.000Z</time>
      </trkpt>
      <trkpt lat="48.50473" lon="7.14219">
        <ele>742.53601</ele>
        <time>2022-08-08T17:17:07.000Z</time>
      </trkpt>
      <trkpt lat="48.5047" lon="7.14218">
        <ele>742.82404</ele>
        <time>2022-08-08T17:17:09.000Z</time>
      </trkpt>
      <trkpt lat="48.50467" lon="7.14216">
        <ele>743.10907</ele>
        <time>2022-08-08T17:17:11.000Z</time>
      </trkpt>
      <trkpt lat="48.50465" lon="7.14213">
        <ele>743.39923</ele>
        <time>2022-08-08T17:17:13.000Z</time>
      </trkpt>
      <trkpt lat="48.50463" lon="7.1421">
        <ele>743.67444</ele>
        <time>2022-08-08T17:17:15.000Z</time>
      </trkpt>
      <trkpt lat="48.50461" lon="7.14205">
        <ele>743.93274</ele>
        <time>2022-08-08T17:17:17.000Z</time>
      </trkpt>
      <trkpt lat="48.50461" lon="7.14203">
        <ele>744.14526</ele>
        <time>2022-08-08T17:17:18.000Z</time>
      </trkpt>
      <trkpt lat="48.5046" lon="7.14198">
        <ele>744.30377</ele>
        <time>2022-08-08T17:17:20.000Z</time>
      </trkpt>
      <trkpt lat="48.50459" lon="7.14194">
        <ele>744.47034</ele>
        <time>2022-08-08T17:17:22.000Z</time>
      </trkpt>
      <trkpt lat="48.50459" lon="7.14189">
        <ele>744.67285</ele>
        <time>2022-08-08T17:17:24.000Z</time>
      </trkpt>
      <trkpt lat="48.50459" lon="7.14185">
        <ele>744.94885</ele>
        <time>2022-08-08T17:17:26.000Z</time>
      </trkpt>
      <trkpt lat="48.50459" lon="7.14181">
        <ele>745.16211</ele>
        <time>2022-08-08T17:17:28.000Z</time>
      </trkpt>
      <trkpt lat="48.50459" lon="7.14177">
        <ele>745.34381</ele>
        <time>2022-08-08T17:17:30.000Z</time>
      </trkpt>
      <trkpt lat="48.50459" lon="7.14173">
        <ele>745.49603</ele>
        <time>2022-08-08T17:17:32.000Z</time>
      </trkpt>
      <trkpt lat="48.5046" lon="7.14168">
        <ele>745.66022</ele>
        <time>2022-08-08T17:17:34.000Z</time>
      </trkpt>
      <trkpt lat="48.5046" lon="7.14164">
        <ele>745.90125</ele>
        <time>2022-08-08T17:17:36.000Z</time>
      </trkpt>
      <trkpt lat="48.50461" lon="7.1416">
        <ele>746.11877</ele>
        <time>2022-08-08T17:17:38.000Z</time>
      </trkpt>
      <trkpt lat="48.50461" lon="7.14155">
        <ele>746.31329</ele>
        <time>2022-08-08T17:17:40.000Z</time>
      </trkpt>
      <trkpt lat="48.5046" lon="7.1415">
        <ele>746.48608</ele>
        <time>2022-08-08T17:17:42.000Z</time>
      </trkpt>
      <trkpt lat="48.5046" lon="7.14146">
        <ele>746.62177</ele>
        <time>2022-08-08T17:17:44.000Z</time>
      </trkpt>
      <trkpt lat="48.50461" lon="7.14142">
        <ele>746.78333</ele>
        <time>2022-08-08T17:17:46.000Z</time>
      </trkpt>
      <trkpt lat="48.50462" lon="7.14139">
        <ele>747.00092</ele>
        <time>2022-08-08T17:17:48.000Z</time>
      </trkpt>
      <trkpt lat="48.50463" lon="7.14133">
        <ele>747.21326</ele>
        <time>2022-08-08T17:17:51.000Z</time>
      </trkpt>
      <trkpt lat="48.50462" lon="7.14129">
        <ele>747.39661</ele>
        <time>2022-08-08T17:17:53.000Z</time>
      </trkpt>
      <trkpt lat="48.50462" lon="7.14124">
        <ele>747.5788</ele>
        <time>2022-08-08T17:17:55.000Z</time>
      </trkpt>
      <trkpt lat="48.50462" lon="7.14119">
        <ele>747.77808</ele>
        <time>2022-08-08T17:17:57.000Z</time>
      </trkpt>
      <trkpt lat="48.50461" lon="7.14115">
        <ele>748.00354</ele>
        <time>2022-08-08T17:17:59.000Z</time>
      </trkpt>
      <trkpt lat="48.50461" lon="7.1411">
        <ele>748.21423</ele>
        <time>2022-08-08T17:18:01.000Z</time>
      </trkpt>
      <trkpt lat="48.50462" lon="7.14106">
        <ele>748.45288</ele>
        <time>2022-08-08T17:18:03.000Z</time>
      </trkpt>
      <trkpt lat="48.50463" lon="7.14101">
        <ele>748.64728</ele>
        <time>2022-08-08T17:18:05.000Z</time>
      </trkpt>
      <trkpt lat="48.50463" lon="7.14097">
        <ele>748.8056</ele>
        <time>2022-08-08T17:18:07.000Z</time>
      </trkpt>
      <trkpt lat="48.50464" lon="7.14092">
        <ele>749.03491</ele>
        <time>2022-08-08T17:18:09.000Z</time>
      </trkpt>
      <trkpt lat="48.50464" lon="7.14089">
        <ele>749.28284</ele>
        <time>2022-08-08T17:18:10.000Z</time>
      </trkpt>
      <trkpt lat="48.50466" lon="7.14084">
        <ele>749.52271</ele>
        <time>2022-08-08T17:18:12.000Z</time>
      </trkpt>
      <trkpt lat="48.50468" lon="7.1408">
        <ele>749.70367</ele>
        <time>2022-08-08T17:18:14.000Z</time>
      </trkpt>
      <trkpt lat="48.50469" lon="7.14078">
        <ele>749.80969</ele>
        <time>2022-08-08T17:18:15.000Z</time>
      </trkpt>
      <trkpt lat="48.50472" lon="7.14075">
        <ele>749.88025</ele>
        <time>2022-08-08T17:18:17.000Z</time>
      </trkpt>
      <trkpt lat="48.50475" lon="7.14073">
        <ele>749.97906</ele>
        <time>2022-08-08T17:18:18.000Z</time>
      </trkpt>
      <trkpt lat="48.50477" lon="7.14071">
        <ele>750.04797</ele>
        <time>2022-08-08T17:18:19.000Z</time>
      </trkpt>
      <trkpt lat="48.50478" lon="7.14069">
        <ele>750.12476</ele>
        <time>2022-08-08T17:18:20.000Z</time>
      </trkpt>
      <trkpt lat="48.50479" lon="7.14066">
        <ele>750.18262</ele>
        <time>2022-08-08T17:18:21.000Z</time>
      </trkpt>
      <trkpt lat="48.5048" lon="7.14063">
        <ele>750.19507</ele>
        <time>2022-08-08T17:18:23.000Z</time>
      </trkpt>
      <trkpt lat="48.5048" lon="7.1406">
        <ele>750.1673</ele>
        <time>2022-08-08T17:18:25.000Z</time>
      </trkpt>
      <trkpt lat="48.50479" lon="7.14057">
        <ele>750.16913</ele>
        <time>2022-08-08T17:18:27.000Z</time>
      </trkpt>
      <trkpt lat="48.50479" lon="7.14053">
        <ele>750.13373</ele>
        <time>2022-08-08T17:18:29.000Z</time>
      </trkpt>
      <trkpt lat="48.50478" lon="7.1405">
        <ele>750.05823</ele>
        <time>2022-08-08T17:18:31.000Z</time>
      </trkpt>
      <trkpt lat="48.50477" lon="7.14045">
        <ele>749.9834</ele>
        <time>2022-08-08T17:18:33.000Z</time>
      </trkpt>
      <trkpt lat="48.50475" lon="7.14042">
        <ele>750.00452</ele>
        <time>2022-08-08T17:18:35.000Z</time>
      </trkpt>
      <trkpt lat="48.50475" lon="7.14038">
        <ele>750.03241</ele>
        <time>2022-08-08T17:18:37.000Z</time>
      </trkpt>
      <trkpt lat="48.50475" lon="7.14033">
        <ele>750.1012</ele>
        <time>2022-08-08T17:18:39.000Z</time>
      </trkpt>
      <trkpt lat="48.50475" lon="7.14029">
        <ele>750.22034</ele>
        <time>2022-08-08T17:18:41.000Z</time>
      </trkpt>
      <trkpt lat="48.50474" lon="7.14025">
        <ele>750.25824</ele>
        <time>2022-08-08T17:18:43.000Z</time>
      </trkpt>
      <trkpt lat="48.50474" lon="7.1402">
        <ele>750.31989</ele>
        <time>2022-08-08T17:18:45.000Z</time>
      </trkpt>
      <trkpt lat="48.50474" lon="7.14015">
        <ele>750.38763</ele>
        <time>2022-08-08T17:18:47.000Z</time>
      </trkpt>
      <trkpt lat="48.50473" lon="7.14011">
        <ele>750.48218</ele>
        <time>2022-08-08T17:18:49.000Z</time>
      </trkpt>
      <trkpt lat="48.50472" lon="7.14007">
        <ele>750.61029</ele>
        <time>2022-08-08T17:18:51.000Z</time>
      </trkpt>
      <trkpt lat="48.50472" lon="7.14002">
        <ele>750.78638</ele>
        <time>2022-08-08T17:18:53.000Z</time>
      </trkpt>
      <trkpt lat="48.50471" lon="7.13998">
        <ele>750.84778</ele>
        <time>2022-08-08T17:18:55.000Z</time>
      </trkpt>
      <trkpt lat="48.50471" lon="7.13994">
        <ele>751.03363</ele>
        <time>2022-08-08T17:18:57.000Z</time>
      </trkpt>
      <trkpt lat="48.50471" lon="7.1399">
        <ele>751.32776</ele>
        <time>2022-08-08T17:18:59.000Z</time>
      </trkpt>
      <trkpt lat="48.5047" lon="7.13985">
        <ele>751.68079</ele>
        <time>2022-08-08T17:19:01.000Z</time>
      </trkpt>
      <trkpt lat="48.50469" lon="7.13981">
        <ele>752.13593</ele>
        <time>2022-08-08T17:19:03.000Z</time>
      </trkpt>
      <trkpt lat="48.50469" lon="7.13977">
        <ele>752.60022</ele>
        <time>2022-08-08T17:19:05.000Z</time>
      </trkpt>
      <trkpt lat="48.5047" lon="7.13973">
        <ele>752.99011</ele>
        <time>2022-08-08T17:19:07.000Z</time>
      </trkpt>
      <trkpt lat="48.50472" lon="7.13968">
        <ele>753.40295</ele>
        <time>2022-08-08T17:19:09.000Z</time>
      </trkpt>
      <trkpt lat="48.50473" lon="7.13964">
        <ele>753.94849</ele>
        <time>2022-08-08T17:19:11.000Z</time>
      </trkpt>
      <trkpt lat="48.50473" lon="7.1396">
        <ele>754.51526</ele>
        <time>2022-08-08T17:19:13.000Z</time>
      </trkpt>
      <trkpt lat="48.50474" lon="7.13956">
        <ele>755.19147</ele>
        <time>2022-08-08T17:19:15.000Z</time>
      </trkpt>
      <trkpt lat="48.50473" lon="7.13951">
        <ele>755.88733</ele>
        <time>2022-08-08T17:19:17.000Z</time>
      </trkpt>
      <trkpt lat="48.50472" lon="7.13947">
        <ele>756.65912</ele>
        <time>2022-08-08T17:19:19.000Z</time>
      </trkpt>
      <trkpt lat="48.50473" lon="7.13943">
        <ele>757.46277</ele>
        <time>2022-08-08T17:19:21.000Z</time>
      </trkpt>
      <trkpt lat="48.50472" lon="7.13938">
        <ele>758.29071</ele>
        <time>2022-08-08T17:19:23.000Z</time>
      </trkpt>
      <trkpt lat="48.50471" lon="7.13935">
        <ele>759.06134</ele>
        <time>2022-08-08T17:19:24.000Z</time>
      </trkpt>
      <trkpt lat="48.50471" lon="7.1393">
        <ele>759.87451</ele>
        <time>2022-08-08T17:19:26.000Z</time>
      </trkpt>
      <trkpt lat="48.50471" lon="7.13927">
        <ele>760.7489</ele>
        <time>2022-08-08T17:19:27.000Z</time>
      </trkpt>
      <trkpt lat="48.50471" lon="7.13925">
        <ele>761.60938</ele>
        <time>2022-08-08T17:19:28.000Z</time>
      </trkpt>
      <trkpt lat="48.50471" lon="7.13922">
        <ele>762.44818</ele>
        <time>2022-08-08T17:19:29.000Z</time>
      </trkpt>
      <trkpt lat="48.5047" lon="7.13919">
        <ele>763.33655</ele>
        <time>2022-08-08T17:19:30.000Z</time>
      </trkpt>
      <trkpt lat="48.50469" lon="7.13915">
        <ele>764.12598</ele>
        <time>2022-08-08T17:19:32.000Z</time>
      </trkpt>
      <trkpt lat="48.50468" lon="7.1391">
        <ele>764.82745</ele>
        <time>2022-08-08T17:19:34.000Z</time>
      </trkpt>
      <trkpt lat="48.50466" lon="7.13906">
        <ele>765.49011</ele>
        <time>2022-08-08T17:19:36.000Z</time>
      </trkpt>
      <trkpt lat="48.50465" lon="7.13902">
        <ele>766.08679</ele>
        <time>2022-08-08T17:19:38.000Z</time>
      </trkpt>
      <trkpt lat="48.50464" lon="7.13897">
        <ele>766.75385</ele>
        <time>2022-08-08T17:19:40.000Z</time>
      </trkpt>
      <trkpt lat="48.50464" lon="7.13893">
        <ele>767.6236</ele>
        <time>2022-08-08T17:19:42.000Z</time>
      </trkpt>
      <trkpt lat="48.50463" lon="7.1389">
        <ele>768.43341</ele>
        <time>2022-08-08T17:19:43.000Z</time>
      </trkpt>
      <trkpt lat="48.50462" lon="7.13886">
        <ele>769.16016</ele>
        <time>2022-08-08T17:19:45.000Z</time>
      </trkpt>
      <trkpt lat="48.5046" lon="7.13882">
        <ele>769.81799</ele>
        <time>2022-08-08T17:19:47.000Z</time>
      </trkpt>
      <trkpt lat="48.50459" lon="7.13877">
        <ele>770.29669</ele>
        <time>2022-08-08T17:19:49.000Z</time>
      </trkpt>
      <trkpt lat="48.50457" lon="7.13873">
        <ele>770.72119</ele>
        <time>2022-08-08T17:19:51.000Z</time>
      </trkpt>
      <trkpt lat="48.50456" lon="7.13868">
        <ele>771.04828</ele>
        <time>2022-08-08T17:19:53.000Z</time>
      </trkpt>
      <trkpt lat="48.50456" lon="7.13866">
        <ele>771.2666</ele>
        <time>2022-08-08T17:19:54.000Z</time>
      </trkpt>
      <trkpt lat="48.50455" lon="7.13861">
        <ele>771.53821</ele>
        <time>2022-08-08T17:19:56.000Z</time>
      </trkpt>
      <trkpt lat="48.50455" lon="7.13857">
        <ele>771.82452</ele>
        <time>2022-08-08T17:19:58.000Z</time>
      </trkpt>
      <trkpt lat="48.50453" lon="7.13855">
        <ele>772.08453</ele>
        <time>2022-08-08T17:20:00.000Z</time>
      </trkpt>
      <trkpt lat="48.50451" lon="7.13851">
        <ele>772.25201</ele>
        <time>2022-08-08T17:20:02.000Z</time>
      </trkpt>
      <trkpt lat="48.5045" lon="7.13847">
        <ele>772.39795</ele>
        <time>2022-08-08T17:20:04.000Z</time>
      </trkpt>
      <trkpt lat="48.5045" lon="7.13842">
        <ele>772.43115</ele>
        <time>2022-08-08T17:20:06.000Z</time>
      </trkpt>
      <trkpt lat="48.50449" lon="7.13838">
        <ele>772.51611</ele>
        <time>2022-08-08T17:20:08.000Z</time>
      </trkpt>
      <trkpt lat="48.50449" lon="7.13833">
        <ele>772.58862</ele>
        <time>2022-08-08T17:20:10.000Z</time>
      </trkpt>
      <trkpt lat="48.50448" lon="7.13828">
        <ele>772.55432</ele>
        <time>2022-08-08T17:20:12.000Z</time>
      </trkpt>
      <trkpt lat="48.50447" lon="7.13824">
        <ele>772.44318</ele>
        <time>2022-08-08T17:20:14.000Z</time>
      </trkpt>
      <trkpt lat="48.50444" lon="7.13819">
        <ele>772.31323</ele>
        <time>2022-08-08T17:20:17.000Z</time>
      </trkpt>
      <trkpt lat="48.50444" lon="7.13814">
        <ele>772.0871</ele>
        <time>2022-08-08T17:20:19.000Z</time>
      </trkpt>
      <trkpt lat="48.50443" lon="7.13811">
        <ele>771.82031</ele>
        <time>2022-08-08T17:20:21.000Z</time>
      </trkpt>
      <trkpt lat="48.50441" lon="7.13808">
        <ele>771.64575</ele>
        <time>2022-08-08T17:20:23.000Z</time>
      </trkpt>
      <trkpt lat="48.5044" lon="7.13804">
        <ele>771.50214</ele>
        <time>2022-08-08T17:20:25.000Z</time>
      </trkpt>
      <trkpt lat="48.50439" lon="7.13799">
        <ele>771.43402</ele>
        <time>2022-08-08T17:20:27.000Z</time>
      </trkpt>
      <trkpt lat="48.50437" lon="7.13795">
        <ele>771.31702</ele>
        <time>2022-08-08T17:20:29.000Z</time>
      </trkpt>
      <trkpt lat="48.50436" lon="7.13791">
        <ele>771.29724</ele>
        <time>2022-08-08T17:20:31.000Z</time>
      </trkpt>
      <trkpt lat="48.50435" lon="7.13788">
        <ele>771.24963</ele>
        <time>2022-08-08T17:20:33.000Z</time>
      </trkpt>
      <trkpt lat="48.50434" lon="7.13783">
        <ele>771.2525</ele>
        <time>2022-08-08T17:20:35.000Z</time>
      </trkpt>
      <trkpt lat="48.50434" lon="7.1378">
        <ele>771.2442</ele>
        <time>2022-08-08T17:20:37.000Z</time>
      </trkpt>
      <trkpt lat="48.50433" lon="7.13776">
        <ele>771.23505</ele>
        <time>2022-08-08T17:20:39.000Z</time>
      </trkpt>
      <trkpt lat="48.50432" lon="7.13772">
        <ele>771.24524</ele>
        <time>2022-08-08T17:20:41.000Z</time>
      </trkpt>
      <trkpt lat="48.50431" lon="7.13769">
        <ele>771.36981</ele>
        <time>2022-08-08T17:20:43.000Z</time>
      </trkpt>
      <trkpt lat="48.5043" lon="7.13765">
        <ele>771.52319</ele>
        <time>2022-08-08T17:20:45.000Z</time>
      </trkpt>
      <trkpt lat="48.5043" lon="7.13761">
        <ele>771.88379</ele>
        <time>2022-08-08T17:20:47.000Z</time>
      </trkpt>
      <trkpt lat="48.50428" lon="7.13757">
        <ele>772.19434</ele>
        <time>2022-08-08T17:20:49.000Z</time>
      </trkpt>
      <trkpt lat="48.50427" lon="7.13753">
        <ele>772.48529</ele>
        <time>2022-08-08T17:20:51.000Z</time>
      </trkpt>
      <trkpt lat="48.50427" lon="7.13749">
        <ele>772.86212</ele>
        <time>2022-08-08T17:20:53.000Z</time>
      </trkpt>
      <trkpt lat="48.50425" lon="7.13745">
        <ele>773.26306</ele>
        <time>2022-08-08T17:20:55.000Z</time>
      </trkpt>
      <trkpt lat="48.50424" lon="7.13741">
        <ele>773.60681</ele>
        <time>2022-08-08T17:20:57.000Z</time>
      </trkpt>
      <trkpt lat="48.50422" lon="7.13738">
        <ele>773.98474</ele>
        <time>2022-08-08T17:20:59.000Z</time>
      </trkpt>
      <trkpt lat="48.5042" lon="7.13735">
        <ele>774.24988</ele>
        <time>2022-08-08T17:21:01.000Z</time>
      </trkpt>
      <trkpt lat="48.50418" lon="7.13731">
        <ele>774.4574</ele>
        <time>2022-08-08T17:21:03.000Z</time>
      </trkpt>
      <trkpt lat="48.50416" lon="7.13727">
        <ele>774.61761</ele>
        <time>2022-08-08T17:21:05.000Z</time>
      </trkpt>
      <trkpt lat="48.50416" lon="7.13724">
        <ele>774.73199</ele>
        <time>2022-08-08T17:21:06.000Z</time>
      </trkpt>
      <trkpt lat="48.50416" lon="7.13719">
        <ele>774.78802</ele>
        <time>2022-08-08T17:21:08.000Z</time>
      </trkpt>
      <trkpt lat="48.50414" lon="7.13715">
        <ele>774.77966</ele>
        <time>2022-08-08T17:21:10.000Z</time>
      </trkpt>
      <trkpt lat="48.50411" lon="7.13713">
        <ele>774.73804</ele>
        <time>2022-08-08T17:21:12.000Z</time>
      </trkpt>
      <trkpt lat="48.5041" lon="7.13711">
        <ele>774.63068</ele>
        <time>2022-08-08T17:21:13.000Z</time>
      </trkpt>
      <trkpt lat="48.50407" lon="7.13708">
        <ele>774.49194</ele>
        <time>2022-08-08T17:21:15.000Z</time>
      </trkpt>
      <trkpt lat="48.50405" lon="7.13706">
        <ele>774.37799</ele>
        <time>2022-08-08T17:21:17.000Z</time>
      </trkpt>
      <trkpt lat="48.50403" lon="7.13703">
        <ele>774.34668</ele>
        <time>2022-08-08T17:21:19.000Z</time>
      </trkpt>
      <trkpt lat="48.504" lon="7.13702">
        <ele>774.32697</ele>
        <time>2022-08-08T17:21:21.000Z</time>
      </trkpt>
      <trkpt lat="48.50398" lon="7.13702">
        <ele>774.27295</ele>
        <time>2022-08-08T17:21:22.000Z</time>
      </trkpt>
      <trkpt lat="48.50395" lon="7.13701">
        <ele>774.16809</ele>
        <time>2022-08-08T17:21:24.000Z</time>
      </trkpt>
      <trkpt lat="48.50393" lon="7.137">
        <ele>774.07404</ele>
        <time>2022-08-08T17:21:25.000Z</time>
      </trkpt>
      <trkpt lat="48.50391" lon="7.13699">
        <ele>773.95813</ele>
        <time>2022-08-08T17:21:26.000Z</time>
      </trkpt>
      <trkpt lat="48.5039" lon="7.13698">
        <ele>773.83557</ele>
        <time>2022-08-08T17:21:27.000Z</time>
      </trkpt>
      <trkpt lat="48.50388" lon="7.13697">
        <ele>773.72919</ele>
        <time>2022-08-08T17:21:28.000Z</time>
      </trkpt>
      <trkpt lat="48.50385" lon="7.13696">
        <ele>773.74402</ele>
        <time>2022-08-08T17:21:30.000Z</time>
      </trkpt>
      <trkpt lat="48.50382" lon="7.13696">
        <ele>773.74585</ele>
        <time>2022-08-08T17:21:32.000Z</time>
      </trkpt>
      <trkpt lat="48.50379" lon="7.13694">
        <ele>773.79279</ele>
        <time>2022-08-08T17:21:34.000Z</time>
      </trkpt>
      <trkpt lat="48.50376" lon="7.13691">
        <ele>773.91223</ele>
        <time>2022-08-08T17:21:36.000Z</time>
      </trkpt>
      <trkpt lat="48.50374" lon="7.1369">
        <ele>774.00018</ele>
        <time>2022-08-08T17:21:37.000Z</time>
      </trkpt>
      <trkpt lat="48.50372" lon="7.1369">
        <ele>774.17291</ele>
        <time>2022-08-08T17:21:38.000Z</time>
      </trkpt>
      <trkpt lat="48.50369" lon="7.13688">
        <ele>774.48682</ele>
        <time>2022-08-08T17:21:40.000Z</time>
      </trkpt>
      <trkpt lat="48.50366" lon="7.13688">
        <ele>774.86798</ele>
        <time>2022-08-08T17:21:42.000Z</time>
      </trkpt>
      <trkpt lat="48.50364" lon="7.13687">
        <ele>775.31012</ele>
        <time>2022-08-08T17:21:43.000Z</time>
      </trkpt>
      <trkpt lat="48.50361" lon="7.13687">
        <ele>775.81506</ele>
        <time>2022-08-08T17:21:45.000Z</time>
      </trkpt>
      <trkpt lat="48.50358" lon="7.13686">
        <ele>776.18158</ele>
        <time>2022-08-08T17:21:47.000Z</time>
      </trkpt>
      <trkpt lat="48.50356" lon="7.13686">
        <ele>776.55078</ele>
        <time>2022-08-08T17:21:48.000Z</time>
      </trkpt>
      <trkpt lat="48.50354" lon="7.13685">
        <ele>776.72131</ele>
        <time>2022-08-08T17:21:49.000Z</time>
      </trkpt>
      <trkpt lat="48.50351" lon="7.13683">
        <ele>776.73926</ele>
        <time>2022-08-08T17:21:51.000Z</time>
      </trkpt>
      <trkpt lat="48.50349" lon="7.13682">
        <ele>776.77966</ele>
        <time>2022-08-08T17:21:52.000Z</time>
      </trkpt>
      <trkpt lat="48.50347" lon="7.13681">
        <ele>776.72083</ele>
        <time>2022-08-08T17:21:54.000Z</time>
      </trkpt>
      <trkpt lat="48.50345" lon="7.13682">
        <ele>776.60217</ele>
        <time>2022-08-08T17:21:59.000Z</time>
      </trkpt>
      <trkpt lat="48.50341" lon="7.13683">
        <ele>776.56897</ele>
        <time>2022-08-08T17:22:01.000Z</time>
      </trkpt>
      <trkpt lat="48.50338" lon="7.13683">
        <ele>776.56384</ele>
        <time>2022-08-08T17:22:03.000Z</time>
      </trkpt>
      <trkpt lat="48.50336" lon="7.13682">
        <ele>776.56818</ele>
        <time>2022-08-08T17:22:05.000Z</time>
      </trkpt>
      <trkpt lat="48.50333" lon="7.13681">
        <ele>776.40381</ele>
        <time>2022-08-08T17:22:07.000Z</time>
      </trkpt>
      <trkpt lat="48.50329" lon="7.1368">
        <ele>776.13696</ele>
        <time>2022-08-08T17:22:09.000Z</time>
      </trkpt>
      <trkpt lat="48.50326" lon="7.13679">
        <ele>775.82074</ele>
        <time>2022-08-08T17:22:11.000Z</time>
      </trkpt>
      <trkpt lat="48.50323" lon="7.13679">
        <ele>775.48883</ele>
        <time>2022-08-08T17:22:13.000Z</time>
      </trkpt>
      <trkpt lat="48.50321" lon="7.13679">
        <ele>775.18964</ele>
        <time>2022-08-08T17:22:15.000Z</time>
      </trkpt>
      <trkpt lat="48.50318" lon="7.13678">
        <ele>774.77258</ele>
        <time>2022-08-08T17:22:17.000Z</time>
      </trkpt>
      <trkpt lat="48.50316" lon="7.13676">
        <ele>774.27997</ele>
        <time>2022-08-08T17:22:19.000Z</time>
      </trkpt>
      <trkpt lat="48.50312" lon="7.13676">
        <ele>773.66632</ele>
        <time>2022-08-08T17:22:21.000Z</time>
      </trkpt>
      <trkpt lat="48.5031" lon="7.13676">
        <ele>773.00378</ele>
        <time>2022-08-08T17:22:23.000Z</time>
      </trkpt>
      <trkpt lat="48.50307" lon="7.13677">
        <ele>772.34833</ele>
        <time>2022-08-08T17:22:25.000Z</time>
      </trkpt>
      <trkpt lat="48.50303" lon="7.13676">
        <ele>771.87</ele>
        <time>2022-08-08T17:22:28.000Z</time>
      </trkpt>
      <trkpt lat="48.503" lon="7.13677">
        <ele>771.33453</ele>
        <time>2022-08-08T17:22:30.000Z</time>
      </trkpt>
      <trkpt lat="48.50298" lon="7.13676">
        <ele>770.9491</ele>
        <time>2022-08-08T17:22:32.000Z</time>
      </trkpt>
      <trkpt lat="48.50296" lon="7.13675">
        <ele>770.646</ele>
        <time>2022-08-08T17:22:34.000Z</time>
      </trkpt>
      <trkpt lat="48.50293" lon="7.13675">
        <ele>770.31793</ele>
        <time>2022-08-08T17:22:36.000Z</time>
      </trkpt>
      <trkpt lat="48.50291" lon="7.13675">
        <ele>770.10095</ele>
        <time>2022-08-08T17:22:38.000Z</time>
      </trkpt>
      <trkpt lat="48.50288" lon="7.13674">
        <ele>770.05414</ele>
        <time>2022-08-08T17:22:40.000Z</time>
      </trkpt>
      <trkpt lat="48.50285" lon="7.13672">
        <ele>770.09174</ele>
        <time>2022-08-08T17:22:42.000Z</time>
      </trkpt>
      <trkpt lat="48.50283" lon="7.1367">
        <ele>770.08447</ele>
        <time>2022-08-08T17:22:44.000Z</time>
      </trkpt>
      <trkpt lat="48.50281" lon="7.13666">
        <ele>770.17316</ele>
        <time>2022-08-08T17:22:46.000Z</time>
      </trkpt>
      <trkpt lat="48.50279" lon="7.1366">
        <ele>770.29584</ele>
        <time>2022-08-08T17:22:49.000Z</time>
      </trkpt>
      <trkpt lat="48.50277" lon="7.13657">
        <ele>770.59314</ele>
        <time>2022-08-08T17:22:51.000Z</time>
      </trkpt>
      <trkpt lat="48.50275" lon="7.13655">
        <ele>770.90259</ele>
        <time>2022-08-08T17:22:53.000Z</time>
      </trkpt>
      <trkpt lat="48.50271" lon="7.13654">
        <ele>771.13818</ele>
        <time>2022-08-08T17:22:55.000Z</time>
      </trkpt>
      <trkpt lat="48.50269" lon="7.13651">
        <ele>771.41138</ele>
        <time>2022-08-08T17:22:57.000Z</time>
      </trkpt>
      <trkpt lat="48.50266" lon="7.13648">
        <ele>771.76221</ele>
        <time>2022-08-08T17:22:59.000Z</time>
      </trkpt>
      <trkpt lat="48.50264" lon="7.13645">
        <ele>772.15344</ele>
        <time>2022-08-08T17:23:01.000Z</time>
      </trkpt>
      <trkpt lat="48.50261" lon="7.13642">
        <ele>772.46405</ele>
        <time>2022-08-08T17:23:03.000Z</time>
      </trkpt>
      <trkpt lat="48.50259" lon="7.1364">
        <ele>772.81183</ele>
        <time>2022-08-08T17:23:05.000Z</time>
      </trkpt>
      <trkpt lat="48.50255" lon="7.13638">
        <ele>773.10852</ele>
        <time>2022-08-08T17:23:07.000Z</time>
      </trkpt>
      <trkpt lat="48.50252" lon="7.13637">
        <ele>773.39679</ele>
        <time>2022-08-08T17:23:09.000Z</time>
      </trkpt>
      <trkpt lat="48.5025" lon="7.13635">
        <ele>773.67145</ele>
        <time>2022-08-08T17:23:11.000Z</time>
      </trkpt>
      <trkpt lat="48.50248" lon="7.13633">
        <ele>773.76526</ele>
        <time>2022-08-08T17:23:13.000Z</time>
      </trkpt>
      <trkpt lat="48.50246" lon="7.13633">
        <ele>773.84625</ele>
        <time>2022-08-08T17:23:15.000Z</time>
      </trkpt>
      <trkpt lat="48.50243" lon="7.13631">
        <ele>774.02252</ele>
        <time>2022-08-08T17:23:17.000Z</time>
      </trkpt>
      <trkpt lat="48.50241" lon="7.1363">
        <ele>774.09906</ele>
        <time>2022-08-08T17:23:18.000Z</time>
      </trkpt>
      <trkpt lat="48.50238" lon="7.1363">
        <ele>774.10883</ele>
        <time>2022-08-08T17:23:20.000Z</time>
      </trkpt>
      <trkpt lat="48.50235" lon="7.13629">
        <ele>774.07385</ele>
        <time>2022-08-08T17:23:22.000Z</time>
      </trkpt>
      <trkpt lat="48.50232" lon="7.1363">
        <ele>774.00592</ele>
        <time>2022-08-08T17:23:24.000Z</time>
      </trkpt>
      <trkpt lat="48.50229" lon="7.13628">
        <ele>773.8504</ele>
        <time>2022-08-08T17:23:26.000Z</time>
      </trkpt>
      <trkpt lat="48.50227" lon="7.13625">
        <ele>773.80554</ele>
        <time>2022-08-08T17:23:28.000Z</time>
      </trkpt>
      <trkpt lat="48.50225" lon="7.13621">
        <ele>773.77948</ele>
        <time>2022-08-08T17:23:30.000Z</time>
      </trkpt>
      <trkpt lat="48.50225" lon="7.13617">
        <ele>773.76746</ele>
        <time>2022-08-08T17:23:32.000Z</time>
      </trkpt>
      <trkpt lat="48.50225" lon="7.13614">
        <ele>773.88452</ele>
        <time>2022-08-08T17:23:34.000Z</time>
      </trkpt>
      <trkpt lat="48.50225" lon="7.1361">
        <ele>773.94666</ele>
        <time>2022-08-08T17:23:37.000Z</time>
      </trkpt>
      <trkpt lat="48.50226" lon="7.13607">
        <ele>773.97778</ele>
        <time>2022-08-08T17:23:39.000Z</time>
      </trkpt>
      <trkpt lat="48.50227" lon="7.13605">
        <ele>773.99414</ele>
        <time>2022-08-08T17:23:41.000Z</time>
      </trkpt>
      <trkpt lat="48.50229" lon="7.13602">
        <ele>774.11902</ele>
        <time>2022-08-08T17:23:43.000Z</time>
      </trkpt>
      <trkpt lat="48.5023" lon="7.13598">
        <ele>774.24915</ele>
        <time>2022-08-08T17:23:45.000Z</time>
      </trkpt>
      <trkpt lat="48.50229" lon="7.13594">
        <ele>774.41547</ele>
        <time>2022-08-08T17:23:47.000Z</time>
      </trkpt>
      <trkpt lat="48.5023" lon="7.13591">
        <ele>774.55798</ele>
        <time>2022-08-08T17:23:49.000Z</time>
      </trkpt>
      <trkpt lat="48.5023" lon="7.13588">
        <ele>774.65649</ele>
        <time>2022-08-08T17:23:51.000Z</time>
      </trkpt>
      <trkpt lat="48.5023" lon="7.13583">
        <ele>774.92419</ele>
        <time>2022-08-08T17:23:53.000Z</time>
      </trkpt>
      <trkpt lat="48.50231" lon="7.1358">
        <ele>775.14893</ele>
        <time>2022-08-08T17:23:54.000Z</time>
      </trkpt>
      <trkpt lat="48.50231" lon="7.13577">
        <ele>775.26086</ele>
        <time>2022-08-08T17:23:55.000Z</time>
      </trkpt>
      <trkpt lat="48.50231" lon="7.13573">
        <ele>775.47748</ele>
        <time>2022-08-08T17:23:57.000Z</time>
      </trkpt>
      <trkpt lat="48.50232" lon="7.13569">
        <ele>775.65613</ele>
        <time>2022-08-08T17:23:59.000Z</time>
      </trkpt>
      <trkpt lat="48.50233" lon="7.13566">
        <ele>775.85388</ele>
        <time>2022-08-08T17:24:01.000Z</time>
      </trkpt>
      <trkpt lat="48.50235" lon="7.13561">
        <ele>776.13538</ele>
        <time>2022-08-08T17:24:03.000Z</time>
      </trkpt>
      <trkpt lat="48.50237" lon="7.1356">
        <ele>776.42572</ele>
        <time>2022-08-08T17:24:05.000Z</time>
      </trkpt>
      <trkpt lat="48.50238" lon="7.13556">
        <ele>776.68933</ele>
        <time>2022-08-08T17:24:07.000Z</time>
      </trkpt>
      <trkpt lat="48.50238" lon="7.13553">
        <ele>776.88745</ele>
        <time>2022-08-08T17:24:09.000Z</time>
      </trkpt>
      <trkpt lat="48.50239" lon="7.13548">
        <ele>777.05463</ele>
        <time>2022-08-08T17:24:11.000Z</time>
      </trkpt>
      <trkpt lat="48.50239" lon="7.13544">
        <ele>777.10413</ele>
        <time>2022-08-08T17:24:13.000Z</time>
      </trkpt>
      <trkpt lat="48.50239" lon="7.13539">
        <ele>777.18317</ele>
        <time>2022-08-08T17:24:15.000Z</time>
      </trkpt>
      <trkpt lat="48.50239" lon="7.13534">
        <ele>777.31091</ele>
        <time>2022-08-08T17:24:17.000Z</time>
      </trkpt>
      <trkpt lat="48.50238" lon="7.13529">
        <ele>777.50024</ele>
        <time>2022-08-08T17:24:19.000Z</time>
      </trkpt>
      <trkpt lat="48.50237" lon="7.13525">
        <ele>777.54041</ele>
        <time>2022-08-08T17:24:21.000Z</time>
      </trkpt>
      <trkpt lat="48.50237" lon="7.13521">
        <ele>777.48773</ele>
        <time>2022-08-08T17:24:23.000Z</time>
      </trkpt>
      <trkpt lat="48.50236" lon="7.13518">
        <ele>777.42957</ele>
        <time>2022-08-08T17:24:25.000Z</time>
      </trkpt>
      <trkpt lat="48.50236" lon="7.13514">
        <ele>777.41669</ele>
        <time>2022-08-08T17:24:27.000Z</time>
      </trkpt>
      <trkpt lat="48.50237" lon="7.1351">
        <ele>777.50354</ele>
        <time>2022-08-08T17:24:29.000Z</time>
      </trkpt>
      <trkpt lat="48.50238" lon="7.13506">
        <ele>777.41235</ele>
        <time>2022-08-08T17:24:31.000Z</time>
      </trkpt>
      <trkpt lat="48.50238" lon="7.13502">
        <ele>777.16107</ele>
        <time>2022-08-08T17:24:33.000Z</time>
      </trkpt>
      <trkpt lat="48.50238" lon="7.13497">
        <ele>776.94128</ele>
        <time>2022-08-08T17:24:35.000Z</time>
      </trkpt>
      <trkpt lat="48.50238" lon="7.13493">
        <ele>776.65497</ele>
        <time>2022-08-08T17:24:37.000Z</time>
      </trkpt>
      <trkpt lat="48.50238" lon="7.13488">
        <ele>776.32019</ele>
        <time>2022-08-08T17:24:39.000Z</time>
      </trkpt>
      <trkpt lat="48.50237" lon="7.13484">
        <ele>775.80493</ele>
        <time>2022-08-08T17:24:41.000Z</time>
      </trkpt>
      <trkpt lat="48.50237" lon="7.13481">
        <ele>775.25098</ele>
        <time>2022-08-08T17:24:43.000Z</time>
      </trkpt>
      <trkpt lat="48.50237" lon="7.13478">
        <ele>774.71057</ele>
        <time>2022-08-08T17:24:44.000Z</time>
      </trkpt>
      <trkpt lat="48.50237" lon="7.13475">
        <ele>774.15662</ele>
        <time>2022-08-08T17:24:45.000Z</time>
      </trkpt>
      <trkpt lat="48.50237" lon="7.1347">
        <ele>773.67914</ele>
        <time>2022-08-08T17:24:47.000Z</time>
      </trkpt>
      <trkpt lat="48.50236" lon="7.13467">
        <ele>773.18768</ele>
        <time>2022-08-08T17:24:48.000Z</time>
      </trkpt>
      <trkpt lat="48.50235" lon="7.13464">
        <ele>772.6958</ele>
        <time>2022-08-08T17:24:49.000Z</time>
      </trkpt>
      <trkpt lat="48.50235" lon="7.13462">
        <ele>772.15723</ele>
        <time>2022-08-08T17:24:50.000Z</time>
      </trkpt>
      <trkpt lat="48.50235" lon="7.13456">
        <ele>771.52698</ele>
        <time>2022-08-08T17:24:52.000Z</time>
      </trkpt>
      <trkpt lat="48.50234" lon="7.13452">
        <ele>770.85596</ele>
        <time>2022-08-08T17:24:54.000Z</time>
      </trkpt>
      <trkpt lat="48.50234" lon="7.13449">
        <ele>770.32849</ele>
        <time>2022-08-08T17:24:55.000Z</time>
      </trkpt>
      <trkpt lat="48.50233" lon="7.13447">
        <ele>769.84528</ele>
        <time>2022-08-08T17:24:56.000Z</time>
      </trkpt>
      <trkpt lat="48.50232" lon="7.13444">
        <ele>769.41571</ele>
        <time>2022-08-08T17:24:57.000Z</time>
      </trkpt>
      <trkpt lat="48.50232" lon="7.13439">
        <ele>768.92859</ele>
        <time>2022-08-08T17:24:59.000Z</time>
      </trkpt>
      <trkpt lat="48.50231" lon="7.13434">
        <ele>768.37506</ele>
        <time>2022-08-08T17:25:01.000Z</time>
      </trkpt>
      <trkpt lat="48.50231" lon="7.13429">
        <ele>767.95129</ele>
        <time>2022-08-08T17:25:03.000Z</time>
      </trkpt>
      <trkpt lat="48.50231" lon="7.13424">
        <ele>767.73669</ele>
        <time>2022-08-08T17:25:05.000Z</time>
      </trkpt>
      <trkpt lat="48.5023" lon="7.13419">
        <ele>767.59662</ele>
        <time>2022-08-08T17:25:07.000Z</time>
      </trkpt>
      <trkpt lat="48.5023" lon="7.13416">
        <ele>767.4483</ele>
        <time>2022-08-08T17:25:08.000Z</time>
      </trkpt>
      <trkpt lat="48.50229" lon="7.13413">
        <ele>767.23639</ele>
        <time>2022-08-08T17:25:09.000Z</time>
      </trkpt>
      <trkpt lat="48.50229" lon="7.1341">
        <ele>767.07019</ele>
        <time>2022-08-08T17:25:10.000Z</time>
      </trkpt>
      <trkpt lat="48.50229" lon="7.13406">
        <ele>766.86304</ele>
        <time>2022-08-08T17:25:11.000Z</time>
      </trkpt>
      <trkpt lat="48.5023" lon="7.13403">
        <ele>766.6355</ele>
        <time>2022-08-08T17:25:12.000Z</time>
      </trkpt>
      <trkpt lat="48.50229" lon="7.13398">
        <ele>766.34802</ele>
        <time>2022-08-08T17:25:14.000Z</time>
      </trkpt>
      <trkpt lat="48.50229" lon="7.13396">
        <ele>765.92163</ele>
        <time>2022-08-08T17:25:15.000Z</time>
      </trkpt>
      <trkpt lat="48.50228" lon="7.13393">
        <ele>765.45056</ele>
        <time>2022-08-08T17:25:16.000Z</time>
      </trkpt>
      <trkpt lat="48.50227" lon="7.1339">
        <ele>765.00403</ele>
        <time>2022-08-08T17:25:17.000Z</time>
      </trkpt>
      <trkpt lat="48.50227" lon="7.13385">
        <ele>764.64343</ele>
        <time>2022-08-08T17:25:19.000Z</time>
      </trkpt>
      <trkpt lat="48.5023" lon="7.13381">
        <ele>764.34015</ele>
        <time>2022-08-08T17:25:21.000Z</time>
      </trkpt>
      <trkpt lat="48.50232" lon="7.13379">
        <ele>764.05151</ele>
        <time>2022-08-08T17:25:23.000Z</time>
      </trkpt>
      <trkpt lat="48.50234" lon="7.13377">
        <ele>763.76898</ele>
        <time>2022-08-08T17:25:25.000Z</time>
      </trkpt>
      <trkpt lat="48.50237" lon="7.13373">
        <ele>763.5531</ele>
        <time>2022-08-08T17:25:27.000Z</time>
      </trkpt>
      <trkpt lat="48.50238" lon="7.13369">
        <ele>763.34424</ele>
        <time>2022-08-08T17:25:29.000Z</time>
      </trkpt>
      <trkpt lat="48.50239" lon="7.13365">
        <ele>763.17517</ele>
        <time>2022-08-08T17:25:31.000Z</time>
      </trkpt>
      <trkpt lat="48.5024" lon="7.1336">
        <ele>762.94275</ele>
        <time>2022-08-08T17:25:33.000Z</time>
      </trkpt>
      <trkpt lat="48.5024" lon="7.13356">
        <ele>762.57599</ele>
        <time>2022-08-08T17:25:35.000Z</time>
      </trkpt>
      <trkpt lat="48.50241" lon="7.1335">
        <ele>762.08942</ele>
        <time>2022-08-08T17:25:37.000Z</time>
      </trkpt>
      <trkpt lat="48.50243" lon="7.13348">
        <ele>761.42151</ele>
        <time>2022-08-08T17:25:38.000Z</time>
      </trkpt>
      <trkpt lat="48.50244" lon="7.13343">
        <ele>760.65527</ele>
        <time>2022-08-08T17:25:40.000Z</time>
      </trkpt>
      <trkpt lat="48.50246" lon="7.13341">
        <ele>759.95691</ele>
        <time>2022-08-08T17:25:41.000Z</time>
      </trkpt>
      <trkpt lat="48.50247" lon="7.13339">
        <ele>759.1427</ele>
        <time>2022-08-08T17:25:42.000Z</time>
      </trkpt>
      <trkpt lat="48.5025" lon="7.13336">
        <ele>758.20459</ele>
        <time>2022-08-08T17:25:45.000Z</time>
      </trkpt>
      <trkpt lat="48.50252" lon="7.13335">
        <ele>757.39124</ele>
        <time>2022-08-08T17:25:47.000Z</time>
      </trkpt>
      <trkpt lat="48.50255" lon="7.13333">
        <ele>756.53296</ele>
        <time>2022-08-08T17:25:49.000Z</time>
      </trkpt>
      <trkpt lat="48.50256" lon="7.1333">
        <ele>755.89764</ele>
        <time>2022-08-08T17:25:51.000Z</time>
      </trkpt>
      <trkpt lat="48.50258" lon="7.13326">
        <ele>755.45453</ele>
        <time>2022-08-08T17:25:53.000Z</time>
      </trkpt>
      <trkpt lat="48.50259" lon="7.13324">
        <ele>755.06055</ele>
        <time>2022-08-08T17:25:54.000Z</time>
      </trkpt>
      <trkpt lat="48.5026" lon="7.13322">
        <ele>754.68243</ele>
        <time>2022-08-08T17:25:55.000Z</time>
      </trkpt>
      <trkpt lat="48.50262" lon="7.13318">
        <ele>754.3725</ele>
        <time>2022-08-08T17:25:57.000Z</time>
      </trkpt>
      <trkpt lat="48.50264" lon="7.13313">
        <ele>754.03601</ele>
        <time>2022-08-08T17:25:59.000Z</time>
      </trkpt>
      <trkpt lat="48.50265" lon="7.13309">
        <ele>753.70868</ele>
        <time>2022-08-08T17:26:01.000Z</time>
      </trkpt>
      <trkpt lat="48.50267" lon="7.13307">
        <ele>753.29871</ele>
        <time>2022-08-08T17:26:03.000Z</time>
      </trkpt>
      <trkpt lat="48.50268" lon="7.13303">
        <ele>752.8512</ele>
        <time>2022-08-08T17:26:05.000Z</time>
      </trkpt>
      <trkpt lat="48.50269" lon="7.13299">
        <ele>752.29822</ele>
        <time>2022-08-08T17:26:07.000Z</time>
      </trkpt>
      <trkpt lat="48.50271" lon="7.13298">
        <ele>751.90814</ele>
        <time>2022-08-08T17:26:08.000Z</time>
      </trkpt>
      <trkpt lat="48.50272" lon="7.13295">
        <ele>751.60095</ele>
        <time>2022-08-08T17:26:10.000Z</time>
      </trkpt>
      <trkpt lat="48.50275" lon="7.13292">
        <ele>751.36102</ele>
        <time>2022-08-08T17:26:12.000Z</time>
      </trkpt>
      <trkpt lat="48.50278" lon="7.1329">
        <ele>751.23834</ele>
        <time>2022-08-08T17:26:14.000Z</time>
      </trkpt>
      <trkpt lat="48.50281" lon="7.13288">
        <ele>751.19855</ele>
        <time>2022-08-08T17:26:16.000Z</time>
      </trkpt>
      <trkpt lat="48.50283" lon="7.13287">
        <ele>751.36414</ele>
        <time>2022-08-08T17:26:18.000Z</time>
      </trkpt>
      <trkpt lat="48.50285" lon="7.13286">
        <ele>751.79333</ele>
        <time>2022-08-08T17:26:20.000Z</time>
      </trkpt>
      <trkpt lat="48.50288" lon="7.13282">
        <ele>752.37628</ele>
        <time>2022-08-08T17:26:22.000Z</time>
      </trkpt>
      <trkpt lat="48.50289" lon="7.13281">
        <ele>752.83136</ele>
        <time>2022-08-08T17:26:23.000Z</time>
      </trkpt>
      <trkpt lat="48.50291" lon="7.13279">
        <ele>753.37866</ele>
        <time>2022-08-08T17:26:24.000Z</time>
      </trkpt>
      <trkpt lat="48.50292" lon="7.13277">
        <ele>753.7113</ele>
        <time>2022-08-08T17:26:25.000Z</time>
      </trkpt>
      <trkpt lat="48.50294" lon="7.13275">
        <ele>754.00397</ele>
        <time>2022-08-08T17:26:26.000Z</time>
      </trkpt>
      <trkpt lat="48.50296" lon="7.13273">
        <ele>754.21857</ele>
        <time>2022-08-08T17:26:27.000Z</time>
      </trkpt>
      <trkpt lat="48.50298" lon="7.13271">
        <ele>754.4046</ele>
        <time>2022-08-08T17:26:28.000Z</time>
      </trkpt>
      <trkpt lat="48.50299" lon="7.13269">
        <ele>754.56097</ele>
        <time>2022-08-08T17:26:29.000Z</time>
      </trkpt>
      <trkpt lat="48.50301" lon="7.13267">
        <ele>754.70691</ele>
        <time>2022-08-08T17:26:30.000Z</time>
      </trkpt>
      <trkpt lat="48.50302" lon="7.13265">
        <ele>754.83124</ele>
        <time>2022-08-08T17:26:31.000Z</time>
      </trkpt>
      <trkpt lat="48.50304" lon="7.13263">
        <ele>755.01373</ele>
        <time>2022-08-08T17:26:32.000Z</time>
      </trkpt>
      <trkpt lat="48.50305" lon="7.13262">
        <ele>755.1828</ele>
        <time>2022-08-08T17:26:33.000Z</time>
      </trkpt>
      <trkpt lat="48.50308" lon="7.13258">
        <ele>755.48773</ele>
        <time>2022-08-08T17:26:35.000Z</time>
      </trkpt>
      <trkpt lat="48.5031" lon="7.13255">
        <ele>755.69244</ele>
        <time>2022-08-08T17:26:36.000Z</time>
      </trkpt>
      <trkpt lat="48.50312" lon="7.13252">
        <ele>755.91156</ele>
        <time>2022-08-08T17:26:37.000Z</time>
      </trkpt>
      <trkpt lat="48.50314" lon="7.13249">
        <ele>756.08582</ele>
        <time>2022-08-08T17:26:38.000Z</time>
      </trkpt>
      <trkpt lat="48.50316" lon="7.13246">
        <ele>756.22491</ele>
        <time>2022-08-08T17:26:39.000Z</time>
      </trkpt>
      <trkpt lat="48.50317" lon="7.13243">
        <ele>756.39301</ele>
        <time>2022-08-08T17:26:40.000Z</time>
      </trkpt>
      <trkpt lat="48.50319" lon="7.13242">
        <ele>756.38251</ele>
        <time>2022-08-08T17:26:41.000Z</time>
      </trkpt>
      <trkpt lat="48.50321" lon="7.13238">
        <ele>756.13977</ele>
        <time>2022-08-08T17:26:43.000Z</time>
      </trkpt>
      <trkpt lat="48.50323" lon="7.13235">
        <ele>755.92908</ele>
        <time>2022-08-08T17:26:45.000Z</time>
      </trkpt>
      <trkpt lat="48.50325" lon="7.13236">
        <ele>755.74109</ele>
        <time>2022-08-08T17:26:47.000Z</time>
      </trkpt>
      <trkpt lat="48.50327" lon="7.13236">
        <ele>755.58301</ele>
        <time>2022-08-08T17:26:49.000Z</time>
      </trkpt>
      <trkpt lat="48.50329" lon="7.13236">
        <ele>755.45239</ele>
        <time>2022-08-08T17:26:51.000Z</time>
      </trkpt>
      <trkpt lat="48.50331" lon="7.13234">
        <ele>755.33435</ele>
        <time>2022-08-08T17:26:53.000Z</time>
      </trkpt>
      <trkpt lat="48.50333" lon="7.13232">
        <ele>755.2301</ele>
        <time>2022-08-08T17:26:55.000Z</time>
      </trkpt>
      <trkpt lat="48.50335" lon="7.13229">
        <ele>755.04865</ele>
        <time>2022-08-08T17:26:57.000Z</time>
      </trkpt>
      <trkpt lat="48.50336" lon="7.13227">
        <ele>754.85522</ele>
        <time>2022-08-08T17:26:59.000Z</time>
      </trkpt>
      <trkpt lat="48.50337" lon="7.13223">
        <ele>754.68408</ele>
        <time>2022-08-08T17:27:02.000Z</time>
      </trkpt>
      <trkpt lat="48.50338" lon="7.13218">
        <ele>754.2334</ele>
        <time>2022-08-08T17:27:04.000Z</time>
      </trkpt>
      <trkpt lat="48.50339" lon="7.13215">
        <ele>753.67377</ele>
        <time>2022-08-08T17:27:06.000Z</time>
      </trkpt>
      <trkpt lat="48.50339" lon="7.13211">
        <ele>752.97229</ele>
        <time>2022-08-08T17:27:08.000Z</time>
      </trkpt>
      <trkpt lat="48.50339" lon="7.13206">
        <ele>752.11896</ele>
        <time>2022-08-08T17:27:10.000Z</time>
      </trkpt>
      <trkpt lat="48.50337" lon="7.13202">
        <ele>751.35126</ele>
        <time>2022-08-08T17:27:12.000Z</time>
      </trkpt>
      <trkpt lat="48.50336" lon="7.13199">
        <ele>750.43085</ele>
        <time>2022-08-08T17:27:14.000Z</time>
      </trkpt>
      <trkpt lat="48.50334" lon="7.13197">
        <ele>749.58997</ele>
        <time>2022-08-08T17:27:16.000Z</time>
      </trkpt>
      <trkpt lat="48.50333" lon="7.13194">
        <ele>748.7998</ele>
        <time>2022-08-08T17:27:18.000Z</time>
      </trkpt>
      <trkpt lat="48.50331" lon="7.13191">
        <ele>748.01099</ele>
        <time>2022-08-08T17:27:20.000Z</time>
      </trkpt>
      <trkpt lat="48.5033" lon="7.13188">
        <ele>747.21765</ele>
        <time>2022-08-08T17:27:21.000Z</time>
      </trkpt>
      <trkpt lat="48.50329" lon="7.13185">
        <ele>746.6228</ele>
        <time>2022-08-08T17:27:22.000Z</time>
      </trkpt>
      <trkpt lat="48.50327" lon="7.1318">
        <ele>745.99994</ele>
        <time>2022-08-08T17:27:24.000Z</time>
      </trkpt>
      <trkpt lat="48.50327" lon="7.13178">
        <ele>745.35156</ele>
        <time>2022-08-08T17:27:25.000Z</time>
      </trkpt>
      <trkpt lat="48.50325" lon="7.13173">
        <ele>744.7829</ele>
        <time>2022-08-08T17:27:27.000Z</time>
      </trkpt>
      <trkpt lat="48.50324" lon="7.1317">
        <ele>744.23096</ele>
        <time>2022-08-08T17:27:28.000Z</time>
      </trkpt>
      <trkpt lat="48.50323" lon="7.13167">
        <ele>743.5827</ele>
        <time>2022-08-08T17:27:29.000Z</time>
      </trkpt>
      <trkpt lat="48.50321" lon="7.13164">
        <ele>742.94788</ele>
        <time>2022-08-08T17:27:30.000Z</time>
      </trkpt>
      <trkpt lat="48.5032" lon="7.13161">
        <ele>742.41827</ele>
        <time>2022-08-08T17:27:31.000Z</time>
      </trkpt>
      <trkpt lat="48.50319" lon="7.13158">
        <ele>741.90106</ele>
        <time>2022-08-08T17:27:32.000Z</time>
      </trkpt>
      <trkpt lat="48.50317" lon="7.13155">
        <ele>741.36127</ele>
        <time>2022-08-08T17:27:33.000Z</time>
      </trkpt>
      <trkpt lat="48.50316" lon="7.1315">
        <ele>741.14142</ele>
        <time>2022-08-08T17:27:35.000Z</time>
      </trkpt>
      <trkpt lat="48.50315" lon="7.13147">
        <ele>741.02362</ele>
        <time>2022-08-08T17:27:36.000Z</time>
      </trkpt>
      <trkpt lat="48.50314" lon="7.13144">
        <ele>741.12537</ele>
        <time>2022-08-08T17:27:37.000Z</time>
      </trkpt>
      <trkpt lat="48.50312" lon="7.13141">
        <ele>741.28589</ele>
        <time>2022-08-08T17:27:38.000Z</time>
      </trkpt>
      <trkpt lat="48.50309" lon="7.13137">
        <ele>741.43732</ele>
        <time>2022-08-08T17:27:39.000Z</time>
      </trkpt>
      <trkpt lat="48.50307" lon="7.13133">
        <ele>741.71198</ele>
        <time>2022-08-08T17:27:40.000Z</time>
      </trkpt>
      <trkpt lat="48.50304" lon="7.13129">
        <ele>741.89618</ele>
        <time>2022-08-08T17:27:41.000Z</time>
      </trkpt>
      <trkpt lat="48.50302" lon="7.13124">
        <ele>741.99994</ele>
        <time>2022-08-08T17:27:42.000Z</time>
      </trkpt>
      <trkpt lat="48.503" lon="7.1312">
        <ele>742.12628</ele>
        <time>2022-08-08T17:27:43.000Z</time>
      </trkpt>
      <trkpt lat="48.50299" lon="7.13117">
        <ele>742.245</ele>
        <time>2022-08-08T17:27:44.000Z</time>
      </trkpt>
      <trkpt lat="48.50297" lon="7.13114">
        <ele>742.3114</ele>
        <time>2022-08-08T17:27:45.000Z</time>
      </trkpt>
      <trkpt lat="48.50295" lon="7.13112">
        <ele>742.40814</ele>
        <time>2022-08-08T17:27:46.000Z</time>
      </trkpt>
      <trkpt lat="48.50293" lon="7.1311">
        <ele>742.54022</ele>
        <time>2022-08-08T17:27:47.000Z</time>
      </trkpt>
      <trkpt lat="48.50291" lon="7.13107">
        <ele>742.55457</ele>
        <time>2022-08-08T17:27:49.000Z</time>
      </trkpt>
      <trkpt lat="48.5029" lon="7.13104">
        <ele>742.63977</ele>
        <time>2022-08-08T17:27:50.000Z</time>
      </trkpt>
      <trkpt lat="48.50289" lon="7.13102">
        <ele>742.80347</ele>
        <time>2022-08-08T17:27:51.000Z</time>
      </trkpt>
      <trkpt lat="48.50288" lon="7.13099">
        <ele>742.99078</ele>
        <time>2022-08-08T17:27:52.000Z</time>
      </trkpt>
      <trkpt lat="48.50287" lon="7.13094">
        <ele>743.08948</ele>
        <time>2022-08-08T17:27:54.000Z</time>
      </trkpt>
      <trkpt lat="48.50287" lon="7.1309">
        <ele>743.0697</ele>
        <time>2022-08-08T17:27:55.000Z</time>
      </trkpt>
      <trkpt lat="48.50288" lon="7.13086">
        <ele>742.99988</ele>
        <time>2022-08-08T17:27:56.000Z</time>
      </trkpt>
      <trkpt lat="48.50288" lon="7.13081">
        <ele>742.87048</ele>
        <time>2022-08-08T17:27:57.000Z</time>
      </trkpt>
      <trkpt lat="48.50288" lon="7.13077">
        <ele>742.69568</ele>
        <time>2022-08-08T17:27:58.000Z</time>
      </trkpt>
      <trkpt lat="48.50287" lon="7.13074">
        <ele>742.44385</ele>
        <time>2022-08-08T17:27:59.000Z</time>
      </trkpt>
      <trkpt lat="48.50285" lon="7.13071">
        <ele>742.16962</ele>
        <time>2022-08-08T17:28:00.000Z</time>
      </trkpt>
      <trkpt lat="48.50283" lon="7.13067">
        <ele>741.71289</ele>
        <time>2022-08-08T17:28:01.000Z</time>
      </trkpt>
      <trkpt lat="48.50282" lon="7.13064">
        <ele>741.30493</ele>
        <time>2022-08-08T17:28:02.000Z</time>
      </trkpt>
      <trkpt lat="48.50281" lon="7.13062">
        <ele>741.01691</ele>
        <time>2022-08-08T17:28:03.000Z</time>
      </trkpt>
      <trkpt lat="48.50281" lon="7.13058">
        <ele>740.75824</ele>
        <time>2022-08-08T17:28:05.000Z</time>
      </trkpt>
      <trkpt lat="48.50281" lon="7.13056">
        <ele>740.42206</ele>
        <time>2022-08-08T17:28:08.000Z</time>
      </trkpt>
      <trkpt lat="48.50281" lon="7.13053">
        <ele>740.12512</ele>
        <time>2022-08-08T17:28:10.000Z</time>
      </trkpt>
      <trkpt lat="48.5028" lon="7.13048">
        <ele>739.74548</ele>
        <time>2022-08-08T17:28:12.000Z</time>
      </trkpt>
      <trkpt lat="48.50279" lon="7.13045">
        <ele>739.3598</ele>
        <time>2022-08-08T17:28:13.000Z</time>
      </trkpt>
      <trkpt lat="48.5028" lon="7.13042">
        <ele>739.00165</ele>
        <time>2022-08-08T17:28:14.000Z</time>
      </trkpt>
      <trkpt lat="48.50281" lon="7.13037">
        <ele>738.60144</ele>
        <time>2022-08-08T17:28:16.000Z</time>
      </trkpt>
      <trkpt lat="48.50281" lon="7.13032">
        <ele>738.15881</ele>
        <time>2022-08-08T17:28:18.000Z</time>
      </trkpt>
      <trkpt lat="48.50281" lon="7.13028">
        <ele>737.70874</ele>
        <time>2022-08-08T17:28:20.000Z</time>
      </trkpt>
      <trkpt lat="48.50281" lon="7.13024">
        <ele>737.29651</ele>
        <time>2022-08-08T17:28:22.000Z</time>
      </trkpt>
      <trkpt lat="48.50281" lon="7.13019">
        <ele>736.77496</ele>
        <time>2022-08-08T17:28:24.000Z</time>
      </trkpt>
      <trkpt lat="48.50281" lon="7.13013">
        <ele>736.34766</ele>
        <time>2022-08-08T17:28:26.000Z</time>
      </trkpt>
      <trkpt lat="48.5028" lon="7.13011">
        <ele>735.92834</ele>
        <time>2022-08-08T17:28:27.000Z</time>
      </trkpt>
      <trkpt lat="48.50278" lon="7.13006">
        <ele>735.53632</ele>
        <time>2022-08-08T17:28:29.000Z</time>
      </trkpt>
      <trkpt lat="48.50277" lon="7.13003">
        <ele>735.2345</ele>
        <time>2022-08-08T17:28:30.000Z</time>
      </trkpt>
      <trkpt lat="48.50276" lon="7.13">
        <ele>734.94641</ele>
        <time>2022-08-08T17:28:31.000Z</time>
      </trkpt>
      <trkpt lat="48.50274" lon="7.12998">
        <ele>734.67053</ele>
        <time>2022-08-08T17:28:32.000Z</time>
      </trkpt>
      <trkpt lat="48.50273" lon="7.12996">
        <ele>734.56885</ele>
        <time>2022-08-08T17:28:33.000Z</time>
      </trkpt>
      <trkpt lat="48.50272" lon="7.12992">
        <ele>734.54907</ele>
        <time>2022-08-08T17:28:35.000Z</time>
      </trkpt>
      <trkpt lat="48.50272" lon="7.12989">
        <ele>734.39587</ele>
        <time>2022-08-08T17:28:37.000Z</time>
      </trkpt>
      <trkpt lat="48.50271" lon="7.12985">
        <ele>734.29944</ele>
        <time>2022-08-08T17:28:39.000Z</time>
      </trkpt>
      <trkpt lat="48.5027" lon="7.12981">
        <ele>734.12994</ele>
        <time>2022-08-08T17:28:41.000Z</time>
      </trkpt>
      <trkpt lat="48.50269" lon="7.12977">
        <ele>733.96851</ele>
        <time>2022-08-08T17:28:43.000Z</time>
      </trkpt>
      <trkpt lat="48.50268" lon="7.12974">
        <ele>733.79041</ele>
        <time>2022-08-08T17:28:45.000Z</time>
      </trkpt>
      <trkpt lat="48.50267" lon="7.1297">
        <ele>733.5755</ele>
        <time>2022-08-08T17:28:47.000Z</time>
      </trkpt>
      <trkpt lat="48.50266" lon="7.12967">
        <ele>733.37048</ele>
        <time>2022-08-08T17:28:49.000Z</time>
      </trkpt>
      <trkpt lat="48.50265" lon="7.12964">
        <ele>733.30835</ele>
        <time>2022-08-08T17:28:51.000Z</time>
      </trkpt>
      <trkpt lat="48.50264" lon="7.12959">
        <ele>733.20911</ele>
        <time>2022-08-08T17:28:53.000Z</time>
      </trkpt>
      <trkpt lat="48.50263" lon="7.12956">
        <ele>733.03455</ele>
        <time>2022-08-08T17:28:54.000Z</time>
      </trkpt>
      <trkpt lat="48.50262" lon="7.12954">
        <ele>732.84998</ele>
        <time>2022-08-08T17:28:55.000Z</time>
      </trkpt>
      <trkpt lat="48.50261" lon="7.12949">
        <ele>732.70178</ele>
        <time>2022-08-08T17:28:57.000Z</time>
      </trkpt>
      <trkpt lat="48.5026" lon="7.12945">
        <ele>732.56433</ele>
        <time>2022-08-08T17:28:59.000Z</time>
      </trkpt>
      <trkpt lat="48.50259" lon="7.12943">
        <ele>732.53326</ele>
        <time>2022-08-08T17:29:00.000Z</time>
      </trkpt>
      <trkpt lat="48.50258" lon="7.12939">
        <ele>732.47382</ele>
        <time>2022-08-08T17:29:01.000Z</time>
      </trkpt>
      <trkpt lat="48.50257" lon="7.12935">
        <ele>732.29944</ele>
        <time>2022-08-08T17:29:02.000Z</time>
      </trkpt>
      <trkpt lat="48.50256" lon="7.12932">
        <ele>732.08136</ele>
        <time>2022-08-08T17:29:03.000Z</time>
      </trkpt>
      <trkpt lat="48.50255" lon="7.12928">
        <ele>731.84961</ele>
        <time>2022-08-08T17:29:04.000Z</time>
      </trkpt>
      <trkpt lat="48.50254" lon="7.12925">
        <ele>731.6319</ele>
        <time>2022-08-08T17:29:05.000Z</time>
      </trkpt>
      <trkpt lat="48.50253" lon="7.12921">
        <ele>731.30774</ele>
        <time>2022-08-08T17:29:06.000Z</time>
      </trkpt>
      <trkpt lat="48.50252" lon="7.12917">
        <ele>731.03296</ele>
        <time>2022-08-08T17:29:07.000Z</time>
      </trkpt>
      <trkpt lat="48.5025" lon="7.12913">
        <ele>730.79724</ele>
        <time>2022-08-08T17:29:08.000Z</time>
      </trkpt>
      <trkpt lat="48.50248" lon="7.12908">
        <ele>730.65277</ele>
        <time>2022-08-08T17:29:09.000Z</time>
      </trkpt>
      <trkpt lat="48.50245" lon="7.12903">
        <ele>730.50037</ele>
        <time>2022-08-08T17:29:10.000Z</time>
      </trkpt>
      <trkpt lat="48.50242" lon="7.12898">
        <ele>730.43134</ele>
        <time>2022-08-08T17:29:11.000Z</time>
      </trkpt>
      <trkpt lat="48.5024" lon="7.12894">
        <ele>730.46423</ele>
        <time>2022-08-08T17:29:12.000Z</time>
      </trkpt>
      <trkpt lat="48.50237" lon="7.1289">
        <ele>730.47101</ele>
        <time>2022-08-08T17:29:13.000Z</time>
      </trkpt>
      <trkpt lat="48.50235" lon="7.12887">
        <ele>730.40552</ele>
        <time>2022-08-08T17:29:14.000Z</time>
      </trkpt>
      <trkpt lat="48.50232" lon="7.12883">
        <ele>730.39539</ele>
        <time>2022-08-08T17:29:15.000Z</time>
      </trkpt>
      <trkpt lat="48.5023" lon="7.12881">
        <ele>730.43915</ele>
        <time>2022-08-08T17:29:16.000Z</time>
      </trkpt>
      <trkpt lat="48.50228" lon="7.12877">
        <ele>730.3927</ele>
        <time>2022-08-08T17:29:17.000Z</time>
      </trkpt>
      <trkpt lat="48.50226" lon="7.12872">
        <ele>730.36914</ele>
        <time>2022-08-08T17:29:18.000Z</time>
      </trkpt>
      <trkpt lat="48.50224" lon="7.12867">
        <ele>730.31702</ele>
        <time>2022-08-08T17:29:19.000Z</time>
      </trkpt>
      <trkpt lat="48.50222" lon="7.12861">
        <ele>730.0647</ele>
        <time>2022-08-08T17:29:20.000Z</time>
      </trkpt>
      <trkpt lat="48.50221" lon="7.12857">
        <ele>729.85406</ele>
        <time>2022-08-08T17:29:21.000Z</time>
      </trkpt>
      <trkpt lat="48.50219" lon="7.12853">
        <ele>729.63239</ele>
        <time>2022-08-08T17:29:22.000Z</time>
      </trkpt>
      <trkpt lat="48.50218" lon="7.1285">
        <ele>729.45966</ele>
        <time>2022-08-08T17:29:23.000Z</time>
      </trkpt>
      <trkpt lat="48.50217" lon="7.12847">
        <ele>729.36926</ele>
        <time>2022-08-08T17:29:24.000Z</time>
      </trkpt>
      <trkpt lat="48.50216" lon="7.12844">
        <ele>729.27991</ele>
        <time>2022-08-08T17:29:25.000Z</time>
      </trkpt>
      <trkpt lat="48.50215" lon="7.12842">
        <ele>729.21539</ele>
        <time>2022-08-08T17:29:26.000Z</time>
      </trkpt>
      <trkpt lat="48.50213" lon="7.12839">
        <ele>729.23145</ele>
        <time>2022-08-08T17:29:27.000Z</time>
      </trkpt>
      <trkpt lat="48.50212" lon="7.12835">
        <ele>729.14026</ele>
        <time>2022-08-08T17:29:28.000Z</time>
      </trkpt>
      <trkpt lat="48.5021" lon="7.12831">
        <ele>729.05542</ele>
        <time>2022-08-08T17:29:29.000Z</time>
      </trkpt>
      <trkpt lat="48.50208" lon="7.12828">
        <ele>728.94153</ele>
        <time>2022-08-08T17:29:30.000Z</time>
      </trkpt>
      <trkpt lat="48.50207" lon="7.12826">
        <ele>728.80011</ele>
        <time>2022-08-08T17:29:31.000Z</time>
      </trkpt>
      <trkpt lat="48.50205" lon="7.12823">
        <ele>728.55536</ele>
        <time>2022-08-08T17:29:32.000Z</time>
      </trkpt>
      <trkpt lat="48.50205" lon="7.1282">
        <ele>728.33759</ele>
        <time>2022-08-08T17:29:33.000Z</time>
      </trkpt>
      <trkpt lat="48.50205" lon="7.12817">
        <ele>728.09827</ele>
        <time>2022-08-08T17:29:34.000Z</time>
      </trkpt>
      <trkpt lat="48.50204" lon="7.12813">
        <ele>727.88098</ele>
        <time>2022-08-08T17:29:36.000Z</time>
      </trkpt>
      <trkpt lat="48.50205" lon="7.12809">
        <ele>727.60608</ele>
        <time>2022-08-08T17:29:38.000Z</time>
      </trkpt>
      <trkpt lat="48.50205" lon="7.12804">
        <ele>727.3158</ele>
        <time>2022-08-08T17:29:40.000Z</time>
      </trkpt>
      <trkpt lat="48.50204" lon="7.128">
        <ele>727.07288</ele>
        <time>2022-08-08T17:29:42.000Z</time>
      </trkpt>
      <trkpt lat="48.50202" lon="7.12796">
        <ele>726.88348</ele>
        <time>2022-08-08T17:29:44.000Z</time>
      </trkpt>
      <trkpt lat="48.50202" lon="7.12792">
        <ele>726.81244</ele>
        <time>2022-08-08T17:29:46.000Z</time>
      </trkpt>
      <trkpt lat="48.50203" lon="7.12788">
        <ele>726.73468</ele>
        <time>2022-08-08T17:29:48.000Z</time>
      </trkpt>
      <trkpt lat="48.50204" lon="7.12784">
        <ele>726.76349</ele>
        <time>2022-08-08T17:29:50.000Z</time>
      </trkpt>
      <trkpt lat="48.50203" lon="7.12781">
        <ele>726.76385</ele>
        <time>2022-08-08T17:29:52.000Z</time>
      </trkpt>
      <trkpt lat="48.50203" lon="7.12778">
        <ele>726.75085</ele>
        <time>2022-08-08T17:29:54.000Z</time>
      </trkpt>
      <trkpt lat="48.50202" lon="7.12775">
        <ele>726.79559</ele>
        <time>2022-08-08T17:29:56.000Z</time>
      </trkpt>
      <trkpt lat="48.50203" lon="7.12771">
        <ele>726.90808</ele>
        <time>2022-08-08T17:29:58.000Z</time>
      </trkpt>
      <trkpt lat="48.50203" lon="7.12767">
        <ele>726.95673</ele>
        <time>2022-08-08T17:30:00.000Z</time>
      </trkpt>
      <trkpt lat="48.50204" lon="7.12763">
        <ele>727.05634</ele>
        <time>2022-08-08T17:30:02.000Z</time>
      </trkpt>
      <trkpt lat="48.50203" lon="7.1276">
        <ele>727.18054</ele>
        <time>2022-08-08T17:30:04.000Z</time>
      </trkpt>
      <trkpt lat="48.50203" lon="7.12757">
        <ele>727.37189</ele>
        <time>2022-08-08T17:30:06.000Z</time>
      </trkpt>
      <trkpt lat="48.50203" lon="7.12752">
        <ele>727.69415</ele>
        <time>2022-08-08T17:30:08.000Z</time>
      </trkpt>
      <trkpt lat="48.50202" lon="7.12749">
        <ele>728.11365</ele>
        <time>2022-08-08T17:30:10.000Z</time>
      </trkpt>
      <trkpt lat="48.50202" lon="7.12745">
        <ele>728.54022</ele>
        <time>2022-08-08T17:30:12.000Z</time>
      </trkpt>
      <trkpt lat="48.50201" lon="7.12741">
        <ele>728.93726</ele>
        <time>2022-08-08T17:30:14.000Z</time>
      </trkpt>
      <trkpt lat="48.50201" lon="7.12737">
        <ele>729.23285</ele>
        <time>2022-08-08T17:30:16.000Z</time>
      </trkpt>
      <trkpt lat="48.50202" lon="7.12733">
        <ele>729.63721</ele>
        <time>2022-08-08T17:30:18.000Z</time>
      </trkpt>
      <trkpt lat="48.50202" lon="7.1273">
        <ele>730.02081</ele>
        <time>2022-08-08T17:30:20.000Z</time>
      </trkpt>
      <trkpt lat="48.50201" lon="7.12727">
        <ele>730.31647</ele>
        <time>2022-08-08T17:30:24.000Z</time>
      </trkpt>
      <trkpt lat="48.50201" lon="7.12723">
        <ele>730.60284</ele>
        <time>2022-08-08T17:30:35.000Z</time>
      </trkpt>
      <trkpt lat="48.50202" lon="7.1272">
        <ele>730.94348</ele>
        <time>2022-08-08T17:30:37.000Z</time>
      </trkpt>
      <trkpt lat="48.50202" lon="7.12716">
        <ele>731.18689</ele>
        <time>2022-08-08T17:30:39.000Z</time>
      </trkpt>
      <trkpt lat="48.50201" lon="7.12713">
        <ele>731.57458</ele>
        <time>2022-08-08T17:30:41.000Z</time>
      </trkpt>
      <trkpt lat="48.50202" lon="7.12708">
        <ele>731.88098</ele>
        <time>2022-08-08T17:30:44.000Z</time>
      </trkpt>
      <trkpt lat="48.50203" lon="7.12705">
        <ele>732.19275</ele>
        <time>2022-08-08T17:30:46.000Z</time>
      </trkpt>
      <trkpt lat="48.50204" lon="7.12701">
        <ele>732.41162</ele>
        <time>2022-08-08T17:30:48.000Z</time>
      </trkpt>
      <trkpt lat="48.50203" lon="7.12697">
        <ele>732.62238</ele>
        <time>2022-08-08T17:30:50.000Z</time>
      </trkpt>
      <trkpt lat="48.50204" lon="7.12693">
        <ele>732.93054</ele>
        <time>2022-08-08T17:30:52.000Z</time>
      </trkpt>
      <trkpt lat="48.50204" lon="7.12689">
        <ele>733.21326</ele>
        <time>2022-08-08T17:30:54.000Z</time>
      </trkpt>
      <trkpt lat="48.50206" lon="7.12686">
        <ele>733.46149</ele>
        <time>2022-08-08T17:30:56.000Z</time>
      </trkpt>
      <trkpt lat="48.50206" lon="7.12683">
        <ele>733.63452</ele>
        <time>2022-08-08T17:30:58.000Z</time>
      </trkpt>
      <trkpt lat="48.50204" lon="7.1268">
        <ele>733.70074</ele>
        <time>2022-08-08T17:31:00.000Z</time>
      </trkpt>
      <trkpt lat="48.50203" lon="7.12675">
        <ele>733.76526</ele>
        <time>2022-08-08T17:31:02.000Z</time>
      </trkpt>
      <trkpt lat="48.50204" lon="7.1267">
        <ele>733.67334</ele>
        <time>2022-08-08T17:31:04.000Z</time>
      </trkpt>
      <trkpt lat="48.50205" lon="7.12668">
        <ele>733.58215</ele>
        <time>2022-08-08T17:31:05.000Z</time>
      </trkpt>
      <trkpt lat="48.50207" lon="7.12666">
        <ele>733.50073</ele>
        <time>2022-08-08T17:31:06.000Z</time>
      </trkpt>
      <trkpt lat="48.50209" lon="7.12663">
        <ele>733.28589</ele>
        <time>2022-08-08T17:31:08.000Z</time>
      </trkpt>
      <trkpt lat="48.50209" lon="7.12658">
        <ele>733.11584</ele>
        <time>2022-08-08T17:31:10.000Z</time>
      </trkpt>
      <trkpt lat="48.50208" lon="7.12655">
        <ele>733.04419</ele>
        <time>2022-08-08T17:31:11.000Z</time>
      </trkpt>
      <trkpt lat="48.50207" lon="7.12652">
        <ele>732.8714</ele>
        <time>2022-08-08T17:31:13.000Z</time>
      </trkpt>
      <trkpt lat="48.50205" lon="7.1265">
        <ele>732.7182</ele>
        <time>2022-08-08T17:31:14.000Z</time>
      </trkpt>
      <trkpt lat="48.50204" lon="7.12647">
        <ele>732.69592</ele>
        <time>2022-08-08T17:31:16.000Z</time>
      </trkpt>
      <trkpt lat="48.50204" lon="7.12644">
        <ele>732.56775</ele>
        <time>2022-08-08T17:31:18.000Z</time>
      </trkpt>
      <trkpt lat="48.50205" lon="7.1264">
        <ele>732.48315</ele>
        <time>2022-08-08T17:31:20.000Z</time>
      </trkpt>
      <trkpt lat="48.50205" lon="7.12635">
        <ele>732.46338</ele>
        <time>2022-08-08T17:31:22.000Z</time>
      </trkpt>
      <trkpt lat="48.50204" lon="7.12631">
        <ele>732.42932</ele>
        <time>2022-08-08T17:31:24.000Z</time>
      </trkpt>
      <trkpt lat="48.50203" lon="7.12626">
        <ele>732.34851</ele>
        <time>2022-08-08T17:31:26.000Z</time>
      </trkpt>
      <trkpt lat="48.50201" lon="7.12623">
        <ele>732.17432</ele>
        <time>2022-08-08T17:31:27.000Z</time>
      </trkpt>
      <trkpt lat="48.502" lon="7.12621">
        <ele>732.03735</ele>
        <time>2022-08-08T17:31:28.000Z</time>
      </trkpt>
      <trkpt lat="48.50199" lon="7.12616">
        <ele>731.81317</ele>
        <time>2022-08-08T17:31:30.000Z</time>
      </trkpt>
      <trkpt lat="48.50198" lon="7.12611">
        <ele>731.6413</ele>
        <time>2022-08-08T17:31:32.000Z</time>
      </trkpt>
      <trkpt lat="48.50197" lon="7.12607">
        <ele>731.46033</ele>
        <time>2022-08-08T17:31:34.000Z</time>
      </trkpt>
      <trkpt lat="48.50196" lon="7.12603">
        <ele>731.24323</ele>
        <time>2022-08-08T17:31:36.000Z</time>
      </trkpt>
      <trkpt lat="48.50195" lon="7.12599">
        <ele>730.99078</ele>
        <time>2022-08-08T17:31:38.000Z</time>
      </trkpt>
      <trkpt lat="48.50195" lon="7.12596">
        <ele>730.78699</ele>
        <time>2022-08-08T17:31:40.000Z</time>
      </trkpt>
      <trkpt lat="48.50194" lon="7.12593">
        <ele>730.53589</ele>
        <time>2022-08-08T17:31:42.000Z</time>
      </trkpt>
      <trkpt lat="48.50194" lon="7.12589">
        <ele>730.27771</ele>
        <time>2022-08-08T17:31:44.000Z</time>
      </trkpt>
      <trkpt lat="48.50194" lon="7.12585">
        <ele>729.93707</ele>
        <time>2022-08-08T17:31:46.000Z</time>
      </trkpt>
      <trkpt lat="48.50194" lon="7.12582">
        <ele>729.53882</ele>
        <time>2022-08-08T17:31:48.000Z</time>
      </trkpt>
      <trkpt lat="48.50193" lon="7.12578">
        <ele>729.11951</ele>
        <time>2022-08-08T17:31:50.000Z</time>
      </trkpt>
      <trkpt lat="48.50193" lon="7.12575">
        <ele>728.56995</ele>
        <time>2022-08-08T17:31:51.000Z</time>
      </trkpt>
      <trkpt lat="48.50193" lon="7.12572">
        <ele>727.94495</ele>
        <time>2022-08-08T17:31:53.000Z</time>
      </trkpt>
      <trkpt lat="48.50192" lon="7.12568">
        <ele>727.2099</ele>
        <time>2022-08-08T17:31:55.000Z</time>
      </trkpt>
      <trkpt lat="48.50192" lon="7.12564">
        <ele>726.48413</ele>
        <time>2022-08-08T17:31:57.000Z</time>
      </trkpt>
      <trkpt lat="48.50191" lon="7.12562">
        <ele>725.65839</ele>
        <time>2022-08-08T17:31:59.000Z</time>
      </trkpt>
      <trkpt lat="48.50191" lon="7.12559">
        <ele>724.93469</ele>
        <time>2022-08-08T17:32:01.000Z</time>
      </trkpt>
      <trkpt lat="48.5019" lon="7.12556">
        <ele>724.20093</ele>
        <time>2022-08-08T17:32:03.000Z</time>
      </trkpt>
      <trkpt lat="48.5019" lon="7.12551">
        <ele>723.49286</ele>
        <time>2022-08-08T17:32:05.000Z</time>
      </trkpt>
      <trkpt lat="48.5019" lon="7.12546">
        <ele>722.62085</ele>
        <time>2022-08-08T17:32:07.000Z</time>
      </trkpt>
      <trkpt lat="48.50191" lon="7.12543">
        <ele>721.88318</ele>
        <time>2022-08-08T17:32:08.000Z</time>
      </trkpt>
      <trkpt lat="48.50191" lon="7.12539">
        <ele>721.07672</ele>
        <time>2022-08-08T17:32:10.000Z</time>
      </trkpt>
      <trkpt lat="48.50191" lon="7.12536">
        <ele>720.22314</ele>
        <time>2022-08-08T17:32:12.000Z</time>
      </trkpt>
      <trkpt lat="48.50191" lon="7.12533">
        <ele>719.38922</ele>
        <time>2022-08-08T17:32:13.000Z</time>
      </trkpt>
      <trkpt lat="48.50192" lon="7.12529">
        <ele>718.62463</ele>
        <time>2022-08-08T17:32:15.000Z</time>
      </trkpt>
      <trkpt lat="48.50193" lon="7.12525">
        <ele>717.79169</ele>
        <time>2022-08-08T17:32:17.000Z</time>
      </trkpt>
      <trkpt lat="48.50194" lon="7.12521">
        <ele>717.09558</ele>
        <time>2022-08-08T17:32:19.000Z</time>
      </trkpt>
      <trkpt lat="48.50196" lon="7.12517">
        <ele>716.61005</ele>
        <time>2022-08-08T17:32:21.000Z</time>
      </trkpt>
      <trkpt lat="48.50197" lon="7.12515">
        <ele>716.26721</ele>
        <time>2022-08-08T17:32:22.000Z</time>
      </trkpt>
      <trkpt lat="48.50198" lon="7.12512">
        <ele>715.99097</ele>
        <time>2022-08-08T17:32:23.000Z</time>
      </trkpt>
      <trkpt lat="48.50199" lon="7.12508">
        <ele>715.8429</ele>
        <time>2022-08-08T17:32:25.000Z</time>
      </trkpt>
      <trkpt lat="48.50199" lon="7.12505">
        <ele>715.89929</ele>
        <time>2022-08-08T17:32:26.000Z</time>
      </trkpt>
      <trkpt lat="48.50201" lon="7.12501">
        <ele>716.03186</ele>
        <time>2022-08-08T17:32:29.000Z</time>
      </trkpt>
      <trkpt lat="48.50202" lon="7.12498">
        <ele>716.24768</ele>
        <time>2022-08-08T17:32:31.000Z</time>
      </trkpt>
      <trkpt lat="48.50204" lon="7.12495">
        <ele>716.40533</ele>
        <time>2022-08-08T17:32:33.000Z</time>
      </trkpt>
      <trkpt lat="48.50205" lon="7.12491">
        <ele>716.52258</ele>
        <time>2022-08-08T17:32:35.000Z</time>
      </trkpt>
      <trkpt lat="48.50206" lon="7.12488">
        <ele>716.55371</ele>
        <time>2022-08-08T17:32:37.000Z</time>
      </trkpt>
      <trkpt lat="48.50208" lon="7.12484">
        <ele>716.57605</ele>
        <time>2022-08-08T17:32:39.000Z</time>
      </trkpt>
      <trkpt lat="48.50208" lon="7.1248">
        <ele>716.56042</ele>
        <time>2022-08-08T17:32:41.000Z</time>
      </trkpt>
      <trkpt lat="48.5021" lon="7.12477">
        <ele>716.77911</ele>
        <time>2022-08-08T17:32:43.000Z</time>
      </trkpt>
      <trkpt lat="48.50212" lon="7.12474">
        <ele>717.02527</ele>
        <time>2022-08-08T17:32:45.000Z</time>
      </trkpt>
      <trkpt lat="48.50213" lon="7.12471">
        <ele>717.30811</ele>
        <time>2022-08-08T17:32:46.000Z</time>
      </trkpt>
      <trkpt lat="48.50216" lon="7.12466">
        <ele>717.56573</ele>
        <time>2022-08-08T17:32:48.000Z</time>
      </trkpt>
      <trkpt lat="48.50218" lon="7.12463">
        <ele>717.69562</ele>
        <time>2022-08-08T17:32:50.000Z</time>
      </trkpt>
      <trkpt lat="48.50219" lon="7.12461">
        <ele>717.9054</ele>
        <time>2022-08-08T17:32:51.000Z</time>
      </trkpt>
      <trkpt lat="48.5022" lon="7.12458">
        <ele>718.09277</ele>
        <time>2022-08-08T17:32:52.000Z</time>
      </trkpt>
      <trkpt lat="48.50221" lon="7.12455">
        <ele>718.09955</ele>
        <time>2022-08-08T17:32:53.000Z</time>
      </trkpt>
      <trkpt lat="48.50222" lon="7.12451">
        <ele>717.99213</ele>
        <time>2022-08-08T17:32:55.000Z</time>
      </trkpt>
      <trkpt lat="48.50224" lon="7.12449">
        <ele>717.8512</ele>
        <time>2022-08-08T17:32:56.000Z</time>
      </trkpt>
      <trkpt lat="48.50225" lon="7.12446">
        <ele>717.64954</ele>
        <time>2022-08-08T17:32:57.000Z</time>
      </trkpt>
      <trkpt lat="48.50226" lon="7.12442">
        <ele>717.38391</ele>
        <time>2022-08-08T17:32:58.000Z</time>
      </trkpt>
      <trkpt lat="48.50227" lon="7.12439">
        <ele>716.98511</ele>
        <time>2022-08-08T17:33:00.000Z</time>
      </trkpt>
      <trkpt lat="48.50228" lon="7.12434">
        <ele>716.7196</ele>
        <time>2022-08-08T17:33:02.000Z</time>
      </trkpt>
      <trkpt lat="48.5023" lon="7.12433">
        <ele>716.50861</ele>
        <time>2022-08-08T17:33:04.000Z</time>
      </trkpt>
      <trkpt lat="48.50232" lon="7.1243">
        <ele>716.46674</ele>
        <time>2022-08-08T17:33:06.000Z</time>
      </trkpt>
      <trkpt lat="48.50233" lon="7.12426">
        <ele>716.5752</ele>
        <time>2022-08-08T17:33:09.000Z</time>
      </trkpt>
      <trkpt lat="48.50234" lon="7.12423">
        <ele>716.7005</ele>
        <time>2022-08-08T17:33:11.000Z</time>
      </trkpt>
      <trkpt lat="48.50236" lon="7.1242">
        <ele>716.86511</ele>
        <time>2022-08-08T17:33:13.000Z</time>
      </trkpt>
      <trkpt lat="48.50235" lon="7.12417">
        <ele>716.979</ele>
        <time>2022-08-08T17:33:16.000Z</time>
      </trkpt>
      <trkpt lat="48.50236" lon="7.12414">
        <ele>717.00604</ele>
        <time>2022-08-08T17:33:18.000Z</time>
      </trkpt>
      <trkpt lat="48.50236" lon="7.12409">
        <ele>717.02252</ele>
        <time>2022-08-08T17:33:20.000Z</time>
      </trkpt>
      <trkpt lat="48.50239" lon="7.12405">
        <ele>716.85956</ele>
        <time>2022-08-08T17:33:23.000Z</time>
      </trkpt>
      <trkpt lat="48.5024" lon="7.124">
        <ele>716.67755</ele>
        <time>2022-08-08T17:33:25.000Z</time>
      </trkpt>
      <trkpt lat="48.50241" lon="7.12397">
        <ele>716.52039</ele>
        <time>2022-08-08T17:33:27.000Z</time>
      </trkpt>
      <trkpt lat="48.50242" lon="7.12394">
        <ele>716.25208</ele>
        <time>2022-08-08T17:33:29.000Z</time>
      </trkpt>
      <trkpt lat="48.50242" lon="7.12389">
        <ele>716.01636</ele>
        <time>2022-08-08T17:33:31.000Z</time>
      </trkpt>
      <trkpt lat="48.50242" lon="7.12385">
        <ele>715.69446</ele>
        <time>2022-08-08T17:33:33.000Z</time>
      </trkpt>
      <trkpt lat="48.50243" lon="7.12381">
        <ele>715.18079</ele>
        <time>2022-08-08T17:33:35.000Z</time>
      </trkpt>
      <trkpt lat="48.50244" lon="7.12377">
        <ele>714.68579</ele>
        <time>2022-08-08T17:33:37.000Z</time>
      </trkpt>
      <trkpt lat="48.50245" lon="7.12371">
        <ele>714.1897</ele>
        <time>2022-08-08T17:33:39.000Z</time>
      </trkpt>
      <trkpt lat="48.50246" lon="7.12367">
        <ele>713.76477</ele>
        <time>2022-08-08T17:33:41.000Z</time>
      </trkpt>
      <trkpt lat="48.50247" lon="7.12362">
        <ele>713.39459</ele>
        <time>2022-08-08T17:33:43.000Z</time>
      </trkpt>
      <trkpt lat="48.50248" lon="7.12357">
        <ele>712.8454</ele>
        <time>2022-08-08T17:33:44.000Z</time>
      </trkpt>
      <trkpt lat="48.50249" lon="7.12355">
        <ele>712.12347</ele>
        <time>2022-08-08T17:33:45.000Z</time>
      </trkpt>
      <trkpt lat="48.5025" lon="7.12352">
        <ele>711.27118</ele>
        <time>2022-08-08T17:33:46.000Z</time>
      </trkpt>
      <trkpt lat="48.50251" lon="7.12349">
        <ele>710.28772</ele>
        <time>2022-08-08T17:33:47.000Z</time>
      </trkpt>
      <trkpt lat="48.50253" lon="7.12345">
        <ele>709.2793</ele>
        <time>2022-08-08T17:33:49.000Z</time>
      </trkpt>
      <trkpt lat="48.50253" lon="7.12342">
        <ele>708.23663</ele>
        <time>2022-08-08T17:33:50.000Z</time>
      </trkpt>
      <trkpt lat="48.50255" lon="7.1234">
        <ele>707.18134</ele>
        <time>2022-08-08T17:33:51.000Z</time>
      </trkpt>
      <trkpt lat="48.50256" lon="7.12335">
        <ele>705.98083</ele>
        <time>2022-08-08T17:33:53.000Z</time>
      </trkpt>
      <trkpt lat="48.50257" lon="7.12332">
        <ele>704.65857</ele>
        <time>2022-08-08T17:33:54.000Z</time>
      </trkpt>
      <trkpt lat="48.50258" lon="7.12329">
        <ele>703.50201</ele>
        <time>2022-08-08T17:33:55.000Z</time>
      </trkpt>
      <trkpt lat="48.50259" lon="7.12327">
        <ele>702.44702</ele>
        <time>2022-08-08T17:33:56.000Z</time>
      </trkpt>
      <trkpt lat="48.5026" lon="7.12322">
        <ele>701.2738</ele>
        <time>2022-08-08T17:33:59.000Z</time>
      </trkpt>
      <trkpt lat="48.5026" lon="7.12319">
        <ele>700.28448</ele>
        <time>2022-08-08T17:34:01.000Z</time>
      </trkpt>
      <trkpt lat="48.50261" lon="7.12316">
        <ele>699.27112</ele>
        <time>2022-08-08T17:34:02.000Z</time>
      </trkpt>
      <trkpt lat="48.50262" lon="7.12313">
        <ele>698.3866</ele>
        <time>2022-08-08T17:34:03.000Z</time>
      </trkpt>
      <trkpt lat="48.50262" lon="7.1231">
        <ele>697.65326</ele>
        <time>2022-08-08T17:34:04.000Z</time>
      </trkpt>
      <trkpt lat="48.50262" lon="7.12307">
        <ele>696.89526</ele>
        <time>2022-08-08T17:34:05.000Z</time>
      </trkpt>
      <trkpt lat="48.50263" lon="7.12304">
        <ele>696.13788</ele>
        <time>2022-08-08T17:34:06.000Z</time>
      </trkpt>
      <trkpt lat="48.50264" lon="7.12299">
        <ele>695.4267</ele>
        <time>2022-08-08T17:34:09.000Z</time>
      </trkpt>
      <trkpt lat="48.50265" lon="7.12295">
        <ele>694.71777</ele>
        <time>2022-08-08T17:34:11.000Z</time>
      </trkpt>
      <trkpt lat="48.50266" lon="7.1229">
        <ele>693.94226</ele>
        <time>2022-08-08T17:34:13.000Z</time>
      </trkpt>
      <trkpt lat="48.50267" lon="7.12287">
        <ele>693.17249</ele>
        <time>2022-08-08T17:34:15.000Z</time>
      </trkpt>
      <trkpt lat="48.50267" lon="7.12283">
        <ele>692.41327</ele>
        <time>2022-08-08T17:34:17.000Z</time>
      </trkpt>
      <trkpt lat="48.50267" lon="7.12278">
        <ele>691.6615</ele>
        <time>2022-08-08T17:34:19.000Z</time>
      </trkpt>
      <trkpt lat="48.50268" lon="7.12275">
        <ele>690.90735</ele>
        <time>2022-08-08T17:34:21.000Z</time>
      </trkpt>
      <trkpt lat="48.50268" lon="7.12271">
        <ele>690.16187</ele>
        <time>2022-08-08T17:34:23.000Z</time>
      </trkpt>
      <trkpt lat="48.50269" lon="7.12266">
        <ele>689.55438</ele>
        <time>2022-08-08T17:34:25.000Z</time>
      </trkpt>
      <trkpt lat="48.50271" lon="7.12262">
        <ele>689.10645</ele>
        <time>2022-08-08T17:34:27.000Z</time>
      </trkpt>
      <trkpt lat="48.50271" lon="7.12259">
        <ele>688.72717</ele>
        <time>2022-08-08T17:34:28.000Z</time>
      </trkpt>
      <trkpt lat="48.50273" lon="7.12255">
        <ele>688.41772</ele>
        <time>2022-08-08T17:34:30.000Z</time>
      </trkpt>
      <trkpt lat="48.50274" lon="7.12251">
        <ele>688.05145</ele>
        <time>2022-08-08T17:34:32.000Z</time>
      </trkpt>
      <trkpt lat="48.50276" lon="7.12246">
        <ele>687.82458</ele>
        <time>2022-08-08T17:34:34.000Z</time>
      </trkpt>
      <trkpt lat="48.50277" lon="7.12244">
        <ele>687.55005</ele>
        <time>2022-08-08T17:34:35.000Z</time>
      </trkpt>
      <trkpt lat="48.5028" lon="7.1224">
        <ele>687.30725</ele>
        <time>2022-08-08T17:34:37.000Z</time>
      </trkpt>
      <trkpt lat="48.50282" lon="7.12236">
        <ele>687.15631</ele>
        <time>2022-08-08T17:34:39.000Z</time>
      </trkpt>
      <trkpt lat="48.50283" lon="7.12234">
        <ele>686.948</ele>
        <time>2022-08-08T17:34:40.000Z</time>
      </trkpt>
      <trkpt lat="48.50284" lon="7.1223">
        <ele>686.70239</ele>
        <time>2022-08-08T17:34:41.000Z</time>
      </trkpt>
      <trkpt lat="48.50287" lon="7.12227">
        <ele>686.4469</ele>
        <time>2022-08-08T17:34:43.000Z</time>
      </trkpt>
      <trkpt lat="48.50288" lon="7.12224">
        <ele>685.96997</ele>
        <time>2022-08-08T17:34:45.000Z</time>
      </trkpt>
      <trkpt lat="48.5029" lon="7.12222">
        <ele>685.31104</ele>
        <time>2022-08-08T17:34:47.000Z</time>
      </trkpt>
      <trkpt lat="48.50291" lon="7.12219">
        <ele>684.73657</ele>
        <time>2022-08-08T17:34:48.000Z</time>
      </trkpt>
      <trkpt lat="48.50293" lon="7.12216">
        <ele>684.26404</ele>
        <time>2022-08-08T17:34:49.000Z</time>
      </trkpt>
      <trkpt lat="48.50295" lon="7.12212">
        <ele>683.85474</ele>
        <time>2022-08-08T17:34:50.000Z</time>
      </trkpt>
      <trkpt lat="48.50296" lon="7.12209">
        <ele>683.39246</ele>
        <time>2022-08-08T17:34:51.000Z</time>
      </trkpt>
      <trkpt lat="48.50298" lon="7.12206">
        <ele>682.99139</ele>
        <time>2022-08-08T17:34:52.000Z</time>
      </trkpt>
      <trkpt lat="48.50299" lon="7.12203">
        <ele>682.67358</ele>
        <time>2022-08-08T17:34:54.000Z</time>
      </trkpt>
      <trkpt lat="48.50301" lon="7.12199">
        <ele>682.26465</ele>
        <time>2022-08-08T17:34:56.000Z</time>
      </trkpt>
      <trkpt lat="48.50302" lon="7.12196">
        <ele>681.77582</ele>
        <time>2022-08-08T17:34:58.000Z</time>
      </trkpt>
      <trkpt lat="48.50303" lon="7.12194">
        <ele>681.33594</ele>
        <time>2022-08-08T17:34:59.000Z</time>
      </trkpt>
      <trkpt lat="48.50306" lon="7.1219">
        <ele>680.83337</ele>
        <time>2022-08-08T17:35:01.000Z</time>
      </trkpt>
      <trkpt lat="48.50307" lon="7.12186">
        <ele>680.42371</ele>
        <time>2022-08-08T17:35:03.000Z</time>
      </trkpt>
      <trkpt lat="48.50308" lon="7.12184">
        <ele>680.09875</ele>
        <time>2022-08-08T17:35:04.000Z</time>
      </trkpt>
      <trkpt lat="48.50309" lon="7.12181">
        <ele>679.68158</ele>
        <time>2022-08-08T17:35:05.000Z</time>
      </trkpt>
      <trkpt lat="48.5031" lon="7.12176">
        <ele>679.26031</ele>
        <time>2022-08-08T17:35:07.000Z</time>
      </trkpt>
      <trkpt lat="48.50311" lon="7.12174">
        <ele>678.7973</ele>
        <time>2022-08-08T17:35:08.000Z</time>
      </trkpt>
      <trkpt lat="48.50313" lon="7.12171">
        <ele>678.48773</ele>
        <time>2022-08-08T17:35:09.000Z</time>
      </trkpt>
      <trkpt lat="48.50314" lon="7.12169">
        <ele>678.23151</ele>
        <time>2022-08-08T17:35:10.000Z</time>
      </trkpt>
      <trkpt lat="48.50316" lon="7.12165">
        <ele>677.99481</ele>
        <time>2022-08-08T17:35:12.000Z</time>
      </trkpt>
      <trkpt lat="48.50317" lon="7.12163">
        <ele>677.854</ele>
        <time>2022-08-08T17:35:13.000Z</time>
      </trkpt>
      <trkpt lat="48.50318" lon="7.12161">
        <ele>677.79578</ele>
        <time>2022-08-08T17:35:14.000Z</time>
      </trkpt>
      <trkpt lat="48.50319" lon="7.12157">
        <ele>677.83728</ele>
        <time>2022-08-08T17:35:16.000Z</time>
      </trkpt>
      <trkpt lat="48.5032" lon="7.12154">
        <ele>677.86145</ele>
        <time>2022-08-08T17:35:18.000Z</time>
      </trkpt>
      <trkpt lat="48.50322" lon="7.12151">
        <ele>677.79077</ele>
        <time>2022-08-08T17:35:20.000Z</time>
      </trkpt>
      <trkpt lat="48.50324" lon="7.12149">
        <ele>677.84485</ele>
        <time>2022-08-08T17:35:22.000Z</time>
      </trkpt>
      <trkpt lat="48.50327" lon="7.12147">
        <ele>677.84686</ele>
        <time>2022-08-08T17:35:24.000Z</time>
      </trkpt>
      <trkpt lat="48.50329" lon="7.12142">
        <ele>677.65759</ele>
        <time>2022-08-08T17:35:26.000Z</time>
      </trkpt>
      <trkpt lat="48.50331" lon="7.12139">
        <ele>677.62604</ele>
        <time>2022-08-08T17:35:28.000Z</time>
      </trkpt>
      <trkpt lat="48.50333" lon="7.12135">
        <ele>677.62097</ele>
        <time>2022-08-08T17:35:30.000Z</time>
      </trkpt>
      <trkpt lat="48.50334" lon="7.12133">
        <ele>677.58154</ele>
        <time>2022-08-08T17:35:31.000Z</time>
      </trkpt>
      <trkpt lat="48.50335" lon="7.12128">
        <ele>677.57251</ele>
        <time>2022-08-08T17:35:33.000Z</time>
      </trkpt>
      <trkpt lat="48.50336" lon="7.12124">
        <ele>677.45099</ele>
        <time>2022-08-08T17:35:35.000Z</time>
      </trkpt>
      <trkpt lat="48.50339" lon="7.12122">
        <ele>677.18054</ele>
        <time>2022-08-08T17:35:37.000Z</time>
      </trkpt>
      <trkpt lat="48.5034" lon="7.12119">
        <ele>676.96906</ele>
        <time>2022-08-08T17:35:39.000Z</time>
      </trkpt>
      <trkpt lat="48.50341" lon="7.12115">
        <ele>676.73383</ele>
        <time>2022-08-08T17:35:41.000Z</time>
      </trkpt>
      <trkpt lat="48.50343" lon="7.12111">
        <ele>676.45764</ele>
        <time>2022-08-08T17:35:43.000Z</time>
      </trkpt>
      <trkpt lat="48.50345" lon="7.12107">
        <ele>675.94922</ele>
        <time>2022-08-08T17:35:45.000Z</time>
      </trkpt>
      <trkpt lat="48.50346" lon="7.12103">
        <ele>675.44543</ele>
        <time>2022-08-08T17:35:47.000Z</time>
      </trkpt>
      <trkpt lat="48.50348" lon="7.12099">
        <ele>674.85162</ele>
        <time>2022-08-08T17:35:49.000Z</time>
      </trkpt>
      <trkpt lat="48.5035" lon="7.12096">
        <ele>674.20978</ele>
        <time>2022-08-08T17:35:51.000Z</time>
      </trkpt>
      <trkpt lat="48.50352" lon="7.12094">
        <ele>673.49335</ele>
        <time>2022-08-08T17:35:53.000Z</time>
      </trkpt>
      <trkpt lat="48.50353" lon="7.1209">
        <ele>672.58008</ele>
        <time>2022-08-08T17:35:56.000Z</time>
      </trkpt>
      <trkpt lat="48.50354" lon="7.12086">
        <ele>671.78876</ele>
        <time>2022-08-08T17:35:58.000Z</time>
      </trkpt>
      <trkpt lat="48.50355" lon="7.12083">
        <ele>671.06238</ele>
        <time>2022-08-08T17:36:00.000Z</time>
      </trkpt>
      <trkpt lat="48.50355" lon="7.1208">
        <ele>670.30035</ele>
        <time>2022-08-08T17:36:02.000Z</time>
      </trkpt>
      <trkpt lat="48.50354" lon="7.12076">
        <ele>669.59601</ele>
        <time>2022-08-08T17:36:04.000Z</time>
      </trkpt>
      <trkpt lat="48.50354" lon="7.12072">
        <ele>669.13794</ele>
        <time>2022-08-08T17:36:06.000Z</time>
      </trkpt>
      <trkpt lat="48.50354" lon="7.12068">
        <ele>668.62494</ele>
        <time>2022-08-08T17:36:08.000Z</time>
      </trkpt>
      <trkpt lat="48.50354" lon="7.12063">
        <ele>668.21625</ele>
        <time>2022-08-08T17:36:10.000Z</time>
      </trkpt>
      <trkpt lat="48.50356" lon="7.12059">
        <ele>667.8905</ele>
        <time>2022-08-08T17:36:12.000Z</time>
      </trkpt>
      <trkpt lat="48.50357" lon="7.12055">
        <ele>667.57971</ele>
        <time>2022-08-08T17:36:14.000Z</time>
      </trkpt>
      <trkpt lat="48.50359" lon="7.12052">
        <ele>667.41333</ele>
        <time>2022-08-08T17:36:16.000Z</time>
      </trkpt>
      <trkpt lat="48.5036" lon="7.12048">
        <ele>667.31366</ele>
        <time>2022-08-08T17:36:18.000Z</time>
      </trkpt>
      <trkpt lat="48.50361" lon="7.12045">
        <ele>667.14337</ele>
        <time>2022-08-08T17:36:20.000Z</time>
      </trkpt>
      <trkpt lat="48.50362" lon="7.12041">
        <ele>667.06934</ele>
        <time>2022-08-08T17:36:22.000Z</time>
      </trkpt>
      <trkpt lat="48.50363" lon="7.12038">
        <ele>666.9585</ele>
        <time>2022-08-08T17:36:23.000Z</time>
      </trkpt>
      <trkpt lat="48.50364" lon="7.12033">
        <ele>667.00598</ele>
        <time>2022-08-08T17:36:25.000Z</time>
      </trkpt>
      <trkpt lat="48.50364" lon="7.1203">
        <ele>666.98059</ele>
        <time>2022-08-08T17:36:26.000Z</time>
      </trkpt>
      <trkpt lat="48.50366" lon="7.12026">
        <ele>667.05652</ele>
        <time>2022-08-08T17:36:28.000Z</time>
      </trkpt>
      <trkpt lat="48.50367" lon="7.12021">
        <ele>667.16882</ele>
        <time>2022-08-08T17:36:30.000Z</time>
      </trkpt>
      <trkpt lat="48.50368" lon="7.12019">
        <ele>667.4176</ele>
        <time>2022-08-08T17:36:31.000Z</time>
      </trkpt>
      <trkpt lat="48.50369" lon="7.12017">
        <ele>667.75494</ele>
        <time>2022-08-08T17:36:32.000Z</time>
      </trkpt>
      <trkpt lat="48.5037" lon="7.12014">
        <ele>667.98853</ele>
        <time>2022-08-08T17:36:33.000Z</time>
      </trkpt>
      <trkpt lat="48.50371" lon="7.12012">
        <ele>668.13562</ele>
        <time>2022-08-08T17:36:34.000Z</time>
      </trkpt>
      <trkpt lat="48.50372" lon="7.12007">
        <ele>668.36072</ele>
        <time>2022-08-08T17:36:36.000Z</time>
      </trkpt>
      <trkpt lat="48.50374" lon="7.12003">
        <ele>668.38214</ele>
        <time>2022-08-08T17:36:38.000Z</time>
      </trkpt>
      <trkpt lat="48.50376" lon="7.11999">
        <ele>668.20123</ele>
        <time>2022-08-08T17:36:40.000Z</time>
      </trkpt>
      <trkpt lat="48.50378" lon="7.11996">
        <ele>667.92261</ele>
        <time>2022-08-08T17:36:42.000Z</time>
      </trkpt>
      <trkpt lat="48.50379" lon="7.11993">
        <ele>667.53601</ele>
        <time>2022-08-08T17:36:44.000Z</time>
      </trkpt>
      <trkpt lat="48.5038" lon="7.11988">
        <ele>667.05743</ele>
        <time>2022-08-08T17:36:46.000Z</time>
      </trkpt>
      <trkpt lat="48.50379" lon="7.11985">
        <ele>666.6366</ele>
        <time>2022-08-08T17:36:48.000Z</time>
      </trkpt>
      <trkpt lat="48.50378" lon="7.11982">
        <ele>666.12982</ele>
        <time>2022-08-08T17:36:50.000Z</time>
      </trkpt>
      <trkpt lat="48.50378" lon="7.11978">
        <ele>665.71466</ele>
        <time>2022-08-08T17:36:52.000Z</time>
      </trkpt>
      <trkpt lat="48.50378" lon="7.11974">
        <ele>665.4071</ele>
        <time>2022-08-08T17:36:54.000Z</time>
      </trkpt>
      <trkpt lat="48.50378" lon="7.11971">
        <ele>665.07312</ele>
        <time>2022-08-08T17:36:56.000Z</time>
      </trkpt>
      <trkpt lat="48.50378" lon="7.11967">
        <ele>664.76617</ele>
        <time>2022-08-08T17:36:58.000Z</time>
      </trkpt>
      <trkpt lat="48.50378" lon="7.11963">
        <ele>664.37659</ele>
        <time>2022-08-08T17:37:00.000Z</time>
      </trkpt>
      <trkpt lat="48.5038" lon="7.1196">
        <ele>663.98529</ele>
        <time>2022-08-08T17:37:02.000Z</time>
      </trkpt>
      <trkpt lat="48.50382" lon="7.11957">
        <ele>663.53375</ele>
        <time>2022-08-08T17:37:04.000Z</time>
      </trkpt>
      <trkpt lat="48.50382" lon="7.11953">
        <ele>663.06543</ele>
        <time>2022-08-08T17:37:06.000Z</time>
      </trkpt>
      <trkpt lat="48.50382" lon="7.11948">
        <ele>662.63251</ele>
        <time>2022-08-08T17:37:08.000Z</time>
      </trkpt>
      <trkpt lat="48.50384" lon="7.11943">
        <ele>662.14758</ele>
        <time>2022-08-08T17:37:10.000Z</time>
      </trkpt>
      <trkpt lat="48.50385" lon="7.11939">
        <ele>661.57092</ele>
        <time>2022-08-08T17:37:12.000Z</time>
      </trkpt>
      <trkpt lat="48.50385" lon="7.11935">
        <ele>661.07532</ele>
        <time>2022-08-08T17:37:14.000Z</time>
      </trkpt>
      <trkpt lat="48.50386" lon="7.11932">
        <ele>660.5141</ele>
        <time>2022-08-08T17:37:16.000Z</time>
      </trkpt>
      <trkpt lat="48.50386" lon="7.1193">
        <ele>660.08923</ele>
        <time>2022-08-08T17:37:18.000Z</time>
      </trkpt>
      <trkpt lat="48.50387" lon="7.11926">
        <ele>659.65015</ele>
        <time>2022-08-08T17:37:20.000Z</time>
      </trkpt>
      <trkpt lat="48.50387" lon="7.11923">
        <ele>659.29169</ele>
        <time>2022-08-08T17:37:22.000Z</time>
      </trkpt>
      <trkpt lat="48.50386" lon="7.11919">
        <ele>659.02356</ele>
        <time>2022-08-08T17:37:24.000Z</time>
      </trkpt>
      <trkpt lat="48.50386" lon="7.11915">
        <ele>658.75348</ele>
        <time>2022-08-08T17:37:26.000Z</time>
      </trkpt>
      <trkpt lat="48.50385" lon="7.1191">
        <ele>658.29688</ele>
        <time>2022-08-08T17:37:28.000Z</time>
      </trkpt>
      <trkpt lat="48.50385" lon="7.11907">
        <ele>657.82092</ele>
        <time>2022-08-08T17:37:29.000Z</time>
      </trkpt>
      <trkpt lat="48.50384" lon="7.11905">
        <ele>657.23938</ele>
        <time>2022-08-08T17:37:30.000Z</time>
      </trkpt>
      <trkpt lat="48.50383" lon="7.11902">
        <ele>656.55872</ele>
        <time>2022-08-08T17:37:31.000Z</time>
      </trkpt>
      <trkpt lat="48.50384" lon="7.11897">
        <ele>655.90948</ele>
        <time>2022-08-08T17:37:33.000Z</time>
      </trkpt>
      <trkpt lat="48.50384" lon="7.11893">
        <ele>655.35278</ele>
        <time>2022-08-08T17:37:35.000Z</time>
      </trkpt>
      <trkpt lat="48.50385" lon="7.11889">
        <ele>654.83246</ele>
        <time>2022-08-08T17:37:37.000Z</time>
      </trkpt>
      <trkpt lat="48.50385" lon="7.11886">
        <ele>654.37439</ele>
        <time>2022-08-08T17:37:38.000Z</time>
      </trkpt>
      <trkpt lat="48.50385" lon="7.11882">
        <ele>654.0697</ele>
        <time>2022-08-08T17:37:40.000Z</time>
      </trkpt>
      <trkpt lat="48.50385" lon="7.11879">
        <ele>653.7865</ele>
        <time>2022-08-08T17:37:41.000Z</time>
      </trkpt>
      <trkpt lat="48.50385" lon="7.11876">
        <ele>653.40967</ele>
        <time>2022-08-08T17:37:42.000Z</time>
      </trkpt>
      <trkpt lat="48.50385" lon="7.11872">
        <ele>653.00366</ele>
        <time>2022-08-08T17:37:43.000Z</time>
      </trkpt>
      <trkpt lat="48.50385" lon="7.11869">
        <ele>652.6344</ele>
        <time>2022-08-08T17:37:44.000Z</time>
      </trkpt>
      <trkpt lat="48.50385" lon="7.11866">
        <ele>652.27264</ele>
        <time>2022-08-08T17:37:46.000Z</time>
      </trkpt>
      <trkpt lat="48.50385" lon="7.11862">
        <ele>651.83533</ele>
        <time>2022-08-08T17:37:48.000Z</time>
      </trkpt>
      <trkpt lat="48.50385" lon="7.11858">
        <ele>651.43372</ele>
        <time>2022-08-08T17:37:50.000Z</time>
      </trkpt>
      <trkpt lat="48.50386" lon="7.11853">
        <ele>651.11194</ele>
        <time>2022-08-08T17:37:52.000Z</time>
      </trkpt>
      <trkpt lat="48.50387" lon="7.11849">
        <ele>650.76379</ele>
        <time>2022-08-08T17:37:54.000Z</time>
      </trkpt>
      <trkpt lat="48.50386" lon="7.11846">
        <ele>650.40332</ele>
        <time>2022-08-08T17:37:56.000Z</time>
      </trkpt>
      <trkpt lat="48.50387" lon="7.11841">
        <ele>650.0625</ele>
        <time>2022-08-08T17:37:58.000Z</time>
      </trkpt>
      <trkpt lat="48.50387" lon="7.11837">
        <ele>649.81567</ele>
        <time>2022-08-08T17:38:00.000Z</time>
      </trkpt>
      <trkpt lat="48.50387" lon="7.11833">
        <ele>649.60999</ele>
        <time>2022-08-08T17:38:02.000Z</time>
      </trkpt>
      <trkpt lat="48.50387" lon="7.11829">
        <ele>649.52576</ele>
        <time>2022-08-08T17:38:04.000Z</time>
      </trkpt>
      <trkpt lat="48.50388" lon="7.11824">
        <ele>649.46667</ele>
        <time>2022-08-08T17:38:06.000Z</time>
      </trkpt>
      <trkpt lat="48.50387" lon="7.11819">
        <ele>649.23346</ele>
        <time>2022-08-08T17:38:08.000Z</time>
      </trkpt>
      <trkpt lat="48.50387" lon="7.11816">
        <ele>648.93713</ele>
        <time>2022-08-08T17:38:09.000Z</time>
      </trkpt>
      <trkpt lat="48.50387" lon="7.11812">
        <ele>648.65698</ele>
        <time>2022-08-08T17:38:10.000Z</time>
      </trkpt>
      <trkpt lat="48.50387" lon="7.11808">
        <ele>648.32239</ele>
        <time>2022-08-08T17:38:12.000Z</time>
      </trkpt>
      <trkpt lat="48.50386" lon="7.11805">
        <ele>647.94928</ele>
        <time>2022-08-08T17:38:13.000Z</time>
      </trkpt>
      <trkpt lat="48.50386" lon="7.11801">
        <ele>647.62555</ele>
        <time>2022-08-08T17:38:14.000Z</time>
      </trkpt>
      <trkpt lat="48.50387" lon="7.11798">
        <ele>647.36218</ele>
        <time>2022-08-08T17:38:15.000Z</time>
      </trkpt>
      <trkpt lat="48.50387" lon="7.11793">
        <ele>647.11627</ele>
        <time>2022-08-08T17:38:17.000Z</time>
      </trkpt>
      <trkpt lat="48.50387" lon="7.11788">
        <ele>646.8457</ele>
        <time>2022-08-08T17:38:19.000Z</time>
      </trkpt>
      <trkpt lat="48.50387" lon="7.11785">
        <ele>646.50342</ele>
        <time>2022-08-08T17:38:20.000Z</time>
      </trkpt>
      <trkpt lat="48.50387" lon="7.1178">
        <ele>646.1131</ele>
        <time>2022-08-08T17:38:22.000Z</time>
      </trkpt>
      <trkpt lat="48.50386" lon="7.11776">
        <ele>645.72107</ele>
        <time>2022-08-08T17:38:24.000Z</time>
      </trkpt>
      <trkpt lat="48.50385" lon="7.11772">
        <ele>645.26721</ele>
        <time>2022-08-08T17:38:26.000Z</time>
      </trkpt>
      <trkpt lat="48.50385" lon="7.11768">
        <ele>644.78088</ele>
        <time>2022-08-08T17:38:28.000Z</time>
      </trkpt>
      <trkpt lat="48.50385" lon="7.11763">
        <ele>644.39832</ele>
        <time>2022-08-08T17:38:30.000Z</time>
      </trkpt>
      <trkpt lat="48.50385" lon="7.11758">
        <ele>644.10876</ele>
        <time>2022-08-08T17:38:32.000Z</time>
      </trkpt>
      <trkpt lat="48.50385" lon="7.11755">
        <ele>643.83344</ele>
        <time>2022-08-08T17:38:33.000Z</time>
      </trkpt>
      <trkpt lat="48.50385" lon="7.11752">
        <ele>643.49365</ele>
        <time>2022-08-08T17:38:34.000Z</time>
      </trkpt>
      <trkpt lat="48.50385" lon="7.11749">
        <ele>643.10504</ele>
        <time>2022-08-08T17:38:35.000Z</time>
      </trkpt>
      <trkpt lat="48.50386" lon="7.11744">
        <ele>642.7699</ele>
        <time>2022-08-08T17:38:37.000Z</time>
      </trkpt>
      <trkpt lat="48.50386" lon="7.11739">
        <ele>642.50195</ele>
        <time>2022-08-08T17:38:39.000Z</time>
      </trkpt>
      <trkpt lat="48.50386" lon="7.11736">
        <ele>642.25024</ele>
        <time>2022-08-08T17:38:40.000Z</time>
      </trkpt>
      <trkpt lat="48.50386" lon="7.11733">
        <ele>642.03564</ele>
        <time>2022-08-08T17:38:41.000Z</time>
      </trkpt>
      <trkpt lat="48.50387" lon="7.11729">
        <ele>641.80103</ele>
        <time>2022-08-08T17:38:43.000Z</time>
      </trkpt>
      <trkpt lat="48.50387" lon="7.11725">
        <ele>641.5061</ele>
        <time>2022-08-08T17:38:45.000Z</time>
      </trkpt>
      <trkpt lat="48.50387" lon="7.11722">
        <ele>641.20099</ele>
        <time>2022-08-08T17:38:47.000Z</time>
      </trkpt>
      <trkpt lat="48.50387" lon="7.11717">
        <ele>640.92743</ele>
        <time>2022-08-08T17:38:49.000Z</time>
      </trkpt>
      <trkpt lat="48.50386" lon="7.11713">
        <ele>640.63696</ele>
        <time>2022-08-08T17:38:51.000Z</time>
      </trkpt>
      <trkpt lat="48.50386" lon="7.11709">
        <ele>640.31964</ele>
        <time>2022-08-08T17:38:53.000Z</time>
      </trkpt>
      <trkpt lat="48.50385" lon="7.11703">
        <ele>640.02081</ele>
        <time>2022-08-08T17:38:55.000Z</time>
      </trkpt>
      <trkpt lat="48.50386" lon="7.11701">
        <ele>639.73438</ele>
        <time>2022-08-08T17:38:56.000Z</time>
      </trkpt>
      <trkpt lat="48.50386" lon="7.11696">
        <ele>639.4079</ele>
        <time>2022-08-08T17:38:58.000Z</time>
      </trkpt>
      <trkpt lat="48.50386" lon="7.11692">
        <ele>639.15125</ele>
        <time>2022-08-08T17:39:00.000Z</time>
      </trkpt>
      <trkpt lat="48.50386" lon="7.11687">
        <ele>638.80994</ele>
        <time>2022-08-08T17:39:02.000Z</time>
      </trkpt>
      <trkpt lat="48.50386" lon="7.11682">
        <ele>638.26141</ele>
        <time>2022-08-08T17:39:04.000Z</time>
      </trkpt>
      <trkpt lat="48.50386" lon="7.11678">
        <ele>637.52557</ele>
        <time>2022-08-08T17:39:06.000Z</time>
      </trkpt>
      <trkpt lat="48.50387" lon="7.11673">
        <ele>636.71179</ele>
        <time>2022-08-08T17:39:08.000Z</time>
      </trkpt>
      <trkpt lat="48.50387" lon="7.11668">
        <ele>635.97925</ele>
        <time>2022-08-08T17:39:10.000Z</time>
      </trkpt>
      <trkpt lat="48.50387" lon="7.11664">
        <ele>635.25635</ele>
        <time>2022-08-08T17:39:12.000Z</time>
      </trkpt>
      <trkpt lat="48.50386" lon="7.1166">
        <ele>634.44757</ele>
        <time>2022-08-08T17:39:14.000Z</time>
      </trkpt>
      <trkpt lat="48.50384" lon="7.11655">
        <ele>633.71252</ele>
        <time>2022-08-08T17:39:16.000Z</time>
      </trkpt>
      <trkpt lat="48.50384" lon="7.1165">
        <ele>632.93518</ele>
        <time>2022-08-08T17:39:18.000Z</time>
      </trkpt>
      <trkpt lat="48.50383" lon="7.11646">
        <ele>632.104</ele>
        <time>2022-08-08T17:39:20.000Z</time>
      </trkpt>
      <trkpt lat="48.50382" lon="7.11641">
        <ele>631.37061</ele>
        <time>2022-08-08T17:39:22.000Z</time>
      </trkpt>
      <trkpt lat="48.50382" lon="7.11637">
        <ele>630.62994</ele>
        <time>2022-08-08T17:39:24.000Z</time>
      </trkpt>
      <trkpt lat="48.5038" lon="7.11632">
        <ele>629.90417</ele>
        <time>2022-08-08T17:39:26.000Z</time>
      </trkpt>
      <trkpt lat="48.50379" lon="7.11629">
        <ele>629.15967</ele>
        <time>2022-08-08T17:39:28.000Z</time>
      </trkpt>
      <trkpt lat="48.50378" lon="7.11625">
        <ele>628.47852</ele>
        <time>2022-08-08T17:39:30.000Z</time>
      </trkpt>
      <trkpt lat="48.50377" lon="7.1162">
        <ele>627.87537</ele>
        <time>2022-08-08T17:39:32.000Z</time>
      </trkpt>
      <trkpt lat="48.50376" lon="7.11616">
        <ele>627.34198</ele>
        <time>2022-08-08T17:39:34.000Z</time>
      </trkpt>
      <trkpt lat="48.50377" lon="7.11612">
        <ele>626.87592</ele>
        <time>2022-08-08T17:39:36.000Z</time>
      </trkpt>
      <trkpt lat="48.50377" lon="7.11608">
        <ele>626.43994</ele>
        <time>2022-08-08T17:39:38.000Z</time>
      </trkpt>
      <trkpt lat="48.50377" lon="7.11604">
        <ele>625.97876</ele>
        <time>2022-08-08T17:39:40.000Z</time>
      </trkpt>
      <trkpt lat="48.50377" lon="7.11601">
        <ele>625.64233</ele>
        <time>2022-08-08T17:39:42.000Z</time>
      </trkpt>
      <trkpt lat="48.50378" lon="7.11597">
        <ele>625.31219</ele>
        <time>2022-08-08T17:39:44.000Z</time>
      </trkpt>
      <trkpt lat="48.50379" lon="7.11592">
        <ele>625.10645</ele>
        <time>2022-08-08T17:39:46.000Z</time>
      </trkpt>
      <trkpt lat="48.50379" lon="7.11587">
        <ele>624.96375</ele>
        <time>2022-08-08T17:39:48.000Z</time>
      </trkpt>
      <trkpt lat="48.50379" lon="7.11583">
        <ele>624.81995</ele>
        <time>2022-08-08T17:39:50.000Z</time>
      </trkpt>
      <trkpt lat="48.5038" lon="7.11579">
        <ele>624.60583</ele>
        <time>2022-08-08T17:39:52.000Z</time>
      </trkpt>
      <trkpt lat="48.50381" lon="7.11574">
        <ele>624.31537</ele>
        <time>2022-08-08T17:39:54.000Z</time>
      </trkpt>
      <trkpt lat="48.5038" lon="7.1157">
        <ele>624.07263</ele>
        <time>2022-08-08T17:39:56.000Z</time>
      </trkpt>
      <trkpt lat="48.50381" lon="7.11567">
        <ele>623.95166</ele>
        <time>2022-08-08T17:39:58.000Z</time>
      </trkpt>
      <trkpt lat="48.50381" lon="7.11563">
        <ele>623.89679</ele>
        <time>2022-08-08T17:40:00.000Z</time>
      </trkpt>
      <trkpt lat="48.50381" lon="7.11558">
        <ele>623.85168</ele>
        <time>2022-08-08T17:40:02.000Z</time>
      </trkpt>
      <trkpt lat="48.50381" lon="7.11554">
        <ele>623.78296</ele>
        <time>2022-08-08T17:40:04.000Z</time>
      </trkpt>
      <trkpt lat="48.50381" lon="7.1155">
        <ele>623.66016</ele>
        <time>2022-08-08T17:40:06.000Z</time>
      </trkpt>
      <trkpt lat="48.50381" lon="7.11545">
        <ele>623.48596</ele>
        <time>2022-08-08T17:40:08.000Z</time>
      </trkpt>
      <trkpt lat="48.50381" lon="7.11541">
        <ele>623.36255</ele>
        <time>2022-08-08T17:40:10.000Z</time>
      </trkpt>
      <trkpt lat="48.50381" lon="7.11537">
        <ele>623.14075</ele>
        <time>2022-08-08T17:40:12.000Z</time>
      </trkpt>
      <trkpt lat="48.50382" lon="7.11532">
        <ele>622.90057</ele>
        <time>2022-08-08T17:40:14.000Z</time>
      </trkpt>
      <trkpt lat="48.50382" lon="7.11528">
        <ele>622.61029</ele>
        <time>2022-08-08T17:40:16.000Z</time>
      </trkpt>
      <trkpt lat="48.50382" lon="7.11524">
        <ele>622.284</ele>
        <time>2022-08-08T17:40:18.000Z</time>
      </trkpt>
      <trkpt lat="48.50382" lon="7.1152">
        <ele>622.0213</ele>
        <time>2022-08-08T17:40:20.000Z</time>
      </trkpt>
      <trkpt lat="48.50382" lon="7.11516">
        <ele>621.67529</ele>
        <time>2022-08-08T17:40:22.000Z</time>
      </trkpt>
      <trkpt lat="48.50383" lon="7.11512">
        <ele>621.33765</ele>
        <time>2022-08-08T17:40:24.000Z</time>
      </trkpt>
      <trkpt lat="48.50383" lon="7.11508">
        <ele>620.97791</ele>
        <time>2022-08-08T17:40:26.000Z</time>
      </trkpt>
      <trkpt lat="48.50383" lon="7.11504">
        <ele>620.63293</ele>
        <time>2022-08-08T17:40:28.000Z</time>
      </trkpt>
      <trkpt lat="48.50384" lon="7.11501">
        <ele>620.33435</ele>
        <time>2022-08-08T17:40:30.000Z</time>
      </trkpt>
      <trkpt lat="48.50384" lon="7.11497">
        <ele>620.1499</ele>
        <time>2022-08-08T17:40:32.000Z</time>
      </trkpt>
      <trkpt lat="48.50384" lon="7.11493">
        <ele>620.06464</ele>
        <time>2022-08-08T17:40:34.000Z</time>
      </trkpt>
      <trkpt lat="48.50385" lon="7.11489">
        <ele>619.92279</ele>
        <time>2022-08-08T17:40:36.000Z</time>
      </trkpt>
      <trkpt lat="48.50386" lon="7.11484">
        <ele>619.7113</ele>
        <time>2022-08-08T17:40:39.000Z</time>
      </trkpt>
      <trkpt lat="48.50387" lon="7.1148">
        <ele>619.37689</ele>
        <time>2022-08-08T17:40:41.000Z</time>
      </trkpt>
      <trkpt lat="48.50388" lon="7.11476">
        <ele>618.979</ele>
        <time>2022-08-08T17:40:43.000Z</time>
      </trkpt>
      <trkpt lat="48.50389" lon="7.11472">
        <ele>618.68231</ele>
        <time>2022-08-08T17:40:45.000Z</time>
      </trkpt>
      <trkpt lat="48.5039" lon="7.11469">
        <ele>618.42029</ele>
        <time>2022-08-08T17:40:47.000Z</time>
      </trkpt>
      <trkpt lat="48.50391" lon="7.11467">
        <ele>618.23932</ele>
        <time>2022-08-08T17:40:49.000Z</time>
      </trkpt>
      <trkpt lat="48.50393" lon="7.11463">
        <ele>618.02759</ele>
        <time>2022-08-08T17:40:51.000Z</time>
      </trkpt>
      <trkpt lat="48.50394" lon="7.1146">
        <ele>617.89691</ele>
        <time>2022-08-08T17:40:52.000Z</time>
      </trkpt>
      <trkpt lat="48.50394" lon="7.11456">
        <ele>617.78162</ele>
        <time>2022-08-08T17:40:53.000Z</time>
      </trkpt>
      <trkpt lat="48.50395" lon="7.11452">
        <ele>617.7262</ele>
        <time>2022-08-08T17:40:54.000Z</time>
      </trkpt>
      <trkpt lat="48.50395" lon="7.11448">
        <ele>617.67004</ele>
        <time>2022-08-08T17:40:55.000Z</time>
      </trkpt>
      <trkpt lat="48.50396" lon="7.11443">
        <ele>617.59912</ele>
        <time>2022-08-08T17:40:56.000Z</time>
      </trkpt>
      <trkpt lat="48.50396" lon="7.11439">
        <ele>617.64514</ele>
        <time>2022-08-08T17:40:57.000Z</time>
      </trkpt>
      <trkpt lat="48.50397" lon="7.11434">
        <ele>617.74744</ele>
        <time>2022-08-08T17:40:58.000Z</time>
      </trkpt>
      <trkpt lat="48.50398" lon="7.11431">
        <ele>617.92151</ele>
        <time>2022-08-08T17:40:59.000Z</time>
      </trkpt>
      <trkpt lat="48.50399" lon="7.11428">
        <ele>618.15686</ele>
        <time>2022-08-08T17:41:00.000Z</time>
      </trkpt>
      <trkpt lat="48.504" lon="7.11424">
        <ele>618.27277</ele>
        <time>2022-08-08T17:41:01.000Z</time>
      </trkpt>
      <trkpt lat="48.50401" lon="7.1142">
        <ele>618.24982</ele>
        <time>2022-08-08T17:41:02.000Z</time>
      </trkpt>
      <trkpt lat="48.50403" lon="7.11416">
        <ele>618.27399</ele>
        <time>2022-08-08T17:41:03.000Z</time>
      </trkpt>
      <trkpt lat="48.50405" lon="7.11413">
        <ele>618.31226</ele>
        <time>2022-08-08T17:41:04.000Z</time>
      </trkpt>
      <trkpt lat="48.50407" lon="7.11409">
        <ele>618.41284</ele>
        <time>2022-08-08T17:41:05.000Z</time>
      </trkpt>
      <trkpt lat="48.5041" lon="7.11405">
        <ele>618.4519</ele>
        <time>2022-08-08T17:41:06.000Z</time>
      </trkpt>
      <trkpt lat="48.50412" lon="7.11401">
        <ele>618.48291</ele>
        <time>2022-08-08T17:41:07.000Z</time>
      </trkpt>
      <trkpt lat="48.50414" lon="7.11398">
        <ele>618.52252</ele>
        <time>2022-08-08T17:41:08.000Z</time>
      </trkpt>
      <trkpt lat="48.50416" lon="7.11394">
        <ele>618.54694</ele>
        <time>2022-08-08T17:41:09.000Z</time>
      </trkpt>
      <trkpt lat="48.50418" lon="7.11388">
        <ele>618.44073</ele>
        <time>2022-08-08T17:41:10.000Z</time>
      </trkpt>
      <trkpt lat="48.5042" lon="7.11383">
        <ele>618.28601</ele>
        <time>2022-08-08T17:41:11.000Z</time>
      </trkpt>
      <trkpt lat="48.5042" lon="7.11379">
        <ele>618.10974</ele>
        <time>2022-08-08T17:41:12.000Z</time>
      </trkpt>
      <trkpt lat="48.5042" lon="7.11373">
        <ele>617.88489</ele>
        <time>2022-08-08T17:41:13.000Z</time>
      </trkpt>
      <trkpt lat="48.50419" lon="7.11369">
        <ele>617.61975</ele>
        <time>2022-08-08T17:41:14.000Z</time>
      </trkpt>
      <trkpt lat="48.50418" lon="7.11365">
        <ele>617.38678</ele>
        <time>2022-08-08T17:41:15.000Z</time>
      </trkpt>
      <trkpt lat="48.50417" lon="7.1136">
        <ele>617.05914</ele>
        <time>2022-08-08T17:41:16.000Z</time>
      </trkpt>
      <trkpt lat="48.50416" lon="7.11356">
        <ele>616.66589</ele>
        <time>2022-08-08T17:41:17.000Z</time>
      </trkpt>
      <trkpt lat="48.50415" lon="7.11353">
        <ele>616.29926</ele>
        <time>2022-08-08T17:41:18.000Z</time>
      </trkpt>
      <trkpt lat="48.50415" lon="7.1135">
        <ele>615.85071</ele>
        <time>2022-08-08T17:41:19.000Z</time>
      </trkpt>
      <trkpt lat="48.50413" lon="7.11347">
        <ele>615.29047</ele>
        <time>2022-08-08T17:41:21.000Z</time>
      </trkpt>
      <trkpt lat="48.50413" lon="7.11343">
        <ele>614.83582</ele>
        <time>2022-08-08T17:41:24.000Z</time>
      </trkpt>
      <trkpt lat="48.50413" lon="7.11339">
        <ele>614.41174</ele>
        <time>2022-08-08T17:41:26.000Z</time>
      </trkpt>
      <trkpt lat="48.50412" lon="7.11336">
        <ele>613.94348</ele>
        <time>2022-08-08T17:41:27.000Z</time>
      </trkpt>
      <trkpt lat="48.50412" lon="7.11331">
        <ele>613.41418</ele>
        <time>2022-08-08T17:41:29.000Z</time>
      </trkpt>
      <trkpt lat="48.5041" lon="7.11328">
        <ele>612.91522</ele>
        <time>2022-08-08T17:41:31.000Z</time>
      </trkpt>
      <trkpt lat="48.50409" lon="7.11324">
        <ele>612.58386</ele>
        <time>2022-08-08T17:41:34.000Z</time>
      </trkpt>
      <trkpt lat="48.50409" lon="7.1132">
        <ele>612.28857</ele>
        <time>2022-08-08T17:41:36.000Z</time>
      </trkpt>
      <trkpt lat="48.50408" lon="7.11317">
        <ele>611.9787</ele>
        <time>2022-08-08T17:41:38.000Z</time>
      </trkpt>
      <trkpt lat="48.50406" lon="7.11314">
        <ele>611.76886</ele>
        <time>2022-08-08T17:41:40.000Z</time>
      </trkpt>
      <trkpt lat="48.50405" lon="7.11312">
        <ele>611.62805</ele>
        <time>2022-08-08T17:41:42.000Z</time>
      </trkpt>
      <trkpt lat="48.50403" lon="7.11309">
        <ele>611.64612</ele>
        <time>2022-08-08T17:41:44.000Z</time>
      </trkpt>
      <trkpt lat="48.50402" lon="7.11305">
        <ele>611.74158</ele>
        <time>2022-08-08T17:41:46.000Z</time>
      </trkpt>
      <trkpt lat="48.50401" lon="7.11302">
        <ele>611.73376</ele>
        <time>2022-08-08T17:41:48.000Z</time>
      </trkpt>
      <trkpt lat="48.50398" lon="7.11298">
        <ele>611.74426</ele>
        <time>2022-08-08T17:41:50.000Z</time>
      </trkpt>
      <trkpt lat="48.50397" lon="7.11296">
        <ele>611.6532</ele>
        <time>2022-08-08T17:41:51.000Z</time>
      </trkpt>
      <trkpt lat="48.50396" lon="7.11293">
        <ele>611.60858</ele>
        <time>2022-08-08T17:41:53.000Z</time>
      </trkpt>
      <trkpt lat="48.50394" lon="7.11289">
        <ele>611.5603</ele>
        <time>2022-08-08T17:41:55.000Z</time>
      </trkpt>
      <trkpt lat="48.50394" lon="7.11285">
        <ele>611.58582</ele>
        <time>2022-08-08T17:41:57.000Z</time>
      </trkpt>
      <trkpt lat="48.50393" lon="7.11281">
        <ele>611.60852</ele>
        <time>2022-08-08T17:41:59.000Z</time>
      </trkpt>
      <trkpt lat="48.50393" lon="7.11277">
        <ele>611.66467</ele>
        <time>2022-08-08T17:42:01.000Z</time>
      </trkpt>
      <trkpt lat="48.50393" lon="7.11274">
        <ele>611.57043</ele>
        <time>2022-08-08T17:42:02.000Z</time>
      </trkpt>
      <trkpt lat="48.50392" lon="7.1127">
        <ele>611.46069</ele>
        <time>2022-08-08T17:42:04.000Z</time>
      </trkpt>
      <trkpt lat="48.50391" lon="7.11266">
        <ele>611.33301</ele>
        <time>2022-08-08T17:42:06.000Z</time>
      </trkpt>
      <trkpt lat="48.5039" lon="7.11262">
        <ele>611.17468</ele>
        <time>2022-08-08T17:42:08.000Z</time>
      </trkpt>
      <trkpt lat="48.50389" lon="7.11258">
        <ele>610.83771</ele>
        <time>2022-08-08T17:42:10.000Z</time>
      </trkpt>
      <trkpt lat="48.50388" lon="7.11256">
        <ele>610.49603</ele>
        <time>2022-08-08T17:42:12.000Z</time>
      </trkpt>
      <trkpt lat="48.50387" lon="7.11251">
        <ele>610.18207</ele>
        <time>2022-08-08T17:42:14.000Z</time>
      </trkpt>
      <trkpt lat="48.50386" lon="7.11248">
        <ele>609.92224</ele>
        <time>2022-08-08T17:42:15.000Z</time>
      </trkpt>
      <trkpt lat="48.50386" lon="7.11245">
        <ele>609.54553</ele>
        <time>2022-08-08T17:42:16.000Z</time>
      </trkpt>
      <trkpt lat="48.50384" lon="7.11241">
        <ele>609.21466</ele>
        <time>2022-08-08T17:42:18.000Z</time>
      </trkpt>
      <trkpt lat="48.50382" lon="7.11238">
        <ele>608.73785</ele>
        <time>2022-08-08T17:42:20.000Z</time>
      </trkpt>
      <trkpt lat="48.5038" lon="7.11233">
        <ele>608.12384</ele>
        <time>2022-08-08T17:42:22.000Z</time>
      </trkpt>
      <trkpt lat="48.50377" lon="7.1123">
        <ele>607.65491</ele>
        <time>2022-08-08T17:42:24.000Z</time>
      </trkpt>
      <trkpt lat="48.50375" lon="7.11228">
        <ele>607.33185</ele>
        <time>2022-08-08T17:42:26.000Z</time>
      </trkpt>
      <trkpt lat="48.50374" lon="7.11225">
        <ele>607.12793</ele>
        <time>2022-08-08T17:42:28.000Z</time>
      </trkpt>
      <trkpt lat="48.50373" lon="7.11221">
        <ele>607.01837</ele>
        <time>2022-08-08T17:42:30.000Z</time>
      </trkpt>
      <trkpt lat="48.50371" lon="7.11219">
        <ele>607.01733</ele>
        <time>2022-08-08T17:42:32.000Z</time>
      </trkpt>
      <trkpt lat="48.50371" lon="7.11216">
        <ele>606.922</ele>
        <time>2022-08-08T17:42:33.000Z</time>
      </trkpt>
      <trkpt lat="48.50369" lon="7.11213">
        <ele>606.79279</ele>
        <time>2022-08-08T17:42:35.000Z</time>
      </trkpt>
      <trkpt lat="48.50368" lon="7.11209">
        <ele>606.65625</ele>
        <time>2022-08-08T17:42:37.000Z</time>
      </trkpt>
      <trkpt lat="48.50367" lon="7.11205">
        <ele>606.59473</ele>
        <time>2022-08-08T17:42:39.000Z</time>
      </trkpt>
      <trkpt lat="48.50368" lon="7.11202">
        <ele>606.63586</ele>
        <time>2022-08-08T17:42:41.000Z</time>
      </trkpt>
      <trkpt lat="48.50369" lon="7.11199">
        <ele>606.70447</ele>
        <time>2022-08-08T17:42:43.000Z</time>
      </trkpt>
      <trkpt lat="48.50369" lon="7.11196">
        <ele>606.84125</ele>
        <time>2022-08-08T17:42:45.000Z</time>
      </trkpt>
      <trkpt lat="48.5037" lon="7.11194">
        <ele>607.09344</ele>
        <time>2022-08-08T17:42:47.000Z</time>
      </trkpt>
      <trkpt lat="48.50372" lon="7.11192">
        <ele>607.35608</ele>
        <time>2022-08-08T17:42:49.000Z</time>
      </trkpt>
      <trkpt lat="48.50374" lon="7.1119">
        <ele>607.52386</ele>
        <time>2022-08-08T17:42:51.000Z</time>
      </trkpt>
      <trkpt lat="48.50375" lon="7.11188">
        <ele>607.46503</ele>
        <time>2022-08-08T17:42:53.000Z</time>
      </trkpt>
      <trkpt lat="48.50376" lon="7.11185">
        <ele>607.41205</ele>
        <time>2022-08-08T17:42:55.000Z</time>
      </trkpt>
      <trkpt lat="48.50377" lon="7.11182">
        <ele>607.4137</ele>
        <time>2022-08-08T17:42:57.000Z</time>
      </trkpt>
      <trkpt lat="48.50379" lon="7.1118">
        <ele>607.64117</ele>
        <time>2022-08-08T17:42:59.000Z</time>
      </trkpt>
      <trkpt lat="48.5038" lon="7.11177">
        <ele>608.03662</ele>
        <time>2022-08-08T17:43:01.000Z</time>
      </trkpt>
      <trkpt lat="48.50381" lon="7.11174">
        <ele>608.51538</ele>
        <time>2022-08-08T17:43:03.000Z</time>
      </trkpt>
      <trkpt lat="48.50382" lon="7.1117">
        <ele>608.92358</ele>
        <time>2022-08-08T17:43:05.000Z</time>
      </trkpt>
      <trkpt lat="48.50382" lon="7.11167">
        <ele>609.33484</ele>
        <time>2022-08-08T17:43:07.000Z</time>
      </trkpt>
      <trkpt lat="48.50383" lon="7.11164">
        <ele>609.72351</ele>
        <time>2022-08-08T17:43:09.000Z</time>
      </trkpt>
      <trkpt lat="48.50383" lon="7.11161">
        <ele>610.04639</ele>
        <time>2022-08-08T17:43:11.000Z</time>
      </trkpt>
      <trkpt lat="48.50383" lon="7.11157">
        <ele>610.25732</ele>
        <time>2022-08-08T17:43:13.000Z</time>
      </trkpt>
      <trkpt lat="48.50384" lon="7.11153">
        <ele>610.49023</ele>
        <time>2022-08-08T17:43:15.000Z</time>
      </trkpt>
      <trkpt lat="48.50384" lon="7.1115">
        <ele>610.68451</ele>
        <time>2022-08-08T17:43:17.000Z</time>
      </trkpt>
      <trkpt lat="48.50384" lon="7.11147">
        <ele>610.8493</ele>
        <time>2022-08-08T17:43:19.000Z</time>
      </trkpt>
      <trkpt lat="48.50385" lon="7.11143">
        <ele>610.86365</ele>
        <time>2022-08-08T17:43:21.000Z</time>
      </trkpt>
      <trkpt lat="48.50385" lon="7.11139">
        <ele>610.77576</ele>
        <time>2022-08-08T17:43:23.000Z</time>
      </trkpt>
      <trkpt lat="48.50385" lon="7.11135">
        <ele>610.64301</ele>
        <time>2022-08-08T17:43:25.000Z</time>
      </trkpt>
      <trkpt lat="48.50386" lon="7.11131">
        <ele>610.4342</ele>
        <time>2022-08-08T17:43:27.000Z</time>
      </trkpt>
      <trkpt lat="48.50386" lon="7.11127">
        <ele>610.13177</ele>
        <time>2022-08-08T17:43:29.000Z</time>
      </trkpt>
      <trkpt lat="48.50386" lon="7.11123">
        <ele>609.841</ele>
        <time>2022-08-08T17:43:31.000Z</time>
      </trkpt>
      <trkpt lat="48.50387" lon="7.11119">
        <ele>609.67444</ele>
        <time>2022-08-08T17:43:33.000Z</time>
      </trkpt>
      <trkpt lat="48.50388" lon="7.11116">
        <ele>609.4198</ele>
        <time>2022-08-08T17:43:35.000Z</time>
      </trkpt>
      <trkpt lat="48.50388" lon="7.11113">
        <ele>608.94543</ele>
        <time>2022-08-08T17:43:37.000Z</time>
      </trkpt>
      <trkpt lat="48.50388" lon="7.11109">
        <ele>608.09534</ele>
        <time>2022-08-08T17:43:39.000Z</time>
      </trkpt>
      <trkpt lat="48.50387" lon="7.11105">
        <ele>607.14319</ele>
        <time>2022-08-08T17:43:41.000Z</time>
      </trkpt>
      <trkpt lat="48.50387" lon="7.11102">
        <ele>605.95374</ele>
        <time>2022-08-08T17:43:43.000Z</time>
      </trkpt>
      <trkpt lat="48.50388" lon="7.11098">
        <ele>604.66467</ele>
        <time>2022-08-08T17:43:45.000Z</time>
      </trkpt>
      <trkpt lat="48.50389" lon="7.11094">
        <ele>603.3363</ele>
        <time>2022-08-08T17:43:48.000Z</time>
      </trkpt>
      <trkpt lat="48.50389" lon="7.1109">
        <ele>601.77838</ele>
        <time>2022-08-08T17:43:50.000Z</time>
      </trkpt>
      <trkpt lat="48.5039" lon="7.11086">
        <ele>600.22406</ele>
        <time>2022-08-08T17:43:52.000Z</time>
      </trkpt>
      <trkpt lat="48.5039" lon="7.11083">
        <ele>598.80084</ele>
        <time>2022-08-08T17:43:54.000Z</time>
      </trkpt>
      <trkpt lat="48.5039" lon="7.1108">
        <ele>597.48712</ele>
        <time>2022-08-08T17:43:56.000Z</time>
      </trkpt>
      <trkpt lat="48.5039" lon="7.11077">
        <ele>596.24347</ele>
        <time>2022-08-08T17:43:58.000Z</time>
      </trkpt>
      <trkpt lat="48.5039" lon="7.11073">
        <ele>595.03699</ele>
        <time>2022-08-08T17:44:00.000Z</time>
      </trkpt>
      <trkpt lat="48.5039" lon="7.1107">
        <ele>593.87378</ele>
        <time>2022-08-08T17:44:02.000Z</time>
      </trkpt>
      <trkpt lat="48.5039" lon="7.11066">
        <ele>592.72784</ele>
        <time>2022-08-08T17:44:04.000Z</time>
      </trkpt>
      <trkpt lat="48.5039" lon="7.11062">
        <ele>591.55518</ele>
        <time>2022-08-08T17:44:06.000Z</time>
      </trkpt>
      <trkpt lat="48.50389" lon="7.11059">
        <ele>590.34442</ele>
        <time>2022-08-08T17:44:08.000Z</time>
      </trkpt>
      <trkpt lat="48.50389" lon="7.11055">
        <ele>589.0816</ele>
        <time>2022-08-08T17:44:10.000Z</time>
      </trkpt>
      <trkpt lat="48.50388" lon="7.11051">
        <ele>587.91803</ele>
        <time>2022-08-08T17:44:12.000Z</time>
      </trkpt>
      <trkpt lat="48.50388" lon="7.11047">
        <ele>586.62323</ele>
        <time>2022-08-08T17:44:14.000Z</time>
      </trkpt>
      <trkpt lat="48.50388" lon="7.11042">
        <ele>585.43286</ele>
        <time>2022-08-08T17:44:16.000Z</time>
      </trkpt>
      <trkpt lat="48.50387" lon="7.11038">
        <ele>584.32147</ele>
        <time>2022-08-08T17:44:18.000Z</time>
      </trkpt>
      <trkpt lat="48.50387" lon="7.11033">
        <ele>583.38452</ele>
        <time>2022-08-08T17:44:20.000Z</time>
      </trkpt>
      <trkpt lat="48.50387" lon="7.11029">
        <ele>582.46698</ele>
        <time>2022-08-08T17:44:22.000Z</time>
      </trkpt>
      <trkpt lat="48.50387" lon="7.11025">
        <ele>581.59741</ele>
        <time>2022-08-08T17:44:24.000Z</time>
      </trkpt>
      <trkpt lat="48.50387" lon="7.1102">
        <ele>580.75342</ele>
        <time>2022-08-08T17:44:26.000Z</time>
      </trkpt>
      <trkpt lat="48.50386" lon="7.11017">
        <ele>580.02869</ele>
        <time>2022-08-08T17:44:28.000Z</time>
      </trkpt>
      <trkpt lat="48.50385" lon="7.11013">
        <ele>579.48596</ele>
        <time>2022-08-08T17:44:30.000Z</time>
      </trkpt>
      <trkpt lat="48.50384" lon="7.11008">
        <ele>578.99109</ele>
        <time>2022-08-08T17:44:32.000Z</time>
      </trkpt>
      <trkpt lat="48.50384" lon="7.11005">
        <ele>578.5658</ele>
        <time>2022-08-08T17:44:34.000Z</time>
      </trkpt>
      <trkpt lat="48.50384" lon="7.11002">
        <ele>577.93787</ele>
        <time>2022-08-08T17:44:36.000Z</time>
      </trkpt>
      <trkpt lat="48.50383" lon="7.10998">
        <ele>577.32062</ele>
        <time>2022-08-08T17:44:38.000Z</time>
      </trkpt>
      <trkpt lat="48.50382" lon="7.10994">
        <ele>576.75641</ele>
        <time>2022-08-08T17:44:40.000Z</time>
      </trkpt>
      <trkpt lat="48.50381" lon="7.1099">
        <ele>576.2749</ele>
        <time>2022-08-08T17:44:42.000Z</time>
      </trkpt>
      <trkpt lat="48.5038" lon="7.10986">
        <ele>575.90759</ele>
        <time>2022-08-08T17:44:44.000Z</time>
      </trkpt>
      <trkpt lat="48.50379" lon="7.10982">
        <ele>575.57495</ele>
        <time>2022-08-08T17:44:46.000Z</time>
      </trkpt>
      <trkpt lat="48.50379" lon="7.10977">
        <ele>575.22888</ele>
        <time>2022-08-08T17:44:48.000Z</time>
      </trkpt>
      <trkpt lat="48.50378" lon="7.10973">
        <ele>574.96246</ele>
        <time>2022-08-08T17:44:50.000Z</time>
      </trkpt>
      <trkpt lat="48.50377" lon="7.10969">
        <ele>574.57031</ele>
        <time>2022-08-08T17:44:52.000Z</time>
      </trkpt>
      <trkpt lat="48.50375" lon="7.10965">
        <ele>574.30408</ele>
        <time>2022-08-08T17:44:54.000Z</time>
      </trkpt>
      <trkpt lat="48.50373" lon="7.10963">
        <ele>574.08514</ele>
        <time>2022-08-08T17:44:56.000Z</time>
      </trkpt>
      <trkpt lat="48.50371" lon="7.1096">
        <ele>573.89874</ele>
        <time>2022-08-08T17:44:58.000Z</time>
      </trkpt>
      <trkpt lat="48.5037" lon="7.10956">
        <ele>573.74017</ele>
        <time>2022-08-08T17:45:00.000Z</time>
      </trkpt>
      <trkpt lat="48.50368" lon="7.10953">
        <ele>573.49408</ele>
        <time>2022-08-08T17:45:02.000Z</time>
      </trkpt>
      <trkpt lat="48.50367" lon="7.10949">
        <ele>573.37598</ele>
        <time>2022-08-08T17:45:04.000Z</time>
      </trkpt>
      <trkpt lat="48.50366" lon="7.10946">
        <ele>573.29218</ele>
        <time>2022-08-08T17:45:06.000Z</time>
      </trkpt>
      <trkpt lat="48.50366" lon="7.10942">
        <ele>573.07556</ele>
        <time>2022-08-08T17:45:08.000Z</time>
      </trkpt>
      <trkpt lat="48.50366" lon="7.10939">
        <ele>572.9093</ele>
        <time>2022-08-08T17:45:10.000Z</time>
      </trkpt>
      <trkpt lat="48.50365" lon="7.10935">
        <ele>572.68341</ele>
        <time>2022-08-08T17:45:12.000Z</time>
      </trkpt>
      <trkpt lat="48.50364" lon="7.10931">
        <ele>572.32117</ele>
        <time>2022-08-08T17:45:14.000Z</time>
      </trkpt>
      <trkpt lat="48.50363" lon="7.10928">
        <ele>572.11212</ele>
        <time>2022-08-08T17:45:16.000Z</time>
      </trkpt>
      <trkpt lat="48.50363" lon="7.10924">
        <ele>571.88293</ele>
        <time>2022-08-08T17:45:18.000Z</time>
      </trkpt>
      <trkpt lat="48.50362" lon="7.10921">
        <ele>571.55212</ele>
        <time>2022-08-08T17:45:20.000Z</time>
      </trkpt>
      <trkpt lat="48.50362" lon="7.10917">
        <ele>571.0553</ele>
        <time>2022-08-08T17:45:22.000Z</time>
      </trkpt>
      <trkpt lat="48.50362" lon="7.10912">
        <ele>570.49603</ele>
        <time>2022-08-08T17:45:24.000Z</time>
      </trkpt>
      <trkpt lat="48.50361" lon="7.10908">
        <ele>570.06317</ele>
        <time>2022-08-08T17:45:26.000Z</time>
      </trkpt>
      <trkpt lat="48.5036" lon="7.10905">
        <ele>569.63403</ele>
        <time>2022-08-08T17:45:27.000Z</time>
      </trkpt>
      <trkpt lat="48.50359" lon="7.10901">
        <ele>569.24298</ele>
        <time>2022-08-08T17:45:29.000Z</time>
      </trkpt>
      <trkpt lat="48.50358" lon="7.10897">
        <ele>568.86908</ele>
        <time>2022-08-08T17:45:31.000Z</time>
      </trkpt>
      <trkpt lat="48.50358" lon="7.10891">
        <ele>568.49493</ele>
        <time>2022-08-08T17:45:34.000Z</time>
      </trkpt>
      <trkpt lat="48.50357" lon="7.10886">
        <ele>568.10803</ele>
        <time>2022-08-08T17:45:36.000Z</time>
      </trkpt>
      <trkpt lat="48.50355" lon="7.10882">
        <ele>567.76257</ele>
        <time>2022-08-08T17:45:38.000Z</time>
      </trkpt>
      <trkpt lat="48.50355" lon="7.10878">
        <ele>567.36371</ele>
        <time>2022-08-08T17:45:40.000Z</time>
      </trkpt>
      <trkpt lat="48.50353" lon="7.10875">
        <ele>567.17346</ele>
        <time>2022-08-08T17:45:42.000Z</time>
      </trkpt>
      <trkpt lat="48.50352" lon="7.10872">
        <ele>566.98138</ele>
        <time>2022-08-08T17:45:44.000Z</time>
      </trkpt>
      <trkpt lat="48.50351" lon="7.10868">
        <ele>566.80359</ele>
        <time>2022-08-08T17:45:46.000Z</time>
      </trkpt>
      <trkpt lat="48.5035" lon="7.10865">
        <ele>566.66986</ele>
        <time>2022-08-08T17:45:48.000Z</time>
      </trkpt>
      <trkpt lat="48.50349" lon="7.10862">
        <ele>566.50385</ele>
        <time>2022-08-08T17:45:50.000Z</time>
      </trkpt>
      <trkpt lat="48.50347" lon="7.10859">
        <ele>566.42163</ele>
        <time>2022-08-08T17:45:52.000Z</time>
      </trkpt>
      <trkpt lat="48.50346" lon="7.10856">
        <ele>566.46545</ele>
        <time>2022-08-08T17:45:54.000Z</time>
      </trkpt>
      <trkpt lat="48.50345" lon="7.10853">
        <ele>566.45233</ele>
        <time>2022-08-08T17:45:56.000Z</time>
      </trkpt>
      <trkpt lat="48.50343" lon="7.1085">
        <ele>566.51685</ele>
        <time>2022-08-08T17:45:58.000Z</time>
      </trkpt>
      <trkpt lat="48.50342" lon="7.10847">
        <ele>566.70874</ele>
        <time>2022-08-08T17:46:00.000Z</time>
      </trkpt>
      <trkpt lat="48.5034" lon="7.10845">
        <ele>566.98035</ele>
        <time>2022-08-08T17:46:02.000Z</time>
      </trkpt>
      <trkpt lat="48.50339" lon="7.10844">
        <ele>567.2785</ele>
        <time>2022-08-08T17:46:04.000Z</time>
      </trkpt>
      <trkpt lat="48.50338" lon="7.10839">
        <ele>567.51563</ele>
        <time>2022-08-08T17:46:06.000Z</time>
      </trkpt>
      <trkpt lat="48.50338" lon="7.10836">
        <ele>567.71478</ele>
        <time>2022-08-08T17:46:08.000Z</time>
      </trkpt>
      <trkpt lat="48.50338" lon="7.10832">
        <ele>567.82703</ele>
        <time>2022-08-08T17:46:10.000Z</time>
      </trkpt>
      <trkpt lat="48.50337" lon="7.10828">
        <ele>567.94781</ele>
        <time>2022-08-08T17:46:12.000Z</time>
      </trkpt>
      <trkpt lat="48.50337" lon="7.10824">
        <ele>568.08087</ele>
        <time>2022-08-08T17:46:14.000Z</time>
      </trkpt>
      <trkpt lat="48.50336" lon="7.1082">
        <ele>568.11902</ele>
        <time>2022-08-08T17:46:16.000Z</time>
      </trkpt>
      <trkpt lat="48.50336" lon="7.10816">
        <ele>567.99573</ele>
        <time>2022-08-08T17:46:18.000Z</time>
      </trkpt>
      <trkpt lat="48.50335" lon="7.10812">
        <ele>567.87408</ele>
        <time>2022-08-08T17:46:20.000Z</time>
      </trkpt>
      <trkpt lat="48.50334" lon="7.10808">
        <ele>567.61682</ele>
        <time>2022-08-08T17:46:22.000Z</time>
      </trkpt>
      <trkpt lat="48.50334" lon="7.10805">
        <ele>567.29633</ele>
        <time>2022-08-08T17:46:24.000Z</time>
      </trkpt>
      <trkpt lat="48.50333" lon="7.10803">
        <ele>566.94324</ele>
        <time>2022-08-08T17:46:26.000Z</time>
      </trkpt>
      <trkpt lat="48.50333" lon="7.10799">
        <ele>566.60608</ele>
        <time>2022-08-08T17:46:28.000Z</time>
      </trkpt>
      <trkpt lat="48.50333" lon="7.10795">
        <ele>566.31213</ele>
        <time>2022-08-08T17:46:31.000Z</time>
      </trkpt>
      <trkpt lat="48.50334" lon="7.10792">
        <ele>565.98773</ele>
        <time>2022-08-08T17:46:33.000Z</time>
      </trkpt>
      <trkpt lat="48.50333" lon="7.10788">
        <ele>565.57825</ele>
        <time>2022-08-08T17:46:35.000Z</time>
      </trkpt>
      <trkpt lat="48.50331" lon="7.10783">
        <ele>565.19678</ele>
        <time>2022-08-08T17:46:37.000Z</time>
      </trkpt>
      <trkpt lat="48.50331" lon="7.10779">
        <ele>564.6601</ele>
        <time>2022-08-08T17:46:39.000Z</time>
      </trkpt>
      <trkpt lat="48.5033" lon="7.10775">
        <ele>564.09955</ele>
        <time>2022-08-08T17:46:41.000Z</time>
      </trkpt>
      <trkpt lat="48.50328" lon="7.10771">
        <ele>563.49329</ele>
        <time>2022-08-08T17:46:43.000Z</time>
      </trkpt>
      <trkpt lat="48.50327" lon="7.10766">
        <ele>562.96442</ele>
        <time>2022-08-08T17:46:45.000Z</time>
      </trkpt>
      <trkpt lat="48.50326" lon="7.10764">
        <ele>562.2887</ele>
        <time>2022-08-08T17:46:46.000Z</time>
      </trkpt>
      <trkpt lat="48.50324" lon="7.10761">
        <ele>561.65179</ele>
        <time>2022-08-08T17:46:48.000Z</time>
      </trkpt>
      <trkpt lat="48.50322" lon="7.10757">
        <ele>561.09851</ele>
        <time>2022-08-08T17:46:50.000Z</time>
      </trkpt>
      <trkpt lat="48.50321" lon="7.10754">
        <ele>560.57776</ele>
        <time>2022-08-08T17:46:52.000Z</time>
      </trkpt>
      <trkpt lat="48.5032" lon="7.1075">
        <ele>560.01355</ele>
        <time>2022-08-08T17:46:54.000Z</time>
      </trkpt>
      <trkpt lat="48.50319" lon="7.10747">
        <ele>559.47998</ele>
        <time>2022-08-08T17:46:56.000Z</time>
      </trkpt>
      <trkpt lat="48.50319" lon="7.10743">
        <ele>559.12219</ele>
        <time>2022-08-08T17:46:58.000Z</time>
      </trkpt>
      <trkpt lat="48.5032" lon="7.1074">
        <ele>558.79822</ele>
        <time>2022-08-08T17:47:00.000Z</time>
      </trkpt>
      <trkpt lat="48.50321" lon="7.10736">
        <ele>558.52765</ele>
        <time>2022-08-08T17:47:02.000Z</time>
      </trkpt>
      <trkpt lat="48.50321" lon="7.10733">
        <ele>558.25458</ele>
        <time>2022-08-08T17:47:04.000Z</time>
      </trkpt>
      <trkpt lat="48.50321" lon="7.10729">
        <ele>558.01569</ele>
        <time>2022-08-08T17:47:06.000Z</time>
      </trkpt>
      <trkpt lat="48.50322" lon="7.10726">
        <ele>557.78992</ele>
        <time>2022-08-08T17:47:08.000Z</time>
      </trkpt>
      <trkpt lat="48.50322" lon="7.10721">
        <ele>557.44611</ele>
        <time>2022-08-08T17:47:10.000Z</time>
      </trkpt>
      <trkpt lat="48.50322" lon="7.10717">
        <ele>557.12555</ele>
        <time>2022-08-08T17:47:12.000Z</time>
      </trkpt>
      <trkpt lat="48.50323" lon="7.10713">
        <ele>556.82825</ele>
        <time>2022-08-08T17:47:14.000Z</time>
      </trkpt>
      <trkpt lat="48.50324" lon="7.10709">
        <ele>556.43274</ele>
        <time>2022-08-08T17:47:16.000Z</time>
      </trkpt>
      <trkpt lat="48.50324" lon="7.10704">
        <ele>556.04553</ele>
        <time>2022-08-08T17:47:18.000Z</time>
      </trkpt>
      <trkpt lat="48.50325" lon="7.107">
        <ele>555.63745</ele>
        <time>2022-08-08T17:47:20.000Z</time>
      </trkpt>
      <trkpt lat="48.50324" lon="7.10697">
        <ele>555.34808</ele>
        <time>2022-08-08T17:47:21.000Z</time>
      </trkpt>
      <trkpt lat="48.50323" lon="7.10694">
        <ele>555.12134</ele>
        <time>2022-08-08T17:47:22.000Z</time>
      </trkpt>
      <trkpt lat="48.50322" lon="7.1069">
        <ele>555.00818</ele>
        <time>2022-08-08T17:47:23.000Z</time>
      </trkpt>
      <trkpt lat="48.50321" lon="7.10685">
        <ele>555.07141</ele>
        <time>2022-08-08T17:47:24.000Z</time>
      </trkpt>
      <trkpt lat="48.50319" lon="7.10679">
        <ele>555.16748</ele>
        <time>2022-08-08T17:47:25.000Z</time>
      </trkpt>
      <trkpt lat="48.50317" lon="7.10666">
        <ele>555.3299</ele>
        <time>2022-08-08T17:47:27.000Z</time>
      </trkpt>
      <trkpt lat="48.50316" lon="7.10661">
        <ele>555.62</ele>
        <time>2022-08-08T17:47:28.000Z</time>
      </trkpt>
      <trkpt lat="48.50315" lon="7.10655">
        <ele>555.94287</ele>
        <time>2022-08-08T17:47:29.000Z</time>
      </trkpt>
      <trkpt lat="48.50313" lon="7.10649">
        <ele>556.20325</ele>
        <time>2022-08-08T17:47:30.000Z</time>
      </trkpt>
      <trkpt lat="48.50312" lon="7.10643">
        <ele>556.45416</ele>
        <time>2022-08-08T17:47:31.000Z</time>
      </trkpt>
      <trkpt lat="48.50312" lon="7.10637">
        <ele>556.57361</ele>
        <time>2022-08-08T17:47:32.000Z</time>
      </trkpt>
      <trkpt lat="48.50311" lon="7.10632">
        <ele>556.61542</ele>
        <time>2022-08-08T17:47:33.000Z</time>
      </trkpt>
      <trkpt lat="48.50308" lon="7.10622">
        <ele>556.58447</ele>
        <time>2022-08-08T17:47:35.000Z</time>
      </trkpt>
      <trkpt lat="48.50307" lon="7.10617">
        <ele>556.53082</ele>
        <time>2022-08-08T17:47:36.000Z</time>
      </trkpt>
      <trkpt lat="48.50305" lon="7.1061">
        <ele>556.57709</ele>
        <time>2022-08-08T17:47:37.000Z</time>
      </trkpt>
      <trkpt lat="48.50305" lon="7.10604">
        <ele>556.52246</ele>
        <time>2022-08-08T17:47:38.000Z</time>
      </trkpt>
      <trkpt lat="48.50304" lon="7.10598">
        <ele>556.48334</ele>
        <time>2022-08-08T17:47:39.000Z</time>
      </trkpt>
      <trkpt lat="48.50303" lon="7.10592">
        <ele>556.56177</ele>
        <time>2022-08-08T17:47:40.000Z</time>
      </trkpt>
      <trkpt lat="48.50302" lon="7.10586">
        <ele>556.73425</ele>
        <time>2022-08-08T17:47:41.000Z</time>
      </trkpt>
      <trkpt lat="48.50301" lon="7.10581">
        <ele>556.79413</ele>
        <time>2022-08-08T17:47:42.000Z</time>
      </trkpt>
      <trkpt lat="48.503" lon="7.10575">
        <ele>556.80957</ele>
        <time>2022-08-08T17:47:43.000Z</time>
      </trkpt>
      <trkpt lat="48.503" lon="7.10569">
        <ele>556.73315</ele>
        <time>2022-08-08T17:47:44.000Z</time>
      </trkpt>
      <trkpt lat="48.50299" lon="7.10564">
        <ele>556.70789</ele>
        <time>2022-08-08T17:47:45.000Z</time>
      </trkpt>
      <trkpt lat="48.50298" lon="7.1056">
        <ele>556.63525</ele>
        <time>2022-08-08T17:47:46.000Z</time>
      </trkpt>
      <trkpt lat="48.50296" lon="7.10555">
        <ele>556.48492</ele>
        <time>2022-08-08T17:47:47.000Z</time>
      </trkpt>
      <trkpt lat="48.50295" lon="7.10551">
        <ele>556.29584</ele>
        <time>2022-08-08T17:47:48.000Z</time>
      </trkpt>
      <trkpt lat="48.50295" lon="7.10546">
        <ele>556.04108</ele>
        <time>2022-08-08T17:47:49.000Z</time>
      </trkpt>
      <trkpt lat="48.50295" lon="7.10541">
        <ele>555.75714</ele>
        <time>2022-08-08T17:47:50.000Z</time>
      </trkpt>
      <trkpt lat="48.50296" lon="7.10536">
        <ele>555.39276</ele>
        <time>2022-08-08T17:47:51.000Z</time>
      </trkpt>
      <trkpt lat="48.50297" lon="7.10533">
        <ele>555.07727</ele>
        <time>2022-08-08T17:47:52.000Z</time>
      </trkpt>
      <trkpt lat="48.50298" lon="7.10531">
        <ele>554.78839</ele>
        <time>2022-08-08T17:47:53.000Z</time>
      </trkpt>
      <trkpt lat="48.503" lon="7.10529">
        <ele>554.51422</ele>
        <time>2022-08-08T17:47:54.000Z</time>
      </trkpt>
      <trkpt lat="48.50303" lon="7.10529">
        <ele>554.25476</ele>
        <time>2022-08-08T17:47:55.000Z</time>
      </trkpt>
      <trkpt lat="48.50305" lon="7.10529">
        <ele>553.88184</ele>
        <time>2022-08-08T17:47:56.000Z</time>
      </trkpt>
      <trkpt lat="48.50308" lon="7.10529">
        <ele>553.47278</ele>
        <time>2022-08-08T17:47:57.000Z</time>
      </trkpt>
      <trkpt lat="48.5031" lon="7.10529">
        <ele>553.07172</ele>
        <time>2022-08-08T17:47:58.000Z</time>
      </trkpt>
      <trkpt lat="48.50312" lon="7.1053">
        <ele>552.62207</ele>
        <time>2022-08-08T17:47:59.000Z</time>
      </trkpt>
      <trkpt lat="48.50315" lon="7.10532">
        <ele>552.13324</ele>
        <time>2022-08-08T17:48:00.000Z</time>
      </trkpt>
      <trkpt lat="48.50317" lon="7.10534">
        <ele>551.56854</ele>
        <time>2022-08-08T17:48:01.000Z</time>
      </trkpt>
      <trkpt lat="48.5032" lon="7.10535">
        <ele>551.11853</ele>
        <time>2022-08-08T17:48:02.000Z</time>
      </trkpt>
      <trkpt lat="48.50322" lon="7.10535">
        <ele>550.67078</ele>
        <time>2022-08-08T17:48:03.000Z</time>
      </trkpt>
      <trkpt lat="48.50325" lon="7.10536">
        <ele>550.21106</ele>
        <time>2022-08-08T17:48:04.000Z</time>
      </trkpt>
      <trkpt lat="48.50328" lon="7.10538">
        <ele>549.66815</ele>
        <time>2022-08-08T17:48:05.000Z</time>
      </trkpt>
      <trkpt lat="48.5033" lon="7.10541">
        <ele>549.07599</ele>
        <time>2022-08-08T17:48:06.000Z</time>
      </trkpt>
      <trkpt lat="48.50333" lon="7.10543">
        <ele>548.53387</ele>
        <time>2022-08-08T17:48:07.000Z</time>
      </trkpt>
      <trkpt lat="48.50336" lon="7.10546">
        <ele>547.97424</ele>
        <time>2022-08-08T17:48:08.000Z</time>
      </trkpt>
      <trkpt lat="48.50338" lon="7.10548">
        <ele>547.41034</ele>
        <time>2022-08-08T17:48:09.000Z</time>
      </trkpt>
      <trkpt lat="48.5034" lon="7.1055">
        <ele>546.87732</ele>
        <time>2022-08-08T17:48:10.000Z</time>
      </trkpt>
      <trkpt lat="48.50343" lon="7.10551">
        <ele>546.46552</ele>
        <time>2022-08-08T17:48:11.000Z</time>
      </trkpt>
      <trkpt lat="48.50345" lon="7.10552">
        <ele>546.0011</ele>
        <time>2022-08-08T17:48:12.000Z</time>
      </trkpt>
      <trkpt lat="48.50347" lon="7.10554">
        <ele>545.57159</ele>
        <time>2022-08-08T17:48:13.000Z</time>
      </trkpt>
      <trkpt lat="48.5035" lon="7.10557">
        <ele>545.20715</ele>
        <time>2022-08-08T17:48:14.000Z</time>
      </trkpt>
      <trkpt lat="48.50352" lon="7.10559">
        <ele>544.88599</ele>
        <time>2022-08-08T17:48:15.000Z</time>
      </trkpt>
      <trkpt lat="48.50355" lon="7.10562">
        <ele>544.62823</ele>
        <time>2022-08-08T17:48:16.000Z</time>
      </trkpt>
      <trkpt lat="48.50357" lon="7.10564">
        <ele>544.4364</ele>
        <time>2022-08-08T17:48:17.000Z</time>
      </trkpt>
      <trkpt lat="48.50359" lon="7.10566">
        <ele>544.28516</ele>
        <time>2022-08-08T17:48:18.000Z</time>
      </trkpt>
      <trkpt lat="48.50362" lon="7.10568">
        <ele>544.14917</ele>
        <time>2022-08-08T17:48:19.000Z</time>
      </trkpt>
      <trkpt lat="48.50364" lon="7.10569">
        <ele>544.06348</ele>
        <time>2022-08-08T17:48:20.000Z</time>
      </trkpt>
      <trkpt lat="48.50367" lon="7.1057">
        <ele>544.01794</ele>
        <time>2022-08-08T17:48:21.000Z</time>
      </trkpt>
      <trkpt lat="48.50369" lon="7.10571">
        <ele>543.96887</ele>
        <time>2022-08-08T17:48:22.000Z</time>
      </trkpt>
      <trkpt lat="48.50371" lon="7.10572">
        <ele>543.93799</ele>
        <time>2022-08-08T17:48:23.000Z</time>
      </trkpt>
      <trkpt lat="48.50375" lon="7.10572">
        <ele>543.87585</ele>
        <time>2022-08-08T17:48:24.000Z</time>
      </trkpt>
      <trkpt lat="48.50378" lon="7.10573">
        <ele>543.86572</ele>
        <time>2022-08-08T17:48:25.000Z</time>
      </trkpt>
      <trkpt lat="48.5038" lon="7.10575">
        <ele>543.83868</ele>
        <time>2022-08-08T17:48:26.000Z</time>
      </trkpt>
      <trkpt lat="48.50383" lon="7.10577">
        <ele>543.85925</ele>
        <time>2022-08-08T17:48:27.000Z</time>
      </trkpt>
      <trkpt lat="48.50385" lon="7.10579">
        <ele>543.90332</ele>
        <time>2022-08-08T17:48:28.000Z</time>
      </trkpt>
      <trkpt lat="48.50388" lon="7.10581">
        <ele>543.9881</ele>
        <time>2022-08-08T17:48:29.000Z</time>
      </trkpt>
      <trkpt lat="48.50391" lon="7.10583">
        <ele>544.08514</ele>
        <time>2022-08-08T17:48:30.000Z</time>
      </trkpt>
      <trkpt lat="48.50394" lon="7.10585">
        <ele>544.14539</ele>
        <time>2022-08-08T17:48:31.000Z</time>
      </trkpt>
      <trkpt lat="48.50396" lon="7.10587">
        <ele>544.23157</ele>
        <time>2022-08-08T17:48:32.000Z</time>
      </trkpt>
      <trkpt lat="48.50399" lon="7.10589">
        <ele>544.28546</ele>
        <time>2022-08-08T17:48:33.000Z</time>
      </trkpt>
      <trkpt lat="48.50402" lon="7.1059">
        <ele>544.40979</ele>
        <time>2022-08-08T17:48:34.000Z</time>
      </trkpt>
      <trkpt lat="48.50404" lon="7.10591">
        <ele>544.55743</ele>
        <time>2022-08-08T17:48:35.000Z</time>
      </trkpt>
      <trkpt lat="48.50406" lon="7.10592">
        <ele>544.77277</ele>
        <time>2022-08-08T17:48:36.000Z</time>
      </trkpt>
      <trkpt lat="48.50409" lon="7.10594">
        <ele>544.9101</ele>
        <time>2022-08-08T17:48:38.000Z</time>
      </trkpt>
      <trkpt lat="48.50411" lon="7.10594">
        <ele>545.0351</ele>
        <time>2022-08-08T17:48:40.000Z</time>
      </trkpt>
      <trkpt lat="48.50414" lon="7.10594">
        <ele>545.17072</ele>
        <time>2022-08-08T17:48:42.000Z</time>
      </trkpt>
      <trkpt lat="48.50416" lon="7.10596">
        <ele>545.17346</ele>
        <time>2022-08-08T17:48:44.000Z</time>
      </trkpt>
      <trkpt lat="48.5042" lon="7.10597">
        <ele>545.13342</ele>
        <time>2022-08-08T17:48:46.000Z</time>
      </trkpt>
      <trkpt lat="48.50422" lon="7.10599">
        <ele>545.05994</ele>
        <time>2022-08-08T17:48:48.000Z</time>
      </trkpt>
      <trkpt lat="48.50425" lon="7.106">
        <ele>544.99365</ele>
        <time>2022-08-08T17:48:50.000Z</time>
      </trkpt>
      <trkpt lat="48.50429" lon="7.10601">
        <ele>544.90839</ele>
        <time>2022-08-08T17:48:52.000Z</time>
      </trkpt>
      <trkpt lat="48.50432" lon="7.10601">
        <ele>544.80988</ele>
        <time>2022-08-08T17:48:54.000Z</time>
      </trkpt>
      <trkpt lat="48.50434" lon="7.10601">
        <ele>544.73041</ele>
        <time>2022-08-08T17:48:55.000Z</time>
      </trkpt>
      <trkpt lat="48.50437" lon="7.10601">
        <ele>544.58911</ele>
        <time>2022-08-08T17:48:56.000Z</time>
      </trkpt>
      <trkpt lat="48.50439" lon="7.10599">
        <ele>544.56677</ele>
        <time>2022-08-08T17:48:59.000Z</time>
      </trkpt>
      <trkpt lat="48.50441" lon="7.10599">
        <ele>544.55658</ele>
        <time>2022-08-08T17:49:02.000Z</time>
      </trkpt>
      <trkpt lat="48.50443" lon="7.10599">
        <ele>544.53723</ele>
        <time>2022-08-08T17:49:04.000Z</time>
      </trkpt>
      <trkpt lat="48.50446" lon="7.10597">
        <ele>544.63489</ele>
        <time>2022-08-08T17:49:06.000Z</time>
      </trkpt>
      <trkpt lat="48.50448" lon="7.10596">
        <ele>544.72211</ele>
        <time>2022-08-08T17:49:08.000Z</time>
      </trkpt>
      <trkpt lat="48.5045" lon="7.10596">
        <ele>544.87695</ele>
        <time>2022-08-08T17:49:10.000Z</time>
      </trkpt>
      <trkpt lat="48.50453" lon="7.10595">
        <ele>545.0675</ele>
        <time>2022-08-08T17:49:12.000Z</time>
      </trkpt>
      <trkpt lat="48.50454" lon="7.10594">
        <ele>545.23584</ele>
        <time>2022-08-08T17:49:14.000Z</time>
      </trkpt>
      <trkpt lat="48.50457" lon="7.10594">
        <ele>545.48181</ele>
        <time>2022-08-08T17:49:16.000Z</time>
      </trkpt>
      <trkpt lat="48.50459" lon="7.10593">
        <ele>545.74261</ele>
        <time>2022-08-08T17:49:18.000Z</time>
      </trkpt>
      <trkpt lat="48.50461" lon="7.10591">
        <ele>545.91901</ele>
        <time>2022-08-08T17:49:20.000Z</time>
      </trkpt>
      <trkpt lat="48.50464" lon="7.10591">
        <ele>546.14716</ele>
        <time>2022-08-08T17:49:22.000Z</time>
      </trkpt>
      <trkpt lat="48.50466" lon="7.10591">
        <ele>546.44489</ele>
        <time>2022-08-08T17:49:24.000Z</time>
      </trkpt>
      <trkpt lat="48.50469" lon="7.1059">
        <ele>546.74554</ele>
        <time>2022-08-08T17:49:26.000Z</time>
      </trkpt>
      <trkpt lat="48.50472" lon="7.10589">
        <ele>547.11316</ele>
        <time>2022-08-08T17:49:28.000Z</time>
      </trkpt>
      <trkpt lat="48.50475" lon="7.1059">
        <ele>547.38757</ele>
        <time>2022-08-08T17:49:30.000Z</time>
      </trkpt>
      <trkpt lat="48.50478" lon="7.1059">
        <ele>547.63306</ele>
        <time>2022-08-08T17:49:32.000Z</time>
      </trkpt>
      <trkpt lat="48.5048" lon="7.10591">
        <ele>547.88312</ele>
        <time>2022-08-08T17:49:34.000Z</time>
      </trkpt>
      <trkpt lat="48.50483" lon="7.10591">
        <ele>548.14899</ele>
        <time>2022-08-08T17:49:36.000Z</time>
      </trkpt>
      <trkpt lat="48.50485" lon="7.10592">
        <ele>548.35712</ele>
        <time>2022-08-08T17:49:38.000Z</time>
      </trkpt>
      <trkpt lat="48.50488" lon="7.10593">
        <ele>548.35638</ele>
        <time>2022-08-08T17:49:40.000Z</time>
      </trkpt>
      <trkpt lat="48.5049" lon="7.10593">
        <ele>548.24915</ele>
        <time>2022-08-08T17:49:42.000Z</time>
      </trkpt>
      <trkpt lat="48.50493" lon="7.10595">
        <ele>548.06281</ele>
        <time>2022-08-08T17:49:44.000Z</time>
      </trkpt>
      <trkpt lat="48.50496" lon="7.10595">
        <ele>547.79218</ele>
        <time>2022-08-08T17:49:46.000Z</time>
      </trkpt>
      <trkpt lat="48.50499" lon="7.10595">
        <ele>547.44324</ele>
        <time>2022-08-08T17:49:48.000Z</time>
      </trkpt>
      <trkpt lat="48.50501" lon="7.10593">
        <ele>547.14398</ele>
        <time>2022-08-08T17:49:50.000Z</time>
      </trkpt>
      <trkpt lat="48.50503" lon="7.10593">
        <ele>546.72876</ele>
        <time>2022-08-08T17:49:52.000Z</time>
      </trkpt>
      <trkpt lat="48.50505" lon="7.10592">
        <ele>546.28174</ele>
        <time>2022-08-08T17:49:54.000Z</time>
      </trkpt>
      <trkpt lat="48.50507" lon="7.10589">
        <ele>545.80347</ele>
        <time>2022-08-08T17:49:56.000Z</time>
      </trkpt>
      <trkpt lat="48.50509" lon="7.10587">
        <ele>545.37598</ele>
        <time>2022-08-08T17:49:58.000Z</time>
      </trkpt>
      <trkpt lat="48.50512" lon="7.10586">
        <ele>545.09326</ele>
        <time>2022-08-08T17:50:00.000Z</time>
      </trkpt>
      <trkpt lat="48.50514" lon="7.10584">
        <ele>544.80688</ele>
        <time>2022-08-08T17:50:02.000Z</time>
      </trkpt>
      <trkpt lat="48.50516" lon="7.10582">
        <ele>544.56329</ele>
        <time>2022-08-08T17:50:04.000Z</time>
      </trkpt>
      <trkpt lat="48.50518" lon="7.10579">
        <ele>544.3783</ele>
        <time>2022-08-08T17:50:06.000Z</time>
      </trkpt>
      <trkpt lat="48.5052" lon="7.10576">
        <ele>544.047</ele>
        <time>2022-08-08T17:50:08.000Z</time>
      </trkpt>
      <trkpt lat="48.50522" lon="7.10574">
        <ele>543.89746</ele>
        <time>2022-08-08T17:50:10.000Z</time>
      </trkpt>
      <trkpt lat="48.50524" lon="7.10572">
        <ele>543.97742</ele>
        <time>2022-08-08T17:50:12.000Z</time>
      </trkpt>
      <trkpt lat="48.50526" lon="7.1057">
        <ele>544.00177</ele>
        <time>2022-08-08T17:50:14.000Z</time>
      </trkpt>
      <trkpt lat="48.50528" lon="7.10568">
        <ele>543.93298</ele>
        <time>2022-08-08T17:50:16.000Z</time>
      </trkpt>
      <trkpt lat="48.5053" lon="7.10565">
        <ele>543.88104</ele>
        <time>2022-08-08T17:50:18.000Z</time>
      </trkpt>
      <trkpt lat="48.50532" lon="7.10563">
        <ele>543.91681</ele>
        <time>2022-08-08T17:50:20.000Z</time>
      </trkpt>
      <trkpt lat="48.50535" lon="7.10562">
        <ele>543.99615</ele>
        <time>2022-08-08T17:50:22.000Z</time>
      </trkpt>
      <trkpt lat="48.50538" lon="7.1056">
        <ele>544.19299</ele>
        <time>2022-08-08T17:50:24.000Z</time>
      </trkpt>
      <trkpt lat="48.5054" lon="7.10558">
        <ele>544.41296</ele>
        <time>2022-08-08T17:50:26.000Z</time>
      </trkpt>
      <trkpt lat="48.50542" lon="7.10557">
        <ele>544.71851</ele>
        <time>2022-08-08T17:50:27.000Z</time>
      </trkpt>
      <trkpt lat="48.50544" lon="7.10556">
        <ele>544.9566</ele>
        <time>2022-08-08T17:50:28.000Z</time>
      </trkpt>
      <trkpt lat="48.50546" lon="7.10553">
        <ele>545.28699</ele>
        <time>2022-08-08T17:50:30.000Z</time>
      </trkpt>
      <trkpt lat="48.50549" lon="7.1055">
        <ele>545.61658</ele>
        <time>2022-08-08T17:50:32.000Z</time>
      </trkpt>
      <trkpt lat="48.50552" lon="7.10549">
        <ele>545.85352</ele>
        <time>2022-08-08T17:50:34.000Z</time>
      </trkpt>
      <trkpt lat="48.50555" lon="7.10547">
        <ele>546.1004</ele>
        <time>2022-08-08T17:50:36.000Z</time>
      </trkpt>
      <trkpt lat="48.50558" lon="7.10545">
        <ele>546.27551</ele>
        <time>2022-08-08T17:50:38.000Z</time>
      </trkpt>
      <trkpt lat="48.5056" lon="7.10543">
        <ele>546.48926</ele>
        <time>2022-08-08T17:50:40.000Z</time>
      </trkpt>
      <trkpt lat="48.50563" lon="7.10542">
        <ele>546.70648</ele>
        <time>2022-08-08T17:50:42.000Z</time>
      </trkpt>
      <trkpt lat="48.50566" lon="7.10541">
        <ele>546.98401</ele>
        <time>2022-08-08T17:50:44.000Z</time>
      </trkpt>
      <trkpt lat="48.50569" lon="7.10539">
        <ele>547.46527</ele>
        <time>2022-08-08T17:50:46.000Z</time>
      </trkpt>
      <trkpt lat="48.50571" lon="7.10538">
        <ele>547.90759</ele>
        <time>2022-08-08T17:50:48.000Z</time>
      </trkpt>
      <trkpt lat="48.50574" lon="7.10537">
        <ele>548.17078</ele>
        <time>2022-08-08T17:50:50.000Z</time>
      </trkpt>
      <trkpt lat="48.50577" lon="7.10536">
        <ele>548.41553</ele>
        <time>2022-08-08T17:50:52.000Z</time>
      </trkpt>
      <trkpt lat="48.5058" lon="7.10536">
        <ele>548.70251</ele>
        <time>2022-08-08T17:50:54.000Z</time>
      </trkpt>
      <trkpt lat="48.50583" lon="7.10535">
        <ele>548.99426</ele>
        <time>2022-08-08T17:50:56.000Z</time>
      </trkpt>
      <trkpt lat="48.50586" lon="7.10534">
        <ele>549.16248</ele>
        <time>2022-08-08T17:50:58.000Z</time>
      </trkpt>
      <trkpt lat="48.50589" lon="7.10532">
        <ele>549.3418</ele>
        <time>2022-08-08T17:51:00.000Z</time>
      </trkpt>
      <trkpt lat="48.50591" lon="7.10531">
        <ele>549.41602</ele>
        <time>2022-08-08T17:51:01.000Z</time>
      </trkpt>
      <trkpt lat="48.50594" lon="7.10529">
        <ele>549.33044</ele>
        <time>2022-08-08T17:51:03.000Z</time>
      </trkpt>
      <trkpt lat="48.50596" lon="7.10527">
        <ele>549.16559</ele>
        <time>2022-08-08T17:51:04.000Z</time>
      </trkpt>
      <trkpt lat="48.50599" lon="7.10525">
        <ele>548.97772</ele>
        <time>2022-08-08T17:51:06.000Z</time>
      </trkpt>
      <trkpt lat="48.50602" lon="7.10524">
        <ele>548.70374</ele>
        <time>2022-08-08T17:51:08.000Z</time>
      </trkpt>
      <trkpt lat="48.50605" lon="7.10524">
        <ele>548.37427</ele>
        <time>2022-08-08T17:51:10.000Z</time>
      </trkpt>
      <trkpt lat="48.50608" lon="7.10523">
        <ele>548.09619</ele>
        <time>2022-08-08T17:51:12.000Z</time>
      </trkpt>
      <trkpt lat="48.50609" lon="7.10521">
        <ele>547.49622</ele>
        <time>2022-08-08T17:51:15.000Z</time>
      </trkpt>
      <trkpt lat="48.50613" lon="7.10522">
        <ele>546.80585</ele>
        <time>2022-08-08T17:51:17.000Z</time>
      </trkpt>
      <trkpt lat="48.50615" lon="7.10524">
        <ele>545.86316</ele>
        <time>2022-08-08T17:51:18.000Z</time>
      </trkpt>
      <trkpt lat="48.50616" lon="7.10527">
        <ele>544.7876</ele>
        <time>2022-08-08T17:51:23.000Z</time>
      </trkpt>
      <trkpt lat="48.50618" lon="7.10527">
        <ele>543.55444</ele>
        <time>2022-08-08T17:51:25.000Z</time>
      </trkpt>
      <trkpt lat="48.50619" lon="7.10526">
        <ele>542.15363</ele>
        <time>2022-08-08T17:51:30.000Z</time>
      </trkpt>
      <trkpt lat="48.50621" lon="7.1053">
        <ele>540.70996</ele>
        <time>2022-08-08T17:51:32.000Z</time>
      </trkpt>
      <trkpt lat="48.50622" lon="7.10531">
        <ele>539.25275</ele>
        <time>2022-08-08T17:51:37.000Z</time>
      </trkpt>
      <trkpt lat="48.50623" lon="7.10528">
        <ele>537.85095</ele>
        <time>2022-08-08T17:51:53.000Z</time>
      </trkpt>
      <trkpt lat="48.50624" lon="7.10525">
        <ele>536.46594</ele>
        <time>2022-08-08T17:51:56.000Z</time>
      </trkpt>
      <trkpt lat="48.50624" lon="7.10522">
        <ele>535.14496</ele>
        <time>2022-08-08T17:52:00.000Z</time>
      </trkpt>
      <trkpt lat="48.50626" lon="7.10521">
        <ele>533.86121</ele>
        <time>2022-08-08T17:52:03.000Z</time>
      </trkpt>
      <trkpt lat="48.50628" lon="7.1052">
        <ele>532.56976</ele>
        <time>2022-08-08T17:52:05.000Z</time>
      </trkpt>
      <trkpt lat="48.50629" lon="7.10523">
        <ele>531.30457</ele>
        <time>2022-08-08T17:52:06.000Z</time>
      </trkpt>
      <trkpt lat="48.50629" lon="7.10515">
        <ele>530.28491</ele>
        <time>2022-08-08T17:52:07.000Z</time>
      </trkpt>
      <trkpt lat="48.50632" lon="7.10513">
        <ele>529.40063</ele>
        <time>2022-08-08T17:52:11.000Z</time>
      </trkpt>
      <trkpt lat="48.50634" lon="7.10512">
        <ele>528.56036</ele>
        <time>2022-08-08T17:52:13.000Z</time>
      </trkpt>
      <trkpt lat="48.50636" lon="7.10509">
        <ele>527.75647</ele>
        <time>2022-08-08T17:52:15.000Z</time>
      </trkpt>
      <trkpt lat="48.50637" lon="7.10507">
        <ele>527.0351</ele>
        <time>2022-08-08T17:52:17.000Z</time>
      </trkpt>
      <trkpt lat="48.50639" lon="7.10504">
        <ele>526.27966</ele>
        <time>2022-08-08T17:52:19.000Z</time>
      </trkpt>
      <trkpt lat="48.50641" lon="7.105">
        <ele>525.83093</ele>
        <time>2022-08-08T17:52:21.000Z</time>
      </trkpt>
      <trkpt lat="48.50641" lon="7.10497">
        <ele>525.5127</ele>
        <time>2022-08-08T17:52:23.000Z</time>
      </trkpt>
      <trkpt lat="48.50643" lon="7.10496">
        <ele>525.289</ele>
        <time>2022-08-08T17:52:27.000Z</time>
      </trkpt>
      <trkpt lat="48.50644" lon="7.10493">
        <ele>525.16608</ele>
        <time>2022-08-08T17:52:31.000Z</time>
      </trkpt>
      <trkpt lat="48.50646" lon="7.10491">
        <ele>525.03918</ele>
        <time>2022-08-08T17:52:33.000Z</time>
      </trkpt>
      <trkpt lat="48.50648" lon="7.10488">
        <ele>524.97388</ele>
        <time>2022-08-08T17:52:35.000Z</time>
      </trkpt>
      <trkpt lat="48.5065" lon="7.10486">
        <ele>524.85211</ele>
        <time>2022-08-08T17:52:37.000Z</time>
      </trkpt>
      <trkpt lat="48.50653" lon="7.10484">
        <ele>524.729</ele>
        <time>2022-08-08T17:52:39.000Z</time>
      </trkpt>
      <trkpt lat="48.50655" lon="7.10481">
        <ele>524.67859</ele>
        <time>2022-08-08T17:52:41.000Z</time>
      </trkpt>
      <trkpt lat="48.50657" lon="7.10479">
        <ele>524.67053</ele>
        <time>2022-08-08T17:52:43.000Z</time>
      </trkpt>
      <trkpt lat="48.50659" lon="7.10478">
        <ele>524.69897</ele>
        <time>2022-08-08T17:52:45.000Z</time>
      </trkpt>
      <trkpt lat="48.50661" lon="7.10476">
        <ele>524.7594</ele>
        <time>2022-08-08T17:52:47.000Z</time>
      </trkpt>
      <trkpt lat="48.50663" lon="7.10474">
        <ele>524.81091</ele>
        <time>2022-08-08T17:52:49.000Z</time>
      </trkpt>
      <trkpt lat="48.50665" lon="7.10472">
        <ele>524.86328</ele>
        <time>2022-08-08T17:52:51.000Z</time>
      </trkpt>
      <trkpt lat="48.50667" lon="7.10469">
        <ele>524.81964</ele>
        <time>2022-08-08T17:52:53.000Z</time>
      </trkpt>
      <trkpt lat="48.50669" lon="7.10468">
        <ele>524.71857</ele>
        <time>2022-08-08T17:52:55.000Z</time>
      </trkpt>
      <trkpt lat="48.50671" lon="7.10466">
        <ele>524.68396</ele>
        <time>2022-08-08T17:52:57.000Z</time>
      </trkpt>
      <trkpt lat="48.50673" lon="7.10464">
        <ele>524.63348</ele>
        <time>2022-08-08T17:52:59.000Z</time>
      </trkpt>
      <trkpt lat="48.50675" lon="7.10462">
        <ele>524.51648</ele>
        <time>2022-08-08T17:53:01.000Z</time>
      </trkpt>
      <trkpt lat="48.50677" lon="7.10459">
        <ele>524.43372</ele>
        <time>2022-08-08T17:53:03.000Z</time>
      </trkpt>
      <trkpt lat="48.50679" lon="7.10457">
        <ele>524.27795</ele>
        <time>2022-08-08T17:53:05.000Z</time>
      </trkpt>
      <trkpt lat="48.50681" lon="7.10454">
        <ele>524.09143</ele>
        <time>2022-08-08T17:53:07.000Z</time>
      </trkpt>
      <trkpt lat="48.50683" lon="7.10451">
        <ele>523.93481</ele>
        <time>2022-08-08T17:53:09.000Z</time>
      </trkpt>
      <trkpt lat="48.50685" lon="7.10448">
        <ele>523.81158</ele>
        <time>2022-08-08T17:53:11.000Z</time>
      </trkpt>
      <trkpt lat="48.50686" lon="7.10446">
        <ele>523.74969</ele>
        <time>2022-08-08T17:53:13.000Z</time>
      </trkpt>
      <trkpt lat="48.50688" lon="7.10444">
        <ele>523.65344</ele>
        <time>2022-08-08T17:53:15.000Z</time>
      </trkpt>
      <trkpt lat="48.5069" lon="7.10441">
        <ele>523.60339</ele>
        <time>2022-08-08T17:53:17.000Z</time>
      </trkpt>
      <trkpt lat="48.50691" lon="7.10438">
        <ele>523.58069</ele>
        <time>2022-08-08T17:53:19.000Z</time>
      </trkpt>
      <trkpt lat="48.50693" lon="7.10435">
        <ele>523.48315</ele>
        <time>2022-08-08T17:53:21.000Z</time>
      </trkpt>
      <trkpt lat="48.50694" lon="7.10431">
        <ele>523.37598</ele>
        <time>2022-08-08T17:53:23.000Z</time>
      </trkpt>
      <trkpt lat="48.50696" lon="7.10428">
        <ele>523.22021</ele>
        <time>2022-08-08T17:53:25.000Z</time>
      </trkpt>
      <trkpt lat="48.50699" lon="7.10426">
        <ele>523.04761</ele>
        <time>2022-08-08T17:53:27.000Z</time>
      </trkpt>
      <trkpt lat="48.50701" lon="7.10423">
        <ele>522.88879</ele>
        <time>2022-08-08T17:53:29.000Z</time>
      </trkpt>
      <trkpt lat="48.50703" lon="7.1042">
        <ele>522.71436</ele>
        <time>2022-08-08T17:53:31.000Z</time>
      </trkpt>
      <trkpt lat="48.50705" lon="7.10417">
        <ele>522.47516</ele>
        <time>2022-08-08T17:53:33.000Z</time>
      </trkpt>
      <trkpt lat="48.50707" lon="7.10414">
        <ele>522.13855</ele>
        <time>2022-08-08T17:53:35.000Z</time>
      </trkpt>
      <trkpt lat="48.50709" lon="7.10412">
        <ele>521.75317</ele>
        <time>2022-08-08T17:53:37.000Z</time>
      </trkpt>
      <trkpt lat="48.50711" lon="7.10409">
        <ele>521.32867</ele>
        <time>2022-08-08T17:53:39.000Z</time>
      </trkpt>
      <trkpt lat="48.50712" lon="7.10407">
        <ele>520.9635</ele>
        <time>2022-08-08T17:53:41.000Z</time>
      </trkpt>
      <trkpt lat="48.50714" lon="7.10405">
        <ele>520.58453</ele>
        <time>2022-08-08T17:53:43.000Z</time>
      </trkpt>
      <trkpt lat="48.50716" lon="7.10403">
        <ele>520.20386</ele>
        <time>2022-08-08T17:53:45.000Z</time>
      </trkpt>
      <trkpt lat="48.50718" lon="7.10401">
        <ele>519.79596</ele>
        <time>2022-08-08T17:53:47.000Z</time>
      </trkpt>
      <trkpt lat="48.5072" lon="7.10398">
        <ele>519.40027</ele>
        <time>2022-08-08T17:53:49.000Z</time>
      </trkpt>
      <trkpt lat="48.50722" lon="7.10396">
        <ele>518.96039</ele>
        <time>2022-08-08T17:53:51.000Z</time>
      </trkpt>
      <trkpt lat="48.50725" lon="7.10394">
        <ele>518.51099</ele>
        <time>2022-08-08T17:53:53.000Z</time>
      </trkpt>
      <trkpt lat="48.50727" lon="7.10392">
        <ele>518.12408</ele>
        <time>2022-08-08T17:53:55.000Z</time>
      </trkpt>
      <trkpt lat="48.50729" lon="7.10389">
        <ele>517.74011</ele>
        <time>2022-08-08T17:53:57.000Z</time>
      </trkpt>
      <trkpt lat="48.5073" lon="7.10387">
        <ele>517.37646</ele>
        <time>2022-08-08T17:53:59.000Z</time>
      </trkpt>
      <trkpt lat="48.50732" lon="7.10385">
        <ele>516.98859</ele>
        <time>2022-08-08T17:54:01.000Z</time>
      </trkpt>
      <trkpt lat="48.50734" lon="7.10382">
        <ele>516.58551</ele>
        <time>2022-08-08T17:54:03.000Z</time>
      </trkpt>
      <trkpt lat="48.50737" lon="7.10379">
        <ele>516.13599</ele>
        <time>2022-08-08T17:54:05.000Z</time>
      </trkpt>
      <trkpt lat="48.50739" lon="7.10376">
        <ele>515.75055</ele>
        <time>2022-08-08T17:54:07.000Z</time>
      </trkpt>
      <trkpt lat="48.5074" lon="7.10373">
        <ele>515.38232</ele>
        <time>2022-08-08T17:54:09.000Z</time>
      </trkpt>
      <trkpt lat="48.50743" lon="7.10371">
        <ele>515.02704</ele>
        <time>2022-08-08T17:54:11.000Z</time>
      </trkpt>
      <trkpt lat="48.50745" lon="7.10368">
        <ele>514.70886</ele>
        <time>2022-08-08T17:54:13.000Z</time>
      </trkpt>
      <trkpt lat="48.50747" lon="7.10367">
        <ele>514.4306</ele>
        <time>2022-08-08T17:54:15.000Z</time>
      </trkpt>
      <trkpt lat="48.50749" lon="7.10365">
        <ele>514.11121</ele>
        <time>2022-08-08T17:54:17.000Z</time>
      </trkpt>
      <trkpt lat="48.50752" lon="7.10364">
        <ele>513.81006</ele>
        <time>2022-08-08T17:54:19.000Z</time>
      </trkpt>
      <trkpt lat="48.50754" lon="7.10364">
        <ele>513.47827</ele>
        <time>2022-08-08T17:54:21.000Z</time>
      </trkpt>
      <trkpt lat="48.50757" lon="7.10362">
        <ele>513.16241</ele>
        <time>2022-08-08T17:54:23.000Z</time>
      </trkpt>
      <trkpt lat="48.50759" lon="7.10361">
        <ele>512.90289</ele>
        <time>2022-08-08T17:54:25.000Z</time>
      </trkpt>
      <trkpt lat="48.50762" lon="7.1036">
        <ele>512.67804</ele>
        <time>2022-08-08T17:54:27.000Z</time>
      </trkpt>
      <trkpt lat="48.50765" lon="7.1036">
        <ele>512.44702</ele>
        <time>2022-08-08T17:54:29.000Z</time>
      </trkpt>
      <trkpt lat="48.50767" lon="7.10362">
        <ele>512.23792</ele>
        <time>2022-08-08T17:54:31.000Z</time>
      </trkpt>
      <trkpt lat="48.50769" lon="7.10363">
        <ele>512.07971</ele>
        <time>2022-08-08T17:54:33.000Z</time>
      </trkpt>
      <trkpt lat="48.50772" lon="7.10362">
        <ele>511.86407</ele>
        <time>2022-08-08T17:54:35.000Z</time>
      </trkpt>
      <trkpt lat="48.50774" lon="7.10361">
        <ele>511.60425</ele>
        <time>2022-08-08T17:54:37.000Z</time>
      </trkpt>
      <trkpt lat="48.50775" lon="7.10359">
        <ele>511.26361</ele>
        <time>2022-08-08T17:54:39.000Z</time>
      </trkpt>
      <trkpt lat="48.50776" lon="7.10356">
        <ele>510.9646</ele>
        <time>2022-08-08T17:54:41.000Z</time>
      </trkpt>
      <trkpt lat="48.50777" lon="7.10353">
        <ele>510.72821</ele>
        <time>2022-08-08T17:54:43.000Z</time>
      </trkpt>
      <trkpt lat="48.50778" lon="7.1035">
        <ele>510.50894</ele>
        <time>2022-08-08T17:54:45.000Z</time>
      </trkpt>
      <trkpt lat="48.50779" lon="7.10347">
        <ele>510.28296</ele>
        <time>2022-08-08T17:54:47.000Z</time>
      </trkpt>
      <trkpt lat="48.5078" lon="7.10343">
        <ele>510.03009</ele>
        <time>2022-08-08T17:54:49.000Z</time>
      </trkpt>
      <trkpt lat="48.50781" lon="7.1034">
        <ele>509.85611</ele>
        <time>2022-08-08T17:54:51.000Z</time>
      </trkpt>
      <trkpt lat="48.50782" lon="7.10338">
        <ele>509.6647</ele>
        <time>2022-08-08T17:54:53.000Z</time>
      </trkpt>
      <trkpt lat="48.50782" lon="7.10334">
        <ele>509.50275</ele>
        <time>2022-08-08T17:54:55.000Z</time>
      </trkpt>
      <trkpt lat="48.50783" lon="7.1033">
        <ele>509.38589</ele>
        <time>2022-08-08T17:54:57.000Z</time>
      </trkpt>
      <trkpt lat="48.50783" lon="7.10327">
        <ele>509.32364</ele>
        <time>2022-08-08T17:54:59.000Z</time>
      </trkpt>
      <trkpt lat="48.50784" lon="7.10323">
        <ele>509.26758</ele>
        <time>2022-08-08T17:55:01.000Z</time>
      </trkpt>
      <trkpt lat="48.50785" lon="7.1032">
        <ele>509.2142</ele>
        <time>2022-08-08T17:55:03.000Z</time>
      </trkpt>
      <trkpt lat="48.50785" lon="7.10316">
        <ele>509.06967</ele>
        <time>2022-08-08T17:55:05.000Z</time>
      </trkpt>
      <trkpt lat="48.50786" lon="7.10313">
        <ele>508.83243</ele>
        <time>2022-08-08T17:55:07.000Z</time>
      </trkpt>
      <trkpt lat="48.50786" lon="7.10309">
        <ele>508.59039</ele>
        <time>2022-08-08T17:55:09.000Z</time>
      </trkpt>
      <trkpt lat="48.50786" lon="7.10306">
        <ele>508.38458</ele>
        <time>2022-08-08T17:55:11.000Z</time>
      </trkpt>
      <trkpt lat="48.50787" lon="7.10302">
        <ele>508.24503</ele>
        <time>2022-08-08T17:55:13.000Z</time>
      </trkpt>
      <trkpt lat="48.50788" lon="7.10298">
        <ele>508.1604</ele>
        <time>2022-08-08T17:55:15.000Z</time>
      </trkpt>
      <trkpt lat="48.50789" lon="7.10295">
        <ele>508.20123</ele>
        <time>2022-08-08T17:55:17.000Z</time>
      </trkpt>
      <trkpt lat="48.5079" lon="7.1029">
        <ele>508.2561</ele>
        <time>2022-08-08T17:55:20.000Z</time>
      </trkpt>
      <trkpt lat="48.50791" lon="7.10286">
        <ele>508.3356</ele>
        <time>2022-08-08T17:55:22.000Z</time>
      </trkpt>
      <trkpt lat="48.50792" lon="7.10282">
        <ele>508.45352</ele>
        <time>2022-08-08T17:55:24.000Z</time>
      </trkpt>
      <trkpt lat="48.50793" lon="7.10279">
        <ele>508.60919</ele>
        <time>2022-08-08T17:55:26.000Z</time>
      </trkpt>
      <trkpt lat="48.50794" lon="7.10275">
        <ele>508.82544</ele>
        <time>2022-08-08T17:55:28.000Z</time>
      </trkpt>
      <trkpt lat="48.50794" lon="7.10271">
        <ele>509.06363</ele>
        <time>2022-08-08T17:55:30.000Z</time>
      </trkpt>
      <trkpt lat="48.50795" lon="7.10267">
        <ele>509.28082</ele>
        <time>2022-08-08T17:55:32.000Z</time>
      </trkpt>
      <trkpt lat="48.50796" lon="7.10262">
        <ele>509.47647</ele>
        <time>2022-08-08T17:55:34.000Z</time>
      </trkpt>
      <trkpt lat="48.50797" lon="7.10258">
        <ele>509.62167</ele>
        <time>2022-08-08T17:55:36.000Z</time>
      </trkpt>
      <trkpt lat="48.50798" lon="7.10253">
        <ele>509.7561</ele>
        <time>2022-08-08T17:55:38.000Z</time>
      </trkpt>
      <trkpt lat="48.50799" lon="7.10248">
        <ele>509.75674</ele>
        <time>2022-08-08T17:55:40.000Z</time>
      </trkpt>
      <trkpt lat="48.50799" lon="7.10244">
        <ele>509.6933</ele>
        <time>2022-08-08T17:55:42.000Z</time>
      </trkpt>
      <trkpt lat="48.50799" lon="7.1024">
        <ele>509.50153</ele>
        <time>2022-08-08T17:55:44.000Z</time>
      </trkpt>
      <trkpt lat="48.50798" lon="7.10236">
        <ele>509.28458</ele>
        <time>2022-08-08T17:55:46.000Z</time>
      </trkpt>
      <trkpt lat="48.50799" lon="7.10232">
        <ele>509.08701</ele>
        <time>2022-08-08T17:55:48.000Z</time>
      </trkpt>
      <trkpt lat="48.508" lon="7.10228">
        <ele>508.90179</ele>
        <time>2022-08-08T17:55:50.000Z</time>
      </trkpt>
      <trkpt lat="48.50801" lon="7.10224">
        <ele>508.70947</ele>
        <time>2022-08-08T17:55:52.000Z</time>
      </trkpt>
      <trkpt lat="48.50801" lon="7.10221">
        <ele>508.44696</ele>
        <time>2022-08-08T17:55:54.000Z</time>
      </trkpt>
      <trkpt lat="48.50802" lon="7.10217">
        <ele>508.18686</ele>
        <time>2022-08-08T17:55:56.000Z</time>
      </trkpt>
      <trkpt lat="48.50803" lon="7.10213">
        <ele>507.81647</ele>
        <time>2022-08-08T17:55:58.000Z</time>
      </trkpt>
      <trkpt lat="48.50803" lon="7.1021">
        <ele>507.46991</ele>
        <time>2022-08-08T17:56:00.000Z</time>
      </trkpt>
      <trkpt lat="48.50804" lon="7.10205">
        <ele>507.11465</ele>
        <time>2022-08-08T17:56:02.000Z</time>
      </trkpt>
      <trkpt lat="48.50805" lon="7.10202">
        <ele>506.72372</ele>
        <time>2022-08-08T17:56:04.000Z</time>
      </trkpt>
      <trkpt lat="48.50806" lon="7.10197">
        <ele>506.29169</ele>
        <time>2022-08-08T17:56:06.000Z</time>
      </trkpt>
      <trkpt lat="48.50807" lon="7.10193">
        <ele>505.76431</ele>
        <time>2022-08-08T17:56:08.000Z</time>
      </trkpt>
      <trkpt lat="48.50808" lon="7.10189">
        <ele>505.15619</ele>
        <time>2022-08-08T17:56:10.000Z</time>
      </trkpt>
      <trkpt lat="48.50808" lon="7.10185">
        <ele>504.48248</ele>
        <time>2022-08-08T17:56:12.000Z</time>
      </trkpt>
      <trkpt lat="48.5081" lon="7.10182">
        <ele>503.87115</ele>
        <time>2022-08-08T17:56:14.000Z</time>
      </trkpt>
      <trkpt lat="48.5081" lon="7.10178">
        <ele>503.29037</ele>
        <time>2022-08-08T17:56:16.000Z</time>
      </trkpt>
      <trkpt lat="48.50811" lon="7.10174">
        <ele>502.72784</ele>
        <time>2022-08-08T17:56:18.000Z</time>
      </trkpt>
      <trkpt lat="48.50812" lon="7.1017">
        <ele>502.23096</ele>
        <time>2022-08-08T17:56:20.000Z</time>
      </trkpt>
      <trkpt lat="48.50813" lon="7.10167">
        <ele>501.84302</ele>
        <time>2022-08-08T17:56:22.000Z</time>
      </trkpt>
      <trkpt lat="48.50814" lon="7.10163">
        <ele>501.55365</ele>
        <time>2022-08-08T17:56:24.000Z</time>
      </trkpt>
      <trkpt lat="48.50814" lon="7.1016">
        <ele>501.34503</ele>
        <time>2022-08-08T17:56:26.000Z</time>
      </trkpt>
      <trkpt lat="48.50816" lon="7.10157">
        <ele>501.12701</ele>
        <time>2022-08-08T17:56:28.000Z</time>
      </trkpt>
      <trkpt lat="48.50816" lon="7.10153">
        <ele>500.91153</ele>
        <time>2022-08-08T17:56:30.000Z</time>
      </trkpt>
      <trkpt lat="48.50817" lon="7.1015">
        <ele>500.62604</ele>
        <time>2022-08-08T17:56:32.000Z</time>
      </trkpt>
      <trkpt lat="48.50818" lon="7.10146">
        <ele>500.34448</ele>
        <time>2022-08-08T17:56:34.000Z</time>
      </trkpt>
      <trkpt lat="48.50819" lon="7.10142">
        <ele>500.04013</ele>
        <time>2022-08-08T17:56:36.000Z</time>
      </trkpt>
      <trkpt lat="48.5082" lon="7.10139">
        <ele>499.74747</ele>
        <time>2022-08-08T17:56:38.000Z</time>
      </trkpt>
      <trkpt lat="48.50822" lon="7.10136">
        <ele>499.47015</ele>
        <time>2022-08-08T17:56:40.000Z</time>
      </trkpt>
      <trkpt lat="48.50824" lon="7.10133">
        <ele>499.17169</ele>
        <time>2022-08-08T17:56:42.000Z</time>
      </trkpt>
      <trkpt lat="48.50826" lon="7.1013">
        <ele>498.81094</ele>
        <time>2022-08-08T17:56:44.000Z</time>
      </trkpt>
      <trkpt lat="48.50827" lon="7.10128">
        <ele>498.48917</ele>
        <time>2022-08-08T17:56:46.000Z</time>
      </trkpt>
      <trkpt lat="48.50829" lon="7.10125">
        <ele>498.17743</ele>
        <time>2022-08-08T17:56:48.000Z</time>
      </trkpt>
      <trkpt lat="48.50832" lon="7.10124">
        <ele>497.92471</ele>
        <time>2022-08-08T17:56:50.000Z</time>
      </trkpt>
      <trkpt lat="48.50835" lon="7.10122">
        <ele>497.69336</ele>
        <time>2022-08-08T17:56:52.000Z</time>
      </trkpt>
      <trkpt lat="48.50837" lon="7.10121">
        <ele>497.45709</ele>
        <time>2022-08-08T17:56:54.000Z</time>
      </trkpt>
      <trkpt lat="48.5084" lon="7.1012">
        <ele>497.22226</ele>
        <time>2022-08-08T17:56:56.000Z</time>
      </trkpt>
      <trkpt lat="48.50842" lon="7.10118">
        <ele>496.93497</ele>
        <time>2022-08-08T17:56:58.000Z</time>
      </trkpt>
      <trkpt lat="48.50845" lon="7.10117">
        <ele>496.6651</ele>
        <time>2022-08-08T17:57:00.000Z</time>
      </trkpt>
      <trkpt lat="48.50847" lon="7.10116">
        <ele>496.36646</ele>
        <time>2022-08-08T17:57:02.000Z</time>
      </trkpt>
      <trkpt lat="48.5085" lon="7.10115">
        <ele>496.09506</ele>
        <time>2022-08-08T17:57:04.000Z</time>
      </trkpt>
      <trkpt lat="48.50852" lon="7.10115">
        <ele>495.83829</ele>
        <time>2022-08-08T17:57:06.000Z</time>
      </trkpt>
      <trkpt lat="48.50855" lon="7.10115">
        <ele>495.61041</ele>
        <time>2022-08-08T17:57:08.000Z</time>
      </trkpt>
      <trkpt lat="48.50858" lon="7.10116">
        <ele>495.35425</ele>
        <time>2022-08-08T17:57:10.000Z</time>
      </trkpt>
      <trkpt lat="48.50861" lon="7.10116">
        <ele>495.12833</ele>
        <time>2022-08-08T17:57:12.000Z</time>
      </trkpt>
      <trkpt lat="48.50864" lon="7.10115">
        <ele>494.95547</ele>
        <time>2022-08-08T17:57:14.000Z</time>
      </trkpt>
      <trkpt lat="48.50866" lon="7.10116">
        <ele>494.79843</ele>
        <time>2022-08-08T17:57:16.000Z</time>
      </trkpt>
      <trkpt lat="48.50869" lon="7.10116">
        <ele>494.67816</ele>
        <time>2022-08-08T17:57:18.000Z</time>
      </trkpt>
      <trkpt lat="48.50872" lon="7.10116">
        <ele>494.56372</ele>
        <time>2022-08-08T17:57:20.000Z</time>
      </trkpt>
      <trkpt lat="48.50875" lon="7.10117">
        <ele>494.4765</ele>
        <time>2022-08-08T17:57:22.000Z</time>
      </trkpt>
      <trkpt lat="48.50877" lon="7.10118">
        <ele>494.42715</ele>
        <time>2022-08-08T17:57:24.000Z</time>
      </trkpt>
      <trkpt lat="48.5088" lon="7.1012">
        <ele>494.34824</ele>
        <time>2022-08-08T17:57:26.000Z</time>
      </trkpt>
      <trkpt lat="48.50883" lon="7.10122">
        <ele>494.25513</ele>
        <time>2022-08-08T17:57:28.000Z</time>
      </trkpt>
      <trkpt lat="48.50885" lon="7.10124">
        <ele>494.13861</ele>
        <time>2022-08-08T17:57:30.000Z</time>
      </trkpt>
      <trkpt lat="48.50888" lon="7.10125">
        <ele>494.0589</ele>
        <time>2022-08-08T17:57:32.000Z</time>
      </trkpt>
      <trkpt lat="48.5089" lon="7.10127">
        <ele>493.98843</ele>
        <time>2022-08-08T17:57:34.000Z</time>
      </trkpt>
      <trkpt lat="48.50892" lon="7.10129">
        <ele>493.97974</ele>
        <time>2022-08-08T17:57:36.000Z</time>
      </trkpt>
      <trkpt lat="48.50895" lon="7.10132">
        <ele>493.99799</ele>
        <time>2022-08-08T17:57:38.000Z</time>
      </trkpt>
      <trkpt lat="48.50897" lon="7.10134">
        <ele>494.05292</ele>
        <time>2022-08-08T17:57:40.000Z</time>
      </trkpt>
      <trkpt lat="48.509" lon="7.10136">
        <ele>494.11212</ele>
        <time>2022-08-08T17:57:42.000Z</time>
      </trkpt>
      <trkpt lat="48.50902" lon="7.10139">
        <ele>494.13208</ele>
        <time>2022-08-08T17:57:44.000Z</time>
      </trkpt>
      <trkpt lat="48.50904" lon="7.10142">
        <ele>494.11929</ele>
        <time>2022-08-08T17:57:46.000Z</time>
      </trkpt>
      <trkpt lat="48.50907" lon="7.10144">
        <ele>494.09943</ele>
        <time>2022-08-08T17:57:48.000Z</time>
      </trkpt>
      <trkpt lat="48.50909" lon="7.10146">
        <ele>494.11676</ele>
        <time>2022-08-08T17:57:50.000Z</time>
      </trkpt>
      <trkpt lat="48.50911" lon="7.10148">
        <ele>494.14496</ele>
        <time>2022-08-08T17:57:52.000Z</time>
      </trkpt>
      <trkpt lat="48.50914" lon="7.10146">
        <ele>494.06976</ele>
        <time>2022-08-08T17:57:54.000Z</time>
      </trkpt>
      <trkpt lat="48.50915" lon="7.10144">
        <ele>493.86646</ele>
        <time>2022-08-08T17:57:56.000Z</time>
      </trkpt>
      <trkpt lat="48.50916" lon="7.10141">
        <ele>493.52777</ele>
        <time>2022-08-08T17:57:58.000Z</time>
      </trkpt>
      <trkpt lat="48.50917" lon="7.10138">
        <ele>493.21387</ele>
        <time>2022-08-08T17:58:00.000Z</time>
      </trkpt>
      <trkpt lat="48.50919" lon="7.10135">
        <ele>492.88681</ele>
        <time>2022-08-08T17:58:02.000Z</time>
      </trkpt>
      <trkpt lat="48.5092" lon="7.10131">
        <ele>492.52887</ele>
        <time>2022-08-08T17:58:04.000Z</time>
      </trkpt>
      <trkpt lat="48.50921" lon="7.10128">
        <ele>492.20865</ele>
        <time>2022-08-08T17:58:06.000Z</time>
      </trkpt>
      <trkpt lat="48.50921" lon="7.10124">
        <ele>491.92017</ele>
        <time>2022-08-08T17:58:08.000Z</time>
      </trkpt>
      <trkpt lat="48.50922" lon="7.1012">
        <ele>491.68506</ele>
        <time>2022-08-08T17:58:10.000Z</time>
      </trkpt>
      <trkpt lat="48.50923" lon="7.10117">
        <ele>491.42789</ele>
        <time>2022-08-08T17:58:12.000Z</time>
      </trkpt>
      <trkpt lat="48.50924" lon="7.10113">
        <ele>491.12555</ele>
        <time>2022-08-08T17:58:14.000Z</time>
      </trkpt>
      <trkpt lat="48.50926" lon="7.1011">
        <ele>490.71866</ele>
        <time>2022-08-08T17:58:16.000Z</time>
      </trkpt>
      <trkpt lat="48.50927" lon="7.10107">
        <ele>490.27887</ele>
        <time>2022-08-08T17:58:18.000Z</time>
      </trkpt>
      <trkpt lat="48.50929" lon="7.10103">
        <ele>489.85675</ele>
        <time>2022-08-08T17:58:20.000Z</time>
      </trkpt>
      <trkpt lat="48.5093" lon="7.101">
        <ele>489.48322</ele>
        <time>2022-08-08T17:58:22.000Z</time>
      </trkpt>
      <trkpt lat="48.5093" lon="7.10096">
        <ele>489.14249</ele>
        <time>2022-08-08T17:58:24.000Z</time>
      </trkpt>
      <trkpt lat="48.50931" lon="7.10092">
        <ele>488.8465</ele>
        <time>2022-08-08T17:58:26.000Z</time>
      </trkpt>
      <trkpt lat="48.50933" lon="7.10089">
        <ele>488.62274</ele>
        <time>2022-08-08T17:58:28.000Z</time>
      </trkpt>
      <trkpt lat="48.50934" lon="7.10086">
        <ele>488.3461</ele>
        <time>2022-08-08T17:58:30.000Z</time>
      </trkpt>
      <trkpt lat="48.50936" lon="7.10082">
        <ele>488.03955</ele>
        <time>2022-08-08T17:58:32.000Z</time>
      </trkpt>
      <trkpt lat="48.50938" lon="7.10079">
        <ele>487.72159</ele>
        <time>2022-08-08T17:58:34.000Z</time>
      </trkpt>
      <trkpt lat="48.50939" lon="7.10075">
        <ele>487.50302</ele>
        <time>2022-08-08T17:58:36.000Z</time>
      </trkpt>
      <trkpt lat="48.5094" lon="7.10071">
        <ele>487.43207</ele>
        <time>2022-08-08T17:58:38.000Z</time>
      </trkpt>
      <trkpt lat="48.50942" lon="7.10068">
        <ele>487.396</ele>
        <time>2022-08-08T17:58:40.000Z</time>
      </trkpt>
      <trkpt lat="48.50943" lon="7.10063">
        <ele>487.30414</ele>
        <time>2022-08-08T17:58:42.000Z</time>
      </trkpt>
      <trkpt lat="48.50944" lon="7.10059">
        <ele>487.15839</ele>
        <time>2022-08-08T17:58:44.000Z</time>
      </trkpt>
      <trkpt lat="48.50945" lon="7.10055">
        <ele>486.98047</ele>
        <time>2022-08-08T17:58:46.000Z</time>
      </trkpt>
      <trkpt lat="48.50946" lon="7.10051">
        <ele>486.75424</ele>
        <time>2022-08-08T17:58:48.000Z</time>
      </trkpt>
      <trkpt lat="48.50948" lon="7.10048">
        <ele>486.55908</ele>
        <time>2022-08-08T17:58:50.000Z</time>
      </trkpt>
      <trkpt lat="48.50948" lon="7.10044">
        <ele>486.33624</ele>
        <time>2022-08-08T17:58:52.000Z</time>
      </trkpt>
      <trkpt lat="48.5095" lon="7.10041">
        <ele>486.1767</ele>
        <time>2022-08-08T17:58:54.000Z</time>
      </trkpt>
      <trkpt lat="48.50951" lon="7.10037">
        <ele>486.01822</ele>
        <time>2022-08-08T17:58:56.000Z</time>
      </trkpt>
      <trkpt lat="48.50952" lon="7.10034">
        <ele>485.8829</ele>
        <time>2022-08-08T17:58:58.000Z</time>
      </trkpt>
      <trkpt lat="48.50952" lon="7.1003">
        <ele>485.68512</ele>
        <time>2022-08-08T17:59:00.000Z</time>
      </trkpt>
      <trkpt lat="48.50953" lon="7.10027">
        <ele>485.44611</ele>
        <time>2022-08-08T17:59:02.000Z</time>
      </trkpt>
      <trkpt lat="48.50954" lon="7.10023">
        <ele>485.14322</ele>
        <time>2022-08-08T17:59:04.000Z</time>
      </trkpt>
      <trkpt lat="48.50955" lon="7.10019">
        <ele>484.76361</ele>
        <time>2022-08-08T17:59:06.000Z</time>
      </trkpt>
      <trkpt lat="48.50957" lon="7.10016">
        <ele>484.29315</ele>
        <time>2022-08-08T17:59:08.000Z</time>
      </trkpt>
      <trkpt lat="48.5096" lon="7.10015">
        <ele>483.81738</ele>
        <time>2022-08-08T17:59:10.000Z</time>
      </trkpt>
      <trkpt lat="48.50963" lon="7.10017">
        <ele>483.30698</ele>
        <time>2022-08-08T17:59:12.000Z</time>
      </trkpt>
      <trkpt lat="48.50965" lon="7.1002">
        <ele>482.83545</ele>
        <time>2022-08-08T17:59:14.000Z</time>
      </trkpt>
      <trkpt lat="48.50966" lon="7.10024">
        <ele>482.38071</ele>
        <time>2022-08-08T17:59:16.000Z</time>
      </trkpt>
      <trkpt lat="48.50968" lon="7.10027">
        <ele>481.88412</ele>
        <time>2022-08-08T17:59:18.000Z</time>
      </trkpt>
      <trkpt lat="48.5097" lon="7.10031">
        <ele>481.31696</ele>
        <time>2022-08-08T17:59:20.000Z</time>
      </trkpt>
      <trkpt lat="48.50971" lon="7.10034">
        <ele>480.78741</ele>
        <time>2022-08-08T17:59:22.000Z</time>
      </trkpt>
      <trkpt lat="48.50972" lon="7.10038">
        <ele>480.33765</ele>
        <time>2022-08-08T17:59:24.000Z</time>
      </trkpt>
      <trkpt lat="48.50973" lon="7.10041">
        <ele>479.91718</ele>
        <time>2022-08-08T17:59:26.000Z</time>
      </trkpt>
      <trkpt lat="48.50975" lon="7.10045">
        <ele>479.57648</ele>
        <time>2022-08-08T17:59:28.000Z</time>
      </trkpt>
      <trkpt lat="48.50976" lon="7.10048">
        <ele>479.1857</ele>
        <time>2022-08-08T17:59:30.000Z</time>
      </trkpt>
      <trkpt lat="48.50978" lon="7.10051">
        <ele>478.80038</ele>
        <time>2022-08-08T17:59:32.000Z</time>
      </trkpt>
      <trkpt lat="48.5098" lon="7.10053">
        <ele>478.35361</ele>
        <time>2022-08-08T17:59:34.000Z</time>
      </trkpt>
      <trkpt lat="48.50981" lon="7.10056">
        <ele>477.93149</ele>
        <time>2022-08-08T17:59:36.000Z</time>
      </trkpt>
      <trkpt lat="48.50983" lon="7.10059">
        <ele>477.44254</ele>
        <time>2022-08-08T17:59:38.000Z</time>
      </trkpt>
      <trkpt lat="48.50985" lon="7.10061">
        <ele>476.96259</ele>
        <time>2022-08-08T17:59:40.000Z</time>
      </trkpt>
      <trkpt lat="48.50987" lon="7.10059">
        <ele>476.47174</ele>
        <time>2022-08-08T17:59:42.000Z</time>
      </trkpt>
      <trkpt lat="48.50988" lon="7.10056">
        <ele>476.11929</ele>
        <time>2022-08-08T17:59:44.000Z</time>
      </trkpt>
      <trkpt lat="48.50988" lon="7.10051">
        <ele>475.69409</ele>
        <time>2022-08-08T17:59:46.000Z</time>
      </trkpt>
      <trkpt lat="48.50987" lon="7.10047">
        <ele>475.26642</ele>
        <time>2022-08-08T17:59:48.000Z</time>
      </trkpt>
      <trkpt lat="48.50985" lon="7.10044">
        <ele>474.90448</ele>
        <time>2022-08-08T17:59:50.000Z</time>
      </trkpt>
      <trkpt lat="48.50984" lon="7.10041">
        <ele>474.61395</ele>
        <time>2022-08-08T17:59:52.000Z</time>
      </trkpt>
      <trkpt lat="48.50983" lon="7.10037">
        <ele>474.32861</ele>
        <time>2022-08-08T17:59:54.000Z</time>
      </trkpt>
      <trkpt lat="48.50981" lon="7.10034">
        <ele>474.03491</ele>
        <time>2022-08-08T17:59:56.000Z</time>
      </trkpt>
      <trkpt lat="48.50979" lon="7.10032">
        <ele>473.75113</ele>
        <time>2022-08-08T17:59:58.000Z</time>
      </trkpt>
      <trkpt lat="48.50976" lon="7.1003">
        <ele>473.45709</ele>
        <time>2022-08-08T18:00:00.000Z</time>
      </trkpt>
      <trkpt lat="48.50976" lon="7.10026">
        <ele>473.1922</ele>
        <time>2022-08-08T18:00:02.000Z</time>
      </trkpt>
      <trkpt lat="48.50978" lon="7.10023">
        <ele>472.88574</ele>
        <time>2022-08-08T18:00:04.000Z</time>
      </trkpt>
      <trkpt lat="48.50979" lon="7.1002">
        <ele>472.56738</ele>
        <time>2022-08-08T18:00:16.000Z</time>
      </trkpt>
      <trkpt lat="48.5098" lon="7.10024">
        <ele>472.21542</ele>
        <time>2022-08-08T18:00:21.000Z</time>
      </trkpt>
      <trkpt lat="48.50979" lon="7.10021">
        <ele>471.87427</ele>
        <time>2022-08-08T18:00:24.000Z</time>
      </trkpt>
      <trkpt lat="48.50977" lon="7.10022">
        <ele>471.54257</ele>
        <time>2022-08-08T18:00:30.000Z</time>
      </trkpt>
      <trkpt lat="48.50977" lon="7.10025">
        <ele>471.25723</ele>
        <time>2022-08-08T18:00:34.000Z</time>
      </trkpt>
      <trkpt lat="48.50976" lon="7.10028">
        <ele>471.06332</ele>
        <time>2022-08-08T18:00:35.000Z</time>
      </trkpt>
      <trkpt lat="48.50974" lon="7.10031">
        <ele>471.05533</ele>
        <time>2022-08-08T18:00:42.000Z</time>
      </trkpt>
      <trkpt lat="48.50976" lon="7.10032">
        <ele>471.13312</ele>
        <time>2022-08-08T18:00:45.000Z</time>
      </trkpt>
      <trkpt lat="48.50973" lon="7.10035">
        <ele>471.22153</ele>
        <time>2022-08-08T18:00:48.000Z</time>
      </trkpt>
      <trkpt lat="48.50972" lon="7.10036">
        <ele>471.21152</ele>
        <time>2022-08-08T18:00:49.000Z</time>
      </trkpt>
      <trkpt lat="48.50975" lon="7.10034">
        <ele>471.32031</ele>
        <time>2022-08-08T18:00:50.000Z</time>
      </trkpt>
      <trkpt lat="48.50977" lon="7.10034">
        <ele>471.48273</ele>
        <time>2022-08-08T18:00:52.000Z</time>
      </trkpt>
      <trkpt lat="48.50975" lon="7.10031">
        <ele>471.65405</ele>
        <time>2022-08-08T18:00:53.000Z</time>
      </trkpt>
      <trkpt lat="48.50982" lon="7.10033">
        <ele>471.77411</ele>
        <time>2022-08-08T18:00:56.000Z</time>
      </trkpt>
      <trkpt lat="48.5098" lon="7.10035">
        <ele>471.5267</ele>
        <time>2022-08-08T18:01:03.000Z</time>
      </trkpt>
      <trkpt lat="48.50977" lon="7.10037">
        <ele>471.35977</ele>
        <time>2022-08-08T18:01:05.000Z</time>
      </trkpt>
      <trkpt lat="48.5098" lon="7.10039">
        <ele>470.93756</ele>
        <time>2022-08-08T18:01:07.000Z</time>
      </trkpt>
      <trkpt lat="48.5098" lon="7.10041">
        <ele>470.5643</ele>
        <time>2022-08-08T18:01:16.000Z</time>
      </trkpt>
      <trkpt lat="48.50983" lon="7.10042">
        <ele>470.25824</ele>
        <time>2022-08-08T18:01:17.000Z</time>
      </trkpt>
      <trkpt lat="48.50984" lon="7.10041">
        <ele>470.03671</ele>
        <time>2022-08-08T18:01:19.000Z</time>
      </trkpt>
      <trkpt lat="48.50987" lon="7.10041">
        <ele>469.76288</ele>
        <time>2022-08-08T18:01:22.000Z</time>
      </trkpt>
      <trkpt lat="48.50989" lon="7.10041">
        <ele>469.45013</ele>
        <time>2022-08-08T18:01:24.000Z</time>
      </trkpt>
      <trkpt lat="48.50991" lon="7.10044">
        <ele>469.14276</ele>
        <time>2022-08-08T18:01:26.000Z</time>
      </trkpt>
      <trkpt lat="48.50989" lon="7.10046">
        <ele>468.89624</ele>
        <time>2022-08-08T18:01:29.000Z</time>
      </trkpt>
      <trkpt lat="48.50987" lon="7.10046">
        <ele>468.66641</ele>
        <time>2022-08-08T18:01:31.000Z</time>
      </trkpt>
      <trkpt lat="48.50985" lon="7.10049">
        <ele>468.3707</ele>
        <time>2022-08-08T18:01:33.000Z</time>
      </trkpt>
      <trkpt lat="48.50987" lon="7.10053">
        <ele>467.98868</ele>
        <time>2022-08-08T18:01:34.000Z</time>
      </trkpt>
      <trkpt lat="48.50985" lon="7.10056">
        <ele>467.55035</ele>
        <time>2022-08-08T18:01:35.000Z</time>
      </trkpt>
      <trkpt lat="48.50982" lon="7.10054">
        <ele>467.13153</ele>
        <time>2022-08-08T18:01:36.000Z</time>
      </trkpt>
      <trkpt lat="48.50982" lon="7.10049">
        <ele>466.68033</ele>
        <time>2022-08-08T18:01:37.000Z</time>
      </trkpt>
      <trkpt lat="48.50984" lon="7.10047">
        <ele>466.15631</ele>
        <time>2022-08-08T18:01:38.000Z</time>
      </trkpt>
      <trkpt lat="48.50985" lon="7.10049">
        <ele>465.47818</ele>
        <time>2022-08-08T18:01:39.000Z</time>
      </trkpt>
      <trkpt lat="48.50986" lon="7.10051">
        <ele>464.7912</ele>
        <time>2022-08-08T18:01:41.000Z</time>
      </trkpt>
      <trkpt lat="48.50985" lon="7.10049">
        <ele>464.2608</ele>
        <time>2022-08-08T18:01:44.000Z</time>
      </trkpt>
      <trkpt lat="48.50983" lon="7.10047">
        <ele>464.1347</ele>
        <time>2022-08-08T18:01:47.000Z</time>
      </trkpt>
      <trkpt lat="48.50981" lon="7.10045">
        <ele>464.04614</ele>
        <time>2022-08-08T18:01:48.000Z</time>
      </trkpt>
      <trkpt lat="48.50979" lon="7.10044">
        <ele>464.11508</ele>
        <time>2022-08-08T18:01:51.000Z</time>
      </trkpt>
      <trkpt lat="48.50981" lon="7.1004">
        <ele>464.15128</ele>
        <time>2022-08-08T18:02:07.000Z</time>
      </trkpt>
      <trkpt lat="48.5098" lon="7.10037">
        <ele>464.12262</ele>
        <time>2022-08-08T18:02:09.000Z</time>
      </trkpt>
      <trkpt lat="48.50982" lon="7.10034">
        <ele>464.01749</ele>
        <time>2022-08-08T18:02:19.000Z</time>
      </trkpt>
      <trkpt lat="48.50982" lon="7.10031">
        <ele>463.94434</ele>
        <time>2022-08-08T18:02:20.000Z</time>
      </trkpt>
      <trkpt lat="48.50979" lon="7.10029">
        <ele>463.96207</ele>
        <time>2022-08-08T18:02:22.000Z</time>
      </trkpt>
      <trkpt lat="48.50978" lon="7.10028">
        <ele>463.97818</ele>
        <time>2022-08-08T18:02:24.000Z</time>
      </trkpt>
      <trkpt lat="48.50976" lon="7.10028">
        <ele>464.05411</ele>
        <time>2022-08-08T18:02:27.000Z</time>
      </trkpt>
      <trkpt lat="48.50977" lon="7.10026">
        <ele>463.8183</ele>
        <time>2022-08-08T18:02:36.000Z</time>
      </trkpt>
      <trkpt lat="48.50978" lon="7.10023">
        <ele>463.56558</ele>
        <time>2022-08-08T18:02:39.000Z</time>
      </trkpt>
      <trkpt lat="48.5098" lon="7.10022">
        <ele>463.25937</ele>
        <time>2022-08-08T18:02:41.000Z</time>
      </trkpt>
      <trkpt lat="48.50981" lon="7.10021">
        <ele>462.95111</ele>
        <time>2022-08-08T18:02:43.000Z</time>
      </trkpt>
      <trkpt lat="48.50982" lon="7.10018">
        <ele>462.58463</ele>
        <time>2022-08-08T18:02:45.000Z</time>
      </trkpt>
      <trkpt lat="48.50985" lon="7.10018">
        <ele>462.27213</ele>
        <time>2022-08-08T18:02:48.000Z</time>
      </trkpt>
      <trkpt lat="48.50987" lon="7.10019">
        <ele>462.09326</ele>
        <time>2022-08-08T18:02:52.000Z</time>
      </trkpt>
      <trkpt lat="48.5099" lon="7.10018">
        <ele>462.03809</ele>
        <time>2022-08-08T18:02:56.000Z</time>
      </trkpt>
      <trkpt lat="48.5099" lon="7.10013">
        <ele>461.9776</ele>
        <time>2022-08-08T18:02:57.000Z</time>
      </trkpt>
      <trkpt lat="48.50989" lon="7.10017">
        <ele>461.70865</ele>
        <time>2022-08-08T18:02:59.000Z</time>
      </trkpt>
      <trkpt lat="48.50989" lon="7.10025">
        <ele>461.68604</ele>
        <time>2022-08-08T18:03:00.000Z</time>
      </trkpt>
      <trkpt lat="48.50986" lon="7.10027">
        <ele>461.79181</ele>
        <time>2022-08-08T18:03:01.000Z</time>
      </trkpt>
      <trkpt lat="48.50982" lon="7.10037">
        <ele>461.94598</ele>
        <time>2022-08-08T18:03:13.000Z</time>
        <extensions>
          <visugpx:TrkExtension xmlns:visugpx="https://www.visugpx.com/editgpx/">
            <visugpx:node>1</visugpx:node>
            </visugpx:TrkExtension>
        </extensions>
      </trkpt>
    </trkseg>
  </trk>
  <trk>
    <name><![CDATA[Ranch du Donon - 10,5km]]></name>
    <extensions>
      <line xmlns="http://www.topografix.com/GPX/gpx_style/0/2">
        <color>00FF00</color>
        <opacity>1</opacity>
        <width>4</width>
      </line>
    </extensions>
    <trkseg>
      <trkpt lat="48.51068" lon="7.09884">
        <ele>449.24203</ele>
        <time>2023-02-27T12:50:13.000Z</time>
      </trkpt>
      <trkpt lat="48.51073" lon="7.09859">
        <ele>446.75558</ele>
        <time>2023-02-27T12:50:13.000Z</time>
      </trkpt>
      <trkpt lat="48.51074" lon="7.09852">
        <ele>446.05739</ele>
        <time>2023-02-27T12:50:13.000Z</time>
      </trkpt>
      <trkpt lat="48.5106" lon="7.09852">
        <ele>447.01508</ele>
        <time>2023-02-27T12:50:13.000Z</time>
      </trkpt>
      <trkpt lat="48.51052" lon="7.09862">
        <ele>448.49738</ele>
        <time>2023-02-27T12:50:13.000Z</time>
      </trkpt>
      <trkpt lat="48.51043" lon="7.0988">
        <ele>450.78762</ele>
        <time>2023-02-27T12:50:13.000Z</time>
      </trkpt>
      <trkpt lat="48.51032" lon="7.09898">
        <ele>453.18684</ele>
        <time>2023-02-27T12:50:13.000Z</time>
      </trkpt>
      <trkpt lat="48.50999" lon="7.0994">
        <ele>459.50814</ele>
        <time>2023-02-27T12:50:13.000Z</time>
      </trkpt>
      <trkpt lat="48.50992" lon="7.09948">
        <ele>460.79052</ele>
        <time>2023-02-27T12:50:13.000Z</time>
      </trkpt>
      <trkpt lat="48.50982" lon="7.0995">
        <ele>462.07335</ele>
        <time>2023-02-27T12:50:13.000Z</time>
      </trkpt>
      <trkpt lat="48.5097" lon="7.09953">
        <ele>463.61716</ele>
        <time>2023-02-27T12:50:13.000Z</time>
      </trkpt>
      <trkpt lat="48.50956" lon="7.0996">
        <ele>465.88347</ele>
        <time>2023-02-27T12:50:13.000Z</time>
      </trkpt>
      <trkpt lat="48.50944" lon="7.0997">
        <ele>468.21007</ele>
        <time>2023-02-27T12:50:13.000Z</time>
      </trkpt>
      <trkpt lat="48.50935" lon="7.09985">
        <ele>470.68419</ele>
        <time>2023-02-27T12:50:13.000Z</time>
      </trkpt>
      <trkpt lat="48.50909" lon="7.1002">
        <ele>476.70905</ele>
        <time>2023-02-27T12:50:13.000Z</time>
      </trkpt>
      <trkpt lat="48.5089" lon="7.10044">
        <ele>480.66427</ele>
        <time>2023-02-27T12:50:13.000Z</time>
      </trkpt>
      <trkpt lat="48.50871" lon="7.10065">
        <ele>483.82261</ele>
        <time>2023-02-27T12:50:13.000Z</time>
      </trkpt>
      <trkpt lat="48.50856" lon="7.10088">
        <ele>486.20561</ele>
        <time>2023-02-27T12:50:13.000Z</time>
      </trkpt>
      <trkpt lat="48.50833" lon="7.1012">
        <ele>488.93969</ele>
        <time>2023-02-27T12:50:13.000Z</time>
      </trkpt>
      <trkpt lat="48.50823" lon="7.10139">
        <ele>490.46946</ele>
        <time>2023-02-27T12:50:13.000Z</time>
      </trkpt>
      <trkpt lat="48.50813" lon="7.10168">
        <ele>492.63326</ele>
        <time>2023-02-27T12:50:13.000Z</time>
      </trkpt>
      <trkpt lat="48.50805" lon="7.10207">
        <ele>494.93106</ele>
        <time>2023-02-27T12:50:13.000Z</time>
      </trkpt>
      <trkpt lat="48.50788" lon="7.10302">
        <ele>499.61236</ele>
        <time>2023-02-27T12:50:13.000Z</time>
      </trkpt>
      <trkpt lat="48.50771" lon="7.10402">
        <ele>505.32396</ele>
        <time>2023-02-27T12:50:13.000Z</time>
      </trkpt>
      <trkpt lat="48.50771" lon="7.10416">
        <ele>506.18875</ele>
        <time>2023-02-27T12:50:13.000Z</time>
      </trkpt>
      <trkpt lat="48.50775" lon="7.10413">
        <ele>505.55109</ele>
        <time>2023-02-27T12:50:13.000Z</time>
      </trkpt>
      <trkpt lat="48.50782" lon="7.1041">
        <ele>504.67014</ele>
        <time>2023-02-27T12:50:13.000Z</time>
      </trkpt>
      <trkpt lat="48.50789" lon="7.10408">
        <ele>503.87307</ele>
        <time>2023-02-27T12:50:13.000Z</time>
      </trkpt>
      <trkpt lat="48.50795" lon="7.10407">
        <ele>503.26584</ele>
        <time>2023-02-27T12:50:13.000Z</time>
      </trkpt>
      <trkpt lat="48.50789" lon="7.10408">
        <ele>503.87307</ele>
        <time>2023-02-27T12:50:13.000Z</time>
      </trkpt>
      <trkpt lat="48.50782" lon="7.1041">
        <ele>504.67014</ele>
        <time>2023-02-27T12:50:13.000Z</time>
      </trkpt>
      <trkpt lat="48.50775" lon="7.10413">
        <ele>505.55109</ele>
        <time>2023-02-27T12:50:13.000Z</time>
      </trkpt>
      <trkpt lat="48.50771" lon="7.10416">
        <ele>506.18875</ele>
        <time>2023-02-27T12:50:13.000Z</time>
      </trkpt>
      <trkpt lat="48.50743" lon="7.10436">
        <ele>510.15351</ele>
        <time>2023-02-27T12:50:13.000Z</time>
      </trkpt>
      <trkpt lat="48.50695" lon="7.10474">
        <ele>516.07568</ele>
        <time>2023-02-27T12:50:13.000Z</time>
      </trkpt>
      <trkpt lat="48.50647" lon="7.1051">
        <ele>520.70438</ele>
        <time>2023-02-27T12:50:13.000Z</time>
      </trkpt>
      <trkpt lat="48.50639" lon="7.10518">
        <ele>521.96942</ele>
        <time>2023-02-27T12:50:13.000Z</time>
      </trkpt>
      <trkpt lat="48.50613" lon="7.10517">
        <ele>523.04359</ele>
        <time>2023-02-27T12:50:13.000Z</time>
      </trkpt>
      <trkpt lat="48.50597" lon="7.10517">
        <ele>523.81018</ele>
        <time>2023-02-27T12:50:13.000Z</time>
      </trkpt>
      <trkpt lat="48.50585" lon="7.1052">
        <ele>524.60422</ele>
        <time>2023-02-27T12:50:13.000Z</time>
      </trkpt>
      <trkpt lat="48.50571" lon="7.10527">
        <ele>525.25143</ele>
        <time>2023-02-27T12:50:13.000Z</time>
      </trkpt>
      <trkpt lat="48.50558" lon="7.10537">
        <ele>525.8154</ele>
        <time>2023-02-27T12:50:13.000Z</time>
      </trkpt>
      <trkpt lat="48.50533" lon="7.10565">
        <ele>528.54537</ele>
        <time>2023-02-27T12:50:13.000Z</time>
      </trkpt>
      <trkpt lat="48.5052" lon="7.1058">
        <ele>530.56689</ele>
        <time>2023-02-27T12:50:13.000Z</time>
      </trkpt>
      <trkpt lat="48.50512" lon="7.10586">
        <ele>531.47409</ele>
        <time>2023-02-27T12:50:13.000Z</time>
      </trkpt>
      <trkpt lat="48.50504" lon="7.1059">
        <ele>532.31298</ele>
        <time>2023-02-27T12:50:13.000Z</time>
      </trkpt>
      <trkpt lat="48.50452" lon="7.10597">
        <ele>535.93019</ele>
        <time>2023-02-27T12:50:13.000Z</time>
      </trkpt>
      <trkpt lat="48.50436" lon="7.10598">
        <ele>536.47352</ele>
        <time>2023-02-27T12:50:13.000Z</time>
      </trkpt>
      <trkpt lat="48.50424" lon="7.10596">
        <ele>536.42876</ele>
        <time>2023-02-27T12:50:13.000Z</time>
      </trkpt>
      <trkpt lat="48.50414" lon="7.10592">
        <ele>536.02752</ele>
        <time>2023-02-27T12:50:13.000Z</time>
      </trkpt>
      <trkpt lat="48.50397" lon="7.10584">
        <ele>535.00026</ele>
        <time>2023-02-27T12:50:13.000Z</time>
      </trkpt>
      <trkpt lat="48.50384" lon="7.10577">
        <ele>533.91769</ele>
        <time>2023-02-27T12:50:13.000Z</time>
      </trkpt>
      <trkpt lat="48.50374" lon="7.10572">
        <ele>533.11556</ele>
        <time>2023-02-27T12:50:13.000Z</time>
      </trkpt>
      <trkpt lat="48.50364" lon="7.10563">
        <ele>532.17376</ele>
        <time>2023-02-27T12:50:13.000Z</time>
      </trkpt>
      <trkpt lat="48.50338" lon="7.10539">
        <ele>529.26262</ele>
        <time>2023-02-27T12:50:13.000Z</time>
      </trkpt>
      <trkpt lat="48.50314" lon="7.10522">
        <ele>527.08776</ele>
        <time>2023-02-27T12:50:13.000Z</time>
      </trkpt>
      <trkpt lat="48.50306" lon="7.10519">
        <ele>526.35564</ele>
        <time>2023-02-27T12:50:13.000Z</time>
      </trkpt>
      <trkpt lat="48.50299" lon="7.10518">
        <ele>525.54527</ele>
        <time>2023-02-27T12:50:13.000Z</time>
      </trkpt>
      <trkpt lat="48.50292" lon="7.10525">
        <ele>524.36051</ele>
        <time>2023-02-27T12:50:13.000Z</time>
      </trkpt>
      <trkpt lat="48.50292" lon="7.10539">
        <ele>523.74337</ele>
        <time>2023-02-27T12:50:13.000Z</time>
      </trkpt>
      <trkpt lat="48.50298" lon="7.1058">
        <ele>523.57878</ele>
        <time>2023-02-27T12:50:13.000Z</time>
      </trkpt>
      <trkpt lat="48.50306" lon="7.1062">
        <ele>525.42166</ele>
        <time>2023-02-27T12:50:13.000Z</time>
      </trkpt>
      <trkpt lat="48.50312" lon="7.1064">
        <ele>526.60818</ele>
        <time>2023-02-27T12:50:13.000Z</time>
      </trkpt>
      <trkpt lat="48.50317" lon="7.10663">
        <ele>527.95177</ele>
        <time>2023-02-27T12:50:13.000Z</time>
      </trkpt>
      <trkpt lat="48.50317" lon="7.10681">
        <ele>529.02489</ele>
        <time>2023-02-27T12:50:13.000Z</time>
      </trkpt>
      <trkpt lat="48.50312" lon="7.10694">
        <ele>530.26804</ele>
        <time>2023-02-27T12:50:13.000Z</time>
      </trkpt>
      <trkpt lat="48.50304" lon="7.10706">
        <ele>532.49637</ele>
        <time>2023-02-27T12:50:13.000Z</time>
      </trkpt>
      <trkpt lat="48.503" lon="7.10717">
        <ele>534.4573</ele>
        <time>2023-02-27T12:50:13.000Z</time>
      </trkpt>
      <trkpt lat="48.503" lon="7.10734">
        <ele>536.66989</ele>
        <time>2023-02-27T12:50:13.000Z</time>
      </trkpt>
      <trkpt lat="48.50302" lon="7.10756">
        <ele>539.29683</ele>
        <time>2023-02-27T12:50:13.000Z</time>
      </trkpt>
      <trkpt lat="48.50305" lon="7.10774">
        <ele>540.61369</ele>
        <time>2023-02-27T12:50:13.000Z</time>
      </trkpt>
      <trkpt lat="48.5031" lon="7.10788">
        <ele>540.81157</ele>
        <time>2023-02-27T12:50:13.000Z</time>
      </trkpt>
      <trkpt lat="48.50317" lon="7.10803">
        <ele>541.03566</ele>
        <time>2023-02-27T12:50:13.000Z</time>
      </trkpt>
      <trkpt lat="48.50322" lon="7.10818">
        <ele>541.8773</ele>
        <time>2023-02-27T12:50:13.000Z</time>
      </trkpt>
      <trkpt lat="48.50324" lon="7.10834">
        <ele>543.65856</ele>
        <time>2023-02-27T12:50:13.000Z</time>
      </trkpt>
      <trkpt lat="48.50321" lon="7.10851">
        <ele>546.58273</ele>
        <time>2023-02-27T12:50:13.000Z</time>
      </trkpt>
      <trkpt lat="48.50317" lon="7.10858">
        <ele>548.61572</ele>
        <time>2023-02-27T12:50:13.000Z</time>
      </trkpt>
      <trkpt lat="48.50301" lon="7.10883">
        <ele>556.8456</ele>
        <time>2023-02-27T12:50:13.000Z</time>
      </trkpt>
      <trkpt lat="48.50293" lon="7.10904">
        <ele>561.88958</ele>
        <time>2023-02-27T12:50:13.000Z</time>
      </trkpt>
      <trkpt lat="48.50289" lon="7.10934">
        <ele>566.78485</ele>
        <time>2023-02-27T12:50:13.000Z</time>
      </trkpt>
      <trkpt lat="48.50281" lon="7.10953">
        <ele>569.39102</ele>
        <time>2023-02-27T12:50:13.000Z</time>
      </trkpt>
      <trkpt lat="48.50272" lon="7.10974">
        <ele>571.06469</ele>
        <time>2023-02-27T12:50:13.000Z</time>
      </trkpt>
      <trkpt lat="48.50265" lon="7.10997">
        <ele>571.72602</ele>
        <time>2023-02-27T12:50:13.000Z</time>
      </trkpt>
      <trkpt lat="48.50264" lon="7.11011">
        <ele>572.16485</ele>
        <time>2023-02-27T12:50:13.000Z</time>
      </trkpt>
      <trkpt lat="48.50276" lon="7.11038">
        <ele>574.04835</ele>
        <time>2023-02-27T12:50:13.000Z</time>
      </trkpt>
      <trkpt lat="48.50289" lon="7.1108">
        <ele>577.37788</ele>
        <time>2023-02-27T12:50:13.000Z</time>
      </trkpt>
      <trkpt lat="48.50324" lon="7.11159">
        <ele>584.00903</ele>
        <time>2023-02-27T12:50:13.000Z</time>
      </trkpt>
      <trkpt lat="48.50357" lon="7.11206">
        <ele>590.6595</ele>
        <time>2023-02-27T12:50:13.000Z</time>
      </trkpt>
      <trkpt lat="48.5039" lon="7.11264">
        <ele>595.8895</ele>
        <time>2023-02-27T12:50:13.000Z</time>
      </trkpt>
      <trkpt lat="48.50391" lon="7.1129">
        <ele>596.44094</ele>
        <time>2023-02-27T12:50:13.000Z</time>
      </trkpt>
      <trkpt lat="48.5041" lon="7.11334">
        <ele>597.42207</ele>
        <time>2023-02-27T12:50:13.000Z</time>
      </trkpt>
      <trkpt lat="48.50424" lon="7.1136">
        <ele>598.81002</ele>
        <time>2023-02-27T12:50:13.000Z</time>
      </trkpt>
      <trkpt lat="48.50408" lon="7.11391">
        <ele>600.99495</ele>
        <time>2023-02-27T12:50:13.000Z</time>
      </trkpt>
      <trkpt lat="48.50393" lon="7.11432">
        <ele>603.70494</ele>
        <time>2023-02-27T12:50:13.000Z</time>
      </trkpt>
      <trkpt lat="48.50383" lon="7.11467">
        <ele>605.6035</ele>
        <time>2023-02-27T12:50:13.000Z</time>
      </trkpt>
      <trkpt lat="48.50376" lon="7.11504">
        <ele>607.66412</ele>
        <time>2023-02-27T12:50:13.000Z</time>
      </trkpt>
      <trkpt lat="48.50375" lon="7.11517">
        <ele>608.51557</ele>
        <time>2023-02-27T12:50:13.000Z</time>
      </trkpt>
      <trkpt lat="48.50374" lon="7.11537">
        <ele>609.93939</ele>
        <time>2023-02-27T12:50:13.000Z</time>
      </trkpt>
      <trkpt lat="48.50372" lon="7.11574">
        <ele>612.29338</ele>
        <time>2023-02-27T12:50:13.000Z</time>
      </trkpt>
      <trkpt lat="48.50374" lon="7.11607">
        <ele>613.91007</ele>
        <time>2023-02-27T12:50:13.000Z</time>
      </trkpt>
      <trkpt lat="48.50385" lon="7.11677">
        <ele>617.64465</ele>
        <time>2023-02-27T12:50:13.000Z</time>
      </trkpt>
      <trkpt lat="48.50388" lon="7.11699">
        <ele>618.9192</ele>
        <time>2023-02-27T12:50:13.000Z</time>
      </trkpt>
      <trkpt lat="48.50388" lon="7.11712">
        <ele>619.60671</ele>
        <time>2023-02-27T12:50:13.000Z</time>
      </trkpt>
      <trkpt lat="48.50392" lon="7.11872">
        <ele>630.37644</ele>
        <time>2023-02-27T12:50:13.000Z</time>
      </trkpt>
      <trkpt lat="48.50395" lon="7.11907">
        <ele>632.78005</ele>
        <time>2023-02-27T12:50:13.000Z</time>
      </trkpt>
      <trkpt lat="48.5039" lon="7.11935">
        <ele>634.58157</ele>
        <time>2023-02-27T12:50:13.000Z</time>
      </trkpt>
      <trkpt lat="48.50382" lon="7.11972">
        <ele>637.04759</ele>
        <time>2023-02-27T12:50:13.000Z</time>
      </trkpt>
      <trkpt lat="48.50391" lon="7.11978">
        <ele>637.44617</ele>
        <time>2023-02-27T12:50:13.000Z</time>
      </trkpt>
      <trkpt lat="48.50358" lon="7.12084">
        <ele>644.96795</ele>
        <time>2023-02-27T12:50:13.000Z</time>
      </trkpt>
      <trkpt lat="48.50345" lon="7.12118">
        <ele>647.5034</ele>
        <time>2023-02-27T12:50:13.000Z</time>
      </trkpt>
      <trkpt lat="48.5034" lon="7.12128">
        <ele>648.18677</ele>
        <time>2023-02-27T12:50:13.000Z</time>
      </trkpt>
      <trkpt lat="48.50296" lon="7.12206">
        <ele>654.68731</ele>
        <time>2023-02-27T12:50:13.000Z</time>
      </trkpt>
      <trkpt lat="48.50287" lon="7.12227">
        <ele>656.56107</ele>
        <time>2023-02-27T12:50:13.000Z</time>
      </trkpt>
      <trkpt lat="48.50282" lon="7.12244">
        <ele>658.06989</ele>
        <time>2023-02-27T12:50:13.000Z</time>
      </trkpt>
      <trkpt lat="48.5024" lon="7.1245">
        <ele>676.68804</ele>
        <time>2023-02-27T12:50:13.000Z</time>
      </trkpt>
      <trkpt lat="48.50235" lon="7.12465">
        <ele>678.41509</ele>
        <time>2023-02-27T12:50:13.000Z</time>
      </trkpt>
      <trkpt lat="48.50229" lon="7.12475">
        <ele>679.53164</ele>
        <time>2023-02-27T12:50:13.000Z</time>
      </trkpt>
      <trkpt lat="48.50204" lon="7.12484">
        <ele>680.27748</ele>
        <time>2023-02-27T12:50:13.000Z</time>
      </trkpt>
      <trkpt lat="48.50198" lon="7.12486">
        <ele>680.35677</ele>
        <time>2023-02-27T12:50:13.000Z</time>
      </trkpt>
      <trkpt lat="48.50198" lon="7.12574">
        <ele>687.35712</ele>
        <time>2023-02-27T12:50:13.000Z</time>
      </trkpt>
      <trkpt lat="48.502" lon="7.12634">
        <ele>691.09224</ele>
        <time>2023-02-27T12:50:13.000Z</time>
      </trkpt>
      <trkpt lat="48.50204" lon="7.1271">
        <ele>695.98587</ele>
        <time>2023-02-27T12:50:13.000Z</time>
      </trkpt>
      <trkpt lat="48.5021" lon="7.12737">
        <ele>697.54939</ele>
        <time>2023-02-27T12:50:13.000Z</time>
      </trkpt>
      <trkpt lat="48.50206" lon="7.12767">
        <ele>699.317</ele>
        <time>2023-02-27T12:50:13.000Z</time>
      </trkpt>
      <trkpt lat="48.50201" lon="7.12794">
        <ele>700.76891</ele>
        <time>2023-02-27T12:50:13.000Z</time>
      </trkpt>
      <trkpt lat="48.50202" lon="7.1288">
        <ele>703.20584</ele>
        <time>2023-02-27T12:50:13.000Z</time>
      </trkpt>
      <trkpt lat="48.50252" lon="7.12945">
        <ele>704.51171</ele>
        <time>2023-02-27T12:50:13.000Z</time>
      </trkpt>
      <trkpt lat="48.50267" lon="7.13017">
        <ele>709.88778</ele>
        <time>2023-02-27T12:50:13.000Z</time>
      </trkpt>
      <trkpt lat="48.5027" lon="7.13036">
        <ele>711.35117</ele>
        <time>2023-02-27T12:50:13.000Z</time>
      </trkpt>
      <trkpt lat="48.50272" lon="7.13045">
        <ele>711.89936</ele>
        <time>2023-02-27T12:50:13.000Z</time>
      </trkpt>
      <trkpt lat="48.50274" lon="7.13056">
        <ele>712.42493</ele>
        <time>2023-02-27T12:50:13.000Z</time>
      </trkpt>
      <trkpt lat="48.50276" lon="7.13067">
        <ele>712.92864</ele>
        <time>2023-02-27T12:50:13.000Z</time>
      </trkpt>
      <trkpt lat="48.50277" lon="7.13078">
        <ele>713.42284</ele>
        <time>2023-02-27T12:50:13.000Z</time>
      </trkpt>
      <trkpt lat="48.50279" lon="7.13088">
        <ele>713.85841</ele>
        <time>2023-02-27T12:50:13.000Z</time>
      </trkpt>
      <trkpt lat="48.5028" lon="7.13098">
        <ele>714.25475</ele>
        <time>2023-02-27T12:50:13.000Z</time>
      </trkpt>
      <trkpt lat="48.50282" lon="7.13108">
        <ele>714.68869</ele>
        <time>2023-02-27T12:50:13.000Z</time>
      </trkpt>
      <trkpt lat="48.50283" lon="7.13115">
        <ele>715.01667</ele>
        <time>2023-02-27T12:50:13.000Z</time>
      </trkpt>
      <trkpt lat="48.50283" lon="7.13124">
        <ele>715.46022</ele>
        <time>2023-02-27T12:50:13.000Z</time>
      </trkpt>
      <trkpt lat="48.50283" lon="7.13132">
        <ele>715.86123</ele>
        <time>2023-02-27T12:50:13.000Z</time>
      </trkpt>
      <trkpt lat="48.50281" lon="7.13147">
        <ele>716.69367</ele>
        <time>2023-02-27T12:50:13.000Z</time>
      </trkpt>
      <trkpt lat="48.50278" lon="7.13156">
        <ele>717.22427</ele>
        <time>2023-02-27T12:50:13.000Z</time>
      </trkpt>
      <trkpt lat="48.50277" lon="7.13162">
        <ele>717.60472</ele>
        <time>2023-02-27T12:50:13.000Z</time>
      </trkpt>
      <trkpt lat="48.50274" lon="7.13169">
        <ele>717.98013</ele>
        <time>2023-02-27T12:50:13.000Z</time>
      </trkpt>
      <trkpt lat="48.50271" lon="7.13174">
        <ele>718.31242</ele>
        <time>2023-02-27T12:50:13.000Z</time>
      </trkpt>
      <trkpt lat="48.50267" lon="7.13179">
        <ele>718.64205</ele>
        <time>2023-02-27T12:50:13.000Z</time>
      </trkpt>
      <trkpt lat="48.50263" lon="7.13186">
        <ele>719.0431</ele>
        <time>2023-02-27T12:50:13.000Z</time>
      </trkpt>
      <trkpt lat="48.50259" lon="7.13192">
        <ele>719.41351</ele>
        <time>2023-02-27T12:50:13.000Z</time>
      </trkpt>
      <trkpt lat="48.50256" lon="7.13198">
        <ele>719.73413</ele>
        <time>2023-02-27T12:50:13.000Z</time>
      </trkpt>
      <trkpt lat="48.50252" lon="7.13205">
        <ele>720.17928</ele>
        <time>2023-02-27T12:50:13.000Z</time>
      </trkpt>
      <trkpt lat="48.5025" lon="7.13211">
        <ele>720.5686</ele>
        <time>2023-02-27T12:50:13.000Z</time>
      </trkpt>
      <trkpt lat="48.50246" lon="7.13225">
        <ele>721.43949</ele>
        <time>2023-02-27T12:50:13.000Z</time>
      </trkpt>
      <trkpt lat="48.50244" lon="7.13233">
        <ele>721.94693</ele>
        <time>2023-02-27T12:50:13.000Z</time>
      </trkpt>
      <trkpt lat="48.5024" lon="7.13244">
        <ele>722.68543</ele>
        <time>2023-02-27T12:50:13.000Z</time>
      </trkpt>
      <trkpt lat="48.50239" lon="7.13254">
        <ele>723.33493</ele>
        <time>2023-02-27T12:50:13.000Z</time>
      </trkpt>
      <trkpt lat="48.50238" lon="7.13265">
        <ele>724.08272</ele>
        <time>2023-02-27T12:50:13.000Z</time>
      </trkpt>
      <trkpt lat="48.50238" lon="7.13274">
        <ele>724.68549</ele>
        <time>2023-02-27T12:50:13.000Z</time>
      </trkpt>
      <trkpt lat="48.50238" lon="7.13286">
        <ele>725.46237</ele>
        <time>2023-02-27T12:50:13.000Z</time>
      </trkpt>
      <trkpt lat="48.50238" lon="7.13298">
        <ele>726.23469</ele>
        <time>2023-02-27T12:50:13.000Z</time>
      </trkpt>
      <trkpt lat="48.50237" lon="7.13311">
        <ele>727.04724</ele>
        <time>2023-02-27T12:50:13.000Z</time>
      </trkpt>
      <trkpt lat="48.50236" lon="7.1333">
        <ele>728.31294</ele>
        <time>2023-02-27T12:50:13.000Z</time>
      </trkpt>
      <trkpt lat="48.50236" lon="7.13337">
        <ele>728.8108</ele>
        <time>2023-02-27T12:50:13.000Z</time>
      </trkpt>
      <trkpt lat="48.50235" lon="7.13348">
        <ele>729.59785</ele>
        <time>2023-02-27T12:50:13.000Z</time>
      </trkpt>
      <trkpt lat="48.50234" lon="7.13357">
        <ele>730.21832</ele>
        <time>2023-02-27T12:50:13.000Z</time>
      </trkpt>
      <trkpt lat="48.50233" lon="7.13364">
        <ele>730.76744</ele>
        <time>2023-02-27T12:50:13.000Z</time>
      </trkpt>
      <trkpt lat="48.50232" lon="7.13375">
        <ele>731.61159</ele>
        <time>2023-02-27T12:50:13.000Z</time>
      </trkpt>
      <trkpt lat="48.5023" lon="7.13391">
        <ele>732.87133</ele>
        <time>2023-02-27T12:50:13.000Z</time>
      </trkpt>
      <trkpt lat="48.5023" lon="7.13402">
        <ele>733.71129</ele>
        <time>2023-02-27T12:50:13.000Z</time>
      </trkpt>
      <trkpt lat="48.5023" lon="7.13412">
        <ele>734.47017</ele>
        <time>2023-02-27T12:50:13.000Z</time>
      </trkpt>
      <trkpt lat="48.50229" lon="7.13423">
        <ele>735.37641</ele>
        <time>2023-02-27T12:50:13.000Z</time>
      </trkpt>
      <trkpt lat="48.50229" lon="7.13432">
        <ele>736.07724</ele>
        <time>2023-02-27T12:50:13.000Z</time>
      </trkpt>
      <trkpt lat="48.50229" lon="7.13441">
        <ele>736.76105</ele>
        <time>2023-02-27T12:50:13.000Z</time>
      </trkpt>
      <trkpt lat="48.50231" lon="7.13448">
        <ele>737.31598</ele>
        <time>2023-02-27T12:50:13.000Z</time>
      </trkpt>
      <trkpt lat="48.5023" lon="7.13457">
        <ele>737.97436</ele>
        <time>2023-02-27T12:50:13.000Z</time>
      </trkpt>
      <trkpt lat="48.5023" lon="7.13464">
        <ele>738.46529</ele>
        <time>2023-02-27T12:50:13.000Z</time>
      </trkpt>
      <trkpt lat="48.50234" lon="7.13469">
        <ele>738.7543</ele>
        <time>2023-02-27T12:50:13.000Z</time>
      </trkpt>
      <trkpt lat="48.50234" lon="7.13479">
        <ele>739.47468</ele>
        <time>2023-02-27T12:50:13.000Z</time>
      </trkpt>
      <trkpt lat="48.50236" lon="7.13488">
        <ele>739.98019</ele>
        <time>2023-02-27T12:50:13.000Z</time>
      </trkpt>
      <trkpt lat="48.50238" lon="7.13498">
        <ele>740.60602</ele>
        <time>2023-02-27T12:50:13.000Z</time>
      </trkpt>
      <trkpt lat="48.50237" lon="7.13506">
        <ele>741.13825</ele>
        <time>2023-02-27T12:50:13.000Z</time>
      </trkpt>
      <trkpt lat="48.50237" lon="7.13513">
        <ele>741.56033</ele>
        <time>2023-02-27T12:50:13.000Z</time>
      </trkpt>
      <trkpt lat="48.50237" lon="7.13522">
        <ele>742.10642</ele>
        <time>2023-02-27T12:50:13.000Z</time>
      </trkpt>
      <trkpt lat="48.50238" lon="7.13529">
        <ele>742.49327</ele>
        <time>2023-02-27T12:50:13.000Z</time>
      </trkpt>
      <trkpt lat="48.50237" lon="7.13536">
        <ele>742.98427</ele>
        <time>2023-02-27T12:50:13.000Z</time>
      </trkpt>
      <trkpt lat="48.50234" lon="7.13545">
        <ele>743.63226</ele>
        <time>2023-02-27T12:50:13.000Z</time>
      </trkpt>
      <trkpt lat="48.5023" lon="7.13561">
        <ele>744.74632</ele>
        <time>2023-02-27T12:50:13.000Z</time>
      </trkpt>
      <trkpt lat="48.50226" lon="7.13568">
        <ele>745.33161</ele>
        <time>2023-02-27T12:50:13.000Z</time>
      </trkpt>
      <trkpt lat="48.50223" lon="7.13575">
        <ele>745.84887</ele>
        <time>2023-02-27T12:50:13.000Z</time>
      </trkpt>
      <trkpt lat="48.50221" lon="7.13582">
        <ele>746.39624</ele>
        <time>2023-02-27T12:50:13.000Z</time>
      </trkpt>
      <trkpt lat="48.50219" lon="7.13595">
        <ele>747.27875</ele>
        <time>2023-02-27T12:50:13.000Z</time>
      </trkpt>
      <trkpt lat="48.50215" lon="7.13602">
        <ele>747.85112</ele>
        <time>2023-02-27T12:50:13.000Z</time>
      </trkpt>
      <trkpt lat="48.50212" lon="7.13608">
        <ele>748.39426</ele>
        <time>2023-02-27T12:50:13.000Z</time>
      </trkpt>
      <trkpt lat="48.50215" lon="7.13602">
        <ele>747.85112</ele>
        <time>2023-02-27T12:50:13.000Z</time>
      </trkpt>
      <trkpt lat="48.50219" lon="7.13595">
        <ele>747.27875</ele>
        <time>2023-02-27T12:50:13.000Z</time>
      </trkpt>
      <trkpt lat="48.50221" lon="7.13588">
        <ele>746.76857</ele>
        <time>2023-02-27T12:50:13.000Z</time>
      </trkpt>
      <trkpt lat="48.50223" lon="7.13575">
        <ele>745.84887</ele>
        <time>2023-02-27T12:50:13.000Z</time>
      </trkpt>
      <trkpt lat="48.50226" lon="7.13568">
        <ele>745.33161</ele>
        <time>2023-02-27T12:50:13.000Z</time>
      </trkpt>
      <trkpt lat="48.5023" lon="7.13561">
        <ele>744.74632</ele>
        <time>2023-02-27T12:50:13.000Z</time>
      </trkpt>
      <trkpt lat="48.50225" lon="7.1356">
        <ele>744.89055</ele>
        <time>2023-02-27T12:50:13.000Z</time>
      </trkpt>
      <trkpt lat="48.50218" lon="7.13558">
        <ele>744.98967</ele>
        <time>2023-02-27T12:50:13.000Z</time>
      </trkpt>
      <trkpt lat="48.50213" lon="7.13561">
        <ele>745.31273</ele>
        <time>2023-02-27T12:50:13.000Z</time>
      </trkpt>
      <trkpt lat="48.50207" lon="7.13564">
        <ele>745.66434</ele>
        <time>2023-02-27T12:50:13.000Z</time>
      </trkpt>
      <trkpt lat="48.502" lon="7.13563">
        <ele>745.822</ele>
        <time>2023-02-27T12:50:13.000Z</time>
      </trkpt>
      <trkpt lat="48.50194" lon="7.13573">
        <ele>746.66621</ele>
        <time>2023-02-27T12:50:13.000Z</time>
      </trkpt>
      <trkpt lat="48.50187" lon="7.1357">
        <ele>746.60897</ele>
        <time>2023-02-27T12:50:13.000Z</time>
      </trkpt>
      <trkpt lat="48.50181" lon="7.13571">
        <ele>746.8639</ele>
        <time>2023-02-27T12:50:13.000Z</time>
      </trkpt>
      <trkpt lat="48.50175" lon="7.13569">
        <ele>746.83759</ele>
        <time>2023-02-27T12:50:13.000Z</time>
      </trkpt>
      <trkpt lat="48.50169" lon="7.13564">
        <ele>746.62437</ele>
        <time>2023-02-27T12:50:13.000Z</time>
      </trkpt>
      <trkpt lat="48.5016" lon="7.13563">
        <ele>746.76516</ele>
        <time>2023-02-27T12:50:13.000Z</time>
      </trkpt>
      <trkpt lat="48.50156" lon="7.13571">
        <ele>747.38851</ele>
        <time>2023-02-27T12:50:13.000Z</time>
      </trkpt>
      <trkpt lat="48.50147" lon="7.13577">
        <ele>747.94356</ele>
        <time>2023-02-27T12:50:13.000Z</time>
      </trkpt>
      <trkpt lat="48.50143" lon="7.13581">
        <ele>748.25082</ele>
        <time>2023-02-27T12:50:13.000Z</time>
      </trkpt>
      <trkpt lat="48.50138" lon="7.13581">
        <ele>748.35061</ele>
        <time>2023-02-27T12:50:13.000Z</time>
      </trkpt>
      <trkpt lat="48.50129" lon="7.1358">
        <ele>748.42219</ele>
        <time>2023-02-27T12:50:13.000Z</time>
      </trkpt>
      <trkpt lat="48.50125" lon="7.13579">
        <ele>748.40969</ele>
        <time>2023-02-27T12:50:13.000Z</time>
      </trkpt>
      <trkpt lat="48.50119" lon="7.13582">
        <ele>748.684</ele>
        <time>2023-02-27T12:50:13.000Z</time>
      </trkpt>
      <trkpt lat="48.5011" lon="7.13583">
        <ele>748.89812</ele>
        <time>2023-02-27T12:50:13.000Z</time>
      </trkpt>
      <trkpt lat="48.50104" lon="7.13581">
        <ele>748.82981</ele>
        <time>2023-02-27T12:50:13.000Z</time>
      </trkpt>
      <trkpt lat="48.50094" lon="7.13581">
        <ele>748.9116</ele>
        <time>2023-02-27T12:50:13.000Z</time>
      </trkpt>
      <trkpt lat="48.50089" lon="7.13579">
        <ele>748.80375</ele>
        <time>2023-02-27T12:50:13.000Z</time>
      </trkpt>
      <trkpt lat="48.50084" lon="7.13575">
        <ele>748.57942</ele>
        <time>2023-02-27T12:50:13.000Z</time>
      </trkpt>
      <trkpt lat="48.50077" lon="7.13574">
        <ele>748.49867</ele>
        <time>2023-02-27T12:50:13.000Z</time>
      </trkpt>
      <trkpt lat="48.50076" lon="7.13567">
        <ele>748.02184</ele>
        <time>2023-02-27T12:50:13.000Z</time>
      </trkpt>
      <trkpt lat="48.50067" lon="7.13567">
        <ele>748.04336</ele>
        <time>2023-02-27T12:50:13.000Z</time>
      </trkpt>
      <trkpt lat="48.50061" lon="7.13569">
        <ele>748.17912</ele>
        <time>2023-02-27T12:50:13.000Z</time>
      </trkpt>
      <trkpt lat="48.50055" lon="7.1357">
        <ele>748.23111</ele>
        <time>2023-02-27T12:50:13.000Z</time>
      </trkpt>
      <trkpt lat="48.50047" lon="7.13572">
        <ele>748.32921</ele>
        <time>2023-02-27T12:50:13.000Z</time>
      </trkpt>
      <trkpt lat="48.5004" lon="7.13574">
        <ele>748.37898</ele>
        <time>2023-02-27T12:50:13.000Z</time>
      </trkpt>
      <trkpt lat="48.5003" lon="7.13577">
        <ele>748.57059</ele>
        <time>2023-02-27T12:50:13.000Z</time>
      </trkpt>
      <trkpt lat="48.5002" lon="7.13576">
        <ele>748.45874</ele>
        <time>2023-02-27T12:50:13.000Z</time>
      </trkpt>
      <trkpt lat="48.50014" lon="7.13573">
        <ele>748.22145</ele>
        <time>2023-02-27T12:50:13.000Z</time>
      </trkpt>
      <trkpt lat="48.50002" lon="7.13568">
        <ele>747.8847</ele>
        <time>2023-02-27T12:50:13.000Z</time>
      </trkpt>
      <trkpt lat="48.49995" lon="7.13569">
        <ele>747.81661</ele>
        <time>2023-02-27T12:50:13.000Z</time>
      </trkpt>
      <trkpt lat="48.49987" lon="7.13566">
        <ele>747.55925</ele>
        <time>2023-02-27T12:50:13.000Z</time>
      </trkpt>
      <trkpt lat="48.49981" lon="7.13564">
        <ele>747.34698</ele>
        <time>2023-02-27T12:50:13.000Z</time>
      </trkpt>
      <trkpt lat="48.49979" lon="7.13572">
        <ele>747.87108</ele>
        <time>2023-02-27T12:50:13.000Z</time>
      </trkpt>
      <trkpt lat="48.49971" lon="7.13574">
        <ele>747.9497</ele>
        <time>2023-02-27T12:50:13.000Z</time>
      </trkpt>
      <trkpt lat="48.49965" lon="7.13579">
        <ele>748.19115</ele>
        <time>2023-02-27T12:50:13.000Z</time>
      </trkpt>
      <trkpt lat="48.49953" lon="7.1359">
        <ele>748.84351</ele>
        <time>2023-02-27T12:50:13.000Z</time>
      </trkpt>
      <trkpt lat="48.4995" lon="7.13599">
        <ele>749.47168</ele>
        <time>2023-02-27T12:50:13.000Z</time>
      </trkpt>
      <trkpt lat="48.49944" lon="7.13602">
        <ele>749.59012</ele>
        <time>2023-02-27T12:50:13.000Z</time>
      </trkpt>
      <trkpt lat="48.49941" lon="7.13612">
        <ele>750.2015</ele>
        <time>2023-02-27T12:50:13.000Z</time>
      </trkpt>
      <trkpt lat="48.49936" lon="7.13614">
        <ele>750.2473</ele>
        <time>2023-02-27T12:50:13.000Z</time>
      </trkpt>
      <trkpt lat="48.4993" lon="7.13615">
        <ele>750.28811</ele>
        <time>2023-02-27T12:50:13.000Z</time>
      </trkpt>
      <trkpt lat="48.49925" lon="7.13613">
        <ele>750.13558</ele>
        <time>2023-02-27T12:50:13.000Z</time>
      </trkpt>
      <trkpt lat="48.49919" lon="7.13617">
        <ele>750.32312</ele>
        <time>2023-02-27T12:50:13.000Z</time>
      </trkpt>
      <trkpt lat="48.49913" lon="7.13617">
        <ele>750.28363</ele>
        <time>2023-02-27T12:50:13.000Z</time>
      </trkpt>
      <trkpt lat="48.49908" lon="7.13619">
        <ele>750.31473</ele>
        <time>2023-02-27T12:50:13.000Z</time>
      </trkpt>
      <trkpt lat="48.49903" lon="7.13615">
        <ele>749.96896</ele>
        <time>2023-02-27T12:50:13.000Z</time>
      </trkpt>
      <trkpt lat="48.49897" lon="7.13616">
        <ele>749.86827</ele>
        <time>2023-02-27T12:50:13.000Z</time>
      </trkpt>
      <trkpt lat="48.49892" lon="7.13613">
        <ele>749.52031</ele>
        <time>2023-02-27T12:50:13.000Z</time>
      </trkpt>
      <trkpt lat="48.49887" lon="7.13612">
        <ele>749.32403</ele>
        <time>2023-02-27T12:50:13.000Z</time>
      </trkpt>
      <trkpt lat="48.49883" lon="7.13615">
        <ele>749.43729</ele>
        <time>2023-02-27T12:50:13.000Z</time>
      </trkpt>
      <trkpt lat="48.49875" lon="7.13615">
        <ele>749.19145</ele>
        <time>2023-02-27T12:50:13.000Z</time>
      </trkpt>
      <trkpt lat="48.49866" lon="7.13611">
        <ele>748.60986</ele>
        <time>2023-02-27T12:50:13.000Z</time>
      </trkpt>
      <trkpt lat="48.4986" lon="7.13611">
        <ele>748.38914</ele>
        <time>2023-02-27T12:50:13.000Z</time>
      </trkpt>
      <trkpt lat="48.49855" lon="7.13608">
        <ele>747.96322</ele>
        <time>2023-02-27T12:50:13.000Z</time>
      </trkpt>
      <trkpt lat="48.49849" lon="7.13609">
        <ele>747.7825</ele>
        <time>2023-02-27T12:50:13.000Z</time>
      </trkpt>
      <trkpt lat="48.49842" lon="7.13611">
        <ele>747.72068</ele>
        <time>2023-02-27T12:50:13.000Z</time>
      </trkpt>
      <trkpt lat="48.49836" lon="7.13613">
        <ele>747.66794</ele>
        <time>2023-02-27T12:50:13.000Z</time>
      </trkpt>
      <trkpt lat="48.49832" lon="7.13617">
        <ele>747.8931</ele>
        <time>2023-02-27T12:50:13.000Z</time>
      </trkpt>
      <trkpt lat="48.49823" lon="7.13624">
        <ele>748.19351</ele>
        <time>2023-02-27T12:50:13.000Z</time>
      </trkpt>
      <trkpt lat="48.49818" lon="7.13626">
        <ele>748.26371</ele>
        <time>2023-02-27T12:50:13.000Z</time>
      </trkpt>
      <trkpt lat="48.49809" lon="7.13618">
        <ele>747.78123</ele>
        <time>2023-02-27T12:50:13.000Z</time>
      </trkpt>
      <trkpt lat="48.49804" lon="7.13622">
        <ele>748.01308</ele>
        <time>2023-02-27T12:50:13.000Z</time>
      </trkpt>
      <trkpt lat="48.49796" lon="7.13624">
        <ele>748.2586</ele>
        <time>2023-02-27T12:50:13.000Z</time>
      </trkpt>
      <trkpt lat="48.4979" lon="7.13626">
        <ele>748.45292</ele>
        <time>2023-02-27T12:50:13.000Z</time>
      </trkpt>
      <trkpt lat="48.49783" lon="7.13632">
        <ele>748.95762</ele>
        <time>2023-02-27T12:50:13.000Z</time>
      </trkpt>
      <trkpt lat="48.49774" lon="7.13632">
        <ele>749.1618</ele>
        <time>2023-02-27T12:50:13.000Z</time>
      </trkpt>
      <trkpt lat="48.49768" lon="7.13632">
        <ele>749.34111</ele>
        <time>2023-02-27T12:50:13.000Z</time>
      </trkpt>
      <trkpt lat="48.49759" lon="7.13625">
        <ele>749.27514</ele>
        <time>2023-02-27T12:50:13.000Z</time>
      </trkpt>
      <trkpt lat="48.49749" lon="7.13618">
        <ele>749.27035</ele>
        <time>2023-02-27T12:50:13.000Z</time>
      </trkpt>
      <trkpt lat="48.49745" lon="7.13618">
        <ele>749.50344</ele>
        <time>2023-02-27T12:50:13.000Z</time>
      </trkpt>
      <trkpt lat="48.49739" lon="7.13616">
        <ele>749.61223</ele>
        <time>2023-02-27T12:50:13.000Z</time>
      </trkpt>
      <trkpt lat="48.49734" lon="7.13612">
        <ele>749.61616</ele>
        <time>2023-02-27T12:50:13.000Z</time>
      </trkpt>
      <trkpt lat="48.4973" lon="7.1361">
        <ele>749.73941</ele>
        <time>2023-02-27T12:50:13.000Z</time>
      </trkpt>
      <trkpt lat="48.49724" lon="7.13603">
        <ele>749.6845</ele>
        <time>2023-02-27T12:50:13.000Z</time>
      </trkpt>
      <trkpt lat="48.49717" lon="7.13597">
        <ele>749.79977</ele>
        <time>2023-02-27T12:50:13.000Z</time>
      </trkpt>
      <trkpt lat="48.49713" lon="7.13594">
        <ele>749.83884</ele>
        <time>2023-02-27T12:50:13.000Z</time>
      </trkpt>
      <trkpt lat="48.49709" lon="7.13588">
        <ele>749.8068</ele>
        <time>2023-02-27T12:50:13.000Z</time>
      </trkpt>
      <trkpt lat="48.49704" lon="7.13586">
        <ele>749.95282</ele>
        <time>2023-02-27T12:50:13.000Z</time>
      </trkpt>
      <trkpt lat="48.49698" lon="7.13582">
        <ele>750.11186</ele>
        <time>2023-02-27T12:50:13.000Z</time>
      </trkpt>
      <trkpt lat="48.49692" lon="7.13576">
        <ele>750.2673</ele>
        <time>2023-02-27T12:50:13.000Z</time>
      </trkpt>
      <trkpt lat="48.49685" lon="7.13572">
        <ele>750.48601</ele>
        <time>2023-02-27T12:50:13.000Z</time>
      </trkpt>
      <trkpt lat="48.49676" lon="7.13562">
        <ele>750.52852</ele>
        <time>2023-02-27T12:50:13.000Z</time>
      </trkpt>
      <trkpt lat="48.49668" lon="7.13558">
        <ele>750.76989</ele>
        <time>2023-02-27T12:50:13.000Z</time>
      </trkpt>
      <trkpt lat="48.49662" lon="7.13556">
        <ele>750.9927</ele>
        <time>2023-02-27T12:50:13.000Z</time>
      </trkpt>
      <trkpt lat="48.49655" lon="7.13546">
        <ele>751.04216</ele>
        <time>2023-02-27T12:50:13.000Z</time>
      </trkpt>
      <trkpt lat="48.49649" lon="7.13541">
        <ele>751.13019</ele>
        <time>2023-02-27T12:50:13.000Z</time>
      </trkpt>
      <trkpt lat="48.49644" lon="7.13538">
        <ele>751.2237</ele>
        <time>2023-02-27T12:50:13.000Z</time>
      </trkpt>
      <trkpt lat="48.49636" lon="7.1353">
        <ele>751.28779</ele>
        <time>2023-02-27T12:50:13.000Z</time>
      </trkpt>
      <trkpt lat="48.49631" lon="7.13527">
        <ele>751.4012</ele>
        <time>2023-02-27T12:50:13.000Z</time>
      </trkpt>
      <trkpt lat="48.49625" lon="7.13524">
        <ele>751.54209</ele>
        <time>2023-02-27T12:50:13.000Z</time>
      </trkpt>
      <trkpt lat="48.49619" lon="7.13522">
        <ele>751.69939</ele>
        <time>2023-02-27T12:50:13.000Z</time>
      </trkpt>
      <trkpt lat="48.49614" lon="7.13523">
        <ele>751.87435</ele>
        <time>2023-02-27T12:50:13.000Z</time>
      </trkpt>
      <trkpt lat="48.49609" lon="7.13522">
        <ele>751.97964</ele>
        <time>2023-02-27T12:50:13.000Z</time>
      </trkpt>
      <trkpt lat="48.49604" lon="7.13522">
        <ele>752.10854</ele>
        <time>2023-02-27T12:50:13.000Z</time>
      </trkpt>
      <trkpt lat="48.49597" lon="7.13525">
        <ele>752.24961</ele>
        <time>2023-02-27T12:50:13.000Z</time>
      </trkpt>
      <trkpt lat="48.49586" lon="7.13524">
        <ele>752.27339</ele>
        <time>2023-02-27T12:50:13.000Z</time>
      </trkpt>
      <trkpt lat="48.49579" lon="7.13523">
        <ele>752.23922</ele>
        <time>2023-02-27T12:50:13.000Z</time>
      </trkpt>
      <trkpt lat="48.49574" lon="7.13521">
        <ele>752.18341</ele>
        <time>2023-02-27T12:50:13.000Z</time>
      </trkpt>
      <trkpt lat="48.49565" lon="7.13521">
        <ele>752.07867</ele>
        <time>2023-02-27T12:50:13.000Z</time>
      </trkpt>
      <trkpt lat="48.4956" lon="7.13514">
        <ele>751.94909</ele>
        <time>2023-02-27T12:50:13.000Z</time>
      </trkpt>
      <trkpt lat="48.49556" lon="7.13508">
        <ele>751.84012</ele>
        <time>2023-02-27T12:50:13.000Z</time>
      </trkpt>
      <trkpt lat="48.49546" lon="7.13492">
        <ele>751.53635</ele>
        <time>2023-02-27T12:50:13.000Z</time>
      </trkpt>
      <trkpt lat="48.49534" lon="7.13489">
        <ele>751.15698</ele>
        <time>2023-02-27T12:50:13.000Z</time>
      </trkpt>
      <trkpt lat="48.49524" lon="7.13486">
        <ele>750.83371</ele>
        <time>2023-02-27T12:50:13.000Z</time>
      </trkpt>
      <trkpt lat="48.49518" lon="7.13483">
        <ele>750.66191</ele>
        <time>2023-02-27T12:50:13.000Z</time>
      </trkpt>
      <trkpt lat="48.49511" lon="7.1348">
        <ele>750.37267</ele>
        <time>2023-02-27T12:50:13.000Z</time>
      </trkpt>
      <trkpt lat="48.49512" lon="7.13464">
        <ele>750.77326</ele>
        <time>2023-02-27T12:50:13.000Z</time>
      </trkpt>
      <trkpt lat="48.49514" lon="7.13452">
        <ele>751.07797</ele>
        <time>2023-02-27T12:50:13.000Z</time>
      </trkpt>
      <trkpt lat="48.49516" lon="7.13446">
        <ele>751.24076</ele>
        <time>2023-02-27T12:50:13.000Z</time>
      </trkpt>
      <trkpt lat="48.49515" lon="7.13438">
        <ele>751.34353</ele>
        <time>2023-02-27T12:50:13.000Z</time>
      </trkpt>
      <trkpt lat="48.4951" lon="7.13423">
        <ele>751.41724</ele>
        <time>2023-02-27T12:50:13.000Z</time>
      </trkpt>
      <trkpt lat="48.49505" lon="7.13415">
        <ele>751.44083</ele>
        <time>2023-02-27T12:50:13.000Z</time>
      </trkpt>
      <trkpt lat="48.495" lon="7.13404">
        <ele>751.51452</ele>
        <time>2023-02-27T12:50:13.000Z</time>
      </trkpt>
      <trkpt lat="48.49495" lon="7.13399">
        <ele>751.48349</ele>
        <time>2023-02-27T12:50:13.000Z</time>
      </trkpt>
      <trkpt lat="48.49491" lon="7.13397">
        <ele>751.4128</ele>
        <time>2023-02-27T12:50:13.000Z</time>
      </trkpt>
      <trkpt lat="48.49483" lon="7.13389">
        <ele>751.33196</ele>
        <time>2023-02-27T12:50:13.000Z</time>
      </trkpt>
      <trkpt lat="48.49478" lon="7.13386">
        <ele>751.22736</ele>
        <time>2023-02-27T12:50:13.000Z</time>
      </trkpt>
      <trkpt lat="48.49472" lon="7.13389">
        <ele>750.8838</ele>
        <time>2023-02-27T12:50:13.000Z</time>
      </trkpt>
      <trkpt lat="48.49467" lon="7.13381">
        <ele>750.89609</ele>
        <time>2023-02-27T12:50:13.000Z</time>
      </trkpt>
      <trkpt lat="48.49463" lon="7.13377">
        <ele>750.83962</ele>
        <time>2023-02-27T12:50:13.000Z</time>
      </trkpt>
      <trkpt lat="48.4946" lon="7.13371">
        <ele>750.8614</ele>
        <time>2023-02-27T12:50:13.000Z</time>
      </trkpt>
      <trkpt lat="48.49455" lon="7.13359">
        <ele>751.00011</ele>
        <time>2023-02-27T12:50:13.000Z</time>
      </trkpt>
      <trkpt lat="48.49448" lon="7.13352">
        <ele>750.93405</ele>
        <time>2023-02-27T12:50:13.000Z</time>
      </trkpt>
      <trkpt lat="48.49443" lon="7.13343">
        <ele>750.98514</ele>
        <time>2023-02-27T12:50:13.000Z</time>
      </trkpt>
      <trkpt lat="48.49439" lon="7.13337">
        <ele>750.99104</ele>
        <time>2023-02-27T12:50:13.000Z</time>
      </trkpt>
      <trkpt lat="48.49435" lon="7.13327">
        <ele>751.12853</ele>
        <time>2023-02-27T12:50:13.000Z</time>
      </trkpt>
      <trkpt lat="48.49433" lon="7.13318">
        <ele>751.23117</ele>
        <time>2023-02-27T12:50:13.000Z</time>
      </trkpt>
      <trkpt lat="48.49422" lon="7.1331">
        <ele>751.0637</ele>
        <time>2023-02-27T12:50:13.000Z</time>
      </trkpt>
      <trkpt lat="48.49421" lon="7.133">
        <ele>751.28202</ele>
        <time>2023-02-27T12:50:13.000Z</time>
      </trkpt>
      <trkpt lat="48.49416" lon="7.13301">
        <ele>751.05557</ele>
        <time>2023-02-27T12:50:13.000Z</time>
      </trkpt>
      <trkpt lat="48.4941" lon="7.13302">
        <ele>750.80085</ele>
        <time>2023-02-27T12:50:13.000Z</time>
      </trkpt>
      <trkpt lat="48.49405" lon="7.13307">
        <ele>750.42333</ele>
        <time>2023-02-27T12:50:13.000Z</time>
      </trkpt>
      <trkpt lat="48.49397" lon="7.13305">
        <ele>750.03855</ele>
        <time>2023-02-27T12:50:13.000Z</time>
      </trkpt>
      <trkpt lat="48.49391" lon="7.13301">
        <ele>749.88559</ele>
        <time>2023-02-27T12:50:13.000Z</time>
      </trkpt>
      <trkpt lat="48.49386" lon="7.13297">
        <ele>749.80552</ele>
        <time>2023-02-27T12:50:13.000Z</time>
      </trkpt>
      <trkpt lat="48.49382" lon="7.13292">
        <ele>749.8319</ele>
        <time>2023-02-27T12:50:13.000Z</time>
      </trkpt>
      <trkpt lat="48.49377" lon="7.13288">
        <ele>749.68025</ele>
        <time>2023-02-27T12:50:13.000Z</time>
      </trkpt>
      <trkpt lat="48.49372" lon="7.13282">
        <ele>749.66874</ele>
        <time>2023-02-27T12:50:13.000Z</time>
      </trkpt>
      <trkpt lat="48.49365" lon="7.13274">
        <ele>749.68429</ele>
        <time>2023-02-27T12:50:13.000Z</time>
      </trkpt>
      <trkpt lat="48.4936" lon="7.13267">
        <ele>749.67158</ele>
        <time>2023-02-27T12:50:13.000Z</time>
      </trkpt>
      <trkpt lat="48.49357" lon="7.1326">
        <ele>749.80499</ele>
        <time>2023-02-27T12:50:13.000Z</time>
      </trkpt>
      <trkpt lat="48.49351" lon="7.13254">
        <ele>749.76685</ele>
        <time>2023-02-27T12:50:13.000Z</time>
      </trkpt>
      <trkpt lat="48.49354" lon="7.13245">
        <ele>750.30924</ele>
        <time>2023-02-27T12:50:13.000Z</time>
      </trkpt>
      <trkpt lat="48.49355" lon="7.13237">
        <ele>750.64676</ele>
        <time>2023-02-27T12:50:13.000Z</time>
      </trkpt>
      <trkpt lat="48.49355" lon="7.1323">
        <ele>750.87552</ele>
        <time>2023-02-27T12:50:13.000Z</time>
      </trkpt>
      <trkpt lat="48.49355" lon="7.13222">
        <ele>751.17884</ele>
        <time>2023-02-27T12:50:13.000Z</time>
      </trkpt>
      <trkpt lat="48.49355" lon="7.13212">
        <ele>751.5205</ele>
        <time>2023-02-27T12:50:13.000Z</time>
      </trkpt>
      <trkpt lat="48.49355" lon="7.13204">
        <ele>751.76066</ele>
        <time>2023-02-27T12:50:13.000Z</time>
      </trkpt>
      <trkpt lat="48.49355" lon="7.13196">
        <ele>751.99593</ele>
        <time>2023-02-27T12:50:13.000Z</time>
      </trkpt>
      <trkpt lat="48.49354" lon="7.13188">
        <ele>752.18722</ele>
        <time>2023-02-27T12:50:13.000Z</time>
      </trkpt>
      <trkpt lat="48.49353" lon="7.1318">
        <ele>752.37161</ele>
        <time>2023-02-27T12:50:13.000Z</time>
      </trkpt>
      <trkpt lat="48.49353" lon="7.13173">
        <ele>752.56164</ele>
        <time>2023-02-27T12:50:13.000Z</time>
      </trkpt>
      <trkpt lat="48.49353" lon="7.13153">
        <ele>753.05546</ele>
        <time>2023-02-27T12:50:13.000Z</time>
      </trkpt>
      <trkpt lat="48.49347" lon="7.1316">
        <ele>752.84628</ele>
        <time>2023-02-27T12:50:13.000Z</time>
      </trkpt>
      <trkpt lat="48.49353" lon="7.13153">
        <ele>753.05546</ele>
        <time>2023-02-27T12:50:13.000Z</time>
      </trkpt>
      <trkpt lat="48.49365" lon="7.13138">
        <ele>753.26937</ele>
        <time>2023-02-27T12:50:13.000Z</time>
      </trkpt>
      <trkpt lat="48.49373" lon="7.13124">
        <ele>753.2136</ele>
        <time>2023-02-27T12:50:13.000Z</time>
      </trkpt>
      <trkpt lat="48.49381" lon="7.13112">
        <ele>752.93964</ele>
        <time>2023-02-27T12:50:13.000Z</time>
      </trkpt>
      <trkpt lat="48.4939" lon="7.13094">
        <ele>752.33335</ele>
        <time>2023-02-27T12:50:13.000Z</time>
      </trkpt>
      <trkpt lat="48.49393" lon="7.13086">
        <ele>751.97284</ele>
        <time>2023-02-27T12:50:13.000Z</time>
      </trkpt>
      <trkpt lat="48.49396" lon="7.13077">
        <ele>751.56159</ele>
        <time>2023-02-27T12:50:13.000Z</time>
      </trkpt>
      <trkpt lat="48.49398" lon="7.13063">
        <ele>750.93499</ele>
        <time>2023-02-27T12:50:13.000Z</time>
      </trkpt>
      <trkpt lat="48.49398" lon="7.13052">
        <ele>750.46994</ele>
        <time>2023-02-27T12:50:13.000Z</time>
      </trkpt>
      <trkpt lat="48.49398" lon="7.13039">
        <ele>749.85014</ele>
        <time>2023-02-27T12:50:13.000Z</time>
      </trkpt>
      <trkpt lat="48.49396" lon="7.13021">
        <ele>749.0919</ele>
        <time>2023-02-27T12:50:13.000Z</time>
      </trkpt>
      <trkpt lat="48.49395" lon="7.13008">
        <ele>748.52877</ele>
        <time>2023-02-27T12:50:13.000Z</time>
      </trkpt>
      <trkpt lat="48.49394" lon="7.12995">
        <ele>747.96301</ele>
        <time>2023-02-27T12:50:13.000Z</time>
      </trkpt>
      <trkpt lat="48.49392" lon="7.12981">
        <ele>747.48781</ele>
        <time>2023-02-27T12:50:13.000Z</time>
      </trkpt>
      <trkpt lat="48.49391" lon="7.12968">
        <ele>747.14835</ele>
        <time>2023-02-27T12:50:13.000Z</time>
      </trkpt>
      <trkpt lat="48.4938" lon="7.12969">
        <ele>747.89755</ele>
        <time>2023-02-27T12:50:13.000Z</time>
      </trkpt>
      <trkpt lat="48.49348" lon="7.12862">
        <ele>747.37717</ele>
        <time>2023-02-27T12:50:13.000Z</time>
      </trkpt>
      <trkpt lat="48.49306" lon="7.12767">
        <ele>747.18717</ele>
        <time>2023-02-27T12:50:13.000Z</time>
      </trkpt>
      <trkpt lat="48.49269" lon="7.12674">
        <ele>744.11999</ele>
        <time>2023-02-27T12:50:13.000Z</time>
      </trkpt>
      <trkpt lat="48.49215" lon="7.1258">
        <ele>739.19417</ele>
        <time>2023-02-27T12:50:13.000Z</time>
      </trkpt>
      <trkpt lat="48.49163" lon="7.12523">
        <ele>738.93127</ele>
        <time>2023-02-27T12:50:13.000Z</time>
      </trkpt>
      <trkpt lat="48.49141" lon="7.12472">
        <ele>737.38542</ele>
        <time>2023-02-27T12:50:13.000Z</time>
      </trkpt>
      <trkpt lat="48.49139" lon="7.12434">
        <ele>734.48328</ele>
        <time>2023-02-27T12:50:13.000Z</time>
      </trkpt>
      <trkpt lat="48.49139" lon="7.12419">
        <ele>733.46668</ele>
        <time>2023-02-27T12:50:13.000Z</time>
      </trkpt>
      <trkpt lat="48.49127" lon="7.12325">
        <ele>731.97876</ele>
        <time>2023-02-27T12:50:13.000Z</time>
      </trkpt>
      <trkpt lat="48.49121" lon="7.12233">
        <ele>732.27887</ele>
        <time>2023-02-27T12:50:13.000Z</time>
      </trkpt>
      <trkpt lat="48.49121" lon="7.12155">
        <ele>732.56181</ele>
        <time>2023-02-27T12:50:13.000Z</time>
      </trkpt>
      <trkpt lat="48.49122" lon="7.11962">
        <ele>733.86131</ele>
        <time>2023-02-27T12:50:13.000Z</time>
      </trkpt>
      <trkpt lat="48.49119" lon="7.11856">
        <ele>731.33559</ele>
        <time>2023-02-27T12:50:13.000Z</time>
      </trkpt>
      <trkpt lat="48.49107" lon="7.11783">
        <ele>731.14669</ele>
        <time>2023-02-27T12:50:13.000Z</time>
      </trkpt>
      <trkpt lat="48.491" lon="7.11754">
        <ele>731.71655</ele>
        <time>2023-02-27T12:50:13.000Z</time>
      </trkpt>
      <trkpt lat="48.4903" lon="7.11484">
        <ele>726.86558</ele>
        <time>2023-02-27T12:50:13.000Z</time>
      </trkpt>
      <trkpt lat="48.48987" lon="7.1138">
        <ele>727.54728</ele>
        <time>2023-02-27T12:50:13.000Z</time>
      </trkpt>
      <trkpt lat="48.48973" lon="7.11362">
        <ele>729.42321</ele>
        <time>2023-02-27T12:50:13.000Z</time>
      </trkpt>
      <trkpt lat="48.48967" lon="7.11353">
        <ele>730.2208</ele>
        <time>2023-02-27T12:50:13.000Z</time>
      </trkpt>
      <trkpt lat="48.48948" lon="7.11315">
        <ele>730.52246</ele>
        <time>2023-02-27T12:50:13.000Z</time>
      </trkpt>
      <trkpt lat="48.48939" lon="7.11292">
        <ele>730.30948</ele>
        <time>2023-02-27T12:50:13.000Z</time>
      </trkpt>
      <trkpt lat="48.48931" lon="7.11263">
        <ele>728.631</ele>
        <time>2023-02-27T12:50:13.000Z</time>
      </trkpt>
      <trkpt lat="48.4891" lon="7.11164">
        <ele>724.33337</ele>
        <time>2023-02-27T12:50:13.000Z</time>
      </trkpt>
      <trkpt lat="48.489" lon="7.111">
        <ele>725.393</ele>
        <time>2023-02-27T12:50:13.000Z</time>
      </trkpt>
      <trkpt lat="48.48893" lon="7.11041">
        <ele>724.72909</ele>
        <time>2023-02-27T12:50:13.000Z</time>
      </trkpt>
      <trkpt lat="48.48885" lon="7.10997">
        <ele>723.98074</ele>
        <time>2023-02-27T12:50:13.000Z</time>
      </trkpt>
      <trkpt lat="48.48876" lon="7.10961">
        <ele>723.74249</ele>
        <time>2023-02-27T12:50:13.000Z</time>
      </trkpt>
      <trkpt lat="48.48856" lon="7.10894">
        <ele>723.69882</ele>
        <time>2023-02-27T12:50:13.000Z</time>
      </trkpt>
      <trkpt lat="48.48821" lon="7.10797">
        <ele>723.71749</ele>
        <time>2023-02-27T12:50:13.000Z</time>
      </trkpt>
      <trkpt lat="48.48809" lon="7.10764">
        <ele>723.64761</ele>
        <time>2023-02-27T12:50:13.000Z</time>
      </trkpt>
      <trkpt lat="48.48783" lon="7.10668">
        <ele>721.57876</ele>
        <time>2023-02-27T12:50:13.000Z</time>
      </trkpt>
      <trkpt lat="48.48779" lon="7.10656">
        <ele>721.28255</ele>
        <time>2023-02-27T12:50:13.000Z</time>
      </trkpt>
      <trkpt lat="48.48773" lon="7.10642">
        <ele>721.39563</ele>
        <time>2023-02-27T12:50:13.000Z</time>
      </trkpt>
      <trkpt lat="48.48751" lon="7.10607">
        <ele>722.56118</ele>
        <time>2023-02-27T12:50:13.000Z</time>
      </trkpt>
      <trkpt lat="48.48932" lon="7.10539">
        <ele>647.25324</ele>
        <time>2023-02-27T12:50:13.000Z</time>
      </trkpt>
      <trkpt lat="48.48935" lon="7.10524">
        <ele>644.64893</ele>
        <time>2023-02-27T12:50:13.000Z</time>
      </trkpt>
      <trkpt lat="48.48937" lon="7.10515">
        <ele>643.53467</ele>
        <time>2023-02-27T12:50:13.000Z</time>
      </trkpt>
      <trkpt lat="48.48949" lon="7.10495">
        <ele>639.2097</ele>
        <time>2023-02-27T12:50:13.000Z</time>
      </trkpt>
      <trkpt lat="48.48957" lon="7.10483">
        <ele>637.22812</ele>
        <time>2023-02-27T12:50:13.000Z</time>
      </trkpt>
      <trkpt lat="48.48966" lon="7.10472">
        <ele>635.69039</ele>
        <time>2023-02-27T12:50:13.000Z</time>
      </trkpt>
      <trkpt lat="48.48974" lon="7.10462">
        <ele>634.67844</ele>
        <time>2023-02-27T12:50:13.000Z</time>
      </trkpt>
      <trkpt lat="48.4898" lon="7.10455">
        <ele>633.90786</ele>
        <time>2023-02-27T12:50:13.000Z</time>
      </trkpt>
      <trkpt lat="48.48984" lon="7.10449">
        <ele>633.57278</ele>
        <time>2023-02-27T12:50:13.000Z</time>
      </trkpt>
      <trkpt lat="48.48988" lon="7.10441">
        <ele>633.1667</ele>
        <time>2023-02-27T12:50:13.000Z</time>
      </trkpt>
      <trkpt lat="48.48992" lon="7.1043">
        <ele>633.25706</ele>
        <time>2023-02-27T12:50:13.000Z</time>
      </trkpt>
      <trkpt lat="48.48995" lon="7.10418">
        <ele>633.76954</ele>
        <time>2023-02-27T12:50:13.000Z</time>
      </trkpt>
      <trkpt lat="48.48997" lon="7.10403">
        <ele>634.55358</ele>
        <time>2023-02-27T12:50:13.000Z</time>
      </trkpt>
      <trkpt lat="48.49002" lon="7.1039">
        <ele>634.72691</ele>
        <time>2023-02-27T12:50:13.000Z</time>
      </trkpt>
      <trkpt lat="48.49006" lon="7.10378">
        <ele>635.0576</ele>
        <time>2023-02-27T12:50:13.000Z</time>
      </trkpt>
      <trkpt lat="48.49011" lon="7.10367">
        <ele>635.16943</ele>
        <time>2023-02-27T12:50:13.000Z</time>
      </trkpt>
      <trkpt lat="48.49015" lon="7.10359">
        <ele>635.0288</ele>
        <time>2023-02-27T12:50:13.000Z</time>
      </trkpt>
      <trkpt lat="48.49022" lon="7.10352">
        <ele>634.1173</ele>
        <time>2023-02-27T12:50:13.000Z</time>
      </trkpt>
      <trkpt lat="48.49028" lon="7.10347">
        <ele>633.23747</ele>
        <time>2023-02-27T12:50:13.000Z</time>
      </trkpt>
      <trkpt lat="48.49038" lon="7.10339">
        <ele>631.18171</ele>
        <time>2023-02-27T12:50:13.000Z</time>
      </trkpt>
      <trkpt lat="48.49043" lon="7.10335">
        <ele>629.89829</ele>
        <time>2023-02-27T12:50:13.000Z</time>
      </trkpt>
      <trkpt lat="48.49063" lon="7.10312">
        <ele>625.93197</ele>
        <time>2023-02-27T12:50:13.000Z</time>
      </trkpt>
      <trkpt lat="48.4907" lon="7.10302">
        <ele>623.80842</ele>
        <time>2023-02-27T12:50:13.000Z</time>
      </trkpt>
      <trkpt lat="48.49076" lon="7.10293">
        <ele>622.25256</ele>
        <time>2023-02-27T12:50:13.000Z</time>
      </trkpt>
      <trkpt lat="48.49082" lon="7.10283">
        <ele>621.13089</ele>
        <time>2023-02-27T12:50:13.000Z</time>
      </trkpt>
      <trkpt lat="48.49087" lon="7.10271">
        <ele>620.20831</ele>
        <time>2023-02-27T12:50:13.000Z</time>
      </trkpt>
      <trkpt lat="48.49093" lon="7.10259">
        <ele>619.05464</ele>
        <time>2023-02-27T12:50:13.000Z</time>
      </trkpt>
      <trkpt lat="48.491" lon="7.10246">
        <ele>617.68357</ele>
        <time>2023-02-27T12:50:13.000Z</time>
      </trkpt>
      <trkpt lat="48.49103" lon="7.10236">
        <ele>617.46969</ele>
        <time>2023-02-27T12:50:13.000Z</time>
      </trkpt>
      <trkpt lat="48.49107" lon="7.10227">
        <ele>617.22863</ele>
        <time>2023-02-27T12:50:13.000Z</time>
      </trkpt>
      <trkpt lat="48.49108" lon="7.10217">
        <ele>617.68441</ele>
        <time>2023-02-27T12:50:13.000Z</time>
      </trkpt>
      <trkpt lat="48.49111" lon="7.10204">
        <ele>618.15297</ele>
        <time>2023-02-27T12:50:13.000Z</time>
      </trkpt>
      <trkpt lat="48.49113" lon="7.10195">
        <ele>618.29667</ele>
        <time>2023-02-27T12:50:13.000Z</time>
      </trkpt>
      <trkpt lat="48.49115" lon="7.10188">
        <ele>618.16445</ele>
        <time>2023-02-27T12:50:13.000Z</time>
      </trkpt>
      <trkpt lat="48.49118" lon="7.10177">
        <ele>617.65837</ele>
        <time>2023-02-27T12:50:13.000Z</time>
      </trkpt>
      <trkpt lat="48.49121" lon="7.10168">
        <ele>616.57177</ele>
        <time>2023-02-27T12:50:13.000Z</time>
      </trkpt>
      <trkpt lat="48.49129" lon="7.10147">
        <ele>613.8436</ele>
        <time>2023-02-27T12:50:13.000Z</time>
      </trkpt>
      <trkpt lat="48.49139" lon="7.10121">
        <ele>610.8705</ele>
        <time>2023-02-27T12:50:13.000Z</time>
      </trkpt>
      <trkpt lat="48.49145" lon="7.10099">
        <ele>608.73923</ele>
        <time>2023-02-27T12:50:13.000Z</time>
      </trkpt>
      <trkpt lat="48.4915" lon="7.10084">
        <ele>606.71948</ele>
        <time>2023-02-27T12:50:13.000Z</time>
      </trkpt>
      <trkpt lat="48.49152" lon="7.10068">
        <ele>605.28671</ele>
        <time>2023-02-27T12:50:13.000Z</time>
      </trkpt>
      <trkpt lat="48.49153" lon="7.10057">
        <ele>604.91911</ele>
        <time>2023-02-27T12:50:13.000Z</time>
      </trkpt>
      <trkpt lat="48.49155" lon="7.10043">
        <ele>604.16484</ele>
        <time>2023-02-27T12:50:13.000Z</time>
      </trkpt>
      <trkpt lat="48.49168" lon="7.10004">
        <ele>599.49663</ele>
        <time>2023-02-27T12:50:13.000Z</time>
      </trkpt>
      <trkpt lat="48.4917" lon="7.09991">
        <ele>599.04622</ele>
        <time>2023-02-27T12:50:13.000Z</time>
      </trkpt>
      <trkpt lat="48.49172" lon="7.09981">
        <ele>598.79366</ele>
        <time>2023-02-27T12:50:13.000Z</time>
      </trkpt>
      <trkpt lat="48.49173" lon="7.09965">
        <ele>598.69548</ele>
        <time>2023-02-27T12:50:13.000Z</time>
      </trkpt>
      <trkpt lat="48.49174" lon="7.09952">
        <ele>598.88649</ele>
        <time>2023-02-27T12:50:13.000Z</time>
      </trkpt>
      <trkpt lat="48.49176" lon="7.09939">
        <ele>598.56031</ele>
        <time>2023-02-27T12:50:13.000Z</time>
      </trkpt>
      <trkpt lat="48.4918" lon="7.09927">
        <ele>597.5394</ele>
        <time>2023-02-27T12:50:13.000Z</time>
      </trkpt>
      <trkpt lat="48.49184" lon="7.09918">
        <ele>596.29017</ele>
        <time>2023-02-27T12:50:13.000Z</time>
      </trkpt>
      <trkpt lat="48.49193" lon="7.09902">
        <ele>594.4043</ele>
        <time>2023-02-27T12:50:13.000Z</time>
      </trkpt>
      <trkpt lat="48.49202" lon="7.09883">
        <ele>593.55561</ele>
        <time>2023-02-27T12:50:13.000Z</time>
      </trkpt>
      <trkpt lat="48.49206" lon="7.09874">
        <ele>593.14392</ele>
        <time>2023-02-27T12:50:13.000Z</time>
      </trkpt>
      <trkpt lat="48.4921" lon="7.09867">
        <ele>592.59051</ele>
        <time>2023-02-27T12:50:13.000Z</time>
      </trkpt>
      <trkpt lat="48.49222" lon="7.0983">
        <ele>590.84467</ele>
        <time>2023-02-27T12:50:13.000Z</time>
      </trkpt>
      <trkpt lat="48.49226" lon="7.0982">
        <ele>590.9003</ele>
        <time>2023-02-27T12:50:13.000Z</time>
      </trkpt>
      <trkpt lat="48.49231" lon="7.09813">
        <ele>590.85017</ele>
        <time>2023-02-27T12:50:13.000Z</time>
      </trkpt>
      <trkpt lat="48.49237" lon="7.09806">
        <ele>590.67705</ele>
        <time>2023-02-27T12:50:13.000Z</time>
      </trkpt>
      <trkpt lat="48.49245" lon="7.09804">
        <ele>589.91558</ele>
        <time>2023-02-27T12:50:13.000Z</time>
      </trkpt>
      <trkpt lat="48.4925" lon="7.09806">
        <ele>589.2876</ele>
        <time>2023-02-27T12:50:13.000Z</time>
      </trkpt>
      <trkpt lat="48.49256" lon="7.09809">
        <ele>588.59205</ele>
        <time>2023-02-27T12:50:13.000Z</time>
      </trkpt>
      <trkpt lat="48.49262" lon="7.09815">
        <ele>587.66067</ele>
        <time>2023-02-27T12:50:13.000Z</time>
      </trkpt>
      <trkpt lat="48.49268" lon="7.09822">
        <ele>586.611</ele>
        <time>2023-02-27T12:50:13.000Z</time>
      </trkpt>
      <trkpt lat="48.49283" lon="7.09832">
        <ele>585.39499</ele>
        <time>2023-02-27T12:50:13.000Z</time>
      </trkpt>
      <trkpt lat="48.49299" lon="7.09842">
        <ele>585.1087</ele>
        <time>2023-02-27T12:50:13.000Z</time>
      </trkpt>
      <trkpt lat="48.49304" lon="7.0985">
        <ele>584.32347</ele>
        <time>2023-02-27T12:50:13.000Z</time>
      </trkpt>
      <trkpt lat="48.49319" lon="7.09876">
        <ele>581.48833</ele>
        <time>2023-02-27T12:50:13.000Z</time>
      </trkpt>
      <trkpt lat="48.49328" lon="7.09894">
        <ele>579.43021</ele>
        <time>2023-02-27T12:50:13.000Z</time>
      </trkpt>
      <trkpt lat="48.49344" lon="7.09923">
        <ele>576.99079</ele>
        <time>2023-02-27T12:50:13.000Z</time>
      </trkpt>
      <trkpt lat="48.49353" lon="7.09941">
        <ele>575.06226</ele>
        <time>2023-02-27T12:50:13.000Z</time>
      </trkpt>
      <trkpt lat="48.49358" lon="7.09948">
        <ele>574.41185</ele>
        <time>2023-02-27T12:50:13.000Z</time>
      </trkpt>
      <trkpt lat="48.49361" lon="7.09953">
        <ele>573.85994</ele>
        <time>2023-02-27T12:50:13.000Z</time>
      </trkpt>
      <trkpt lat="48.49366" lon="7.0996">
        <ele>572.95032</ele>
        <time>2023-02-27T12:50:13.000Z</time>
      </trkpt>
      <trkpt lat="48.49377" lon="7.0997">
        <ele>571.7407</ele>
        <time>2023-02-27T12:50:13.000Z</time>
      </trkpt>
      <trkpt lat="48.49393" lon="7.0998">
        <ele>570.23581</ele>
        <time>2023-02-27T12:50:13.000Z</time>
      </trkpt>
      <trkpt lat="48.49398" lon="7.09984">
        <ele>569.50038</ele>
        <time>2023-02-27T12:50:13.000Z</time>
      </trkpt>
      <trkpt lat="48.49403" lon="7.09989">
        <ele>568.52477</ele>
        <time>2023-02-27T12:50:13.000Z</time>
      </trkpt>
      <trkpt lat="48.49407" lon="7.09993">
        <ele>567.71952</ele>
        <time>2023-02-27T12:50:13.000Z</time>
      </trkpt>
      <trkpt lat="48.49418" lon="7.10001">
        <ele>566.57577</ele>
        <time>2023-02-27T12:50:13.000Z</time>
      </trkpt>
      <trkpt lat="48.49423" lon="7.10003">
        <ele>566.34331</ele>
        <time>2023-02-27T12:50:13.000Z</time>
      </trkpt>
      <trkpt lat="48.49435" lon="7.1001">
        <ele>565.76821</ele>
        <time>2023-02-27T12:50:13.000Z</time>
      </trkpt>
      <trkpt lat="48.4945" lon="7.10021">
        <ele>564.35224</ele>
        <time>2023-02-27T12:50:13.000Z</time>
      </trkpt>
      <trkpt lat="48.49464" lon="7.10034">
        <ele>562.5461</ele>
        <time>2023-02-27T12:50:13.000Z</time>
      </trkpt>
      <trkpt lat="48.49491" lon="7.1006">
        <ele>559.55507</ele>
        <time>2023-02-27T12:50:13.000Z</time>
      </trkpt>
      <trkpt lat="48.49508" lon="7.10076">
        <ele>558.28403</ele>
        <time>2023-02-27T12:50:13.000Z</time>
      </trkpt>
      <trkpt lat="48.49521" lon="7.10092">
        <ele>556.82341</ele>
        <time>2023-02-27T12:50:13.000Z</time>
      </trkpt>
      <trkpt lat="48.49529" lon="7.10104">
        <ele>556.05494</ele>
        <time>2023-02-27T12:50:13.000Z</time>
      </trkpt>
      <trkpt lat="48.49539" lon="7.10121">
        <ele>555.42346</ele>
        <time>2023-02-27T12:50:13.000Z</time>
      </trkpt>
      <trkpt lat="48.4955" lon="7.10142">
        <ele>554.74177</ele>
        <time>2023-02-27T12:50:13.000Z</time>
      </trkpt>
      <trkpt lat="48.49566" lon="7.10178">
        <ele>552.36961</ele>
        <time>2023-02-27T12:50:13.000Z</time>
      </trkpt>
      <trkpt lat="48.49575" lon="7.10201">
        <ele>549.09546</ele>
        <time>2023-02-27T12:50:13.000Z</time>
      </trkpt>
      <trkpt lat="48.49583" lon="7.10215">
        <ele>547.33429</ele>
        <time>2023-02-27T12:50:13.000Z</time>
      </trkpt>
      <trkpt lat="48.49599" lon="7.10238">
        <ele>544.7851</ele>
        <time>2023-02-27T12:50:13.000Z</time>
      </trkpt>
      <trkpt lat="48.49626" lon="7.10272">
        <ele>542.3067</ele>
        <time>2023-02-27T12:50:13.000Z</time>
      </trkpt>
      <trkpt lat="48.49646" lon="7.10299">
        <ele>539.65524</ele>
        <time>2023-02-27T12:50:13.000Z</time>
      </trkpt>
      <trkpt lat="48.49653" lon="7.10312">
        <ele>538.29259</ele>
        <time>2023-02-27T12:50:13.000Z</time>
      </trkpt>
      <trkpt lat="48.49657" lon="7.1032">
        <ele>537.43901</ele>
        <time>2023-02-27T12:50:13.000Z</time>
      </trkpt>
      <trkpt lat="48.49665" lon="7.10333">
        <ele>535.93563</ele>
        <time>2023-02-27T12:50:13.000Z</time>
      </trkpt>
      <trkpt lat="48.49669" lon="7.10343">
        <ele>534.52333</ele>
        <time>2023-02-27T12:50:13.000Z</time>
      </trkpt>
      <trkpt lat="48.49672" lon="7.10351">
        <ele>533.5018</ele>
        <time>2023-02-27T12:50:13.000Z</time>
      </trkpt>
      <trkpt lat="48.49676" lon="7.1036">
        <ele>532.36961</ele>
        <time>2023-02-27T12:50:13.000Z</time>
      </trkpt>
      <trkpt lat="48.49679" lon="7.10366">
        <ele>531.53773</ele>
        <time>2023-02-27T12:50:13.000Z</time>
      </trkpt>
      <trkpt lat="48.49683" lon="7.10372">
        <ele>530.8143</ele>
        <time>2023-02-27T12:50:13.000Z</time>
      </trkpt>
      <trkpt lat="48.49687" lon="7.10376">
        <ele>530.30531</ele>
        <time>2023-02-27T12:50:13.000Z</time>
      </trkpt>
      <trkpt lat="48.49693" lon="7.10381">
        <ele>529.34534</ele>
        <time>2023-02-27T12:50:13.000Z</time>
      </trkpt>
      <trkpt lat="48.49699" lon="7.10384">
        <ele>528.77406</ele>
        <time>2023-02-27T12:50:13.000Z</time>
      </trkpt>
      <trkpt lat="48.49709" lon="7.10386">
        <ele>527.53337</ele>
        <time>2023-02-27T12:50:13.000Z</time>
      </trkpt>
      <trkpt lat="48.49717" lon="7.10382">
        <ele>527.09174</ele>
        <time>2023-02-27T12:50:13.000Z</time>
      </trkpt>
      <trkpt lat="48.49723" lon="7.10378">
        <ele>526.9666</ele>
        <time>2023-02-27T12:50:13.000Z</time>
      </trkpt>
      <trkpt lat="48.49736" lon="7.10359">
        <ele>527.05581</ele>
        <time>2023-02-27T12:50:13.000Z</time>
      </trkpt>
      <trkpt lat="48.49747" lon="7.10344">
        <ele>525.87929</ele>
        <time>2023-02-27T12:50:13.000Z</time>
      </trkpt>
      <trkpt lat="48.49753" lon="7.10335">
        <ele>525.21234</ele>
        <time>2023-02-27T12:50:13.000Z</time>
      </trkpt>
      <trkpt lat="48.49759" lon="7.10326">
        <ele>524.59252</ele>
        <time>2023-02-27T12:50:13.000Z</time>
      </trkpt>
      <trkpt lat="48.49766" lon="7.10309">
        <ele>523.41278</ele>
        <time>2023-02-27T12:50:13.000Z</time>
      </trkpt>
      <trkpt lat="48.4977" lon="7.10296">
        <ele>521.83811</ele>
        <time>2023-02-27T12:50:13.000Z</time>
      </trkpt>
      <trkpt lat="48.49775" lon="7.10283">
        <ele>520.37222</ele>
        <time>2023-02-27T12:50:13.000Z</time>
      </trkpt>
      <trkpt lat="48.49778" lon="7.10274">
        <ele>519.72123</ele>
        <time>2023-02-27T12:50:13.000Z</time>
      </trkpt>
      <trkpt lat="48.49781" lon="7.10265">
        <ele>519.36139</ele>
        <time>2023-02-27T12:50:13.000Z</time>
      </trkpt>
      <trkpt lat="48.49784" lon="7.10253">
        <ele>519.47318</ele>
        <time>2023-02-27T12:50:13.000Z</time>
      </trkpt>
      <trkpt lat="48.49787" lon="7.10247">
        <ele>519.82988</ele>
        <time>2023-02-27T12:50:13.000Z</time>
      </trkpt>
      <trkpt lat="48.49793" lon="7.10239">
        <ele>520.4119</ele>
        <time>2023-02-27T12:50:13.000Z</time>
      </trkpt>
      <trkpt lat="48.49798" lon="7.10237">
        <ele>520.77249</ele>
        <time>2023-02-27T12:50:13.000Z</time>
      </trkpt>
      <trkpt lat="48.49808" lon="7.10238">
        <ele>520.59401</ele>
        <time>2023-02-27T12:50:13.000Z</time>
      </trkpt>
      <trkpt lat="48.49811" lon="7.10242">
        <ele>519.82644</ele>
        <time>2023-02-27T12:50:13.000Z</time>
      </trkpt>
      <trkpt lat="48.49816" lon="7.10248">
        <ele>518.7341</ele>
        <time>2023-02-27T12:50:13.000Z</time>
      </trkpt>
      <trkpt lat="48.4982" lon="7.10254">
        <ele>517.50803</ele>
        <time>2023-02-27T12:50:13.000Z</time>
      </trkpt>
      <trkpt lat="48.49831" lon="7.10272">
        <ele>514.31451</ele>
        <time>2023-02-27T12:50:13.000Z</time>
      </trkpt>
      <trkpt lat="48.49838" lon="7.1028">
        <ele>513.39698</ele>
        <time>2023-02-27T12:50:13.000Z</time>
      </trkpt>
      <trkpt lat="48.49846" lon="7.10284">
        <ele>513.68448</ele>
        <time>2023-02-27T12:50:13.000Z</time>
      </trkpt>
      <trkpt lat="48.49851" lon="7.10285">
        <ele>513.92234</ele>
        <time>2023-02-27T12:50:13.000Z</time>
      </trkpt>
      <trkpt lat="48.49858" lon="7.10285">
        <ele>514.42904</ele>
        <time>2023-02-27T12:50:13.000Z</time>
      </trkpt>
      <trkpt lat="48.49868" lon="7.10286">
        <ele>514.8012</ele>
        <time>2023-02-27T12:50:13.000Z</time>
      </trkpt>
      <trkpt lat="48.49896" lon="7.10283">
        <ele>514.14974</ele>
        <time>2023-02-27T12:50:13.000Z</time>
      </trkpt>
      <trkpt lat="48.4991" lon="7.10281">
        <ele>511.87742</ele>
        <time>2023-02-27T12:50:13.000Z</time>
      </trkpt>
      <trkpt lat="48.49919" lon="7.1028">
        <ele>510.14858</ele>
        <time>2023-02-27T12:50:13.000Z</time>
      </trkpt>
      <trkpt lat="48.49928" lon="7.10278">
        <ele>507.84931</ele>
        <time>2023-02-27T12:50:13.000Z</time>
      </trkpt>
      <trkpt lat="48.49937" lon="7.10276">
        <ele>505.62817</ele>
        <time>2023-02-27T12:50:13.000Z</time>
      </trkpt>
      <trkpt lat="48.49943" lon="7.10274">
        <ele>504.16455</ele>
        <time>2023-02-27T12:50:13.000Z</time>
      </trkpt>
      <trkpt lat="48.4995" lon="7.10271">
        <ele>502.34589</ele>
        <time>2023-02-27T12:50:13.000Z</time>
      </trkpt>
      <trkpt lat="48.49956" lon="7.10267">
        <ele>501.3507</ele>
        <time>2023-02-27T12:50:13.000Z</time>
      </trkpt>
      <trkpt lat="48.49974" lon="7.10253">
        <ele>498.34772</ele>
        <time>2023-02-27T12:50:13.000Z</time>
      </trkpt>
      <trkpt lat="48.49996" lon="7.10229">
        <ele>495.2328</ele>
        <time>2023-02-27T12:50:13.000Z</time>
      </trkpt>
      <trkpt lat="48.50006" lon="7.10218">
        <ele>495.23563</ele>
        <time>2023-02-27T12:50:13.000Z</time>
      </trkpt>
      <trkpt lat="48.50018" lon="7.10206">
        <ele>494.65254</ele>
        <time>2023-02-27T12:50:13.000Z</time>
      </trkpt>
      <trkpt lat="48.50025" lon="7.10198">
        <ele>494.51355</ele>
        <time>2023-02-27T12:50:13.000Z</time>
      </trkpt>
      <trkpt lat="48.50031" lon="7.10193">
        <ele>494.10344</ele>
        <time>2023-02-27T12:50:13.000Z</time>
      </trkpt>
      <trkpt lat="48.50037" lon="7.10188">
        <ele>493.53539</ele>
        <time>2023-02-27T12:50:13.000Z</time>
      </trkpt>
      <trkpt lat="48.50044" lon="7.10183">
        <ele>492.89717</ele>
        <time>2023-02-27T12:50:13.000Z</time>
      </trkpt>
      <trkpt lat="48.50049" lon="7.10181">
        <ele>491.91769</ele>
        <time>2023-02-27T12:50:13.000Z</time>
      </trkpt>
      <trkpt lat="48.50057" lon="7.10177">
        <ele>490.81163</ele>
        <time>2023-02-27T12:50:13.000Z</time>
      </trkpt>
      <trkpt lat="48.50063" lon="7.10174">
        <ele>489.82581</ele>
        <time>2023-02-27T12:50:13.000Z</time>
      </trkpt>
      <trkpt lat="48.50069" lon="7.10171">
        <ele>488.90555</ele>
        <time>2023-02-27T12:50:13.000Z</time>
      </trkpt>
      <trkpt lat="48.50079" lon="7.10167">
        <ele>487.0722</ele>
        <time>2023-02-27T12:50:13.000Z</time>
      </trkpt>
      <trkpt lat="48.50089" lon="7.1016">
        <ele>485.52102</ele>
        <time>2023-02-27T12:50:13.000Z</time>
      </trkpt>
      <trkpt lat="48.50095" lon="7.10153">
        <ele>484.86762</ele>
        <time>2023-02-27T12:50:13.000Z</time>
      </trkpt>
      <trkpt lat="48.50099" lon="7.10149">
        <ele>484.27503</ele>
        <time>2023-02-27T12:50:13.000Z</time>
      </trkpt>
      <trkpt lat="48.50103" lon="7.10145">
        <ele>483.86307</ele>
        <time>2023-02-27T12:50:13.000Z</time>
      </trkpt>
      <trkpt lat="48.50107" lon="7.1014">
        <ele>483.44842</ele>
        <time>2023-02-27T12:50:13.000Z</time>
      </trkpt>
      <trkpt lat="48.50111" lon="7.10135">
        <ele>483.0121</ele>
        <time>2023-02-27T12:50:13.000Z</time>
      </trkpt>
      <trkpt lat="48.50115" lon="7.10131">
        <ele>482.58914</ele>
        <time>2023-02-27T12:50:13.000Z</time>
      </trkpt>
      <trkpt lat="48.50123" lon="7.10124">
        <ele>481.38797</ele>
        <time>2023-02-27T12:50:13.000Z</time>
      </trkpt>
      <trkpt lat="48.5013" lon="7.1012">
        <ele>480.35066</ele>
        <time>2023-02-27T12:50:13.000Z</time>
      </trkpt>
      <trkpt lat="48.50139" lon="7.10116">
        <ele>478.87185</ele>
        <time>2023-02-27T12:50:13.000Z</time>
      </trkpt>
      <trkpt lat="48.50148" lon="7.10113">
        <ele>477.57436</ele>
        <time>2023-02-27T12:50:13.000Z</time>
      </trkpt>
      <trkpt lat="48.50164" lon="7.10108">
        <ele>475.53678</ele>
        <time>2023-02-27T12:50:13.000Z</time>
      </trkpt>
      <trkpt lat="48.50184" lon="7.10098">
        <ele>474.14599</ele>
        <time>2023-02-27T12:50:13.000Z</time>
      </trkpt>
      <trkpt lat="48.5021" lon="7.10083">
        <ele>472.44647</ele>
        <time>2023-02-27T12:50:13.000Z</time>
      </trkpt>
      <trkpt lat="48.5024" lon="7.1006">
        <ele>470.65937</ele>
        <time>2023-02-27T12:50:13.000Z</time>
      </trkpt>
      <trkpt lat="48.50252" lon="7.10051">
        <ele>469.52449</ele>
        <time>2023-02-27T12:50:13.000Z</time>
      </trkpt>
      <trkpt lat="48.50268" lon="7.1004">
        <ele>467.72528</ele>
        <time>2023-02-27T12:50:13.000Z</time>
      </trkpt>
      <trkpt lat="48.50277" lon="7.10034">
        <ele>466.82713</ele>
        <time>2023-02-27T12:50:13.000Z</time>
      </trkpt>
      <trkpt lat="48.50283" lon="7.10031">
        <ele>466.11285</ele>
        <time>2023-02-27T12:50:13.000Z</time>
      </trkpt>
      <trkpt lat="48.50288" lon="7.10029">
        <ele>465.51374</ele>
        <time>2023-02-27T12:50:13.000Z</time>
      </trkpt>
      <trkpt lat="48.50293" lon="7.10027">
        <ele>464.84446</ele>
        <time>2023-02-27T12:50:13.000Z</time>
      </trkpt>
      <trkpt lat="48.50298" lon="7.10026">
        <ele>464.16814</ele>
        <time>2023-02-27T12:50:13.000Z</time>
      </trkpt>
      <trkpt lat="48.50303" lon="7.10026">
        <ele>463.5331</ele>
        <time>2023-02-27T12:50:13.000Z</time>
      </trkpt>
      <trkpt lat="48.50311" lon="7.10024">
        <ele>462.57886</ele>
        <time>2023-02-27T12:50:13.000Z</time>
      </trkpt>
      <trkpt lat="48.50316" lon="7.10021">
        <ele>462.10436</ele>
        <time>2023-02-27T12:50:13.000Z</time>
      </trkpt>
      <trkpt lat="48.5032" lon="7.10017">
        <ele>461.77846</ele>
        <time>2023-02-27T12:50:13.000Z</time>
      </trkpt>
      <trkpt lat="48.50337" lon="7.10009">
        <ele>460.2099</ele>
        <time>2023-02-27T12:50:13.000Z</time>
      </trkpt>
      <trkpt lat="48.50351" lon="7.10004">
        <ele>459.11243</ele>
        <time>2023-02-27T12:50:13.000Z</time>
      </trkpt>
      <trkpt lat="48.5038" lon="7.0999">
        <ele>458.18904</ele>
        <time>2023-02-27T12:50:13.000Z</time>
      </trkpt>
      <trkpt lat="48.50396" lon="7.09977">
        <ele>458.40912</ele>
        <time>2023-02-27T12:50:13.000Z</time>
      </trkpt>
      <trkpt lat="48.50409" lon="7.09963">
        <ele>458.79511</ele>
        <time>2023-02-27T12:50:13.000Z</time>
      </trkpt>
      <trkpt lat="48.50421" lon="7.09948">
        <ele>459.04955</ele>
        <time>2023-02-27T12:50:13.000Z</time>
      </trkpt>
      <trkpt lat="48.50432" lon="7.09932">
        <ele>459.53764</ele>
        <time>2023-02-27T12:50:13.000Z</time>
      </trkpt>
      <trkpt lat="48.50442" lon="7.09917">
        <ele>460.01334</ele>
        <time>2023-02-27T12:50:13.000Z</time>
      </trkpt>
      <trkpt lat="48.50453" lon="7.09909">
        <ele>460.20875</ele>
        <time>2023-02-27T12:50:13.000Z</time>
      </trkpt>
      <trkpt lat="48.50465" lon="7.09901">
        <ele>460.29643</ele>
        <time>2023-02-27T12:50:13.000Z</time>
      </trkpt>
      <trkpt lat="48.50481" lon="7.099">
        <ele>459.58846</ele>
        <time>2023-02-27T12:50:13.000Z</time>
      </trkpt>
      <trkpt lat="48.50501" lon="7.09894">
        <ele>459.30606</ele>
        <time>2023-02-27T12:50:13.000Z</time>
      </trkpt>
      <trkpt lat="48.5052" lon="7.09888">
        <ele>458.99309</ele>
        <time>2023-02-27T12:50:13.000Z</time>
      </trkpt>
      <trkpt lat="48.5054" lon="7.09877">
        <ele>458.81578</ele>
        <time>2023-02-27T12:50:13.000Z</time>
      </trkpt>
      <trkpt lat="48.50564" lon="7.0986">
        <ele>458.0626</ele>
        <time>2023-02-27T12:50:13.000Z</time>
      </trkpt>
      <trkpt lat="48.50613" lon="7.09823">
        <ele>455.83208</ele>
        <time>2023-02-27T12:50:13.000Z</time>
      </trkpt>
      <trkpt lat="48.50664" lon="7.09787">
        <ele>455.03957</ele>
        <time>2023-02-27T12:50:13.000Z</time>
      </trkpt>
      <trkpt lat="48.50675" lon="7.09782">
        <ele>454.73299</ele>
        <time>2023-02-27T12:50:13.000Z</time>
      </trkpt>
      <trkpt lat="48.50686" lon="7.09779">
        <ele>454.10539</ele>
        <time>2023-02-27T12:50:13.000Z</time>
      </trkpt>
      <trkpt lat="48.50698" lon="7.09776">
        <ele>453.50016</ele>
        <time>2023-02-27T12:50:13.000Z</time>
      </trkpt>
      <trkpt lat="48.50712" lon="7.0977">
        <ele>452.92321</ele>
        <time>2023-02-27T12:50:13.000Z</time>
      </trkpt>
      <trkpt lat="48.50724" lon="7.09764">
        <ele>452.54114</ele>
        <time>2023-02-27T12:50:13.000Z</time>
      </trkpt>
      <trkpt lat="48.50744" lon="7.09752">
        <ele>452.17302</ele>
        <time>2023-02-27T12:50:13.000Z</time>
      </trkpt>
      <trkpt lat="48.50754" lon="7.09744">
        <ele>452.06772</ele>
        <time>2023-02-27T12:50:13.000Z</time>
      </trkpt>
      <trkpt lat="48.50771" lon="7.0973">
        <ele>451.75214</ele>
        <time>2023-02-27T12:50:13.000Z</time>
      </trkpt>
      <trkpt lat="48.50784" lon="7.09719">
        <ele>451.25453</ele>
        <time>2023-02-27T12:50:13.000Z</time>
      </trkpt>
      <trkpt lat="48.50797" lon="7.09708">
        <ele>450.51892</ele>
        <time>2023-02-27T12:50:13.000Z</time>
      </trkpt>
      <trkpt lat="48.50813" lon="7.09692">
        <ele>449.64815</ele>
        <time>2023-02-27T12:50:13.000Z</time>
      </trkpt>
      <trkpt lat="48.50828" lon="7.09678">
        <ele>448.89567</ele>
        <time>2023-02-27T12:50:13.000Z</time>
      </trkpt>
      <trkpt lat="48.50845" lon="7.09662">
        <ele>448.24321</ele>
        <time>2023-02-27T12:50:13.000Z</time>
      </trkpt>
      <trkpt lat="48.50859" lon="7.09649">
        <ele>447.73577</ele>
        <time>2023-02-27T12:50:13.000Z</time>
      </trkpt>
      <trkpt lat="48.50873" lon="7.09634">
        <ele>447.17292</ele>
        <time>2023-02-27T12:50:13.000Z</time>
      </trkpt>
      <trkpt lat="48.50882" lon="7.09627">
        <ele>446.65114</ele>
        <time>2023-02-27T12:50:13.000Z</time>
      </trkpt>
      <trkpt lat="48.51051" lon="7.09846">
        <ele>447.11552</ele>
        <time>2023-02-27T12:50:13.000Z</time>
        <extensions>
          <visugpx:TrkExtension xmlns:visugpx="https://www.visugpx.com/editgpx/">
            <visugpx:node>1</visugpx:node>
            </visugpx:TrkExtension>
        </extensions>
      </trkpt>
      <trkpt lat="48.51121" lon="7.09873">
        <ele>444.7</ele>
        <extensions>
          <visugpx:TrkExtension xmlns:visugpx="https://www.visugpx.com/editgpx/">
            <visugpx:node>2</visugpx:node>
            </visugpx:TrkExtension>
        </extensions>
      </trkpt>
    </trkseg>
  </trk>
  <trk>
    <name><![CDATA[Ranch du Donon - 12,3km]]></name>
    <extensions>
      <line xmlns="http://www.topografix.com/GPX/gpx_style/0/2">
        <color>FF0000</color>
        <opacity>1</opacity>
        <width>4</width>
      </line>
    </extensions>
    <trkseg>
      <trkpt lat="48.50325" lon="7.10033">
        <ele>460.53716</ele>
        <time>2024-10-12T07:04:16.000Z</time>
      </trkpt>
      <trkpt lat="48.5033" lon="7.10021">
        <ele>460.46902</ele>
        <time>2024-10-12T07:04:22.683Z</time>
      </trkpt>
      <trkpt lat="48.50323" lon="7.10014">
        <ele>461.51</ele>
        <time>2024-10-12T07:04:29.149Z</time>
      </trkpt>
      <trkpt lat="48.5032" lon="7.10017">
        <ele>461.77846</ele>
        <time>2024-10-12T07:04:31.923Z</time>
      </trkpt>
      <trkpt lat="48.50316" lon="7.10021">
        <ele>462.10436</ele>
        <time>2024-10-12T07:04:35.306Z</time>
      </trkpt>
      <trkpt lat="48.50311" lon="7.10024">
        <ele>462.57886</ele>
        <time>2024-10-12T07:04:39.014Z</time>
      </trkpt>
      <trkpt lat="48.50307" lon="7.10026">
        <ele>462.99547</ele>
        <time>2024-10-12T07:04:41.974Z</time>
      </trkpt>
      <trkpt lat="48.50303" lon="7.10026">
        <ele>463.5331</ele>
        <time>2024-10-12T07:04:45.145Z</time>
      </trkpt>
      <trkpt lat="48.50298" lon="7.10026">
        <ele>464.16814</ele>
        <time>2024-10-12T07:04:48.836Z</time>
      </trkpt>
      <trkpt lat="48.50293" lon="7.10027">
        <ele>464.84446</ele>
        <time>2024-10-12T07:04:52.875Z</time>
      </trkpt>
      <trkpt lat="48.50288" lon="7.10029">
        <ele>465.51374</ele>
        <time>2024-10-12T07:04:56.919Z</time>
      </trkpt>
      <trkpt lat="48.50283" lon="7.10031">
        <ele>466.11285</ele>
        <time>2024-10-12T07:05:00.577Z</time>
      </trkpt>
      <trkpt lat="48.50278" lon="7.10034">
        <ele>466.68597</ele>
        <time>2024-10-12T07:05:04.579Z</time>
      </trkpt>
      <trkpt lat="48.50268" lon="7.1004">
        <ele>467.72528</ele>
        <time>2024-10-12T07:05:12.303Z</time>
      </trkpt>
      <trkpt lat="48.50246" lon="7.10015">
        <ele>477.30403</ele>
        <time>2024-10-12T07:05:48.689Z</time>
      </trkpt>
      <trkpt lat="48.50233" lon="7.10016">
        <ele>480.53127</ele>
        <time>2024-10-12T07:06:02.497Z</time>
      </trkpt>
      <trkpt lat="48.50215" lon="7.10014">
        <ele>484.86163</ele>
        <time>2024-10-12T07:06:20.945Z</time>
      </trkpt>
      <trkpt lat="48.50182" lon="7.1002">
        <ele>491.11238</ele>
        <time>2024-10-12T07:06:51.799Z</time>
      </trkpt>
      <trkpt lat="48.50144" lon="7.10017">
        <ele>498.11138</ele>
        <time>2024-10-12T07:07:27.115Z</time>
      </trkpt>
      <trkpt lat="48.50128" lon="7.10015">
        <ele>501.26402</ele>
        <time>2024-10-12T07:07:42.116Z</time>
      </trkpt>
      <trkpt lat="48.50116" lon="7.10015">
        <ele>503.70391</ele>
        <time>2024-10-12T07:07:53.439Z</time>
      </trkpt>
      <trkpt lat="48.50109" lon="7.10017">
        <ele>505.10902</ele>
        <time>2024-10-12T07:08:00.137Z</time>
      </trkpt>
      <trkpt lat="48.50103" lon="7.10017">
        <ele>506.34786</ele>
        <time>2024-10-12T07:08:05.951Z</time>
      </trkpt>
      <trkpt lat="48.50098" lon="7.10018">
        <ele>507.53233</ele>
        <time>2024-10-12T07:08:11.496Z</time>
      </trkpt>
      <trkpt lat="48.50091" lon="7.10019">
        <ele>508.8664</ele>
        <time>2024-10-12T07:08:17.580Z</time>
      </trkpt>
      <trkpt lat="48.50085" lon="7.1002">
        <ele>510.38006</ele>
        <time>2024-10-12T07:08:24.482Z</time>
      </trkpt>
      <trkpt lat="48.50073" lon="7.10025">
        <ele>512.68397</ele>
        <time>2024-10-12T07:08:35.590Z</time>
      </trkpt>
      <trkpt lat="48.50059" lon="7.10028">
        <ele>515.98477</ele>
        <time>2024-10-12T07:08:50.103Z</time>
      </trkpt>
      <trkpt lat="48.50052" lon="7.10031">
        <ele>517.73217</ele>
        <time>2024-10-12T07:08:57.807Z</time>
      </trkpt>
      <trkpt lat="48.50043" lon="7.10034">
        <ele>520.06068</ele>
        <time>2024-10-12T07:09:07.641Z</time>
      </trkpt>
      <trkpt lat="48.50033" lon="7.10036">
        <ele>522.98612</ele>
        <time>2024-10-12T07:09:19.261Z</time>
      </trkpt>
      <trkpt lat="48.50024" lon="7.10038">
        <ele>525.91655</ele>
        <time>2024-10-12T07:09:30.487Z</time>
      </trkpt>
      <trkpt lat="48.50018" lon="7.10041">
        <ele>527.98177</ele>
        <time>2024-10-12T07:09:38.631Z</time>
      </trkpt>
      <trkpt lat="48.5001" lon="7.10048">
        <ele>529.95866</ele>
        <time>2024-10-12T07:09:47.381Z</time>
      </trkpt>
      <trkpt lat="48.50004" lon="7.10056">
        <ele>531.73571</ele>
        <time>2024-10-12T07:09:55.813Z</time>
      </trkpt>
      <trkpt lat="48.49999" lon="7.10061">
        <ele>533.07391</ele>
        <time>2024-10-12T07:10:01.712Z</time>
      </trkpt>
      <trkpt lat="48.49991" lon="7.10063">
        <ele>535.08126</ele>
        <time>2024-10-12T07:10:09.927Z</time>
      </trkpt>
      <trkpt lat="48.49984" lon="7.10065">
        <ele>536.793</ele>
        <time>2024-10-12T07:10:17.342Z</time>
      </trkpt>
      <trkpt lat="48.49975" lon="7.10069">
        <ele>538.68408</ele>
        <time>2024-10-12T07:10:26.591Z</time>
      </trkpt>
      <trkpt lat="48.49965" lon="7.10073">
        <ele>540.34526</ele>
        <time>2024-10-12T07:10:35.481Z</time>
      </trkpt>
      <trkpt lat="48.49954" lon="7.10075">
        <ele>542.03138</ele>
        <time>2024-10-12T07:10:44.828Z</time>
      </trkpt>
      <trkpt lat="48.49901" lon="7.101">
        <ele>549.67156</ele>
        <time>2024-10-12T07:11:29.317Z</time>
      </trkpt>
      <trkpt lat="48.49871" lon="7.10103">
        <ele>553.80924</ele>
        <time>2024-10-12T07:11:53.277Z</time>
      </trkpt>
      <trkpt lat="48.49818" lon="7.1009">
        <ele>557.16715</ele>
        <time>2024-10-12T07:12:29.991Z</time>
      </trkpt>
      <trkpt lat="48.49743" lon="7.10045">
        <ele>568.4957</ele>
        <time>2024-10-12T07:13:35.100Z</time>
      </trkpt>
      <trkpt lat="48.49731" lon="7.10044">
        <ele>569.93488</ele>
        <time>2024-10-12T07:13:44.153Z</time>
      </trkpt>
      <trkpt lat="48.49716" lon="7.10045">
        <ele>571.70925</ele>
        <time>2024-10-12T07:13:55.674Z</time>
      </trkpt>
      <trkpt lat="48.49701" lon="7.10048">
        <ele>573.54439</ele>
        <time>2024-10-12T07:14:06.825Z</time>
      </trkpt>
      <trkpt lat="48.49674" lon="7.1007">
        <ele>576.63057</ele>
        <time>2024-10-12T07:14:29.175Z</time>
      </trkpt>
      <trkpt lat="48.49643" lon="7.10078">
        <ele>579.8844</ele>
        <time>2024-10-12T07:14:52.003Z</time>
      </trkpt>
      <trkpt lat="48.4961" lon="7.1006">
        <ele>580.91636</ele>
        <time>2024-10-12T07:15:16.271Z</time>
      </trkpt>
      <trkpt lat="48.49593" lon="7.10031">
        <ele>583.2593</ele>
        <time>2024-10-12T07:15:34.227Z</time>
      </trkpt>
      <trkpt lat="48.49585" lon="7.10016">
        <ele>584.72914</ele>
        <time>2024-10-12T07:15:43.760Z</time>
      </trkpt>
      <trkpt lat="48.49591" lon="7.10018">
        <ele>585.07809</ele>
        <time>2024-10-12T07:15:48.476Z</time>
      </trkpt>
      <trkpt lat="48.49603" lon="7.10022">
        <ele>585.501</ele>
        <time>2024-10-12T07:15:56.647Z</time>
      </trkpt>
      <trkpt lat="48.49614" lon="7.10027">
        <ele>585.50315</ele>
        <time>2024-10-12T07:16:04.817Z</time>
      </trkpt>
      <trkpt lat="48.49621" lon="7.10029">
        <ele>585.58651</ele>
        <time>2024-10-12T07:16:10.480Z</time>
      </trkpt>
      <trkpt lat="48.49627" lon="7.10028">
        <ele>585.70743</ele>
        <time>2024-10-12T07:16:14.181Z</time>
      </trkpt>
      <trkpt lat="48.49634" lon="7.10026">
        <ele>585.78892</ele>
        <time>2024-10-12T07:16:19.080Z</time>
      </trkpt>
      <trkpt lat="48.49641" lon="7.10023">
        <ele>585.81503</ele>
        <time>2024-10-12T07:16:24.328Z</time>
      </trkpt>
      <trkpt lat="48.49648" lon="7.10019">
        <ele>585.76453</ele>
        <time>2024-10-12T07:16:30.515Z</time>
      </trkpt>
      <trkpt lat="48.49655" lon="7.10014">
        <ele>585.70675</ele>
        <time>2024-10-12T07:16:36.099Z</time>
      </trkpt>
      <trkpt lat="48.49662" lon="7.10008">
        <ele>585.58638</ele>
        <time>2024-10-12T07:16:42.105Z</time>
      </trkpt>
      <trkpt lat="48.49676" lon="7.09996">
        <ele>585.33017</ele>
        <time>2024-10-12T07:16:54.724Z</time>
      </trkpt>
      <trkpt lat="48.49683" lon="7.09992">
        <ele>585.24083</ele>
        <time>2024-10-12T07:17:00.173Z</time>
      </trkpt>
      <trkpt lat="48.49695" lon="7.09984">
        <ele>584.89002</ele>
        <time>2024-10-12T07:17:10.939Z</time>
      </trkpt>
      <trkpt lat="48.49705" lon="7.0998">
        <ele>584.42706</ele>
        <time>2024-10-12T07:17:19.600Z</time>
      </trkpt>
      <trkpt lat="48.49737" lon="7.09966">
        <ele>584.59356</ele>
        <time>2024-10-12T07:17:43.043Z</time>
      </trkpt>
      <trkpt lat="48.49759" lon="7.09957">
        <ele>585.12916</ele>
        <time>2024-10-12T07:17:59.156Z</time>
      </trkpt>
      <trkpt lat="48.49769" lon="7.09953">
        <ele>585.38832</ele>
        <time>2024-10-12T07:18:06.353Z</time>
      </trkpt>
      <trkpt lat="48.49778" lon="7.0995">
        <ele>585.44646</ele>
        <time>2024-10-12T07:18:12.907Z</time>
      </trkpt>
      <trkpt lat="48.49786" lon="7.09947">
        <ele>585.37721</ele>
        <time>2024-10-12T07:18:19.463Z</time>
      </trkpt>
      <trkpt lat="48.49794" lon="7.09944">
        <ele>585.29483</ele>
        <time>2024-10-12T07:18:25.586Z</time>
      </trkpt>
      <trkpt lat="48.49802" lon="7.09941">
        <ele>585.19312</ele>
        <time>2024-10-12T07:18:31.917Z</time>
      </trkpt>
      <trkpt lat="48.4981" lon="7.09937">
        <ele>585.08404</ele>
        <time>2024-10-12T07:18:38.150Z</time>
      </trkpt>
      <trkpt lat="48.49817" lon="7.09931">
        <ele>585.05625</ele>
        <time>2024-10-12T07:18:44.183Z</time>
      </trkpt>
      <trkpt lat="48.49826" lon="7.09924">
        <ele>584.92179</ele>
        <time>2024-10-12T07:18:51.633Z</time>
      </trkpt>
      <trkpt lat="48.49839" lon="7.09913">
        <ele>584.34991</ele>
        <time>2024-10-12T07:19:03.812Z</time>
      </trkpt>
      <trkpt lat="48.49847" lon="7.09905">
        <ele>583.94829</ele>
        <time>2024-10-12T07:19:12.208Z</time>
      </trkpt>
      <trkpt lat="48.49855" lon="7.09894">
        <ele>583.68987</ele>
        <time>2024-10-12T07:19:20.401Z</time>
      </trkpt>
      <trkpt lat="48.49866" lon="7.09877">
        <ele>583.19899</ele>
        <time>2024-10-12T07:19:33.268Z</time>
      </trkpt>
      <trkpt lat="48.49877" lon="7.09859">
        <ele>581.82161</ele>
        <time>2024-10-12T07:19:48.780Z</time>
      </trkpt>
      <trkpt lat="48.49887" lon="7.09841">
        <ele>580.22614</ele>
        <time>2024-10-12T07:20:04.833Z</time>
      </trkpt>
      <trkpt lat="48.49898" lon="7.09816">
        <ele>578.76807</ele>
        <time>2024-10-12T07:20:23.366Z</time>
      </trkpt>
      <trkpt lat="48.49916" lon="7.0978">
        <ele>577.45818</ele>
        <time>2024-10-12T07:20:48.487Z</time>
      </trkpt>
      <trkpt lat="48.49925" lon="7.09764">
        <ele>577.2622</ele>
        <time>2024-10-12T07:20:58.804Z</time>
      </trkpt>
      <trkpt lat="48.49932" lon="7.09749">
        <ele>577.73688</ele>
        <time>2024-10-12T07:21:07.129Z</time>
      </trkpt>
      <trkpt lat="48.49937" lon="7.09739">
        <ele>577.63137</ele>
        <time>2024-10-12T07:21:13.718Z</time>
      </trkpt>
      <trkpt lat="48.49943" lon="7.0973">
        <ele>577.29306</ele>
        <time>2024-10-12T07:21:20.401Z</time>
      </trkpt>
      <trkpt lat="48.4995" lon="7.09719">
        <ele>577.22138</ele>
        <time>2024-10-12T07:21:28.134Z</time>
      </trkpt>
      <trkpt lat="48.49956" lon="7.09708">
        <ele>577.23016</ele>
        <time>2024-10-12T07:21:34.802Z</time>
      </trkpt>
      <trkpt lat="48.49966" lon="7.09687">
        <ele>577.49267</ele>
        <time>2024-10-12T07:21:46.994Z</time>
      </trkpt>
      <trkpt lat="48.4999" lon="7.09638">
        <ele>578.93577</ele>
        <time>2024-10-12T07:22:14.589Z</time>
      </trkpt>
      <trkpt lat="48.50014" lon="7.09582">
        <ele>581.73411</ele>
        <time>2024-10-12T07:22:45.100Z</time>
      </trkpt>
      <trkpt lat="48.50045" lon="7.095">
        <ele>581.79228</ele>
        <time>2024-10-12T07:23:30.656Z</time>
      </trkpt>
      <trkpt lat="48.50068" lon="7.09437">
        <ele>579.38537</ele>
        <time>2024-10-12T07:24:11.567Z</time>
      </trkpt>
      <trkpt lat="48.50074" lon="7.09419">
        <ele>578.82349</ele>
        <time>2024-10-12T07:24:22.268Z</time>
      </trkpt>
      <trkpt lat="48.50089" lon="7.09387">
        <ele>575.96667</ele>
        <time>2024-10-12T07:24:49.984Z</time>
      </trkpt>
      <trkpt lat="48.50093" lon="7.0938">
        <ele>575.32787</ele>
        <time>2024-10-12T07:24:56.484Z</time>
      </trkpt>
      <trkpt lat="48.50097" lon="7.09373">
        <ele>574.96431</ele>
        <time>2024-10-12T07:25:01.872Z</time>
      </trkpt>
      <trkpt lat="48.50101" lon="7.09367">
        <ele>575.04334</ele>
        <time>2024-10-12T07:25:05.817Z</time>
      </trkpt>
      <trkpt lat="48.50106" lon="7.09359">
        <ele>575.57238</ele>
        <time>2024-10-12T07:25:10.993Z</time>
      </trkpt>
      <trkpt lat="48.5011" lon="7.09353">
        <ele>576.12759</ele>
        <time>2024-10-12T07:25:14.698Z</time>
      </trkpt>
      <trkpt lat="48.50114" lon="7.09348">
        <ele>577.16571</ele>
        <time>2024-10-12T07:25:19.539Z</time>
      </trkpt>
      <trkpt lat="48.50117" lon="7.09344">
        <ele>578.0621</ele>
        <time>2024-10-12T07:25:23.674Z</time>
      </trkpt>
      <trkpt lat="48.5012" lon="7.0934">
        <ele>578.87396</ele>
        <time>2024-10-12T07:25:27.629Z</time>
      </trkpt>
      <trkpt lat="48.50123" lon="7.09337">
        <ele>579.52498</ele>
        <time>2024-10-12T07:25:31.003Z</time>
      </trkpt>
      <trkpt lat="48.50128" lon="7.09333">
        <ele>580.31442</ele>
        <time>2024-10-12T07:25:35.615Z</time>
      </trkpt>
      <trkpt lat="48.50133" lon="7.0933">
        <ele>580.85175</ele>
        <time>2024-10-12T07:25:39.018Z</time>
      </trkpt>
      <trkpt lat="48.50137" lon="7.09328">
        <ele>581.45421</ele>
        <time>2024-10-12T07:25:42.522Z</time>
      </trkpt>
      <trkpt lat="48.50143" lon="7.09326">
        <ele>582.25206</ele>
        <time>2024-10-12T07:25:47.301Z</time>
      </trkpt>
      <trkpt lat="48.50147" lon="7.09324">
        <ele>582.78737</ele>
        <time>2024-10-12T07:25:50.807Z</time>
      </trkpt>
      <trkpt lat="48.50153" lon="7.09323">
        <ele>583.24346</ele>
        <time>2024-10-12T07:25:54.848Z</time>
      </trkpt>
      <trkpt lat="48.5016" lon="7.09322">
        <ele>583.84177</ele>
        <time>2024-10-12T07:25:59.690Z</time>
      </trkpt>
      <trkpt lat="48.50167" lon="7.09321">
        <ele>584.35086</ele>
        <time>2024-10-12T07:26:04.659Z</time>
      </trkpt>
      <trkpt lat="48.50175" lon="7.0932">
        <ele>584.96859</ele>
        <time>2024-10-12T07:26:10.080Z</time>
      </trkpt>
      <trkpt lat="48.50183" lon="7.09319">
        <ele>585.74359</ele>
        <time>2024-10-12T07:26:15.568Z</time>
      </trkpt>
      <trkpt lat="48.5019" lon="7.09319">
        <ele>585.99675</ele>
        <time>2024-10-12T07:26:20.678Z</time>
      </trkpt>
      <trkpt lat="48.50198" lon="7.09317">
        <ele>586.66908</ele>
        <time>2024-10-12T07:26:26.404Z</time>
      </trkpt>
      <trkpt lat="48.50206" lon="7.09316">
        <ele>587.29363</ele>
        <time>2024-10-12T07:26:31.652Z</time>
      </trkpt>
      <trkpt lat="48.50215" lon="7.09314">
        <ele>588.03486</ele>
        <time>2024-10-12T07:26:38.405Z</time>
      </trkpt>
      <trkpt lat="48.50224" lon="7.09313">
        <ele>588.57572</ele>
        <time>2024-10-12T07:26:44.129Z</time>
      </trkpt>
      <trkpt lat="48.50232" lon="7.09311">
        <ele>589.02156</ele>
        <time>2024-10-12T07:26:49.537Z</time>
      </trkpt>
      <trkpt lat="48.50241" lon="7.0931">
        <ele>589.72613</ele>
        <time>2024-10-12T07:26:56.013Z</time>
      </trkpt>
      <trkpt lat="48.50248" lon="7.09308">
        <ele>590.53938</ele>
        <time>2024-10-12T07:27:01.472Z</time>
      </trkpt>
      <trkpt lat="48.50256" lon="7.09306">
        <ele>591.51442</ele>
        <time>2024-10-12T07:27:07.422Z</time>
      </trkpt>
      <trkpt lat="48.50262" lon="7.09304">
        <ele>592.23352</ele>
        <time>2024-10-12T07:27:12.113Z</time>
      </trkpt>
      <trkpt lat="48.50269" lon="7.09302">
        <ele>593.2595</ele>
        <time>2024-10-12T07:27:18.029Z</time>
      </trkpt>
      <trkpt lat="48.50274" lon="7.093">
        <ele>594.12098</ele>
        <time>2024-10-12T07:27:22.518Z</time>
      </trkpt>
      <trkpt lat="48.50279" lon="7.09298">
        <ele>595.17331</ele>
        <time>2024-10-12T07:27:27.299Z</time>
      </trkpt>
      <trkpt lat="48.50284" lon="7.09295">
        <ele>596.802</ele>
        <time>2024-10-12T07:27:33.842Z</time>
      </trkpt>
      <trkpt lat="48.50289" lon="7.09293">
        <ele>598.20837</ele>
        <time>2024-10-12T07:27:39.390Z</time>
      </trkpt>
      <trkpt lat="48.50295" lon="7.0929">
        <ele>599.40148</ele>
        <time>2024-10-12T07:27:45.206Z</time>
      </trkpt>
      <trkpt lat="48.50302" lon="7.09288">
        <ele>600.25767</ele>
        <time>2024-10-12T07:27:50.877Z</time>
      </trkpt>
      <trkpt lat="48.50311" lon="7.09286">
        <ele>600.46252</ele>
        <time>2024-10-12T07:27:57.199Z</time>
      </trkpt>
      <trkpt lat="48.50321" lon="7.09283">
        <ele>600.72427</ele>
        <time>2024-10-12T07:28:04.251Z</time>
      </trkpt>
      <trkpt lat="48.50332" lon="7.0928">
        <ele>600.67243</ele>
        <time>2024-10-12T07:28:12.598Z</time>
      </trkpt>
      <trkpt lat="48.5034" lon="7.09278">
        <ele>600.30825</ele>
        <time>2024-10-12T07:28:19.047Z</time>
      </trkpt>
      <trkpt lat="48.50348" lon="7.09276">
        <ele>599.79554</ele>
        <time>2024-10-12T07:28:26.286Z</time>
      </trkpt>
      <trkpt lat="48.50354" lon="7.09274">
        <ele>599.69319</ele>
        <time>2024-10-12T07:28:30.745Z</time>
      </trkpt>
      <trkpt lat="48.5036" lon="7.09271">
        <ele>599.79426</ele>
        <time>2024-10-12T07:28:35.169Z</time>
      </trkpt>
      <trkpt lat="48.50366" lon="7.09268">
        <ele>599.92734</ele>
        <time>2024-10-12T07:28:40.175Z</time>
      </trkpt>
      <trkpt lat="48.50372" lon="7.09265">
        <ele>600.31144</ele>
        <time>2024-10-12T07:28:44.386Z</time>
      </trkpt>
      <trkpt lat="48.50378" lon="7.09261">
        <ele>600.78759</ele>
        <time>2024-10-12T07:28:48.967Z</time>
      </trkpt>
      <trkpt lat="48.50382" lon="7.09258">
        <ele>601.25858</ele>
        <time>2024-10-12T07:28:51.903Z</time>
      </trkpt>
      <trkpt lat="48.50388" lon="7.09253">
        <ele>602.05273</ele>
        <time>2024-10-12T07:28:57.281Z</time>
      </trkpt>
      <trkpt lat="48.504" lon="7.09242">
        <ele>603.88547</ele>
        <time>2024-10-12T07:29:08.304Z</time>
      </trkpt>
      <trkpt lat="48.50407" lon="7.09237">
        <ele>604.05176</ele>
        <time>2024-10-12T07:29:13.489Z</time>
      </trkpt>
      <trkpt lat="48.50415" lon="7.0923">
        <ele>604.681</ele>
        <time>2024-10-12T07:29:20.121Z</time>
      </trkpt>
      <trkpt lat="48.50424" lon="7.09221">
        <ele>605.67875</ele>
        <time>2024-10-12T07:29:27.473Z</time>
      </trkpt>
      <trkpt lat="48.50433" lon="7.09209">
        <ele>607.09352</ele>
        <time>2024-10-12T07:29:36.374Z</time>
      </trkpt>
      <trkpt lat="48.50445" lon="7.09193">
        <ele>609.67733</ele>
        <time>2024-10-12T07:29:50.308Z</time>
      </trkpt>
      <trkpt lat="48.50459" lon="7.09168">
        <ele>612.73728</ele>
        <time>2024-10-12T07:30:07.943Z</time>
      </trkpt>
      <trkpt lat="48.50472" lon="7.09144">
        <ele>614.53588</ele>
        <time>2024-10-12T07:30:22.320Z</time>
      </trkpt>
      <trkpt lat="48.50484" lon="7.09121">
        <ele>615.69628</ele>
        <time>2024-10-12T07:30:35.515Z</time>
      </trkpt>
      <trkpt lat="48.50492" lon="7.091">
        <ele>617.10961</ele>
        <time>2024-10-12T07:30:46.649Z</time>
      </trkpt>
      <trkpt lat="48.50497" lon="7.0908">
        <ele>619.14793</ele>
        <time>2024-10-12T07:30:58.236Z</time>
      </trkpt>
      <trkpt lat="48.50502" lon="7.09062">
        <ele>620.10097</ele>
        <time>2024-10-12T07:31:07.148Z</time>
      </trkpt>
      <trkpt lat="48.50507" lon="7.09044">
        <ele>620.21703</ele>
        <time>2024-10-12T07:31:16.329Z</time>
      </trkpt>
      <trkpt lat="48.50512" lon="7.09024">
        <ele>619.4343</ele>
        <time>2024-10-12T07:31:28.669Z</time>
      </trkpt>
      <trkpt lat="48.50515" lon="7.09005">
        <ele>618.9872</ele>
        <time>2024-10-12T07:31:39.016Z</time>
      </trkpt>
      <trkpt lat="48.50517" lon="7.08993">
        <ele>619.00889</ele>
        <time>2024-10-12T07:31:45.141Z</time>
      </trkpt>
      <trkpt lat="48.50518" lon="7.08979">
        <ele>619.57628</ele>
        <time>2024-10-12T07:31:51.456Z</time>
      </trkpt>
      <trkpt lat="48.50518" lon="7.08963">
        <ele>620.19609</ele>
        <time>2024-10-12T07:31:58.865Z</time>
      </trkpt>
      <trkpt lat="48.50517" lon="7.08947">
        <ele>620.94199</ele>
        <time>2024-10-12T07:32:06.176Z</time>
      </trkpt>
      <trkpt lat="48.50516" lon="7.08934">
        <ele>621.34951</ele>
        <time>2024-10-12T07:32:11.826Z</time>
      </trkpt>
      <trkpt lat="48.50514" lon="7.08916">
        <ele>622.13143</ele>
        <time>2024-10-12T07:32:20.371Z</time>
      </trkpt>
      <trkpt lat="48.5051" lon="7.08902">
        <ele>623.11359</ele>
        <time>2024-10-12T07:32:27.500Z</time>
      </trkpt>
      <trkpt lat="48.50504" lon="7.08886">
        <ele>624.24236</ele>
        <time>2024-10-12T07:32:36.057Z</time>
      </trkpt>
      <trkpt lat="48.50497" lon="7.08873">
        <ele>624.53442</ele>
        <time>2024-10-12T07:32:43.419Z</time>
      </trkpt>
      <trkpt lat="48.50494" lon="7.08867">
        <ele>623.95669</ele>
        <time>2024-10-12T07:32:49.052Z</time>
      </trkpt>
      <trkpt lat="48.50488" lon="7.08855">
        <ele>622.08637</ele>
        <time>2024-10-12T07:33:04.358Z</time>
      </trkpt>
      <trkpt lat="48.5048" lon="7.08844">
        <ele>620.10391</ele>
        <time>2024-10-12T07:33:20.567Z</time>
      </trkpt>
      <trkpt lat="48.50471" lon="7.08834">
        <ele>618.42274</ele>
        <time>2024-10-12T07:33:34.577Z</time>
      </trkpt>
      <trkpt lat="48.50462" lon="7.08827">
        <ele>616.9854</ele>
        <time>2024-10-12T07:33:46.707Z</time>
      </trkpt>
      <trkpt lat="48.50451" lon="7.0882">
        <ele>615.88459</ele>
        <time>2024-10-12T07:33:58.436Z</time>
      </trkpt>
      <trkpt lat="48.50443" lon="7.08818">
        <ele>615.71065</ele>
        <time>2024-10-12T07:34:05.193Z</time>
      </trkpt>
      <trkpt lat="48.50438" lon="7.08817">
        <ele>615.98419</ele>
        <time>2024-10-12T07:34:08.812Z</time>
      </trkpt>
      <trkpt lat="48.50433" lon="7.08817">
        <ele>615.98209</ele>
        <time>2024-10-12T07:34:12.394Z</time>
      </trkpt>
      <trkpt lat="48.50424" lon="7.08818">
        <ele>616.2701</ele>
        <time>2024-10-12T07:34:18.481Z</time>
      </trkpt>
      <trkpt lat="48.50413" lon="7.08821">
        <ele>617.12035</ele>
        <time>2024-10-12T07:34:26.495Z</time>
      </trkpt>
      <trkpt lat="48.50399" lon="7.08826">
        <ele>617.78355</ele>
        <time>2024-10-12T07:34:36.019Z</time>
      </trkpt>
      <trkpt lat="48.50386" lon="7.08836">
        <ele>619.69432</ele>
        <time>2024-10-12T07:34:47.548Z</time>
      </trkpt>
      <trkpt lat="48.50365" lon="7.0885">
        <ele>622.10078</ele>
        <time>2024-10-12T07:35:03.773Z</time>
      </trkpt>
      <trkpt lat="48.50352" lon="7.08858">
        <ele>622.99005</ele>
        <time>2024-10-12T07:35:13.753Z</time>
      </trkpt>
      <trkpt lat="48.5034" lon="7.08866">
        <ele>623.59638</ele>
        <time>2024-10-12T07:35:22.943Z</time>
      </trkpt>
      <trkpt lat="48.50327" lon="7.08872">
        <ele>623.42535</ele>
        <time>2024-10-12T07:35:33.182Z</time>
      </trkpt>
      <trkpt lat="48.50311" lon="7.08882">
        <ele>624.47652</ele>
        <time>2024-10-12T07:35:44.673Z</time>
      </trkpt>
      <trkpt lat="48.50283" lon="7.08901">
        <ele>626.16107</ele>
        <time>2024-10-12T07:36:05.364Z</time>
      </trkpt>
      <trkpt lat="48.50265" lon="7.08913">
        <ele>627.08076</ele>
        <time>2024-10-12T07:36:19.338Z</time>
      </trkpt>
      <trkpt lat="48.50248" lon="7.08921">
        <ele>627.82489</ele>
        <time>2024-10-12T07:36:31.502Z</time>
      </trkpt>
      <trkpt lat="48.50239" lon="7.08926">
        <ele>628.34699</ele>
        <time>2024-10-12T07:36:37.769Z</time>
      </trkpt>
      <trkpt lat="48.50219" lon="7.08937">
        <ele>629.98864</ele>
        <time>2024-10-12T07:36:52.340Z</time>
      </trkpt>
      <trkpt lat="48.50204" lon="7.08943">
        <ele>630.78198</ele>
        <time>2024-10-12T07:37:03.141Z</time>
      </trkpt>
      <trkpt lat="48.50192" lon="7.08947">
        <ele>631.57782</ele>
        <time>2024-10-12T07:37:11.423Z</time>
      </trkpt>
      <trkpt lat="48.50185" lon="7.08949">
        <ele>631.95228</ele>
        <time>2024-10-12T07:37:16.362Z</time>
      </trkpt>
      <trkpt lat="48.50176" lon="7.08951">
        <ele>632.14703</ele>
        <time>2024-10-12T07:37:22.899Z</time>
      </trkpt>
      <trkpt lat="48.50166" lon="7.0895">
        <ele>631.78293</ele>
        <time>2024-10-12T07:37:30.958Z</time>
      </trkpt>
      <trkpt lat="48.50158" lon="7.0895">
        <ele>632.03787</ele>
        <time>2024-10-12T07:37:36.846Z</time>
      </trkpt>
      <trkpt lat="48.50148" lon="7.08948">
        <ele>632.27825</ele>
        <time>2024-10-12T07:37:43.647Z</time>
      </trkpt>
      <trkpt lat="48.50135" lon="7.08943">
        <ele>632.40883</ele>
        <time>2024-10-12T07:37:53.084Z</time>
      </trkpt>
      <trkpt lat="48.50121" lon="7.08935">
        <ele>632.1406</ele>
        <time>2024-10-12T07:38:04.542Z</time>
      </trkpt>
      <trkpt lat="48.50111" lon="7.08928">
        <ele>632.19209</ele>
        <time>2024-10-12T07:38:12.433Z</time>
      </trkpt>
      <trkpt lat="48.501" lon="7.08917">
        <ele>631.85797</ele>
        <time>2024-10-12T07:38:23.028Z</time>
      </trkpt>
      <trkpt lat="48.50086" lon="7.08903">
        <ele>632.62646</ele>
        <time>2024-10-12T07:38:35.043Z</time>
      </trkpt>
      <trkpt lat="48.5007" lon="7.08883">
        <ele>633.70109</ele>
        <time>2024-10-12T07:38:48.955Z</time>
      </trkpt>
      <trkpt lat="48.50057" lon="7.08865">
        <ele>635.55077</ele>
        <time>2024-10-12T07:39:01.516Z</time>
      </trkpt>
      <trkpt lat="48.50037" lon="7.08819">
        <ele>637.42252</ele>
        <time>2024-10-12T07:39:26.566Z</time>
      </trkpt>
      <trkpt lat="48.50011" lon="7.0877">
        <ele>642.66888</ele>
        <time>2024-10-12T07:39:58.410Z</time>
      </trkpt>
      <trkpt lat="48.50004" lon="7.08751">
        <ele>642.28801</ele>
        <time>2024-10-12T07:40:10.003Z</time>
      </trkpt>
      <trkpt lat="48.49997" lon="7.08727">
        <ele>641.3445</ele>
        <time>2024-10-12T07:40:25.084Z</time>
      </trkpt>
      <trkpt lat="48.49978" lon="7.08681">
        <ele>641.97255</ele>
        <time>2024-10-12T07:40:50.311Z</time>
      </trkpt>
      <trkpt lat="48.49966" lon="7.08655">
        <ele>642.74382</ele>
        <time>2024-10-12T07:41:04.821Z</time>
      </trkpt>
      <trkpt lat="48.49959" lon="7.08635">
        <ele>641.88588</ele>
        <time>2024-10-12T07:41:17.800Z</time>
      </trkpt>
      <trkpt lat="48.49955" lon="7.08617">
        <ele>641.42901</ele>
        <time>2024-10-12T07:41:28.276Z</time>
      </trkpt>
      <trkpt lat="48.4995" lon="7.08596">
        <ele>640.79392</ele>
        <time>2024-10-12T07:41:40.610Z</time>
      </trkpt>
      <trkpt lat="48.49949" lon="7.0859">
        <ele>640.63151</ele>
        <time>2024-10-12T07:41:43.880Z</time>
      </trkpt>
      <trkpt lat="48.49943" lon="7.08564">
        <ele>639.58194</ele>
        <time>2024-10-12T07:41:59.931Z</time>
      </trkpt>
      <trkpt lat="48.49921" lon="7.08487">
        <ele>639.57974</ele>
        <time>2024-10-12T07:42:40.572Z</time>
      </trkpt>
      <trkpt lat="48.49913" lon="7.08465">
        <ele>639.76456</ele>
        <time>2024-10-12T07:42:52.083Z</time>
      </trkpt>
      <trkpt lat="48.49901" lon="7.08421">
        <ele>637.93979</ele>
        <time>2024-10-12T07:43:19.946Z</time>
      </trkpt>
      <trkpt lat="48.4989" lon="7.08401">
        <ele>639.01273</ele>
        <time>2024-10-12T07:43:31.672Z</time>
      </trkpt>
      <trkpt lat="48.49884" lon="7.0839">
        <ele>639.28972</ele>
        <time>2024-10-12T07:43:38.138Z</time>
      </trkpt>
      <trkpt lat="48.49875" lon="7.08379">
        <ele>640.29958</ele>
        <time>2024-10-12T07:43:46.480Z</time>
      </trkpt>
      <trkpt lat="48.49863" lon="7.08364">
        <ele>641.03414</ele>
        <time>2024-10-12T07:43:56.968Z</time>
      </trkpt>
      <trkpt lat="48.49856" lon="7.08357">
        <ele>641.22967</ele>
        <time>2024-10-12T07:44:02.712Z</time>
      </trkpt>
      <trkpt lat="48.49848" lon="7.0835">
        <ele>641.48909</ele>
        <time>2024-10-12T07:44:09.221Z</time>
      </trkpt>
      <trkpt lat="48.49839" lon="7.08343">
        <ele>641.36093</ele>
        <time>2024-10-12T07:44:17.064Z</time>
      </trkpt>
      <trkpt lat="48.49831" lon="7.08338">
        <ele>640.75308</ele>
        <time>2024-10-12T07:44:25.088Z</time>
      </trkpt>
      <trkpt lat="48.49823" lon="7.08335">
        <ele>640.80941</ele>
        <time>2024-10-12T07:44:30.395Z</time>
      </trkpt>
      <trkpt lat="48.49815" lon="7.08333">
        <ele>640.84004</ele>
        <time>2024-10-12T07:44:36.615Z</time>
      </trkpt>
      <trkpt lat="48.49806" lon="7.08332">
        <ele>640.68032</ele>
        <time>2024-10-12T07:44:43.379Z</time>
      </trkpt>
      <trkpt lat="48.49795" lon="7.08332">
        <ele>640.27612</ele>
        <time>2024-10-12T07:44:52.765Z</time>
      </trkpt>
      <trkpt lat="48.49783" lon="7.08334">
        <ele>639.44573</ele>
        <time>2024-10-12T07:45:03.240Z</time>
      </trkpt>
      <trkpt lat="48.49774" lon="7.08336">
        <ele>638.79931</ele>
        <time>2024-10-12T07:45:12.229Z</time>
      </trkpt>
      <trkpt lat="48.49765" lon="7.0834">
        <ele>638.45851</ele>
        <time>2024-10-12T07:45:19.912Z</time>
      </trkpt>
      <trkpt lat="48.49759" lon="7.08343">
        <ele>638.06356</ele>
        <time>2024-10-12T07:45:25.019Z</time>
      </trkpt>
      <trkpt lat="48.49753" lon="7.08347">
        <ele>637.80771</ele>
        <time>2024-10-12T07:45:30.754Z</time>
      </trkpt>
      <trkpt lat="48.49748" lon="7.08354">
        <ele>637.86631</ele>
        <time>2024-10-12T07:45:35.697Z</time>
      </trkpt>
      <trkpt lat="48.49742" lon="7.08363">
        <ele>638.06983</ele>
        <time>2024-10-12T07:45:41.561Z</time>
      </trkpt>
      <trkpt lat="48.49734" lon="7.08374">
        <ele>638.32574</ele>
        <time>2024-10-12T07:45:48.594Z</time>
      </trkpt>
      <trkpt lat="48.4973" lon="7.08381">
        <ele>638.42952</ele>
        <time>2024-10-12T07:45:53.493Z</time>
      </trkpt>
      <trkpt lat="48.49725" lon="7.08388">
        <ele>637.98342</ele>
        <time>2024-10-12T07:45:59.700Z</time>
      </trkpt>
      <trkpt lat="48.49718" lon="7.08395">
        <ele>636.81957</ele>
        <time>2024-10-12T07:46:09.521Z</time>
      </trkpt>
      <trkpt lat="48.49712" lon="7.08402">
        <ele>636.03258</ele>
        <time>2024-10-12T07:46:17.539Z</time>
      </trkpt>
      <trkpt lat="48.49706" lon="7.08409">
        <ele>635.03098</ele>
        <time>2024-10-12T07:46:26.152Z</time>
      </trkpt>
      <trkpt lat="48.49701" lon="7.08418">
        <ele>634.29878</ele>
        <time>2024-10-12T07:46:34.337Z</time>
      </trkpt>
      <trkpt lat="48.49694" lon="7.08431">
        <ele>633.70709</ele>
        <time>2024-10-12T07:46:43.794Z</time>
      </trkpt>
      <trkpt lat="48.49684" lon="7.08454">
        <ele>633.45623</ele>
        <time>2024-10-12T07:46:57.451Z</time>
      </trkpt>
      <trkpt lat="48.49675" lon="7.08474">
        <ele>632.97628</ele>
        <time>2024-10-12T07:47:10.601Z</time>
      </trkpt>
      <trkpt lat="48.49664" lon="7.08496">
        <ele>631.43293</ele>
        <time>2024-10-12T07:47:27.827Z</time>
      </trkpt>
      <trkpt lat="48.49656" lon="7.08515">
        <ele>630.47487</ele>
        <time>2024-10-12T07:47:41.461Z</time>
      </trkpt>
      <trkpt lat="48.49643" lon="7.08545">
        <ele>628.89222</ele>
        <time>2024-10-12T07:48:02.488Z</time>
      </trkpt>
      <trkpt lat="48.49632" lon="7.08572">
        <ele>627.57165</ele>
        <time>2024-10-12T07:48:21.794Z</time>
      </trkpt>
      <trkpt lat="48.4962" lon="7.08602">
        <ele>626.61445</ele>
        <time>2024-10-12T07:48:40.977Z</time>
      </trkpt>
      <trkpt lat="48.49609" lon="7.08627">
        <ele>625.55887</ele>
        <time>2024-10-12T07:48:58.148Z</time>
      </trkpt>
      <trkpt lat="48.49597" lon="7.08654">
        <ele>624.43459</ele>
        <time>2024-10-12T07:49:16.694Z</time>
      </trkpt>
      <trkpt lat="48.49584" lon="7.08684">
        <ele>623.25213</ele>
        <time>2024-10-12T07:49:36.984Z</time>
      </trkpt>
      <trkpt lat="48.49575" lon="7.08707">
        <ele>622.5245</ele>
        <time>2024-10-12T07:49:51.810Z</time>
      </trkpt>
      <trkpt lat="48.49573" lon="7.08711">
        <ele>622.34414</ele>
        <time>2024-10-12T07:49:54.178Z</time>
      </trkpt>
      <trkpt lat="48.49566" lon="7.08729">
        <ele>621.09192</ele>
        <time>2024-10-12T07:50:08.313Z</time>
      </trkpt>
      <trkpt lat="48.49558" lon="7.08748">
        <ele>619.53375</ele>
        <time>2024-10-12T07:50:23.544Z</time>
      </trkpt>
      <trkpt lat="48.49548" lon="7.0877">
        <ele>617.29965</ele>
        <time>2024-10-12T07:50:43.421Z</time>
      </trkpt>
      <trkpt lat="48.49537" lon="7.08796">
        <ele>614.36364</ele>
        <time>2024-10-12T07:51:08.662Z</time>
      </trkpt>
      <trkpt lat="48.49531" lon="7.08809">
        <ele>612.50091</ele>
        <time>2024-10-12T07:51:23.894Z</time>
      </trkpt>
      <trkpt lat="48.49527" lon="7.08816">
        <ele>611.33126</ele>
        <time>2024-10-12T07:51:33.445Z</time>
      </trkpt>
      <trkpt lat="48.49525" lon="7.0882">
        <ele>610.25749</ele>
        <time>2024-10-12T07:51:42.631Z</time>
      </trkpt>
      <trkpt lat="48.4952" lon="7.08824">
        <ele>608.46177</ele>
        <time>2024-10-12T07:51:57.539Z</time>
      </trkpt>
      <trkpt lat="48.49515" lon="7.08829">
        <ele>606.60893</ele>
        <time>2024-10-12T07:52:13.546Z</time>
      </trkpt>
      <trkpt lat="48.49508" lon="7.08834">
        <ele>603.90427</ele>
        <time>2024-10-12T07:52:36.954Z</time>
      </trkpt>
      <trkpt lat="48.49498" lon="7.08842">
        <ele>601.34274</ele>
        <time>2024-10-12T07:52:58.236Z</time>
      </trkpt>
      <trkpt lat="48.49486" lon="7.0885">
        <ele>599.74373</ele>
        <time>2024-10-12T07:53:12.482Z</time>
      </trkpt>
      <trkpt lat="48.49471" lon="7.08862">
        <ele>599.97296</ele>
        <time>2024-10-12T07:53:24.668Z</time>
      </trkpt>
      <trkpt lat="48.49457" lon="7.08873">
        <ele>600.8892</ele>
        <time>2024-10-12T07:53:35.823Z</time>
      </trkpt>
      <trkpt lat="48.49429" lon="7.0889">
        <ele>600.76172</ele>
        <time>2024-10-12T07:53:58.081Z</time>
      </trkpt>
      <trkpt lat="48.49408" lon="7.08901">
        <ele>599.45071</ele>
        <time>2024-10-12T07:54:17.595Z</time>
      </trkpt>
      <trkpt lat="48.49389" lon="7.08909">
        <ele>597.97519</ele>
        <time>2024-10-12T07:54:35.985Z</time>
      </trkpt>
      <trkpt lat="48.49379" lon="7.08912">
        <ele>597.19251</ele>
        <time>2024-10-12T07:54:45.426Z</time>
      </trkpt>
      <trkpt lat="48.4937" lon="7.08913">
        <ele>596.20902</ele>
        <time>2024-10-12T07:54:54.771Z</time>
      </trkpt>
      <trkpt lat="48.49361" lon="7.08913">
        <ele>595.04766</ele>
        <time>2024-10-12T07:55:05.305Z</time>
      </trkpt>
      <trkpt lat="48.49351" lon="7.0891">
        <ele>593.26604</ele>
        <time>2024-10-12T07:55:19.871Z</time>
      </trkpt>
      <trkpt lat="48.49341" lon="7.08905">
        <ele>590.92457</ele>
        <time>2024-10-12T07:55:39.240Z</time>
      </trkpt>
      <trkpt lat="48.49331" lon="7.08895">
        <ele>587.8601</ele>
        <time>2024-10-12T07:56:05.489Z</time>
      </trkpt>
      <trkpt lat="48.49326" lon="7.08883">
        <ele>584.62508</ele>
        <time>2024-10-12T07:56:32.944Z</time>
      </trkpt>
      <trkpt lat="48.4931" lon="7.08844">
        <ele>581.40074</ele>
        <time>2024-10-12T07:57:04.528Z</time>
      </trkpt>
      <trkpt lat="48.49295" lon="7.08793">
        <ele>584.32806</ele>
        <time>2024-10-12T07:57:30.316Z</time>
      </trkpt>
      <trkpt lat="48.49292" lon="7.08781">
        <ele>584.71114</ele>
        <time>2024-10-12T07:57:36.307Z</time>
      </trkpt>
      <trkpt lat="48.49275" lon="7.08722">
        <ele>585.79506</ele>
        <time>2024-10-12T07:58:05.932Z</time>
      </trkpt>
      <trkpt lat="48.49253" lon="7.08645">
        <ele>585.61339</ele>
        <time>2024-10-12T07:58:46.945Z</time>
      </trkpt>
      <trkpt lat="48.49239" lon="7.08598">
        <ele>586.64581</ele>
        <time>2024-10-12T07:59:10.524Z</time>
      </trkpt>
      <trkpt lat="48.49237" lon="7.08591">
        <ele>586.71765</ele>
        <time>2024-10-12T07:59:13.964Z</time>
      </trkpt>
      <trkpt lat="48.49217" lon="7.08524">
        <ele>587.07768</ele>
        <time>2024-10-12T07:59:49.009Z</time>
      </trkpt>
      <trkpt lat="48.49204" lon="7.08485">
        <ele>588.21864</ele>
        <time>2024-10-12T08:00:08.719Z</time>
      </trkpt>
      <trkpt lat="48.49177" lon="7.08396">
        <ele>590.65902</ele>
        <time>2024-10-12T08:00:53.426Z</time>
      </trkpt>
      <trkpt lat="48.4916" lon="7.08338">
        <ele>593.80692</ele>
        <time>2024-10-12T08:01:22.250Z</time>
      </trkpt>
      <trkpt lat="48.49148" lon="7.0828">
        <ele>597.46523</ele>
        <time>2024-10-12T08:01:50.633Z</time>
      </trkpt>
      <trkpt lat="48.49144" lon="7.08246">
        <ele>598.87933</ele>
        <time>2024-10-12T08:02:06.405Z</time>
      </trkpt>
      <trkpt lat="48.49143" lon="7.08189">
        <ele>599.74829</ele>
        <time>2024-10-12T08:02:32.453Z</time>
      </trkpt>
      <trkpt lat="48.49143" lon="7.08171">
        <ele>600.31812</ele>
        <time>2024-10-12T08:02:40.850Z</time>
      </trkpt>
      <trkpt lat="48.49143" lon="7.08153">
        <ele>600.98699</ele>
        <time>2024-10-12T08:02:49.158Z</time>
      </trkpt>
      <trkpt lat="48.49143" lon="7.08119">
        <ele>602.58864</ele>
        <time>2024-10-12T08:03:04.508Z</time>
      </trkpt>
      <trkpt lat="48.49148" lon="7.08084">
        <ele>603.45668</ele>
        <time>2024-10-12T08:03:20.746Z</time>
      </trkpt>
      <trkpt lat="48.49155" lon="7.0804">
        <ele>604.41682</ele>
        <time>2024-10-12T08:03:41.461Z</time>
      </trkpt>
      <trkpt lat="48.49161" lon="7.07996">
        <ele>605.3</ele>
        <time>2024-10-12T08:04:02.072Z</time>
      </trkpt>
      <trkpt lat="48.49166" lon="7.07951">
        <ele>606.44632</ele>
        <time>2024-10-12T08:04:22.877Z</time>
      </trkpt>
      <trkpt lat="48.49172" lon="7.07897">
        <ele>606.70284</ele>
        <time>2024-10-12T08:04:48.956Z</time>
      </trkpt>
      <trkpt lat="48.49175" lon="7.07865">
        <ele>606.58056</ele>
        <time>2024-10-12T08:05:05.014Z</time>
      </trkpt>
      <trkpt lat="48.49177" lon="7.07839">
        <ele>607.24735</ele>
        <time>2024-10-12T08:05:16.641Z</time>
      </trkpt>
      <trkpt lat="48.49179" lon="7.07795">
        <ele>608.02642</ele>
        <time>2024-10-12T08:05:37.027Z</time>
      </trkpt>
      <trkpt lat="48.4918" lon="7.07757">
        <ele>608.22407</ele>
        <time>2024-10-12T08:05:55.141Z</time>
      </trkpt>
      <trkpt lat="48.4918" lon="7.0774">
        <ele>608.21826</ele>
        <time>2024-10-12T08:06:03.313Z</time>
      </trkpt>
      <trkpt lat="48.49181" lon="7.07732">
        <ele>608.14072</ele>
        <time>2024-10-12T08:06:07.657Z</time>
      </trkpt>
      <trkpt lat="48.4918" lon="7.07728">
        <ele>608.25469</ele>
        <time>2024-10-12T08:06:09.389Z</time>
      </trkpt>
      <trkpt lat="48.49179" lon="7.07701">
        <ele>608.93139</ele>
        <time>2024-10-12T08:06:21.704Z</time>
      </trkpt>
      <trkpt lat="48.49176" lon="7.07671">
        <ele>610.34087</ele>
        <time>2024-10-12T08:06:35.582Z</time>
      </trkpt>
      <trkpt lat="48.49164" lon="7.07611">
        <ele>615.21206</ele>
        <time>2024-10-12T08:07:06.491Z</time>
      </trkpt>
      <trkpt lat="48.4916" lon="7.0759">
        <ele>616.38135</ele>
        <time>2024-10-12T08:07:16.777Z</time>
      </trkpt>
      <trkpt lat="48.49157" lon="7.07571">
        <ele>617.16523</ele>
        <time>2024-10-12T08:07:25.728Z</time>
      </trkpt>
      <trkpt lat="48.49152" lon="7.07542">
        <ele>617.95056</ele>
        <time>2024-10-12T08:07:39.247Z</time>
      </trkpt>
      <trkpt lat="48.49152" lon="7.0754">
        <ele>617.97482</ele>
        <time>2024-10-12T08:07:40.248Z</time>
      </trkpt>
      <trkpt lat="48.49156" lon="7.07492">
        <ele>611.83384</ele>
        <time>2024-10-12T08:08:30.485Z</time>
      </trkpt>
      <trkpt lat="48.49157" lon="7.07441">
        <ele>606.46759</ele>
        <time>2024-10-12T08:09:14.933Z</time>
      </trkpt>
      <trkpt lat="48.49148" lon="7.07376">
        <ele>604.8824</ele>
        <time>2024-10-12T08:09:51.140Z</time>
      </trkpt>
      <trkpt lat="48.49151" lon="7.07335">
        <ele>599.90071</ele>
        <time>2024-10-12T08:10:31.869Z</time>
      </trkpt>
      <trkpt lat="48.49149" lon="7.07277">
        <ele>599.2441</ele>
        <time>2024-10-12T08:11:01.502Z</time>
      </trkpt>
      <trkpt lat="48.4915" lon="7.07261">
        <ele>599.07508</ele>
        <time>2024-10-12T08:11:09.729Z</time>
      </trkpt>
      <trkpt lat="48.49153" lon="7.07222">
        <ele>600.17377</ele>
        <time>2024-10-12T08:11:27.514Z</time>
      </trkpt>
      <trkpt lat="48.49156" lon="7.07194">
        <ele>600.88617</ele>
        <time>2024-10-12T08:11:40.684Z</time>
      </trkpt>
      <trkpt lat="48.49163" lon="7.07165">
        <ele>600.73704</ele>
        <time>2024-10-12T08:11:55.823Z</time>
      </trkpt>
      <trkpt lat="48.49172" lon="7.07135">
        <ele>599.56924</ele>
        <time>2024-10-12T08:12:14.947Z</time>
      </trkpt>
      <trkpt lat="48.4918" lon="7.0712">
        <ele>597.83569</ele>
        <time>2024-10-12T08:12:29.755Z</time>
      </trkpt>
      <trkpt lat="48.49191" lon="7.07099">
        <ele>595.58319</ele>
        <time>2024-10-12T08:12:49.807Z</time>
      </trkpt>
      <trkpt lat="48.49214" lon="7.07057">
        <ele>590.73533</ele>
        <time>2024-10-12T08:13:32.626Z</time>
      </trkpt>
      <trkpt lat="48.49245" lon="7.07006">
        <ele>583.52335</ele>
        <time>2024-10-12T08:14:32.500Z</time>
      </trkpt>
      <trkpt lat="48.4928" lon="7.06942">
        <ele>575.33527</ele>
        <time>2024-10-12T08:15:41.542Z</time>
      </trkpt>
      <trkpt lat="48.49305" lon="7.06875">
        <ele>571.71119</ele>
        <time>2024-10-12T08:16:28.223Z</time>
      </trkpt>
      <trkpt lat="48.49325" lon="7.06828">
        <ele>567.13746</ele>
        <time>2024-10-12T08:17:09.530Z</time>
      </trkpt>
      <trkpt lat="48.49338" lon="7.06783">
        <ele>564.16219</ele>
        <time>2024-10-12T08:17:41.452Z</time>
      </trkpt>
      <trkpt lat="48.49355" lon="7.06714">
        <ele>557.80535</ele>
        <time>2024-10-12T08:18:38.012Z</time>
      </trkpt>
      <trkpt lat="48.49373" lon="7.06626">
        <ele>551.3375</ele>
        <time>2024-10-12T08:19:41.612Z</time>
      </trkpt>
      <trkpt lat="48.49389" lon="7.0654">
        <ele>542.96123</ele>
        <time>2024-10-12T08:20:53.162Z</time>
      </trkpt>
      <trkpt lat="48.49392" lon="7.06517">
        <ele>541.0858</ele>
        <time>2024-10-12T08:21:10.432Z</time>
      </trkpt>
      <trkpt lat="48.49391" lon="7.06506">
        <ele>542.39896</ele>
        <time>2024-10-12T08:21:17.461Z</time>
      </trkpt>
      <trkpt lat="48.49392" lon="7.06496">
        <ele>541.56612</ele>
        <time>2024-10-12T08:21:24.952Z</time>
      </trkpt>
      <trkpt lat="48.49395" lon="7.06487">
        <ele>539.83212</ele>
        <time>2024-10-12T08:21:39.936Z</time>
      </trkpt>
      <trkpt lat="48.494" lon="7.06476">
        <ele>537.42556</ele>
        <time>2024-10-12T08:22:00.803Z</time>
      </trkpt>
      <trkpt lat="48.49406" lon="7.06455">
        <ele>533.68323</ele>
        <time>2024-10-12T08:22:32.805Z</time>
      </trkpt>
      <trkpt lat="48.49415" lon="7.06406">
        <ele>528.67045</ele>
        <time>2024-10-12T08:23:15.250Z</time>
      </trkpt>
      <trkpt lat="48.49426" lon="7.06333">
        <ele>522.19434</ele>
        <time>2024-10-12T08:24:12.532Z</time>
      </trkpt>
      <trkpt lat="48.49441" lon="7.06259">
        <ele>512.7514</ele>
        <time>2024-10-12T08:25:29.808Z</time>
      </trkpt>
      <trkpt lat="48.49444" lon="7.06238">
        <ele>510.67722</ele>
        <time>2024-10-12T08:25:47.643Z</time>
      </trkpt>
      <trkpt lat="48.49446" lon="7.06223">
        <ele>509.42759</ele>
        <time>2024-10-12T08:25:58.775Z</time>
      </trkpt>
      <trkpt lat="48.49449" lon="7.06201">
        <ele>507.40615</ele>
        <time>2024-10-12T08:26:16.375Z</time>
      </trkpt>
      <trkpt lat="48.4945" lon="7.06179">
        <ele>506.76061</ele>
        <time>2024-10-12T08:26:28.574Z</time>
      </trkpt>
      <trkpt lat="48.49451" lon="7.06151">
        <ele>505.3781</ele>
        <time>2024-10-12T08:26:45.784Z</time>
      </trkpt>
      <trkpt lat="48.49454" lon="7.0613">
        <ele>502.8066</ele>
        <time>2024-10-12T08:27:06.809Z</time>
      </trkpt>
      <trkpt lat="48.49458" lon="7.06104">
        <ele>499.96749</ele>
        <time>2024-10-12T08:27:30.384Z</time>
      </trkpt>
      <trkpt lat="48.49461" lon="7.06077">
        <ele>497.65468</ele>
        <time>2024-10-12T08:27:50.989Z</time>
      </trkpt>
      <trkpt lat="48.49461" lon="7.06057">
        <ele>497.6164</ele>
        <time>2024-10-12T08:28:00.638Z</time>
      </trkpt>
      <trkpt lat="48.49462" lon="7.06035">
        <ele>496.66541</ele>
        <time>2024-10-12T08:28:13.993Z</time>
      </trkpt>
      <trkpt lat="48.49464" lon="7.06007">
        <ele>494.68026</ele>
        <time>2024-10-12T08:28:33.203Z</time>
      </trkpt>
      <trkpt lat="48.49463" lon="7.05988">
        <ele>494.19389</ele>
        <time>2024-10-12T08:28:43.688Z</time>
      </trkpt>
      <trkpt lat="48.49462" lon="7.05967">
        <ele>494.023</ele>
        <time>2024-10-12T08:28:54.145Z</time>
      </trkpt>
      <trkpt lat="48.49462" lon="7.05947">
        <ele>493.03674</ele>
        <time>2024-10-12T08:29:06.763Z</time>
      </trkpt>
      <trkpt lat="48.49461" lon="7.05927">
        <ele>491.84705</ele>
        <time>2024-10-12T08:29:19.542Z</time>
      </trkpt>
      <trkpt lat="48.4946" lon="7.05904">
        <ele>490.25175</ele>
        <time>2024-10-12T08:29:35.646Z</time>
      </trkpt>
      <trkpt lat="48.49457" lon="7.05887">
        <ele>489.76571</ele>
        <time>2024-10-12T08:29:45.270Z</time>
      </trkpt>
      <trkpt lat="48.49453" lon="7.05866">
        <ele>489.303</ele>
        <time>2024-10-12T08:29:56.586Z</time>
      </trkpt>
      <trkpt lat="48.49451" lon="7.0585">
        <ele>488.5483</ele>
        <time>2024-10-12T08:30:06.799Z</time>
      </trkpt>
      <trkpt lat="48.4945" lon="7.05829">
        <ele>486.09022</ele>
        <time>2024-10-12T08:30:26.895Z</time>
      </trkpt>
      <trkpt lat="48.49448" lon="7.05814">
        <ele>484.60418</ele>
        <time>2024-10-12T08:30:39.460Z</time>
      </trkpt>
      <trkpt lat="48.49444" lon="7.05795">
        <ele>483.39542</ele>
        <time>2024-10-12T08:30:52.495Z</time>
      </trkpt>
      <trkpt lat="48.49439" lon="7.05773">
        <ele>481.88642</ele>
        <time>2024-10-12T08:31:08.113Z</time>
      </trkpt>
      <trkpt lat="48.49436" lon="7.05757">
        <ele>480.86393</ele>
        <time>2024-10-12T08:31:19.113Z</time>
      </trkpt>
      <trkpt lat="48.49412" lon="7.05683">
        <ele>475.8854</ele>
        <time>2024-10-12T08:32:12.844Z</time>
      </trkpt>
      <trkpt lat="48.49387" lon="7.05614">
        <ele>465.95549</ele>
        <time>2024-10-12T08:33:34.128Z</time>
      </trkpt>
      <trkpt lat="48.49365" lon="7.05564">
        <ele>459.53054</ele>
        <time>2024-10-12T08:34:27.296Z</time>
      </trkpt>
      <trkpt lat="48.49363" lon="7.05559">
        <ele>458.99985</ele>
        <time>2024-10-12T08:34:31.897Z</time>
      </trkpt>
      <trkpt lat="48.49359" lon="7.05547">
        <ele>457.69124</ele>
        <time>2024-10-12T08:34:42.832Z</time>
      </trkpt>
      <trkpt lat="48.49354" lon="7.0553">
        <ele>455.8866</ele>
        <time>2024-10-12T08:34:58.318Z</time>
      </trkpt>
      <trkpt lat="48.49359" lon="7.05533">
        <ele>455.42922</ele>
        <time>2024-10-12T08:35:03.470Z</time>
      </trkpt>
      <trkpt lat="48.4937" lon="7.05538">
        <ele>453.85059</ele>
        <time>2024-10-12T08:35:17.136Z</time>
      </trkpt>
      <trkpt lat="48.4938" lon="7.05556">
        <ele>454.4501</ele>
        <time>2024-10-12T08:35:27.887Z</time>
      </trkpt>
      <trkpt lat="48.49424" lon="7.0563">
        <ele>457.05059</ele>
        <time>2024-10-12T08:36:13.640Z</time>
      </trkpt>
      <trkpt lat="48.49456" lon="7.05685">
        <ele>456.06867</ele>
        <time>2024-10-12T08:36:51.468Z</time>
      </trkpt>
      <trkpt lat="48.49465" lon="7.0571">
        <ele>456.03366</ele>
        <time>2024-10-12T08:37:05.011Z</time>
      </trkpt>
      <trkpt lat="48.49476" lon="7.05738">
        <ele>455.1148</ele>
        <time>2024-10-12T08:37:23.336Z</time>
      </trkpt>
      <trkpt lat="48.49495" lon="7.05806">
        <ele>454.44472</ele>
        <time>2024-10-12T08:38:00.408Z</time>
      </trkpt>
      <trkpt lat="48.49496" lon="7.05822">
        <ele>455.93075</ele>
        <time>2024-10-12T08:38:09.008Z</time>
      </trkpt>
      <trkpt lat="48.49497" lon="7.05836">
        <ele>457.17857</ele>
        <time>2024-10-12T08:38:16.471Z</time>
      </trkpt>
      <trkpt lat="48.49503" lon="7.05847">
        <ele>455.25094</ele>
        <time>2024-10-12T08:38:32.208Z</time>
      </trkpt>
      <trkpt lat="48.49511" lon="7.05861">
        <ele>452.52372</ele>
        <time>2024-10-12T08:38:54.653Z</time>
      </trkpt>
      <trkpt lat="48.49518" lon="7.0588">
        <ele>451.19841</ele>
        <time>2024-10-12T08:39:08.962Z</time>
      </trkpt>
      <trkpt lat="48.49532" lon="7.05921">
        <ele>448.01465</ele>
        <time>2024-10-12T08:39:40.429Z</time>
      </trkpt>
      <trkpt lat="48.49536" lon="7.05942">
        <ele>447.38174</ele>
        <time>2024-10-12T08:39:52.504Z</time>
      </trkpt>
      <trkpt lat="48.4954" lon="7.05993">
        <ele>446.60336</ele>
        <time>2024-10-12T08:40:19.412Z</time>
      </trkpt>
      <trkpt lat="48.49539" lon="7.06015">
        <ele>447.30647</ele>
        <time>2024-10-12T08:40:29.588Z</time>
      </trkpt>
      <trkpt lat="48.49537" lon="7.06038">
        <ele>448.84645</ele>
        <time>2024-10-12T08:40:40.532Z</time>
      </trkpt>
      <trkpt lat="48.49536" lon="7.06062">
        <ele>448.96425</ele>
        <time>2024-10-12T08:40:51.649Z</time>
      </trkpt>
      <trkpt lat="48.49539" lon="7.0609">
        <ele>447.99918</ele>
        <time>2024-10-12T08:41:07.800Z</time>
      </trkpt>
      <trkpt lat="48.4954" lon="7.06119">
        <ele>448.67284</ele>
        <time>2024-10-12T08:41:21.071Z</time>
      </trkpt>
      <trkpt lat="48.49543" lon="7.06194">
        <ele>451.22818</ele>
        <time>2024-10-12T08:41:55.267Z</time>
      </trkpt>
      <trkpt lat="48.49544" lon="7.06231">
        <ele>452.81692</ele>
        <time>2024-10-12T08:42:11.956Z</time>
      </trkpt>
      <trkpt lat="48.49545" lon="7.06245">
        <ele>453.43789</ele>
        <time>2024-10-12T08:42:18.460Z</time>
      </trkpt>
      <trkpt lat="48.49548" lon="7.06264">
        <ele>452.96712</ele>
        <time>2024-10-12T08:42:28.984Z</time>
      </trkpt>
      <trkpt lat="48.49552" lon="7.0629">
        <ele>452.38665</ele>
        <time>2024-10-12T08:42:43.392Z</time>
      </trkpt>
      <trkpt lat="48.49552" lon="7.06318">
        <ele>453.55561</ele>
        <time>2024-10-12T08:42:56.053Z</time>
      </trkpt>
      <trkpt lat="48.49551" lon="7.06337">
        <ele>454.83373</ele>
        <time>2024-10-12T08:43:05.049Z</time>
      </trkpt>
      <trkpt lat="48.49554" lon="7.06358">
        <ele>454.85257</ele>
        <time>2024-10-12T08:43:15.521Z</time>
      </trkpt>
      <trkpt lat="48.49553" lon="7.06384">
        <ele>456.29723</ele>
        <time>2024-10-12T08:43:27.242Z</time>
      </trkpt>
      <trkpt lat="48.49551" lon="7.06422">
        <ele>459.09949</ele>
        <time>2024-10-12T08:43:45.968Z</time>
      </trkpt>
      <trkpt lat="48.49546" lon="7.0645">
        <ele>461.99052</ele>
        <time>2024-10-12T08:44:01.985Z</time>
      </trkpt>
      <trkpt lat="48.49544" lon="7.06473">
        <ele>463.45984</ele>
        <time>2024-10-12T08:44:12.627Z</time>
      </trkpt>
      <trkpt lat="48.49544" lon="7.06496">
        <ele>463.86351</ele>
        <time>2024-10-12T08:44:23.436Z</time>
      </trkpt>
      <trkpt lat="48.49544" lon="7.06548">
        <ele>464.53742</ele>
        <time>2024-10-12T08:44:47.206Z</time>
      </trkpt>
      <trkpt lat="48.49544" lon="7.06592">
        <ele>464.75392</ele>
        <time>2024-10-12T08:45:08.313Z</time>
      </trkpt>
      <trkpt lat="48.49545" lon="7.06617">
        <ele>464.65895</ele>
        <time>2024-10-12T08:45:20.864Z</time>
      </trkpt>
      <trkpt lat="48.49541" lon="7.0665">
        <ele>466.65746</ele>
        <time>2024-10-12T08:45:36.211Z</time>
      </trkpt>
      <trkpt lat="48.49538" lon="7.0668">
        <ele>467.79861</ele>
        <time>2024-10-12T08:45:50.071Z</time>
      </trkpt>
      <trkpt lat="48.49537" lon="7.06701">
        <ele>467.83047</ele>
        <time>2024-10-12T08:45:59.945Z</time>
      </trkpt>
      <trkpt lat="48.49537" lon="7.0671">
        <ele>467.7392</ele>
        <time>2024-10-12T08:46:04.470Z</time>
      </trkpt>
      <trkpt lat="48.49537" lon="7.06716">
        <ele>467.18406</ele>
        <time>2024-10-12T08:46:09.490Z</time>
      </trkpt>
      <trkpt lat="48.49537" lon="7.0671">
        <ele>467.7392</ele>
        <time>2024-10-12T08:46:12.907Z</time>
      </trkpt>
      <trkpt lat="48.49534" lon="7.06734">
        <ele>468.54312</ele>
        <time>2024-10-12T08:46:24.174Z</time>
      </trkpt>
      <trkpt lat="48.49531" lon="7.06756">
        <ele>469.11327</ele>
        <time>2024-10-12T08:46:34.102Z</time>
      </trkpt>
      <trkpt lat="48.4953" lon="7.06775">
        <ele>469.11543</ele>
        <time>2024-10-12T08:46:43.471Z</time>
      </trkpt>
      <trkpt lat="48.49529" lon="7.06812">
        <ele>467.85895</ele>
        <time>2024-10-12T08:47:04.642Z</time>
      </trkpt>
      <trkpt lat="48.49525" lon="7.06845">
        <ele>467.40947</ele>
        <time>2024-10-12T08:47:21.946Z</time>
      </trkpt>
      <trkpt lat="48.49519" lon="7.06878">
        <ele>467.57784</ele>
        <time>2024-10-12T08:47:38.082Z</time>
      </trkpt>
      <trkpt lat="48.49513" lon="7.06909">
        <ele>468.67304</ele>
        <time>2024-10-12T08:47:52.447Z</time>
      </trkpt>
      <trkpt lat="48.49512" lon="7.0693">
        <ele>468.42695</ele>
        <time>2024-10-12T08:48:03.371Z</time>
      </trkpt>
      <trkpt lat="48.49511" lon="7.06966">
        <ele>467.18516</ele>
        <time>2024-10-12T08:48:24.096Z</time>
      </trkpt>
      <trkpt lat="48.49508" lon="7.07">
        <ele>466.65944</ele>
        <time>2024-10-12T08:48:42.172Z</time>
      </trkpt>
      <trkpt lat="48.49501" lon="7.07032">
        <ele>466.94497</ele>
        <time>2024-10-12T08:48:57.695Z</time>
      </trkpt>
      <trkpt lat="48.49494" lon="7.07053">
        <ele>467.31692</ele>
        <time>2024-10-12T08:49:08.616Z</time>
      </trkpt>
      <trkpt lat="48.49487" lon="7.07069">
        <ele>467.84488</ele>
        <time>2024-10-12T08:49:17.345Z</time>
      </trkpt>
      <trkpt lat="48.49481" lon="7.07098">
        <ele>466.46051</ele>
        <time>2024-10-12T08:49:35.461Z</time>
      </trkpt>
      <trkpt lat="48.49475" lon="7.07134">
        <ele>467.36976</ele>
        <time>2024-10-12T08:49:52.350Z</time>
      </trkpt>
      <trkpt lat="48.49473" lon="7.07156">
        <ele>469.26235</ele>
        <time>2024-10-12T08:50:03.882Z</time>
      </trkpt>
      <trkpt lat="48.49472" lon="7.07167">
        <ele>470.41107</ele>
        <time>2024-10-12T08:50:10.033Z</time>
      </trkpt>
      <trkpt lat="48.49471" lon="7.07176">
        <ele>471.12086</ele>
        <time>2024-10-12T08:50:14.809Z</time>
      </trkpt>
      <trkpt lat="48.49466" lon="7.07201">
        <ele>472.38855</ele>
        <time>2024-10-12T08:50:26.582Z</time>
      </trkpt>
      <trkpt lat="48.49455" lon="7.07221">
        <ele>473.62263</ele>
        <time>2024-10-12T08:50:38.106Z</time>
      </trkpt>
      <trkpt lat="48.49445" lon="7.07236">
        <ele>474.12423</ele>
        <time>2024-10-12T08:50:48.096Z</time>
      </trkpt>
      <trkpt lat="48.49431" lon="7.07249">
        <ele>475.19612</ele>
        <time>2024-10-12T08:50:59.524Z</time>
      </trkpt>
      <trkpt lat="48.49419" lon="7.07261">
        <ele>475.18566</ele>
        <time>2024-10-12T08:51:10.198Z</time>
      </trkpt>
      <trkpt lat="48.49412" lon="7.07279">
        <ele>474.21516</ele>
        <time>2024-10-12T08:51:22.599Z</time>
      </trkpt>
      <trkpt lat="48.49404" lon="7.07298">
        <ele>474.51167</ele>
        <time>2024-10-12T08:51:33.194Z</time>
      </trkpt>
      <trkpt lat="48.49403" lon="7.07304">
        <ele>474.69222</ele>
        <time>2024-10-12T08:51:35.747Z</time>
      </trkpt>
      <trkpt lat="48.49402" lon="7.07314">
        <ele>475.88965</ele>
        <time>2024-10-12T08:51:41.820Z</time>
      </trkpt>
      <trkpt lat="48.49406" lon="7.07336">
        <ele>478.76334</ele>
        <time>2024-10-12T08:51:56.064Z</time>
      </trkpt>
      <trkpt lat="48.49413" lon="7.07355">
        <ele>479.80752</ele>
        <time>2024-10-12T08:52:05.742Z</time>
      </trkpt>
      <trkpt lat="48.49422" lon="7.0737">
        <ele>479.94119</ele>
        <time>2024-10-12T08:52:15.309Z</time>
      </trkpt>
      <trkpt lat="48.49436" lon="7.0738">
        <ele>477.74164</ele>
        <time>2024-10-12T08:52:33.953Z</time>
      </trkpt>
      <trkpt lat="48.49453" lon="7.07389">
        <ele>474.52658</ele>
        <time>2024-10-12T08:53:00.243Z</time>
      </trkpt>
      <trkpt lat="48.49466" lon="7.074">
        <ele>472.09869</ele>
        <time>2024-10-12T08:53:20.328Z</time>
      </trkpt>
      <trkpt lat="48.49476" lon="7.07418">
        <ele>470.68039</ele>
        <time>2024-10-12T08:53:35.910Z</time>
      </trkpt>
      <trkpt lat="48.49482" lon="7.07435">
        <ele>470.22797</ele>
        <time>2024-10-12T08:53:46.115Z</time>
      </trkpt>
      <trkpt lat="48.49485" lon="7.07451">
        <ele>470.22286</ele>
        <time>2024-10-12T08:53:54.061Z</time>
      </trkpt>
      <trkpt lat="48.49486" lon="7.07465">
        <ele>470.49645</ele>
        <time>2024-10-12T08:54:00.745Z</time>
      </trkpt>
      <trkpt lat="48.49489" lon="7.07488">
        <ele>470.82133</ele>
        <time>2024-10-12T08:54:11.390Z</time>
      </trkpt>
      <trkpt lat="48.4949" lon="7.07501">
        <ele>470.97902</ele>
        <time>2024-10-12T08:54:17.789Z</time>
      </trkpt>
      <trkpt lat="48.49491" lon="7.07518">
        <ele>471.08682</ele>
        <time>2024-10-12T08:54:25.656Z</time>
      </trkpt>
      <trkpt lat="48.49495" lon="7.07535">
        <ele>470.49292</ele>
        <time>2024-10-12T08:54:35.776Z</time>
      </trkpt>
      <trkpt lat="48.49495" lon="7.07538">
        <ele>470.33814</ele>
        <time>2024-10-12T08:54:37.556Z</time>
      </trkpt>
      <trkpt lat="48.49499" lon="7.0755">
        <ele>469.55628</ele>
        <time>2024-10-12T08:54:45.989Z</time>
      </trkpt>
      <trkpt lat="48.49505" lon="7.07567">
        <ele>467.87993</ele>
        <time>2024-10-12T08:55:01.099Z</time>
      </trkpt>
      <trkpt lat="48.49508" lon="7.07579">
        <ele>467.11915</ele>
        <time>2024-10-12T08:55:09.154Z</time>
      </trkpt>
      <trkpt lat="48.4951" lon="7.07591">
        <ele>466.41639</ele>
        <time>2024-10-12T08:55:17.288Z</time>
      </trkpt>
      <trkpt lat="48.49509" lon="7.07604">
        <ele>466.08231</ele>
        <time>2024-10-12T08:55:24.129Z</time>
      </trkpt>
      <trkpt lat="48.49507" lon="7.07623">
        <ele>465.4384</ele>
        <time>2024-10-12T08:55:35.070Z</time>
      </trkpt>
      <trkpt lat="48.49505" lon="7.07637">
        <ele>464.98603</ele>
        <time>2024-10-12T08:55:43.614Z</time>
      </trkpt>
      <trkpt lat="48.49498" lon="7.07666">
        <ele>464.32663</ele>
        <time>2024-10-12T08:56:00.085Z</time>
      </trkpt>
      <trkpt lat="48.49487" lon="7.07712">
        <ele>463.9174</ele>
        <time>2024-10-12T08:56:24.508Z</time>
      </trkpt>
      <trkpt lat="48.49482" lon="7.07742">
        <ele>464.32807</ele>
        <time>2024-10-12T08:56:38.789Z</time>
      </trkpt>
      <trkpt lat="48.49481" lon="7.07747">
        <ele>464.50612</ele>
        <time>2024-10-12T08:56:41.329Z</time>
      </trkpt>
      <trkpt lat="48.49474" lon="7.0778">
        <ele>465.26804</ele>
        <time>2024-10-12T08:56:57.047Z</time>
      </trkpt>
      <trkpt lat="48.49466" lon="7.07825">
        <ele>465.35827</ele>
        <time>2024-10-12T08:57:19.457Z</time>
      </trkpt>
      <trkpt lat="48.49459" lon="7.0785">
        <ele>465.71611</ele>
        <time>2024-10-12T08:57:31.697Z</time>
      </trkpt>
      <trkpt lat="48.49448" lon="7.07887">
        <ele>466.32148</ele>
        <time>2024-10-12T08:57:50.783Z</time>
      </trkpt>
      <trkpt lat="48.49436" lon="7.0792">
        <ele>468.30213</ele>
        <time>2024-10-12T08:58:07.731Z</time>
      </trkpt>
      <trkpt lat="48.49431" lon="7.07938">
        <ele>468.87244</ele>
        <time>2024-10-12T08:58:16.646Z</time>
      </trkpt>
      <trkpt lat="48.49427" lon="7.07953">
        <ele>469.14858</ele>
        <time>2024-10-12T08:58:24.189Z</time>
      </trkpt>
      <trkpt lat="48.49423" lon="7.07966">
        <ele>469.5516</ele>
        <time>2024-10-12T08:58:30.881Z</time>
      </trkpt>
      <trkpt lat="48.49419" lon="7.07977">
        <ele>470.30259</ele>
        <time>2024-10-12T08:58:36.448Z</time>
      </trkpt>
      <trkpt lat="48.49416" lon="7.07985">
        <ele>471.51968</ele>
        <time>2024-10-12T08:58:42.501Z</time>
      </trkpt>
      <trkpt lat="48.49412" lon="7.07999">
        <ele>472.5324</ele>
        <time>2024-10-12T08:58:49.871Z</time>
      </trkpt>
      <trkpt lat="48.49411" lon="7.08011">
        <ele>472.30183</ele>
        <time>2024-10-12T08:58:56.106Z</time>
      </trkpt>
      <trkpt lat="48.49413" lon="7.08075">
        <ele>473.20566</ele>
        <time>2024-10-12T08:59:25.593Z</time>
      </trkpt>
      <trkpt lat="48.49414" lon="7.081">
        <ele>473.44843</ele>
        <time>2024-10-12T08:59:37.413Z</time>
      </trkpt>
      <trkpt lat="48.49413" lon="7.0812">
        <ele>474.31234</ele>
        <time>2024-10-12T08:59:46.434Z</time>
      </trkpt>
      <trkpt lat="48.4941" lon="7.08145">
        <ele>475.57262</ele>
        <time>2024-10-12T08:59:57.878Z</time>
      </trkpt>
      <trkpt lat="48.49407" lon="7.0818">
        <ele>476.61658</ele>
        <time>2024-10-12T09:00:13.970Z</time>
      </trkpt>
      <trkpt lat="48.49405" lon="7.082">
        <ele>477.40536</ele>
        <time>2024-10-12T09:00:23.363Z</time>
      </trkpt>
      <trkpt lat="48.49405" lon="7.08236">
        <ele>479.6288</ele>
        <time>2024-10-12T09:00:39.860Z</time>
      </trkpt>
      <trkpt lat="48.49405" lon="7.08255">
        <ele>481.4701</ele>
        <time>2024-10-12T09:00:50.464Z</time>
      </trkpt>
      <trkpt lat="48.49407" lon="7.08264">
        <ele>482.18082</ele>
        <time>2024-10-12T09:00:54.899Z</time>
      </trkpt>
      <trkpt lat="48.49409" lon="7.08269">
        <ele>482.56718</ele>
        <time>2024-10-12T09:00:57.879Z</time>
      </trkpt>
      <trkpt lat="48.49412" lon="7.08271">
        <ele>482.62648</ele>
        <time>2024-10-12T09:00:59.896Z</time>
      </trkpt>
      <trkpt lat="48.49415" lon="7.08272">
        <ele>482.63275</ele>
        <time>2024-10-12T09:01:02.157Z</time>
      </trkpt>
      <trkpt lat="48.49419" lon="7.08271">
        <ele>482.68563</ele>
        <time>2024-10-12T09:01:04.808Z</time>
      </trkpt>
      <trkpt lat="48.49421" lon="7.08268">
        <ele>482.6659</ele>
        <time>2024-10-12T09:01:07.101Z</time>
      </trkpt>
      <trkpt lat="48.49425" lon="7.08263">
        <ele>482.62591</ele>
        <time>2024-10-12T09:01:11.049Z</time>
      </trkpt>
      <trkpt lat="48.49436" lon="7.08241">
        <ele>483.66547</ele>
        <time>2024-10-12T09:01:23.262Z</time>
      </trkpt>
      <trkpt lat="48.49445" lon="7.08223">
        <ele>485.45525</ele>
        <time>2024-10-12T09:01:34.438Z</time>
      </trkpt>
      <trkpt lat="48.49457" lon="7.082">
        <ele>488.07828</ele>
        <time>2024-10-12T09:01:49.944Z</time>
      </trkpt>
      <trkpt lat="48.49471" lon="7.08176">
        <ele>491.47152</ele>
        <time>2024-10-12T09:02:08.347Z</time>
      </trkpt>
      <trkpt lat="48.49484" lon="7.08155">
        <ele>493.92844</ele>
        <time>2024-10-12T09:02:23.107Z</time>
      </trkpt>
      <trkpt lat="48.49501" lon="7.08129">
        <ele>496.43556</ele>
        <time>2024-10-12T09:02:40.427Z</time>
      </trkpt>
      <trkpt lat="48.49515" lon="7.08107">
        <ele>497.49209</ele>
        <time>2024-10-12T09:02:54.515Z</time>
      </trkpt>
      <trkpt lat="48.49521" lon="7.08098">
        <ele>497.82651</ele>
        <time>2024-10-12T09:03:00.214Z</time>
      </trkpt>
      <trkpt lat="48.49527" lon="7.08092">
        <ele>498.06571</ele>
        <time>2024-10-12T09:03:05.040Z</time>
      </trkpt>
      <trkpt lat="48.49534" lon="7.08085">
        <ele>498.51782</ele>
        <time>2024-10-12T09:03:10.654Z</time>
      </trkpt>
      <trkpt lat="48.49539" lon="7.0808">
        <ele>498.7789</ele>
        <time>2024-10-12T09:03:14.575Z</time>
      </trkpt>
      <trkpt lat="48.49545" lon="7.08074">
        <ele>499.13711</ele>
        <time>2024-10-12T09:03:19.756Z</time>
      </trkpt>
      <trkpt lat="48.49562" lon="7.0806">
        <ele>499.97701</ele>
        <time>2024-10-12T09:03:32.838Z</time>
      </trkpt>
      <trkpt lat="48.49578" lon="7.08046">
        <ele>500.0582</ele>
        <time>2024-10-12T09:03:46.289Z</time>
      </trkpt>
      <trkpt lat="48.49595" lon="7.08033">
        <ele>499.92201</ele>
        <time>2024-10-12T09:04:00.739Z</time>
      </trkpt>
      <trkpt lat="48.49611" lon="7.08023">
        <ele>500.33901</ele>
        <time>2024-10-12T09:04:12.504Z</time>
      </trkpt>
      <trkpt lat="48.49625" lon="7.08013">
        <ele>500.77602</ele>
        <time>2024-10-12T09:04:23.575Z</time>
      </trkpt>
      <trkpt lat="48.49636" lon="7.08004">
        <ele>500.51827</ele>
        <time>2024-10-12T09:04:33.411Z</time>
      </trkpt>
      <trkpt lat="48.49645" lon="7.07996">
        <ele>500.15253</ele>
        <time>2024-10-12T09:04:41.781Z</time>
      </trkpt>
      <trkpt lat="48.49652" lon="7.07992">
        <ele>500.32232</ele>
        <time>2024-10-12T09:04:46.773Z</time>
      </trkpt>
      <trkpt lat="48.49662" lon="7.07987">
        <ele>500.72987</ele>
        <time>2024-10-12T09:04:54.188Z</time>
      </trkpt>
      <trkpt lat="48.49672" lon="7.07982">
        <ele>501.22127</ele>
        <time>2024-10-12T09:05:01.662Z</time>
      </trkpt>
      <trkpt lat="48.49684" lon="7.07975">
        <ele>501.59807</ele>
        <time>2024-10-12T09:05:10.261Z</time>
      </trkpt>
      <trkpt lat="48.49694" lon="7.07966">
        <ele>501.50284</ele>
        <time>2024-10-12T09:05:18.974Z</time>
      </trkpt>
      <trkpt lat="48.49703" lon="7.0796">
        <ele>501.37419</ele>
        <time>2024-10-12T09:05:26.299Z</time>
      </trkpt>
      <trkpt lat="48.4971" lon="7.07954">
        <ele>501.37433</ele>
        <time>2024-10-12T09:05:32.464Z</time>
      </trkpt>
      <trkpt lat="48.49722" lon="7.07948">
        <ele>501.5572</ele>
        <time>2024-10-12T09:05:41.547Z</time>
      </trkpt>
      <trkpt lat="48.49736" lon="7.07942">
        <ele>501.994</ele>
        <time>2024-10-12T09:05:51.134Z</time>
      </trkpt>
      <trkpt lat="48.49756" lon="7.07933">
        <ele>502.89777</ele>
        <time>2024-10-12T09:06:05.824Z</time>
      </trkpt>
      <trkpt lat="48.49771" lon="7.07924">
        <ele>503.04026</ele>
        <time>2024-10-12T09:06:17.220Z</time>
      </trkpt>
      <trkpt lat="48.49783" lon="7.07916">
        <ele>503.37727</ele>
        <time>2024-10-12T09:06:26.521Z</time>
      </trkpt>
      <trkpt lat="48.49792" lon="7.07908">
        <ele>503.19506</ele>
        <time>2024-10-12T09:06:34.337Z</time>
      </trkpt>
      <trkpt lat="48.49799" lon="7.079">
        <ele>502.9353</ele>
        <time>2024-10-12T09:06:41.355Z</time>
      </trkpt>
      <trkpt lat="48.49804" lon="7.07892">
        <ele>502.50705</ele>
        <time>2024-10-12T09:06:47.963Z</time>
      </trkpt>
      <trkpt lat="48.4981" lon="7.07884">
        <ele>502.19774</ele>
        <time>2024-10-12T09:06:54.162Z</time>
      </trkpt>
      <trkpt lat="48.49814" lon="7.07879">
        <ele>502.16731</ele>
        <time>2024-10-12T09:06:58.364Z</time>
      </trkpt>
      <trkpt lat="48.49818" lon="7.07877">
        <ele>502.47427</ele>
        <time>2024-10-12T09:07:01.407Z</time>
      </trkpt>
      <trkpt lat="48.49827" lon="7.07877">
        <ele>503.5109</ele>
        <time>2024-10-12T09:07:07.858Z</time>
      </trkpt>
      <trkpt lat="48.49829" lon="7.07878">
        <ele>503.89578</ele>
        <time>2024-10-12T09:07:10.000Z</time>
      </trkpt>
      <trkpt lat="48.49835" lon="7.0788">
        <ele>504.6838</ele>
        <time>2024-10-12T09:07:14.592Z</time>
      </trkpt>
      <trkpt lat="48.49837" lon="7.0788">
        <ele>504.91874</ele>
        <time>2024-10-12T09:07:16.099Z</time>
      </trkpt>
      <trkpt lat="48.49848" lon="7.07882">
        <ele>505.84976</ele>
        <time>2024-10-12T09:07:23.792Z</time>
      </trkpt>
      <trkpt lat="48.49858" lon="7.07886">
        <ele>506.68161</ele>
        <time>2024-10-12T09:07:31.050Z</time>
      </trkpt>
      <trkpt lat="48.49863" lon="7.07889">
        <ele>507.21172</ele>
        <time>2024-10-12T09:07:34.620Z</time>
      </trkpt>
      <trkpt lat="48.4987" lon="7.07895">
        <ele>507.95681</ele>
        <time>2024-10-12T09:07:40.257Z</time>
      </trkpt>
      <trkpt lat="48.49887" lon="7.0791">
        <ele>509.54603</ele>
        <time>2024-10-12T09:07:53.913Z</time>
      </trkpt>
      <trkpt lat="48.49902" lon="7.07927">
        <ele>511.12987</ele>
        <time>2024-10-12T09:08:07.508Z</time>
      </trkpt>
      <trkpt lat="48.49922" lon="7.07948">
        <ele>512.39214</ele>
        <time>2024-10-12T09:08:23.654Z</time>
      </trkpt>
      <trkpt lat="48.4994" lon="7.07969">
        <ele>513.8245</ele>
        <time>2024-10-12T09:08:39.044Z</time>
      </trkpt>
      <trkpt lat="48.4995" lon="7.07983">
        <ele>515.09906</ele>
        <time>2024-10-12T09:08:48.760Z</time>
      </trkpt>
      <trkpt lat="48.49961" lon="7.08">
        <ele>516.68465</ele>
        <time>2024-10-12T09:09:00.288Z</time>
      </trkpt>
      <trkpt lat="48.49976" lon="7.08026">
        <ele>519.1008</ele>
        <time>2024-10-12T09:09:16.680Z</time>
      </trkpt>
      <trkpt lat="48.49989" lon="7.08049">
        <ele>520.99794</ele>
        <time>2024-10-12T09:09:30.892Z</time>
      </trkpt>
      <trkpt lat="48.50005" lon="7.08075">
        <ele>522.43228</ele>
        <time>2024-10-12T09:09:46.913Z</time>
      </trkpt>
      <trkpt lat="48.50018" lon="7.08095">
        <ele>522.84908</ele>
        <time>2024-10-12T09:09:59.811Z</time>
      </trkpt>
      <trkpt lat="48.50032" lon="7.08114">
        <ele>522.8345</ele>
        <time>2024-10-12T09:10:13.497Z</time>
      </trkpt>
      <trkpt lat="48.50045" lon="7.08131">
        <ele>522.27985</ele>
        <time>2024-10-12T09:10:27.482Z</time>
      </trkpt>
      <trkpt lat="48.5006" lon="7.08146">
        <ele>520.64208</ele>
        <time>2024-10-12T09:10:45.180Z</time>
      </trkpt>
      <trkpt lat="48.50068" lon="7.08156">
        <ele>520.14514</ele>
        <time>2024-10-12T09:10:53.842Z</time>
      </trkpt>
      <trkpt lat="48.50073" lon="7.08163">
        <ele>519.81662</ele>
        <time>2024-10-12T09:10:59.841Z</time>
      </trkpt>
      <trkpt lat="48.50081" lon="7.08176">
        <ele>519.33871</ele>
        <time>2024-10-12T09:11:09.848Z</time>
      </trkpt>
      <trkpt lat="48.50085" lon="7.08182">
        <ele>519.08544</ele>
        <time>2024-10-12T09:11:14.337Z</time>
      </trkpt>
      <trkpt lat="48.50099" lon="7.08203">
        <ele>517.85227</ele>
        <time>2024-10-12T09:11:31.733Z</time>
      </trkpt>
      <trkpt lat="48.50112" lon="7.08227">
        <ele>516.91159</ele>
        <time>2024-10-12T09:11:49.131Z</time>
      </trkpt>
      <trkpt lat="48.5012" lon="7.08241">
        <ele>515.94263</ele>
        <time>2024-10-12T09:12:01.056Z</time>
      </trkpt>
      <trkpt lat="48.5013" lon="7.08256">
        <ele>514.86489</ele>
        <time>2024-10-12T09:12:13.838Z</time>
      </trkpt>
      <trkpt lat="48.50138" lon="7.08271">
        <ele>513.67309</ele>
        <time>2024-10-12T09:12:26.641Z</time>
      </trkpt>
      <trkpt lat="48.50145" lon="7.08279">
        <ele>512.44929</ele>
        <time>2024-10-12T09:12:36.991Z</time>
      </trkpt>
      <trkpt lat="48.50152" lon="7.08289">
        <ele>511.20839</ele>
        <time>2024-10-12T09:12:47.949Z</time>
      </trkpt>
      <trkpt lat="48.50155" lon="7.08299">
        <ele>510.99066</ele>
        <time>2024-10-12T09:12:53.703Z</time>
      </trkpt>
      <trkpt lat="48.50156" lon="7.08312">
        <ele>511.36107</ele>
        <time>2024-10-12T09:12:59.962Z</time>
      </trkpt>
      <trkpt lat="48.50158" lon="7.08338">
        <ele>512.31409</ele>
        <time>2024-10-12T09:13:11.900Z</time>
      </trkpt>
      <trkpt lat="48.5016" lon="7.08367">
        <ele>513.2657</ele>
        <time>2024-10-12T09:13:24.736Z</time>
      </trkpt>
      <trkpt lat="48.5016" lon="7.08391">
        <ele>514.49717</ele>
        <time>2024-10-12T09:13:36.042Z</time>
      </trkpt>
      <trkpt lat="48.50161" lon="7.08413">
        <ele>515.43858</ele>
        <time>2024-10-12T09:13:46.077Z</time>
      </trkpt>
      <trkpt lat="48.50161" lon="7.08415">
        <ele>515.50116</ele>
        <time>2024-10-12T09:13:46.714Z</time>
      </trkpt>
      <trkpt lat="48.50162" lon="7.08432">
        <ele>515.4889</ele>
        <time>2024-10-12T09:13:55.078Z</time>
      </trkpt>
      <trkpt lat="48.50166" lon="7.08455">
        <ele>514.5803</ele>
        <time>2024-10-12T09:14:09.023Z</time>
      </trkpt>
      <trkpt lat="48.5017" lon="7.08487">
        <ele>513.94741</ele>
        <time>2024-10-12T09:14:26.098Z</time>
      </trkpt>
      <trkpt lat="48.50176" lon="7.08514">
        <ele>512.79535</ele>
        <time>2024-10-12T09:14:42.653Z</time>
      </trkpt>
      <trkpt lat="48.50182" lon="7.08535">
        <ele>511.28578</ele>
        <time>2024-10-12T09:14:58.301Z</time>
      </trkpt>
      <trkpt lat="48.50186" lon="7.08548">
        <ele>510.55004</ele>
        <time>2024-10-12T09:15:07.422Z</time>
      </trkpt>
      <trkpt lat="48.50191" lon="7.08561">
        <ele>510.89169</ele>
        <time>2024-10-12T09:15:13.983Z</time>
      </trkpt>
      <trkpt lat="48.50195" lon="7.08567">
        <ele>511.43565</ele>
        <time>2024-10-12T09:15:18.181Z</time>
      </trkpt>
      <trkpt lat="48.50201" lon="7.08571">
        <ele>511.93138</ele>
        <time>2024-10-12T09:15:22.397Z</time>
      </trkpt>
      <trkpt lat="48.50206" lon="7.08574">
        <ele>512.54268</ele>
        <time>2024-10-12T09:15:26.782Z</time>
      </trkpt>
      <trkpt lat="48.50213" lon="7.08574">
        <ele>512.86521</ele>
        <time>2024-10-12T09:15:31.155Z</time>
      </trkpt>
      <trkpt lat="48.50221" lon="7.08573">
        <ele>513.12039</ele>
        <time>2024-10-12T09:15:36.999Z</time>
      </trkpt>
      <trkpt lat="48.50237" lon="7.0857">
        <ele>514.13309</ele>
        <time>2024-10-12T09:15:47.640Z</time>
      </trkpt>
      <trkpt lat="48.50246" lon="7.08568">
        <ele>515.14583</ele>
        <time>2024-10-12T09:15:54.675Z</time>
      </trkpt>
      <trkpt lat="48.50254" lon="7.0857">
        <ele>517.39309</ele>
        <time>2024-10-12T09:16:03.686Z</time>
      </trkpt>
      <trkpt lat="48.50262" lon="7.08571">
        <ele>519.53615</ele>
        <time>2024-10-12T09:16:12.565Z</time>
      </trkpt>
      <trkpt lat="48.50268" lon="7.0857">
        <ele>520.14582</ele>
        <time>2024-10-12T09:16:16.619Z</time>
      </trkpt>
      <trkpt lat="48.50273" lon="7.08568">
        <ele>520.173</ele>
        <time>2024-10-12T09:16:20.330Z</time>
      </trkpt>
      <trkpt lat="48.50277" lon="7.08563">
        <ele>519.30309</ele>
        <time>2024-10-12T09:16:27.542Z</time>
      </trkpt>
      <trkpt lat="48.50283" lon="7.08557">
        <ele>518.18348</ele>
        <time>2024-10-12T09:16:36.891Z</time>
      </trkpt>
      <trkpt lat="48.50289" lon="7.08551">
        <ele>517.41196</ele>
        <time>2024-10-12T09:16:44.430Z</time>
      </trkpt>
      <trkpt lat="48.50295" lon="7.08547">
        <ele>516.99701</ele>
        <time>2024-10-12T09:16:50.389Z</time>
      </trkpt>
      <trkpt lat="48.50304" lon="7.08541">
        <ele>516.32772</ele>
        <time>2024-10-12T09:16:58.775Z</time>
      </trkpt>
      <trkpt lat="48.50311" lon="7.08535">
        <ele>515.50714</ele>
        <time>2024-10-12T09:17:07.602Z</time>
      </trkpt>
      <trkpt lat="48.5032" lon="7.08528">
        <ele>514.55328</ele>
        <time>2024-10-12T09:17:17.235Z</time>
      </trkpt>
      <trkpt lat="48.50328" lon="7.08519">
        <ele>513.13836</ele>
        <time>2024-10-12T09:17:29.387Z</time>
      </trkpt>
      <trkpt lat="48.50334" lon="7.08513">
        <ele>512.39684</ele>
        <time>2024-10-12T09:17:37.083Z</time>
      </trkpt>
      <trkpt lat="48.50345" lon="7.08506">
        <ele>511.84706</ele>
        <time>2024-10-12T09:17:46.954Z</time>
      </trkpt>
      <trkpt lat="48.50355" lon="7.085">
        <ele>511.75393</ele>
        <time>2024-10-12T09:17:55.358Z</time>
      </trkpt>
      <trkpt lat="48.50368" lon="7.08494">
        <ele>512.16566</ele>
        <time>2024-10-12T09:18:04.226Z</time>
      </trkpt>
      <trkpt lat="48.50381" lon="7.08489">
        <ele>512.59664</ele>
        <time>2024-10-12T09:18:13.721Z</time>
      </trkpt>
      <trkpt lat="48.50396" lon="7.08484">
        <ele>512.89912</ele>
        <time>2024-10-12T09:18:24.252Z</time>
      </trkpt>
      <trkpt lat="48.50413" lon="7.08481">
        <ele>513.46235</ele>
        <time>2024-10-12T09:18:36.057Z</time>
      </trkpt>
      <trkpt lat="48.50419" lon="7.0848">
        <ele>513.49205</ele>
        <time>2024-10-12T09:18:40.331Z</time>
      </trkpt>
      <trkpt lat="48.50433" lon="7.08479">
        <ele>513.66683</ele>
        <time>2024-10-12T09:18:50.862Z</time>
      </trkpt>
      <trkpt lat="48.50453" lon="7.0848">
        <ele>514.212</ele>
        <time>2024-10-12T09:19:04.460Z</time>
      </trkpt>
      <trkpt lat="48.50467" lon="7.08483">
        <ele>514.4058</ele>
        <time>2024-10-12T09:19:14.579Z</time>
      </trkpt>
      <trkpt lat="48.50486" lon="7.08487">
        <ele>514.16638</ele>
        <time>2024-10-12T09:19:29.049Z</time>
      </trkpt>
      <trkpt lat="48.50507" lon="7.08495">
        <ele>513.58352</ele>
        <time>2024-10-12T09:19:46.017Z</time>
      </trkpt>
      <trkpt lat="48.50528" lon="7.08503">
        <ele>512.28121</ele>
        <time>2024-10-12T09:20:05.589Z</time>
      </trkpt>
      <trkpt lat="48.50544" lon="7.08511">
        <ele>511.5084</ele>
        <time>2024-10-12T09:20:19.461Z</time>
      </trkpt>
      <trkpt lat="48.50559" lon="7.08523">
        <ele>511.27119</ele>
        <time>2024-10-12T09:20:32.260Z</time>
      </trkpt>
      <trkpt lat="48.50575" lon="7.08539">
        <ele>511.58149</ele>
        <time>2024-10-12T09:20:46.084Z</time>
      </trkpt>
      <trkpt lat="48.50601" lon="7.08566">
        <ele>511.04639</ele>
        <time>2024-10-12T09:21:10.442Z</time>
      </trkpt>
      <trkpt lat="48.50617" lon="7.08584">
        <ele>510.53298</ele>
        <time>2024-10-12T09:21:26.184Z</time>
      </trkpt>
      <trkpt lat="48.50633" lon="7.08603">
        <ele>509.1163</ele>
        <time>2024-10-12T09:21:44.893Z</time>
      </trkpt>
      <trkpt lat="48.50635" lon="7.08606">
        <ele>508.93571</ele>
        <time>2024-10-12T09:21:47.520Z</time>
      </trkpt>
      <trkpt lat="48.50646" lon="7.0862">
        <ele>507.98264</ele>
        <time>2024-10-12T09:22:00.160Z</time>
      </trkpt>
      <trkpt lat="48.50658" lon="7.0864">
        <ele>506.90232</ele>
        <time>2024-10-12T09:22:15.868Z</time>
      </trkpt>
      <trkpt lat="48.5067" lon="7.08664">
        <ele>506.15486</ele>
        <time>2024-10-12T09:22:32.508Z</time>
      </trkpt>
      <trkpt lat="48.50676" lon="7.08678">
        <ele>505.75953</ele>
        <time>2024-10-12T09:22:41.419Z</time>
      </trkpt>
      <trkpt lat="48.50696" lon="7.08721">
        <ele>503.94003</ele>
        <time>2024-10-12T09:23:11.069Z</time>
      </trkpt>
      <trkpt lat="48.50706" lon="7.08748">
        <ele>502.56872</ele>
        <time>2024-10-12T09:23:30.031Z</time>
      </trkpt>
      <trkpt lat="48.50716" lon="7.08773">
        <ele>500.97</ele>
        <time>2024-10-12T09:23:48.171Z</time>
      </trkpt>
      <trkpt lat="48.50724" lon="7.08801">
        <ele>499.52121</ele>
        <time>2024-10-12T09:24:06.906Z</time>
      </trkpt>
      <trkpt lat="48.5073" lon="7.08823">
        <ele>498.47378</ele>
        <time>2024-10-12T09:24:20.961Z</time>
      </trkpt>
      <trkpt lat="48.50733" lon="7.08844">
        <ele>498.03702</ele>
        <time>2024-10-12T09:24:32.797Z</time>
      </trkpt>
      <trkpt lat="48.50736" lon="7.08874">
        <ele>497.61157</ele>
        <time>2024-10-12T09:24:48.374Z</time>
      </trkpt>
      <trkpt lat="48.5074" lon="7.0891">
        <ele>496.76335</ele>
        <time>2024-10-12T09:25:07.845Z</time>
      </trkpt>
      <trkpt lat="48.50742" lon="7.08939">
        <ele>495.67376</ele>
        <time>2024-10-12T09:25:24.791Z</time>
      </trkpt>
      <trkpt lat="48.50742" lon="7.0895">
        <ele>495.36734</ele>
        <time>2024-10-12T09:25:30.722Z</time>
      </trkpt>
      <trkpt lat="48.50741" lon="7.0896">
        <ele>495.37996</ele>
        <time>2024-10-12T09:25:35.995Z</time>
      </trkpt>
      <trkpt lat="48.50738" lon="7.08987">
        <ele>495.39546</ele>
        <time>2024-10-12T09:25:48.945Z</time>
      </trkpt>
      <trkpt lat="48.50734" lon="7.09013">
        <ele>495.4537</ele>
        <time>2024-10-12T09:26:01.957Z</time>
      </trkpt>
      <trkpt lat="48.50733" lon="7.09022">
        <ele>495.3574</ele>
        <time>2024-10-12T09:26:06.235Z</time>
      </trkpt>
      <trkpt lat="48.50723" lon="7.09093">
        <ele>493.97796</ele>
        <time>2024-10-12T09:26:44.762Z</time>
      </trkpt>
      <trkpt lat="48.50717" lon="7.09134">
        <ele>492.70305</ele>
        <time>2024-10-12T09:27:08.340Z</time>
      </trkpt>
      <trkpt lat="48.50708" lon="7.09205">
        <ele>489.44132</ele>
        <time>2024-10-12T09:27:51.583Z</time>
      </trkpt>
      <trkpt lat="48.50706" lon="7.09217">
        <ele>488.97619</ele>
        <time>2024-10-12T09:27:59.067Z</time>
      </trkpt>
      <trkpt lat="48.50703" lon="7.09232">
        <ele>488.69911</ele>
        <time>2024-10-12T09:28:07.161Z</time>
      </trkpt>
      <trkpt lat="48.50698" lon="7.09251">
        <ele>488.27552</ele>
        <time>2024-10-12T09:28:18.237Z</time>
      </trkpt>
      <trkpt lat="48.50694" lon="7.09266">
        <ele>487.99945</ele>
        <time>2024-10-12T09:28:26.819Z</time>
      </trkpt>
      <trkpt lat="48.50689" lon="7.09279">
        <ele>488.09208</ele>
        <time>2024-10-12T09:28:34.005Z</time>
      </trkpt>
      <trkpt lat="48.50682" lon="7.09292">
        <ele>488.40509</ele>
        <time>2024-10-12T09:28:41.165Z</time>
      </trkpt>
      <trkpt lat="48.50676" lon="7.09303">
        <ele>488.89606</ele>
        <time>2024-10-12T09:28:47.734Z</time>
      </trkpt>
      <trkpt lat="48.5067" lon="7.09314">
        <ele>489.469</ele>
        <time>2024-10-12T09:28:54.463Z</time>
      </trkpt>
      <trkpt lat="48.50665" lon="7.09326">
        <ele>489.54537</ele>
        <time>2024-10-12T09:29:01.106Z</time>
      </trkpt>
      <trkpt lat="48.5066" lon="7.0934">
        <ele>489.07265</ele>
        <time>2024-10-12T09:29:10.062Z</time>
      </trkpt>
      <trkpt lat="48.50656" lon="7.09355">
        <ele>488.4751</ele>
        <time>2024-10-12T09:29:19.475Z</time>
      </trkpt>
      <trkpt lat="48.50655" lon="7.09357">
        <ele>488.45715</ele>
        <time>2024-10-12T09:29:20.245Z</time>
      </trkpt>
      <trkpt lat="48.50653" lon="7.09367">
        <ele>487.95579</ele>
        <time>2024-10-12T09:29:27.146Z</time>
      </trkpt>
      <trkpt lat="48.50648" lon="7.09378">
        <ele>488.01746</ele>
        <time>2024-10-12T09:29:33.289Z</time>
      </trkpt>
      <trkpt lat="48.50642" lon="7.0939">
        <ele>488.42545</ele>
        <time>2024-10-12T09:29:40.191Z</time>
      </trkpt>
      <trkpt lat="48.50634" lon="7.09402">
        <ele>489.05896</ele>
        <time>2024-10-12T09:29:47.920Z</time>
      </trkpt>
      <trkpt lat="48.50627" lon="7.09411">
        <ele>489.81968</ele>
        <time>2024-10-12T09:29:54.352Z</time>
      </trkpt>
      <trkpt lat="48.50622" lon="7.09418">
        <ele>490.20404</ele>
        <time>2024-10-12T09:29:58.552Z</time>
      </trkpt>
      <trkpt lat="48.5062" lon="7.09422">
        <ele>490.25187</ele>
        <time>2024-10-12T09:30:01.465Z</time>
      </trkpt>
      <trkpt lat="48.50619" lon="7.09427">
        <ele>489.87331</ele>
        <time>2024-10-12T09:30:05.092Z</time>
      </trkpt>
      <trkpt lat="48.50609" lon="7.09472">
        <ele>487.43201</ele>
        <time>2024-10-12T09:30:34.361Z</time>
      </trkpt>
      <trkpt lat="48.5058" lon="7.09499">
        <ele>490.55256</ele>
        <time>2024-10-12T09:30:58.102Z</time>
      </trkpt>
      <trkpt lat="48.50558" lon="7.0952">
        <ele>492.27747</ele>
        <time>2024-10-12T09:31:16.419Z</time>
      </trkpt>
      <trkpt lat="48.50493" lon="7.09548">
        <ele>499.10892</ele>
        <time>2024-10-12T09:32:04.433Z</time>
      </trkpt>
      <trkpt lat="48.50457" lon="7.09558">
        <ele>502.9255</ele>
        <time>2024-10-12T09:32:30.998Z</time>
      </trkpt>
      <trkpt lat="48.50362" lon="7.09577">
        <ele>502.79512</ele>
        <time>2024-10-12T09:33:41.291Z</time>
      </trkpt>
      <trkpt lat="48.50332" lon="7.09577">
        <ele>504.55321</ele>
        <time>2024-10-12T09:34:01.764Z</time>
      </trkpt>
      <trkpt lat="48.50335" lon="7.09583">
        <ele>502.99127</ele>
        <time>2024-10-12T09:34:15.251Z</time>
      </trkpt>
      <trkpt lat="48.50337" lon="7.09598">
        <ele>499.95457</ele>
        <time>2024-10-12T09:34:41.523Z</time>
      </trkpt>
      <trkpt lat="48.50338" lon="7.09617">
        <ele>497.0569</ele>
        <time>2024-10-12T09:35:05.605Z</time>
      </trkpt>
      <trkpt lat="48.50341" lon="7.09639">
        <ele>494.42539</ele>
        <time>2024-10-12T09:35:27.118Z</time>
      </trkpt>
      <trkpt lat="48.50346" lon="7.09654">
        <ele>492.5809</ele>
        <time>2024-10-12T09:35:42.266Z</time>
      </trkpt>
      <trkpt lat="48.50359" lon="7.09689">
        <ele>488.16812</ele>
        <time>2024-10-12T09:36:18.566Z</time>
      </trkpt>
      <trkpt lat="48.50374" lon="7.09751">
        <ele>480.47937</ele>
        <time>2024-10-12T09:37:21.526Z</time>
      </trkpt>
      <trkpt lat="48.50382" lon="7.09782">
        <ele>476.99344</ele>
        <time>2024-10-12T09:37:50.376Z</time>
      </trkpt>
      <trkpt lat="48.50387" lon="7.09805">
        <ele>474.42195</ele>
        <time>2024-10-12T09:38:11.636Z</time>
      </trkpt>
      <trkpt lat="48.50407" lon="7.09878">
        <ele>466.06745</ele>
        <time>2024-10-12T09:39:20.830Z</time>
      </trkpt>
      <trkpt lat="48.50411" lon="7.09891">
        <ele>464.5947</ele>
        <time>2024-10-12T09:39:33.232Z</time>
      </trkpt>
      <trkpt lat="48.50417" lon="7.09901">
        <ele>463.3901</ele>
        <time>2024-10-12T09:39:43.710Z</time>
      </trkpt>
      <trkpt lat="48.50426" lon="7.09906">
        <ele>462.44963</ele>
        <time>2024-10-12T09:39:53.150Z</time>
      </trkpt>
      <trkpt lat="48.50435" lon="7.09907">
        <ele>461.7107</ele>
        <time>2024-10-12T09:40:01.683Z</time>
      </trkpt>
      <trkpt lat="48.50446" lon="7.09905">
        <ele>461.08645</ele>
        <time>2024-10-12T09:40:11.189Z</time>
      </trkpt>
      <trkpt lat="48.50465" lon="7.09901">
        <ele>460.29643</ele>
        <time>2024-10-12T09:40:27.333Z</time>
      </trkpt>
      <trkpt lat="48.50453" lon="7.09909">
        <ele>460.20875</ele>
        <time>2024-10-12T09:40:37.307Z</time>
      </trkpt>
      <trkpt lat="48.50442" lon="7.09917">
        <ele>460.01334</ele>
        <time>2024-10-12T09:40:46.266Z</time>
      </trkpt>
      <trkpt lat="48.50432" lon="7.09932">
        <ele>459.53764</ele>
        <time>2024-10-12T09:40:57.830Z</time>
      </trkpt>
      <trkpt lat="48.50421" lon="7.09948">
        <ele>459.04955</ele>
        <time>2024-10-12T09:41:10.175Z</time>
      </trkpt>
      <trkpt lat="48.50409" lon="7.09963">
        <ele>458.79511</ele>
        <time>2024-10-12T09:41:22.078Z</time>
      </trkpt>
      <trkpt lat="48.50396" lon="7.09977">
        <ele>458.40912</ele>
        <time>2024-10-12T09:41:34.686Z</time>
      </trkpt>
      <trkpt lat="48.5038" lon="7.0999">
        <ele>458.18904</ele>
        <time>2024-10-12T09:41:48.782Z</time>
      </trkpt>
      <trkpt lat="48.50374" lon="7.09993">
        <ele>458.28308</ele>
        <time>2024-10-12T09:41:53.315Z</time>
      </trkpt>
    </trkseg>
  </trk>
  <trk>
    <name><![CDATA[Ranch du Donon - 9,3km]]></name>
    <desc><![CDATA[jolie boucle, facile à cheval]]></desc>
    <extensions>
      <line xmlns="http://www.topografix.com/GPX/gpx_style/0/2">
        <color>00FFFF</color>
        <opacity>1</opacity>
        <width>4</width>
      </line>
    </extensions>
    <trkseg>
      <trkpt lat="48.50935" lon="7.09983">
        <ele>470.5</ele>
      </trkpt>
      <trkpt lat="48.50935" lon="7.09985">
        <ele>470.7</ele>
      </trkpt>
      <trkpt lat="48.50909" lon="7.1002">
        <ele>476.7</ele>
      </trkpt>
      <trkpt lat="48.5089" lon="7.10044">
        <ele>480.7</ele>
      </trkpt>
      <trkpt lat="48.50871" lon="7.10065">
        <ele>483.8</ele>
      </trkpt>
      <trkpt lat="48.50856" lon="7.10088">
        <ele>486.2</ele>
      </trkpt>
      <trkpt lat="48.50833" lon="7.1012">
        <ele>488.9</ele>
      </trkpt>
      <trkpt lat="48.50823" lon="7.10139">
        <ele>490.5</ele>
      </trkpt>
      <trkpt lat="48.50813" lon="7.10168">
        <ele>492.6</ele>
      </trkpt>
      <trkpt lat="48.50805" lon="7.10207">
        <ele>494.9</ele>
      </trkpt>
      <trkpt lat="48.50796" lon="7.10255">
        <ele>497.2</ele>
      </trkpt>
      <trkpt lat="48.50788" lon="7.10302">
        <ele>499.6</ele>
      </trkpt>
      <trkpt lat="48.50779" lon="7.10352">
        <ele>502.3</ele>
      </trkpt>
      <trkpt lat="48.50778" lon="7.10362">
        <ele>502.9</ele>
      </trkpt>
      <trkpt lat="48.50771" lon="7.10402">
        <ele>505.3</ele>
      </trkpt>
      <trkpt lat="48.50771" lon="7.10416">
        <ele>506.2</ele>
      </trkpt>
      <trkpt lat="48.50743" lon="7.10436">
        <ele>510.2</ele>
      </trkpt>
      <trkpt lat="48.50719" lon="7.10455">
        <ele>513.5</ele>
      </trkpt>
      <trkpt lat="48.50695" lon="7.10474">
        <ele>516.1</ele>
      </trkpt>
      <trkpt lat="48.50671" lon="7.10492">
        <ele>518.3</ele>
      </trkpt>
      <trkpt lat="48.50647" lon="7.1051">
        <ele>520.7</ele>
      </trkpt>
      <trkpt lat="48.50639" lon="7.10518">
        <ele>522</ele>
      </trkpt>
      <trkpt lat="48.50639" lon="7.10518">
        <ele>522</ele>
      </trkpt>
      <trkpt lat="48.50636" lon="7.10522">
        <ele>522.7</ele>
      </trkpt>
      <trkpt lat="48.50613" lon="7.10517">
        <ele>523</ele>
      </trkpt>
      <trkpt lat="48.50596" lon="7.10517">
        <ele>523.8</ele>
      </trkpt>
      <trkpt lat="48.50585" lon="7.1052">
        <ele>524.6</ele>
      </trkpt>
      <trkpt lat="48.50571" lon="7.10527">
        <ele>525.2</ele>
      </trkpt>
      <trkpt lat="48.50558" lon="7.10537">
        <ele>525.8</ele>
      </trkpt>
      <trkpt lat="48.50533" lon="7.10565">
        <ele>528.5</ele>
      </trkpt>
      <trkpt lat="48.5052" lon="7.1058">
        <ele>530.6</ele>
      </trkpt>
      <trkpt lat="48.50512" lon="7.10586">
        <ele>531.5</ele>
      </trkpt>
      <trkpt lat="48.50504" lon="7.1059">
        <ele>532.3</ele>
      </trkpt>
      <trkpt lat="48.50478" lon="7.10594">
        <ele>534.3</ele>
      </trkpt>
      <trkpt lat="48.50452" lon="7.10597">
        <ele>535.9</ele>
      </trkpt>
      <trkpt lat="48.50436" lon="7.10598">
        <ele>536.5</ele>
      </trkpt>
      <trkpt lat="48.50424" lon="7.10596">
        <ele>536.4</ele>
      </trkpt>
      <trkpt lat="48.50414" lon="7.10592">
        <ele>536</ele>
      </trkpt>
      <trkpt lat="48.50397" lon="7.10584">
        <ele>535</ele>
      </trkpt>
      <trkpt lat="48.50384" lon="7.10577">
        <ele>533.9</ele>
      </trkpt>
      <trkpt lat="48.50374" lon="7.10572">
        <ele>533.1</ele>
      </trkpt>
      <trkpt lat="48.50364" lon="7.10563">
        <ele>532.2</ele>
      </trkpt>
      <trkpt lat="48.50338" lon="7.10539">
        <ele>529.3</ele>
      </trkpt>
      <trkpt lat="48.50314" lon="7.10522">
        <ele>527.1</ele>
      </trkpt>
      <trkpt lat="48.50306" lon="7.10519">
        <ele>526.4</ele>
      </trkpt>
      <trkpt lat="48.50299" lon="7.10518">
        <ele>525.6</ele>
      </trkpt>
      <trkpt lat="48.50296" lon="7.1052">
        <ele>525</ele>
      </trkpt>
      <trkpt lat="48.50292" lon="7.10525">
        <ele>524.4</ele>
      </trkpt>
      <trkpt lat="48.50292" lon="7.10529">
        <ele>524.2</ele>
      </trkpt>
      <trkpt lat="48.50292" lon="7.10539">
        <ele>523.7</ele>
      </trkpt>
      <trkpt lat="48.50298" lon="7.1058">
        <ele>523.6</ele>
      </trkpt>
      <trkpt lat="48.50306" lon="7.1062">
        <ele>525.4</ele>
      </trkpt>
      <trkpt lat="48.50312" lon="7.1064">
        <ele>526.6</ele>
      </trkpt>
      <trkpt lat="48.50317" lon="7.10663">
        <ele>528</ele>
      </trkpt>
      <trkpt lat="48.50317" lon="7.10681">
        <ele>529</ele>
      </trkpt>
      <trkpt lat="48.50312" lon="7.10694">
        <ele>530.3</ele>
      </trkpt>
      <trkpt lat="48.50304" lon="7.10706">
        <ele>532.5</ele>
      </trkpt>
      <trkpt lat="48.503" lon="7.10717">
        <ele>534.5</ele>
      </trkpt>
      <trkpt lat="48.503" lon="7.10734">
        <ele>536.7</ele>
      </trkpt>
      <trkpt lat="48.50302" lon="7.10756">
        <ele>539.3</ele>
      </trkpt>
      <trkpt lat="48.50305" lon="7.10774">
        <ele>540.6</ele>
      </trkpt>
      <trkpt lat="48.5031" lon="7.10788">
        <ele>540.8</ele>
      </trkpt>
      <trkpt lat="48.50317" lon="7.10803">
        <ele>541</ele>
      </trkpt>
      <trkpt lat="48.50322" lon="7.10818">
        <ele>541.9</ele>
      </trkpt>
      <trkpt lat="48.50323" lon="7.10834">
        <ele>543.7</ele>
      </trkpt>
      <trkpt lat="48.50322" lon="7.10842">
        <ele>545.1</ele>
      </trkpt>
      <trkpt lat="48.50321" lon="7.10851">
        <ele>546.6</ele>
      </trkpt>
      <trkpt lat="48.50317" lon="7.10858">
        <ele>548.6</ele>
      </trkpt>
      <trkpt lat="48.50301" lon="7.10883">
        <ele>556.8</ele>
      </trkpt>
      <trkpt lat="48.50293" lon="7.10904">
        <ele>561.9</ele>
      </trkpt>
      <trkpt lat="48.50289" lon="7.10934">
        <ele>566.8</ele>
      </trkpt>
      <trkpt lat="48.50281" lon="7.10953">
        <ele>569.4</ele>
      </trkpt>
      <trkpt lat="48.50272" lon="7.10974">
        <ele>571.1</ele>
      </trkpt>
      <trkpt lat="48.50265" lon="7.10997">
        <ele>571.7</ele>
      </trkpt>
      <trkpt lat="48.50264" lon="7.11011">
        <ele>572.2</ele>
      </trkpt>
      <trkpt lat="48.50276" lon="7.11038">
        <ele>574</ele>
      </trkpt>
      <trkpt lat="48.50289" lon="7.1108">
        <ele>577.4</ele>
      </trkpt>
      <trkpt lat="48.50306" lon="7.11119">
        <ele>580.7</ele>
      </trkpt>
      <trkpt lat="48.50324" lon="7.11159">
        <ele>584</ele>
      </trkpt>
      <trkpt lat="48.50341" lon="7.11182">
        <ele>587.2</ele>
      </trkpt>
      <trkpt lat="48.50357" lon="7.11206">
        <ele>590.7</ele>
      </trkpt>
      <trkpt lat="48.50373" lon="7.11235">
        <ele>594</ele>
      </trkpt>
      <trkpt lat="48.50389" lon="7.11264">
        <ele>595.9</ele>
      </trkpt>
      <trkpt lat="48.50391" lon="7.1129">
        <ele>596.4</ele>
      </trkpt>
      <trkpt lat="48.5041" lon="7.11334">
        <ele>597.4</ele>
      </trkpt>
      <trkpt lat="48.50414" lon="7.11341">
        <ele>597.8</ele>
      </trkpt>
      <trkpt lat="48.50424" lon="7.1136">
        <ele>598.8</ele>
      </trkpt>
      <trkpt lat="48.50408" lon="7.11391">
        <ele>601</ele>
      </trkpt>
      <trkpt lat="48.50393" lon="7.11432">
        <ele>603.7</ele>
      </trkpt>
      <trkpt lat="48.50383" lon="7.11467">
        <ele>605.6</ele>
      </trkpt>
      <trkpt lat="48.50376" lon="7.11504">
        <ele>607.7</ele>
      </trkpt>
      <trkpt lat="48.50375" lon="7.11517">
        <ele>608.5</ele>
      </trkpt>
      <trkpt lat="48.5037" lon="7.11521">
        <ele>608.5</ele>
      </trkpt>
      <trkpt lat="48.50375" lon="7.11517">
        <ele>608.5</ele>
      </trkpt>
      <trkpt lat="48.50374" lon="7.11537">
        <ele>609.9</ele>
      </trkpt>
      <trkpt lat="48.50372" lon="7.11574">
        <ele>612.3</ele>
      </trkpt>
      <trkpt lat="48.50374" lon="7.11607">
        <ele>613.9</ele>
      </trkpt>
      <trkpt lat="48.5038" lon="7.11642">
        <ele>615.7</ele>
      </trkpt>
      <trkpt lat="48.50385" lon="7.11677">
        <ele>617.6</ele>
      </trkpt>
      <trkpt lat="48.50388" lon="7.11699">
        <ele>618.9</ele>
      </trkpt>
      <trkpt lat="48.50388" lon="7.11712">
        <ele>619.6</ele>
      </trkpt>
      <trkpt lat="48.50388" lon="7.11718">
        <ele>620</ele>
      </trkpt>
      <trkpt lat="48.50389" lon="7.11756">
        <ele>622.6</ele>
      </trkpt>
      <trkpt lat="48.50389" lon="7.11769">
        <ele>623.6</ele>
      </trkpt>
      <trkpt lat="48.50391" lon="7.1182">
        <ele>627.2</ele>
      </trkpt>
      <trkpt lat="48.50392" lon="7.11872">
        <ele>630.4</ele>
      </trkpt>
      <trkpt lat="48.50395" lon="7.11907">
        <ele>632.8</ele>
      </trkpt>
      <trkpt lat="48.5039" lon="7.11935">
        <ele>634.6</ele>
      </trkpt>
      <trkpt lat="48.50385" lon="7.11956">
        <ele>636</ele>
      </trkpt>
      <trkpt lat="48.50382" lon="7.11972">
        <ele>637</ele>
      </trkpt>
      <trkpt lat="48.50391" lon="7.11978">
        <ele>637.4</ele>
      </trkpt>
      <trkpt lat="48.50408" lon="7.11992">
        <ele>638.2</ele>
      </trkpt>
      <trkpt lat="48.50439" lon="7.1203">
        <ele>639.4</ele>
      </trkpt>
      <trkpt lat="48.50454" lon="7.12051">
        <ele>640</ele>
      </trkpt>
      <trkpt lat="48.50471" lon="7.12066">
        <ele>640</ele>
      </trkpt>
      <trkpt lat="48.50477" lon="7.12069">
        <ele>639.7</ele>
      </trkpt>
      <trkpt lat="48.5049" lon="7.12076">
        <ele>639.1</ele>
      </trkpt>
      <trkpt lat="48.50509" lon="7.12086">
        <ele>638.1</ele>
      </trkpt>
      <trkpt lat="48.50517" lon="7.1209">
        <ele>637.6</ele>
      </trkpt>
      <trkpt lat="48.50519" lon="7.12081">
        <ele>637.4</ele>
      </trkpt>
      <trkpt lat="48.50521" lon="7.12072">
        <ele>637.2</ele>
      </trkpt>
      <trkpt lat="48.50531" lon="7.12087">
        <ele>636.6</ele>
      </trkpt>
      <trkpt lat="48.50534" lon="7.12092">
        <ele>636.3</ele>
      </trkpt>
      <trkpt lat="48.5054" lon="7.12102">
        <ele>635.8</ele>
      </trkpt>
      <trkpt lat="48.50541" lon="7.12108">
        <ele>635.6</ele>
      </trkpt>
      <trkpt lat="48.50544" lon="7.12114">
        <ele>635.3</ele>
      </trkpt>
      <trkpt lat="48.50547" lon="7.12122">
        <ele>634.9</ele>
      </trkpt>
      <trkpt lat="48.50549" lon="7.1213">
        <ele>634.5</ele>
      </trkpt>
      <trkpt lat="48.50551" lon="7.12137">
        <ele>634.2</ele>
      </trkpt>
      <trkpt lat="48.50554" lon="7.12144">
        <ele>633.8</ele>
      </trkpt>
      <trkpt lat="48.50555" lon="7.12151">
        <ele>633.5</ele>
      </trkpt>
      <trkpt lat="48.50556" lon="7.12157">
        <ele>633.3</ele>
      </trkpt>
      <trkpt lat="48.50557" lon="7.12163">
        <ele>633.2</ele>
      </trkpt>
      <trkpt lat="48.50557" lon="7.12169">
        <ele>633.1</ele>
      </trkpt>
      <trkpt lat="48.50558" lon="7.12177">
        <ele>632.9</ele>
      </trkpt>
      <trkpt lat="48.50558" lon="7.12189">
        <ele>632.9</ele>
      </trkpt>
      <trkpt lat="48.50557" lon="7.12198">
        <ele>633</ele>
      </trkpt>
      <trkpt lat="48.50556" lon="7.12207">
        <ele>633.3</ele>
      </trkpt>
      <trkpt lat="48.50555" lon="7.12216">
        <ele>633.6</ele>
      </trkpt>
      <trkpt lat="48.50553" lon="7.12228">
        <ele>634.1</ele>
      </trkpt>
      <trkpt lat="48.50552" lon="7.12239">
        <ele>634.6</ele>
      </trkpt>
      <trkpt lat="48.50551" lon="7.12249">
        <ele>635</ele>
      </trkpt>
      <trkpt lat="48.5055" lon="7.12259">
        <ele>635.4</ele>
      </trkpt>
      <trkpt lat="48.50549" lon="7.12268">
        <ele>635.7</ele>
      </trkpt>
      <trkpt lat="48.50549" lon="7.12275">
        <ele>635.9</ele>
      </trkpt>
      <trkpt lat="48.50549" lon="7.12277">
        <ele>635.9</ele>
      </trkpt>
      <trkpt lat="48.5055" lon="7.12283">
        <ele>636</ele>
      </trkpt>
      <trkpt lat="48.5055" lon="7.12284">
        <ele>636</ele>
      </trkpt>
      <trkpt lat="48.5055" lon="7.12289">
        <ele>636.1</ele>
      </trkpt>
      <trkpt lat="48.50551" lon="7.12294">
        <ele>636.1</ele>
      </trkpt>
      <trkpt lat="48.50552" lon="7.12299">
        <ele>636.1</ele>
      </trkpt>
      <trkpt lat="48.50553" lon="7.12304">
        <ele>636.1</ele>
      </trkpt>
      <trkpt lat="48.50554" lon="7.12309">
        <ele>636</ele>
      </trkpt>
      <trkpt lat="48.50557" lon="7.12315">
        <ele>635.9</ele>
      </trkpt>
      <trkpt lat="48.5056" lon="7.12323">
        <ele>635.6</ele>
      </trkpt>
      <trkpt lat="48.50585" lon="7.12378">
        <ele>631.7</ele>
      </trkpt>
      <trkpt lat="48.50596" lon="7.12403">
        <ele>628.9</ele>
      </trkpt>
      <trkpt lat="48.50599" lon="7.12411">
        <ele>628.1</ele>
      </trkpt>
      <trkpt lat="48.50602" lon="7.12419">
        <ele>627.3</ele>
      </trkpt>
      <trkpt lat="48.50604" lon="7.12426">
        <ele>626.8</ele>
      </trkpt>
      <trkpt lat="48.50605" lon="7.12431">
        <ele>626.3</ele>
      </trkpt>
      <trkpt lat="48.50607" lon="7.12437">
        <ele>625.7</ele>
      </trkpt>
      <trkpt lat="48.50608" lon="7.12444">
        <ele>625.3</ele>
      </trkpt>
      <trkpt lat="48.50608" lon="7.1245">
        <ele>625</ele>
      </trkpt>
      <trkpt lat="48.50608" lon="7.12457">
        <ele>624.8</ele>
      </trkpt>
      <trkpt lat="48.50608" lon="7.12463">
        <ele>624.6</ele>
      </trkpt>
      <trkpt lat="48.50608" lon="7.1247">
        <ele>624.5</ele>
      </trkpt>
      <trkpt lat="48.50607" lon="7.12476">
        <ele>624.5</ele>
      </trkpt>
      <trkpt lat="48.50606" lon="7.12485">
        <ele>624.3</ele>
      </trkpt>
      <trkpt lat="48.50605" lon="7.12491">
        <ele>624.3</ele>
      </trkpt>
      <trkpt lat="48.50604" lon="7.12496">
        <ele>624.2</ele>
      </trkpt>
      <trkpt lat="48.50603" lon="7.12503">
        <ele>623.8</ele>
      </trkpt>
      <trkpt lat="48.50603" lon="7.12511">
        <ele>623.3</ele>
      </trkpt>
      <trkpt lat="48.50602" lon="7.12519">
        <ele>622.5</ele>
      </trkpt>
      <trkpt lat="48.50602" lon="7.12527">
        <ele>621.3</ele>
      </trkpt>
      <trkpt lat="48.50602" lon="7.12534">
        <ele>620</ele>
      </trkpt>
      <trkpt lat="48.50602" lon="7.12543">
        <ele>618.4</ele>
      </trkpt>
      <trkpt lat="48.50603" lon="7.12551">
        <ele>617.4</ele>
      </trkpt>
      <trkpt lat="48.50603" lon="7.12559">
        <ele>616.5</ele>
      </trkpt>
      <trkpt lat="48.50603" lon="7.12566">
        <ele>615.8</ele>
      </trkpt>
      <trkpt lat="48.50604" lon="7.12571">
        <ele>615.4</ele>
      </trkpt>
      <trkpt lat="48.50604" lon="7.12573">
        <ele>615.2</ele>
      </trkpt>
      <trkpt lat="48.50606" lon="7.12582">
        <ele>614.7</ele>
      </trkpt>
      <trkpt lat="48.50608" lon="7.12587">
        <ele>614.3</ele>
      </trkpt>
      <trkpt lat="48.5061" lon="7.12593">
        <ele>614.1</ele>
      </trkpt>
      <trkpt lat="48.50613" lon="7.12599">
        <ele>614</ele>
      </trkpt>
      <trkpt lat="48.50616" lon="7.12605">
        <ele>613.9</ele>
      </trkpt>
      <trkpt lat="48.50619" lon="7.12608">
        <ele>613.9</ele>
      </trkpt>
      <trkpt lat="48.50622" lon="7.12613">
        <ele>614.1</ele>
      </trkpt>
      <trkpt lat="48.50626" lon="7.12617">
        <ele>614.2</ele>
      </trkpt>
      <trkpt lat="48.50629" lon="7.1262">
        <ele>614.4</ele>
      </trkpt>
      <trkpt lat="48.50633" lon="7.12622">
        <ele>614.6</ele>
      </trkpt>
      <trkpt lat="48.50636" lon="7.12623">
        <ele>614.8</ele>
      </trkpt>
      <trkpt lat="48.5064" lon="7.12624">
        <ele>614.9</ele>
      </trkpt>
      <trkpt lat="48.50644" lon="7.12623">
        <ele>615</ele>
      </trkpt>
      <trkpt lat="48.50646" lon="7.12623">
        <ele>615</ele>
      </trkpt>
      <trkpt lat="48.50649" lon="7.12621">
        <ele>614.9</ele>
      </trkpt>
      <trkpt lat="48.50651" lon="7.12619">
        <ele>614.7</ele>
      </trkpt>
      <trkpt lat="48.50654" lon="7.12617">
        <ele>614.5</ele>
      </trkpt>
      <trkpt lat="48.50672" lon="7.1259">
        <ele>612</ele>
      </trkpt>
      <trkpt lat="48.5069" lon="7.12564">
        <ele>610.9</ele>
      </trkpt>
      <trkpt lat="48.50701" lon="7.1255">
        <ele>610.6</ele>
      </trkpt>
      <trkpt lat="48.5071" lon="7.12537">
        <ele>610.2</ele>
      </trkpt>
      <trkpt lat="48.50719" lon="7.12528">
        <ele>610</ele>
      </trkpt>
      <trkpt lat="48.50724" lon="7.12521">
        <ele>609.7</ele>
      </trkpt>
      <trkpt lat="48.50728" lon="7.12515">
        <ele>609.4</ele>
      </trkpt>
      <trkpt lat="48.50732" lon="7.1251">
        <ele>609.2</ele>
      </trkpt>
      <trkpt lat="48.50737" lon="7.12505">
        <ele>609.1</ele>
      </trkpt>
      <trkpt lat="48.50742" lon="7.12501">
        <ele>609.1</ele>
      </trkpt>
      <trkpt lat="48.50745" lon="7.12498">
        <ele>609</ele>
      </trkpt>
      <trkpt lat="48.5075" lon="7.12496">
        <ele>609</ele>
      </trkpt>
      <trkpt lat="48.50754" lon="7.12494">
        <ele>609.1</ele>
      </trkpt>
      <trkpt lat="48.50758" lon="7.12492">
        <ele>609.1</ele>
      </trkpt>
      <trkpt lat="48.50762" lon="7.1249">
        <ele>609.2</ele>
      </trkpt>
      <trkpt lat="48.50767" lon="7.12489">
        <ele>609.4</ele>
      </trkpt>
      <trkpt lat="48.50772" lon="7.12488">
        <ele>609.6</ele>
      </trkpt>
      <trkpt lat="48.50777" lon="7.12487">
        <ele>609.7</ele>
      </trkpt>
      <trkpt lat="48.50783" lon="7.12487">
        <ele>610</ele>
      </trkpt>
      <trkpt lat="48.50788" lon="7.12488">
        <ele>610.2</ele>
      </trkpt>
      <trkpt lat="48.50791" lon="7.12489">
        <ele>610.4</ele>
      </trkpt>
      <trkpt lat="48.50797" lon="7.12492">
        <ele>610.7</ele>
      </trkpt>
      <trkpt lat="48.50805" lon="7.12502">
        <ele>612.1</ele>
      </trkpt>
      <trkpt lat="48.50806" lon="7.12503">
        <ele>612.3</ele>
      </trkpt>
      <trkpt lat="48.50835" lon="7.12541">
        <ele>617.4</ele>
      </trkpt>
      <trkpt lat="48.50863" lon="7.12579">
        <ele>619.9</ele>
      </trkpt>
      <trkpt lat="48.50864" lon="7.1258">
        <ele>619.9</ele>
      </trkpt>
      <trkpt lat="48.50891" lon="7.12627">
        <ele>620.6</ele>
      </trkpt>
      <trkpt lat="48.50899" lon="7.12642">
        <ele>620.2</ele>
      </trkpt>
      <trkpt lat="48.50909" lon="7.12666">
        <ele>620.2</ele>
      </trkpt>
      <trkpt lat="48.50922" lon="7.12718">
        <ele>622.4</ele>
      </trkpt>
      <trkpt lat="48.50935" lon="7.12769">
        <ele>626</ele>
      </trkpt>
      <trkpt lat="48.50943" lon="7.12791">
        <ele>627.7</ele>
      </trkpt>
      <trkpt lat="48.50951" lon="7.12801">
        <ele>628.1</ele>
      </trkpt>
      <trkpt lat="48.50958" lon="7.1281">
        <ele>628.4</ele>
      </trkpt>
      <trkpt lat="48.50984" lon="7.12841">
        <ele>631</ele>
      </trkpt>
      <trkpt lat="48.51003" lon="7.12863">
        <ele>633.1</ele>
      </trkpt>
      <trkpt lat="48.51022" lon="7.12885">
        <ele>635.6</ele>
      </trkpt>
      <trkpt lat="48.51049" lon="7.12916">
        <ele>638.3</ele>
      </trkpt>
      <trkpt lat="48.51049" lon="7.12916">
        <ele>638.4</ele>
      </trkpt>
      <trkpt lat="48.51063" lon="7.12929">
        <ele>638.9</ele>
      </trkpt>
      <trkpt lat="48.51064" lon="7.1293">
        <ele>638.9</ele>
      </trkpt>
      <trkpt lat="48.51069" lon="7.12936">
        <ele>639.1</ele>
      </trkpt>
      <trkpt lat="48.51075" lon="7.12946">
        <ele>639.5</ele>
      </trkpt>
      <trkpt lat="48.51082" lon="7.12958">
        <ele>640</ele>
      </trkpt>
      <trkpt lat="48.51086" lon="7.12966">
        <ele>640.5</ele>
      </trkpt>
      <trkpt lat="48.51086" lon="7.12967">
        <ele>640.5</ele>
      </trkpt>
      <trkpt lat="48.5109" lon="7.12974">
        <ele>640.9</ele>
      </trkpt>
      <trkpt lat="48.51094" lon="7.12983">
        <ele>641.1</ele>
      </trkpt>
      <trkpt lat="48.51099" lon="7.12992">
        <ele>641.3</ele>
      </trkpt>
      <trkpt lat="48.51105" lon="7.13007">
        <ele>641.5</ele>
      </trkpt>
      <trkpt lat="48.51109" lon="7.13016">
        <ele>641.3</ele>
      </trkpt>
      <trkpt lat="48.51113" lon="7.13024">
        <ele>640.9</ele>
      </trkpt>
      <trkpt lat="48.51117" lon="7.13031">
        <ele>640.3</ele>
      </trkpt>
      <trkpt lat="48.51122" lon="7.13039">
        <ele>639.6</ele>
      </trkpt>
      <trkpt lat="48.51126" lon="7.13045">
        <ele>639</ele>
      </trkpt>
      <trkpt lat="48.51129" lon="7.13052">
        <ele>638.6</ele>
      </trkpt>
      <trkpt lat="48.51131" lon="7.1306">
        <ele>638.1</ele>
      </trkpt>
      <trkpt lat="48.51133" lon="7.13067">
        <ele>637.9</ele>
      </trkpt>
      <trkpt lat="48.51135" lon="7.13074">
        <ele>637.8</ele>
      </trkpt>
      <trkpt lat="48.51136" lon="7.13081">
        <ele>637.9</ele>
      </trkpt>
      <trkpt lat="48.51135" lon="7.13088">
        <ele>638.3</ele>
      </trkpt>
      <trkpt lat="48.51136" lon="7.13094">
        <ele>638.6</ele>
      </trkpt>
      <trkpt lat="48.51136" lon="7.13096">
        <ele>638.7</ele>
      </trkpt>
      <trkpt lat="48.51134" lon="7.13113">
        <ele>640.2</ele>
      </trkpt>
      <trkpt lat="48.51133" lon="7.13125">
        <ele>641.3</ele>
      </trkpt>
      <trkpt lat="48.51132" lon="7.13136">
        <ele>642.6</ele>
      </trkpt>
      <trkpt lat="48.51131" lon="7.13147">
        <ele>643.9</ele>
      </trkpt>
      <trkpt lat="48.5113" lon="7.13157">
        <ele>645</ele>
      </trkpt>
      <trkpt lat="48.51131" lon="7.13168">
        <ele>645.7</ele>
      </trkpt>
      <trkpt lat="48.51131" lon="7.13183">
        <ele>646.3</ele>
      </trkpt>
      <trkpt lat="48.51132" lon="7.13197">
        <ele>646.5</ele>
      </trkpt>
      <trkpt lat="48.51133" lon="7.13209">
        <ele>646.5</ele>
      </trkpt>
      <trkpt lat="48.51134" lon="7.1322">
        <ele>646.4</ele>
      </trkpt>
      <trkpt lat="48.51135" lon="7.13231">
        <ele>646.4</ele>
      </trkpt>
      <trkpt lat="48.51135" lon="7.13242">
        <ele>646.4</ele>
      </trkpt>
      <trkpt lat="48.51137" lon="7.13259">
        <ele>646.7</ele>
      </trkpt>
      <trkpt lat="48.51137" lon="7.13267">
        <ele>646.9</ele>
      </trkpt>
      <trkpt lat="48.51138" lon="7.13276">
        <ele>647</ele>
      </trkpt>
      <trkpt lat="48.51139" lon="7.13288">
        <ele>646.7</ele>
      </trkpt>
      <trkpt lat="48.51141" lon="7.13298">
        <ele>646</ele>
      </trkpt>
      <trkpt lat="48.51142" lon="7.13306">
        <ele>645.1</ele>
      </trkpt>
      <trkpt lat="48.51143" lon="7.13313">
        <ele>644</ele>
      </trkpt>
      <trkpt lat="48.51144" lon="7.1332">
        <ele>642.6</ele>
      </trkpt>
      <trkpt lat="48.51145" lon="7.13327">
        <ele>641.2</ele>
      </trkpt>
      <trkpt lat="48.51145" lon="7.13332">
        <ele>640.5</ele>
      </trkpt>
      <trkpt lat="48.51143" lon="7.13338">
        <ele>640.3</ele>
      </trkpt>
      <trkpt lat="48.5114" lon="7.13342">
        <ele>640.9</ele>
      </trkpt>
      <trkpt lat="48.51137" lon="7.13344">
        <ele>641.6</ele>
      </trkpt>
      <trkpt lat="48.51133" lon="7.13345">
        <ele>642.6</ele>
      </trkpt>
      <trkpt lat="48.51126" lon="7.13346">
        <ele>644.1</ele>
      </trkpt>
      <trkpt lat="48.51119" lon="7.13347">
        <ele>645.7</ele>
      </trkpt>
      <trkpt lat="48.51107" lon="7.13351">
        <ele>647.4</ele>
      </trkpt>
      <trkpt lat="48.51102" lon="7.13353">
        <ele>648.2</ele>
      </trkpt>
      <trkpt lat="48.51088" lon="7.13359">
        <ele>649.8</ele>
      </trkpt>
      <trkpt lat="48.51079" lon="7.13364">
        <ele>651.1</ele>
      </trkpt>
      <trkpt lat="48.51071" lon="7.13368">
        <ele>652.3</ele>
      </trkpt>
      <trkpt lat="48.51065" lon="7.13371">
        <ele>653</ele>
      </trkpt>
      <trkpt lat="48.51059" lon="7.13377">
        <ele>653.5</ele>
      </trkpt>
      <trkpt lat="48.51057" lon="7.13381">
        <ele>653.6</ele>
      </trkpt>
      <trkpt lat="48.51056" lon="7.13387">
        <ele>653.5</ele>
      </trkpt>
      <trkpt lat="48.51056" lon="7.13393">
        <ele>653.3</ele>
      </trkpt>
      <trkpt lat="48.51056" lon="7.13399">
        <ele>653.1</ele>
      </trkpt>
      <trkpt lat="48.51057" lon="7.13404">
        <ele>653</ele>
      </trkpt>
      <trkpt lat="48.51059" lon="7.1341">
        <ele>652.9</ele>
      </trkpt>
      <trkpt lat="48.5106" lon="7.13412">
        <ele>652.9</ele>
      </trkpt>
      <trkpt lat="48.51062" lon="7.13417">
        <ele>652.8</ele>
      </trkpt>
      <trkpt lat="48.51065" lon="7.13422">
        <ele>652.8</ele>
      </trkpt>
      <trkpt lat="48.51069" lon="7.13427">
        <ele>652.8</ele>
      </trkpt>
      <trkpt lat="48.51072" lon="7.13431">
        <ele>652.8</ele>
      </trkpt>
      <trkpt lat="48.51077" lon="7.13434">
        <ele>652.7</ele>
      </trkpt>
      <trkpt lat="48.51081" lon="7.13437">
        <ele>652.7</ele>
      </trkpt>
      <trkpt lat="48.51085" lon="7.1344">
        <ele>652.6</ele>
      </trkpt>
      <trkpt lat="48.5109" lon="7.13442">
        <ele>652.5</ele>
      </trkpt>
      <trkpt lat="48.51097" lon="7.13445">
        <ele>652.1</ele>
      </trkpt>
      <trkpt lat="48.51124" lon="7.13462">
        <ele>651</ele>
      </trkpt>
      <trkpt lat="48.51151" lon="7.13479">
        <ele>649.3</ele>
      </trkpt>
      <trkpt lat="48.51169" lon="7.13506">
        <ele>650</ele>
      </trkpt>
      <trkpt lat="48.51185" lon="7.13529">
        <ele>649.8</ele>
      </trkpt>
      <trkpt lat="48.51187" lon="7.13533">
        <ele>649.8</ele>
      </trkpt>
      <trkpt lat="48.51192" lon="7.13545">
        <ele>649.9</ele>
      </trkpt>
      <trkpt lat="48.51195" lon="7.13554">
        <ele>650</ele>
      </trkpt>
      <trkpt lat="48.51201" lon="7.13568">
        <ele>650</ele>
      </trkpt>
      <trkpt lat="48.51206" lon="7.13575">
        <ele>649.6</ele>
      </trkpt>
      <trkpt lat="48.51212" lon="7.13588">
        <ele>649.3</ele>
      </trkpt>
      <trkpt lat="48.51223" lon="7.1361">
        <ele>648.3</ele>
      </trkpt>
      <trkpt lat="48.51227" lon="7.13621">
        <ele>647.7</ele>
      </trkpt>
      <trkpt lat="48.51231" lon="7.13633">
        <ele>646.7</ele>
      </trkpt>
      <trkpt lat="48.51234" lon="7.13641">
        <ele>645.9</ele>
      </trkpt>
      <trkpt lat="48.51238" lon="7.13651">
        <ele>644.8</ele>
      </trkpt>
      <trkpt lat="48.51238" lon="7.1366">
        <ele>644.8</ele>
      </trkpt>
      <trkpt lat="48.51238" lon="7.13666">
        <ele>644.7</ele>
      </trkpt>
      <trkpt lat="48.51239" lon="7.13672">
        <ele>644.3</ele>
      </trkpt>
      <trkpt lat="48.51239" lon="7.13679">
        <ele>644.2</ele>
      </trkpt>
      <trkpt lat="48.51239" lon="7.13681">
        <ele>644.2</ele>
      </trkpt>
      <trkpt lat="48.51239" lon="7.13688">
        <ele>644.5</ele>
      </trkpt>
      <trkpt lat="48.51236" lon="7.13701">
        <ele>645.6</ele>
      </trkpt>
      <trkpt lat="48.51235" lon="7.1371">
        <ele>646.5</ele>
      </trkpt>
      <trkpt lat="48.51234" lon="7.13716">
        <ele>647.1</ele>
      </trkpt>
      <trkpt lat="48.51234" lon="7.13719">
        <ele>647.3</ele>
      </trkpt>
      <trkpt lat="48.51234" lon="7.13725">
        <ele>647.9</ele>
      </trkpt>
      <trkpt lat="48.51239" lon="7.13734">
        <ele>648.5</ele>
      </trkpt>
      <trkpt lat="48.51249" lon="7.13742">
        <ele>648.9</ele>
      </trkpt>
      <trkpt lat="48.51255" lon="7.13744">
        <ele>649.1</ele>
      </trkpt>
      <trkpt lat="48.51263" lon="7.13747">
        <ele>649.1</ele>
      </trkpt>
      <trkpt lat="48.51271" lon="7.13748">
        <ele>649</ele>
      </trkpt>
      <trkpt lat="48.51278" lon="7.13748">
        <ele>648.8</ele>
      </trkpt>
      <trkpt lat="48.51284" lon="7.13748">
        <ele>648.6</ele>
      </trkpt>
      <trkpt lat="48.51289" lon="7.13748">
        <ele>648.5</ele>
      </trkpt>
      <trkpt lat="48.51294" lon="7.13746">
        <ele>647.8</ele>
      </trkpt>
      <trkpt lat="48.51298" lon="7.13742">
        <ele>646.9</ele>
      </trkpt>
      <trkpt lat="48.51302" lon="7.13736">
        <ele>645.6</ele>
      </trkpt>
      <trkpt lat="48.51305" lon="7.13731">
        <ele>644.4</ele>
      </trkpt>
      <trkpt lat="48.51309" lon="7.13726">
        <ele>643.2</ele>
      </trkpt>
      <trkpt lat="48.51314" lon="7.13738">
        <ele>645</ele>
      </trkpt>
      <trkpt lat="48.51309" lon="7.13726">
        <ele>643.2</ele>
      </trkpt>
      <trkpt lat="48.51318" lon="7.13716">
        <ele>640.7</ele>
      </trkpt>
      <trkpt lat="48.51324" lon="7.13709">
        <ele>639</ele>
      </trkpt>
      <trkpt lat="48.51326" lon="7.13706">
        <ele>638.1</ele>
      </trkpt>
      <trkpt lat="48.51329" lon="7.13704">
        <ele>637.3</ele>
      </trkpt>
      <trkpt lat="48.51335" lon="7.13703">
        <ele>636.2</ele>
      </trkpt>
      <trkpt lat="48.51339" lon="7.13704">
        <ele>635.9</ele>
      </trkpt>
      <trkpt lat="48.51343" lon="7.13706">
        <ele>635.8</ele>
      </trkpt>
      <trkpt lat="48.51346" lon="7.13711">
        <ele>636.1</ele>
      </trkpt>
      <trkpt lat="48.51349" lon="7.13716">
        <ele>636.4</ele>
      </trkpt>
      <trkpt lat="48.51354" lon="7.13723">
        <ele>636.9</ele>
      </trkpt>
      <trkpt lat="48.51358" lon="7.1373">
        <ele>637.3</ele>
      </trkpt>
      <trkpt lat="48.51362" lon="7.13736">
        <ele>637.6</ele>
      </trkpt>
      <trkpt lat="48.51366" lon="7.13741">
        <ele>637.7</ele>
      </trkpt>
      <trkpt lat="48.51372" lon="7.13747">
        <ele>637.3</ele>
      </trkpt>
      <trkpt lat="48.51377" lon="7.13751">
        <ele>636.5</ele>
      </trkpt>
      <trkpt lat="48.51383" lon="7.13757">
        <ele>635.7</ele>
      </trkpt>
      <trkpt lat="48.5139" lon="7.13762">
        <ele>634.5</ele>
      </trkpt>
      <trkpt lat="48.51395" lon="7.13768">
        <ele>633.7</ele>
      </trkpt>
      <trkpt lat="48.51403" lon="7.13785">
        <ele>633.2</ele>
      </trkpt>
      <trkpt lat="48.51416" lon="7.13815">
        <ele>631.1</ele>
      </trkpt>
      <trkpt lat="48.51421" lon="7.13828">
        <ele>629.6</ele>
      </trkpt>
      <trkpt lat="48.51425" lon="7.13839">
        <ele>628.6</ele>
      </trkpt>
      <trkpt lat="48.51428" lon="7.13848">
        <ele>627.5</ele>
      </trkpt>
      <trkpt lat="48.51432" lon="7.13863">
        <ele>626.3</ele>
      </trkpt>
      <trkpt lat="48.51434" lon="7.13875">
        <ele>625.7</ele>
      </trkpt>
      <trkpt lat="48.51436" lon="7.13885">
        <ele>625.7</ele>
      </trkpt>
      <trkpt lat="48.51436" lon="7.13887">
        <ele>625.7</ele>
      </trkpt>
      <trkpt lat="48.51438" lon="7.13902">
        <ele>625.5</ele>
      </trkpt>
      <trkpt lat="48.5144" lon="7.13913">
        <ele>625.4</ele>
      </trkpt>
      <trkpt lat="48.51442" lon="7.13924">
        <ele>625.3</ele>
      </trkpt>
      <trkpt lat="48.51444" lon="7.13933">
        <ele>625</ele>
      </trkpt>
      <trkpt lat="48.51447" lon="7.13944">
        <ele>625</ele>
      </trkpt>
      <trkpt lat="48.51448" lon="7.13953">
        <ele>625.3</ele>
      </trkpt>
      <trkpt lat="48.51449" lon="7.1396">
        <ele>626.1</ele>
      </trkpt>
      <trkpt lat="48.5145" lon="7.13967">
        <ele>627.1</ele>
      </trkpt>
      <trkpt lat="48.51451" lon="7.13974">
        <ele>628</ele>
      </trkpt>
      <trkpt lat="48.51453" lon="7.13979">
        <ele>628.3</ele>
      </trkpt>
      <trkpt lat="48.51456" lon="7.13983">
        <ele>628.2</ele>
      </trkpt>
      <trkpt lat="48.51457" lon="7.13985">
        <ele>628.2</ele>
      </trkpt>
      <trkpt lat="48.5146" lon="7.13988">
        <ele>628.1</ele>
      </trkpt>
      <trkpt lat="48.51465" lon="7.13992">
        <ele>627.6</ele>
      </trkpt>
      <trkpt lat="48.5147" lon="7.13994">
        <ele>626.5</ele>
      </trkpt>
      <trkpt lat="48.51477" lon="7.13996">
        <ele>625</ele>
      </trkpt>
      <trkpt lat="48.51482" lon="7.13997">
        <ele>623.5</ele>
      </trkpt>
      <trkpt lat="48.51487" lon="7.14">
        <ele>622.6</ele>
      </trkpt>
      <trkpt lat="48.51491" lon="7.14006">
        <ele>622.1</ele>
      </trkpt>
      <trkpt lat="48.51497" lon="7.14014">
        <ele>621.7</ele>
      </trkpt>
      <trkpt lat="48.51502" lon="7.14021">
        <ele>621.3</ele>
      </trkpt>
      <trkpt lat="48.51522" lon="7.14051">
        <ele>619.1</ele>
      </trkpt>
      <trkpt lat="48.51543" lon="7.14082">
        <ele>616.6</ele>
      </trkpt>
      <trkpt lat="48.51557" lon="7.14107">
        <ele>614</ele>
      </trkpt>
      <trkpt lat="48.51582" lon="7.14159">
        <ele>609</ele>
      </trkpt>
      <trkpt lat="48.51604" lon="7.14206">
        <ele>607</ele>
      </trkpt>
      <trkpt lat="48.51613" lon="7.14232">
        <ele>607.7</ele>
      </trkpt>
      <trkpt lat="48.51615" lon="7.1424">
        <ele>608.3</ele>
      </trkpt>
      <trkpt lat="48.51617" lon="7.14246">
        <ele>608.4</ele>
      </trkpt>
      <trkpt lat="48.51621" lon="7.14253">
        <ele>607.8</ele>
      </trkpt>
      <trkpt lat="48.51625" lon="7.14262">
        <ele>607.6</ele>
      </trkpt>
      <trkpt lat="48.51629" lon="7.14269">
        <ele>607</ele>
      </trkpt>
      <trkpt lat="48.51633" lon="7.14275">
        <ele>606.1</ele>
      </trkpt>
      <trkpt lat="48.51639" lon="7.14282">
        <ele>604.8</ele>
      </trkpt>
      <trkpt lat="48.51647" lon="7.14291">
        <ele>602.2</ele>
      </trkpt>
      <trkpt lat="48.51659" lon="7.14306">
        <ele>597.8</ele>
      </trkpt>
      <trkpt lat="48.51669" lon="7.1432">
        <ele>595.4</ele>
      </trkpt>
      <trkpt lat="48.51684" lon="7.14342">
        <ele>591.9</ele>
      </trkpt>
      <trkpt lat="48.51693" lon="7.14356">
        <ele>590</ele>
      </trkpt>
      <trkpt lat="48.51714" lon="7.14387">
        <ele>584.2</ele>
      </trkpt>
      <trkpt lat="48.51723" lon="7.14406">
        <ele>584.7</ele>
      </trkpt>
      <trkpt lat="48.51737" lon="7.14431">
        <ele>584.7</ele>
      </trkpt>
      <trkpt lat="48.51748" lon="7.1445">
        <ele>584.2</ele>
      </trkpt>
      <trkpt lat="48.51758" lon="7.14468">
        <ele>584.2</ele>
      </trkpt>
      <trkpt lat="48.51767" lon="7.14486">
        <ele>583.1</ele>
      </trkpt>
      <trkpt lat="48.51772" lon="7.14496">
        <ele>582.1</ele>
      </trkpt>
      <trkpt lat="48.51777" lon="7.14506">
        <ele>580.6</ele>
      </trkpt>
      <trkpt lat="48.51786" lon="7.14523">
        <ele>576.6</ele>
      </trkpt>
      <trkpt lat="48.51788" lon="7.14531">
        <ele>575.8</ele>
      </trkpt>
      <trkpt lat="48.51789" lon="7.14534">
        <ele>575.5</ele>
      </trkpt>
      <trkpt lat="48.51791" lon="7.1454">
        <ele>574.6</ele>
      </trkpt>
      <trkpt lat="48.51792" lon="7.14548">
        <ele>573.8</ele>
      </trkpt>
      <trkpt lat="48.51793" lon="7.14558">
        <ele>573</ele>
      </trkpt>
      <trkpt lat="48.51793" lon="7.14567">
        <ele>572.5</ele>
      </trkpt>
      <trkpt lat="48.51794" lon="7.14578">
        <ele>571.8</ele>
      </trkpt>
      <trkpt lat="48.51794" lon="7.14585">
        <ele>571.3</ele>
      </trkpt>
      <trkpt lat="48.51794" lon="7.14593">
        <ele>570.8</ele>
      </trkpt>
      <trkpt lat="48.51793" lon="7.146">
        <ele>570.6</ele>
      </trkpt>
      <trkpt lat="48.51792" lon="7.14606">
        <ele>570.6</ele>
      </trkpt>
      <trkpt lat="48.51791" lon="7.14613">
        <ele>570.8</ele>
      </trkpt>
      <trkpt lat="48.5179" lon="7.14619">
        <ele>571</ele>
      </trkpt>
      <trkpt lat="48.5179" lon="7.14625">
        <ele>571.1</ele>
      </trkpt>
      <trkpt lat="48.5179" lon="7.14629">
        <ele>571.2</ele>
      </trkpt>
      <trkpt lat="48.5179" lon="7.14634">
        <ele>571.3</ele>
      </trkpt>
      <trkpt lat="48.51791" lon="7.14637">
        <ele>571.3</ele>
      </trkpt>
      <trkpt lat="48.51792" lon="7.14637">
        <ele>571.1</ele>
      </trkpt>
      <trkpt lat="48.51794" lon="7.14637">
        <ele>570.8</ele>
      </trkpt>
      <trkpt lat="48.51796" lon="7.14634">
        <ele>570.1</ele>
      </trkpt>
      <trkpt lat="48.51798" lon="7.1463">
        <ele>569.5</ele>
      </trkpt>
      <trkpt lat="48.51799" lon="7.14625">
        <ele>568.8</ele>
      </trkpt>
      <trkpt lat="48.518" lon="7.14622">
        <ele>568.6</ele>
      </trkpt>
      <trkpt lat="48.51801" lon="7.14618">
        <ele>568.2</ele>
      </trkpt>
      <trkpt lat="48.51802" lon="7.14605">
        <ele>567.6</ele>
      </trkpt>
      <trkpt lat="48.51803" lon="7.14593">
        <ele>567.4</ele>
      </trkpt>
      <trkpt lat="48.51804" lon="7.14576">
        <ele>567.5</ele>
      </trkpt>
      <trkpt lat="48.51805" lon="7.14557">
        <ele>567.3</ele>
      </trkpt>
      <trkpt lat="48.51806" lon="7.14537">
        <ele>566.6</ele>
      </trkpt>
      <trkpt lat="48.51807" lon="7.14521">
        <ele>565.2</ele>
      </trkpt>
      <trkpt lat="48.51808" lon="7.14511">
        <ele>564.2</ele>
      </trkpt>
      <trkpt lat="48.51808" lon="7.14496">
        <ele>562.9</ele>
      </trkpt>
      <trkpt lat="48.51807" lon="7.14478">
        <ele>561.1</ele>
      </trkpt>
      <trkpt lat="48.51807" lon="7.14463">
        <ele>559.5</ele>
      </trkpt>
      <trkpt lat="48.51806" lon="7.14449">
        <ele>557.9</ele>
      </trkpt>
      <trkpt lat="48.51805" lon="7.14433">
        <ele>556.4</ele>
      </trkpt>
      <trkpt lat="48.51803" lon="7.14417">
        <ele>555.5</ele>
      </trkpt>
      <trkpt lat="48.51801" lon="7.14401">
        <ele>554.7</ele>
      </trkpt>
      <trkpt lat="48.51798" lon="7.14359">
        <ele>552.7</ele>
      </trkpt>
      <trkpt lat="48.51798" lon="7.14347">
        <ele>552</ele>
      </trkpt>
      <trkpt lat="48.51796" lon="7.14333">
        <ele>551.5</ele>
      </trkpt>
      <trkpt lat="48.51794" lon="7.14314">
        <ele>551</ele>
      </trkpt>
      <trkpt lat="48.51793" lon="7.14296">
        <ele>550.6</ele>
      </trkpt>
      <trkpt lat="48.51792" lon="7.14279">
        <ele>550.5</ele>
      </trkpt>
      <trkpt lat="48.5179" lon="7.14263">
        <ele>550.4</ele>
      </trkpt>
      <trkpt lat="48.51788" lon="7.14247">
        <ele>550.3</ele>
      </trkpt>
      <trkpt lat="48.51787" lon="7.1423">
        <ele>550.3</ele>
      </trkpt>
      <trkpt lat="48.51786" lon="7.14218">
        <ele>550.3</ele>
      </trkpt>
      <trkpt lat="48.51786" lon="7.14218">
        <ele>550.3</ele>
      </trkpt>
      <trkpt lat="48.51785" lon="7.14215">
        <ele>550.3</ele>
      </trkpt>
      <trkpt lat="48.51785" lon="7.14203">
        <ele>550.3</ele>
      </trkpt>
      <trkpt lat="48.51784" lon="7.14192">
        <ele>550.4</ele>
      </trkpt>
      <trkpt lat="48.51783" lon="7.14182">
        <ele>550.4</ele>
      </trkpt>
      <trkpt lat="48.51781" lon="7.1417">
        <ele>550.4</ele>
      </trkpt>
      <trkpt lat="48.5178" lon="7.1416">
        <ele>550.1</ele>
      </trkpt>
      <trkpt lat="48.51779" lon="7.14151">
        <ele>549.8</ele>
      </trkpt>
      <trkpt lat="48.51777" lon="7.14142">
        <ele>549.5</ele>
      </trkpt>
      <trkpt lat="48.51774" lon="7.14131">
        <ele>549.2</ele>
      </trkpt>
      <trkpt lat="48.51772" lon="7.1412">
        <ele>548.6</ele>
      </trkpt>
      <trkpt lat="48.51769" lon="7.14107">
        <ele>547.9</ele>
      </trkpt>
      <trkpt lat="48.51767" lon="7.14097">
        <ele>547.2</ele>
      </trkpt>
      <trkpt lat="48.51764" lon="7.14086">
        <ele>546.4</ele>
      </trkpt>
      <trkpt lat="48.51761" lon="7.14071">
        <ele>545.1</ele>
      </trkpt>
      <trkpt lat="48.51759" lon="7.14059">
        <ele>544</ele>
      </trkpt>
      <trkpt lat="48.51757" lon="7.14047">
        <ele>543</ele>
      </trkpt>
      <trkpt lat="48.51755" lon="7.14034">
        <ele>541.8</ele>
      </trkpt>
      <trkpt lat="48.51753" lon="7.14024">
        <ele>541.2</ele>
      </trkpt>
      <trkpt lat="48.51751" lon="7.14013">
        <ele>540.5</ele>
      </trkpt>
      <trkpt lat="48.51749" lon="7.13999">
        <ele>539.6</ele>
      </trkpt>
      <trkpt lat="48.51748" lon="7.13989">
        <ele>538.9</ele>
      </trkpt>
      <trkpt lat="48.51746" lon="7.13979">
        <ele>538.2</ele>
      </trkpt>
      <trkpt lat="48.51746" lon="7.13967">
        <ele>537.5</ele>
      </trkpt>
      <trkpt lat="48.51746" lon="7.1396">
        <ele>537</ele>
      </trkpt>
      <trkpt lat="48.51746" lon="7.13952">
        <ele>536.4</ele>
      </trkpt>
      <trkpt lat="48.51746" lon="7.13943">
        <ele>535.8</ele>
      </trkpt>
      <trkpt lat="48.51747" lon="7.13934">
        <ele>535.3</ele>
      </trkpt>
      <trkpt lat="48.51748" lon="7.13926">
        <ele>535.1</ele>
      </trkpt>
      <trkpt lat="48.51749" lon="7.13916">
        <ele>535.2</ele>
      </trkpt>
      <trkpt lat="48.5175" lon="7.13906">
        <ele>535.7</ele>
      </trkpt>
      <trkpt lat="48.51751" lon="7.13897">
        <ele>536.2</ele>
      </trkpt>
      <trkpt lat="48.51752" lon="7.13885">
        <ele>536.8</ele>
      </trkpt>
      <trkpt lat="48.51752" lon="7.13877">
        <ele>537.1</ele>
      </trkpt>
      <trkpt lat="48.51752" lon="7.13867">
        <ele>537.5</ele>
      </trkpt>
      <trkpt lat="48.51751" lon="7.13857">
        <ele>537.5</ele>
      </trkpt>
      <trkpt lat="48.5175" lon="7.13842">
        <ele>536.9</ele>
      </trkpt>
      <trkpt lat="48.51747" lon="7.13816">
        <ele>535.6</ele>
      </trkpt>
      <trkpt lat="48.51746" lon="7.13805">
        <ele>534.8</ele>
      </trkpt>
      <trkpt lat="48.51745" lon="7.13793">
        <ele>533.9</ele>
      </trkpt>
      <trkpt lat="48.51742" lon="7.13781">
        <ele>532.8</ele>
      </trkpt>
      <trkpt lat="48.5174" lon="7.13771">
        <ele>531.6</ele>
      </trkpt>
      <trkpt lat="48.51736" lon="7.13757">
        <ele>530.2</ele>
      </trkpt>
      <trkpt lat="48.51732" lon="7.13744">
        <ele>528.9</ele>
      </trkpt>
      <trkpt lat="48.51728" lon="7.13729">
        <ele>527.5</ele>
      </trkpt>
      <trkpt lat="48.51726" lon="7.13714">
        <ele>526.5</ele>
      </trkpt>
      <trkpt lat="48.51726" lon="7.13706">
        <ele>526</ele>
      </trkpt>
      <trkpt lat="48.51726" lon="7.13698">
        <ele>525.5</ele>
      </trkpt>
      <trkpt lat="48.51726" lon="7.13689">
        <ele>525.1</ele>
      </trkpt>
      <trkpt lat="48.51727" lon="7.13681">
        <ele>524.8</ele>
      </trkpt>
      <trkpt lat="48.51729" lon="7.13671">
        <ele>524.4</ele>
      </trkpt>
      <trkpt lat="48.51733" lon="7.1366">
        <ele>524</ele>
      </trkpt>
      <trkpt lat="48.51736" lon="7.13652">
        <ele>523.7</ele>
      </trkpt>
      <trkpt lat="48.5174" lon="7.13645">
        <ele>523.7</ele>
      </trkpt>
      <trkpt lat="48.51748" lon="7.1362">
        <ele>523.6</ele>
      </trkpt>
      <trkpt lat="48.51751" lon="7.13612">
        <ele>523.7</ele>
      </trkpt>
      <trkpt lat="48.51754" lon="7.13603">
        <ele>523.7</ele>
      </trkpt>
      <trkpt lat="48.51758" lon="7.13593">
        <ele>523.8</ele>
      </trkpt>
      <trkpt lat="48.51762" lon="7.13583">
        <ele>523.9</ele>
      </trkpt>
      <trkpt lat="48.51765" lon="7.13573">
        <ele>523.9</ele>
      </trkpt>
      <trkpt lat="48.51769" lon="7.13565">
        <ele>524</ele>
      </trkpt>
      <trkpt lat="48.51773" lon="7.13556">
        <ele>524.1</ele>
      </trkpt>
      <trkpt lat="48.51776" lon="7.13547">
        <ele>523.9</ele>
      </trkpt>
      <trkpt lat="48.51778" lon="7.13539">
        <ele>523.5</ele>
      </trkpt>
      <trkpt lat="48.5178" lon="7.13532">
        <ele>523.3</ele>
      </trkpt>
      <trkpt lat="48.51781" lon="7.13526">
        <ele>523.1</ele>
      </trkpt>
      <trkpt lat="48.51781" lon="7.13518">
        <ele>522.6</ele>
      </trkpt>
      <trkpt lat="48.51781" lon="7.1351">
        <ele>522.3</ele>
      </trkpt>
      <trkpt lat="48.51781" lon="7.13503">
        <ele>521.9</ele>
      </trkpt>
      <trkpt lat="48.5178" lon="7.13494">
        <ele>521.8</ele>
      </trkpt>
      <trkpt lat="48.5178" lon="7.13484">
        <ele>521.8</ele>
      </trkpt>
      <trkpt lat="48.51778" lon="7.13474">
        <ele>521.9</ele>
      </trkpt>
      <trkpt lat="48.51776" lon="7.13464">
        <ele>522</ele>
      </trkpt>
      <trkpt lat="48.51771" lon="7.13449">
        <ele>521.8</ele>
      </trkpt>
      <trkpt lat="48.51766" lon="7.13433">
        <ele>521.8</ele>
      </trkpt>
      <trkpt lat="48.5176" lon="7.13416">
        <ele>521.3</ele>
      </trkpt>
      <trkpt lat="48.5175" lon="7.13385">
        <ele>519.6</ele>
      </trkpt>
      <trkpt lat="48.51737" lon="7.13351">
        <ele>517.5</ele>
      </trkpt>
      <trkpt lat="48.5173" lon="7.13332">
        <ele>516</ele>
      </trkpt>
      <trkpt lat="48.51723" lon="7.13316">
        <ele>514.7</ele>
      </trkpt>
      <trkpt lat="48.51719" lon="7.13305">
        <ele>514.3</ele>
      </trkpt>
      <trkpt lat="48.51718" lon="7.13294">
        <ele>514.3</ele>
      </trkpt>
      <trkpt lat="48.51717" lon="7.13283">
        <ele>514.3</ele>
      </trkpt>
      <trkpt lat="48.51715" lon="7.13272">
        <ele>514.3</ele>
      </trkpt>
      <trkpt lat="48.51712" lon="7.1326">
        <ele>514</ele>
      </trkpt>
      <trkpt lat="48.51709" lon="7.13246">
        <ele>513.7</ele>
      </trkpt>
      <trkpt lat="48.51701" lon="7.13223">
        <ele>513.4</ele>
      </trkpt>
      <trkpt lat="48.51692" lon="7.13198">
        <ele>512.2</ele>
      </trkpt>
      <trkpt lat="48.51684" lon="7.13169">
        <ele>511.2</ele>
      </trkpt>
      <trkpt lat="48.51679" lon="7.13153">
        <ele>510.9</ele>
      </trkpt>
      <trkpt lat="48.51676" lon="7.13137">
        <ele>511</ele>
      </trkpt>
      <trkpt lat="48.51675" lon="7.13124">
        <ele>511.2</ele>
      </trkpt>
      <trkpt lat="48.51673" lon="7.13114">
        <ele>511.3</ele>
      </trkpt>
      <trkpt lat="48.51672" lon="7.13104">
        <ele>511.3</ele>
      </trkpt>
      <trkpt lat="48.51671" lon="7.1309">
        <ele>511.3</ele>
      </trkpt>
      <trkpt lat="48.5167" lon="7.13076">
        <ele>511.3</ele>
      </trkpt>
      <trkpt lat="48.5167" lon="7.13069">
        <ele>511.2</ele>
      </trkpt>
      <trkpt lat="48.51669" lon="7.1306">
        <ele>511</ele>
      </trkpt>
      <trkpt lat="48.51667" lon="7.13047">
        <ele>510.7</ele>
      </trkpt>
      <trkpt lat="48.51666" lon="7.13035">
        <ele>510.3</ele>
      </trkpt>
      <trkpt lat="48.51664" lon="7.13019">
        <ele>509.7</ele>
      </trkpt>
      <trkpt lat="48.51662" lon="7.13007">
        <ele>508.8</ele>
      </trkpt>
      <trkpt lat="48.51661" lon="7.12996">
        <ele>508.2</ele>
      </trkpt>
      <trkpt lat="48.51661" lon="7.12987">
        <ele>508</ele>
      </trkpt>
      <trkpt lat="48.51661" lon="7.12985">
        <ele>508</ele>
      </trkpt>
      <trkpt lat="48.51661" lon="7.12975">
        <ele>507.9</ele>
      </trkpt>
      <trkpt lat="48.51662" lon="7.12964">
        <ele>508.2</ele>
      </trkpt>
      <trkpt lat="48.51666" lon="7.12943">
        <ele>509.4</ele>
      </trkpt>
      <trkpt lat="48.51664" lon="7.12945">
        <ele>508.5</ele>
      </trkpt>
      <trkpt lat="48.5166" lon="7.12947">
        <ele>506.7</ele>
      </trkpt>
      <trkpt lat="48.51657" lon="7.12944">
        <ele>504.9</ele>
      </trkpt>
      <trkpt lat="48.51654" lon="7.12936">
        <ele>503.6</ele>
      </trkpt>
      <trkpt lat="48.51653" lon="7.12928">
        <ele>503.3</ele>
      </trkpt>
      <trkpt lat="48.51653" lon="7.12919">
        <ele>503.2</ele>
      </trkpt>
      <trkpt lat="48.51654" lon="7.12904">
        <ele>503.3</ele>
      </trkpt>
      <trkpt lat="48.51651" lon="7.1289">
        <ele>503.2</ele>
      </trkpt>
      <trkpt lat="48.51647" lon="7.1285">
        <ele>504</ele>
      </trkpt>
      <trkpt lat="48.51638" lon="7.12818">
        <ele>503.5</ele>
      </trkpt>
      <trkpt lat="48.51625" lon="7.1278">
        <ele>503.7</ele>
      </trkpt>
      <trkpt lat="48.51609" lon="7.12753">
        <ele>503.5</ele>
      </trkpt>
      <trkpt lat="48.51596" lon="7.12731">
        <ele>502.6</ele>
      </trkpt>
      <trkpt lat="48.5159" lon="7.12722">
        <ele>502</ele>
      </trkpt>
      <trkpt lat="48.51586" lon="7.12715">
        <ele>501.8</ele>
      </trkpt>
      <trkpt lat="48.51582" lon="7.12709">
        <ele>501.5</ele>
      </trkpt>
      <trkpt lat="48.51578" lon="7.12701">
        <ele>501.3</ele>
      </trkpt>
      <trkpt lat="48.51573" lon="7.12693">
        <ele>500.9</ele>
      </trkpt>
      <trkpt lat="48.51569" lon="7.12684">
        <ele>500.6</ele>
      </trkpt>
      <trkpt lat="48.51565" lon="7.12674">
        <ele>500.6</ele>
      </trkpt>
      <trkpt lat="48.51561" lon="7.12663">
        <ele>500.5</ele>
      </trkpt>
      <trkpt lat="48.51557" lon="7.12652">
        <ele>500.5</ele>
      </trkpt>
      <trkpt lat="48.51552" lon="7.12637">
        <ele>500.3</ele>
      </trkpt>
      <trkpt lat="48.51548" lon="7.12626">
        <ele>500.1</ele>
      </trkpt>
      <trkpt lat="48.51543" lon="7.12615">
        <ele>499.8</ele>
      </trkpt>
      <trkpt lat="48.51538" lon="7.12604">
        <ele>499.4</ele>
      </trkpt>
      <trkpt lat="48.51533" lon="7.12593">
        <ele>499</ele>
      </trkpt>
      <trkpt lat="48.51525" lon="7.12576">
        <ele>498.1</ele>
      </trkpt>
      <trkpt lat="48.5152" lon="7.12568">
        <ele>497.3</ele>
      </trkpt>
      <trkpt lat="48.51515" lon="7.1256">
        <ele>496.5</ele>
      </trkpt>
      <trkpt lat="48.51509" lon="7.12552">
        <ele>495.5</ele>
      </trkpt>
      <trkpt lat="48.51504" lon="7.12545">
        <ele>494.9</ele>
      </trkpt>
      <trkpt lat="48.51499" lon="7.12539">
        <ele>494</ele>
      </trkpt>
      <trkpt lat="48.51493" lon="7.12532">
        <ele>493.1</ele>
      </trkpt>
      <trkpt lat="48.51487" lon="7.12524">
        <ele>492.3</ele>
      </trkpt>
      <trkpt lat="48.51483" lon="7.12517">
        <ele>491.7</ele>
      </trkpt>
      <trkpt lat="48.51478" lon="7.1251">
        <ele>491</ele>
      </trkpt>
      <trkpt lat="48.51474" lon="7.12504">
        <ele>490.3</ele>
      </trkpt>
      <trkpt lat="48.5147" lon="7.12499">
        <ele>489.9</ele>
      </trkpt>
      <trkpt lat="48.51467" lon="7.12492">
        <ele>489.6</ele>
      </trkpt>
      <trkpt lat="48.51465" lon="7.12486">
        <ele>489.4</ele>
      </trkpt>
      <trkpt lat="48.51464" lon="7.1248">
        <ele>489.3</ele>
      </trkpt>
      <trkpt lat="48.51462" lon="7.12474">
        <ele>489.2</ele>
      </trkpt>
      <trkpt lat="48.5146" lon="7.12466">
        <ele>489.2</ele>
      </trkpt>
      <trkpt lat="48.51459" lon="7.12459">
        <ele>489.3</ele>
      </trkpt>
      <trkpt lat="48.51459" lon="7.12451">
        <ele>489.5</ele>
      </trkpt>
      <trkpt lat="48.51459" lon="7.12444">
        <ele>489.7</ele>
      </trkpt>
      <trkpt lat="48.51459" lon="7.12436">
        <ele>489.9</ele>
      </trkpt>
      <trkpt lat="48.5146" lon="7.12428">
        <ele>490.1</ele>
      </trkpt>
      <trkpt lat="48.5146" lon="7.12418">
        <ele>490.2</ele>
      </trkpt>
      <trkpt lat="48.5146" lon="7.12412">
        <ele>490.3</ele>
      </trkpt>
      <trkpt lat="48.5146" lon="7.12406">
        <ele>490.4</ele>
      </trkpt>
      <trkpt lat="48.5146" lon="7.124">
        <ele>490.4</ele>
      </trkpt>
      <trkpt lat="48.5146" lon="7.12394">
        <ele>490.5</ele>
      </trkpt>
      <trkpt lat="48.51459" lon="7.1239">
        <ele>490.4</ele>
      </trkpt>
      <trkpt lat="48.51458" lon="7.12386">
        <ele>490.4</ele>
      </trkpt>
      <trkpt lat="48.51456" lon="7.12379">
        <ele>490.5</ele>
      </trkpt>
      <trkpt lat="48.51455" lon="7.12373">
        <ele>490.7</ele>
      </trkpt>
      <trkpt lat="48.51452" lon="7.12366">
        <ele>490.9</ele>
      </trkpt>
      <trkpt lat="48.51448" lon="7.12356">
        <ele>491.4</ele>
      </trkpt>
      <trkpt lat="48.51445" lon="7.12346">
        <ele>491.9</ele>
      </trkpt>
      <trkpt lat="48.51441" lon="7.12337">
        <ele>492.1</ele>
      </trkpt>
      <trkpt lat="48.51436" lon="7.12327">
        <ele>491.9</ele>
      </trkpt>
      <trkpt lat="48.51429" lon="7.12311">
        <ele>491.2</ele>
      </trkpt>
      <trkpt lat="48.51419" lon="7.12283">
        <ele>489.2</ele>
      </trkpt>
      <trkpt lat="48.51415" lon="7.12272">
        <ele>488.1</ele>
      </trkpt>
      <trkpt lat="48.51405" lon="7.12249">
        <ele>485.2</ele>
      </trkpt>
      <trkpt lat="48.51399" lon="7.12227">
        <ele>484.6</ele>
      </trkpt>
      <trkpt lat="48.51392" lon="7.12182">
        <ele>485.1</ele>
      </trkpt>
      <trkpt lat="48.51385" lon="7.12144">
        <ele>483.9</ele>
      </trkpt>
      <trkpt lat="48.51382" lon="7.12132">
        <ele>483.2</ele>
      </trkpt>
      <trkpt lat="48.51378" lon="7.12117">
        <ele>482.3</ele>
      </trkpt>
      <trkpt lat="48.51373" lon="7.121">
        <ele>481.3</ele>
      </trkpt>
      <trkpt lat="48.51364" lon="7.12083">
        <ele>479.9</ele>
      </trkpt>
      <trkpt lat="48.51356" lon="7.12068">
        <ele>478.7</ele>
      </trkpt>
      <trkpt lat="48.51346" lon="7.12052">
        <ele>477.8</ele>
      </trkpt>
      <trkpt lat="48.51337" lon="7.12033">
        <ele>477.4</ele>
      </trkpt>
      <trkpt lat="48.51325" lon="7.11999">
        <ele>477.5</ele>
      </trkpt>
      <trkpt lat="48.51309" lon="7.11945">
        <ele>477.4</ele>
      </trkpt>
      <trkpt lat="48.513" lon="7.11913">
        <ele>476.5</ele>
      </trkpt>
      <trkpt lat="48.5129" lon="7.11881">
        <ele>475.4</ele>
      </trkpt>
      <trkpt lat="48.51269" lon="7.11823">
        <ele>473.5</ele>
      </trkpt>
      <trkpt lat="48.51254" lon="7.11788">
        <ele>471.6</ele>
      </trkpt>
      <trkpt lat="48.5124" lon="7.11764">
        <ele>469.5</ele>
      </trkpt>
      <trkpt lat="48.51232" lon="7.11752">
        <ele>468.4</ele>
      </trkpt>
      <trkpt lat="48.51226" lon="7.11741">
        <ele>467.7</ele>
      </trkpt>
      <trkpt lat="48.51222" lon="7.11722">
        <ele>466.9</ele>
      </trkpt>
      <trkpt lat="48.51217" lon="7.11703">
        <ele>466.4</ele>
      </trkpt>
      <trkpt lat="48.51216" lon="7.11684">
        <ele>466</ele>
      </trkpt>
      <trkpt lat="48.51216" lon="7.11665">
        <ele>465.9</ele>
      </trkpt>
      <trkpt lat="48.51218" lon="7.11636">
        <ele>465.9</ele>
      </trkpt>
      <trkpt lat="48.5122" lon="7.11583">
        <ele>465.3</ele>
      </trkpt>
      <trkpt lat="48.51223" lon="7.11566">
        <ele>465.5</ele>
      </trkpt>
      <trkpt lat="48.51226" lon="7.11548">
        <ele>465.7</ele>
      </trkpt>
      <trkpt lat="48.51229" lon="7.11503">
        <ele>465.8</ele>
      </trkpt>
      <trkpt lat="48.51232" lon="7.1146">
        <ele>466.6</ele>
      </trkpt>
      <trkpt lat="48.51235" lon="7.11436">
        <ele>467.8</ele>
      </trkpt>
      <trkpt lat="48.51237" lon="7.11426">
        <ele>468.6</ele>
      </trkpt>
      <trkpt lat="48.51238" lon="7.11414">
        <ele>469.4</ele>
      </trkpt>
      <trkpt lat="48.51239" lon="7.114">
        <ele>469.9</ele>
      </trkpt>
      <trkpt lat="48.5124" lon="7.11386">
        <ele>470.3</ele>
      </trkpt>
      <trkpt lat="48.51239" lon="7.11373">
        <ele>470.4</ele>
      </trkpt>
      <trkpt lat="48.51238" lon="7.11353">
        <ele>470.1</ele>
      </trkpt>
      <trkpt lat="48.51235" lon="7.11317">
        <ele>469.8</ele>
      </trkpt>
      <trkpt lat="48.51232" lon="7.11272">
        <ele>469.8</ele>
      </trkpt>
      <trkpt lat="48.51231" lon="7.11231">
        <ele>468.7</ele>
      </trkpt>
      <trkpt lat="48.51232" lon="7.11189">
        <ele>467.5</ele>
      </trkpt>
      <trkpt lat="48.51232" lon="7.1118">
        <ele>467.3</ele>
      </trkpt>
      <trkpt lat="48.51232" lon="7.1113">
        <ele>466.1</ele>
      </trkpt>
      <trkpt lat="48.51231" lon="7.11079">
        <ele>464.6</ele>
      </trkpt>
      <trkpt lat="48.51232" lon="7.11024">
        <ele>462.9</ele>
      </trkpt>
      <trkpt lat="48.51236" lon="7.10988">
        <ele>462.3</ele>
      </trkpt>
      <trkpt lat="48.51239" lon="7.10952">
        <ele>461.4</ele>
      </trkpt>
      <trkpt lat="48.51243" lon="7.10911">
        <ele>460.2</ele>
      </trkpt>
      <trkpt lat="48.5125" lon="7.10876">
        <ele>460.2</ele>
      </trkpt>
      <trkpt lat="48.51262" lon="7.10827">
        <ele>459.9</ele>
      </trkpt>
      <trkpt lat="48.51273" lon="7.10783">
        <ele>459.4</ele>
      </trkpt>
      <trkpt lat="48.51281" lon="7.10752">
        <ele>459.1</ele>
      </trkpt>
      <trkpt lat="48.51286" lon="7.10727">
        <ele>458.9</ele>
      </trkpt>
      <trkpt lat="48.51289" lon="7.10701">
        <ele>458.8</ele>
      </trkpt>
      <trkpt lat="48.51291" lon="7.10661">
        <ele>458.2</ele>
      </trkpt>
      <trkpt lat="48.51294" lon="7.10607">
        <ele>455.8</ele>
      </trkpt>
      <trkpt lat="48.51296" lon="7.10554">
        <ele>454.3</ele>
      </trkpt>
      <trkpt lat="48.51297" lon="7.10519">
        <ele>453.7</ele>
      </trkpt>
      <trkpt lat="48.51298" lon="7.10484">
        <ele>453.1</ele>
      </trkpt>
      <trkpt lat="48.51301" lon="7.10428">
        <ele>453.3</ele>
      </trkpt>
      <trkpt lat="48.51303" lon="7.10393">
        <ele>453.8</ele>
      </trkpt>
      <trkpt lat="48.51304" lon="7.10369">
        <ele>453.7</ele>
      </trkpt>
      <trkpt lat="48.51304" lon="7.10342">
        <ele>452.9</ele>
      </trkpt>
      <trkpt lat="48.51307" lon="7.10322">
        <ele>452.8</ele>
      </trkpt>
      <trkpt lat="48.5131" lon="7.1031">
        <ele>452.4</ele>
      </trkpt>
      <trkpt lat="48.51311" lon="7.10294">
        <ele>451.4</ele>
      </trkpt>
      <trkpt lat="48.5132" lon="7.10314">
        <ele>453.6</ele>
      </trkpt>
      <trkpt lat="48.51321" lon="7.10315">
        <ele>453.8</ele>
      </trkpt>
      <trkpt lat="48.5132" lon="7.10314">
        <ele>453.6</ele>
      </trkpt>
      <trkpt lat="48.51311" lon="7.10294">
        <ele>451.4</ele>
      </trkpt>
      <trkpt lat="48.51308" lon="7.1028">
        <ele>450.2</ele>
      </trkpt>
      <trkpt lat="48.51304" lon="7.10262">
        <ele>448.5</ele>
      </trkpt>
      <trkpt lat="48.51302" lon="7.10248">
        <ele>447</ele>
      </trkpt>
      <trkpt lat="48.513" lon="7.10226">
        <ele>444.9</ele>
      </trkpt>
      <trkpt lat="48.51297" lon="7.102">
        <ele>442.6</ele>
      </trkpt>
      <trkpt lat="48.51293" lon="7.10179">
        <ele>441.6</ele>
      </trkpt>
      <trkpt lat="48.5129" lon="7.10163">
        <ele>441</ele>
      </trkpt>
      <trkpt lat="48.51288" lon="7.1015">
        <ele>440.6</ele>
      </trkpt>
      <trkpt lat="48.51282" lon="7.10148">
        <ele>440.1</ele>
      </trkpt>
      <trkpt lat="48.5128" lon="7.10145">
        <ele>439.8</ele>
      </trkpt>
      <trkpt lat="48.51277" lon="7.10132">
        <ele>439.4</ele>
      </trkpt>
      <trkpt lat="48.51275" lon="7.10116">
        <ele>439</ele>
      </trkpt>
      <trkpt lat="48.51274" lon="7.101">
        <ele>438.6</ele>
      </trkpt>
      <trkpt lat="48.51273" lon="7.10086">
        <ele>438.2</ele>
      </trkpt>
      <trkpt lat="48.51274" lon="7.10076">
        <ele>438</ele>
      </trkpt>
      <trkpt lat="48.51275" lon="7.10065">
        <ele>437.7</ele>
      </trkpt>
      <trkpt lat="48.51279" lon="7.10056">
        <ele>437.4</ele>
      </trkpt>
      <trkpt lat="48.51283" lon="7.10047">
        <ele>437.1</ele>
      </trkpt>
      <trkpt lat="48.51287" lon="7.10041">
        <ele>436.9</ele>
      </trkpt>
      <trkpt lat="48.51288" lon="7.1002">
        <ele>435.6</ele>
      </trkpt>
      <trkpt lat="48.5129" lon="7.0999">
        <ele>433.6</ele>
      </trkpt>
      <trkpt lat="48.51286" lon="7.09985">
        <ele>433.4</ele>
      </trkpt>
      <trkpt lat="48.51262" lon="7.0997">
        <ele>432.9</ele>
      </trkpt>
      <trkpt lat="48.51232" lon="7.09952">
        <ele>432.9</ele>
      </trkpt>
      <trkpt lat="48.51228" lon="7.09948">
        <ele>433.1</ele>
      </trkpt>
      <trkpt lat="48.51221" lon="7.09942">
        <ele>433.5</ele>
      </trkpt>
      <trkpt lat="48.51219" lon="7.0994">
        <ele>433.7</ele>
      </trkpt>
      <trkpt lat="48.51216" lon="7.09937">
        <ele>434</ele>
      </trkpt>
      <trkpt lat="48.51211" lon="7.09928">
        <ele>434.4</ele>
      </trkpt>
      <trkpt lat="48.5121" lon="7.09921">
        <ele>434.4</ele>
      </trkpt>
      <trkpt lat="48.51186" lon="7.099">
        <ele>438.9</ele>
      </trkpt>
      <trkpt lat="48.51173" lon="7.09891">
        <ele>441.4</ele>
      </trkpt>
      <trkpt lat="48.51161" lon="7.09886">
        <ele>442.6</ele>
      </trkpt>
      <trkpt lat="48.51153" lon="7.09883">
        <ele>443.4</ele>
      </trkpt>
      <trkpt lat="48.51131" lon="7.09872">
        <ele>444.4</ele>
      </trkpt>
      <trkpt lat="48.51123" lon="7.0987">
        <ele>444.6</ele>
      </trkpt>
      <trkpt lat="48.51112" lon="7.09866">
        <ele>444.9</ele>
      </trkpt>
      <trkpt lat="48.51093" lon="7.09861">
        <ele>445.6</ele>
      </trkpt>
      <trkpt lat="48.51073" lon="7.09859">
        <ele>446.8</ele>
      </trkpt>
      <trkpt lat="48.51074" lon="7.09855">
        <ele>446.4</ele>
      </trkpt>
    </trkseg>
  </trk>
  <trk>
    <name><![CDATA[Ranch du Donon - 20,1km]]></name>
    <extensions>
      <line xmlns="http://www.topografix.com/GPX/gpx_style/0/2">
        <color>FFFF00</color>
        <opacity>1</opacity>
        <width>4</width>
      </line>
    </extensions>
    <trkseg>
      <trkpt lat="48.5099" lon="7.09949">
        <ele>461</ele>
      </trkpt>
      <trkpt lat="48.50992" lon="7.09948">
        <ele>460.8</ele>
      </trkpt>
      <trkpt lat="48.50999" lon="7.0994">
        <ele>459.5</ele>
      </trkpt>
      <trkpt lat="48.51032" lon="7.09898">
        <ele>453.2</ele>
      </trkpt>
      <trkpt lat="48.51043" lon="7.0988">
        <ele>450.8</ele>
      </trkpt>
      <trkpt lat="48.51052" lon="7.09862">
        <ele>448.5</ele>
      </trkpt>
      <trkpt lat="48.51058" lon="7.09853">
        <ele>447.3</ele>
      </trkpt>
      <trkpt lat="48.5106" lon="7.09852">
        <ele>447</ele>
      </trkpt>
      <trkpt lat="48.5107" lon="7.09852">
        <ele>446.3</ele>
      </trkpt>
      <trkpt lat="48.51074" lon="7.09852">
        <ele>446.1</ele>
      </trkpt>
      <trkpt lat="48.51073" lon="7.09859">
        <ele>446.8</ele>
      </trkpt>
      <trkpt lat="48.51093" lon="7.09861">
        <ele>445.6</ele>
      </trkpt>
      <trkpt lat="48.51112" lon="7.09866">
        <ele>444.9</ele>
      </trkpt>
      <trkpt lat="48.51123" lon="7.0987">
        <ele>444.6</ele>
      </trkpt>
      <trkpt lat="48.51131" lon="7.09872">
        <ele>444.4</ele>
      </trkpt>
      <trkpt lat="48.51153" lon="7.09883">
        <ele>443.4</ele>
      </trkpt>
      <trkpt lat="48.51173" lon="7.09891">
        <ele>441.4</ele>
      </trkpt>
      <trkpt lat="48.51186" lon="7.099">
        <ele>438.9</ele>
      </trkpt>
      <trkpt lat="48.5121" lon="7.09921">
        <ele>434.4</ele>
      </trkpt>
      <trkpt lat="48.5121" lon="7.09914">
        <ele>434.1</ele>
      </trkpt>
      <trkpt lat="48.5121" lon="7.09921">
        <ele>434.4</ele>
      </trkpt>
      <trkpt lat="48.51211" lon="7.09928">
        <ele>434.4</ele>
      </trkpt>
      <trkpt lat="48.51216" lon="7.09937">
        <ele>434</ele>
      </trkpt>
      <trkpt lat="48.51219" lon="7.0994">
        <ele>433.7</ele>
      </trkpt>
      <trkpt lat="48.51221" lon="7.09942">
        <ele>433.5</ele>
      </trkpt>
      <trkpt lat="48.51228" lon="7.09948">
        <ele>433.1</ele>
      </trkpt>
      <trkpt lat="48.51232" lon="7.09952">
        <ele>432.9</ele>
      </trkpt>
      <trkpt lat="48.51262" lon="7.0997">
        <ele>432.9</ele>
      </trkpt>
      <trkpt lat="48.51286" lon="7.09985">
        <ele>433.4</ele>
      </trkpt>
      <trkpt lat="48.5129" lon="7.0999">
        <ele>433.6</ele>
      </trkpt>
      <trkpt lat="48.51295" lon="7.09996">
        <ele>434</ele>
      </trkpt>
      <trkpt lat="48.5129" lon="7.0999">
        <ele>433.6</ele>
      </trkpt>
      <trkpt lat="48.51288" lon="7.1002">
        <ele>435.6</ele>
      </trkpt>
      <trkpt lat="48.51287" lon="7.10041">
        <ele>436.9</ele>
      </trkpt>
      <trkpt lat="48.51287" lon="7.10045">
        <ele>437.1</ele>
      </trkpt>
      <trkpt lat="48.51288" lon="7.10055">
        <ele>437.7</ele>
      </trkpt>
      <trkpt lat="48.5129" lon="7.10066">
        <ele>438.3</ele>
      </trkpt>
      <trkpt lat="48.5129" lon="7.1008">
        <ele>438.9</ele>
      </trkpt>
      <trkpt lat="48.5129" lon="7.10102">
        <ele>439.6</ele>
      </trkpt>
      <trkpt lat="48.51289" lon="7.10127">
        <ele>440.1</ele>
      </trkpt>
      <trkpt lat="48.51288" lon="7.1015">
        <ele>440.6</ele>
      </trkpt>
      <trkpt lat="48.5129" lon="7.10163">
        <ele>441</ele>
      </trkpt>
      <trkpt lat="48.51293" lon="7.10179">
        <ele>441.6</ele>
      </trkpt>
      <trkpt lat="48.51297" lon="7.102">
        <ele>442.6</ele>
      </trkpt>
      <trkpt lat="48.513" lon="7.10226">
        <ele>444.9</ele>
      </trkpt>
      <trkpt lat="48.51302" lon="7.10248">
        <ele>447</ele>
      </trkpt>
      <trkpt lat="48.51304" lon="7.10262">
        <ele>448.5</ele>
      </trkpt>
      <trkpt lat="48.51308" lon="7.1028">
        <ele>450.2</ele>
      </trkpt>
      <trkpt lat="48.51311" lon="7.10292">
        <ele>451.3</ele>
      </trkpt>
      <trkpt lat="48.51311" lon="7.10294">
        <ele>451.4</ele>
      </trkpt>
      <trkpt lat="48.5132" lon="7.10314">
        <ele>453.6</ele>
      </trkpt>
      <trkpt lat="48.51328" lon="7.10338">
        <ele>456.3</ele>
      </trkpt>
      <trkpt lat="48.51334" lon="7.10364">
        <ele>458.9</ele>
      </trkpt>
      <trkpt lat="48.51339" lon="7.10392">
        <ele>460.6</ele>
      </trkpt>
      <trkpt lat="48.51344" lon="7.10413">
        <ele>461.6</ele>
      </trkpt>
      <trkpt lat="48.5135" lon="7.10442">
        <ele>463.6</ele>
      </trkpt>
      <trkpt lat="48.51356" lon="7.10462">
        <ele>466.1</ele>
      </trkpt>
      <trkpt lat="48.51359" lon="7.10469">
        <ele>467.4</ele>
      </trkpt>
      <trkpt lat="48.51362" lon="7.10479">
        <ele>469.1</ele>
      </trkpt>
      <trkpt lat="48.51371" lon="7.10497">
        <ele>473.1</ele>
      </trkpt>
      <trkpt lat="48.51378" lon="7.10516">
        <ele>477.3</ele>
      </trkpt>
      <trkpt lat="48.51382" lon="7.10535">
        <ele>481.2</ele>
      </trkpt>
      <trkpt lat="48.51384" lon="7.10553">
        <ele>484.1</ele>
      </trkpt>
      <trkpt lat="48.51382" lon="7.10575">
        <ele>486.6</ele>
      </trkpt>
      <trkpt lat="48.5138" lon="7.10598">
        <ele>488.1</ele>
      </trkpt>
      <trkpt lat="48.51379" lon="7.1063">
        <ele>489.6</ele>
      </trkpt>
      <trkpt lat="48.51378" lon="7.10677">
        <ele>491.6</ele>
      </trkpt>
      <trkpt lat="48.51378" lon="7.10716">
        <ele>493.4</ele>
      </trkpt>
      <trkpt lat="48.51377" lon="7.10752">
        <ele>495.4</ele>
      </trkpt>
      <trkpt lat="48.51374" lon="7.10803">
        <ele>497.5</ele>
      </trkpt>
      <trkpt lat="48.51369" lon="7.10856">
        <ele>499.2</ele>
      </trkpt>
      <trkpt lat="48.51366" lon="7.10889">
        <ele>500.2</ele>
      </trkpt>
      <trkpt lat="48.51363" lon="7.10923">
        <ele>501</ele>
      </trkpt>
      <trkpt lat="48.51358" lon="7.10986">
        <ele>502.7</ele>
      </trkpt>
      <trkpt lat="48.51355" lon="7.11046">
        <ele>504.5</ele>
      </trkpt>
      <trkpt lat="48.51352" lon="7.11094">
        <ele>505.1</ele>
      </trkpt>
      <trkpt lat="48.51352" lon="7.11134">
        <ele>505.6</ele>
      </trkpt>
      <trkpt lat="48.51355" lon="7.11169">
        <ele>507</ele>
      </trkpt>
      <trkpt lat="48.51357" lon="7.1119">
        <ele>508.2</ele>
      </trkpt>
      <trkpt lat="48.5136" lon="7.11224">
        <ele>510</ele>
      </trkpt>
      <trkpt lat="48.51365" lon="7.11279">
        <ele>513</ele>
      </trkpt>
      <trkpt lat="48.51367" lon="7.11283">
        <ele>513.8</ele>
      </trkpt>
      <trkpt lat="48.51368" lon="7.1129">
        <ele>514.3</ele>
      </trkpt>
      <trkpt lat="48.51371" lon="7.11296">
        <ele>515.5</ele>
      </trkpt>
      <trkpt lat="48.51374" lon="7.11304">
        <ele>516.5</ele>
      </trkpt>
      <trkpt lat="48.51375" lon="7.11311">
        <ele>517.1</ele>
      </trkpt>
      <trkpt lat="48.51378" lon="7.1132">
        <ele>518.3</ele>
      </trkpt>
      <trkpt lat="48.51379" lon="7.11323">
        <ele>519</ele>
      </trkpt>
      <trkpt lat="48.51382" lon="7.11333">
        <ele>520</ele>
      </trkpt>
      <trkpt lat="48.51385" lon="7.11338">
        <ele>521.4</ele>
      </trkpt>
      <trkpt lat="48.51386" lon="7.11341">
        <ele>521.8</ele>
      </trkpt>
      <trkpt lat="48.51388" lon="7.11349">
        <ele>523</ele>
      </trkpt>
      <trkpt lat="48.51389" lon="7.11354">
        <ele>523.3</ele>
      </trkpt>
      <trkpt lat="48.5139" lon="7.11362">
        <ele>524</ele>
      </trkpt>
      <trkpt lat="48.51393" lon="7.11369">
        <ele>525.2</ele>
      </trkpt>
      <trkpt lat="48.51392" lon="7.11376">
        <ele>525</ele>
      </trkpt>
      <trkpt lat="48.51395" lon="7.11382">
        <ele>526.3</ele>
      </trkpt>
      <trkpt lat="48.51399" lon="7.11388">
        <ele>528</ele>
      </trkpt>
      <trkpt lat="48.51398" lon="7.11396">
        <ele>528.1</ele>
      </trkpt>
      <trkpt lat="48.514" lon="7.11403">
        <ele>528.9</ele>
      </trkpt>
      <trkpt lat="48.51402" lon="7.1141">
        <ele>529.8</ele>
      </trkpt>
      <trkpt lat="48.51405" lon="7.11417">
        <ele>531.4</ele>
      </trkpt>
      <trkpt lat="48.51407" lon="7.11422">
        <ele>532.2</ele>
      </trkpt>
      <trkpt lat="48.5141" lon="7.1143">
        <ele>533.4</ele>
      </trkpt>
      <trkpt lat="48.51413" lon="7.11437">
        <ele>534.7</ele>
      </trkpt>
      <trkpt lat="48.51415" lon="7.11443">
        <ele>535.3</ele>
      </trkpt>
      <trkpt lat="48.51415" lon="7.11447">
        <ele>535.7</ele>
      </trkpt>
      <trkpt lat="48.51418" lon="7.11454">
        <ele>536.6</ele>
      </trkpt>
      <trkpt lat="48.51422" lon="7.11459">
        <ele>538</ele>
      </trkpt>
      <trkpt lat="48.51424" lon="7.11464">
        <ele>538.7</ele>
      </trkpt>
      <trkpt lat="48.51428" lon="7.1147">
        <ele>539.7</ele>
      </trkpt>
      <trkpt lat="48.51431" lon="7.11477">
        <ele>540.8</ele>
      </trkpt>
      <trkpt lat="48.51434" lon="7.11484">
        <ele>541.5</ele>
      </trkpt>
      <trkpt lat="48.51437" lon="7.11489">
        <ele>542.3</ele>
      </trkpt>
      <trkpt lat="48.51439" lon="7.11495">
        <ele>542.9</ele>
      </trkpt>
      <trkpt lat="48.51442" lon="7.11501">
        <ele>543.6</ele>
      </trkpt>
      <trkpt lat="48.51445" lon="7.11506">
        <ele>544.4</ele>
      </trkpt>
      <trkpt lat="48.51448" lon="7.11511">
        <ele>545.1</ele>
      </trkpt>
      <trkpt lat="48.5145" lon="7.11519">
        <ele>545.5</ele>
      </trkpt>
      <trkpt lat="48.51454" lon="7.11526">
        <ele>546.3</ele>
      </trkpt>
      <trkpt lat="48.51456" lon="7.11533">
        <ele>546.6</ele>
      </trkpt>
      <trkpt lat="48.51459" lon="7.11539">
        <ele>547</ele>
      </trkpt>
      <trkpt lat="48.51462" lon="7.11545">
        <ele>547.4</ele>
      </trkpt>
      <trkpt lat="48.51465" lon="7.1155">
        <ele>547.9</ele>
      </trkpt>
      <trkpt lat="48.51467" lon="7.11553">
        <ele>548.1</ele>
      </trkpt>
      <trkpt lat="48.51465" lon="7.11547">
        <ele>548.1</ele>
      </trkpt>
      <trkpt lat="48.51461" lon="7.1153">
        <ele>548.3</ele>
      </trkpt>
      <trkpt lat="48.51459" lon="7.1152">
        <ele>548.2</ele>
      </trkpt>
      <trkpt lat="48.51461" lon="7.1153">
        <ele>548.3</ele>
      </trkpt>
      <trkpt lat="48.51465" lon="7.11547">
        <ele>548.1</ele>
      </trkpt>
      <trkpt lat="48.51467" lon="7.11553">
        <ele>548.1</ele>
      </trkpt>
      <trkpt lat="48.51469" lon="7.1156">
        <ele>548</ele>
      </trkpt>
      <trkpt lat="48.51473" lon="7.11569">
        <ele>548</ele>
      </trkpt>
      <trkpt lat="48.51476" lon="7.11577">
        <ele>547.9</ele>
      </trkpt>
      <trkpt lat="48.51483" lon="7.11586">
        <ele>548.5</ele>
      </trkpt>
      <trkpt lat="48.51487" lon="7.1159">
        <ele>549</ele>
      </trkpt>
      <trkpt lat="48.51491" lon="7.11594">
        <ele>549.6</ele>
      </trkpt>
      <trkpt lat="48.51494" lon="7.11598">
        <ele>550.2</ele>
      </trkpt>
      <trkpt lat="48.515" lon="7.11606">
        <ele>550.9</ele>
      </trkpt>
      <trkpt lat="48.51508" lon="7.11614">
        <ele>552.6</ele>
      </trkpt>
      <trkpt lat="48.51518" lon="7.11635">
        <ele>554.2</ele>
      </trkpt>
      <trkpt lat="48.51535" lon="7.11678">
        <ele>556.1</ele>
      </trkpt>
      <trkpt lat="48.51539" lon="7.11688">
        <ele>556.7</ele>
      </trkpt>
      <trkpt lat="48.51549" lon="7.11722">
        <ele>557.2</ele>
      </trkpt>
      <trkpt lat="48.5156" lon="7.11755">
        <ele>557.8</ele>
      </trkpt>
      <trkpt lat="48.5157" lon="7.11789">
        <ele>558.8</ele>
      </trkpt>
      <trkpt lat="48.5157" lon="7.11789">
        <ele>558.9</ele>
      </trkpt>
      <trkpt lat="48.51573" lon="7.11801">
        <ele>559.1</ele>
      </trkpt>
      <trkpt lat="48.51576" lon="7.11814">
        <ele>559.5</ele>
      </trkpt>
      <trkpt lat="48.51579" lon="7.11821">
        <ele>559.7</ele>
      </trkpt>
      <trkpt lat="48.51582" lon="7.11829">
        <ele>560</ele>
      </trkpt>
      <trkpt lat="48.51584" lon="7.11834">
        <ele>560</ele>
      </trkpt>
      <trkpt lat="48.51587" lon="7.1184">
        <ele>560.2</ele>
      </trkpt>
      <trkpt lat="48.5159" lon="7.11845">
        <ele>560.3</ele>
      </trkpt>
      <trkpt lat="48.51593" lon="7.1185">
        <ele>560.3</ele>
      </trkpt>
      <trkpt lat="48.51603" lon="7.11864">
        <ele>560.4</ele>
      </trkpt>
      <trkpt lat="48.51614" lon="7.11876">
        <ele>561.3</ele>
      </trkpt>
      <trkpt lat="48.51644" lon="7.11907">
        <ele>565</ele>
      </trkpt>
      <trkpt lat="48.51656" lon="7.11922">
        <ele>565.9</ele>
      </trkpt>
      <trkpt lat="48.51662" lon="7.1193">
        <ele>566.6</ele>
      </trkpt>
      <trkpt lat="48.51668" lon="7.1194">
        <ele>567.1</ele>
      </trkpt>
      <trkpt lat="48.51671" lon="7.11947">
        <ele>567.3</ele>
      </trkpt>
      <trkpt lat="48.51674" lon="7.11957">
        <ele>567.3</ele>
      </trkpt>
      <trkpt lat="48.51676" lon="7.11966">
        <ele>567.3</ele>
      </trkpt>
      <trkpt lat="48.5168" lon="7.11976">
        <ele>567.5</ele>
      </trkpt>
      <trkpt lat="48.51682" lon="7.11983">
        <ele>567.7</ele>
      </trkpt>
      <trkpt lat="48.51685" lon="7.11992">
        <ele>568</ele>
      </trkpt>
      <trkpt lat="48.51688" lon="7.12">
        <ele>568.5</ele>
      </trkpt>
      <trkpt lat="48.51694" lon="7.1201">
        <ele>569.2</ele>
      </trkpt>
      <trkpt lat="48.51698" lon="7.12018">
        <ele>569.8</ele>
      </trkpt>
      <trkpt lat="48.51701" lon="7.12025">
        <ele>570.1</ele>
      </trkpt>
      <trkpt lat="48.51705" lon="7.12032">
        <ele>570.4</ele>
      </trkpt>
      <trkpt lat="48.51709" lon="7.12038">
        <ele>570.7</ele>
      </trkpt>
      <trkpt lat="48.51712" lon="7.12042">
        <ele>570.9</ele>
      </trkpt>
      <trkpt lat="48.51715" lon="7.12046">
        <ele>571.2</ele>
      </trkpt>
      <trkpt lat="48.51717" lon="7.12047">
        <ele>571.3</ele>
      </trkpt>
      <trkpt lat="48.51717" lon="7.12047">
        <ele>571.3</ele>
      </trkpt>
      <trkpt lat="48.51719" lon="7.12049">
        <ele>571.4</ele>
      </trkpt>
      <trkpt lat="48.51723" lon="7.12051">
        <ele>571.7</ele>
      </trkpt>
      <trkpt lat="48.5173" lon="7.12055">
        <ele>572</ele>
      </trkpt>
      <trkpt lat="48.51734" lon="7.12056">
        <ele>572.2</ele>
      </trkpt>
      <trkpt lat="48.51738" lon="7.12056">
        <ele>572.3</ele>
      </trkpt>
      <trkpt lat="48.51742" lon="7.12056">
        <ele>572.5</ele>
      </trkpt>
      <trkpt lat="48.51749" lon="7.12055">
        <ele>572.7</ele>
      </trkpt>
      <trkpt lat="48.51755" lon="7.12054">
        <ele>572.8</ele>
      </trkpt>
      <trkpt lat="48.51776" lon="7.12053">
        <ele>572.7</ele>
      </trkpt>
      <trkpt lat="48.51803" lon="7.12052">
        <ele>573.7</ele>
      </trkpt>
      <trkpt lat="48.51819" lon="7.12051">
        <ele>576.2</ele>
      </trkpt>
      <trkpt lat="48.51835" lon="7.1205">
        <ele>579.4</ele>
      </trkpt>
      <trkpt lat="48.51843" lon="7.12049">
        <ele>581.3</ele>
      </trkpt>
      <trkpt lat="48.51852" lon="7.1205">
        <ele>583.3</ele>
      </trkpt>
      <trkpt lat="48.51857" lon="7.12051">
        <ele>584.2</ele>
      </trkpt>
      <trkpt lat="48.51862" lon="7.12053">
        <ele>584.6</ele>
      </trkpt>
      <trkpt lat="48.51868" lon="7.12056">
        <ele>584.8</ele>
      </trkpt>
      <trkpt lat="48.51872" lon="7.1206">
        <ele>584.4</ele>
      </trkpt>
      <trkpt lat="48.51877" lon="7.12065">
        <ele>583.7</ele>
      </trkpt>
      <trkpt lat="48.51882" lon="7.12071">
        <ele>582.9</ele>
      </trkpt>
      <trkpt lat="48.51887" lon="7.12077">
        <ele>582.2</ele>
      </trkpt>
      <trkpt lat="48.51893" lon="7.12083">
        <ele>581.7</ele>
      </trkpt>
      <trkpt lat="48.51899" lon="7.12087">
        <ele>581.6</ele>
      </trkpt>
      <trkpt lat="48.51921" lon="7.121">
        <ele>583.1</ele>
      </trkpt>
      <trkpt lat="48.51931" lon="7.12105">
        <ele>584.1</ele>
      </trkpt>
      <trkpt lat="48.51939" lon="7.1211">
        <ele>584.9</ele>
      </trkpt>
      <trkpt lat="48.51945" lon="7.12113">
        <ele>585.5</ele>
      </trkpt>
      <trkpt lat="48.51953" lon="7.12118">
        <ele>586.7</ele>
      </trkpt>
      <trkpt lat="48.51957" lon="7.12122">
        <ele>587.1</ele>
      </trkpt>
      <trkpt lat="48.5196" lon="7.12127">
        <ele>587.2</ele>
      </trkpt>
      <trkpt lat="48.51963" lon="7.12133">
        <ele>587.2</ele>
      </trkpt>
      <trkpt lat="48.51965" lon="7.1214">
        <ele>587.2</ele>
      </trkpt>
      <trkpt lat="48.51966" lon="7.12146">
        <ele>587.2</ele>
      </trkpt>
      <trkpt lat="48.51968" lon="7.12154">
        <ele>587.6</ele>
      </trkpt>
      <trkpt lat="48.51968" lon="7.12158">
        <ele>587.7</ele>
      </trkpt>
      <trkpt lat="48.51968" lon="7.12163">
        <ele>587.9</ele>
      </trkpt>
      <trkpt lat="48.51968" lon="7.12169">
        <ele>588.3</ele>
      </trkpt>
      <trkpt lat="48.51968" lon="7.12176">
        <ele>588.7</ele>
      </trkpt>
      <trkpt lat="48.51966" lon="7.12181">
        <ele>588.6</ele>
      </trkpt>
      <trkpt lat="48.51963" lon="7.12186">
        <ele>588.4</ele>
      </trkpt>
      <trkpt lat="48.51971" lon="7.12174">
        <ele>589.5</ele>
      </trkpt>
      <trkpt lat="48.51974" lon="7.1217">
        <ele>590</ele>
      </trkpt>
      <trkpt lat="48.51977" lon="7.12165">
        <ele>590.3</ele>
      </trkpt>
      <trkpt lat="48.51979" lon="7.12159">
        <ele>590.5</ele>
      </trkpt>
      <trkpt lat="48.5198" lon="7.12153">
        <ele>590.7</ele>
      </trkpt>
      <trkpt lat="48.51981" lon="7.12147">
        <ele>591</ele>
      </trkpt>
      <trkpt lat="48.51981" lon="7.12141">
        <ele>591.4</ele>
      </trkpt>
      <trkpt lat="48.51981" lon="7.12134">
        <ele>591.9</ele>
      </trkpt>
      <trkpt lat="48.51981" lon="7.12129">
        <ele>592.3</ele>
      </trkpt>
      <trkpt lat="48.51979" lon="7.12123">
        <ele>592.6</ele>
      </trkpt>
      <trkpt lat="48.51977" lon="7.12117">
        <ele>593.1</ele>
      </trkpt>
      <trkpt lat="48.51975" lon="7.12112">
        <ele>593.7</ele>
      </trkpt>
      <trkpt lat="48.51972" lon="7.12107">
        <ele>594.2</ele>
      </trkpt>
      <trkpt lat="48.51969" lon="7.12102">
        <ele>594.6</ele>
      </trkpt>
      <trkpt lat="48.51965" lon="7.12098">
        <ele>594.8</ele>
      </trkpt>
      <trkpt lat="48.51961" lon="7.12096">
        <ele>594.5</ele>
      </trkpt>
      <trkpt lat="48.51956" lon="7.12093">
        <ele>594.2</ele>
      </trkpt>
      <trkpt lat="48.5195" lon="7.12089">
        <ele>594</ele>
      </trkpt>
      <trkpt lat="48.51946" lon="7.12085">
        <ele>594.1</ele>
      </trkpt>
      <trkpt lat="48.5194" lon="7.1208">
        <ele>594.4</ele>
      </trkpt>
      <trkpt lat="48.51935" lon="7.12075">
        <ele>594.7</ele>
      </trkpt>
      <trkpt lat="48.5193" lon="7.1207">
        <ele>595.5</ele>
      </trkpt>
      <trkpt lat="48.51925" lon="7.12064">
        <ele>596.3</ele>
      </trkpt>
      <trkpt lat="48.51922" lon="7.12059">
        <ele>597.6</ele>
      </trkpt>
      <trkpt lat="48.51906" lon="7.12036">
        <ele>602.5</ele>
      </trkpt>
      <trkpt lat="48.51893" lon="7.12013">
        <ele>607.4</ele>
      </trkpt>
      <trkpt lat="48.5189" lon="7.12006">
        <ele>609.1</ele>
      </trkpt>
      <trkpt lat="48.51887" lon="7.12003">
        <ele>609.6</ele>
      </trkpt>
      <trkpt lat="48.51885" lon="7.12001">
        <ele>609.8</ele>
      </trkpt>
      <trkpt lat="48.51882" lon="7.11998">
        <ele>610</ele>
      </trkpt>
      <trkpt lat="48.51878" lon="7.11996">
        <ele>609.9</ele>
      </trkpt>
      <trkpt lat="48.51874" lon="7.11995">
        <ele>609.5</ele>
      </trkpt>
      <trkpt lat="48.51869" lon="7.11993">
        <ele>609.1</ele>
      </trkpt>
      <trkpt lat="48.51864" lon="7.11991">
        <ele>608.4</ele>
      </trkpt>
      <trkpt lat="48.5186" lon="7.1199">
        <ele>607.8</ele>
      </trkpt>
      <trkpt lat="48.51854" lon="7.11988">
        <ele>607.3</ele>
      </trkpt>
      <trkpt lat="48.5185" lon="7.11987">
        <ele>607.2</ele>
      </trkpt>
      <trkpt lat="48.51845" lon="7.11983">
        <ele>607.4</ele>
      </trkpt>
      <trkpt lat="48.51839" lon="7.11977">
        <ele>608.1</ele>
      </trkpt>
      <trkpt lat="48.5183" lon="7.1197">
        <ele>608.9</ele>
      </trkpt>
      <trkpt lat="48.51821" lon="7.11964">
        <ele>609.2</ele>
      </trkpt>
      <trkpt lat="48.51815" lon="7.11961">
        <ele>609.2</ele>
      </trkpt>
      <trkpt lat="48.51806" lon="7.11954">
        <ele>609.8</ele>
      </trkpt>
      <trkpt lat="48.51802" lon="7.11949">
        <ele>610.4</ele>
      </trkpt>
      <trkpt lat="48.51798" lon="7.11944">
        <ele>611.1</ele>
      </trkpt>
      <trkpt lat="48.51794" lon="7.1194">
        <ele>611.6</ele>
      </trkpt>
      <trkpt lat="48.5179" lon="7.11935">
        <ele>612.3</ele>
      </trkpt>
      <trkpt lat="48.51787" lon="7.1193">
        <ele>613.2</ele>
      </trkpt>
      <trkpt lat="48.51784" lon="7.11925">
        <ele>614.1</ele>
      </trkpt>
      <trkpt lat="48.51782" lon="7.1192">
        <ele>615.1</ele>
      </trkpt>
      <trkpt lat="48.51777" lon="7.11906">
        <ele>617.3</ele>
      </trkpt>
      <trkpt lat="48.51769" lon="7.1189">
        <ele>619.1</ele>
      </trkpt>
      <trkpt lat="48.51759" lon="7.11869">
        <ele>620.5</ele>
      </trkpt>
      <trkpt lat="48.51747" lon="7.11843">
        <ele>621.5</ele>
      </trkpt>
      <trkpt lat="48.51738" lon="7.11821">
        <ele>622.8</ele>
      </trkpt>
      <trkpt lat="48.51735" lon="7.11813">
        <ele>623.4</ele>
      </trkpt>
      <trkpt lat="48.51733" lon="7.11805">
        <ele>624</ele>
      </trkpt>
      <trkpt lat="48.5173" lon="7.11798">
        <ele>624.6</ele>
      </trkpt>
      <trkpt lat="48.51728" lon="7.1179">
        <ele>624.9</ele>
      </trkpt>
      <trkpt lat="48.51725" lon="7.1178">
        <ele>625.9</ele>
      </trkpt>
      <trkpt lat="48.51722" lon="7.11771">
        <ele>626.9</ele>
      </trkpt>
      <trkpt lat="48.51718" lon="7.1176">
        <ele>627.8</ele>
      </trkpt>
      <trkpt lat="48.51715" lon="7.11751">
        <ele>628.2</ele>
      </trkpt>
      <trkpt lat="48.5171" lon="7.11743">
        <ele>628</ele>
      </trkpt>
      <trkpt lat="48.51706" lon="7.11734">
        <ele>627.6</ele>
      </trkpt>
      <trkpt lat="48.51702" lon="7.11727">
        <ele>627.3</ele>
      </trkpt>
      <trkpt lat="48.51699" lon="7.11719">
        <ele>627</ele>
      </trkpt>
      <trkpt lat="48.51696" lon="7.11712">
        <ele>626.9</ele>
      </trkpt>
      <trkpt lat="48.51693" lon="7.11705">
        <ele>627.1</ele>
      </trkpt>
      <trkpt lat="48.5169" lon="7.11697">
        <ele>627.6</ele>
      </trkpt>
      <trkpt lat="48.51688" lon="7.11687">
        <ele>628.7</ele>
      </trkpt>
      <trkpt lat="48.51686" lon="7.11678">
        <ele>630</ele>
      </trkpt>
      <trkpt lat="48.51683" lon="7.11665">
        <ele>631.7</ele>
      </trkpt>
      <trkpt lat="48.5168" lon="7.11656">
        <ele>632.6</ele>
      </trkpt>
      <trkpt lat="48.51677" lon="7.11645">
        <ele>633.5</ele>
      </trkpt>
      <trkpt lat="48.51671" lon="7.11631">
        <ele>634.8</ele>
      </trkpt>
      <trkpt lat="48.51661" lon="7.11602">
        <ele>636.7</ele>
      </trkpt>
      <trkpt lat="48.51659" lon="7.11598">
        <ele>637</ele>
      </trkpt>
      <trkpt lat="48.51658" lon="7.11595">
        <ele>637.1</ele>
      </trkpt>
      <trkpt lat="48.51648" lon="7.11569">
        <ele>638.6</ele>
      </trkpt>
      <trkpt lat="48.51636" lon="7.11539">
        <ele>639.1</ele>
      </trkpt>
      <trkpt lat="48.51627" lon="7.11514">
        <ele>638.4</ele>
      </trkpt>
      <trkpt lat="48.5162" lon="7.11497">
        <ele>637.6</ele>
      </trkpt>
      <trkpt lat="48.51617" lon="7.11485">
        <ele>637.1</ele>
      </trkpt>
      <trkpt lat="48.51612" lon="7.11466">
        <ele>636.1</ele>
      </trkpt>
      <trkpt lat="48.51605" lon="7.11438">
        <ele>633.9</ele>
      </trkpt>
      <trkpt lat="48.516" lon="7.11421">
        <ele>632</ele>
      </trkpt>
      <trkpt lat="48.51596" lon="7.11407">
        <ele>630.7</ele>
      </trkpt>
      <trkpt lat="48.51595" lon="7.11396">
        <ele>630.1</ele>
      </trkpt>
      <trkpt lat="48.51594" lon="7.11389">
        <ele>629.8</ele>
      </trkpt>
      <trkpt lat="48.51593" lon="7.11381">
        <ele>629.5</ele>
      </trkpt>
      <trkpt lat="48.51593" lon="7.11375">
        <ele>629.7</ele>
      </trkpt>
      <trkpt lat="48.51592" lon="7.11366">
        <ele>629.8</ele>
      </trkpt>
      <trkpt lat="48.51592" lon="7.11358">
        <ele>629.8</ele>
      </trkpt>
      <trkpt lat="48.5159" lon="7.1135">
        <ele>629.3</ele>
      </trkpt>
      <trkpt lat="48.51588" lon="7.11341">
        <ele>628.6</ele>
      </trkpt>
      <trkpt lat="48.51586" lon="7.1133">
        <ele>627.9</ele>
      </trkpt>
      <trkpt lat="48.51583" lon="7.11313">
        <ele>626.8</ele>
      </trkpt>
      <trkpt lat="48.51581" lon="7.113">
        <ele>626</ele>
      </trkpt>
      <trkpt lat="48.51581" lon="7.11296">
        <ele>625.7</ele>
      </trkpt>
      <trkpt lat="48.51579" lon="7.11281">
        <ele>625.4</ele>
      </trkpt>
      <trkpt lat="48.51578" lon="7.11267">
        <ele>625.3</ele>
      </trkpt>
      <trkpt lat="48.51577" lon="7.11256">
        <ele>625</ele>
      </trkpt>
      <trkpt lat="48.51576" lon="7.11243">
        <ele>624.7</ele>
      </trkpt>
      <trkpt lat="48.51575" lon="7.1123">
        <ele>624.5</ele>
      </trkpt>
      <trkpt lat="48.51575" lon="7.11219">
        <ele>624.6</ele>
      </trkpt>
      <trkpt lat="48.51575" lon="7.112">
        <ele>624.7</ele>
      </trkpt>
      <trkpt lat="48.51575" lon="7.11187">
        <ele>625</ele>
      </trkpt>
      <trkpt lat="48.51575" lon="7.11167">
        <ele>625.5</ele>
      </trkpt>
      <trkpt lat="48.51575" lon="7.11144">
        <ele>626.6</ele>
      </trkpt>
      <trkpt lat="48.51576" lon="7.11122">
        <ele>627.4</ele>
      </trkpt>
      <trkpt lat="48.51577" lon="7.11114">
        <ele>627.9</ele>
      </trkpt>
      <trkpt lat="48.51577" lon="7.11107">
        <ele>628.3</ele>
      </trkpt>
      <trkpt lat="48.51578" lon="7.11095">
        <ele>628.5</ele>
      </trkpt>
      <trkpt lat="48.51579" lon="7.11083">
        <ele>628.2</ele>
      </trkpt>
      <trkpt lat="48.5158" lon="7.11074">
        <ele>627.7</ele>
      </trkpt>
      <trkpt lat="48.51581" lon="7.11064">
        <ele>627</ele>
      </trkpt>
      <trkpt lat="48.51582" lon="7.11052">
        <ele>626.2</ele>
      </trkpt>
      <trkpt lat="48.51584" lon="7.11042">
        <ele>625.6</ele>
      </trkpt>
      <trkpt lat="48.51585" lon="7.11037">
        <ele>625.4</ele>
      </trkpt>
      <trkpt lat="48.5159" lon="7.11067">
        <ele>631.3</ele>
      </trkpt>
      <trkpt lat="48.51585" lon="7.11037">
        <ele>625.4</ele>
      </trkpt>
      <trkpt lat="48.51586" lon="7.1103">
        <ele>625.1</ele>
      </trkpt>
      <trkpt lat="48.51588" lon="7.11024">
        <ele>624.9</ele>
      </trkpt>
      <trkpt lat="48.5159" lon="7.11018">
        <ele>624.8</ele>
      </trkpt>
      <trkpt lat="48.51593" lon="7.11009">
        <ele>624.5</ele>
      </trkpt>
      <trkpt lat="48.51597" lon="7.10999">
        <ele>624.2</ele>
      </trkpt>
      <trkpt lat="48.516" lon="7.1099">
        <ele>623.4</ele>
      </trkpt>
      <trkpt lat="48.51604" lon="7.10979">
        <ele>622.3</ele>
      </trkpt>
      <trkpt lat="48.51609" lon="7.10968">
        <ele>621.4</ele>
      </trkpt>
      <trkpt lat="48.51613" lon="7.1096">
        <ele>620.6</ele>
      </trkpt>
      <trkpt lat="48.51618" lon="7.10951">
        <ele>619.6</ele>
      </trkpt>
      <trkpt lat="48.51623" lon="7.10943">
        <ele>618.8</ele>
      </trkpt>
      <trkpt lat="48.51629" lon="7.10932">
        <ele>617.5</ele>
      </trkpt>
      <trkpt lat="48.51633" lon="7.10926">
        <ele>616.9</ele>
      </trkpt>
      <trkpt lat="48.51639" lon="7.10919">
        <ele>616.2</ele>
      </trkpt>
      <trkpt lat="48.51645" lon="7.10912">
        <ele>615.6</ele>
      </trkpt>
      <trkpt lat="48.51651" lon="7.10907">
        <ele>614.9</ele>
      </trkpt>
      <trkpt lat="48.5166" lon="7.10901">
        <ele>613.9</ele>
      </trkpt>
      <trkpt lat="48.51667" lon="7.10896">
        <ele>612.6</ele>
      </trkpt>
      <trkpt lat="48.51674" lon="7.10891">
        <ele>611.4</ele>
      </trkpt>
      <trkpt lat="48.51681" lon="7.10887">
        <ele>610.1</ele>
      </trkpt>
      <trkpt lat="48.51688" lon="7.10884">
        <ele>608.7</ele>
      </trkpt>
      <trkpt lat="48.51695" lon="7.10883">
        <ele>608.1</ele>
      </trkpt>
      <trkpt lat="48.51699" lon="7.10882">
        <ele>607.8</ele>
      </trkpt>
      <trkpt lat="48.51703" lon="7.10883">
        <ele>607.7</ele>
      </trkpt>
      <trkpt lat="48.51708" lon="7.10884">
        <ele>607.9</ele>
      </trkpt>
      <trkpt lat="48.51712" lon="7.10885">
        <ele>608.4</ele>
      </trkpt>
      <trkpt lat="48.51716" lon="7.10887">
        <ele>608.7</ele>
      </trkpt>
      <trkpt lat="48.5172" lon="7.10887">
        <ele>608.7</ele>
      </trkpt>
      <trkpt lat="48.51725" lon="7.10885">
        <ele>608</ele>
      </trkpt>
      <trkpt lat="48.51728" lon="7.10882">
        <ele>607</ele>
      </trkpt>
      <trkpt lat="48.51732" lon="7.10879">
        <ele>605.7</ele>
      </trkpt>
      <trkpt lat="48.51737" lon="7.10877">
        <ele>605</ele>
      </trkpt>
      <trkpt lat="48.51741" lon="7.10877">
        <ele>604.9</ele>
      </trkpt>
      <trkpt lat="48.51747" lon="7.10877">
        <ele>605</ele>
      </trkpt>
      <trkpt lat="48.51755" lon="7.10877">
        <ele>605.6</ele>
      </trkpt>
      <trkpt lat="48.51762" lon="7.10878">
        <ele>606.4</ele>
      </trkpt>
      <trkpt lat="48.5177" lon="7.10878">
        <ele>606.7</ele>
      </trkpt>
      <trkpt lat="48.5178" lon="7.1088">
        <ele>607.5</ele>
      </trkpt>
      <trkpt lat="48.51788" lon="7.10881">
        <ele>607.6</ele>
      </trkpt>
      <trkpt lat="48.51793" lon="7.10882">
        <ele>607.8</ele>
      </trkpt>
      <trkpt lat="48.51799" lon="7.10884">
        <ele>608.1</ele>
      </trkpt>
      <trkpt lat="48.51804" lon="7.10887">
        <ele>608.8</ele>
      </trkpt>
      <trkpt lat="48.51816" lon="7.10892">
        <ele>610.1</ele>
      </trkpt>
      <trkpt lat="48.51823" lon="7.10895">
        <ele>610.2</ele>
      </trkpt>
      <trkpt lat="48.51831" lon="7.10896">
        <ele>609.9</ele>
      </trkpt>
      <trkpt lat="48.51838" lon="7.10898">
        <ele>609.7</ele>
      </trkpt>
      <trkpt lat="48.51846" lon="7.10898">
        <ele>608.9</ele>
      </trkpt>
      <trkpt lat="48.51872" lon="7.109">
        <ele>606.6</ele>
      </trkpt>
      <trkpt lat="48.51886" lon="7.10903">
        <ele>606</ele>
      </trkpt>
      <trkpt lat="48.51895" lon="7.10904">
        <ele>605.6</ele>
      </trkpt>
      <trkpt lat="48.51905" lon="7.10906">
        <ele>605.5</ele>
      </trkpt>
      <trkpt lat="48.51913" lon="7.10907">
        <ele>605.1</ele>
      </trkpt>
      <trkpt lat="48.51921" lon="7.10908">
        <ele>604.6</ele>
      </trkpt>
      <trkpt lat="48.51928" lon="7.10909">
        <ele>604.2</ele>
      </trkpt>
      <trkpt lat="48.51936" lon="7.10911">
        <ele>604</ele>
      </trkpt>
      <trkpt lat="48.51942" lon="7.10913">
        <ele>604.3</ele>
      </trkpt>
      <trkpt lat="48.51949" lon="7.10917">
        <ele>604.8</ele>
      </trkpt>
      <trkpt lat="48.51956" lon="7.1092">
        <ele>605.1</ele>
      </trkpt>
      <trkpt lat="48.51962" lon="7.10923">
        <ele>605.2</ele>
      </trkpt>
      <trkpt lat="48.5197" lon="7.10926">
        <ele>605.2</ele>
      </trkpt>
      <trkpt lat="48.51977" lon="7.1093">
        <ele>605.6</ele>
      </trkpt>
      <trkpt lat="48.51985" lon="7.10934">
        <ele>605.6</ele>
      </trkpt>
      <trkpt lat="48.51992" lon="7.10938">
        <ele>605.7</ele>
      </trkpt>
      <trkpt lat="48.51999" lon="7.10942">
        <ele>605.8</ele>
      </trkpt>
      <trkpt lat="48.52005" lon="7.10945">
        <ele>605.9</ele>
      </trkpt>
      <trkpt lat="48.5201" lon="7.10948">
        <ele>605.8</ele>
      </trkpt>
      <trkpt lat="48.52016" lon="7.10951">
        <ele>605.5</ele>
      </trkpt>
      <trkpt lat="48.52023" lon="7.10954">
        <ele>605.1</ele>
      </trkpt>
      <trkpt lat="48.5203" lon="7.10957">
        <ele>604.4</ele>
      </trkpt>
      <trkpt lat="48.52036" lon="7.1096">
        <ele>604.2</ele>
      </trkpt>
      <trkpt lat="48.52043" lon="7.10963">
        <ele>603.7</ele>
      </trkpt>
      <trkpt lat="48.52048" lon="7.10966">
        <ele>603.2</ele>
      </trkpt>
      <trkpt lat="48.52054" lon="7.10969">
        <ele>602.7</ele>
      </trkpt>
      <trkpt lat="48.5206" lon="7.10972">
        <ele>602.1</ele>
      </trkpt>
      <trkpt lat="48.52066" lon="7.10976">
        <ele>601.8</ele>
      </trkpt>
      <trkpt lat="48.52072" lon="7.10982">
        <ele>601.8</ele>
      </trkpt>
      <trkpt lat="48.52079" lon="7.1099">
        <ele>602.4</ele>
      </trkpt>
      <trkpt lat="48.52088" lon="7.10999">
        <ele>602.1</ele>
      </trkpt>
      <trkpt lat="48.52093" lon="7.11004">
        <ele>601.9</ele>
      </trkpt>
      <trkpt lat="48.52122" lon="7.11049">
        <ele>604.2</ele>
      </trkpt>
      <trkpt lat="48.52151" lon="7.11094">
        <ele>603.6</ele>
      </trkpt>
      <trkpt lat="48.52169" lon="7.11138">
        <ele>604.3</ele>
      </trkpt>
      <trkpt lat="48.52187" lon="7.11182">
        <ele>603.6</ele>
      </trkpt>
      <trkpt lat="48.522" lon="7.11215">
        <ele>601.6</ele>
      </trkpt>
      <trkpt lat="48.52207" lon="7.11234">
        <ele>600.4</ele>
      </trkpt>
      <trkpt lat="48.52212" lon="7.11248">
        <ele>599.4</ele>
      </trkpt>
      <trkpt lat="48.52229" lon="7.11287">
        <ele>597.9</ele>
      </trkpt>
      <trkpt lat="48.52252" lon="7.11322">
        <ele>600.8</ele>
      </trkpt>
      <trkpt lat="48.52276" lon="7.11339">
        <ele>602.3</ele>
      </trkpt>
      <trkpt lat="48.52307" lon="7.11341">
        <ele>600.4</ele>
      </trkpt>
      <trkpt lat="48.52333" lon="7.11329">
        <ele>599.1</ele>
      </trkpt>
      <trkpt lat="48.5234" lon="7.11322">
        <ele>598.2</ele>
      </trkpt>
      <trkpt lat="48.52344" lon="7.11317">
        <ele>597.2</ele>
      </trkpt>
      <trkpt lat="48.52349" lon="7.11311">
        <ele>596.2</ele>
      </trkpt>
      <trkpt lat="48.52354" lon="7.11304">
        <ele>595.2</ele>
      </trkpt>
      <trkpt lat="48.52359" lon="7.11298">
        <ele>594.7</ele>
      </trkpt>
      <trkpt lat="48.52364" lon="7.11293">
        <ele>594.3</ele>
      </trkpt>
      <trkpt lat="48.52383" lon="7.11277">
        <ele>594.8</ele>
      </trkpt>
      <trkpt lat="48.52395" lon="7.11266">
        <ele>594.9</ele>
      </trkpt>
      <trkpt lat="48.524" lon="7.11261">
        <ele>594.9</ele>
      </trkpt>
      <trkpt lat="48.52405" lon="7.11256">
        <ele>594.8</ele>
      </trkpt>
      <trkpt lat="48.5241" lon="7.1125">
        <ele>594.9</ele>
      </trkpt>
      <trkpt lat="48.52413" lon="7.11247">
        <ele>595</ele>
      </trkpt>
      <trkpt lat="48.52417" lon="7.11241">
        <ele>594.8</ele>
      </trkpt>
      <trkpt lat="48.52419" lon="7.11238">
        <ele>594.4</ele>
      </trkpt>
      <trkpt lat="48.52422" lon="7.11232">
        <ele>593.9</ele>
      </trkpt>
      <trkpt lat="48.52425" lon="7.11227">
        <ele>593.3</ele>
      </trkpt>
      <trkpt lat="48.52428" lon="7.11222">
        <ele>592.6</ele>
      </trkpt>
      <trkpt lat="48.52432" lon="7.11217">
        <ele>592.2</ele>
      </trkpt>
      <trkpt lat="48.52437" lon="7.11213">
        <ele>592.2</ele>
      </trkpt>
      <trkpt lat="48.52442" lon="7.11209">
        <ele>592.2</ele>
      </trkpt>
      <trkpt lat="48.52449" lon="7.11201">
        <ele>592</ele>
      </trkpt>
      <trkpt lat="48.52457" lon="7.11193">
        <ele>591.6</ele>
      </trkpt>
      <trkpt lat="48.52462" lon="7.11188">
        <ele>591.1</ele>
      </trkpt>
      <trkpt lat="48.52467" lon="7.11183">
        <ele>590.9</ele>
      </trkpt>
      <trkpt lat="48.52477" lon="7.11176">
        <ele>590.9</ele>
      </trkpt>
      <trkpt lat="48.52484" lon="7.11172">
        <ele>591.1</ele>
      </trkpt>
      <trkpt lat="48.52491" lon="7.11167">
        <ele>591.1</ele>
      </trkpt>
      <trkpt lat="48.52498" lon="7.11162">
        <ele>591.2</ele>
      </trkpt>
      <trkpt lat="48.52507" lon="7.11154">
        <ele>590.8</ele>
      </trkpt>
      <trkpt lat="48.52519" lon="7.11146">
        <ele>590.6</ele>
      </trkpt>
      <trkpt lat="48.52537" lon="7.11132">
        <ele>589.7</ele>
      </trkpt>
      <trkpt lat="48.52546" lon="7.11127">
        <ele>589.7</ele>
      </trkpt>
      <trkpt lat="48.52551" lon="7.11124">
        <ele>589.4</ele>
      </trkpt>
      <trkpt lat="48.52556" lon="7.11121">
        <ele>589.4</ele>
      </trkpt>
      <trkpt lat="48.5256" lon="7.11118">
        <ele>589.1</ele>
      </trkpt>
      <trkpt lat="48.52568" lon="7.11115">
        <ele>589.5</ele>
      </trkpt>
      <trkpt lat="48.5258" lon="7.11111">
        <ele>590</ele>
      </trkpt>
      <trkpt lat="48.52586" lon="7.11109">
        <ele>590.2</ele>
      </trkpt>
      <trkpt lat="48.52592" lon="7.11107">
        <ele>590.1</ele>
      </trkpt>
      <trkpt lat="48.52597" lon="7.11104">
        <ele>589.6</ele>
      </trkpt>
      <trkpt lat="48.52601" lon="7.11101">
        <ele>589.1</ele>
      </trkpt>
      <trkpt lat="48.52605" lon="7.11098">
        <ele>588.5</ele>
      </trkpt>
      <trkpt lat="48.5261" lon="7.11095">
        <ele>587.8</ele>
      </trkpt>
      <trkpt lat="48.52616" lon="7.1109">
        <ele>586.9</ele>
      </trkpt>
      <trkpt lat="48.52625" lon="7.11085">
        <ele>586.1</ele>
      </trkpt>
      <trkpt lat="48.52632" lon="7.11081">
        <ele>585.6</ele>
      </trkpt>
      <trkpt lat="48.52638" lon="7.11079">
        <ele>585.5</ele>
      </trkpt>
      <trkpt lat="48.52639" lon="7.11079">
        <ele>585.5</ele>
      </trkpt>
      <trkpt lat="48.52639" lon="7.11078">
        <ele>585.5</ele>
      </trkpt>
      <trkpt lat="48.52646" lon="7.11076">
        <ele>585.5</ele>
      </trkpt>
      <trkpt lat="48.52656" lon="7.11073">
        <ele>585.3</ele>
      </trkpt>
      <trkpt lat="48.52661" lon="7.11071">
        <ele>585</ele>
      </trkpt>
      <trkpt lat="48.52668" lon="7.11069">
        <ele>585</ele>
      </trkpt>
      <trkpt lat="48.52674" lon="7.11068">
        <ele>584.8</ele>
      </trkpt>
      <trkpt lat="48.52682" lon="7.11066">
        <ele>584.8</ele>
      </trkpt>
      <trkpt lat="48.52689" lon="7.11065">
        <ele>584.8</ele>
      </trkpt>
      <trkpt lat="48.52697" lon="7.11064">
        <ele>584.5</ele>
      </trkpt>
      <trkpt lat="48.52703" lon="7.11063">
        <ele>584.5</ele>
      </trkpt>
      <trkpt lat="48.52709" lon="7.11062">
        <ele>584.4</ele>
      </trkpt>
      <trkpt lat="48.52716" lon="7.1106">
        <ele>584.1</ele>
      </trkpt>
      <trkpt lat="48.52724" lon="7.11058">
        <ele>583.7</ele>
      </trkpt>
      <trkpt lat="48.5273" lon="7.11056">
        <ele>583.3</ele>
      </trkpt>
      <trkpt lat="48.52736" lon="7.11054">
        <ele>582.9</ele>
      </trkpt>
      <trkpt lat="48.52743" lon="7.11053">
        <ele>582.5</ele>
      </trkpt>
      <trkpt lat="48.52749" lon="7.1105">
        <ele>581.6</ele>
      </trkpt>
      <trkpt lat="48.52756" lon="7.11047">
        <ele>580.7</ele>
      </trkpt>
      <trkpt lat="48.52766" lon="7.11044">
        <ele>579.9</ele>
      </trkpt>
      <trkpt lat="48.52774" lon="7.11043">
        <ele>579.5</ele>
      </trkpt>
      <trkpt lat="48.52782" lon="7.11043">
        <ele>579.5</ele>
      </trkpt>
      <trkpt lat="48.52789" lon="7.11043">
        <ele>579.5</ele>
      </trkpt>
      <trkpt lat="48.52797" lon="7.11042">
        <ele>579.5</ele>
      </trkpt>
      <trkpt lat="48.52804" lon="7.11043">
        <ele>579.7</ele>
      </trkpt>
      <trkpt lat="48.52812" lon="7.11044">
        <ele>579.9</ele>
      </trkpt>
      <trkpt lat="48.5282" lon="7.11045">
        <ele>580</ele>
      </trkpt>
      <trkpt lat="48.52828" lon="7.11044">
        <ele>579.6</ele>
      </trkpt>
      <trkpt lat="48.52835" lon="7.11045">
        <ele>579.3</ele>
      </trkpt>
      <trkpt lat="48.52844" lon="7.11046">
        <ele>579</ele>
      </trkpt>
      <trkpt lat="48.5285" lon="7.11046">
        <ele>578.9</ele>
      </trkpt>
      <trkpt lat="48.52858" lon="7.11048">
        <ele>579</ele>
      </trkpt>
      <trkpt lat="48.52865" lon="7.1105">
        <ele>579.2</ele>
      </trkpt>
      <trkpt lat="48.52871" lon="7.11052">
        <ele>579.4</ele>
      </trkpt>
      <trkpt lat="48.52878" lon="7.11054">
        <ele>579.4</ele>
      </trkpt>
      <trkpt lat="48.52884" lon="7.11055">
        <ele>579.3</ele>
      </trkpt>
      <trkpt lat="48.52889" lon="7.11056">
        <ele>579</ele>
      </trkpt>
      <trkpt lat="48.52896" lon="7.11057">
        <ele>578.7</ele>
      </trkpt>
      <trkpt lat="48.52903" lon="7.11059">
        <ele>578.5</ele>
      </trkpt>
      <trkpt lat="48.5291" lon="7.1106">
        <ele>578.1</ele>
      </trkpt>
      <trkpt lat="48.52918" lon="7.11062">
        <ele>577.6</ele>
      </trkpt>
      <trkpt lat="48.52926" lon="7.11065">
        <ele>577.3</ele>
      </trkpt>
      <trkpt lat="48.52932" lon="7.11067">
        <ele>577.2</ele>
      </trkpt>
      <trkpt lat="48.52938" lon="7.1107">
        <ele>577.3</ele>
      </trkpt>
      <trkpt lat="48.52944" lon="7.11073">
        <ele>577</ele>
      </trkpt>
      <trkpt lat="48.52951" lon="7.11074">
        <ele>576.2</ele>
      </trkpt>
      <trkpt lat="48.52959" lon="7.11076">
        <ele>575.3</ele>
      </trkpt>
      <trkpt lat="48.52965" lon="7.11077">
        <ele>574.6</ele>
      </trkpt>
      <trkpt lat="48.52971" lon="7.11078">
        <ele>573.9</ele>
      </trkpt>
      <trkpt lat="48.52977" lon="7.11079">
        <ele>573.2</ele>
      </trkpt>
      <trkpt lat="48.52984" lon="7.11083">
        <ele>573.1</ele>
      </trkpt>
      <trkpt lat="48.52989" lon="7.11086">
        <ele>573.4</ele>
      </trkpt>
      <trkpt lat="48.52995" lon="7.1109">
        <ele>573.4</ele>
      </trkpt>
      <trkpt lat="48.53003" lon="7.11094">
        <ele>573.2</ele>
      </trkpt>
      <trkpt lat="48.53009" lon="7.11097">
        <ele>573.1</ele>
      </trkpt>
      <trkpt lat="48.53015" lon="7.111">
        <ele>572.8</ele>
      </trkpt>
      <trkpt lat="48.53024" lon="7.11103">
        <ele>572.2</ele>
      </trkpt>
      <trkpt lat="48.5303" lon="7.11106">
        <ele>571.9</ele>
      </trkpt>
      <trkpt lat="48.53037" lon="7.11108">
        <ele>571.2</ele>
      </trkpt>
      <trkpt lat="48.53044" lon="7.11109">
        <ele>570.6</ele>
      </trkpt>
      <trkpt lat="48.5305" lon="7.11111">
        <ele>570.2</ele>
      </trkpt>
      <trkpt lat="48.5306" lon="7.11115">
        <ele>569.8</ele>
      </trkpt>
      <trkpt lat="48.53067" lon="7.11117">
        <ele>569.6</ele>
      </trkpt>
      <trkpt lat="48.53072" lon="7.1112">
        <ele>569.7</ele>
      </trkpt>
      <trkpt lat="48.53078" lon="7.11123">
        <ele>569.8</ele>
      </trkpt>
      <trkpt lat="48.53083" lon="7.11126">
        <ele>570.1</ele>
      </trkpt>
      <trkpt lat="48.53089" lon="7.1113">
        <ele>570.6</ele>
      </trkpt>
      <trkpt lat="48.53096" lon="7.11134">
        <ele>571.2</ele>
      </trkpt>
      <trkpt lat="48.531" lon="7.11136">
        <ele>571.5</ele>
      </trkpt>
      <trkpt lat="48.53105" lon="7.11136">
        <ele>571.7</ele>
      </trkpt>
      <trkpt lat="48.53109" lon="7.11137">
        <ele>572</ele>
      </trkpt>
      <trkpt lat="48.53114" lon="7.11132">
        <ele>572.4</ele>
      </trkpt>
      <trkpt lat="48.53115" lon="7.11134">
        <ele>572.5</ele>
      </trkpt>
      <trkpt lat="48.53114" lon="7.11132">
        <ele>572.4</ele>
      </trkpt>
      <trkpt lat="48.53104" lon="7.11118">
        <ele>570.9</ele>
      </trkpt>
      <trkpt lat="48.53097" lon="7.11109">
        <ele>569.4</ele>
      </trkpt>
      <trkpt lat="48.53093" lon="7.11105">
        <ele>568.7</ele>
      </trkpt>
      <trkpt lat="48.53089" lon="7.11102">
        <ele>568</ele>
      </trkpt>
      <trkpt lat="48.53086" lon="7.11101">
        <ele>567.5</ele>
      </trkpt>
      <trkpt lat="48.53081" lon="7.11099">
        <ele>566.9</ele>
      </trkpt>
      <trkpt lat="48.53077" lon="7.11097">
        <ele>566.3</ele>
      </trkpt>
      <trkpt lat="48.53071" lon="7.11095">
        <ele>565.7</ele>
      </trkpt>
      <trkpt lat="48.53067" lon="7.11092">
        <ele>565.1</ele>
      </trkpt>
      <trkpt lat="48.53064" lon="7.11091">
        <ele>564.9</ele>
      </trkpt>
      <trkpt lat="48.5306" lon="7.1109">
        <ele>564.6</ele>
      </trkpt>
      <trkpt lat="48.53057" lon="7.11087">
        <ele>564.2</ele>
      </trkpt>
      <trkpt lat="48.53054" lon="7.11084">
        <ele>563.6</ele>
      </trkpt>
      <trkpt lat="48.5305" lon="7.1108">
        <ele>563.1</ele>
      </trkpt>
      <trkpt lat="48.53047" lon="7.11076">
        <ele>562.6</ele>
      </trkpt>
      <trkpt lat="48.53044" lon="7.11073">
        <ele>562.1</ele>
      </trkpt>
      <trkpt lat="48.5304" lon="7.11068">
        <ele>561.6</ele>
      </trkpt>
      <trkpt lat="48.53037" lon="7.11064">
        <ele>561</ele>
      </trkpt>
      <trkpt lat="48.53034" lon="7.11059">
        <ele>560.5</ele>
      </trkpt>
      <trkpt lat="48.53031" lon="7.11054">
        <ele>559.9</ele>
      </trkpt>
      <trkpt lat="48.53029" lon="7.11047">
        <ele>559.3</ele>
      </trkpt>
      <trkpt lat="48.53026" lon="7.1104">
        <ele>558.9</ele>
      </trkpt>
      <trkpt lat="48.53023" lon="7.11035">
        <ele>558.6</ele>
      </trkpt>
      <trkpt lat="48.53019" lon="7.1103">
        <ele>558.3</ele>
      </trkpt>
      <trkpt lat="48.53016" lon="7.11023">
        <ele>557.9</ele>
      </trkpt>
      <trkpt lat="48.53012" lon="7.11018">
        <ele>557.5</ele>
      </trkpt>
      <trkpt lat="48.53007" lon="7.11013">
        <ele>556.8</ele>
      </trkpt>
      <trkpt lat="48.53002" lon="7.11008">
        <ele>555.9</ele>
      </trkpt>
      <trkpt lat="48.52989" lon="7.10999">
        <ele>553.4</ele>
      </trkpt>
      <trkpt lat="48.52972" lon="7.10987">
        <ele>549.7</ele>
      </trkpt>
      <trkpt lat="48.52966" lon="7.10985">
        <ele>548.4</ele>
      </trkpt>
      <trkpt lat="48.5296" lon="7.10983">
        <ele>547.4</ele>
      </trkpt>
      <trkpt lat="48.52954" lon="7.10981">
        <ele>546.5</ele>
      </trkpt>
      <trkpt lat="48.52949" lon="7.1098">
        <ele>545.9</ele>
      </trkpt>
      <trkpt lat="48.52945" lon="7.10978">
        <ele>545.4</ele>
      </trkpt>
      <trkpt lat="48.5294" lon="7.10976">
        <ele>544.8</ele>
      </trkpt>
      <trkpt lat="48.52935" lon="7.10974">
        <ele>544.3</ele>
      </trkpt>
      <trkpt lat="48.5293" lon="7.1097">
        <ele>543.6</ele>
      </trkpt>
      <trkpt lat="48.52926" lon="7.10967">
        <ele>543.1</ele>
      </trkpt>
      <trkpt lat="48.52921" lon="7.10963">
        <ele>542.5</ele>
      </trkpt>
      <trkpt lat="48.52916" lon="7.10958">
        <ele>541.9</ele>
      </trkpt>
      <trkpt lat="48.5291" lon="7.10952">
        <ele>540.9</ele>
      </trkpt>
      <trkpt lat="48.52897" lon="7.10941">
        <ele>539.3</ele>
      </trkpt>
      <trkpt lat="48.52885" lon="7.10932">
        <ele>537.9</ele>
      </trkpt>
      <trkpt lat="48.52869" lon="7.10922">
        <ele>536.4</ele>
      </trkpt>
      <trkpt lat="48.52862" lon="7.10918">
        <ele>535.8</ele>
      </trkpt>
      <trkpt lat="48.52855" lon="7.10913">
        <ele>535.1</ele>
      </trkpt>
      <trkpt lat="48.52849" lon="7.10909">
        <ele>534.5</ele>
      </trkpt>
      <trkpt lat="48.52843" lon="7.10906">
        <ele>534</ele>
      </trkpt>
      <trkpt lat="48.52836" lon="7.10902">
        <ele>533.5</ele>
      </trkpt>
      <trkpt lat="48.52819" lon="7.10894">
        <ele>532.4</ele>
      </trkpt>
      <trkpt lat="48.52824" lon="7.10893">
        <ele>532.2</ele>
      </trkpt>
      <trkpt lat="48.52826" lon="7.10892">
        <ele>532.2</ele>
      </trkpt>
      <trkpt lat="48.5283" lon="7.10892">
        <ele>532.1</ele>
      </trkpt>
      <trkpt lat="48.52834" lon="7.10892">
        <ele>531.9</ele>
      </trkpt>
      <trkpt lat="48.52837" lon="7.1089">
        <ele>531.6</ele>
      </trkpt>
      <trkpt lat="48.5284" lon="7.10888">
        <ele>531.3</ele>
      </trkpt>
      <trkpt lat="48.52842" lon="7.10885">
        <ele>531</ele>
      </trkpt>
      <trkpt lat="48.52844" lon="7.1088">
        <ele>530.7</ele>
      </trkpt>
      <trkpt lat="48.52846" lon="7.10875">
        <ele>530.5</ele>
      </trkpt>
      <trkpt lat="48.52847" lon="7.1087">
        <ele>530.5</ele>
      </trkpt>
      <trkpt lat="48.52848" lon="7.10864">
        <ele>530.7</ele>
      </trkpt>
      <trkpt lat="48.52848" lon="7.10859">
        <ele>530.9</ele>
      </trkpt>
      <trkpt lat="48.52848" lon="7.10854">
        <ele>531.4</ele>
      </trkpt>
      <trkpt lat="48.52847" lon="7.1085">
        <ele>531.7</ele>
      </trkpt>
      <trkpt lat="48.52847" lon="7.10849">
        <ele>531.8</ele>
      </trkpt>
      <trkpt lat="48.52845" lon="7.10844">
        <ele>532</ele>
      </trkpt>
      <trkpt lat="48.52841" lon="7.10836">
        <ele>532.3</ele>
      </trkpt>
      <trkpt lat="48.5283" lon="7.10818">
        <ele>532.5</ele>
      </trkpt>
      <trkpt lat="48.5281" lon="7.10788">
        <ele>533.6</ele>
      </trkpt>
      <trkpt lat="48.52798" lon="7.10771">
        <ele>534.2</ele>
      </trkpt>
      <trkpt lat="48.5279" lon="7.10764">
        <ele>534.1</ele>
      </trkpt>
      <trkpt lat="48.52783" lon="7.10758">
        <ele>533.8</ele>
      </trkpt>
      <trkpt lat="48.52778" lon="7.10755">
        <ele>533.5</ele>
      </trkpt>
      <trkpt lat="48.52771" lon="7.10752">
        <ele>533</ele>
      </trkpt>
      <trkpt lat="48.52763" lon="7.10748">
        <ele>532.7</ele>
      </trkpt>
      <trkpt lat="48.52753" lon="7.10744">
        <ele>532.6</ele>
      </trkpt>
      <trkpt lat="48.52744" lon="7.10741">
        <ele>533</ele>
      </trkpt>
      <trkpt lat="48.52737" lon="7.10739">
        <ele>533.2</ele>
      </trkpt>
      <trkpt lat="48.5273" lon="7.10736">
        <ele>533.6</ele>
      </trkpt>
      <trkpt lat="48.52724" lon="7.10735">
        <ele>533.8</ele>
      </trkpt>
      <trkpt lat="48.52718" lon="7.10733">
        <ele>534.1</ele>
      </trkpt>
      <trkpt lat="48.52709" lon="7.10731">
        <ele>534.6</ele>
      </trkpt>
      <trkpt lat="48.52703" lon="7.10729">
        <ele>534.8</ele>
      </trkpt>
      <trkpt lat="48.52696" lon="7.10726">
        <ele>535.3</ele>
      </trkpt>
      <trkpt lat="48.5269" lon="7.10722">
        <ele>535.5</ele>
      </trkpt>
      <trkpt lat="48.52683" lon="7.1072">
        <ele>535.4</ele>
      </trkpt>
      <trkpt lat="48.52678" lon="7.10717">
        <ele>535.4</ele>
      </trkpt>
      <trkpt lat="48.52673" lon="7.10714">
        <ele>535.3</ele>
      </trkpt>
      <trkpt lat="48.52656" lon="7.10707">
        <ele>535.2</ele>
      </trkpt>
      <trkpt lat="48.52645" lon="7.10699">
        <ele>536</ele>
      </trkpt>
      <trkpt lat="48.52638" lon="7.10694">
        <ele>536.7</ele>
      </trkpt>
      <trkpt lat="48.52631" lon="7.10688">
        <ele>537.5</ele>
      </trkpt>
      <trkpt lat="48.52624" lon="7.10681">
        <ele>538.4</ele>
      </trkpt>
      <trkpt lat="48.52617" lon="7.10674">
        <ele>539</ele>
      </trkpt>
      <trkpt lat="48.5261" lon="7.10666">
        <ele>540.1</ele>
      </trkpt>
      <trkpt lat="48.52602" lon="7.10658">
        <ele>541.2</ele>
      </trkpt>
      <trkpt lat="48.52596" lon="7.10651">
        <ele>542.3</ele>
      </trkpt>
      <trkpt lat="48.52588" lon="7.10645">
        <ele>543</ele>
      </trkpt>
      <trkpt lat="48.52579" lon="7.10638">
        <ele>543.5</ele>
      </trkpt>
      <trkpt lat="48.5257" lon="7.1063">
        <ele>544.3</ele>
      </trkpt>
      <trkpt lat="48.52561" lon="7.10622">
        <ele>545.3</ele>
      </trkpt>
      <trkpt lat="48.52554" lon="7.10615">
        <ele>546.2</ele>
      </trkpt>
      <trkpt lat="48.52546" lon="7.10608">
        <ele>547.4</ele>
      </trkpt>
      <trkpt lat="48.52538" lon="7.106">
        <ele>548.8</ele>
      </trkpt>
      <trkpt lat="48.52531" lon="7.10594">
        <ele>549.8</ele>
      </trkpt>
      <trkpt lat="48.52524" lon="7.10587">
        <ele>550.8</ele>
      </trkpt>
      <trkpt lat="48.52517" lon="7.10581">
        <ele>551.8</ele>
      </trkpt>
      <trkpt lat="48.52509" lon="7.10574">
        <ele>552.9</ele>
      </trkpt>
      <trkpt lat="48.52502" lon="7.10567">
        <ele>554.3</ele>
      </trkpt>
      <trkpt lat="48.52495" lon="7.10561">
        <ele>555.4</ele>
      </trkpt>
      <trkpt lat="48.52488" lon="7.10554">
        <ele>556.6</ele>
      </trkpt>
      <trkpt lat="48.52481" lon="7.10546">
        <ele>558.2</ele>
      </trkpt>
      <trkpt lat="48.52475" lon="7.10539">
        <ele>559.7</ele>
      </trkpt>
      <trkpt lat="48.52467" lon="7.10529">
        <ele>561.6</ele>
      </trkpt>
      <trkpt lat="48.52459" lon="7.1052">
        <ele>563.6</ele>
      </trkpt>
      <trkpt lat="48.5245" lon="7.10507">
        <ele>565.9</ele>
      </trkpt>
      <trkpt lat="48.52442" lon="7.10496">
        <ele>567.7</ele>
      </trkpt>
      <trkpt lat="48.52432" lon="7.10483">
        <ele>569.6</ele>
      </trkpt>
      <trkpt lat="48.52422" lon="7.1047">
        <ele>571.7</ele>
      </trkpt>
      <trkpt lat="48.52414" lon="7.10461">
        <ele>572.9</ele>
      </trkpt>
      <trkpt lat="48.52401" lon="7.10442">
        <ele>575</ele>
      </trkpt>
      <trkpt lat="48.52378" lon="7.10407">
        <ele>579.1</ele>
      </trkpt>
      <trkpt lat="48.52365" lon="7.10389">
        <ele>580.3</ele>
      </trkpt>
      <trkpt lat="48.52338" lon="7.10353">
        <ele>580.7</ele>
      </trkpt>
      <trkpt lat="48.52306" lon="7.10312">
        <ele>580.7</ele>
      </trkpt>
      <trkpt lat="48.52298" lon="7.10303">
        <ele>580.3</ele>
      </trkpt>
      <trkpt lat="48.52295" lon="7.10299">
        <ele>580.4</ele>
      </trkpt>
      <trkpt lat="48.52292" lon="7.10293">
        <ele>580.8</ele>
      </trkpt>
      <trkpt lat="48.52289" lon="7.10288">
        <ele>581.5</ele>
      </trkpt>
      <trkpt lat="48.52287" lon="7.10285">
        <ele>581.8</ele>
      </trkpt>
      <trkpt lat="48.52274" lon="7.10258">
        <ele>585.2</ele>
      </trkpt>
      <trkpt lat="48.52257" lon="7.10226">
        <ele>588.5</ele>
      </trkpt>
      <trkpt lat="48.52241" lon="7.10196">
        <ele>590.6</ele>
      </trkpt>
      <trkpt lat="48.52224" lon="7.10163">
        <ele>591.8</ele>
      </trkpt>
      <trkpt lat="48.52216" lon="7.10148">
        <ele>592.6</ele>
      </trkpt>
      <trkpt lat="48.52211" lon="7.10137">
        <ele>593.4</ele>
      </trkpt>
      <trkpt lat="48.52205" lon="7.10123">
        <ele>594.5</ele>
      </trkpt>
      <trkpt lat="48.52201" lon="7.10113">
        <ele>595.3</ele>
      </trkpt>
      <trkpt lat="48.52197" lon="7.10105">
        <ele>596.3</ele>
      </trkpt>
      <trkpt lat="48.52192" lon="7.10093">
        <ele>596.4</ele>
      </trkpt>
      <trkpt lat="48.52183" lon="7.10078">
        <ele>594.7</ele>
      </trkpt>
      <trkpt lat="48.52173" lon="7.10062">
        <ele>592</ele>
      </trkpt>
      <trkpt lat="48.52164" lon="7.1005">
        <ele>589.2</ele>
      </trkpt>
      <trkpt lat="48.52157" lon="7.10041">
        <ele>587.4</ele>
      </trkpt>
      <trkpt lat="48.52151" lon="7.10033">
        <ele>586.1</ele>
      </trkpt>
      <trkpt lat="48.52145" lon="7.10027">
        <ele>585</ele>
      </trkpt>
      <trkpt lat="48.52137" lon="7.10019">
        <ele>584</ele>
      </trkpt>
      <trkpt lat="48.52119" lon="7.10002">
        <ele>582.6</ele>
      </trkpt>
      <trkpt lat="48.52115" lon="7.09999">
        <ele>582.4</ele>
      </trkpt>
      <trkpt lat="48.52099" lon="7.09986">
        <ele>581.6</ele>
      </trkpt>
      <trkpt lat="48.52079" lon="7.09973">
        <ele>580.8</ele>
      </trkpt>
      <trkpt lat="48.52066" lon="7.09968">
        <ele>580.2</ele>
      </trkpt>
      <trkpt lat="48.52058" lon="7.09965">
        <ele>580.1</ele>
      </trkpt>
      <trkpt lat="48.52048" lon="7.09964">
        <ele>579.3</ele>
      </trkpt>
      <trkpt lat="48.52037" lon="7.09961">
        <ele>579.4</ele>
      </trkpt>
      <trkpt lat="48.5203" lon="7.09958">
        <ele>579.5</ele>
      </trkpt>
      <trkpt lat="48.52023" lon="7.09955">
        <ele>580</ele>
      </trkpt>
      <trkpt lat="48.52018" lon="7.09952">
        <ele>580.9</ele>
      </trkpt>
      <trkpt lat="48.52011" lon="7.09948">
        <ele>581.8</ele>
      </trkpt>
      <trkpt lat="48.51994" lon="7.09939">
        <ele>583.6</ele>
      </trkpt>
      <trkpt lat="48.51972" lon="7.09929">
        <ele>585.6</ele>
      </trkpt>
      <trkpt lat="48.51937" lon="7.09908">
        <ele>589.7</ele>
      </trkpt>
      <trkpt lat="48.51917" lon="7.09895">
        <ele>593.4</ele>
      </trkpt>
      <trkpt lat="48.51896" lon="7.09882">
        <ele>597.5</ele>
      </trkpt>
      <trkpt lat="48.51872" lon="7.09866">
        <ele>603.3</ele>
      </trkpt>
      <trkpt lat="48.51848" lon="7.09849">
        <ele>610.7</ele>
      </trkpt>
      <trkpt lat="48.51808" lon="7.09821">
        <ele>616</ele>
      </trkpt>
      <trkpt lat="48.51788" lon="7.09808">
        <ele>615.7</ele>
      </trkpt>
      <trkpt lat="48.51783" lon="7.09804">
        <ele>615.5</ele>
      </trkpt>
      <trkpt lat="48.51777" lon="7.09799">
        <ele>615.3</ele>
      </trkpt>
      <trkpt lat="48.51773" lon="7.09794">
        <ele>615.7</ele>
      </trkpt>
      <trkpt lat="48.51769" lon="7.09789">
        <ele>615.9</ele>
      </trkpt>
      <trkpt lat="48.51766" lon="7.09783">
        <ele>616.6</ele>
      </trkpt>
      <trkpt lat="48.51762" lon="7.09775">
        <ele>617.4</ele>
      </trkpt>
      <trkpt lat="48.51754" lon="7.09756">
        <ele>618.7</ele>
      </trkpt>
      <trkpt lat="48.5175" lon="7.09742">
        <ele>619.1</ele>
      </trkpt>
      <trkpt lat="48.51748" lon="7.09723">
        <ele>620</ele>
      </trkpt>
      <trkpt lat="48.51747" lon="7.09698">
        <ele>620.6</ele>
      </trkpt>
      <trkpt lat="48.51748" lon="7.09682">
        <ele>620.9</ele>
      </trkpt>
      <trkpt lat="48.5175" lon="7.09665">
        <ele>621.4</ele>
      </trkpt>
      <trkpt lat="48.51757" lon="7.09643">
        <ele>623.9</ele>
      </trkpt>
      <trkpt lat="48.51767" lon="7.09617">
        <ele>627.7</ele>
      </trkpt>
      <trkpt lat="48.51775" lon="7.09596">
        <ele>630.6</ele>
      </trkpt>
      <trkpt lat="48.51782" lon="7.09576">
        <ele>632.9</ele>
      </trkpt>
      <trkpt lat="48.5179" lon="7.09546">
        <ele>634.3</ele>
      </trkpt>
      <trkpt lat="48.51797" lon="7.09512">
        <ele>634.7</ele>
      </trkpt>
      <trkpt lat="48.51803" lon="7.09484">
        <ele>635.2</ele>
      </trkpt>
      <trkpt lat="48.5181" lon="7.09442">
        <ele>634.4</ele>
      </trkpt>
      <trkpt lat="48.51814" lon="7.09408">
        <ele>632.7</ele>
      </trkpt>
      <trkpt lat="48.51818" lon="7.09369">
        <ele>630.6</ele>
      </trkpt>
      <trkpt lat="48.51824" lon="7.09339">
        <ele>630.2</ele>
      </trkpt>
      <trkpt lat="48.51829" lon="7.09318">
        <ele>630.2</ele>
      </trkpt>
      <trkpt lat="48.51836" lon="7.09299">
        <ele>632.1</ele>
      </trkpt>
      <trkpt lat="48.51844" lon="7.0928">
        <ele>634.2</ele>
      </trkpt>
      <trkpt lat="48.51856" lon="7.09256">
        <ele>637</ele>
      </trkpt>
      <trkpt lat="48.51873" lon="7.09226">
        <ele>642.1</ele>
      </trkpt>
      <trkpt lat="48.51884" lon="7.09204">
        <ele>644.4</ele>
      </trkpt>
      <trkpt lat="48.51897" lon="7.09174">
        <ele>646.6</ele>
      </trkpt>
      <trkpt lat="48.51907" lon="7.09142">
        <ele>648.7</ele>
      </trkpt>
      <trkpt lat="48.5191" lon="7.09126">
        <ele>649.6</ele>
      </trkpt>
      <trkpt lat="48.51912" lon="7.09119">
        <ele>650</ele>
      </trkpt>
      <trkpt lat="48.51914" lon="7.091">
        <ele>650.6</ele>
      </trkpt>
      <trkpt lat="48.51916" lon="7.09089">
        <ele>651.1</ele>
      </trkpt>
      <trkpt lat="48.51917" lon="7.09077">
        <ele>651.6</ele>
      </trkpt>
      <trkpt lat="48.51917" lon="7.09068">
        <ele>652</ele>
      </trkpt>
      <trkpt lat="48.51917" lon="7.09055">
        <ele>652.4</ele>
      </trkpt>
      <trkpt lat="48.51918" lon="7.0904">
        <ele>653.4</ele>
      </trkpt>
      <trkpt lat="48.51918" lon="7.09024">
        <ele>654.4</ele>
      </trkpt>
      <trkpt lat="48.51917" lon="7.09002">
        <ele>656.7</ele>
      </trkpt>
      <trkpt lat="48.51916" lon="7.08987">
        <ele>658.1</ele>
      </trkpt>
      <trkpt lat="48.51915" lon="7.08975">
        <ele>659</ele>
      </trkpt>
      <trkpt lat="48.51914" lon="7.08958">
        <ele>660.7</ele>
      </trkpt>
      <trkpt lat="48.51913" lon="7.08953">
        <ele>661.2</ele>
      </trkpt>
      <trkpt lat="48.51913" lon="7.08944">
        <ele>662</ele>
      </trkpt>
      <trkpt lat="48.51911" lon="7.0893">
        <ele>663.2</ele>
      </trkpt>
      <trkpt lat="48.5191" lon="7.08916">
        <ele>664.9</ele>
      </trkpt>
      <trkpt lat="48.51906" lon="7.08898">
        <ele>666.4</ele>
      </trkpt>
      <trkpt lat="48.51903" lon="7.08886">
        <ele>667.2</ele>
      </trkpt>
      <trkpt lat="48.51901" lon="7.08875">
        <ele>668</ele>
      </trkpt>
      <trkpt lat="48.51899" lon="7.08863">
        <ele>668.7</ele>
      </trkpt>
      <trkpt lat="48.51895" lon="7.08854">
        <ele>668.7</ele>
      </trkpt>
      <trkpt lat="48.51892" lon="7.08844">
        <ele>668.8</ele>
      </trkpt>
      <trkpt lat="48.51885" lon="7.08827">
        <ele>668.1</ele>
      </trkpt>
      <trkpt lat="48.51879" lon="7.08815">
        <ele>667.5</ele>
      </trkpt>
      <trkpt lat="48.51874" lon="7.08803">
        <ele>666.9</ele>
      </trkpt>
      <trkpt lat="48.51863" lon="7.08784">
        <ele>665</ele>
      </trkpt>
      <trkpt lat="48.51859" lon="7.08776">
        <ele>664.5</ele>
      </trkpt>
      <trkpt lat="48.51855" lon="7.08767">
        <ele>664.1</ele>
      </trkpt>
      <trkpt lat="48.51852" lon="7.08761">
        <ele>663.6</ele>
      </trkpt>
      <trkpt lat="48.51849" lon="7.08753">
        <ele>663.3</ele>
      </trkpt>
      <trkpt lat="48.51847" lon="7.08744">
        <ele>663.5</ele>
      </trkpt>
      <trkpt lat="48.51844" lon="7.08735">
        <ele>663.7</ele>
      </trkpt>
      <trkpt lat="48.51842" lon="7.08723">
        <ele>664.3</ele>
      </trkpt>
      <trkpt lat="48.51841" lon="7.08695">
        <ele>665.4</ele>
      </trkpt>
      <trkpt lat="48.51841" lon="7.08671">
        <ele>666</ele>
      </trkpt>
      <trkpt lat="48.51843" lon="7.08651">
        <ele>666.1</ele>
      </trkpt>
      <trkpt lat="48.51846" lon="7.08641">
        <ele>666.8</ele>
      </trkpt>
      <trkpt lat="48.51848" lon="7.08632">
        <ele>667.2</ele>
      </trkpt>
      <trkpt lat="48.5185" lon="7.08624">
        <ele>667.7</ele>
      </trkpt>
      <trkpt lat="48.51853" lon="7.08615">
        <ele>668.1</ele>
      </trkpt>
      <trkpt lat="48.51856" lon="7.08605">
        <ele>668.5</ele>
      </trkpt>
      <trkpt lat="48.5186" lon="7.08595">
        <ele>668.6</ele>
      </trkpt>
      <trkpt lat="48.51863" lon="7.08588">
        <ele>668.9</ele>
      </trkpt>
      <trkpt lat="48.51867" lon="7.0858">
        <ele>669.3</ele>
      </trkpt>
      <trkpt lat="48.51871" lon="7.0857">
        <ele>669.5</ele>
      </trkpt>
      <trkpt lat="48.51875" lon="7.08562">
        <ele>670</ele>
      </trkpt>
      <trkpt lat="48.51878" lon="7.08554">
        <ele>670.3</ele>
      </trkpt>
      <trkpt lat="48.51883" lon="7.08546">
        <ele>671.1</ele>
      </trkpt>
      <trkpt lat="48.51888" lon="7.08539">
        <ele>672.2</ele>
      </trkpt>
      <trkpt lat="48.51895" lon="7.08528">
        <ele>672.7</ele>
      </trkpt>
      <trkpt lat="48.51901" lon="7.08518">
        <ele>673.5</ele>
      </trkpt>
      <trkpt lat="48.51907" lon="7.0851">
        <ele>674.2</ele>
      </trkpt>
      <trkpt lat="48.51912" lon="7.08503">
        <ele>675</ele>
      </trkpt>
      <trkpt lat="48.51918" lon="7.08495">
        <ele>675.6</ele>
      </trkpt>
      <trkpt lat="48.51923" lon="7.08488">
        <ele>676</ele>
      </trkpt>
      <trkpt lat="48.51931" lon="7.08479">
        <ele>676.9</ele>
      </trkpt>
      <trkpt lat="48.51941" lon="7.08467">
        <ele>678</ele>
      </trkpt>
      <trkpt lat="48.51959" lon="7.08446">
        <ele>679.5</ele>
      </trkpt>
      <trkpt lat="48.51976" lon="7.08427">
        <ele>681.2</ele>
      </trkpt>
      <trkpt lat="48.51998" lon="7.08401">
        <ele>682.7</ele>
      </trkpt>
      <trkpt lat="48.52014" lon="7.08381">
        <ele>683.3</ele>
      </trkpt>
      <trkpt lat="48.52043" lon="7.08342">
        <ele>684</ele>
      </trkpt>
      <trkpt lat="48.52048" lon="7.08337">
        <ele>684.2</ele>
      </trkpt>
      <trkpt lat="48.52056" lon="7.08321">
        <ele>684.1</ele>
      </trkpt>
      <trkpt lat="48.5206" lon="7.08314">
        <ele>684.3</ele>
      </trkpt>
      <trkpt lat="48.52063" lon="7.08305">
        <ele>684.8</ele>
      </trkpt>
      <trkpt lat="48.52066" lon="7.08299">
        <ele>685.3</ele>
      </trkpt>
      <trkpt lat="48.52068" lon="7.08293">
        <ele>685.9</ele>
      </trkpt>
      <trkpt lat="48.5207" lon="7.08286">
        <ele>687</ele>
      </trkpt>
      <trkpt lat="48.52072" lon="7.08279">
        <ele>688.1</ele>
      </trkpt>
      <trkpt lat="48.52074" lon="7.08269">
        <ele>689.8</ele>
      </trkpt>
      <trkpt lat="48.52075" lon="7.08262">
        <ele>691.1</ele>
      </trkpt>
      <trkpt lat="48.52076" lon="7.08255">
        <ele>692.1</ele>
      </trkpt>
      <trkpt lat="48.52076" lon="7.08248">
        <ele>693.1</ele>
      </trkpt>
      <trkpt lat="48.52076" lon="7.0824">
        <ele>694.1</ele>
      </trkpt>
      <trkpt lat="48.52076" lon="7.08234">
        <ele>694.8</ele>
      </trkpt>
      <trkpt lat="48.52075" lon="7.08227">
        <ele>695.5</ele>
      </trkpt>
      <trkpt lat="48.52074" lon="7.0822">
        <ele>695.9</ele>
      </trkpt>
      <trkpt lat="48.52073" lon="7.08214">
        <ele>696.4</ele>
      </trkpt>
      <trkpt lat="48.52071" lon="7.08207">
        <ele>696.6</ele>
      </trkpt>
      <trkpt lat="48.52069" lon="7.082">
        <ele>696.8</ele>
      </trkpt>
      <trkpt lat="48.52066" lon="7.08193">
        <ele>697.1</ele>
      </trkpt>
      <trkpt lat="48.52064" lon="7.08187">
        <ele>697.3</ele>
      </trkpt>
      <trkpt lat="48.5206" lon="7.08179">
        <ele>697.5</ele>
      </trkpt>
      <trkpt lat="48.52056" lon="7.0817">
        <ele>697.7</ele>
      </trkpt>
      <trkpt lat="48.5205" lon="7.08159">
        <ele>698</ele>
      </trkpt>
      <trkpt lat="48.52046" lon="7.0815">
        <ele>698.4</ele>
      </trkpt>
      <trkpt lat="48.5204" lon="7.08139">
        <ele>698.9</ele>
      </trkpt>
      <trkpt lat="48.5203" lon="7.0812">
        <ele>700.1</ele>
      </trkpt>
      <trkpt lat="48.52017" lon="7.08099">
        <ele>701</ele>
      </trkpt>
      <trkpt lat="48.52011" lon="7.08088">
        <ele>701.4</ele>
      </trkpt>
      <trkpt lat="48.51997" lon="7.08062">
        <ele>702.4</ele>
      </trkpt>
      <trkpt lat="48.51993" lon="7.08052">
        <ele>703</ele>
      </trkpt>
      <trkpt lat="48.51993" lon="7.0805">
        <ele>703.1</ele>
      </trkpt>
      <trkpt lat="48.51992" lon="7.08047">
        <ele>703.3</ele>
      </trkpt>
      <trkpt lat="48.51991" lon="7.0804">
        <ele>703.7</ele>
      </trkpt>
      <trkpt lat="48.5199" lon="7.08034">
        <ele>704</ele>
      </trkpt>
      <trkpt lat="48.51991" lon="7.08027">
        <ele>704.3</ele>
      </trkpt>
      <trkpt lat="48.51991" lon="7.08024">
        <ele>704.5</ele>
      </trkpt>
      <trkpt lat="48.51993" lon="7.08021">
        <ele>704.6</ele>
      </trkpt>
      <trkpt lat="48.51994" lon="7.08019">
        <ele>704.6</ele>
      </trkpt>
      <trkpt lat="48.51996" lon="7.08018">
        <ele>704.6</ele>
      </trkpt>
      <trkpt lat="48.51999" lon="7.08018">
        <ele>704.6</ele>
      </trkpt>
      <trkpt lat="48.51988" lon="7.08012">
        <ele>704.8</ele>
      </trkpt>
      <trkpt lat="48.51975" lon="7.08006">
        <ele>704.9</ele>
      </trkpt>
      <trkpt lat="48.5197" lon="7.08004">
        <ele>705</ele>
      </trkpt>
      <trkpt lat="48.51965" lon="7.08001">
        <ele>705.1</ele>
      </trkpt>
      <trkpt lat="48.51961" lon="7.07997">
        <ele>705.3</ele>
      </trkpt>
      <trkpt lat="48.51956" lon="7.07992">
        <ele>705.5</ele>
      </trkpt>
      <trkpt lat="48.5195" lon="7.07985">
        <ele>705.8</ele>
      </trkpt>
      <trkpt lat="48.51934" lon="7.07974">
        <ele>706.2</ele>
      </trkpt>
      <trkpt lat="48.51926" lon="7.07967">
        <ele>706.5</ele>
      </trkpt>
      <trkpt lat="48.5192" lon="7.07962">
        <ele>706.7</ele>
      </trkpt>
      <trkpt lat="48.51913" lon="7.07955">
        <ele>707</ele>
      </trkpt>
      <trkpt lat="48.51907" lon="7.07951">
        <ele>707.3</ele>
      </trkpt>
      <trkpt lat="48.51888" lon="7.07939">
        <ele>708.4</ele>
      </trkpt>
      <trkpt lat="48.51882" lon="7.07933">
        <ele>709</ele>
      </trkpt>
      <trkpt lat="48.51877" lon="7.07929">
        <ele>709.4</ele>
      </trkpt>
      <trkpt lat="48.51872" lon="7.07924">
        <ele>709.9</ele>
      </trkpt>
      <trkpt lat="48.51865" lon="7.07918">
        <ele>710.2</ele>
      </trkpt>
      <trkpt lat="48.51859" lon="7.07913">
        <ele>710.2</ele>
      </trkpt>
      <trkpt lat="48.51851" lon="7.07906">
        <ele>710.4</ele>
      </trkpt>
      <trkpt lat="48.51843" lon="7.079">
        <ele>710.5</ele>
      </trkpt>
      <trkpt lat="48.51836" lon="7.07897">
        <ele>710.7</ele>
      </trkpt>
      <trkpt lat="48.51826" lon="7.07892">
        <ele>710.7</ele>
      </trkpt>
      <trkpt lat="48.51818" lon="7.07887">
        <ele>710.6</ele>
      </trkpt>
      <trkpt lat="48.5181" lon="7.07884">
        <ele>710.3</ele>
      </trkpt>
      <trkpt lat="48.51804" lon="7.07879">
        <ele>710.1</ele>
      </trkpt>
      <trkpt lat="48.51798" lon="7.07875">
        <ele>710.1</ele>
      </trkpt>
      <trkpt lat="48.51791" lon="7.07871">
        <ele>710.3</ele>
      </trkpt>
      <trkpt lat="48.51787" lon="7.07867">
        <ele>710.4</ele>
      </trkpt>
      <trkpt lat="48.51782" lon="7.07863">
        <ele>710.5</ele>
      </trkpt>
      <trkpt lat="48.51777" lon="7.07859">
        <ele>710.5</ele>
      </trkpt>
      <trkpt lat="48.51772" lon="7.07856">
        <ele>710.4</ele>
      </trkpt>
      <trkpt lat="48.51767" lon="7.07852">
        <ele>710.3</ele>
      </trkpt>
      <trkpt lat="48.51761" lon="7.07846">
        <ele>710.2</ele>
      </trkpt>
      <trkpt lat="48.51754" lon="7.07841">
        <ele>710.2</ele>
      </trkpt>
      <trkpt lat="48.51747" lon="7.07837">
        <ele>710.4</ele>
      </trkpt>
      <trkpt lat="48.5174" lon="7.07833">
        <ele>710.7</ele>
      </trkpt>
      <trkpt lat="48.51733" lon="7.0783">
        <ele>711</ele>
      </trkpt>
      <trkpt lat="48.51727" lon="7.07828">
        <ele>711.4</ele>
      </trkpt>
      <trkpt lat="48.51721" lon="7.07826">
        <ele>711.7</ele>
      </trkpt>
      <trkpt lat="48.51704" lon="7.07812">
        <ele>712.8</ele>
      </trkpt>
      <trkpt lat="48.51681" lon="7.07787">
        <ele>713.9</ele>
      </trkpt>
      <trkpt lat="48.51667" lon="7.07771">
        <ele>713.9</ele>
      </trkpt>
      <trkpt lat="48.5166" lon="7.07761">
        <ele>713.6</ele>
      </trkpt>
      <trkpt lat="48.51651" lon="7.07739">
        <ele>712.8</ele>
      </trkpt>
      <trkpt lat="48.51647" lon="7.07723">
        <ele>712.2</ele>
      </trkpt>
      <trkpt lat="48.51645" lon="7.07716">
        <ele>712</ele>
      </trkpt>
      <trkpt lat="48.51643" lon="7.0771">
        <ele>711.9</ele>
      </trkpt>
      <trkpt lat="48.51638" lon="7.07698">
        <ele>711.9</ele>
      </trkpt>
      <trkpt lat="48.51631" lon="7.07688">
        <ele>711.8</ele>
      </trkpt>
      <trkpt lat="48.51626" lon="7.07677">
        <ele>711.8</ele>
      </trkpt>
      <trkpt lat="48.51623" lon="7.07667">
        <ele>711.9</ele>
      </trkpt>
      <trkpt lat="48.51619" lon="7.07653">
        <ele>712</ele>
      </trkpt>
      <trkpt lat="48.51615" lon="7.07641">
        <ele>712</ele>
      </trkpt>
      <trkpt lat="48.51611" lon="7.07628">
        <ele>712.1</ele>
      </trkpt>
      <trkpt lat="48.51609" lon="7.07616">
        <ele>712.2</ele>
      </trkpt>
      <trkpt lat="48.51608" lon="7.07603">
        <ele>712.4</ele>
      </trkpt>
      <trkpt lat="48.51608" lon="7.07586">
        <ele>712.4</ele>
      </trkpt>
      <trkpt lat="48.51608" lon="7.07572">
        <ele>712.5</ele>
      </trkpt>
      <trkpt lat="48.51607" lon="7.07559">
        <ele>712.7</ele>
      </trkpt>
      <trkpt lat="48.51605" lon="7.07545">
        <ele>713</ele>
      </trkpt>
      <trkpt lat="48.51601" lon="7.07532">
        <ele>713.2</ele>
      </trkpt>
      <trkpt lat="48.51596" lon="7.07521">
        <ele>713.5</ele>
      </trkpt>
      <trkpt lat="48.51592" lon="7.07511">
        <ele>713.7</ele>
      </trkpt>
      <trkpt lat="48.51586" lon="7.075">
        <ele>713.8</ele>
      </trkpt>
      <trkpt lat="48.51581" lon="7.07488">
        <ele>713.9</ele>
      </trkpt>
      <trkpt lat="48.51577" lon="7.07476">
        <ele>714</ele>
      </trkpt>
      <trkpt lat="48.51573" lon="7.07464">
        <ele>714.1</ele>
      </trkpt>
      <trkpt lat="48.5157" lon="7.07454">
        <ele>714.2</ele>
      </trkpt>
      <trkpt lat="48.51566" lon="7.07444">
        <ele>714.2</ele>
      </trkpt>
      <trkpt lat="48.51563" lon="7.07435">
        <ele>714.3</ele>
      </trkpt>
      <trkpt lat="48.51558" lon="7.07427">
        <ele>714.3</ele>
      </trkpt>
      <trkpt lat="48.51553" lon="7.07421">
        <ele>714.3</ele>
      </trkpt>
      <trkpt lat="48.51547" lon="7.07414">
        <ele>714.3</ele>
      </trkpt>
      <trkpt lat="48.51539" lon="7.07408">
        <ele>714.2</ele>
      </trkpt>
      <trkpt lat="48.51528" lon="7.07401">
        <ele>714.1</ele>
      </trkpt>
      <trkpt lat="48.51517" lon="7.07393">
        <ele>713.9</ele>
      </trkpt>
      <trkpt lat="48.51492" lon="7.07375">
        <ele>713.3</ele>
      </trkpt>
      <trkpt lat="48.51482" lon="7.07367">
        <ele>712.9</ele>
      </trkpt>
      <trkpt lat="48.51475" lon="7.07361">
        <ele>712.7</ele>
      </trkpt>
      <trkpt lat="48.51469" lon="7.07356">
        <ele>712.4</ele>
      </trkpt>
      <trkpt lat="48.51463" lon="7.0735">
        <ele>712.1</ele>
      </trkpt>
      <trkpt lat="48.51458" lon="7.07342">
        <ele>711.7</ele>
      </trkpt>
      <trkpt lat="48.51454" lon="7.07335">
        <ele>711.4</ele>
      </trkpt>
      <trkpt lat="48.5145" lon="7.07327">
        <ele>711.1</ele>
      </trkpt>
      <trkpt lat="48.51445" lon="7.07319">
        <ele>710.9</ele>
      </trkpt>
      <trkpt lat="48.5144" lon="7.0731">
        <ele>710.6</ele>
      </trkpt>
      <trkpt lat="48.51435" lon="7.07298">
        <ele>710.4</ele>
      </trkpt>
      <trkpt lat="48.5143" lon="7.07287">
        <ele>710.3</ele>
      </trkpt>
      <trkpt lat="48.51425" lon="7.07274">
        <ele>710.1</ele>
      </trkpt>
      <trkpt lat="48.51422" lon="7.0726">
        <ele>709.9</ele>
      </trkpt>
      <trkpt lat="48.51419" lon="7.07248">
        <ele>709.7</ele>
      </trkpt>
      <trkpt lat="48.51416" lon="7.07237">
        <ele>709.5</ele>
      </trkpt>
      <trkpt lat="48.51415" lon="7.07225">
        <ele>709.5</ele>
      </trkpt>
      <trkpt lat="48.51414" lon="7.07215">
        <ele>709.4</ele>
      </trkpt>
      <trkpt lat="48.51412" lon="7.07207">
        <ele>709.3</ele>
      </trkpt>
      <trkpt lat="48.5141" lon="7.07198">
        <ele>709.1</ele>
      </trkpt>
      <trkpt lat="48.51406" lon="7.07189">
        <ele>708.7</ele>
      </trkpt>
      <trkpt lat="48.51404" lon="7.07179">
        <ele>708.4</ele>
      </trkpt>
      <trkpt lat="48.51403" lon="7.07169">
        <ele>708.2</ele>
      </trkpt>
      <trkpt lat="48.51402" lon="7.07159">
        <ele>708</ele>
      </trkpt>
      <trkpt lat="48.51403" lon="7.07148">
        <ele>707.7</ele>
      </trkpt>
      <trkpt lat="48.51403" lon="7.07138">
        <ele>707.3</ele>
      </trkpt>
      <trkpt lat="48.51404" lon="7.07127">
        <ele>706.7</ele>
      </trkpt>
      <trkpt lat="48.51403" lon="7.07118">
        <ele>706.2</ele>
      </trkpt>
      <trkpt lat="48.51401" lon="7.07111">
        <ele>705.8</ele>
      </trkpt>
      <trkpt lat="48.51399" lon="7.07105">
        <ele>705.6</ele>
      </trkpt>
      <trkpt lat="48.51395" lon="7.07097">
        <ele>705.3</ele>
      </trkpt>
      <trkpt lat="48.51392" lon="7.07091">
        <ele>705.2</ele>
      </trkpt>
      <trkpt lat="48.51385" lon="7.07079">
        <ele>705.1</ele>
      </trkpt>
      <trkpt lat="48.51409" lon="7.07089">
        <ele>703.5</ele>
      </trkpt>
      <trkpt lat="48.51385" lon="7.07079">
        <ele>705.1</ele>
      </trkpt>
      <trkpt lat="48.51377" lon="7.07067">
        <ele>705.2</ele>
      </trkpt>
      <trkpt lat="48.51373" lon="7.07061">
        <ele>705.3</ele>
      </trkpt>
      <trkpt lat="48.51367" lon="7.07052">
        <ele>705.6</ele>
      </trkpt>
      <trkpt lat="48.5136" lon="7.07042">
        <ele>705.9</ele>
      </trkpt>
      <trkpt lat="48.51355" lon="7.0703">
        <ele>706.2</ele>
      </trkpt>
      <trkpt lat="48.51349" lon="7.07018">
        <ele>706.6</ele>
      </trkpt>
      <trkpt lat="48.51343" lon="7.07002">
        <ele>707.1</ele>
      </trkpt>
      <trkpt lat="48.51336" lon="7.06987">
        <ele>707.7</ele>
      </trkpt>
      <trkpt lat="48.51327" lon="7.06973">
        <ele>708.5</ele>
      </trkpt>
      <trkpt lat="48.5132" lon="7.06959">
        <ele>709.4</ele>
      </trkpt>
      <trkpt lat="48.51313" lon="7.06948">
        <ele>710.2</ele>
      </trkpt>
      <trkpt lat="48.5131" lon="7.06938">
        <ele>710.6</ele>
      </trkpt>
      <trkpt lat="48.5131" lon="7.06933">
        <ele>710.7</ele>
      </trkpt>
      <trkpt lat="48.5131" lon="7.06929">
        <ele>710.7</ele>
      </trkpt>
      <trkpt lat="48.51311" lon="7.06919">
        <ele>710.6</ele>
      </trkpt>
      <trkpt lat="48.51315" lon="7.06908">
        <ele>710</ele>
      </trkpt>
      <trkpt lat="48.51317" lon="7.06904">
        <ele>709.6</ele>
      </trkpt>
      <trkpt lat="48.5132" lon="7.06897">
        <ele>709</ele>
      </trkpt>
      <trkpt lat="48.51324" lon="7.06882">
        <ele>707.8</ele>
      </trkpt>
      <trkpt lat="48.51326" lon="7.06867">
        <ele>707.2</ele>
      </trkpt>
      <trkpt lat="48.51325" lon="7.06851">
        <ele>707</ele>
      </trkpt>
      <trkpt lat="48.51325" lon="7.06833">
        <ele>706.7</ele>
      </trkpt>
      <trkpt lat="48.51327" lon="7.06816">
        <ele>705.8</ele>
      </trkpt>
      <trkpt lat="48.5133" lon="7.06797">
        <ele>705</ele>
      </trkpt>
      <trkpt lat="48.51333" lon="7.06783">
        <ele>704.1</ele>
      </trkpt>
      <trkpt lat="48.51338" lon="7.06767">
        <ele>702.7</ele>
      </trkpt>
      <trkpt lat="48.51341" lon="7.06752">
        <ele>702</ele>
      </trkpt>
      <trkpt lat="48.51343" lon="7.06736">
        <ele>701.8</ele>
      </trkpt>
      <trkpt lat="48.51345" lon="7.06719">
        <ele>701.6</ele>
      </trkpt>
      <trkpt lat="48.51346" lon="7.06701">
        <ele>701.3</ele>
      </trkpt>
      <trkpt lat="48.51349" lon="7.06683">
        <ele>700.7</ele>
      </trkpt>
      <trkpt lat="48.51349" lon="7.06667">
        <ele>700.6</ele>
      </trkpt>
      <trkpt lat="48.51352" lon="7.06652">
        <ele>699.9</ele>
      </trkpt>
      <trkpt lat="48.51357" lon="7.06636">
        <ele>699</ele>
      </trkpt>
      <trkpt lat="48.51361" lon="7.06621">
        <ele>698.2</ele>
      </trkpt>
      <trkpt lat="48.51363" lon="7.06605">
        <ele>697.6</ele>
      </trkpt>
      <trkpt lat="48.51364" lon="7.0659">
        <ele>697.3</ele>
      </trkpt>
      <trkpt lat="48.51365" lon="7.06574">
        <ele>696.8</ele>
      </trkpt>
      <trkpt lat="48.51366" lon="7.06558">
        <ele>696.6</ele>
      </trkpt>
      <trkpt lat="48.51366" lon="7.06543">
        <ele>696.3</ele>
      </trkpt>
      <trkpt lat="48.51367" lon="7.06527">
        <ele>695.8</ele>
      </trkpt>
      <trkpt lat="48.5137" lon="7.0651">
        <ele>694.9</ele>
      </trkpt>
      <trkpt lat="48.51373" lon="7.06491">
        <ele>693.6</ele>
      </trkpt>
      <trkpt lat="48.51376" lon="7.06475">
        <ele>692.1</ele>
      </trkpt>
      <trkpt lat="48.51378" lon="7.0646">
        <ele>690.8</ele>
      </trkpt>
      <trkpt lat="48.51382" lon="7.06442">
        <ele>689</ele>
      </trkpt>
      <trkpt lat="48.51385" lon="7.06424">
        <ele>686.9</ele>
      </trkpt>
      <trkpt lat="48.51388" lon="7.06406">
        <ele>685.2</ele>
      </trkpt>
      <trkpt lat="48.51389" lon="7.06391">
        <ele>684.5</ele>
      </trkpt>
      <trkpt lat="48.5139" lon="7.06375">
        <ele>684.2</ele>
      </trkpt>
      <trkpt lat="48.51389" lon="7.06374">
        <ele>684.2</ele>
      </trkpt>
      <trkpt lat="48.5139" lon="7.06362">
        <ele>684.4</ele>
      </trkpt>
      <trkpt lat="48.51389" lon="7.06347">
        <ele>684.9</ele>
      </trkpt>
      <trkpt lat="48.5139" lon="7.06331">
        <ele>685</ele>
      </trkpt>
      <trkpt lat="48.51393" lon="7.06315">
        <ele>684.6</ele>
      </trkpt>
      <trkpt lat="48.51397" lon="7.06299">
        <ele>684</ele>
      </trkpt>
      <trkpt lat="48.51401" lon="7.06284">
        <ele>683.3</ele>
      </trkpt>
      <trkpt lat="48.51406" lon="7.06269">
        <ele>682.6</ele>
      </trkpt>
      <trkpt lat="48.51411" lon="7.06253">
        <ele>682.1</ele>
      </trkpt>
      <trkpt lat="48.51416" lon="7.06238">
        <ele>681.5</ele>
      </trkpt>
      <trkpt lat="48.51421" lon="7.06223">
        <ele>681</ele>
      </trkpt>
      <trkpt lat="48.51427" lon="7.06208">
        <ele>680.4</ele>
      </trkpt>
      <trkpt lat="48.51433" lon="7.06193">
        <ele>679.9</ele>
      </trkpt>
      <trkpt lat="48.51438" lon="7.06178">
        <ele>679.5</ele>
      </trkpt>
      <trkpt lat="48.51443" lon="7.06165">
        <ele>679</ele>
      </trkpt>
      <trkpt lat="48.51446" lon="7.06154">
        <ele>678.6</ele>
      </trkpt>
      <trkpt lat="48.51449" lon="7.06143">
        <ele>678.3</ele>
      </trkpt>
      <trkpt lat="48.51449" lon="7.06132">
        <ele>678.2</ele>
      </trkpt>
      <trkpt lat="48.51449" lon="7.06124">
        <ele>678.1</ele>
      </trkpt>
      <trkpt lat="48.51447" lon="7.06116">
        <ele>678.2</ele>
      </trkpt>
      <trkpt lat="48.51444" lon="7.06106">
        <ele>678.5</ele>
      </trkpt>
      <trkpt lat="48.5144" lon="7.06094">
        <ele>679</ele>
      </trkpt>
      <trkpt lat="48.51437" lon="7.06085">
        <ele>679.5</ele>
      </trkpt>
      <trkpt lat="48.51433" lon="7.06075">
        <ele>680.2</ele>
      </trkpt>
      <trkpt lat="48.51428" lon="7.06067">
        <ele>680.9</ele>
      </trkpt>
      <trkpt lat="48.51424" lon="7.0606">
        <ele>681.6</ele>
      </trkpt>
      <trkpt lat="48.51425" lon="7.06054">
        <ele>681.7</ele>
      </trkpt>
      <trkpt lat="48.51426" lon="7.0605">
        <ele>681.8</ele>
      </trkpt>
      <trkpt lat="48.51427" lon="7.06044">
        <ele>682</ele>
      </trkpt>
      <trkpt lat="48.51427" lon="7.06037">
        <ele>682.2</ele>
      </trkpt>
      <trkpt lat="48.51427" lon="7.06027">
        <ele>682.5</ele>
      </trkpt>
      <trkpt lat="48.51429" lon="7.06015">
        <ele>682.9</ele>
      </trkpt>
      <trkpt lat="48.51431" lon="7.06006">
        <ele>683</ele>
      </trkpt>
      <trkpt lat="48.51435" lon="7.05996">
        <ele>683.1</ele>
      </trkpt>
      <trkpt lat="48.51438" lon="7.05987">
        <ele>683.1</ele>
      </trkpt>
      <trkpt lat="48.51444" lon="7.05977">
        <ele>683.1</ele>
      </trkpt>
      <trkpt lat="48.51449" lon="7.05966">
        <ele>683.3</ele>
      </trkpt>
      <trkpt lat="48.51453" lon="7.05953">
        <ele>683.5</ele>
      </trkpt>
      <trkpt lat="48.51455" lon="7.05941">
        <ele>683.7</ele>
      </trkpt>
      <trkpt lat="48.51457" lon="7.05928">
        <ele>683.9</ele>
      </trkpt>
      <trkpt lat="48.51459" lon="7.05915">
        <ele>684.1</ele>
      </trkpt>
      <trkpt lat="48.51461" lon="7.05899">
        <ele>684.2</ele>
      </trkpt>
      <trkpt lat="48.51462" lon="7.05883">
        <ele>684.1</ele>
      </trkpt>
      <trkpt lat="48.51464" lon="7.05868">
        <ele>684</ele>
      </trkpt>
      <trkpt lat="48.51464" lon="7.05852">
        <ele>683.7</ele>
      </trkpt>
      <trkpt lat="48.51464" lon="7.05838">
        <ele>683.5</ele>
      </trkpt>
      <trkpt lat="48.51464" lon="7.05823">
        <ele>683.3</ele>
      </trkpt>
      <trkpt lat="48.51464" lon="7.05809">
        <ele>683</ele>
      </trkpt>
      <trkpt lat="48.51464" lon="7.05795">
        <ele>682.6</ele>
      </trkpt>
      <trkpt lat="48.51462" lon="7.05785">
        <ele>682.2</ele>
      </trkpt>
      <trkpt lat="48.5146" lon="7.05769">
        <ele>681.5</ele>
      </trkpt>
      <trkpt lat="48.51457" lon="7.05756">
        <ele>680.9</ele>
      </trkpt>
      <trkpt lat="48.51453" lon="7.05742">
        <ele>680.2</ele>
      </trkpt>
      <trkpt lat="48.51448" lon="7.05727">
        <ele>679.3</ele>
      </trkpt>
      <trkpt lat="48.51444" lon="7.05711">
        <ele>677.9</ele>
      </trkpt>
      <trkpt lat="48.51439" lon="7.05698">
        <ele>676.9</ele>
      </trkpt>
      <trkpt lat="48.51436" lon="7.05685">
        <ele>675.8</ele>
      </trkpt>
      <trkpt lat="48.51432" lon="7.05671">
        <ele>674.6</ele>
      </trkpt>
      <trkpt lat="48.51429" lon="7.05658">
        <ele>673.4</ele>
      </trkpt>
      <trkpt lat="48.51425" lon="7.05644">
        <ele>672.5</ele>
      </trkpt>
      <trkpt lat="48.51421" lon="7.05631">
        <ele>671.8</ele>
      </trkpt>
      <trkpt lat="48.51417" lon="7.05617">
        <ele>671.2</ele>
      </trkpt>
      <trkpt lat="48.51413" lon="7.05604">
        <ele>670.8</ele>
      </trkpt>
      <trkpt lat="48.5141" lon="7.05592">
        <ele>670.3</ele>
      </trkpt>
      <trkpt lat="48.51408" lon="7.0558">
        <ele>669.5</ele>
      </trkpt>
      <trkpt lat="48.51405" lon="7.05568">
        <ele>668.7</ele>
      </trkpt>
      <trkpt lat="48.51401" lon="7.05555">
        <ele>668.3</ele>
      </trkpt>
      <trkpt lat="48.51397" lon="7.05544">
        <ele>667.9</ele>
      </trkpt>
      <trkpt lat="48.51392" lon="7.05532">
        <ele>667.7</ele>
      </trkpt>
      <trkpt lat="48.5139" lon="7.05522">
        <ele>667.5</ele>
      </trkpt>
      <trkpt lat="48.51388" lon="7.0551">
        <ele>667</ele>
      </trkpt>
      <trkpt lat="48.51386" lon="7.05498">
        <ele>666.4</ele>
      </trkpt>
      <trkpt lat="48.51386" lon="7.05488">
        <ele>665.9</ele>
      </trkpt>
      <trkpt lat="48.51385" lon="7.05477">
        <ele>665.4</ele>
      </trkpt>
      <trkpt lat="48.51384" lon="7.05468">
        <ele>665.4</ele>
      </trkpt>
      <trkpt lat="48.51382" lon="7.0546">
        <ele>665.5</ele>
      </trkpt>
      <trkpt lat="48.5138" lon="7.0545">
        <ele>665.7</ele>
      </trkpt>
      <trkpt lat="48.51379" lon="7.0544">
        <ele>665.4</ele>
      </trkpt>
      <trkpt lat="48.51381" lon="7.05431">
        <ele>664.3</ele>
      </trkpt>
      <trkpt lat="48.51383" lon="7.05422">
        <ele>663.5</ele>
      </trkpt>
      <trkpt lat="48.51384" lon="7.05412">
        <ele>662.9</ele>
      </trkpt>
      <trkpt lat="48.51384" lon="7.05404">
        <ele>662.8</ele>
      </trkpt>
      <trkpt lat="48.51383" lon="7.05394">
        <ele>662.9</ele>
      </trkpt>
      <trkpt lat="48.5138" lon="7.05385">
        <ele>663.3</ele>
      </trkpt>
      <trkpt lat="48.51378" lon="7.05375">
        <ele>663.8</ele>
      </trkpt>
      <trkpt lat="48.51376" lon="7.05368">
        <ele>664</ele>
      </trkpt>
      <trkpt lat="48.51373" lon="7.05355">
        <ele>664.3</ele>
      </trkpt>
      <trkpt lat="48.51365" lon="7.0532">
        <ele>663.7</ele>
      </trkpt>
      <trkpt lat="48.51363" lon="7.05313">
        <ele>663.6</ele>
      </trkpt>
      <trkpt lat="48.5136" lon="7.05302">
        <ele>663.4</ele>
      </trkpt>
      <trkpt lat="48.51359" lon="7.05299">
        <ele>663.4</ele>
      </trkpt>
      <trkpt lat="48.51353" lon="7.0528">
        <ele>662.7</ele>
      </trkpt>
      <trkpt lat="48.51348" lon="7.05263">
        <ele>661.9</ele>
      </trkpt>
      <trkpt lat="48.5134" lon="7.05249">
        <ele>661.8</ele>
      </trkpt>
      <trkpt lat="48.51332" lon="7.05231">
        <ele>661.7</ele>
      </trkpt>
      <trkpt lat="48.51324" lon="7.05214">
        <ele>662</ele>
      </trkpt>
      <trkpt lat="48.51319" lon="7.05202">
        <ele>662.2</ele>
      </trkpt>
      <trkpt lat="48.51315" lon="7.05193">
        <ele>662.4</ele>
      </trkpt>
      <trkpt lat="48.51314" lon="7.05182">
        <ele>662</ele>
      </trkpt>
      <trkpt lat="48.51314" lon="7.05174">
        <ele>661.2</ele>
      </trkpt>
      <trkpt lat="48.51314" lon="7.05161">
        <ele>659.7</ele>
      </trkpt>
      <trkpt lat="48.51315" lon="7.05148">
        <ele>658.4</ele>
      </trkpt>
      <trkpt lat="48.51315" lon="7.05133">
        <ele>657.6</ele>
      </trkpt>
      <trkpt lat="48.51316" lon="7.05114">
        <ele>656.8</ele>
      </trkpt>
      <trkpt lat="48.51316" lon="7.05099">
        <ele>656.2</ele>
      </trkpt>
      <trkpt lat="48.51317" lon="7.05079">
        <ele>655.2</ele>
      </trkpt>
      <trkpt lat="48.51317" lon="7.05062">
        <ele>654.5</ele>
      </trkpt>
      <trkpt lat="48.51318" lon="7.05057">
        <ele>654.1</ele>
      </trkpt>
      <trkpt lat="48.51316" lon="7.05044">
        <ele>654.3</ele>
      </trkpt>
      <trkpt lat="48.51315" lon="7.05038">
        <ele>654.3</ele>
      </trkpt>
      <trkpt lat="48.51314" lon="7.0503">
        <ele>654.5</ele>
      </trkpt>
      <trkpt lat="48.51307" lon="7.04993">
        <ele>655.6</ele>
      </trkpt>
      <trkpt lat="48.513" lon="7.04962">
        <ele>656</ele>
      </trkpt>
      <trkpt lat="48.51296" lon="7.04947">
        <ele>656.2</ele>
      </trkpt>
      <trkpt lat="48.51292" lon="7.04936">
        <ele>656.4</ele>
      </trkpt>
      <trkpt lat="48.5129" lon="7.04927">
        <ele>656.3</ele>
      </trkpt>
      <trkpt lat="48.51285" lon="7.04917">
        <ele>656.5</ele>
      </trkpt>
      <trkpt lat="48.51279" lon="7.04906">
        <ele>656.6</ele>
      </trkpt>
      <trkpt lat="48.51272" lon="7.04895">
        <ele>656.6</ele>
      </trkpt>
      <trkpt lat="48.51266" lon="7.04884">
        <ele>656.6</ele>
      </trkpt>
      <trkpt lat="48.51258" lon="7.0487">
        <ele>656.4</ele>
      </trkpt>
      <trkpt lat="48.51251" lon="7.04857">
        <ele>656.1</ele>
      </trkpt>
      <trkpt lat="48.51244" lon="7.04847">
        <ele>656</ele>
      </trkpt>
      <trkpt lat="48.51237" lon="7.04835">
        <ele>655.7</ele>
      </trkpt>
      <trkpt lat="48.51231" lon="7.04824">
        <ele>655.2</ele>
      </trkpt>
      <trkpt lat="48.51225" lon="7.04814">
        <ele>654.8</ele>
      </trkpt>
      <trkpt lat="48.51219" lon="7.048">
        <ele>653.9</ele>
      </trkpt>
      <trkpt lat="48.5121" lon="7.04783">
        <ele>653</ele>
      </trkpt>
      <trkpt lat="48.51194" lon="7.04742">
        <ele>648.9</ele>
      </trkpt>
      <trkpt lat="48.51187" lon="7.04725">
        <ele>646.9</ele>
      </trkpt>
      <trkpt lat="48.51182" lon="7.04715">
        <ele>646</ele>
      </trkpt>
      <trkpt lat="48.51174" lon="7.04707">
        <ele>645.8</ele>
      </trkpt>
      <trkpt lat="48.51168" lon="7.04697">
        <ele>645.4</ele>
      </trkpt>
      <trkpt lat="48.5116" lon="7.04684">
        <ele>644.9</ele>
      </trkpt>
      <trkpt lat="48.51154" lon="7.04672">
        <ele>644.8</ele>
      </trkpt>
      <trkpt lat="48.51147" lon="7.04657">
        <ele>644.9</ele>
      </trkpt>
      <trkpt lat="48.5114" lon="7.04641">
        <ele>646.1</ele>
      </trkpt>
      <trkpt lat="48.51137" lon="7.04635">
        <ele>646.8</ele>
      </trkpt>
      <trkpt lat="48.51133" lon="7.04625">
        <ele>648</ele>
      </trkpt>
      <trkpt lat="48.51124" lon="7.04607">
        <ele>651.1</ele>
      </trkpt>
      <trkpt lat="48.51114" lon="7.04584">
        <ele>655.6</ele>
      </trkpt>
      <trkpt lat="48.51103" lon="7.04565">
        <ele>659.7</ele>
      </trkpt>
      <trkpt lat="48.51093" lon="7.0454">
        <ele>662</ele>
      </trkpt>
      <trkpt lat="48.51087" lon="7.04527">
        <ele>662.4</ele>
      </trkpt>
      <trkpt lat="48.51082" lon="7.04514">
        <ele>662.4</ele>
      </trkpt>
      <trkpt lat="48.51079" lon="7.04501">
        <ele>661.6</ele>
      </trkpt>
      <trkpt lat="48.51075" lon="7.04482">
        <ele>659.9</ele>
      </trkpt>
      <trkpt lat="48.51072" lon="7.04471">
        <ele>658.9</ele>
      </trkpt>
      <trkpt lat="48.51066" lon="7.04458">
        <ele>658.2</ele>
      </trkpt>
      <trkpt lat="48.51058" lon="7.04441">
        <ele>657.1</ele>
      </trkpt>
      <trkpt lat="48.5105" lon="7.04428">
        <ele>656.1</ele>
      </trkpt>
      <trkpt lat="48.51041" lon="7.04413">
        <ele>654.9</ele>
      </trkpt>
      <trkpt lat="48.51033" lon="7.044">
        <ele>654</ele>
      </trkpt>
      <trkpt lat="48.51025" lon="7.04388">
        <ele>652.7</ele>
      </trkpt>
      <trkpt lat="48.5102" lon="7.04377">
        <ele>651.9</ele>
      </trkpt>
      <trkpt lat="48.51014" lon="7.04367">
        <ele>651.4</ele>
      </trkpt>
      <trkpt lat="48.51004" lon="7.04351">
        <ele>651.4</ele>
      </trkpt>
      <trkpt lat="48.50996" lon="7.04341">
        <ele>652.3</ele>
      </trkpt>
      <trkpt lat="48.50986" lon="7.04325">
        <ele>653.6</ele>
      </trkpt>
      <trkpt lat="48.50977" lon="7.0431">
        <ele>654.9</ele>
      </trkpt>
      <trkpt lat="48.50969" lon="7.04293">
        <ele>656.1</ele>
      </trkpt>
      <trkpt lat="48.50962" lon="7.04275">
        <ele>657.2</ele>
      </trkpt>
      <trkpt lat="48.50955" lon="7.04257">
        <ele>658.2</ele>
      </trkpt>
      <trkpt lat="48.50949" lon="7.04239">
        <ele>659.4</ele>
      </trkpt>
      <trkpt lat="48.50945" lon="7.04219">
        <ele>660</ele>
      </trkpt>
      <trkpt lat="48.50942" lon="7.04201">
        <ele>660.2</ele>
      </trkpt>
      <trkpt lat="48.5094" lon="7.04182">
        <ele>660.1</ele>
      </trkpt>
      <trkpt lat="48.50938" lon="7.04165">
        <ele>659.9</ele>
      </trkpt>
      <trkpt lat="48.50938" lon="7.04147">
        <ele>659.4</ele>
      </trkpt>
      <trkpt lat="48.50935" lon="7.04129">
        <ele>659.2</ele>
      </trkpt>
      <trkpt lat="48.50929" lon="7.04108">
        <ele>658.9</ele>
      </trkpt>
      <trkpt lat="48.50923" lon="7.04098">
        <ele>658.9</ele>
      </trkpt>
      <trkpt lat="48.50917" lon="7.04084">
        <ele>658.1</ele>
      </trkpt>
      <trkpt lat="48.50917" lon="7.04082">
        <ele>658</ele>
      </trkpt>
      <trkpt lat="48.50913" lon="7.04076">
        <ele>657.8</ele>
      </trkpt>
      <trkpt lat="48.50909" lon="7.04071">
        <ele>657.5</ele>
      </trkpt>
      <trkpt lat="48.50901" lon="7.04063">
        <ele>657.2</ele>
      </trkpt>
      <trkpt lat="48.50901" lon="7.04063">
        <ele>657.2</ele>
      </trkpt>
      <trkpt lat="48.50892" lon="7.04059">
        <ele>657.2</ele>
      </trkpt>
      <trkpt lat="48.50882" lon="7.04056">
        <ele>657.4</ele>
      </trkpt>
      <trkpt lat="48.5087" lon="7.04054">
        <ele>657.8</ele>
      </trkpt>
      <trkpt lat="48.5086" lon="7.04052">
        <ele>657.9</ele>
      </trkpt>
      <trkpt lat="48.50847" lon="7.04052">
        <ele>658.2</ele>
      </trkpt>
      <trkpt lat="48.50836" lon="7.04052">
        <ele>658.2</ele>
      </trkpt>
      <trkpt lat="48.50824" lon="7.04052">
        <ele>658.3</ele>
      </trkpt>
      <trkpt lat="48.50813" lon="7.04053">
        <ele>658.5</ele>
      </trkpt>
      <trkpt lat="48.508" lon="7.04053">
        <ele>658.4</ele>
      </trkpt>
      <trkpt lat="48.50789" lon="7.04054">
        <ele>658.3</ele>
      </trkpt>
      <trkpt lat="48.50777" lon="7.04055">
        <ele>658.3</ele>
      </trkpt>
      <trkpt lat="48.50767" lon="7.04056">
        <ele>658.3</ele>
      </trkpt>
      <trkpt lat="48.50755" lon="7.04058">
        <ele>658.4</ele>
      </trkpt>
      <trkpt lat="48.50744" lon="7.04061">
        <ele>658.7</ele>
      </trkpt>
      <trkpt lat="48.50732" lon="7.04064">
        <ele>659.2</ele>
      </trkpt>
      <trkpt lat="48.50721" lon="7.04066">
        <ele>659.3</ele>
      </trkpt>
      <trkpt lat="48.5071" lon="7.04068">
        <ele>659.4</ele>
      </trkpt>
      <trkpt lat="48.507" lon="7.0407">
        <ele>659.5</ele>
      </trkpt>
      <trkpt lat="48.5069" lon="7.0407">
        <ele>659.4</ele>
      </trkpt>
      <trkpt lat="48.50679" lon="7.04069">
        <ele>659.1</ele>
      </trkpt>
      <trkpt lat="48.50669" lon="7.04067">
        <ele>658.7</ele>
      </trkpt>
      <trkpt lat="48.50658" lon="7.04064">
        <ele>658.1</ele>
      </trkpt>
      <trkpt lat="48.50647" lon="7.04061">
        <ele>657.9</ele>
      </trkpt>
      <trkpt lat="48.50636" lon="7.04057">
        <ele>657.5</ele>
      </trkpt>
      <trkpt lat="48.50627" lon="7.04052">
        <ele>657</ele>
      </trkpt>
      <trkpt lat="48.50617" lon="7.04045">
        <ele>656.5</ele>
      </trkpt>
      <trkpt lat="48.50609" lon="7.04038">
        <ele>656</ele>
      </trkpt>
      <trkpt lat="48.50601" lon="7.04031">
        <ele>655.6</ele>
      </trkpt>
      <trkpt lat="48.50593" lon="7.04024">
        <ele>655.3</ele>
      </trkpt>
      <trkpt lat="48.50585" lon="7.04018">
        <ele>655.1</ele>
      </trkpt>
      <trkpt lat="48.50578" lon="7.04012">
        <ele>654.8</ele>
      </trkpt>
      <trkpt lat="48.50571" lon="7.04005">
        <ele>654.6</ele>
      </trkpt>
      <trkpt lat="48.50564" lon="7.03999">
        <ele>654.5</ele>
      </trkpt>
      <trkpt lat="48.50558" lon="7.03994">
        <ele>654.2</ele>
      </trkpt>
      <trkpt lat="48.50553" lon="7.0399">
        <ele>654</ele>
      </trkpt>
      <trkpt lat="48.50546" lon="7.03984">
        <ele>653.5</ele>
      </trkpt>
      <trkpt lat="48.50541" lon="7.03966">
        <ele>652.8</ele>
      </trkpt>
      <trkpt lat="48.5054" lon="7.03959">
        <ele>652.6</ele>
      </trkpt>
      <trkpt lat="48.50539" lon="7.03951">
        <ele>652.5</ele>
      </trkpt>
      <trkpt lat="48.50538" lon="7.03941">
        <ele>652.3</ele>
      </trkpt>
      <trkpt lat="48.50534" lon="7.03924">
        <ele>652.1</ele>
      </trkpt>
      <trkpt lat="48.50532" lon="7.0392">
        <ele>652.1</ele>
      </trkpt>
      <trkpt lat="48.5053" lon="7.03914">
        <ele>652.1</ele>
      </trkpt>
      <trkpt lat="48.50525" lon="7.03909">
        <ele>652</ele>
      </trkpt>
      <trkpt lat="48.50524" lon="7.0391">
        <ele>652</ele>
      </trkpt>
      <trkpt lat="48.50518" lon="7.03913">
        <ele>652</ele>
      </trkpt>
      <trkpt lat="48.50514" lon="7.03917">
        <ele>651.8</ele>
      </trkpt>
      <trkpt lat="48.50511" lon="7.03926">
        <ele>651.6</ele>
      </trkpt>
      <trkpt lat="48.5051" lon="7.03938">
        <ele>651.4</ele>
      </trkpt>
      <trkpt lat="48.5051" lon="7.03954">
        <ele>651.1</ele>
      </trkpt>
      <trkpt lat="48.5051" lon="7.0397">
        <ele>650.8</ele>
      </trkpt>
      <trkpt lat="48.50511" lon="7.03986">
        <ele>650.7</ele>
      </trkpt>
      <trkpt lat="48.50511" lon="7.04004">
        <ele>650.4</ele>
      </trkpt>
      <trkpt lat="48.50511" lon="7.04022">
        <ele>649.9</ele>
      </trkpt>
      <trkpt lat="48.5051" lon="7.04038">
        <ele>649.3</ele>
      </trkpt>
      <trkpt lat="48.50509" lon="7.04053">
        <ele>648.4</ele>
      </trkpt>
      <trkpt lat="48.50507" lon="7.04065">
        <ele>647.6</ele>
      </trkpt>
      <trkpt lat="48.50504" lon="7.04084">
        <ele>646.4</ele>
      </trkpt>
      <trkpt lat="48.50504" lon="7.04097">
        <ele>646.1</ele>
      </trkpt>
      <trkpt lat="48.50503" lon="7.04113">
        <ele>645.7</ele>
      </trkpt>
      <trkpt lat="48.50502" lon="7.04128">
        <ele>645.5</ele>
      </trkpt>
      <trkpt lat="48.50501" lon="7.0414">
        <ele>645</ele>
      </trkpt>
      <trkpt lat="48.505" lon="7.04152">
        <ele>644.5</ele>
      </trkpt>
      <trkpt lat="48.50499" lon="7.04165">
        <ele>643.8</ele>
      </trkpt>
      <trkpt lat="48.50498" lon="7.04177">
        <ele>643.4</ele>
      </trkpt>
      <trkpt lat="48.50495" lon="7.04189">
        <ele>642.6</ele>
      </trkpt>
      <trkpt lat="48.50492" lon="7.04204">
        <ele>641.7</ele>
      </trkpt>
      <trkpt lat="48.50488" lon="7.0422">
        <ele>641</ele>
      </trkpt>
      <trkpt lat="48.50483" lon="7.04236">
        <ele>640</ele>
      </trkpt>
      <trkpt lat="48.50479" lon="7.0425">
        <ele>639</ele>
      </trkpt>
      <trkpt lat="48.50474" lon="7.0426">
        <ele>638.2</ele>
      </trkpt>
      <trkpt lat="48.50469" lon="7.0427">
        <ele>637.1</ele>
      </trkpt>
      <trkpt lat="48.50462" lon="7.04282">
        <ele>635.8</ele>
      </trkpt>
      <trkpt lat="48.50457" lon="7.04292">
        <ele>635</ele>
      </trkpt>
      <trkpt lat="48.50452" lon="7.043">
        <ele>634.4</ele>
      </trkpt>
      <trkpt lat="48.50444" lon="7.04314">
        <ele>633.5</ele>
      </trkpt>
      <trkpt lat="48.50438" lon="7.04323">
        <ele>632.8</ele>
      </trkpt>
      <trkpt lat="48.5043" lon="7.04333">
        <ele>631.9</ele>
      </trkpt>
      <trkpt lat="48.50423" lon="7.04343">
        <ele>631.2</ele>
      </trkpt>
      <trkpt lat="48.50417" lon="7.0435">
        <ele>630.4</ele>
      </trkpt>
      <trkpt lat="48.5041" lon="7.04355">
        <ele>629.4</ele>
      </trkpt>
      <trkpt lat="48.50404" lon="7.04359">
        <ele>628.4</ele>
      </trkpt>
      <trkpt lat="48.50395" lon="7.04366">
        <ele>627.2</ele>
      </trkpt>
      <trkpt lat="48.50387" lon="7.0437">
        <ele>626.2</ele>
      </trkpt>
      <trkpt lat="48.50382" lon="7.04374">
        <ele>625.5</ele>
      </trkpt>
      <trkpt lat="48.50377" lon="7.0438">
        <ele>625</ele>
      </trkpt>
      <trkpt lat="48.50374" lon="7.04385">
        <ele>624.6</ele>
      </trkpt>
      <trkpt lat="48.50373" lon="7.04387">
        <ele>624.4</ele>
      </trkpt>
      <trkpt lat="48.50371" lon="7.04395">
        <ele>624</ele>
      </trkpt>
      <trkpt lat="48.50371" lon="7.04404">
        <ele>623.6</ele>
      </trkpt>
      <trkpt lat="48.50372" lon="7.04415">
        <ele>623.2</ele>
      </trkpt>
      <trkpt lat="48.50376" lon="7.04426">
        <ele>621.8</ele>
      </trkpt>
      <trkpt lat="48.50381" lon="7.04437">
        <ele>619.4</ele>
      </trkpt>
      <trkpt lat="48.50387" lon="7.04445">
        <ele>616.7</ele>
      </trkpt>
      <trkpt lat="48.50394" lon="7.04453">
        <ele>614.5</ele>
      </trkpt>
      <trkpt lat="48.50402" lon="7.0446">
        <ele>612.4</ele>
      </trkpt>
      <trkpt lat="48.50406" lon="7.04464">
        <ele>611.4</ele>
      </trkpt>
      <trkpt lat="48.50411" lon="7.04468">
        <ele>610.5</ele>
      </trkpt>
      <trkpt lat="48.50425" lon="7.04478">
        <ele>609</ele>
      </trkpt>
      <trkpt lat="48.50434" lon="7.04484">
        <ele>607.8</ele>
      </trkpt>
      <trkpt lat="48.50445" lon="7.0449">
        <ele>606.1</ele>
      </trkpt>
      <trkpt lat="48.50459" lon="7.04495">
        <ele>605</ele>
      </trkpt>
      <trkpt lat="48.50471" lon="7.04499">
        <ele>604.4</ele>
      </trkpt>
      <trkpt lat="48.50483" lon="7.04501">
        <ele>604.5</ele>
      </trkpt>
      <trkpt lat="48.50496" lon="7.04503">
        <ele>604.9</ele>
      </trkpt>
      <trkpt lat="48.5051" lon="7.04504">
        <ele>605.1</ele>
      </trkpt>
      <trkpt lat="48.50524" lon="7.04505">
        <ele>605.3</ele>
      </trkpt>
      <trkpt lat="48.50537" lon="7.04505">
        <ele>605.6</ele>
      </trkpt>
      <trkpt lat="48.50551" lon="7.04506">
        <ele>605.9</ele>
      </trkpt>
      <trkpt lat="48.50563" lon="7.04508">
        <ele>605.7</ele>
      </trkpt>
      <trkpt lat="48.50576" lon="7.04511">
        <ele>605.1</ele>
      </trkpt>
      <trkpt lat="48.50584" lon="7.04513">
        <ele>604.8</ele>
      </trkpt>
      <trkpt lat="48.50591" lon="7.04515">
        <ele>604.6</ele>
      </trkpt>
      <trkpt lat="48.50598" lon="7.04517">
        <ele>604.5</ele>
      </trkpt>
      <trkpt lat="48.50605" lon="7.04521">
        <ele>604.1</ele>
      </trkpt>
      <trkpt lat="48.50611" lon="7.04525">
        <ele>603.9</ele>
      </trkpt>
      <trkpt lat="48.50617" lon="7.04532">
        <ele>604.1</ele>
      </trkpt>
      <trkpt lat="48.50623" lon="7.0454">
        <ele>604.5</ele>
      </trkpt>
      <trkpt lat="48.50628" lon="7.04551">
        <ele>604.1</ele>
      </trkpt>
      <trkpt lat="48.50632" lon="7.04565">
        <ele>603.3</ele>
      </trkpt>
      <trkpt lat="48.50636" lon="7.04583">
        <ele>602.3</ele>
      </trkpt>
      <trkpt lat="48.50638" lon="7.04601">
        <ele>600.9</ele>
      </trkpt>
      <trkpt lat="48.50639" lon="7.04622">
        <ele>599.2</ele>
      </trkpt>
      <trkpt lat="48.5064" lon="7.04644">
        <ele>598</ele>
      </trkpt>
      <trkpt lat="48.50639" lon="7.04662">
        <ele>596.4</ele>
      </trkpt>
      <trkpt lat="48.50638" lon="7.04682">
        <ele>594.1</ele>
      </trkpt>
      <trkpt lat="48.50638" lon="7.04702">
        <ele>592.2</ele>
      </trkpt>
      <trkpt lat="48.50638" lon="7.04725">
        <ele>590.8</ele>
      </trkpt>
      <trkpt lat="48.5064" lon="7.04745">
        <ele>590.2</ele>
      </trkpt>
      <trkpt lat="48.50645" lon="7.04765">
        <ele>591.2</ele>
      </trkpt>
      <trkpt lat="48.50648" lon="7.04779">
        <ele>591.7</ele>
      </trkpt>
      <trkpt lat="48.50651" lon="7.04794">
        <ele>592.1</ele>
      </trkpt>
      <trkpt lat="48.50651" lon="7.0481">
        <ele>591</ele>
      </trkpt>
      <trkpt lat="48.50651" lon="7.04827">
        <ele>589.7</ele>
      </trkpt>
      <trkpt lat="48.50648" lon="7.04846">
        <ele>587.8</ele>
      </trkpt>
      <trkpt lat="48.50645" lon="7.04862">
        <ele>586</ele>
      </trkpt>
      <trkpt lat="48.50643" lon="7.04877">
        <ele>584.6</ele>
      </trkpt>
      <trkpt lat="48.50641" lon="7.04893">
        <ele>583</ele>
      </trkpt>
      <trkpt lat="48.50641" lon="7.04909">
        <ele>582.3</ele>
      </trkpt>
      <trkpt lat="48.50641" lon="7.04925">
        <ele>581.6</ele>
      </trkpt>
      <trkpt lat="48.50644" lon="7.0494">
        <ele>581</ele>
      </trkpt>
      <trkpt lat="48.50647" lon="7.04956">
        <ele>580.1</ele>
      </trkpt>
      <trkpt lat="48.50651" lon="7.04971">
        <ele>579.7</ele>
      </trkpt>
      <trkpt lat="48.50657" lon="7.04989">
        <ele>578.8</ele>
      </trkpt>
      <trkpt lat="48.50665" lon="7.05007">
        <ele>578.6</ele>
      </trkpt>
      <trkpt lat="48.50674" lon="7.05022">
        <ele>578.8</ele>
      </trkpt>
      <trkpt lat="48.50686" lon="7.05045">
        <ele>578</ele>
      </trkpt>
      <trkpt lat="48.50715" lon="7.05093">
        <ele>575.9</ele>
      </trkpt>
      <trkpt lat="48.50736" lon="7.0513">
        <ele>572.5</ele>
      </trkpt>
      <trkpt lat="48.50745" lon="7.05143">
        <ele>570.7</ele>
      </trkpt>
      <trkpt lat="48.50754" lon="7.05153">
        <ele>570</ele>
      </trkpt>
      <trkpt lat="48.50758" lon="7.05156">
        <ele>569.7</ele>
      </trkpt>
      <trkpt lat="48.50763" lon="7.05162">
        <ele>569.3</ele>
      </trkpt>
      <trkpt lat="48.50772" lon="7.05168">
        <ele>568.8</ele>
      </trkpt>
      <trkpt lat="48.50779" lon="7.05174">
        <ele>567.7</ele>
      </trkpt>
      <trkpt lat="48.50785" lon="7.05177">
        <ele>567</ele>
      </trkpt>
      <trkpt lat="48.50789" lon="7.05179">
        <ele>566.9</ele>
      </trkpt>
      <trkpt lat="48.50799" lon="7.05182">
        <ele>566.2</ele>
      </trkpt>
      <trkpt lat="48.50815" lon="7.05185">
        <ele>565.1</ele>
      </trkpt>
      <trkpt lat="48.50825" lon="7.05185">
        <ele>564.5</ele>
      </trkpt>
      <trkpt lat="48.50833" lon="7.05186">
        <ele>563.9</ele>
      </trkpt>
      <trkpt lat="48.50842" lon="7.05186">
        <ele>563.3</ele>
      </trkpt>
      <trkpt lat="48.50852" lon="7.05184">
        <ele>562.8</ele>
      </trkpt>
      <trkpt lat="48.50861" lon="7.05182">
        <ele>562.5</ele>
      </trkpt>
      <trkpt lat="48.50871" lon="7.05181">
        <ele>561.9</ele>
      </trkpt>
      <trkpt lat="48.50879" lon="7.0518">
        <ele>561.4</ele>
      </trkpt>
      <trkpt lat="48.50887" lon="7.05181">
        <ele>560.6</ele>
      </trkpt>
      <trkpt lat="48.50893" lon="7.05184">
        <ele>559.6</ele>
      </trkpt>
      <trkpt lat="48.50899" lon="7.05188">
        <ele>558.4</ele>
      </trkpt>
      <trkpt lat="48.50904" lon="7.05195">
        <ele>557.1</ele>
      </trkpt>
      <trkpt lat="48.50908" lon="7.05205">
        <ele>555.3</ele>
      </trkpt>
      <trkpt lat="48.50913" lon="7.05221">
        <ele>553.2</ele>
      </trkpt>
      <trkpt lat="48.50917" lon="7.05239">
        <ele>550.9</ele>
      </trkpt>
      <trkpt lat="48.5092" lon="7.05256">
        <ele>549.8</ele>
      </trkpt>
      <trkpt lat="48.50923" lon="7.05271">
        <ele>549.2</ele>
      </trkpt>
      <trkpt lat="48.50926" lon="7.05287">
        <ele>549.3</ele>
      </trkpt>
      <trkpt lat="48.50928" lon="7.05304">
        <ele>549.1</ele>
      </trkpt>
      <trkpt lat="48.50929" lon="7.0532">
        <ele>548.8</ele>
      </trkpt>
      <trkpt lat="48.50929" lon="7.05337">
        <ele>548.1</ele>
      </trkpt>
      <trkpt lat="48.50927" lon="7.05355">
        <ele>547.4</ele>
      </trkpt>
      <trkpt lat="48.50925" lon="7.0537">
        <ele>546.3</ele>
      </trkpt>
      <trkpt lat="48.50922" lon="7.05386">
        <ele>544.9</ele>
      </trkpt>
      <trkpt lat="48.50921" lon="7.05387">
        <ele>544.8</ele>
      </trkpt>
      <trkpt lat="48.50919" lon="7.05401">
        <ele>543.5</ele>
      </trkpt>
      <trkpt lat="48.50916" lon="7.05419">
        <ele>542.1</ele>
      </trkpt>
      <trkpt lat="48.50915" lon="7.05437">
        <ele>541.5</ele>
      </trkpt>
      <trkpt lat="48.50913" lon="7.0545">
        <ele>540.6</ele>
      </trkpt>
      <trkpt lat="48.50913" lon="7.05463">
        <ele>540</ele>
      </trkpt>
      <trkpt lat="48.50913" lon="7.05489">
        <ele>538.9</ele>
      </trkpt>
      <trkpt lat="48.50915" lon="7.05517">
        <ele>538.3</ele>
      </trkpt>
      <trkpt lat="48.50921" lon="7.05564">
        <ele>536</ele>
      </trkpt>
      <trkpt lat="48.50928" lon="7.05605">
        <ele>533.2</ele>
      </trkpt>
      <trkpt lat="48.50934" lon="7.05632">
        <ele>531.6</ele>
      </trkpt>
      <trkpt lat="48.50943" lon="7.05658">
        <ele>531.1</ele>
      </trkpt>
      <trkpt lat="48.50955" lon="7.0569">
        <ele>530.5</ele>
      </trkpt>
      <trkpt lat="48.50962" lon="7.05717">
        <ele>529.7</ele>
      </trkpt>
      <trkpt lat="48.5097" lon="7.05742">
        <ele>530.5</ele>
      </trkpt>
      <trkpt lat="48.50972" lon="7.05753">
        <ele>530.8</ele>
      </trkpt>
      <trkpt lat="48.50972" lon="7.05762">
        <ele>530.9</ele>
      </trkpt>
      <trkpt lat="48.50971" lon="7.05766">
        <ele>531</ele>
      </trkpt>
      <trkpt lat="48.50971" lon="7.05767">
        <ele>531</ele>
      </trkpt>
      <trkpt lat="48.50967" lon="7.05772">
        <ele>530.8</ele>
      </trkpt>
      <trkpt lat="48.50962" lon="7.05775">
        <ele>530.6</ele>
      </trkpt>
      <trkpt lat="48.50954" lon="7.05775">
        <ele>530.4</ele>
      </trkpt>
      <trkpt lat="48.50943" lon="7.05772">
        <ele>529.9</ele>
      </trkpt>
      <trkpt lat="48.50926" lon="7.05762">
        <ele>528.5</ele>
      </trkpt>
      <trkpt lat="48.50908" lon="7.05748">
        <ele>526</ele>
      </trkpt>
      <trkpt lat="48.50887" lon="7.05733">
        <ele>524.1</ele>
      </trkpt>
      <trkpt lat="48.50866" lon="7.05723">
        <ele>525</ele>
      </trkpt>
      <trkpt lat="48.50844" lon="7.05713">
        <ele>525.1</ele>
      </trkpt>
      <trkpt lat="48.50816" lon="7.05699">
        <ele>524.4</ele>
      </trkpt>
      <trkpt lat="48.50808" lon="7.0569">
        <ele>522.2</ele>
      </trkpt>
      <trkpt lat="48.50799" lon="7.05683">
        <ele>520.8</ele>
      </trkpt>
      <trkpt lat="48.50789" lon="7.05674">
        <ele>519.1</ele>
      </trkpt>
      <trkpt lat="48.50777" lon="7.05666">
        <ele>517.7</ele>
      </trkpt>
      <trkpt lat="48.50767" lon="7.05657">
        <ele>516</ele>
      </trkpt>
      <trkpt lat="48.50759" lon="7.0565">
        <ele>515</ele>
      </trkpt>
      <trkpt lat="48.50753" lon="7.05645">
        <ele>514.2</ele>
      </trkpt>
      <trkpt lat="48.50744" lon="7.05637">
        <ele>513.3</ele>
      </trkpt>
      <trkpt lat="48.50734" lon="7.05629">
        <ele>512.6</ele>
      </trkpt>
      <trkpt lat="48.50726" lon="7.05622">
        <ele>511.9</ele>
      </trkpt>
      <trkpt lat="48.50716" lon="7.05614">
        <ele>511.4</ele>
      </trkpt>
      <trkpt lat="48.50708" lon="7.05607">
        <ele>510.6</ele>
      </trkpt>
      <trkpt lat="48.50698" lon="7.05598">
        <ele>509.7</ele>
      </trkpt>
      <trkpt lat="48.50689" lon="7.05589">
        <ele>508.7</ele>
      </trkpt>
      <trkpt lat="48.50681" lon="7.0558">
        <ele>507.3</ele>
      </trkpt>
      <trkpt lat="48.50671" lon="7.05573">
        <ele>506.4</ele>
      </trkpt>
      <trkpt lat="48.5066" lon="7.05568">
        <ele>505.6</ele>
      </trkpt>
      <trkpt lat="48.50649" lon="7.05564">
        <ele>504.9</ele>
      </trkpt>
      <trkpt lat="48.50638" lon="7.05562">
        <ele>504.7</ele>
      </trkpt>
      <trkpt lat="48.50627" lon="7.05562">
        <ele>504.8</ele>
      </trkpt>
      <trkpt lat="48.50619" lon="7.0556">
        <ele>504.4</ele>
      </trkpt>
      <trkpt lat="48.50611" lon="7.05556">
        <ele>503.4</ele>
      </trkpt>
      <trkpt lat="48.50602" lon="7.05552">
        <ele>502.4</ele>
      </trkpt>
      <trkpt lat="48.50592" lon="7.05549">
        <ele>501.6</ele>
      </trkpt>
      <trkpt lat="48.50583" lon="7.05545">
        <ele>500.6</ele>
      </trkpt>
      <trkpt lat="48.50573" lon="7.05541">
        <ele>499.6</ele>
      </trkpt>
      <trkpt lat="48.50566" lon="7.05538">
        <ele>498.8</ele>
      </trkpt>
      <trkpt lat="48.50557" lon="7.05534">
        <ele>497.8</ele>
      </trkpt>
      <trkpt lat="48.50548" lon="7.05532">
        <ele>497.6</ele>
      </trkpt>
      <trkpt lat="48.50534" lon="7.05526">
        <ele>496.3</ele>
      </trkpt>
      <trkpt lat="48.50525" lon="7.05517">
        <ele>494.1</ele>
      </trkpt>
      <trkpt lat="48.50515" lon="7.05511">
        <ele>492.7</ele>
      </trkpt>
      <trkpt lat="48.50506" lon="7.05506">
        <ele>491.4</ele>
      </trkpt>
      <trkpt lat="48.50495" lon="7.05504">
        <ele>491</ele>
      </trkpt>
      <trkpt lat="48.50488" lon="7.05502">
        <ele>490.4</ele>
      </trkpt>
      <trkpt lat="48.50478" lon="7.055">
        <ele>489.7</ele>
      </trkpt>
      <trkpt lat="48.50472" lon="7.05501">
        <ele>489.6</ele>
      </trkpt>
      <trkpt lat="48.50468" lon="7.05501">
        <ele>489.4</ele>
      </trkpt>
      <trkpt lat="48.50464" lon="7.05503">
        <ele>489.7</ele>
      </trkpt>
      <trkpt lat="48.50459" lon="7.05504">
        <ele>489.8</ele>
      </trkpt>
      <trkpt lat="48.50455" lon="7.05505">
        <ele>489.8</ele>
      </trkpt>
      <trkpt lat="48.5045" lon="7.05507">
        <ele>490</ele>
      </trkpt>
      <trkpt lat="48.50447" lon="7.05506">
        <ele>489.4</ele>
      </trkpt>
      <trkpt lat="48.50443" lon="7.05503">
        <ele>488.3</ele>
      </trkpt>
      <trkpt lat="48.5044" lon="7.05501">
        <ele>487.7</ele>
      </trkpt>
      <trkpt lat="48.50439" lon="7.05501">
        <ele>487.5</ele>
      </trkpt>
      <trkpt lat="48.50437" lon="7.055">
        <ele>487.1</ele>
      </trkpt>
      <trkpt lat="48.50434" lon="7.05497">
        <ele>486</ele>
      </trkpt>
      <trkpt lat="48.50433" lon="7.05493">
        <ele>484.9</ele>
      </trkpt>
      <trkpt lat="48.5042" lon="7.05498">
        <ele>484.9</ele>
      </trkpt>
      <trkpt lat="48.504" lon="7.05504">
        <ele>484.1</ele>
      </trkpt>
      <trkpt lat="48.50381" lon="7.0551">
        <ele>483</ele>
      </trkpt>
      <trkpt lat="48.50366" lon="7.05516">
        <ele>481.9</ele>
      </trkpt>
      <trkpt lat="48.50354" lon="7.05524">
        <ele>481.2</ele>
      </trkpt>
      <trkpt lat="48.50339" lon="7.05539">
        <ele>479.8</ele>
      </trkpt>
      <trkpt lat="48.50324" lon="7.05558">
        <ele>478.4</ele>
      </trkpt>
      <trkpt lat="48.50312" lon="7.05578">
        <ele>476.8</ele>
      </trkpt>
      <trkpt lat="48.50299" lon="7.05606">
        <ele>475</ele>
      </trkpt>
      <trkpt lat="48.5029" lon="7.05637">
        <ele>473.4</ele>
      </trkpt>
      <trkpt lat="48.50279" lon="7.05665">
        <ele>470.5</ele>
      </trkpt>
      <trkpt lat="48.50272" lon="7.05684">
        <ele>468.8</ele>
      </trkpt>
      <trkpt lat="48.50266" lon="7.05705">
        <ele>467.4</ele>
      </trkpt>
      <trkpt lat="48.50264" lon="7.05712">
        <ele>467</ele>
      </trkpt>
      <trkpt lat="48.5026" lon="7.0573">
        <ele>466.1</ele>
      </trkpt>
      <trkpt lat="48.50252" lon="7.05763">
        <ele>464.1</ele>
      </trkpt>
      <trkpt lat="48.50247" lon="7.05794">
        <ele>462.9</ele>
      </trkpt>
      <trkpt lat="48.50243" lon="7.05836">
        <ele>461.4</ele>
      </trkpt>
      <trkpt lat="48.50242" lon="7.05872">
        <ele>460.2</ele>
      </trkpt>
      <trkpt lat="48.50243" lon="7.05892">
        <ele>459.8</ele>
      </trkpt>
      <trkpt lat="48.50243" lon="7.0592">
        <ele>458.5</ele>
      </trkpt>
      <trkpt lat="48.50245" lon="7.05942">
        <ele>457.3</ele>
      </trkpt>
      <trkpt lat="48.50246" lon="7.05964">
        <ele>456.3</ele>
      </trkpt>
      <trkpt lat="48.50248" lon="7.05989">
        <ele>455.4</ele>
      </trkpt>
      <trkpt lat="48.5025" lon="7.0601">
        <ele>455.1</ele>
      </trkpt>
      <trkpt lat="48.50254" lon="7.06036">
        <ele>454.7</ele>
      </trkpt>
      <trkpt lat="48.50258" lon="7.06061">
        <ele>453.8</ele>
      </trkpt>
      <trkpt lat="48.50262" lon="7.06081">
        <ele>453.2</ele>
      </trkpt>
      <trkpt lat="48.50273" lon="7.06121">
        <ele>452.2</ele>
      </trkpt>
      <trkpt lat="48.5028" lon="7.06153">
        <ele>450</ele>
      </trkpt>
      <trkpt lat="48.50289" lon="7.06185">
        <ele>448.5</ele>
      </trkpt>
      <trkpt lat="48.50298" lon="7.06218">
        <ele>447.6</ele>
      </trkpt>
      <trkpt lat="48.50306" lon="7.06248">
        <ele>447.2</ele>
      </trkpt>
      <trkpt lat="48.50314" lon="7.06287">
        <ele>447</ele>
      </trkpt>
      <trkpt lat="48.50315" lon="7.06316">
        <ele>446.8</ele>
      </trkpt>
      <trkpt lat="48.50315" lon="7.06319">
        <ele>446.8</ele>
      </trkpt>
      <trkpt lat="48.50315" lon="7.0635">
        <ele>446.7</ele>
      </trkpt>
      <trkpt lat="48.50313" lon="7.06392">
        <ele>447</ele>
      </trkpt>
      <trkpt lat="48.50311" lon="7.06431">
        <ele>447.3</ele>
      </trkpt>
      <trkpt lat="48.50311" lon="7.06448">
        <ele>447.1</ele>
      </trkpt>
      <trkpt lat="48.50312" lon="7.0647">
        <ele>446.4</ele>
      </trkpt>
      <trkpt lat="48.50312" lon="7.06494">
        <ele>445</ele>
      </trkpt>
      <trkpt lat="48.5031" lon="7.06523">
        <ele>443.4</ele>
      </trkpt>
      <trkpt lat="48.50307" lon="7.0655">
        <ele>441.8</ele>
      </trkpt>
      <trkpt lat="48.50305" lon="7.06572">
        <ele>440.5</ele>
      </trkpt>
      <trkpt lat="48.50303" lon="7.06595">
        <ele>439</ele>
      </trkpt>
      <trkpt lat="48.50305" lon="7.06622">
        <ele>437.8</ele>
      </trkpt>
      <trkpt lat="48.50307" lon="7.06646">
        <ele>436.5</ele>
      </trkpt>
      <trkpt lat="48.50309" lon="7.06672">
        <ele>434.7</ele>
      </trkpt>
      <trkpt lat="48.50313" lon="7.06699">
        <ele>433.1</ele>
      </trkpt>
      <trkpt lat="48.50319" lon="7.06727">
        <ele>431.9</ele>
      </trkpt>
      <trkpt lat="48.50327" lon="7.06755">
        <ele>430.4</ele>
      </trkpt>
      <trkpt lat="48.50335" lon="7.0678">
        <ele>429.3</ele>
      </trkpt>
      <trkpt lat="48.50341" lon="7.06809">
        <ele>428.2</ele>
      </trkpt>
      <trkpt lat="48.50347" lon="7.0684">
        <ele>427.6</ele>
      </trkpt>
      <trkpt lat="48.50352" lon="7.06869">
        <ele>426.5</ele>
      </trkpt>
      <trkpt lat="48.50355" lon="7.06897">
        <ele>424.9</ele>
      </trkpt>
      <trkpt lat="48.50358" lon="7.06925">
        <ele>422.9</ele>
      </trkpt>
      <trkpt lat="48.50363" lon="7.06955">
        <ele>421</ele>
      </trkpt>
      <trkpt lat="48.50369" lon="7.06986">
        <ele>419.4</ele>
      </trkpt>
      <trkpt lat="48.50375" lon="7.07016">
        <ele>418.1</ele>
      </trkpt>
      <trkpt lat="48.5038" lon="7.07044">
        <ele>417.1</ele>
      </trkpt>
      <trkpt lat="48.50384" lon="7.07072">
        <ele>416.4</ele>
      </trkpt>
      <trkpt lat="48.50388" lon="7.071">
        <ele>415</ele>
      </trkpt>
      <trkpt lat="48.50391" lon="7.07122">
        <ele>412.9</ele>
      </trkpt>
      <trkpt lat="48.50393" lon="7.0714">
        <ele>410.8</ele>
      </trkpt>
      <trkpt lat="48.50395" lon="7.07147">
        <ele>410.2</ele>
      </trkpt>
      <trkpt lat="48.50396" lon="7.07155">
        <ele>409.4</ele>
      </trkpt>
      <trkpt lat="48.504" lon="7.07165">
        <ele>408.9</ele>
      </trkpt>
      <trkpt lat="48.50406" lon="7.07175">
        <ele>408.9</ele>
      </trkpt>
      <trkpt lat="48.50411" lon="7.07182">
        <ele>409.1</ele>
      </trkpt>
      <trkpt lat="48.50413" lon="7.07186">
        <ele>409.3</ele>
      </trkpt>
      <trkpt lat="48.50415" lon="7.0719">
        <ele>409.4</ele>
      </trkpt>
      <trkpt lat="48.50421" lon="7.072">
        <ele>410.3</ele>
      </trkpt>
      <trkpt lat="48.50427" lon="7.07205">
        <ele>411.3</ele>
      </trkpt>
      <trkpt lat="48.5043" lon="7.07211">
        <ele>412</ele>
      </trkpt>
      <trkpt lat="48.50434" lon="7.0722">
        <ele>412.5</ele>
      </trkpt>
      <trkpt lat="48.50438" lon="7.07232">
        <ele>413.2</ele>
      </trkpt>
      <trkpt lat="48.50444" lon="7.07243">
        <ele>414.1</ele>
      </trkpt>
      <trkpt lat="48.5045" lon="7.07257">
        <ele>414.9</ele>
      </trkpt>
      <trkpt lat="48.50461" lon="7.07282">
        <ele>415.6</ele>
      </trkpt>
      <trkpt lat="48.50467" lon="7.07302">
        <ele>415.6</ele>
      </trkpt>
      <trkpt lat="48.50475" lon="7.07326">
        <ele>415.6</ele>
      </trkpt>
      <trkpt lat="48.50484" lon="7.07351">
        <ele>415.6</ele>
      </trkpt>
      <trkpt lat="48.50492" lon="7.0737">
        <ele>415.9</ele>
      </trkpt>
      <trkpt lat="48.50501" lon="7.07387">
        <ele>416.3</ele>
      </trkpt>
      <trkpt lat="48.5051" lon="7.07402">
        <ele>416.7</ele>
      </trkpt>
      <trkpt lat="48.50522" lon="7.07421">
        <ele>417.1</ele>
      </trkpt>
      <trkpt lat="48.50529" lon="7.07432">
        <ele>417.3</ele>
      </trkpt>
      <trkpt lat="48.50537" lon="7.07441">
        <ele>417.7</ele>
      </trkpt>
      <trkpt lat="48.50547" lon="7.07451">
        <ele>417.9</ele>
      </trkpt>
      <trkpt lat="48.50554" lon="7.07458">
        <ele>417.9</ele>
      </trkpt>
      <trkpt lat="48.50561" lon="7.07463">
        <ele>417.9</ele>
      </trkpt>
      <trkpt lat="48.50569" lon="7.07468">
        <ele>417.8</ele>
      </trkpt>
      <trkpt lat="48.50578" lon="7.07473">
        <ele>417.7</ele>
      </trkpt>
      <trkpt lat="48.50587" lon="7.07477">
        <ele>417.7</ele>
      </trkpt>
      <trkpt lat="48.50594" lon="7.0748">
        <ele>417.5</ele>
      </trkpt>
      <trkpt lat="48.50601" lon="7.0748">
        <ele>417.5</ele>
      </trkpt>
      <trkpt lat="48.50605" lon="7.07481">
        <ele>417.5</ele>
      </trkpt>
      <trkpt lat="48.50611" lon="7.07481">
        <ele>417.5</ele>
      </trkpt>
      <trkpt lat="48.50617" lon="7.07479">
        <ele>417.7</ele>
      </trkpt>
      <trkpt lat="48.50624" lon="7.07477">
        <ele>418.3</ele>
      </trkpt>
      <trkpt lat="48.50633" lon="7.07475">
        <ele>418.9</ele>
      </trkpt>
      <trkpt lat="48.50638" lon="7.07475">
        <ele>419.2</ele>
      </trkpt>
      <trkpt lat="48.50641" lon="7.07476">
        <ele>419.3</ele>
      </trkpt>
      <trkpt lat="48.50644" lon="7.07477">
        <ele>419.4</ele>
      </trkpt>
      <trkpt lat="48.50648" lon="7.0748">
        <ele>419.6</ele>
      </trkpt>
      <trkpt lat="48.50653" lon="7.07486">
        <ele>419.7</ele>
      </trkpt>
      <trkpt lat="48.50657" lon="7.07494">
        <ele>419.7</ele>
      </trkpt>
      <trkpt lat="48.50661" lon="7.07503">
        <ele>419.6</ele>
      </trkpt>
      <trkpt lat="48.50664" lon="7.07513">
        <ele>419.2</ele>
      </trkpt>
      <trkpt lat="48.50667" lon="7.07524">
        <ele>418.6</ele>
      </trkpt>
      <trkpt lat="48.50671" lon="7.07534">
        <ele>418</ele>
      </trkpt>
      <trkpt lat="48.50675" lon="7.07543">
        <ele>417.5</ele>
      </trkpt>
      <trkpt lat="48.50679" lon="7.07551">
        <ele>417.3</ele>
      </trkpt>
      <trkpt lat="48.50685" lon="7.0756">
        <ele>417.1</ele>
      </trkpt>
      <trkpt lat="48.50691" lon="7.07568">
        <ele>417</ele>
      </trkpt>
      <trkpt lat="48.50701" lon="7.07577">
        <ele>417.6</ele>
      </trkpt>
      <trkpt lat="48.50706" lon="7.07584">
        <ele>417.9</ele>
      </trkpt>
      <trkpt lat="48.50711" lon="7.07591">
        <ele>417.8</ele>
      </trkpt>
      <trkpt lat="48.50715" lon="7.076">
        <ele>417.7</ele>
      </trkpt>
      <trkpt lat="48.50719" lon="7.0761">
        <ele>417.6</ele>
      </trkpt>
      <trkpt lat="48.50723" lon="7.07622">
        <ele>417.6</ele>
      </trkpt>
      <trkpt lat="48.50728" lon="7.07634">
        <ele>418</ele>
      </trkpt>
      <trkpt lat="48.50734" lon="7.07645">
        <ele>418.6</ele>
      </trkpt>
      <trkpt lat="48.50739" lon="7.07654">
        <ele>419</ele>
      </trkpt>
      <trkpt lat="48.50743" lon="7.07664">
        <ele>419.2</ele>
      </trkpt>
      <trkpt lat="48.50747" lon="7.07674">
        <ele>419.3</ele>
      </trkpt>
      <trkpt lat="48.50752" lon="7.07682">
        <ele>419.7</ele>
      </trkpt>
      <trkpt lat="48.50758" lon="7.07687">
        <ele>420.2</ele>
      </trkpt>
      <trkpt lat="48.50763" lon="7.07688">
        <ele>420.9</ele>
      </trkpt>
      <trkpt lat="48.50769" lon="7.07687">
        <ele>421.7</ele>
      </trkpt>
      <trkpt lat="48.5077" lon="7.07686">
        <ele>421.8</ele>
      </trkpt>
      <trkpt lat="48.50769" lon="7.07687">
        <ele>421.7</ele>
      </trkpt>
      <trkpt lat="48.50796" lon="7.07724">
        <ele>419.6</ele>
      </trkpt>
      <trkpt lat="48.50822" lon="7.07762">
        <ele>418.8</ele>
      </trkpt>
      <trkpt lat="48.50849" lon="7.07799">
        <ele>423.1</ele>
      </trkpt>
      <trkpt lat="48.50852" lon="7.07807">
        <ele>423.7</ele>
      </trkpt>
      <trkpt lat="48.50853" lon="7.07827">
        <ele>423.8</ele>
      </trkpt>
      <trkpt lat="48.50851" lon="7.0784">
        <ele>423.3</ele>
      </trkpt>
      <trkpt lat="48.50846" lon="7.07857">
        <ele>421.9</ele>
      </trkpt>
      <trkpt lat="48.50844" lon="7.07879">
        <ele>421.1</ele>
      </trkpt>
      <trkpt lat="48.50843" lon="7.07904">
        <ele>420.7</ele>
      </trkpt>
      <trkpt lat="48.50844" lon="7.07938">
        <ele>420.6</ele>
      </trkpt>
      <trkpt lat="48.50847" lon="7.07988">
        <ele>419.5</ele>
      </trkpt>
      <trkpt lat="48.50859" lon="7.08043">
        <ele>418.1</ele>
      </trkpt>
      <trkpt lat="48.50873" lon="7.08071">
        <ele>417.2</ele>
      </trkpt>
      <trkpt lat="48.50885" lon="7.08087">
        <ele>416.7</ele>
      </trkpt>
      <trkpt lat="48.50893" lon="7.08105">
        <ele>417.2</ele>
      </trkpt>
      <trkpt lat="48.50899" lon="7.08129">
        <ele>418.2</ele>
      </trkpt>
      <trkpt lat="48.509" lon="7.08163">
        <ele>418.4</ele>
      </trkpt>
      <trkpt lat="48.50909" lon="7.0819">
        <ele>419.1</ele>
      </trkpt>
      <trkpt lat="48.50919" lon="7.08247">
        <ele>418.9</ele>
      </trkpt>
      <trkpt lat="48.50923" lon="7.08278">
        <ele>418.2</ele>
      </trkpt>
      <trkpt lat="48.50924" lon="7.08288">
        <ele>417.9</ele>
      </trkpt>
      <trkpt lat="48.50922" lon="7.0833">
        <ele>417</ele>
      </trkpt>
      <trkpt lat="48.50929" lon="7.08381">
        <ele>417.5</ele>
      </trkpt>
      <trkpt lat="48.50934" lon="7.08415">
        <ele>417.7</ele>
      </trkpt>
      <trkpt lat="48.50939" lon="7.08448">
        <ele>417.8</ele>
      </trkpt>
      <trkpt lat="48.50942" lon="7.08469">
        <ele>417.9</ele>
      </trkpt>
      <trkpt lat="48.50942" lon="7.08474">
        <ele>417.8</ele>
      </trkpt>
      <trkpt lat="48.50941" lon="7.08486">
        <ele>417.6</ele>
      </trkpt>
      <trkpt lat="48.50937" lon="7.08501">
        <ele>417</ele>
      </trkpt>
      <trkpt lat="48.50931" lon="7.08505">
        <ele>416.5</ele>
      </trkpt>
      <trkpt lat="48.50923" lon="7.08513">
        <ele>415.7</ele>
      </trkpt>
      <trkpt lat="48.50925" lon="7.08545">
        <ele>415.8</ele>
      </trkpt>
      <trkpt lat="48.50932" lon="7.08539">
        <ele>416.4</ele>
      </trkpt>
      <trkpt lat="48.50934" lon="7.08537">
        <ele>416.6</ele>
      </trkpt>
      <trkpt lat="48.50945" lon="7.08533">
        <ele>417.5</ele>
      </trkpt>
      <trkpt lat="48.50955" lon="7.08531">
        <ele>418.3</ele>
      </trkpt>
      <trkpt lat="48.50969" lon="7.08534">
        <ele>419.6</ele>
      </trkpt>
      <trkpt lat="48.50985" lon="7.08544">
        <ele>421.2</ele>
      </trkpt>
      <trkpt lat="48.50997" lon="7.08551">
        <ele>422.8</ele>
      </trkpt>
      <trkpt lat="48.5101" lon="7.08563">
        <ele>424.6</ele>
      </trkpt>
      <trkpt lat="48.51028" lon="7.08583">
        <ele>425.9</ele>
      </trkpt>
      <trkpt lat="48.51039" lon="7.08597">
        <ele>425.7</ele>
      </trkpt>
      <trkpt lat="48.51048" lon="7.08609">
        <ele>425.3</ele>
      </trkpt>
      <trkpt lat="48.51054" lon="7.08613">
        <ele>425.4</ele>
      </trkpt>
      <trkpt lat="48.5106" lon="7.08615">
        <ele>425.7</ele>
      </trkpt>
      <trkpt lat="48.51079" lon="7.08619">
        <ele>427.2</ele>
      </trkpt>
      <trkpt lat="48.51097" lon="7.08622">
        <ele>429.4</ele>
      </trkpt>
      <trkpt lat="48.51109" lon="7.08626">
        <ele>431.1</ele>
      </trkpt>
      <trkpt lat="48.51114" lon="7.08629">
        <ele>431.8</ele>
      </trkpt>
      <trkpt lat="48.51123" lon="7.08635">
        <ele>433.2</ele>
      </trkpt>
      <trkpt lat="48.51126" lon="7.08637">
        <ele>433.7</ele>
      </trkpt>
      <trkpt lat="48.51136" lon="7.08642">
        <ele>435</ele>
      </trkpt>
      <trkpt lat="48.51143" lon="7.08646">
        <ele>436.1</ele>
      </trkpt>
      <trkpt lat="48.51152" lon="7.08653">
        <ele>437.4</ele>
      </trkpt>
      <trkpt lat="48.51173" lon="7.08675">
        <ele>440.6</ele>
      </trkpt>
      <trkpt lat="48.51204" lon="7.08696">
        <ele>444.4</ele>
      </trkpt>
      <trkpt lat="48.51228" lon="7.08714">
        <ele>447.5</ele>
      </trkpt>
      <trkpt lat="48.51249" lon="7.08734">
        <ele>450.6</ele>
      </trkpt>
      <trkpt lat="48.51268" lon="7.08752">
        <ele>452.8</ele>
      </trkpt>
      <trkpt lat="48.51288" lon="7.08773">
        <ele>455.5</ele>
      </trkpt>
      <trkpt lat="48.51303" lon="7.08785">
        <ele>457.6</ele>
      </trkpt>
      <trkpt lat="48.51315" lon="7.08791">
        <ele>459.2</ele>
      </trkpt>
      <trkpt lat="48.51325" lon="7.08793">
        <ele>460.1</ele>
      </trkpt>
      <trkpt lat="48.51315" lon="7.08791">
        <ele>459.2</ele>
      </trkpt>
      <trkpt lat="48.51328" lon="7.08809">
        <ele>461.1</ele>
      </trkpt>
      <trkpt lat="48.5134" lon="7.08824">
        <ele>462.6</ele>
      </trkpt>
      <trkpt lat="48.51357" lon="7.08854">
        <ele>464.9</ele>
      </trkpt>
      <trkpt lat="48.51374" lon="7.08891">
        <ele>467.6</ele>
      </trkpt>
      <trkpt lat="48.51391" lon="7.08929">
        <ele>468.3</ele>
      </trkpt>
      <trkpt lat="48.51408" lon="7.08963">
        <ele>467.5</ele>
      </trkpt>
      <trkpt lat="48.51417" lon="7.08975">
        <ele>467.8</ele>
      </trkpt>
      <trkpt lat="48.51426" lon="7.0898">
        <ele>469.4</ele>
      </trkpt>
      <trkpt lat="48.51454" lon="7.08985">
        <ele>476.8</ele>
      </trkpt>
      <trkpt lat="48.51482" lon="7.08989">
        <ele>481.7</ele>
      </trkpt>
      <trkpt lat="48.51498" lon="7.08992">
        <ele>483</ele>
      </trkpt>
      <trkpt lat="48.51506" lon="7.08992">
        <ele>483.4</ele>
      </trkpt>
      <trkpt lat="48.51513" lon="7.08989">
        <ele>483.8</ele>
      </trkpt>
      <trkpt lat="48.5153" lon="7.0898">
        <ele>484.5</ele>
      </trkpt>
      <trkpt lat="48.51537" lon="7.08975">
        <ele>485.2</ele>
      </trkpt>
      <trkpt lat="48.51541" lon="7.08968">
        <ele>486.5</ele>
      </trkpt>
      <trkpt lat="48.51542" lon="7.08957">
        <ele>488.1</ele>
      </trkpt>
      <trkpt lat="48.51545" lon="7.08947">
        <ele>489.4</ele>
      </trkpt>
      <trkpt lat="48.51548" lon="7.08941">
        <ele>490.4</ele>
      </trkpt>
      <trkpt lat="48.51545" lon="7.08918">
        <ele>491.5</ele>
      </trkpt>
      <trkpt lat="48.51562" lon="7.08927">
        <ele>493.9</ele>
      </trkpt>
      <trkpt lat="48.51585" lon="7.08968">
        <ele>492.3</ele>
      </trkpt>
      <trkpt lat="48.51608" lon="7.09009">
        <ele>489.6</ele>
      </trkpt>
      <trkpt lat="48.51604" lon="7.0904">
        <ele>482.6</ele>
      </trkpt>
      <trkpt lat="48.51599" lon="7.09076">
        <ele>483.4</ele>
      </trkpt>
      <trkpt lat="48.51595" lon="7.09084">
        <ele>484.4</ele>
      </trkpt>
      <trkpt lat="48.5158" lon="7.091">
        <ele>482.1</ele>
      </trkpt>
      <trkpt lat="48.51571" lon="7.09113">
        <ele>480.1</ele>
      </trkpt>
      <trkpt lat="48.51566" lon="7.09125">
        <ele>479.5</ele>
      </trkpt>
      <trkpt lat="48.5156" lon="7.09141">
        <ele>478.5</ele>
      </trkpt>
      <trkpt lat="48.51556" lon="7.09161">
        <ele>478.3</ele>
      </trkpt>
      <trkpt lat="48.51552" lon="7.0918">
        <ele>478.1</ele>
      </trkpt>
      <trkpt lat="48.51545" lon="7.09219">
        <ele>478.2</ele>
      </trkpt>
      <trkpt lat="48.5154" lon="7.09233">
        <ele>478.1</ele>
      </trkpt>
      <trkpt lat="48.51531" lon="7.09254">
        <ele>477</ele>
      </trkpt>
      <trkpt lat="48.51521" lon="7.09268">
        <ele>475.5</ele>
      </trkpt>
      <trkpt lat="48.51508" lon="7.09288">
        <ele>473.4</ele>
      </trkpt>
      <trkpt lat="48.51507" lon="7.09284">
        <ele>473.1</ele>
      </trkpt>
      <trkpt lat="48.51496" lon="7.09224">
        <ele>466.4</ele>
      </trkpt>
      <trkpt lat="48.51484" lon="7.09199">
        <ele>460.5</ele>
      </trkpt>
      <trkpt lat="48.51475" lon="7.09185">
        <ele>456.9</ele>
      </trkpt>
      <trkpt lat="48.51467" lon="7.09179">
        <ele>454.7</ele>
      </trkpt>
      <trkpt lat="48.51442" lon="7.09175">
        <ele>450.4</ele>
      </trkpt>
      <trkpt lat="48.51423" lon="7.09179">
        <ele>449.1</ele>
      </trkpt>
      <trkpt lat="48.51405" lon="7.0918">
        <ele>447.6</ele>
      </trkpt>
      <trkpt lat="48.51385" lon="7.09177">
        <ele>445.4</ele>
      </trkpt>
      <trkpt lat="48.51368" lon="7.09167">
        <ele>441.6</ele>
      </trkpt>
      <trkpt lat="48.51364" lon="7.09165">
        <ele>441</ele>
      </trkpt>
      <trkpt lat="48.5136" lon="7.09166">
        <ele>440.7</ele>
      </trkpt>
      <trkpt lat="48.51354" lon="7.09168">
        <ele>440.7</ele>
      </trkpt>
      <trkpt lat="48.51342" lon="7.09175">
        <ele>440.1</ele>
      </trkpt>
      <trkpt lat="48.51333" lon="7.09184">
        <ele>439.1</ele>
      </trkpt>
      <trkpt lat="48.51327" lon="7.09193">
        <ele>438</ele>
      </trkpt>
      <trkpt lat="48.51322" lon="7.09214">
        <ele>437</ele>
      </trkpt>
      <trkpt lat="48.51318" lon="7.09244">
        <ele>435.3</ele>
      </trkpt>
      <trkpt lat="48.51317" lon="7.09277">
        <ele>434.3</ele>
      </trkpt>
      <trkpt lat="48.51312" lon="7.09304">
        <ele>432.3</ele>
      </trkpt>
      <trkpt lat="48.51307" lon="7.09334">
        <ele>430.4</ele>
      </trkpt>
      <trkpt lat="48.51301" lon="7.09332">
        <ele>429.5</ele>
      </trkpt>
      <trkpt lat="48.51302" lon="7.09344">
        <ele>429.4</ele>
      </trkpt>
      <trkpt lat="48.51301" lon="7.09352">
        <ele>429.1</ele>
      </trkpt>
      <trkpt lat="48.51299" lon="7.0936">
        <ele>428.6</ele>
      </trkpt>
      <trkpt lat="48.51296" lon="7.09372">
        <ele>428</ele>
      </trkpt>
      <trkpt lat="48.51294" lon="7.09376">
        <ele>427.8</ele>
      </trkpt>
      <trkpt lat="48.51293" lon="7.0938">
        <ele>427.6</ele>
      </trkpt>
      <trkpt lat="48.51292" lon="7.09384">
        <ele>427.4</ele>
      </trkpt>
      <trkpt lat="48.51282" lon="7.09413">
        <ele>426.5</ele>
      </trkpt>
      <trkpt lat="48.51272" lon="7.09442">
        <ele>426.2</ele>
      </trkpt>
      <trkpt lat="48.51263" lon="7.09467">
        <ele>426.6</ele>
      </trkpt>
      <trkpt lat="48.51258" lon="7.09481">
        <ele>427</ele>
      </trkpt>
      <trkpt lat="48.5125" lon="7.09498">
        <ele>427.8</ele>
      </trkpt>
      <trkpt lat="48.51241" lon="7.09511">
        <ele>428.5</ele>
      </trkpt>
      <trkpt lat="48.51224" lon="7.09538">
        <ele>429.8</ele>
      </trkpt>
      <trkpt lat="48.51217" lon="7.09549">
        <ele>430</ele>
      </trkpt>
      <trkpt lat="48.51212" lon="7.09557">
        <ele>430.1</ele>
      </trkpt>
      <trkpt lat="48.51205" lon="7.09567">
        <ele>430</ele>
      </trkpt>
      <trkpt lat="48.51197" lon="7.0958">
        <ele>430.1</ele>
      </trkpt>
      <trkpt lat="48.51191" lon="7.09593">
        <ele>430.4</ele>
      </trkpt>
      <trkpt lat="48.51186" lon="7.09606">
        <ele>430.7</ele>
      </trkpt>
      <trkpt lat="48.51184" lon="7.09612">
        <ele>430.9</ele>
      </trkpt>
      <trkpt lat="48.51174" lon="7.09635">
        <ele>431.5</ele>
      </trkpt>
      <trkpt lat="48.51169" lon="7.09652">
        <ele>432.2</ele>
      </trkpt>
      <trkpt lat="48.51165" lon="7.09666">
        <ele>432.9</ele>
      </trkpt>
      <trkpt lat="48.51157" lon="7.0967">
        <ele>433.1</ele>
      </trkpt>
      <trkpt lat="48.5115" lon="7.09673">
        <ele>433.3</ele>
      </trkpt>
      <trkpt lat="48.51141" lon="7.09678">
        <ele>433.6</ele>
      </trkpt>
      <trkpt lat="48.51137" lon="7.09679">
        <ele>433.7</ele>
      </trkpt>
      <trkpt lat="48.51133" lon="7.09679">
        <ele>433.6</ele>
      </trkpt>
      <trkpt lat="48.5113" lon="7.09678">
        <ele>433.5</ele>
      </trkpt>
      <trkpt lat="48.51125" lon="7.09676">
        <ele>433.3</ele>
      </trkpt>
      <trkpt lat="48.51121" lon="7.09675">
        <ele>433.1</ele>
      </trkpt>
      <trkpt lat="48.51119" lon="7.09675">
        <ele>433.1</ele>
      </trkpt>
    </trkseg>
  </trk>
</gpx>